<?xml version='1.0' encoding='UTF-8'?><gpx version="1.1" creator="JPX - https://github.com/jenetics/jpx" xmlns="http://www.topografix.com/GPX/1/1"><trk><trkseg><trkpt lat="39.43922536148155" lon="9.541984047186626"><ele>15.0</ele><time>2026-04-04T07:01:34.401Z</time></trkpt><trkpt lat="39.43921911666137" lon="9.541795616541432"><ele>15.0</ele><time>2026-04-04T07:01:35.6Z</time></trkpt><trkpt lat="39.43922089363019" lon="9.541671330365137"><ele>15.0</ele><time>2026-04-04T07:01:36.8Z</time></trkpt><trkpt lat="39.43922358635911" lon="9.541575587582415"><ele>15.0</ele><time>2026-04-04T07:01:38.25Z</time></trkpt><trkpt lat="39.439229103916645" lon="9.541452260841144"><ele>15.0</ele><time>2026-04-04T07:01:40.05Z</time></trkpt><trkpt lat="39.43924050930651" lon="9.541301540910919"><ele>15.166666666666666</ele><time>2026-04-04T07:01:42Z</time></trkpt><trkpt lat="39.439246149906474" lon="9.54120504475641"><ele>15.333333333333332</ele><time>2026-04-04T07:01:43.5Z</time></trkpt><trkpt lat="39.439248266041176" lon="9.541119737230856"><ele>15.5</ele><time>2026-04-04T07:01:45Z</time></trkpt><trkpt lat="39.43924945667536" lon="9.541037462978"><ele>15.666666666666666</ele><time>2026-04-04T07:01:48.5Z</time></trkpt><trkpt lat="39.439134670631006" lon="9.540989091051193"><ele>15.833333333333332</ele><time>2026-04-04T07:01:51.5Z</time></trkpt><trkpt lat="39.43904404689829" lon="9.540999916186546"><ele>16.0</ele><time>2026-04-04T07:01:53.5Z</time></trkpt><trkpt lat="39.43896073438912" lon="9.540979838909005"><ele>16.0</ele><time>2026-04-04T07:01:55.5Z</time></trkpt><trkpt lat="39.43887212825896" lon="9.540969942683084"><ele>16.0</ele><time>2026-04-04T07:01:57.5Z</time></trkpt><trkpt lat="39.438793854537835" lon="9.540967366638142"><ele>16.0</ele><time>2026-04-04T07:01:59Z</time></trkpt><trkpt lat="39.438686593363904" lon="9.540949615784433"><ele>16.0</ele><time>2026-04-04T07:02:01Z</time></trkpt><trkpt lat="39.438579491406955" lon="9.540898556040831"><ele>16.0</ele><time>2026-04-04T07:02:03Z</time></trkpt><trkpt lat="39.43846206817599" lon="9.540863909313572"><ele>16.0</ele><time>2026-04-04T07:02:05Z</time></trkpt><trkpt lat="39.438349999368484" lon="9.540830842470454"><ele>16.0</ele><time>2026-04-04T07:02:07Z</time></trkpt><trkpt lat="39.43825019378613" lon="9.540817123387892"><ele>16.0</ele><time>2026-04-04T07:02:09Z</time></trkpt><trkpt lat="39.438172378035716" lon="9.540794146262268"><ele>16.0</ele><time>2026-04-04T07:02:11Z</time></trkpt><trkpt lat="39.4380678015613" lon="9.54076609746035"><ele>16.0</ele><time>2026-04-04T07:02:13Z</time></trkpt><trkpt lat="39.438006666946556" lon="9.54073328060252"><ele>16.0</ele><time>2026-04-04T07:02:14Z</time></trkpt><trkpt lat="39.437938023036" lon="9.540716611545244"><ele>15.999999999999998</ele><time>2026-04-04T07:02:15Z</time></trkpt><trkpt lat="39.43787405913399" lon="9.540717100687834"><ele>16.0</ele><time>2026-04-04T07:02:16Z</time></trkpt><trkpt lat="39.43781610121562" lon="9.540666198658839"><ele>16.0</ele><time>2026-04-04T07:02:17Z</time></trkpt><trkpt lat="39.437747196488324" lon="9.54063236277772"><ele>15.999999999999998</ele><time>2026-04-04T07:02:18Z</time></trkpt><trkpt lat="39.43767775909104" lon="9.540598265341428"><ele>16.0</ele><time>2026-04-04T07:02:19Z</time></trkpt><trkpt lat="39.437609937329356" lon="9.540564961229677"><ele>16.0</ele><time>2026-04-04T07:02:20Z</time></trkpt><trkpt lat="39.437539740137346" lon="9.540532751836103"><ele>15.999999999999998</ele><time>2026-04-04T07:02:21Z</time></trkpt><trkpt lat="39.43746851685663" lon="9.540500114322871"><ele>16.0</ele><time>2026-04-04T07:02:22Z</time></trkpt><trkpt lat="39.437397616622086" lon="9.540467624175852"><ele>16.0</ele><time>2026-04-04T07:02:23Z</time></trkpt><trkpt lat="39.4373290662767" lon="9.540436183349602"><ele>16.0</ele><time>2026-04-04T07:02:24Z</time></trkpt><trkpt lat="39.4372651641535" lon="9.54040688143887"><ele>15.999999999999998</ele><time>2026-04-04T07:02:25Z</time></trkpt><trkpt lat="39.43714667834" lon="9.540367635288442"><ele>16.0</ele><time>2026-04-04T07:02:27Z</time></trkpt><trkpt lat="39.43706986020437" lon="9.540321851530251"><ele>15.200000000000001</ele><time>2026-04-04T07:02:30Z</time></trkpt><trkpt lat="39.43699935173708" lon="9.540516051997106"><ele>14.400000000000002</ele><time>2026-04-04T07:02:33Z</time></trkpt><trkpt lat="39.4370108163637" lon="9.540596746113893"><ele>13.6</ele><time>2026-04-04T07:02:34Z</time></trkpt><trkpt lat="39.437028242581256" lon="9.540700829274138"><ele>12.8</ele><time>2026-04-04T07:02:35Z</time></trkpt><trkpt lat="39.43704758604914" lon="9.540800594546777"><ele>12.0</ele><time>2026-04-04T07:02:36Z</time></trkpt><trkpt lat="39.43707933520917" lon="9.54090540216418"><ele>12.0</ele><time>2026-04-04T07:02:37Z</time></trkpt><trkpt lat="39.43711393429957" lon="9.541016069624181"><ele>12.0</ele><time>2026-04-04T07:02:38Z</time></trkpt><trkpt lat="39.437152285909136" lon="9.541133021390303"><ele>12.0</ele><time>2026-04-04T07:02:39Z</time></trkpt><trkpt lat="39.43718964315215" lon="9.541252457487571"><ele>12.0</ele><time>2026-04-04T07:02:40Z</time></trkpt><trkpt lat="39.437224717047194" lon="9.54135644694549"><ele>12.0</ele><time>2026-04-04T07:02:41Z</time></trkpt><trkpt lat="39.43725620607709" lon="9.541449088657098"><ele>12.5</ele><time>2026-04-04T07:02:42Z</time></trkpt><trkpt lat="39.437285858712634" lon="9.541530426495054"><ele>13.0</ele><time>2026-04-04T07:02:43Z</time></trkpt><trkpt lat="39.437325944918314" lon="9.541674583513691"><ele>13.5</ele><time>2026-04-04T07:02:45Z</time></trkpt><trkpt lat="39.43734822668023" lon="9.5417565074992"><ele>14.0</ele><time>2026-04-04T07:02:46Z</time></trkpt><trkpt lat="39.43737865284242" lon="9.541844905359042"><ele>14.5</ele><time>2026-04-04T07:02:47Z</time></trkpt><trkpt lat="39.43741469381671" lon="9.541950168239387"><ele>15.0</ele><time>2026-04-04T07:02:48Z</time></trkpt><trkpt lat="39.43745546831239" lon="9.542066838902246"><ele>15.0</ele><time>2026-04-04T07:02:49Z</time></trkpt><trkpt lat="39.43749588072507" lon="9.542189249250963"><ele>15.0</ele><time>2026-04-04T07:02:50Z</time></trkpt><trkpt lat="39.437531672381176" lon="9.542300076375577"><ele>15.0</ele><time>2026-04-04T07:02:51Z</time></trkpt><trkpt lat="39.4375628608235" lon="9.542398855901917"><ele>15.0</ele><time>2026-04-04T07:02:52Z</time></trkpt><trkpt lat="39.4375888008524" lon="9.542484743979259"><ele>15.0</ele><time>2026-04-04T07:02:53Z</time></trkpt><trkpt lat="39.43763411312299" lon="9.542612958387497"><ele>15.0</ele><time>2026-04-04T07:02:55Z</time></trkpt><trkpt lat="39.43762939403854" lon="9.542712054449256"><ele>15.0</ele><time>2026-04-04T07:02:57Z</time></trkpt><trkpt lat="39.43752388724638" lon="9.542775938954055"><ele>15.0</ele><time>2026-04-04T07:02:59Z</time></trkpt><trkpt lat="39.43745307775625" lon="9.542860316734062"><ele>15.0</ele><time>2026-04-04T07:03:00Z</time></trkpt><trkpt lat="39.4373737443133" lon="9.54293640672823"><ele>15.0</ele><time>2026-04-04T07:03:01Z</time></trkpt><trkpt lat="39.43729362614215" lon="9.543020796049612"><ele>15.0</ele><time>2026-04-04T07:03:02Z</time></trkpt><trkpt lat="39.437208937742554" lon="9.543103592876069"><ele>15.0</ele><time>2026-04-04T07:03:03Z</time></trkpt><trkpt lat="39.43712093324048" lon="9.54318681375819"><ele>15.0</ele><time>2026-04-04T07:03:04Z</time></trkpt><trkpt lat="39.437030390255856" lon="9.543270522751133"><ele>15.0</ele><time>2026-04-04T07:03:05Z</time></trkpt><trkpt lat="39.436938388866075" lon="9.543357699152446"><ele>15.0</ele><time>2026-04-04T07:03:06Z</time></trkpt><trkpt lat="39.436849756660294" lon="9.54344236762592"><ele>15.0</ele><time>2026-04-04T07:03:07Z</time></trkpt><trkpt lat="39.43676568829173" lon="9.54352629100722"><ele>15.0</ele><time>2026-04-04T07:03:08Z</time></trkpt><trkpt lat="39.43669338996917" lon="9.543622523979774"><ele>15.0</ele><time>2026-04-04T07:03:09Z</time></trkpt><trkpt lat="39.43664150794343" lon="9.54373647855539"><ele>15.0</ele><time>2026-04-04T07:03:10Z</time></trkpt><trkpt lat="39.436605040566945" lon="9.543876493415068"><ele>15.0</ele><time>2026-04-04T07:03:11Z</time></trkpt><trkpt lat="39.436589815777836" lon="9.544043474971522"><ele>14.5</ele><time>2026-04-04T07:03:12Z</time></trkpt><trkpt lat="39.43657769888089" lon="9.544214799365882"><ele>14.0</ele><time>2026-04-04T07:03:13Z</time></trkpt><trkpt lat="39.43656606688919" lon="9.544382504547592"><ele>13.5</ele><time>2026-04-04T07:03:14Z</time></trkpt><trkpt lat="39.43654885721594" lon="9.544548302372986"><ele>13.0</ele><time>2026-04-04T07:03:15Z</time></trkpt><trkpt lat="39.43653213002239" lon="9.544715766395885"><ele>13.0</ele><time>2026-04-04T07:03:16Z</time></trkpt><trkpt lat="39.43651609501637" lon="9.544883449798975"><ele>13.0</ele><time>2026-04-04T07:03:17Z</time></trkpt><trkpt lat="39.4364987551607" lon="9.54505295337631"><ele>13.0</ele><time>2026-04-04T07:03:18Z</time></trkpt><trkpt lat="39.43647462438144" lon="9.545221518454197"><ele>13.0</ele><time>2026-04-04T07:03:19Z</time></trkpt><trkpt lat="39.43643939229377" lon="9.545388854425555"><ele>12.75</ele><time>2026-04-04T07:03:20Z</time></trkpt><trkpt lat="39.4363976728355" lon="9.545552478975969"><ele>12.5</ele><time>2026-04-04T07:03:21Z</time></trkpt><trkpt lat="39.436357955814884" lon="9.545718394123032"><ele>12.25</ele><time>2026-04-04T07:03:22Z</time></trkpt><trkpt lat="39.436319244309765" lon="9.545886683770275"><ele>12.0</ele><time>2026-04-04T07:03:23Z</time></trkpt><trkpt lat="39.43628048083635" lon="9.54605645926856"><ele>11.75</ele><time>2026-04-04T07:03:24Z</time></trkpt><trkpt lat="39.43624104341461" lon="9.546227302768102"><ele>11.5</ele><time>2026-04-04T07:03:25Z</time></trkpt><trkpt lat="39.436202695186985" lon="9.546401279959715"><ele>11.25</ele><time>2026-04-04T07:03:26Z</time></trkpt><trkpt lat="39.436165738094424" lon="9.546576233306217"><ele>11.0</ele><time>2026-04-04T07:03:27Z</time></trkpt><trkpt lat="39.43612604169963" lon="9.54675195081979"><ele>11.0</ele><time>2026-04-04T07:03:28Z</time></trkpt><trkpt lat="39.4360863936508" lon="9.546927436290126"><ele>11.0</ele><time>2026-04-04T07:03:29Z</time></trkpt><trkpt lat="39.4360450461691" lon="9.547105408099222"><ele>11.0</ele><time>2026-04-04T07:03:30Z</time></trkpt><trkpt lat="39.4360098962684" lon="9.547282345140623"><ele>11.0</ele><time>2026-04-04T07:03:31Z</time></trkpt><trkpt lat="39.43597134862769" lon="9.547459528461236"><ele>11.25</ele><time>2026-04-04T07:03:32Z</time></trkpt><trkpt lat="39.43592955071868" lon="9.547638630960794"><ele>11.5</ele><time>2026-04-04T07:03:33Z</time></trkpt><trkpt lat="39.43589233831995" lon="9.547812866278399"><ele>11.75</ele><time>2026-04-04T07:03:34Z</time></trkpt><trkpt lat="39.43585351820343" lon="9.547987664905127"><ele>12.0</ele><time>2026-04-04T07:03:35Z</time></trkpt><trkpt lat="39.435814024267174" lon="9.548162887239773"><ele>12.0</ele><time>2026-04-04T07:03:36Z</time></trkpt><trkpt lat="39.43577650473009" lon="9.548333668916076"><ele>12.0</ele><time>2026-04-04T07:03:37Z</time></trkpt><trkpt lat="39.43573656797376" lon="9.548501307644155"><ele>12.0</ele><time>2026-04-04T07:03:38Z</time></trkpt><trkpt lat="39.43570119943177" lon="9.548668178236479"><ele>12.0</ele><time>2026-04-04T07:03:39Z</time></trkpt><trkpt lat="39.43566495897635" lon="9.548831946640284"><ele>11.75</ele><time>2026-04-04T07:03:40Z</time></trkpt><trkpt lat="39.43562864253196" lon="9.548993690524089"><ele>11.5</ele><time>2026-04-04T07:03:41Z</time></trkpt><trkpt lat="39.43559426367468" lon="9.54915375326201"><ele>11.25</ele><time>2026-04-04T07:03:42Z</time></trkpt><trkpt lat="39.43556077534881" lon="9.549310821532865"><ele>11.0</ele><time>2026-04-04T07:03:43Z</time></trkpt><trkpt lat="39.4355268093091" lon="9.549464885338603"><ele>11.0</ele><time>2026-04-04T07:03:44Z</time></trkpt><trkpt lat="39.43549179751611" lon="9.54962045163935"><ele>11.0</ele><time>2026-04-04T07:03:45Z</time></trkpt><trkpt lat="39.4354566721798" lon="9.549774995859238"><ele>11.0</ele><time>2026-04-04T07:03:46Z</time></trkpt><trkpt lat="39.43541941621335" lon="9.549930336533704"><ele>11.0</ele><time>2026-04-04T07:03:47Z</time></trkpt><trkpt lat="39.43538345734828" lon="9.550085259382962"><ele>11.0</ele><time>2026-04-04T07:03:48Z</time></trkpt><trkpt lat="39.435348989338436" lon="9.550241308692941"><ele>11.0</ele><time>2026-04-04T07:03:49Z</time></trkpt><trkpt lat="39.43531820417257" lon="9.550385064898423"><ele>11.0</ele><time>2026-04-04T07:03:50Z</time></trkpt><trkpt lat="39.435281632017016" lon="9.550515276637869"><ele>11.0</ele><time>2026-04-04T07:03:51Z</time></trkpt><trkpt lat="39.43523772483342" lon="9.550625934516704"><ele>11.0</ele><time>2026-04-04T07:03:52Z</time></trkpt><trkpt lat="39.43518275055713" lon="9.550717084740342"><ele>11.166666666666666</ele><time>2026-04-04T07:03:53Z</time></trkpt><trkpt lat="39.43512157018458" lon="9.550782746065385"><ele>11.333333333333332</ele><time>2026-04-04T07:03:54Z</time></trkpt><trkpt lat="39.435055876015056" lon="9.550814144031156"><ele>11.5</ele><time>2026-04-04T07:03:55Z</time></trkpt><trkpt lat="39.434945730078766" lon="9.55080709236188"><ele>11.666666666666666</ele><time>2026-04-04T07:03:57Z</time></trkpt><trkpt lat="39.43488217637803" lon="9.550803435415672"><ele>11.833333333333334</ele><time>2026-04-04T07:03:58Z</time></trkpt><trkpt lat="39.43481204178155" lon="9.550833594845757"><ele>12.0</ele><time>2026-04-04T07:03:59Z</time></trkpt><trkpt lat="39.434754865382146" lon="9.550890949804215"><ele>12.0</ele><time>2026-04-04T07:04:00Z</time></trkpt><trkpt lat="39.43473087957421" lon="9.550983179642058"><ele>12.0</ele><time>2026-04-04T07:04:01Z</time></trkpt><trkpt lat="39.434732181182305" lon="9.551098928436407"><ele>12.0</ele><time>2026-04-04T07:04:02Z</time></trkpt><trkpt lat="39.434772886198616" lon="9.55122260272176"><ele>12.0</ele><time>2026-04-04T07:04:03Z</time></trkpt><trkpt lat="39.43470426868888" lon="9.55134180135581"><ele>12.0</ele><time>2026-04-04T07:04:04Z</time></trkpt><trkpt lat="39.43463335014761" lon="9.551447209227598"><ele>12.2</ele><time>2026-04-04T07:04:05Z</time></trkpt><trkpt lat="39.43454850924506" lon="9.551536598934973"><ele>12.399999999999999</ele><time>2026-04-04T07:04:06Z</time></trkpt><trkpt lat="39.4344633316148" lon="9.551633426985267"><ele>12.600000000000001</ele><time>2026-04-04T07:04:07Z</time></trkpt><trkpt lat="39.434383873281654" lon="9.551733481755953"><ele>12.8</ele><time>2026-04-04T07:04:08Z</time></trkpt><trkpt lat="39.43430804729274" lon="9.551827788206696"><ele>13.0</ele><time>2026-04-04T07:04:09Z</time></trkpt><trkpt lat="39.43423445866281" lon="9.551916415105676"><ele>13.0</ele><time>2026-04-04T07:04:10Z</time></trkpt><trkpt lat="39.43416506416738" lon="9.552002964843824"><ele>13.0</ele><time>2026-04-04T07:04:11Z</time></trkpt><trkpt lat="39.434098041277984" lon="9.552087359187215"><ele>13.0</ele><time>2026-04-04T07:04:12Z</time></trkpt><trkpt lat="39.4340323915679" lon="9.552167369765781"><ele>13.0</ele><time>2026-04-04T07:04:13Z</time></trkpt><trkpt lat="39.43396993996252" lon="9.552247442342647"><ele>13.0</ele><time>2026-04-04T07:04:14Z</time></trkpt><trkpt lat="39.43390747040546" lon="9.55232626643724"><ele>13.0</ele><time>2026-04-04T07:04:15Z</time></trkpt><trkpt lat="39.433839614212914" lon="9.552415121548636"><ele>13.0</ele><time>2026-04-04T07:04:16Z</time></trkpt><trkpt lat="39.43376034963664" lon="9.55250811722619"><ele>13.0</ele><time>2026-04-04T07:04:17Z</time></trkpt><trkpt lat="39.43367933506751" lon="9.552603335850355"><ele>13.0</ele><time>2026-04-04T07:04:18Z</time></trkpt><trkpt lat="39.43359545024106" lon="9.552703985282763"><ele>13.0</ele><time>2026-04-04T07:04:19Z</time></trkpt><trkpt lat="39.43350916850549" lon="9.552806101338932"><ele>12.8</ele><time>2026-04-04T07:04:20Z</time></trkpt><trkpt lat="39.433423075283564" lon="9.55291348779706"><ele>12.600000000000001</ele><time>2026-04-04T07:04:21Z</time></trkpt><trkpt lat="39.43334905457877" lon="9.553006424988476"><ele>12.399999999999999</ele><time>2026-04-04T07:04:22Z</time></trkpt><trkpt lat="39.433277015249416" lon="9.553095839433754"><ele>12.2</ele><time>2026-04-04T07:04:23Z</time></trkpt><trkpt lat="39.433202552448186" lon="9.553188509276584"><ele>12.0</ele><time>2026-04-04T07:04:24Z</time></trkpt><trkpt lat="39.433124206278855" lon="9.553284770919191"><ele>12.0</ele><time>2026-04-04T07:04:25Z</time></trkpt><trkpt lat="39.43304160144115" lon="9.553385281347154"><ele>12.0</ele><time>2026-04-04T07:04:26Z</time></trkpt><trkpt lat="39.43295734678697" lon="9.55348619009277"><ele>12.0</ele><time>2026-04-04T07:04:27Z</time></trkpt><trkpt lat="39.43287530312066" lon="9.553588114770758"><ele>12.0</ele><time>2026-04-04T07:04:28Z</time></trkpt><trkpt lat="39.43279347605049" lon="9.553690012212074"><ele>12.0</ele><time>2026-04-04T07:04:29Z</time></trkpt><trkpt lat="39.43271210691648" lon="9.553789285389543"><ele>12.0</ele><time>2026-04-04T07:04:30Z</time></trkpt><trkpt lat="39.43263203986844" lon="9.55388756853688"><ele>12.0</ele><time>2026-04-04T07:04:31Z</time></trkpt><trkpt lat="39.43255228356737" lon="9.553986246052919"><ele>12.0</ele><time>2026-04-04T07:04:32Z</time></trkpt><trkpt lat="39.4324709493294" lon="9.554083739784796"><ele>12.0</ele><time>2026-04-04T07:04:33Z</time></trkpt><trkpt lat="39.4323908825637" lon="9.554182974948134"><ele>12.0</ele><time>2026-04-04T07:04:34Z</time></trkpt><trkpt lat="39.432310753019145" lon="9.554282144830832"><ele>12.0</ele><time>2026-04-04T07:04:35Z</time></trkpt><trkpt lat="39.43223098927205" lon="9.554381586145716"><ele>12.0</ele><time>2026-04-04T07:04:36Z</time></trkpt><trkpt lat="39.43215087639886" lon="9.554481034391944"><ele>12.0</ele><time>2026-04-04T07:04:37Z</time></trkpt><trkpt lat="39.43207094515067" lon="9.554580784098306"><ele>12.0</ele><time>2026-04-04T07:04:38Z</time></trkpt><trkpt lat="39.43199081363103" lon="9.554683026866483"><ele>12.0</ele><time>2026-04-04T07:04:39Z</time></trkpt><trkpt lat="39.4319115062903" lon="9.5547889239766"><ele>12.0</ele><time>2026-04-04T07:04:40Z</time></trkpt><trkpt lat="39.43183543919395" lon="9.554898465268034"><ele>12.0</ele><time>2026-04-04T07:04:41Z</time></trkpt><trkpt lat="39.43175900947596" lon="9.55501159385961"><ele>12.0</ele><time>2026-04-04T07:04:42Z</time></trkpt><trkpt lat="39.43168074811839" lon="9.555126582452424"><ele>12.0</ele><time>2026-04-04T07:04:43Z</time></trkpt><trkpt lat="39.43160224636613" lon="9.555244118181166"><ele>12.0</ele><time>2026-04-04T07:04:44Z</time></trkpt><trkpt lat="39.43152225892193" lon="9.555369931148899"><ele>12.0</ele><time>2026-04-04T07:04:45Z</time></trkpt><trkpt lat="39.43144124201625" lon="9.555497515722156"><ele>12.0</ele><time>2026-04-04T07:04:46Z</time></trkpt><trkpt lat="39.43136354266228" lon="9.555618278922612"><ele>12.25</ele><time>2026-04-04T07:04:47Z</time></trkpt><trkpt lat="39.43128338892713" lon="9.55573947722999"><ele>12.5</ele><time>2026-04-04T07:04:48Z</time></trkpt><trkpt lat="39.43120113641725" lon="9.555862494986325"><ele>12.75</ele><time>2026-04-04T07:04:49Z</time></trkpt><trkpt lat="39.43111944930938" lon="9.555987040972585"><ele>13.0</ele><time>2026-04-04T07:04:50Z</time></trkpt><trkpt lat="39.431035467216894" lon="9.556112182634095"><ele>12.0</ele><time>2026-04-04T07:04:51Z</time></trkpt><trkpt lat="39.4309522515704" lon="9.556238226239484"><ele>11.0</ele><time>2026-04-04T07:04:52Z</time></trkpt><trkpt lat="39.43086870616339" lon="9.556366617165754"><ele>10.0</ele><time>2026-04-04T07:04:53Z</time></trkpt><trkpt lat="39.43078625629332" lon="9.556493553235793"><ele>9.0</ele><time>2026-04-04T07:04:54Z</time></trkpt><trkpt lat="39.43070463085773" lon="9.556621322398275"><ele>9.0</ele><time>2026-04-04T07:04:55Z</time></trkpt><trkpt lat="39.43062315316" lon="9.55674538872549"><ele>9.0</ele><time>2026-04-04T07:04:56Z</time></trkpt><trkpt lat="39.430542400575376" lon="9.556867756011938"><ele>9.0</ele><time>2026-04-04T07:04:57Z</time></trkpt><trkpt lat="39.43046335693473" lon="9.556984962171363"><ele>9.0</ele><time>2026-04-04T07:04:58Z</time></trkpt><trkpt lat="39.43038343947804" lon="9.557105013569702"><ele>9.25</ele><time>2026-04-04T07:04:59Z</time></trkpt><trkpt lat="39.43030289858241" lon="9.557227122708756"><ele>9.5</ele><time>2026-04-04T07:05:00Z</time></trkpt><trkpt lat="39.430220375204584" lon="9.557350632201029"><ele>9.75</ele><time>2026-04-04T07:05:01Z</time></trkpt><trkpt lat="39.43013181731549" lon="9.5574722084854"><ele>10.0</ele><time>2026-04-04T07:05:02Z</time></trkpt><trkpt lat="39.43003737001426" lon="9.557585244138048"><ele>10.0</ele><time>2026-04-04T07:05:03Z</time></trkpt><trkpt lat="39.429939543144044" lon="9.557691195822343"><ele>10.0</ele><time>2026-04-04T07:05:04Z</time></trkpt><trkpt lat="39.42983458545567" lon="9.557788762639786"><ele>10.0</ele><time>2026-04-04T07:05:05Z</time></trkpt><trkpt lat="39.429719743537255" lon="9.55786833414498"><ele>10.0</ele><time>2026-04-04T07:05:06Z</time></trkpt><trkpt lat="39.42959677094356" lon="9.557933300597682"><ele>9.75</ele><time>2026-04-04T07:05:07Z</time></trkpt><trkpt lat="39.429462303179776" lon="9.557974168901692"><ele>9.5</ele><time>2026-04-04T07:05:08Z</time></trkpt><trkpt lat="39.42932315192087" lon="9.557992893405451"><ele>9.25</ele><time>2026-04-04T07:05:09Z</time></trkpt><trkpt lat="39.42918513625111" lon="9.557999512887518"><ele>9.0</ele><time>2026-04-04T07:05:10Z</time></trkpt><trkpt lat="39.42904770445348" lon="9.558001297947303"><ele>9.0</ele><time>2026-04-04T07:05:11Z</time></trkpt><trkpt lat="39.428913661733716" lon="9.558008294442203"><ele>9.0</ele><time>2026-04-04T07:05:12Z</time></trkpt><trkpt lat="39.42877989617313" lon="9.558038865945038"><ele>9.0</ele><time>2026-04-04T07:05:13Z</time></trkpt><trkpt lat="39.42864729367202" lon="9.558022951369997"><ele>9.0</ele><time>2026-04-04T07:05:14Z</time></trkpt><trkpt lat="39.42851791447168" lon="9.558056488546281"><ele>8.75</ele><time>2026-04-04T07:05:15Z</time></trkpt><trkpt lat="39.428401066309476" lon="9.558132834839602"><ele>8.5</ele><time>2026-04-04T07:05:16Z</time></trkpt><trkpt lat="39.428304802481826" lon="9.558244179763612"><ele>8.25</ele><time>2026-04-04T07:05:17Z</time></trkpt><trkpt lat="39.42823158781461" lon="9.55837906393108"><ele>8.0</ele><time>2026-04-04T07:05:18Z</time></trkpt><trkpt lat="39.42817198094031" lon="9.558529306146081"><ele>8.0</ele><time>2026-04-04T07:05:19Z</time></trkpt><trkpt lat="39.42810847776623" lon="9.558681012584595"><ele>8.0</ele><time>2026-04-04T07:05:20Z</time></trkpt><trkpt lat="39.428032513678765" lon="9.558823128680828"><ele>8.0</ele><time>2026-04-04T07:05:21Z</time></trkpt><trkpt lat="39.427939492803624" lon="9.558953875513382"><ele>8.0</ele><time>2026-04-04T07:05:22Z</time></trkpt><trkpt lat="39.42783345716588" lon="9.559071644576626"><ele>8.0</ele><time>2026-04-04T07:05:23Z</time></trkpt><trkpt lat="39.427719153679" lon="9.559181495527142"><ele>8.0</ele><time>2026-04-04T07:05:24Z</time></trkpt><trkpt lat="39.427596877829274" lon="9.5592759419915"><ele>8.0</ele><time>2026-04-04T07:05:25Z</time></trkpt><trkpt lat="39.42746238153016" lon="9.559348830276214"><ele>8.0</ele><time>2026-04-04T07:05:26Z</time></trkpt><trkpt lat="39.42732085298267" lon="9.55939772609019"><ele>8.0</ele><time>2026-04-04T07:05:27Z</time></trkpt><trkpt lat="39.42717106028669" lon="9.559432462102984"><ele>8.0</ele><time>2026-04-04T07:05:28Z</time></trkpt><trkpt lat="39.42702424498065" lon="9.559468526803476"><ele>8.0</ele><time>2026-04-04T07:05:29Z</time></trkpt><trkpt lat="39.42687786018437" lon="9.55951575689269"><ele>8.333333333333332</ele><time>2026-04-04T07:05:30Z</time></trkpt><trkpt lat="39.426706274043205" lon="9.559449738647231"><ele>8.666666666666666</ele><time>2026-04-04T07:05:31Z</time></trkpt><trkpt lat="39.42655142556754" lon="9.55945296672914"><ele>9.0</ele><time>2026-04-04T07:05:32Z</time></trkpt><trkpt lat="39.42639302464732" lon="9.559448956309568"><ele>13.0</ele><time>2026-04-04T07:05:33Z</time></trkpt><trkpt lat="39.4262356669573" lon="9.559440648331588"><ele>17.0</ele><time>2026-04-04T07:05:34Z</time></trkpt><trkpt lat="39.426071064457524" lon="9.559434555951066"><ele>21.0</ele><time>2026-04-04T07:05:35Z</time></trkpt><trkpt lat="39.42589803320144" lon="9.559431111048463"><ele>21.0</ele><time>2026-04-04T07:05:36Z</time></trkpt><trkpt lat="39.42571670213265" lon="9.559419609191389"><ele>21.0</ele><time>2026-04-04T07:05:37Z</time></trkpt><trkpt lat="39.425534736640365" lon="9.559394922051528"><ele>21.0</ele><time>2026-04-04T07:05:38Z</time></trkpt><trkpt lat="39.425354329646964" lon="9.559363651388384"><ele>23.666666666666664</ele><time>2026-04-04T07:05:39Z</time></trkpt><trkpt lat="39.42517334682028" lon="9.559328235034164"><ele>26.333333333333332</ele><time>2026-04-04T07:05:40Z</time></trkpt><trkpt lat="39.424988069325856" lon="9.559290410526117"><ele>29.0</ele><time>2026-04-04T07:05:41Z</time></trkpt><trkpt lat="39.424804795101856" lon="9.559253354511638"><ele>28.333333333333332</ele><time>2026-04-04T07:05:42Z</time></trkpt><trkpt lat="39.424618077733584" lon="9.559214001537374"><ele>27.666666666666664</ele><time>2026-04-04T07:05:43Z</time></trkpt><trkpt lat="39.42443019611893" lon="9.55916712738046"><ele>27.0</ele><time>2026-04-04T07:05:44Z</time></trkpt><trkpt lat="39.42424263076525" lon="9.559110653407588"><ele>27.0</ele><time>2026-04-04T07:05:45Z</time></trkpt><trkpt lat="39.42405875632533" lon="9.559049774820096"><ele>27.0</ele><time>2026-04-04T07:05:46Z</time></trkpt><trkpt lat="39.42387434690185" lon="9.558984202007215"><ele>27.0</ele><time>2026-04-04T07:05:47Z</time></trkpt><trkpt lat="39.42369298650605" lon="9.558917490289206"><ele>26.0</ele><time>2026-04-04T07:05:48Z</time></trkpt><trkpt lat="39.42351349111728" lon="9.558850064185727"><ele>25.0</ele><time>2026-04-04T07:05:49Z</time></trkpt><trkpt lat="39.4233347496124" lon="9.558780217366182"><ele>24.0</ele><time>2026-04-04T07:05:50Z</time></trkpt><trkpt lat="39.42315817698143" lon="9.558711666791238"><ele>25.666666666666664</ele><time>2026-04-04T07:05:51Z</time></trkpt><trkpt lat="39.42298158038753" lon="9.558645351688343"><ele>27.333333333333332</ele><time>2026-04-04T07:05:52Z</time></trkpt><trkpt lat="39.42280408154341" lon="9.558574990696073"><ele>29.0</ele><time>2026-04-04T07:05:53Z</time></trkpt><trkpt lat="39.42263044811427" lon="9.558504555471835"><ele>29.0</ele><time>2026-04-04T07:05:54Z</time></trkpt><trkpt lat="39.42245338888278" lon="9.558433083538901"><ele>29.0</ele><time>2026-04-04T07:05:55Z</time></trkpt><trkpt lat="39.42227837980315" lon="9.558362527160778"><ele>29.0</ele><time>2026-04-04T07:05:56Z</time></trkpt><trkpt lat="39.422100114679985" lon="9.55828764686723"><ele>28.0</ele><time>2026-04-04T07:05:57Z</time></trkpt><trkpt lat="39.42192630305839" lon="9.558211873460357"><ele>27.0</ele><time>2026-04-04T07:05:58Z</time></trkpt><trkpt lat="39.42174846744555" lon="9.55813104492075"><ele>26.0</ele><time>2026-04-04T07:05:59Z</time></trkpt><trkpt lat="39.42156908718582" lon="9.558050923125112"><ele>26.0</ele><time>2026-04-04T07:06:00Z</time></trkpt><trkpt lat="39.421390709648385" lon="9.557974481046644"><ele>26.0</ele><time>2026-04-04T07:06:01Z</time></trkpt><trkpt lat="39.4212098632135" lon="9.55789685961992"><ele>26.0</ele><time>2026-04-04T07:06:02Z</time></trkpt><trkpt lat="39.42102873607159" lon="9.557818185940166"><ele>27.666666666666664</ele><time>2026-04-04T07:06:03Z</time></trkpt><trkpt lat="39.42084711318361" lon="9.557738445845288"><ele>29.333333333333336</ele><time>2026-04-04T07:06:04Z</time></trkpt><trkpt lat="39.42066402802354" lon="9.557659299758635"><ele>31.0</ele><time>2026-04-04T07:06:05Z</time></trkpt><trkpt lat="39.420481830019874" lon="9.557581125909254"><ele>31.0</ele><time>2026-04-04T07:06:06Z</time></trkpt><trkpt lat="39.420299408582686" lon="9.557504856227647"><ele>31.0</ele><time>2026-04-04T07:06:07Z</time></trkpt><trkpt lat="39.42011802421354" lon="9.557427717390587"><ele>31.0</ele><time>2026-04-04T07:06:08Z</time></trkpt><trkpt lat="39.41993376385662" lon="9.557350782246239"><ele>31.0</ele><time>2026-04-04T07:06:09Z</time></trkpt><trkpt lat="39.419748134917" lon="9.557277927335685"><ele>31.0</ele><time>2026-04-04T07:06:10Z</time></trkpt><trkpt lat="39.41955971740139" lon="9.55721114250299"><ele>31.0</ele><time>2026-04-04T07:06:11Z</time></trkpt><trkpt lat="39.41936853343483" lon="9.55714886362261"><ele>31.333333333333336</ele><time>2026-04-04T07:06:12Z</time></trkpt><trkpt lat="39.41917559600314" lon="9.557092340131804"><ele>31.666666666666664</ele><time>2026-04-04T07:06:13Z</time></trkpt><trkpt lat="39.418981028754374" lon="9.557040708275748"><ele>32.0</ele><time>2026-04-04T07:06:14Z</time></trkpt><trkpt lat="39.41878464248588" lon="9.556995927924872"><ele>34.33333333333333</ele><time>2026-04-04T07:06:15Z</time></trkpt><trkpt lat="39.41858741545774" lon="9.556957847222789"><ele>36.666666666666664</ele><time>2026-04-04T07:06:16Z</time></trkpt><trkpt lat="39.41838997106968" lon="9.556927203689476"><ele>39.0</ele><time>2026-04-04T07:06:17Z</time></trkpt><trkpt lat="39.418190714053" lon="9.55690436833917"><ele>39.0</ele><time>2026-04-04T07:06:18Z</time></trkpt><trkpt lat="39.41799201125285" lon="9.556891502856757"><ele>39.0</ele><time>2026-04-04T07:06:19Z</time></trkpt><trkpt lat="39.41779146383437" lon="9.55688651101189"><ele>39.0</ele><time>2026-04-04T07:06:20Z</time></trkpt><trkpt lat="39.417591862645956" lon="9.55689080992156"><ele>40.0</ele><time>2026-04-04T07:06:21Z</time></trkpt><trkpt lat="39.41739112284527" lon="9.556902596112282"><ele>41.0</ele><time>2026-04-04T07:06:22Z</time></trkpt><trkpt lat="39.41718907836932" lon="9.556920544916405"><ele>42.0</ele><time>2026-04-04T07:06:23Z</time></trkpt><trkpt lat="39.41698876314337" lon="9.556946034377418"><ele>42.0</ele><time>2026-04-04T07:06:24Z</time></trkpt><trkpt lat="39.41678633209759" lon="9.556984749583863"><ele>42.0</ele><time>2026-04-04T07:06:25Z</time></trkpt><trkpt lat="39.41658414533179" lon="9.557033641079759"><ele>42.0</ele><time>2026-04-04T07:06:26Z</time></trkpt><trkpt lat="39.41638265342995" lon="9.557087236164037"><ele>43.666666666666664</ele><time>2026-04-04T07:06:27Z</time></trkpt><trkpt lat="39.41618081986661" lon="9.557147256367076"><ele>45.33333333333333</ele><time>2026-04-04T07:06:28Z</time></trkpt><trkpt lat="39.415979337550404" lon="9.557214616255175"><ele>47.0</ele><time>2026-04-04T07:06:29Z</time></trkpt><trkpt lat="39.41577933614977" lon="9.55728981389024"><ele>47.0</ele><time>2026-04-04T07:06:30Z</time></trkpt><trkpt lat="39.4155795394273" lon="9.557370414023557"><ele>47.0</ele><time>2026-04-04T07:06:31Z</time></trkpt><trkpt lat="39.41538120973305" lon="9.557455056200874"><ele>47.0</ele><time>2026-04-04T07:06:32Z</time></trkpt><trkpt lat="39.41518293838132" lon="9.557543017439574"><ele>49.0</ele><time>2026-04-04T07:06:33Z</time></trkpt><trkpt lat="39.41498683758903" lon="9.557633402382477"><ele>51.0</ele><time>2026-04-04T07:06:34Z</time></trkpt><trkpt lat="39.41478991410749" lon="9.557725833709803"><ele>53.0</ele><time>2026-04-04T07:06:35Z</time></trkpt><trkpt lat="39.414594636105996" lon="9.557819120479873"><ele>52.333333333333336</ele><time>2026-04-04T07:06:36Z</time></trkpt><trkpt lat="39.41439905348485" lon="9.557914024490891"><ele>51.66666666666667</ele><time>2026-04-04T07:06:37Z</time></trkpt><trkpt lat="39.414202655122146" lon="9.558009789893454"><ele>51.0</ele><time>2026-04-04T07:06:38Z</time></trkpt><trkpt lat="39.414006358970624" lon="9.558105238656744"><ele>51.0</ele><time>2026-04-04T07:06:39Z</time></trkpt><trkpt lat="39.41380879781074" lon="9.558191999063167"><ele>51.0</ele><time>2026-04-04T07:06:40Z</time></trkpt><trkpt lat="39.41360930643747" lon="9.55827821355161"><ele>51.0</ele><time>2026-04-04T07:06:41Z</time></trkpt><trkpt lat="39.413412456113285" lon="9.558364059865873"><ele>51.0</ele><time>2026-04-04T07:06:42Z</time></trkpt><trkpt lat="39.413212976225864" lon="9.558451724612034"><ele>51.0</ele><time>2026-04-04T07:06:43Z</time></trkpt><trkpt lat="39.413014224656855" lon="9.55853204114054"><ele>51.0</ele><time>2026-04-04T07:06:44Z</time></trkpt><trkpt lat="39.412813829533434" lon="9.55861140666057"><ele>52.33333333333333</ele><time>2026-04-04T07:06:45Z</time></trkpt><trkpt lat="39.412612362009845" lon="9.558686886982022"><ele>53.666666666666664</ele><time>2026-04-04T07:06:46Z</time></trkpt><trkpt lat="39.41241036400393" lon="9.558754692746541"><ele>55.0</ele><time>2026-04-04T07:06:47Z</time></trkpt><trkpt lat="39.412205430209184" lon="9.558816901483889"><ele>54.33333333333333</ele><time>2026-04-04T07:06:48Z</time></trkpt><trkpt lat="39.412002750880184" lon="9.558874826018503"><ele>53.66666666666667</ele><time>2026-04-04T07:06:49Z</time></trkpt><trkpt lat="39.41179675349444" lon="9.5589276324175"><ele>53.0</ele><time>2026-04-04T07:06:50Z</time></trkpt><trkpt lat="39.411589968902106" lon="9.558974364651606"><ele>53.0</ele><time>2026-04-04T07:06:51Z</time></trkpt><trkpt lat="39.411382212405805" lon="9.559012843513823"><ele>53.0</ele><time>2026-04-04T07:06:52Z</time></trkpt><trkpt lat="39.411172970872705" lon="9.559039929470337"><ele>53.0</ele><time>2026-04-04T07:06:53Z</time></trkpt><trkpt lat="39.410960195100365" lon="9.559054898147687"><ele>54.66666666666667</ele><time>2026-04-04T07:06:54Z</time></trkpt><trkpt lat="39.41074904575347" lon="9.559064899405321"><ele>56.33333333333333</ele><time>2026-04-04T07:06:55Z</time></trkpt><trkpt lat="39.41054408097176" lon="9.559065259622416"><ele>58.0</ele><time>2026-04-04T07:06:56Z</time></trkpt><trkpt lat="39.410340135584946" lon="9.559062538383543"><ele>60.0</ele><time>2026-04-04T07:06:57Z</time></trkpt><trkpt lat="39.41009862327563" lon="9.559052356412087"><ele>62.0</ele><time>2026-04-04T07:06:58Z</time></trkpt><trkpt lat="39.4098816094869" lon="9.559030400360177"><ele>62.0</ele><time>2026-04-04T07:06:59Z</time></trkpt><trkpt lat="39.4096645399568" lon="9.5589990637021"><ele>62.0</ele><time>2026-04-04T07:07:00Z</time></trkpt><trkpt lat="39.40944950474255" lon="9.558956798405555"><ele>62.0</ele><time>2026-04-04T07:07:01Z</time></trkpt><trkpt lat="39.40923635707482" lon="9.558910053314921"><ele>61.66666666666667</ele><time>2026-04-04T07:07:02Z</time></trkpt><trkpt lat="39.40902356156926" lon="9.5588544741567"><ele>61.33333333333333</ele><time>2026-04-04T07:07:03Z</time></trkpt><trkpt lat="39.408815967973965" lon="9.558787513317288"><ele>61.0</ele><time>2026-04-04T07:07:04Z</time></trkpt><trkpt lat="39.40860864772744" lon="9.558716445823437"><ele>63.33333333333333</ele><time>2026-04-04T07:07:05Z</time></trkpt><trkpt lat="39.4084045470402" lon="9.558635552771136"><ele>65.66666666666667</ele><time>2026-04-04T07:07:06Z</time></trkpt><trkpt lat="39.408205070696475" lon="9.558543880624763"><ele>68.0</ele><time>2026-04-04T07:07:07Z</time></trkpt><trkpt lat="39.40800630802362" lon="9.558441015786043"><ele>65.66666666666667</ele><time>2026-04-04T07:07:08Z</time></trkpt><trkpt lat="39.40781114825291" lon="9.558335566091511"><ele>63.33333333333333</ele><time>2026-04-04T07:07:09Z</time></trkpt><trkpt lat="39.407618505436375" lon="9.558224186432334"><ele>61.0</ele><time>2026-04-04T07:07:10Z</time></trkpt><trkpt lat="39.40743045585736" lon="9.558101793002901"><ele>61.0</ele><time>2026-04-04T07:07:11Z</time></trkpt><trkpt lat="39.407243445975155" lon="9.55797769071749"><ele>61.0</ele><time>2026-04-04T07:07:12Z</time></trkpt><trkpt lat="39.407055551122674" lon="9.557843310147266"><ele>61.0</ele><time>2026-04-04T07:07:13Z</time></trkpt><trkpt lat="39.40686635889856" lon="9.55769905234281"><ele>64.0</ele><time>2026-04-04T07:07:14Z</time></trkpt><trkpt lat="39.4066753902954" lon="9.557553559399839"><ele>67.0</ele><time>2026-04-04T07:07:15Z</time></trkpt><trkpt lat="39.406485599399886" lon="9.55739783088467"><ele>70.0</ele><time>2026-04-04T07:07:16Z</time></trkpt><trkpt lat="39.40629888725641" lon="9.557239209007141"><ele>70.5</ele><time>2026-04-04T07:07:17Z</time></trkpt><trkpt lat="39.406109557842925" lon="9.557071469344269"><ele>71.0</ele><time>2026-04-04T07:07:18Z</time></trkpt><trkpt lat="39.405924730796514" lon="9.556899108264302"><ele>73.0</ele><time>2026-04-04T07:07:19Z</time></trkpt><trkpt lat="39.40574356816856" lon="9.556715737757793"><ele>75.0</ele><time>2026-04-04T07:07:20Z</time></trkpt><trkpt lat="39.405557666748" lon="9.556547642254845"><ele>77.66666666666667</ele><time>2026-04-04T07:07:21Z</time></trkpt><trkpt lat="39.40537493608921" lon="9.556373162675548"><ele>80.33333333333334</ele><time>2026-04-04T07:07:22Z</time></trkpt><trkpt lat="39.40519708080632" lon="9.556200662479819"><ele>83.0</ele><time>2026-04-04T07:07:23Z</time></trkpt><trkpt lat="39.40501684341263" lon="9.556032913526323"><ele>83.0</ele><time>2026-04-04T07:07:24Z</time></trkpt><trkpt lat="39.40483567674116" lon="9.555862479105626"><ele>83.0</ele><time>2026-04-04T07:07:25Z</time></trkpt><trkpt lat="39.40466252689591" lon="9.55569188252068"><ele>83.0</ele><time>2026-04-04T07:07:26Z</time></trkpt><trkpt lat="39.40448706220578" lon="9.555526220913398"><ele>84.66666666666667</ele><time>2026-04-04T07:07:27Z</time></trkpt><trkpt lat="39.40431180053612" lon="9.555358846816269"><ele>86.33333333333333</ele><time>2026-04-04T07:07:28Z</time></trkpt><trkpt lat="39.404135253543764" lon="9.555195123467456"><ele>88.0</ele><time>2026-04-04T07:07:29Z</time></trkpt><trkpt lat="39.40395708437712" lon="9.555031673919302"><ele>91.0</ele><time>2026-04-04T07:07:30Z</time></trkpt><trkpt lat="39.40378153270355" lon="9.554868236462893"><ele>94.0</ele><time>2026-04-04T07:07:31Z</time></trkpt><trkpt lat="39.40361106263813" lon="9.554681237215302"><ele>97.0</ele><time>2026-04-04T07:07:32Z</time></trkpt><trkpt lat="39.40343132845261" lon="9.554508741914795"><ele>97.0</ele><time>2026-04-04T07:07:33.025Z</time></trkpt><trkpt lat="39.40325847479304" lon="9.55434285000689"><ele>97.0</ele><time>2026-04-04T07:07:34.025Z</time></trkpt><trkpt lat="39.40308221512383" lon="9.55417368916435"><ele>97.0</ele><time>2026-04-04T07:07:35.026Z</time></trkpt><trkpt lat="39.40290710873742" lon="9.554005635228053"><ele>104.66666666666667</ele><time>2026-04-04T07:07:36.025Z</time></trkpt><trkpt lat="39.402739742916374" lon="9.553845010078255"><ele>112.33333333333334</ele><time>2026-04-04T07:07:36.976Z</time></trkpt><trkpt lat="39.402581334162534" lon="9.553692981248172"><ele>120.0</ele><time>2026-04-04T07:07:37.875Z</time></trkpt><trkpt lat="39.4022443" lon="9.5533963"><ele>113.0</ele><time>2026-04-04T07:07:41.724Z</time></trkpt><trkpt lat="39.39028796564039" lon="9.541923008036639"><ele>113.0</ele><time>2026-04-04T07:08:47Z</time></trkpt><trkpt lat="39.390105866370234" lon="9.541749029476572"><ele>113.0</ele><time>2026-04-04T07:08:48Z</time></trkpt><trkpt lat="39.38992141081154" lon="9.54157584504629"><ele>113.0</ele><time>2026-04-04T07:08:49Z</time></trkpt><trkpt lat="39.38974049499124" lon="9.541398386018528"><ele>113.0</ele><time>2026-04-04T07:08:50Z</time></trkpt><trkpt lat="39.38956052235538" lon="9.541223318058094"><ele>105.0</ele><time>2026-04-04T07:08:51Z</time></trkpt><trkpt lat="39.38937830408896" lon="9.541047730823829"><ele>97.0</ele><time>2026-04-04T07:08:52Z</time></trkpt><trkpt lat="39.389195101350424" lon="9.540871182884784"><ele>97.0</ele><time>2026-04-04T07:08:53Z</time></trkpt><trkpt lat="39.389012075026756" lon="9.540695297486112"><ele>97.0</ele><time>2026-04-04T07:08:54Z</time></trkpt><trkpt lat="39.38882728480769" lon="9.54051712597453"><ele>93.5</ele><time>2026-04-04T07:08:55Z</time></trkpt><trkpt lat="39.388641237631504" lon="9.540339641927668"><ele>90.0</ele><time>2026-04-04T07:08:56Z</time></trkpt><trkpt lat="39.38845490625415" lon="9.540161953829625"><ele>90.0</ele><time>2026-04-04T07:08:57Z</time></trkpt><trkpt lat="39.388268773662304" lon="9.539987752968445"><ele>90.0</ele><time>2026-04-04T07:08:58Z</time></trkpt><trkpt lat="39.388086232534874" lon="9.539810716761723"><ele>89.5</ele><time>2026-04-04T07:08:59Z</time></trkpt><trkpt lat="39.38790456107613" lon="9.539637700513563"><ele>89.0</ele><time>2026-04-04T07:09:00Z</time></trkpt><trkpt lat="39.387720696180615" lon="9.539470141117746"><ele>89.0</ele><time>2026-04-04T07:09:01Z</time></trkpt><trkpt lat="39.38753956197736" lon="9.5393048268549"><ele>89.0</ele><time>2026-04-04T07:09:02Z</time></trkpt><trkpt lat="39.38735889636896" lon="9.539138384085058"><ele>89.0</ele><time>2026-04-04T07:09:03Z</time></trkpt><trkpt lat="39.387177760586404" lon="9.538973707487408"><ele>86.66666666666667</ele><time>2026-04-04T07:09:04Z</time></trkpt><trkpt lat="39.386996269857725" lon="9.53880948837135"><ele>84.33333333333333</ele><time>2026-04-04T07:09:05Z</time></trkpt><trkpt lat="39.386815632482346" lon="9.538642612136217"><ele>82.0</ele><time>2026-04-04T07:09:06Z</time></trkpt><trkpt lat="39.38662782664623" lon="9.538475428904123"><ele>82.0</ele><time>2026-04-04T07:09:07Z</time></trkpt><trkpt lat="39.386434532662356" lon="9.53831807817007"><ele>82.0</ele><time>2026-04-04T07:09:08Z</time></trkpt><trkpt lat="39.38624231288874" lon="9.538160189840722"><ele>79.0</ele><time>2026-04-04T07:09:09Z</time></trkpt><trkpt lat="39.38604571669216" lon="9.538009006698191"><ele>76.0</ele><time>2026-04-04T07:09:10Z</time></trkpt><trkpt lat="39.385845990919414" lon="9.537860184410313"><ele>79.5</ele><time>2026-04-04T07:09:11Z</time></trkpt><trkpt lat="39.38564474058958" lon="9.537715469096248"><ele>83.0</ele><time>2026-04-04T07:09:12Z</time></trkpt><trkpt lat="39.38543950627109" lon="9.53757642213807"><ele>83.0</ele><time>2026-04-04T07:09:13Z</time></trkpt><trkpt lat="39.38523563956254" lon="9.537437210881548"><ele>83.0</ele><time>2026-04-04T07:09:14Z</time></trkpt><trkpt lat="39.38502354376764" lon="9.537307807884677"><ele>83.0</ele><time>2026-04-04T07:09:15Z</time></trkpt><trkpt lat="39.384804982672" lon="9.537182784114194"><ele>83.0</ele><time>2026-04-04T07:09:16Z</time></trkpt><trkpt lat="39.38458863077954" lon="9.537065909111318"><ele>82.5</ele><time>2026-04-04T07:09:17Z</time></trkpt><trkpt lat="39.38437077246558" lon="9.536949705993763"><ele>82.0</ele><time>2026-04-04T07:09:18Z</time></trkpt><trkpt lat="39.384144709981356" lon="9.536839169121672"><ele>82.0</ele><time>2026-04-04T07:09:19Z</time></trkpt><trkpt lat="39.38391477054282" lon="9.536737026959413"><ele>82.0</ele><time>2026-04-04T07:09:20Z</time></trkpt><trkpt lat="39.383682167858105" lon="9.536644049042549"><ele>79.0</ele><time>2026-04-04T07:09:21Z</time></trkpt><trkpt lat="39.3834490677152" lon="9.536555505266575"><ele>76.0</ele><time>2026-04-04T07:09:22Z</time></trkpt><trkpt lat="39.383213502028134" lon="9.53646664318104"><ele>74.5</ele><time>2026-04-04T07:09:23Z</time></trkpt><trkpt lat="39.38297342849362" lon="9.536389388125713"><ele>73.0</ele><time>2026-04-04T07:09:24Z</time></trkpt><trkpt lat="39.382730712832966" lon="9.536320579450415"><ele>73.0</ele><time>2026-04-04T07:09:25Z</time></trkpt><trkpt lat="39.38248512870105" lon="9.536258516719458"><ele>73.0</ele><time>2026-04-04T07:09:26Z</time></trkpt><trkpt lat="39.38223826163759" lon="9.536203967041516"><ele>72.5</ele><time>2026-04-04T07:09:27Z</time></trkpt><trkpt lat="39.38198871414861" lon="9.536154506504639"><ele>72.0</ele><time>2026-04-04T07:09:28Z</time></trkpt><trkpt lat="39.381740644848676" lon="9.536108911385572"><ele>72.0</ele><time>2026-04-04T07:09:29Z</time></trkpt><trkpt lat="39.38148954296705" lon="9.536068934577855"><ele>72.0</ele><time>2026-04-04T07:09:30Z</time></trkpt><trkpt lat="39.38123093632361" lon="9.536046929612269"><ele>69.5</ele><time>2026-04-04T07:09:31Z</time></trkpt><trkpt lat="39.38097527626637" lon="9.53602322606377"><ele>67.0</ele><time>2026-04-04T07:09:32Z</time></trkpt><trkpt lat="39.38072082255781" lon="9.536014348400268"><ele>63.5</ele><time>2026-04-04T07:09:33Z</time></trkpt><trkpt lat="39.38046121758311" lon="9.536011956829126"><ele>60.0</ele><time>2026-04-04T07:09:34Z</time></trkpt><trkpt lat="39.38020225979839" lon="9.536016545036922"><ele>60.0</ele><time>2026-04-04T07:09:35Z</time></trkpt><trkpt lat="39.379945262760394" lon="9.536024169347613"><ele>60.0</ele><time>2026-04-04T07:09:36Z</time></trkpt><trkpt lat="39.37968869022407" lon="9.53603902166345"><ele>58.5</ele><time>2026-04-04T07:09:37Z</time></trkpt><trkpt lat="39.37943022830287" lon="9.53606056796792"><ele>57.0</ele><time>2026-04-04T07:09:38Z</time></trkpt><trkpt lat="39.3791736774015" lon="9.53608850925069"><ele>57.0</ele><time>2026-04-04T07:09:39Z</time></trkpt><trkpt lat="39.378913555473126" lon="9.536110701862377"><ele>57.0</ele><time>2026-04-04T07:09:40Z</time></trkpt><trkpt lat="39.37865743103746" lon="9.53614958233723"><ele>55.5</ele><time>2026-04-04T07:09:41Z</time></trkpt><trkpt lat="39.37839980213446" lon="9.536192480893895"><ele>54.0</ele><time>2026-04-04T07:09:42Z</time></trkpt><trkpt lat="39.378143515803444" lon="9.536237519413202"><ele>52.0</ele><time>2026-04-04T07:09:43Z</time></trkpt><trkpt lat="39.37788919746523" lon="9.53628268795481"><ele>50.0</ele><time>2026-04-04T07:09:44Z</time></trkpt><trkpt lat="39.377634633323815" lon="9.536328314605734"><ele>50.0</ele><time>2026-04-04T07:09:45Z</time></trkpt><trkpt lat="39.37737935146849" lon="9.536371624054075"><ele>50.0</ele><time>2026-04-04T07:09:46Z</time></trkpt><trkpt lat="39.37712598914662" lon="9.536417426860877"><ele>50.0</ele><time>2026-04-04T07:09:47Z</time></trkpt><trkpt lat="39.376872081801544" lon="9.536464991997743"><ele>50.0</ele><time>2026-04-04T07:09:48Z</time></trkpt><trkpt lat="39.376618336055415" lon="9.53651329818235"><ele>50.0</ele><time>2026-04-04T07:09:49Z</time></trkpt><trkpt lat="39.37636734347177" lon="9.53656178302366"><ele>50.0</ele><time>2026-04-04T07:09:50Z</time></trkpt><trkpt lat="39.37611868447403" lon="9.536605990279373"><ele>49.0</ele><time>2026-04-04T07:09:51Z</time></trkpt><trkpt lat="39.37587073045143" lon="9.53665417698203"><ele>48.0</ele><time>2026-04-04T07:09:52Z</time></trkpt><trkpt lat="39.37562512352686" lon="9.536701914669724"><ele>46.5</ele><time>2026-04-04T07:09:53Z</time></trkpt><trkpt lat="39.37538127271058" lon="9.536752834824044"><ele>45.0</ele><time>2026-04-04T07:09:54Z</time></trkpt><trkpt lat="39.37513980156599" lon="9.53679733743726"><ele>45.0</ele><time>2026-04-04T07:09:55Z</time></trkpt><trkpt lat="39.37490025795102" lon="9.53683785749682"><ele>45.0</ele><time>2026-04-04T07:09:56Z</time></trkpt><trkpt lat="39.37466239905201" lon="9.536876499585974"><ele>44.0</ele><time>2026-04-04T07:09:57Z</time></trkpt><trkpt lat="39.37442525456232" lon="9.536916890357066"><ele>43.0</ele><time>2026-04-04T07:09:58Z</time></trkpt><trkpt lat="39.37419536402554" lon="9.53696301161915"><ele>43.0</ele><time>2026-04-04T07:09:59Z</time></trkpt><trkpt lat="39.373966324647846" lon="9.537006494358812"><ele>43.0</ele><time>2026-04-04T07:10:00Z</time></trkpt><trkpt lat="39.37373941677078" lon="9.53704791272338"><ele>42.333333333333336</ele><time>2026-04-04T07:10:01Z</time></trkpt><trkpt lat="39.37351773919077" lon="9.537089222185852"><ele>41.666666666666664</ele><time>2026-04-04T07:10:02Z</time></trkpt><trkpt lat="39.37330175197186" lon="9.537128801370995"><ele>41.0</ele><time>2026-04-04T07:10:03Z</time></trkpt><trkpt lat="39.37309006810235" lon="9.537166896046257"><ele>41.0</ele><time>2026-04-04T07:10:04Z</time></trkpt><trkpt lat="39.37288351024077" lon="9.537208210707199"><ele>41.0</ele><time>2026-04-04T07:10:05Z</time></trkpt><trkpt lat="39.3726790504729" lon="9.53724698583338"><ele>41.0</ele><time>2026-04-04T07:10:06Z</time></trkpt><trkpt lat="39.372474906709336" lon="9.537284785117127"><ele>41.0</ele><time>2026-04-04T07:10:07Z</time></trkpt><trkpt lat="39.372268839517915" lon="9.537323146009573"><ele>41.0</ele><time>2026-04-04T07:10:08Z</time></trkpt><trkpt lat="39.372063131584326" lon="9.537363042470968"><ele>41.0</ele><time>2026-04-04T07:10:09Z</time></trkpt><trkpt lat="39.37185458587251" lon="9.537399658725477"><ele>40.0</ele><time>2026-04-04T07:10:10Z</time></trkpt><trkpt lat="39.37164602516458" lon="9.537435262002843"><ele>39.0</ele><time>2026-04-04T07:10:11Z</time></trkpt><trkpt lat="39.371438234517086" lon="9.537473766013573"><ele>38.0</ele><time>2026-04-04T07:10:12Z</time></trkpt><trkpt lat="39.37123522009579" lon="9.537507344482874"><ele>37.33333333333333</ele><time>2026-04-04T07:10:13Z</time></trkpt><trkpt lat="39.371040063116226" lon="9.537534969050112"><ele>36.666666666666664</ele><time>2026-04-04T07:10:14Z</time></trkpt><trkpt lat="39.37085260761981" lon="9.537564174714907"><ele>36.0</ele><time>2026-04-04T07:10:15Z</time></trkpt><trkpt lat="39.37066716899224" lon="9.53759332339106"><ele>35.666666666666664</ele><time>2026-04-04T07:10:16Z</time></trkpt><trkpt lat="39.37047894993469" lon="9.537624033315556"><ele>35.33333333333333</ele><time>2026-04-04T07:10:17Z</time></trkpt><trkpt lat="39.37028988173121" lon="9.537649527504989"><ele>35.0</ele><time>2026-04-04T07:10:18Z</time></trkpt><trkpt lat="39.37009680790286" lon="9.537662779446707"><ele>35.0</ele><time>2026-04-04T07:10:19Z</time></trkpt><trkpt lat="39.36990439359225" lon="9.537665769980626"><ele>35.0</ele><time>2026-04-04T07:10:20Z</time></trkpt><trkpt lat="39.369714443423135" lon="9.537662370244977"><ele>35.0</ele><time>2026-04-04T07:10:21Z</time></trkpt><trkpt lat="39.36952850799765" lon="9.537648075850164"><ele>33.666666666666664</ele><time>2026-04-04T07:10:22Z</time></trkpt><trkpt lat="39.369350967186655" lon="9.537598769836634"><ele>32.333333333333336</ele><time>2026-04-04T07:10:23Z</time></trkpt><trkpt lat="39.36918546682217" lon="9.537497984465375"><ele>31.0</ele><time>2026-04-04T07:10:24Z</time></trkpt><trkpt lat="39.369034556012615" lon="9.53735412891909"><ele>31.0</ele><time>2026-04-04T07:10:25Z</time></trkpt><trkpt lat="39.368905390310935" lon="9.537161020237557"><ele>31.0</ele><time>2026-04-04T07:10:26Z</time></trkpt><trkpt lat="39.36879867049889" lon="9.536965740475056"><ele>31.0</ele><time>2026-04-04T07:10:27Z</time></trkpt><trkpt lat="39.36871746454593" lon="9.536750525652062"><ele>30.666666666666668</ele><time>2026-04-04T07:10:28Z</time></trkpt><trkpt lat="39.36867438559571" lon="9.536522131458634"><ele>30.333333333333336</ele><time>2026-04-04T07:10:29Z</time></trkpt><trkpt lat="39.36864714737172" lon="9.536284442656777"><ele>30.0</ele><time>2026-04-04T07:10:30Z</time></trkpt><trkpt lat="39.36861431755288" lon="9.53605078066201"><ele>30.0</ele><time>2026-04-04T07:10:31Z</time></trkpt><trkpt lat="39.3685729375182" lon="9.535818276986086"><ele>30.0</ele><time>2026-04-04T07:10:32Z</time></trkpt><trkpt lat="39.3685324983845" lon="9.53559091547136"><ele>30.0</ele><time>2026-04-04T07:10:33Z</time></trkpt><trkpt lat="39.36849621345261" lon="9.53536583964845"><ele>30.0</ele><time>2026-04-04T07:10:34Z</time></trkpt><trkpt lat="39.36846248049345" lon="9.535145832335955"><ele>30.0</ele><time>2026-04-04T07:10:35Z</time></trkpt><trkpt lat="39.36843636219098" lon="9.534930907760435"><ele>30.0</ele><time>2026-04-04T07:10:36Z</time></trkpt><trkpt lat="39.36841926144863" lon="9.534716089655051"><ele>29.333333333333336</ele><time>2026-04-04T07:10:37Z</time></trkpt><trkpt lat="39.368407779866516" lon="9.534498682443937"><ele>28.666666666666668</ele><time>2026-04-04T07:10:38Z</time></trkpt><trkpt lat="39.368388114876446" lon="9.53427868745116"><ele>28.0</ele><time>2026-04-04T07:10:39Z</time></trkpt><trkpt lat="39.36836295242557" lon="9.53405172689238"><ele>28.0</ele><time>2026-04-04T07:10:40Z</time></trkpt><trkpt lat="39.36833814369416" lon="9.533817571591936"><ele>28.0</ele><time>2026-04-04T07:10:41Z</time></trkpt><trkpt lat="39.36832245812591" lon="9.533578437231382"><ele>28.0</ele><time>2026-04-04T07:10:42Z</time></trkpt><trkpt lat="39.36831187653225" lon="9.533335337329577"><ele>27.333333333333336</ele><time>2026-04-04T07:10:43Z</time></trkpt><trkpt lat="39.368300505878395" lon="9.533091850740126"><ele>26.666666666666664</ele><time>2026-04-04T07:10:44Z</time></trkpt><trkpt lat="39.3682865226979" lon="9.53284225424471"><ele>26.0</ele><time>2026-04-04T07:10:45Z</time></trkpt><trkpt lat="39.36827139316456" lon="9.532590865354367"><ele>25.666666666666664</ele><time>2026-04-04T07:10:46Z</time></trkpt><trkpt lat="39.368256260241466" lon="9.532339305642537"><ele>25.333333333333336</ele><time>2026-04-04T07:10:47Z</time></trkpt><trkpt lat="39.36823987693881" lon="9.532084605756804"><ele>25.0</ele><time>2026-04-04T07:10:48Z</time></trkpt><trkpt lat="39.36822708230109" lon="9.531831232551887"><ele>25.0</ele><time>2026-04-04T07:10:49Z</time></trkpt><trkpt lat="39.36821510582579" lon="9.531578922959508"><ele>25.0</ele><time>2026-04-04T07:10:50Z</time></trkpt><trkpt lat="39.36820073161372" lon="9.531327856604838"><ele>25.0</ele><time>2026-04-04T07:10:51Z</time></trkpt><trkpt lat="39.368187847308036" lon="9.531080899787595"><ele>26.0</ele><time>2026-04-04T07:10:52Z</time></trkpt><trkpt lat="39.368172668950514" lon="9.53083460324795"><ele>27.0</ele><time>2026-04-04T07:10:53Z</time></trkpt><trkpt lat="39.36815842787596" lon="9.530588260448965"><ele>28.0</ele><time>2026-04-04T07:10:54Z</time></trkpt><trkpt lat="39.36814410782085" lon="9.530343470433662"><ele>28.666666666666668</ele><time>2026-04-04T07:10:55Z</time></trkpt><trkpt lat="39.36813191130441" lon="9.530103134864774"><ele>29.333333333333336</ele><time>2026-04-04T07:10:56Z</time></trkpt><trkpt lat="39.36812125312073" lon="9.529865412570969"><ele>30.0</ele><time>2026-04-04T07:10:57Z</time></trkpt><trkpt lat="39.36810915734951" lon="9.529630142028976"><ele>30.333333333333336</ele><time>2026-04-04T07:10:58Z</time></trkpt><trkpt lat="39.36809813071793" lon="9.52939464798803"><ele>30.666666666666668</ele><time>2026-04-04T07:10:59Z</time></trkpt><trkpt lat="39.36808723596574" lon="9.529151797355349"><ele>31.0</ele><time>2026-04-04T07:11:00Z</time></trkpt><trkpt lat="39.36807279197858" lon="9.528906110834146"><ele>31.666666666666668</ele><time>2026-04-04T07:11:01Z</time></trkpt><trkpt lat="39.36805641896848" lon="9.528661675865974"><ele>32.333333333333336</ele><time>2026-04-04T07:11:02Z</time></trkpt><trkpt lat="39.36805716228201" lon="9.528416174791595"><ele>33.0</ele><time>2026-04-04T07:11:03Z</time></trkpt><trkpt lat="39.36804389468964" lon="9.528171966771303"><ele>33.0</ele><time>2026-04-04T07:11:04Z</time></trkpt><trkpt lat="39.36803069623373" lon="9.5279290312976"><ele>33.0</ele><time>2026-04-04T07:11:05Z</time></trkpt><trkpt lat="39.368001051776574" lon="9.527690089895934"><ele>33.0</ele><time>2026-04-04T07:11:06Z</time></trkpt><trkpt lat="39.36798926239467" lon="9.527446553122592"><ele>32.0</ele><time>2026-04-04T07:11:07Z</time></trkpt><trkpt lat="39.36797626719233" lon="9.527205546426595"><ele>31.0</ele><time>2026-04-04T07:11:08Z</time></trkpt><trkpt lat="39.367963175530285" lon="9.526961030208335"><ele>30.0</ele><time>2026-04-04T07:11:09Z</time></trkpt><trkpt lat="39.36794971182401" lon="9.526714124101998"><ele>30.0</ele><time>2026-04-04T07:11:10Z</time></trkpt><trkpt lat="39.36793635326285" lon="9.526464053174566"><ele>30.0</ele><time>2026-04-04T07:11:11Z</time></trkpt><trkpt lat="39.36793855239414" lon="9.526214490488023"><ele>30.0</ele><time>2026-04-04T07:11:12Z</time></trkpt><trkpt lat="39.367924631757965" lon="9.525960558877864"><ele>30.0</ele><time>2026-04-04T07:11:13Z</time></trkpt><trkpt lat="39.36791077527394" lon="9.525707797499896"><ele>30.0</ele><time>2026-04-04T07:11:14Z</time></trkpt><trkpt lat="39.367896765372734" lon="9.525452237580346"><ele>30.0</ele><time>2026-04-04T07:11:15Z</time></trkpt><trkpt lat="39.36786635361426" lon="9.525197077506434"><ele>30.0</ele><time>2026-04-04T07:11:16Z</time></trkpt><trkpt lat="39.367854893951545" lon="9.52494050867298"><ele>30.0</ele><time>2026-04-04T07:11:17Z</time></trkpt><trkpt lat="39.36784318162315" lon="9.524684412490142"><ele>30.0</ele><time>2026-04-04T07:11:18Z</time></trkpt><trkpt lat="39.367827370085585" lon="9.52442275862452"><ele>30.0</ele><time>2026-04-04T07:11:19Z</time></trkpt><trkpt lat="39.36782825013508" lon="9.524158674148422"><ele>30.0</ele><time>2026-04-04T07:11:20Z</time></trkpt><trkpt lat="39.36781422802055" lon="9.523908174256247"><ele>30.0</ele><time>2026-04-04T07:11:21Z</time></trkpt><trkpt lat="39.36780023014221" lon="9.52365016476707"><ele>30.0</ele><time>2026-04-04T07:11:22Z</time></trkpt><trkpt lat="39.36778588055463" lon="9.52338765541824"><ele>30.0</ele><time>2026-04-04T07:11:23Z</time></trkpt><trkpt lat="39.36777186411452" lon="9.523131240640687"><ele>30.0</ele><time>2026-04-04T07:11:24Z</time></trkpt><trkpt lat="39.36775759379331" lon="9.522870963266325"><ele>30.666666666666664</ele><time>2026-04-04T07:11:25Z</time></trkpt><trkpt lat="39.36774277782926" lon="9.522611207667177"><ele>31.333333333333332</ele><time>2026-04-04T07:11:26Z</time></trkpt><trkpt lat="39.367711902282004" lon="9.52235091245539"><ele>32.0</ele><time>2026-04-04T07:11:27Z</time></trkpt><trkpt lat="39.367713294994374" lon="9.522087053283666"><ele>32.666666666666664</ele><time>2026-04-04T07:11:28Z</time></trkpt><trkpt lat="39.36769883504332" lon="9.521827482154826"><ele>33.333333333333336</ele><time>2026-04-04T07:11:29Z</time></trkpt><trkpt lat="39.367684190076325" lon="9.521564589783978"><ele>34.0</ele><time>2026-04-04T07:11:30Z</time></trkpt><trkpt lat="39.36766962961223" lon="9.521303214340337"><ele>33.66666666666667</ele><time>2026-04-04T07:11:31Z</time></trkpt><trkpt lat="39.367655059157514" lon="9.521042373949593"><ele>33.333333333333336</ele><time>2026-04-04T07:11:32Z</time></trkpt><trkpt lat="39.367640529861454" lon="9.520782829855172"><ele>33.0</ele><time>2026-04-04T07:11:33Z</time></trkpt><trkpt lat="39.36762585864549" lon="9.520520750562042"><ele>33.0</ele><time>2026-04-04T07:11:34Z</time></trkpt><trkpt lat="39.3675950723329" lon="9.520260352572468"><ele>33.0</ele><time>2026-04-04T07:11:35Z</time></trkpt><trkpt lat="39.36758162514122" lon="9.520000072057126"><ele>33.0</ele><time>2026-04-04T07:11:36Z</time></trkpt><trkpt lat="39.367567477217655" lon="9.519738614004396"><ele>33.666666666666664</ele><time>2026-04-04T07:11:37Z</time></trkpt><trkpt lat="39.36755166017214" lon="9.519479570349361"><ele>34.33333333333333</ele><time>2026-04-04T07:11:38Z</time></trkpt><trkpt lat="39.36753730585523" lon="9.519229952571253"><ele>35.0</ele><time>2026-04-04T07:11:39Z</time></trkpt><trkpt lat="39.36753998095237" lon="9.518986674293464"><ele>35.0</ele><time>2026-04-04T07:11:40Z</time></trkpt><trkpt lat="39.36752700930372" lon="9.518754955237114"><ele>35.0</ele><time>2026-04-04T07:11:41Z</time></trkpt><trkpt lat="39.36749827411028" lon="9.518537725811072"><ele>35.0</ele><time>2026-04-04T07:11:42Z</time></trkpt><trkpt lat="39.36748552447088" lon="9.518307633649068"><ele>35.0</ele><time>2026-04-04T07:11:43Z</time></trkpt><trkpt lat="39.367473480964655" lon="9.51807253694118"><ele>35.0</ele><time>2026-04-04T07:11:44Z</time></trkpt><trkpt lat="39.367458309898566" lon="9.517825800329236"><ele>35.0</ele><time>2026-04-04T07:11:45Z</time></trkpt><trkpt lat="39.367461081764766" lon="9.51757725854077"><ele>35.33333333333333</ele><time>2026-04-04T07:11:46Z</time></trkpt><trkpt lat="39.3674313651769" lon="9.51733012956907"><ele>35.666666666666664</ele><time>2026-04-04T07:11:47Z</time></trkpt><trkpt lat="39.36743233537599" lon="9.51707101209089"><ele>36.0</ele><time>2026-04-04T07:11:48Z</time></trkpt><trkpt lat="39.36741768577652" lon="9.516813029168613"><ele>36.0</ele><time>2026-04-04T07:11:49Z</time></trkpt><trkpt lat="39.36740305811291" lon="9.516555432570188"><ele>36.0</ele><time>2026-04-04T07:11:50Z</time></trkpt><trkpt lat="39.3673882110859" lon="9.516293972919435"><ele>36.0</ele><time>2026-04-04T07:11:51Z</time></trkpt><trkpt lat="39.36735901313438" lon="9.5160342077826"><ele>35.666666666666664</ele><time>2026-04-04T07:11:52Z</time></trkpt><trkpt lat="39.367346337921084" lon="9.515767867868988"><ele>35.33333333333333</ele><time>2026-04-04T07:11:53Z</time></trkpt><trkpt lat="39.367332640335874" lon="9.515508146311515"><ele>35.0</ele><time>2026-04-04T07:11:54Z</time></trkpt><trkpt lat="39.36731628450375" lon="9.515244347667352"><ele>34.666666666666664</ele><time>2026-04-04T07:11:55Z</time></trkpt><trkpt lat="39.36731542104208" lon="9.514979535487178"><ele>34.333333333333336</ele><time>2026-04-04T07:11:56Z</time></trkpt><trkpt lat="39.36730075244418" lon="9.514717255026785"><ele>34.0</ele><time>2026-04-04T07:11:57Z</time></trkpt><trkpt lat="39.367286658296926" lon="9.51446381551869"><ele>34.0</ele><time>2026-04-04T07:11:58Z</time></trkpt><trkpt lat="39.367272502320276" lon="9.514211902781552"><ele>34.0</ele><time>2026-04-04T07:11:59Z</time></trkpt><trkpt lat="39.367259429023534" lon="9.513962459048788"><ele>34.0</ele><time>2026-04-04T07:12:00Z</time></trkpt><trkpt lat="39.36724526276718" lon="9.513716355655633"><ele>35.333333333333336</ele><time>2026-04-04T07:12:01Z</time></trkpt><trkpt lat="39.367232519495644" lon="9.513472189261652"><ele>36.666666666666664</ele><time>2026-04-04T07:12:02Z</time></trkpt><trkpt lat="39.36721911774203" lon="9.513233535779584"><ele>38.0</ele><time>2026-04-04T07:12:03Z</time></trkpt><trkpt lat="39.36720672762579" lon="9.513009967947855"><ele>38.0</ele><time>2026-04-04T07:12:04Z</time></trkpt><trkpt lat="39.367195066877336" lon="9.512799560858092"><ele>38.0</ele><time>2026-04-04T07:12:05Z</time></trkpt><trkpt lat="39.36718359665284" lon="9.512592591628499"><ele>38.0</ele><time>2026-04-04T07:12:06Z</time></trkpt><trkpt lat="39.36715721212594" lon="9.512387512028878"><ele>38.0</ele><time>2026-04-04T07:12:07Z</time></trkpt><trkpt lat="39.36716077688634" lon="9.512180830687008"><ele>38.0</ele><time>2026-04-04T07:12:08Z</time></trkpt><trkpt lat="39.3671497992785" lon="9.511982750227475"><ele>38.0</ele><time>2026-04-04T07:12:09Z</time></trkpt><trkpt lat="39.36712277717342" lon="9.511784205005101"><ele>38.666666666666664</ele><time>2026-04-04T07:12:10Z</time></trkpt><trkpt lat="39.36712738719314" lon="9.511574786086907"><ele>39.333333333333336</ele><time>2026-04-04T07:12:11Z</time></trkpt><trkpt lat="39.36711559823194" lon="9.511359496540921"><ele>40.0</ele><time>2026-04-04T07:12:12Z</time></trkpt><trkpt lat="39.367103948879965" lon="9.511146756548458"><ele>40.333333333333336</ele><time>2026-04-04T07:12:13Z</time></trkpt><trkpt lat="39.36709192796132" lon="9.510927231007681"><ele>40.666666666666664</ele><time>2026-04-04T07:12:14Z</time></trkpt><trkpt lat="39.36707993499134" lon="9.510708215868288"><ele>41.0</ele><time>2026-04-04T07:12:15Z</time></trkpt><trkpt lat="39.367068159698285" lon="9.510493175941175"><ele>41.33333333333333</ele><time>2026-04-04T07:12:16Z</time></trkpt><trkpt lat="39.36705618879602" lon="9.510274563805181"><ele>41.666666666666664</ele><time>2026-04-04T07:12:17Z</time></trkpt><trkpt lat="39.36704424253769" lon="9.510056401715298"><ele>42.0</ele><time>2026-04-04T07:12:18Z</time></trkpt><trkpt lat="39.3670323155625" lon="9.509838591748123"><ele>42.0</ele><time>2026-04-04T07:12:19Z</time></trkpt><trkpt lat="39.36700901927584" lon="9.509624627544083"><ele>42.0</ele><time>2026-04-04T07:12:20Z</time></trkpt><trkpt lat="39.36699608599824" lon="9.509418638532615"><ele>42.0</ele><time>2026-04-04T07:12:21Z</time></trkpt><trkpt lat="39.366982020958176" lon="9.509201898257494"><ele>42.0</ele><time>2026-04-04T07:12:22Z</time></trkpt><trkpt lat="39.366972411530504" lon="9.508992321151299"><ele>42.0</ele><time>2026-04-04T07:12:23Z</time></trkpt><trkpt lat="39.366963734124454" lon="9.508782065014762"><ele>42.0</ele><time>2026-04-04T07:12:24Z</time></trkpt><trkpt lat="39.36694643633471" lon="9.508556333599985"><ele>42.0</ele><time>2026-04-04T07:12:25Z</time></trkpt><trkpt lat="39.36694832662809" lon="9.508328860440736"><ele>42.0</ele><time>2026-04-04T07:12:26Z</time></trkpt><trkpt lat="39.366935665065434" lon="9.508102124504463"><ele>42.0</ele><time>2026-04-04T07:12:27Z</time></trkpt><trkpt lat="39.36692293908848" lon="9.507874235074787"><ele>42.333333333333336</ele><time>2026-04-04T07:12:28Z</time></trkpt><trkpt lat="39.366910216369604" lon="9.507646403988996"><ele>42.66666666666667</ele><time>2026-04-04T07:12:29Z</time></trkpt><trkpt lat="39.36689756554078" lon="9.507419860270033"><ele>43.0</ele><time>2026-04-04T07:12:30Z</time></trkpt><trkpt lat="39.36688486489497" lon="9.507192290875494"><ele>43.0</ele><time>2026-04-04T07:12:31Z</time></trkpt><trkpt lat="39.366856144440675" lon="9.506960094993003"><ele>43.0</ele><time>2026-04-04T07:12:32Z</time></trkpt><trkpt lat="39.36684577785738" lon="9.5067195431371"><ele>43.0</ele><time>2026-04-04T07:12:33Z</time></trkpt><trkpt lat="39.366842844865765" lon="9.5064736079444"><ele>43.0</ele><time>2026-04-04T07:12:34Z</time></trkpt><trkpt lat="39.36682448980631" lon="9.506230112825172"><ele>43.0</ele><time>2026-04-04T07:12:35Z</time></trkpt><trkpt lat="39.36681185474306" lon="9.505976061776394"><ele>43.0</ele><time>2026-04-04T07:12:36Z</time></trkpt><trkpt lat="39.36679614140284" lon="9.505721934341295"><ele>43.0</ele><time>2026-04-04T07:12:37Z</time></trkpt><trkpt lat="39.36677675088178" lon="9.505483129580034"><ele>43.0</ele><time>2026-04-04T07:12:38Z</time></trkpt><trkpt lat="39.36675695757385" lon="9.505259968570218"><ele>43.0</ele><time>2026-04-04T07:12:39Z</time></trkpt><trkpt lat="39.36671902605757" lon="9.505058340862101"><ele>42.66666666666667</ele><time>2026-04-04T07:12:40Z</time></trkpt><trkpt lat="39.36664487469368" lon="9.504876574252503"><ele>42.333333333333336</ele><time>2026-04-04T07:12:41Z</time></trkpt><trkpt lat="39.366540015819524" lon="9.504702691104956"><ele>42.0</ele><time>2026-04-04T07:12:42Z</time></trkpt><trkpt lat="39.36642204483302" lon="9.504543024675915"><ele>44.0</ele><time>2026-04-04T07:12:43Z</time></trkpt><trkpt lat="39.366305008593564" lon="9.504406549453133"><ele>46.0</ele><time>2026-04-04T07:12:44Z</time></trkpt><trkpt lat="39.36617099482766" lon="9.50433203913792"><ele>48.0</ele><time>2026-04-04T07:12:45Z</time></trkpt><trkpt lat="39.366017162781574" lon="9.504324786552292"><ele>48.0</ele><time>2026-04-04T07:12:46Z</time></trkpt><trkpt lat="39.365845531458326" lon="9.504348764187602"><ele>48.0</ele><time>2026-04-04T07:12:47Z</time></trkpt><trkpt lat="39.36566545086988" lon="9.504366704097016"><ele>48.0</ele><time>2026-04-04T07:12:48Z</time></trkpt><trkpt lat="39.365481559842685" lon="9.504338192697356"><ele>47.0</ele><time>2026-04-04T07:12:49Z</time></trkpt><trkpt lat="39.365291939644486" lon="9.50431716002364"><ele>46.0</ele><time>2026-04-04T07:12:50Z</time></trkpt><trkpt lat="39.365097233278696" lon="9.504306530756454"><ele>45.0</ele><time>2026-04-04T07:12:51Z</time></trkpt><trkpt lat="39.364908915447266" lon="9.50424182176048"><ele>45.0</ele><time>2026-04-04T07:12:52Z</time></trkpt><trkpt lat="39.364717822062545" lon="9.50418584358072"><ele>45.0</ele><time>2026-04-04T07:12:53Z</time></trkpt><trkpt lat="39.364534181248956" lon="9.504129847843998"><ele>45.0</ele><time>2026-04-04T07:12:54Z</time></trkpt><trkpt lat="39.364352113890796" lon="9.504092710924988"><ele>44.0</ele><time>2026-04-04T07:12:55Z</time></trkpt><trkpt lat="39.36417454168697" lon="9.504032757288506"><ele>43.0</ele><time>2026-04-04T07:12:56Z</time></trkpt><trkpt lat="39.36400077385713" lon="9.503975796053146"><ele>42.0</ele><time>2026-04-04T07:12:57Z</time></trkpt><trkpt lat="39.36383611444805" lon="9.50388819531767"><ele>42.0</ele><time>2026-04-04T07:12:58Z</time></trkpt><trkpt lat="39.363677252978135" lon="9.50379570561195"><ele>42.0</ele><time>2026-04-04T07:12:59Z</time></trkpt><trkpt lat="39.363528495052215" lon="9.50368519469933"><ele>42.0</ele><time>2026-04-04T07:13:00Z</time></trkpt><trkpt lat="39.3633824971294" lon="9.503565108096053"><ele>42.0</ele><time>2026-04-04T07:13:01Z</time></trkpt><trkpt lat="39.363240185290756" lon="9.50344041355146"><ele>42.0</ele><time>2026-04-04T07:13:02Z</time></trkpt><trkpt lat="39.363099201888645" lon="9.503317101412799"><ele>42.0</ele><time>2026-04-04T07:13:03Z</time></trkpt><trkpt lat="39.36296008149903" lon="9.503195418754597"><ele>41.333333333333336</ele><time>2026-04-04T07:13:04Z</time></trkpt><trkpt lat="39.36281211331346" lon="9.50308991594471"><ele>40.66666666666667</ele><time>2026-04-04T07:13:05Z</time></trkpt><trkpt lat="39.36267581498344" lon="9.502963592833"><ele>40.0</ele><time>2026-04-04T07:13:06Z</time></trkpt><trkpt lat="39.362540478139266" lon="9.502848323946825"><ele>40.0</ele><time>2026-04-04T07:13:07Z</time></trkpt><trkpt lat="39.36241727356281" lon="9.502703736225643"><ele>40.0</ele><time>2026-04-04T07:13:08Z</time></trkpt><trkpt lat="39.362288560901725" lon="9.502564099486216"><ele>40.0</ele><time>2026-04-04T07:13:09Z</time></trkpt><trkpt lat="39.36216787308558" lon="9.502414465697221"><ele>38.66666666666667</ele><time>2026-04-04T07:13:10Z</time></trkpt><trkpt lat="39.36205313764965" lon="9.502256454629615"><ele>37.333333333333336</ele><time>2026-04-04T07:13:11Z</time></trkpt><trkpt lat="39.361940217104" lon="9.502086396276988"><ele>36.0</ele><time>2026-04-04T07:13:12Z</time></trkpt><trkpt lat="39.36183507835953" lon="9.501900570064372"><ele>36.0</ele><time>2026-04-04T07:13:13Z</time></trkpt><trkpt lat="39.36173611003567" lon="9.501706778835011"><ele>36.0</ele><time>2026-04-04T07:13:14Z</time></trkpt><trkpt lat="39.36162315722468" lon="9.501515896277473"><ele>36.0</ele><time>2026-04-04T07:13:15Z</time></trkpt><trkpt lat="39.36152520522964" lon="9.501313092582238"><ele>36.333333333333336</ele><time>2026-04-04T07:13:16Z</time></trkpt><trkpt lat="39.36142250252161" lon="9.501107975422642"><ele>36.66666666666667</ele><time>2026-04-04T07:13:17Z</time></trkpt><trkpt lat="39.36131652226572" lon="9.500905919264701"><ele>37.0</ele><time>2026-04-04T07:13:18Z</time></trkpt><trkpt lat="39.36122698653819" lon="9.500689777367171"><ele>37.0</ele><time>2026-04-04T07:13:19Z</time></trkpt><trkpt lat="39.36111198515448" lon="9.500496644263048"><ele>37.0</ele><time>2026-04-04T07:13:20Z</time></trkpt><trkpt lat="39.361010468533" lon="9.500293924601916"><ele>37.0</ele><time>2026-04-04T07:13:21Z</time></trkpt><trkpt lat="39.360924348182934" lon="9.50008222396595"><ele>39.0</ele><time>2026-04-04T07:13:22Z</time></trkpt><trkpt lat="39.36082639957382" lon="9.499884462713428"><ele>41.0</ele><time>2026-04-04T07:13:23Z</time></trkpt><trkpt lat="39.36072966395233" lon="9.49968429970946"><ele>43.0</ele><time>2026-04-04T07:13:24Z</time></trkpt><trkpt lat="39.36063546786707" lon="9.499490187351718"><ele>43.66666666666667</ele><time>2026-04-04T07:13:25Z</time></trkpt><trkpt lat="39.36054350980409" lon="9.49929598195857"><ele>44.333333333333336</ele><time>2026-04-04T07:13:26Z</time></trkpt><trkpt lat="39.36047355248507" lon="9.499096251902044"><ele>45.0</ele><time>2026-04-04T07:13:27Z</time></trkpt><trkpt lat="39.36042105521154" lon="9.498882383716127"><ele>43.0</ele><time>2026-04-04T07:13:28Z</time></trkpt><trkpt lat="39.36038378185989" lon="9.498661410915334"><ele>41.0</ele><time>2026-04-04T07:13:29Z</time></trkpt><trkpt lat="39.36036856921456" lon="9.498432540853255"><ele>39.0</ele><time>2026-04-04T07:13:30Z</time></trkpt><trkpt lat="39.36037533569675" lon="9.49820110454455"><ele>39.0</ele><time>2026-04-04T07:13:31Z</time></trkpt><trkpt lat="39.36040701763243" lon="9.497975338168954"><ele>39.0</ele><time>2026-04-04T07:13:32Z</time></trkpt><trkpt lat="39.360441867142036" lon="9.497741524176178"><ele>39.0</ele><time>2026-04-04T07:13:33Z</time></trkpt><trkpt lat="39.3604764239657" lon="9.49750967371015"><ele>38.666666666666664</ele><time>2026-04-04T07:13:34Z</time></trkpt><trkpt lat="39.36049619499136" lon="9.497281151100799"><ele>38.33333333333333</ele><time>2026-04-04T07:13:35Z</time></trkpt><trkpt lat="39.360530672655116" lon="9.497059339194587"><ele>38.0</ele><time>2026-04-04T07:13:36Z</time></trkpt><trkpt lat="39.36056400467735" lon="9.496843838387207"><ele>39.33333333333333</ele><time>2026-04-04T07:13:37Z</time></trkpt><trkpt lat="39.360592147725775" lon="9.496632141594631"><ele>40.666666666666664</ele><time>2026-04-04T07:13:38Z</time></trkpt><trkpt lat="39.36062392960998" lon="9.496422083885353"><ele>42.0</ele><time>2026-04-04T07:13:39Z</time></trkpt><trkpt lat="39.36059027662144" lon="9.496200674065017"><ele>42.0</ele><time>2026-04-04T07:13:40Z</time></trkpt><trkpt lat="39.360537110548954" lon="9.495993547098266"><ele>42.0</ele><time>2026-04-04T07:13:41Z</time></trkpt><trkpt lat="39.36045470037" lon="9.495793821819221"><ele>42.0</ele><time>2026-04-04T07:13:42Z</time></trkpt><trkpt lat="39.36036013510687" lon="9.495606292452779"><ele>42.0</ele><time>2026-04-04T07:13:43Z</time></trkpt><trkpt lat="39.36028420144382" lon="9.495409655501938"><ele>42.0</ele><time>2026-04-04T07:13:44Z</time></trkpt><trkpt lat="39.36020387872516" lon="9.495224199882886"><ele>42.0</ele><time>2026-04-04T07:13:45Z</time></trkpt><trkpt lat="39.36012768796185" lon="9.495051531157026"><ele>42.0</ele><time>2026-04-04T07:13:46Z</time></trkpt><trkpt lat="39.36003406666537" lon="9.494918983316216"><ele>42.0</ele><time>2026-04-04T07:13:47Z</time></trkpt><trkpt lat="39.35992712028912" lon="9.494843834770222"><ele>42.0</ele><time>2026-04-04T07:13:48Z</time></trkpt><trkpt lat="39.35979849877033" lon="9.494847539024557"><ele>42.0</ele><time>2026-04-04T07:13:49Z</time></trkpt><trkpt lat="39.35966363093045" lon="9.494900226093845"><ele>42.666666666666664</ele><time>2026-04-04T07:13:50Z</time></trkpt><trkpt lat="39.359516807811495" lon="9.494967418702938"><ele>43.33333333333333</ele><time>2026-04-04T07:13:51Z</time></trkpt><trkpt lat="39.35936582476435" lon="9.495021939261784"><ele>44.0</ele><time>2026-04-04T07:13:52Z</time></trkpt><trkpt lat="39.35920496891035" lon="9.495068301604853"><ele>44.0</ele><time>2026-04-04T07:13:53Z</time></trkpt><trkpt lat="39.35904233209054" lon="9.495107531771563"><ele>44.0</ele><time>2026-04-04T07:13:54Z</time></trkpt><trkpt lat="39.35887524029119" lon="9.495149595269122"><ele>44.0</ele><time>2026-04-04T07:13:55Z</time></trkpt><trkpt lat="39.358707648387295" lon="9.495193842685447"><ele>45.666666666666664</ele><time>2026-04-04T07:13:56Z</time></trkpt><trkpt lat="39.358536585869196" lon="9.495242003358726"><ele>47.33333333333333</ele><time>2026-04-04T07:13:57Z</time></trkpt><trkpt lat="39.35836330651174" lon="9.495289923199943"><ele>49.0</ele><time>2026-04-04T07:13:58Z</time></trkpt><trkpt lat="39.35818860474681" lon="9.49532604730276"><ele>47.33333333333333</ele><time>2026-04-04T07:13:59Z</time></trkpt><trkpt lat="39.35801140656551" lon="9.495310859801583"><ele>45.666666666666664</ele><time>2026-04-04T07:14:00Z</time></trkpt><trkpt lat="39.357838063108524" lon="9.495287692344682"><ele>44.0</ele><time>2026-04-04T07:14:01Z</time></trkpt><trkpt lat="39.357667830334" lon="9.495242595000063"><ele>44.0</ele><time>2026-04-04T07:14:02Z</time></trkpt><trkpt lat="39.35749701379293" lon="9.495201371433213"><ele>44.0</ele><time>2026-04-04T07:14:03Z</time></trkpt><trkpt lat="39.357331379389855" lon="9.495133645481278"><ele>44.0</ele><time>2026-04-04T07:14:04Z</time></trkpt><trkpt lat="39.35716619116438" lon="9.495057289557105"><ele>42.33333333333333</ele><time>2026-04-04T07:14:05Z</time></trkpt><trkpt lat="39.35701732952363" lon="9.494937732307934"><ele>40.666666666666664</ele><time>2026-04-04T07:14:06Z</time></trkpt><trkpt lat="39.3568690895653" lon="9.494826044839975"><ele>39.0</ele><time>2026-04-04T07:14:07Z</time></trkpt><trkpt lat="39.35671919903149" lon="9.494708182808509"><ele>39.0</ele><time>2026-04-04T07:14:08Z</time></trkpt><trkpt lat="39.356565693810666" lon="9.494600313023943"><ele>39.0</ele><time>2026-04-04T07:14:09Z</time></trkpt><trkpt lat="39.35641834841042" lon="9.494473944379026"><ele>39.0</ele><time>2026-04-04T07:14:10Z</time></trkpt><trkpt lat="39.3562686053186" lon="9.49435403343162"><ele>38.0</ele><time>2026-04-04T07:14:11Z</time></trkpt><trkpt lat="39.35613470350661" lon="9.494200561424101"><ele>37.0</ele><time>2026-04-04T07:14:12Z</time></trkpt><trkpt lat="39.35601068594349" lon="9.49404046363011"><ele>36.0</ele><time>2026-04-04T07:14:13Z</time></trkpt><trkpt lat="39.35590083131393" lon="9.493865999854565"><ele>38.0</ele><time>2026-04-04T07:14:14Z</time></trkpt><trkpt lat="39.35579522584866" lon="9.493677883868036"><ele>40.0</ele><time>2026-04-04T07:14:15Z</time></trkpt><trkpt lat="39.35568833302878" lon="9.493479353633536"><ele>42.0</ele><time>2026-04-04T07:14:16Z</time></trkpt><trkpt lat="39.35557219362142" lon="9.493293928253678"><ele>39.666666666666664</ele><time>2026-04-04T07:14:17Z</time></trkpt><trkpt lat="39.35546584131048" lon="9.493094681651991"><ele>37.33333333333333</ele><time>2026-04-04T07:14:18Z</time></trkpt><trkpt lat="39.35535746765301" lon="9.492898169402086"><ele>35.0</ele><time>2026-04-04T07:14:19Z</time></trkpt><trkpt lat="39.355250764615924" lon="9.492705342321768"><ele>35.0</ele><time>2026-04-04T07:14:20Z</time></trkpt><trkpt lat="39.355148780550294" lon="9.492518213138549"><ele>35.0</ele><time>2026-04-04T07:14:21Z</time></trkpt><trkpt lat="39.35505445128049" lon="9.492341835854376"><ele>35.0</ele><time>2026-04-04T07:14:22Z</time></trkpt><trkpt lat="39.354963017725744" lon="9.492170157964496"><ele>34.25</ele><time>2026-04-04T07:14:23Z</time></trkpt><trkpt lat="39.35487617237004" lon="9.492009679200775"><ele>33.5</ele><time>2026-04-04T07:14:24Z</time></trkpt><trkpt lat="39.35480541124905" lon="9.49184704839168"><ele>32.75</ele><time>2026-04-04T07:14:25Z</time></trkpt><trkpt lat="39.354726636813425" lon="9.49170263897073"><ele>32.0</ele><time>2026-04-04T07:14:26Z</time></trkpt><trkpt lat="39.35465007489035" lon="9.491562899248114"><ele>32.0</ele><time>2026-04-04T07:14:27Z</time></trkpt><trkpt lat="39.35455839465102" lon="9.491431851387611"><ele>32.0</ele><time>2026-04-04T07:14:28Z</time></trkpt><trkpt lat="39.35448882722332" lon="9.491298420905293"><ele>32.0</ele><time>2026-04-04T07:14:29Z</time></trkpt><trkpt lat="39.35443845323889" lon="9.491167294431166"><ele>32.0</ele><time>2026-04-04T07:14:30Z</time></trkpt><trkpt lat="39.35435568152659" lon="9.491105223529608"><ele>32.0</ele><time>2026-04-04T07:14:31Z</time></trkpt><trkpt lat="39.354275610218686" lon="9.491062819520856"><ele>32.0</ele><time>2026-04-04T07:14:32Z</time></trkpt><trkpt lat="39.354162956453884" lon="9.49112020397926"><ele>32.0</ele><time>2026-04-04T07:14:33Z</time></trkpt><trkpt lat="39.35406133296585" lon="9.491210595331834"><ele>32.0</ele><time>2026-04-04T07:14:34Z</time></trkpt><trkpt lat="39.35395466126235" lon="9.49131302239635"><ele>34.0</ele><time>2026-04-04T07:14:35Z</time></trkpt><trkpt lat="39.35384063992707" lon="9.491398635207371"><ele>36.0</ele><time>2026-04-04T07:14:36Z</time></trkpt><trkpt lat="39.35372012331357" lon="9.491481448579433"><ele>38.0</ele><time>2026-04-04T07:14:37Z</time></trkpt><trkpt lat="39.353605899258056" lon="9.491561077097716"><ele>40.0</ele><time>2026-04-04T07:14:38Z</time></trkpt><trkpt lat="39.35349379603819" lon="9.491575035178624"><ele>40.0</ele><time>2026-04-04T07:14:39Z</time></trkpt><trkpt lat="39.353398722881124" lon="9.491545409677473"><ele>40.0</ele><time>2026-04-04T07:14:40Z</time></trkpt><trkpt lat="39.35334530139801" lon="9.49142516820417"><ele>40.0</ele><time>2026-04-04T07:14:41Z</time></trkpt><trkpt lat="39.35328812342855" lon="9.491287455239734"><ele>40.0</ele><time>2026-04-04T07:14:42Z</time></trkpt><trkpt lat="39.35321624553572" lon="9.491132238244273"><ele>38.333333333333336</ele><time>2026-04-04T07:14:43Z</time></trkpt><trkpt lat="39.35312411114336" lon="9.490986468104609"><ele>36.666666666666664</ele><time>2026-04-04T07:14:44Z</time></trkpt><trkpt lat="39.35303642994503" lon="9.490828349243653"><ele>35.0</ele><time>2026-04-04T07:14:45Z</time></trkpt><trkpt lat="39.352939941567236" lon="9.490672385954461"><ele>37.0</ele><time>2026-04-04T07:14:46Z</time></trkpt><trkpt lat="39.352832112948" lon="9.490519844526245"><ele>39.0</ele><time>2026-04-04T07:14:47Z</time></trkpt><trkpt lat="39.35272126852206" lon="9.490363380048917"><ele>41.0</ele><time>2026-04-04T07:14:48Z</time></trkpt><trkpt lat="39.35260747014324" lon="9.49020321612074"><ele>41.0</ele><time>2026-04-04T07:14:49Z</time></trkpt><trkpt lat="39.35250856726236" lon="9.490029337255558"><ele>41.0</ele><time>2026-04-04T07:14:50Z</time></trkpt><trkpt lat="39.352393375167175" lon="9.489860980762225"><ele>41.0</ele><time>2026-04-04T07:14:51Z</time></trkpt><trkpt lat="39.35226713425827" lon="9.489702916542821"><ele>44.33333333333333</ele><time>2026-04-04T07:14:52Z</time></trkpt><trkpt lat="39.35215113390359" lon="9.489527927131556"><ele>47.666666666666664</ele><time>2026-04-04T07:14:53Z</time></trkpt><trkpt lat="39.35203397474659" lon="9.489358100849577"><ele>51.0</ele><time>2026-04-04T07:14:54Z</time></trkpt><trkpt lat="39.35191331530562" lon="9.489188848079388"><ele>51.0</ele><time>2026-04-04T07:14:55Z</time></trkpt><trkpt lat="39.35180815454468" lon="9.489003354175349"><ele>51.0</ele><time>2026-04-04T07:14:56Z</time></trkpt><trkpt lat="39.3516890020892" lon="9.488828855314512"><ele>51.0</ele><time>2026-04-04T07:14:57Z</time></trkpt><trkpt lat="39.351558858855675" lon="9.488669843165313"><ele>53.66666666666667</ele><time>2026-04-04T07:14:58Z</time></trkpt><trkpt lat="39.35145246205622" lon="9.488482869763823"><ele>56.333333333333336</ele><time>2026-04-04T07:14:59Z</time></trkpt><trkpt lat="39.35133423175453" lon="9.488309461447619"><ele>59.0</ele><time>2026-04-04T07:15:00Z</time></trkpt><trkpt lat="39.351205571519706" lon="9.488152301142561"><ele>59.0</ele><time>2026-04-04T07:15:01Z</time></trkpt><trkpt lat="39.35109060622152" lon="9.487982885041562"><ele>59.0</ele><time>2026-04-04T07:15:02Z</time></trkpt><trkpt lat="39.350974952595564" lon="9.48781451075848"><ele>59.0</ele><time>2026-04-04T07:15:03Z</time></trkpt><trkpt lat="39.35087176221681" lon="9.487631477754604"><ele>60.66666666666667</ele><time>2026-04-04T07:15:04Z</time></trkpt><trkpt lat="39.35075596894351" lon="9.487461955042988"><ele>62.33333333333333</ele><time>2026-04-04T07:15:05Z</time></trkpt><trkpt lat="39.35064440295532" lon="9.487298413980875"><ele>64.0</ele><time>2026-04-04T07:15:06Z</time></trkpt><trkpt lat="39.350516745657906" lon="9.487139948909155"><ele>58.33333333333333</ele><time>2026-04-04T07:15:07Z</time></trkpt><trkpt lat="39.350385239806755" lon="9.486949314795421"><ele>52.666666666666664</ele><time>2026-04-04T07:15:08Z</time></trkpt><trkpt lat="39.35024455579274" lon="9.48674312152009"><ele>47.0</ele><time>2026-04-04T07:15:09Z</time></trkpt><trkpt lat="39.350104976292165" lon="9.486535189073058"><ele>47.0</ele><time>2026-04-04T07:15:10Z</time></trkpt><trkpt lat="39.34998324245471" lon="9.486323644481608"><ele>47.0</ele><time>2026-04-04T07:15:11Z</time></trkpt><trkpt lat="39.34985893413794" lon="9.486136618217838"><ele>47.0</ele><time>2026-04-04T07:15:12Z</time></trkpt><trkpt lat="39.3497530269483" lon="9.485959397340395"><ele>55.0</ele><time>2026-04-04T07:15:13Z</time></trkpt><trkpt lat="39.349679534937664" lon="9.485764379578647"><ele>63.0</ele><time>2026-04-04T07:15:14Z</time></trkpt><trkpt lat="39.34965036323051" lon="9.485543679994787"><ele>71.0</ele><time>2026-04-04T07:15:15Z</time></trkpt><trkpt lat="39.34965914192231" lon="9.485285458457"><ele>74.33333333333334</ele><time>2026-04-04T07:15:16Z</time></trkpt><trkpt lat="39.34969426204966" lon="9.485015801633375"><ele>77.66666666666667</ele><time>2026-04-04T07:15:17Z</time></trkpt><trkpt lat="39.34974798084551" lon="9.484717306926987"><ele>81.0</ele><time>2026-04-04T07:15:18Z</time></trkpt><trkpt lat="39.34984406181111" lon="9.484431954690015"><ele>65.5</ele><time>2026-04-04T07:15:19Z</time></trkpt><trkpt lat="39.3499181833334" lon="9.4841168495925"><ele>50.0</ele><time>2026-04-04T07:15:20Z</time></trkpt><trkpt lat="39.35002148491746" lon="9.483816727182928"><ele>52.0</ele><time>2026-04-04T07:15:21Z</time></trkpt><trkpt lat="39.35011352574674" lon="9.483496666637016"><ele>54.0</ele><time>2026-04-04T07:15:22Z</time></trkpt><trkpt lat="39.350210971542076" lon="9.483159696550237"><ele>56.5</ele><time>2026-04-04T07:15:23Z</time></trkpt><trkpt lat="39.35030930213327" lon="9.482818477176826"><ele>59.0</ele><time>2026-04-04T07:15:24Z</time></trkpt><trkpt lat="39.3504062347642" lon="9.482479444398706"><ele>59.0</ele><time>2026-04-04T07:15:25Z</time></trkpt><trkpt lat="39.35049980781935" lon="9.482152107471556"><ele>59.0</ele><time>2026-04-04T07:15:26Z</time></trkpt><trkpt lat="39.350590197093375" lon="9.48183383067216"><ele>58.5</ele><time>2026-04-04T07:15:27Z</time></trkpt><trkpt lat="39.35067728485294" lon="9.481527147193288"><ele>58.0</ele><time>2026-04-04T07:15:28Z</time></trkpt><trkpt lat="39.35076064728418" lon="9.481233582539538"><ele>58.0</ele><time>2026-04-04T07:15:29Z</time></trkpt><trkpt lat="39.35085040417961" lon="9.480942942495425"><ele>58.0</ele><time>2026-04-04T07:15:30Z</time></trkpt><trkpt lat="39.35093988143837" lon="9.480640938182374"><ele>64.0</ele><time>2026-04-04T07:15:31Z</time></trkpt><trkpt lat="39.3510675067271" lon="9.480345962419582"><ele>70.0</ele><time>2026-04-04T07:15:32Z</time></trkpt><trkpt lat="39.35121658236124" lon="9.48004924482121"><ele>70.0</ele><time>2026-04-04T07:15:33Z</time></trkpt><trkpt lat="39.351359649412416" lon="9.479749991774597"><ele>70.0</ele><time>2026-04-04T07:15:34Z</time></trkpt><trkpt lat="39.35149957508395" lon="9.479463043769774"><ele>65.0</ele><time>2026-04-04T07:15:35Z</time></trkpt><trkpt lat="39.35163751658443" lon="9.47918356216353"><ele>60.0</ele><time>2026-04-04T07:15:36Z</time></trkpt><trkpt lat="39.351773508146835" lon="9.478912492382387"><ele>66.5</ele><time>2026-04-04T07:15:37Z</time></trkpt><trkpt lat="39.35190291004467" lon="9.478655902292347"><ele>73.0</ele><time>2026-04-04T07:15:38Z</time></trkpt><trkpt lat="39.352025574604234" lon="9.478407604618228"><ele>73.0</ele><time>2026-04-04T07:15:39Z</time></trkpt><trkpt lat="39.35213285189676" lon="9.47817654466688"><ele>73.0</ele><time>2026-04-04T07:15:40Z</time></trkpt><trkpt lat="39.35221636445338" lon="9.477942968631107"><ele>73.0</ele><time>2026-04-04T07:15:41Z</time></trkpt><trkpt lat="39.352258065525604" lon="9.477707904305332"><ele>72.33333333333333</ele><time>2026-04-04T07:15:42Z</time></trkpt><trkpt lat="39.35224245732509" lon="9.477473280508125"><ele>71.66666666666667</ele><time>2026-04-04T07:15:43Z</time></trkpt><trkpt lat="39.352180309298106" lon="9.477244790605056"><ele>71.0</ele><time>2026-04-04T07:15:44Z</time></trkpt><trkpt lat="39.35207811453538" lon="9.477042479221563"><ele>66.66666666666667</ele><time>2026-04-04T07:15:45Z</time></trkpt><trkpt lat="39.3519588738269" lon="9.4768787048658"><ele>62.33333333333333</ele><time>2026-04-04T07:15:46Z</time></trkpt><trkpt lat="39.35178104301499" lon="9.476759884567418"><ele>58.0</ele><time>2026-04-04T07:15:47Z</time></trkpt><trkpt lat="39.35159253574934" lon="9.476645411685992"><ele>58.0</ele><time>2026-04-04T07:15:48Z</time></trkpt><trkpt lat="39.351408600686874" lon="9.476521239158593"><ele>58.0</ele><time>2026-04-04T07:15:49Z</time></trkpt><trkpt lat="39.351223772755425" lon="9.476389666258365"><ele>58.0</ele><time>2026-04-04T07:15:50Z</time></trkpt><trkpt lat="39.35103376573278" lon="9.476253190582064"><ele>58.0</ele><time>2026-04-04T07:15:51Z</time></trkpt><trkpt lat="39.35084260689194" lon="9.476119682371317"><ele>58.0</ele><time>2026-04-04T07:15:52Z</time></trkpt><trkpt lat="39.35065592367876" lon="9.475983221335625"><ele>58.0</ele><time>2026-04-04T07:15:53Z</time></trkpt><trkpt lat="39.3504848543332" lon="9.475832522861277"><ele>58.0</ele><time>2026-04-04T07:15:54Z</time></trkpt><trkpt lat="39.350336805608876" lon="9.475644850183564"><ele>58.0</ele><time>2026-04-04T07:15:55Z</time></trkpt><trkpt lat="39.350202529947445" lon="9.475421627926726"><ele>58.0</ele><time>2026-04-04T07:15:56Z</time></trkpt><trkpt lat="39.35008200501365" lon="9.475195347724167"><ele>62.666666666666664</ele><time>2026-04-04T07:15:57Z</time></trkpt><trkpt lat="39.34997220863762" lon="9.474985566170135"><ele>67.33333333333333</ele><time>2026-04-04T07:15:58Z</time></trkpt><trkpt lat="39.349877062434366" lon="9.474793237312669"><ele>72.0</ele><time>2026-04-04T07:15:59Z</time></trkpt><trkpt lat="39.349783253679185" lon="9.474627089705233"><ele>76.0</ele><time>2026-04-04T07:16:00Z</time></trkpt><trkpt lat="39.349658353990456" lon="9.474507517693874"><ele>80.0</ele><time>2026-04-04T07:16:01Z</time></trkpt><trkpt lat="39.34949162308301" lon="9.474412793948037"><ele>84.0</ele><time>2026-04-04T07:16:02Z</time></trkpt><trkpt lat="39.34931925193931" lon="9.474309095132226"><ele>84.0</ele><time>2026-04-04T07:16:03Z</time></trkpt><trkpt lat="39.34913790705268" lon="9.474195872990363"><ele>84.0</ele><time>2026-04-04T07:16:04Z</time></trkpt><trkpt lat="39.34895807086321" lon="9.474078321963232"><ele>84.0</ele><time>2026-04-04T07:16:05Z</time></trkpt><trkpt lat="39.34877886576571" lon="9.473957695429071"><ele>78.33333333333333</ele><time>2026-04-04T07:16:06Z</time></trkpt><trkpt lat="39.34862872629218" lon="9.473826466226171"><ele>72.66666666666666</ele><time>2026-04-04T07:16:07Z</time></trkpt><trkpt lat="39.348506842954656" lon="9.473684363732515"><ele>67.0</ele><time>2026-04-04T07:16:08Z</time></trkpt><trkpt lat="39.34837643595356" lon="9.473582916281925"><ele>78.66666666666666</ele><time>2026-04-04T07:16:09Z</time></trkpt><trkpt lat="39.348214986435536" lon="9.473540115622997"><ele>90.33333333333333</ele><time>2026-04-04T07:16:10Z</time></trkpt><trkpt lat="39.34802844386447" lon="9.47355106960231"><ele>102.0</ele><time>2026-04-04T07:16:11Z</time></trkpt><trkpt lat="39.34784258820449" lon="9.473582732686678"><ele>103.33333333333334</ele><time>2026-04-04T07:16:12Z</time></trkpt><trkpt lat="39.347652948612925" lon="9.473610395283558"><ele>104.66666666666667</ele><time>2026-04-04T07:16:13Z</time></trkpt><trkpt lat="39.3474752160476" lon="9.473637574976669"><ele>106.0</ele><time>2026-04-04T07:16:14Z</time></trkpt><trkpt lat="39.347315353233" lon="9.473663908033657"><ele>101.33333333333334</ele><time>2026-04-04T07:16:15Z</time></trkpt><trkpt lat="39.347160691783415" lon="9.473672495805342"><ele>96.66666666666667</ele><time>2026-04-04T07:16:16Z</time></trkpt><trkpt lat="39.347007466750505" lon="9.473638843928134"><ele>92.0</ele><time>2026-04-04T07:16:17Z</time></trkpt><trkpt lat="39.34685954679906" lon="9.47356349611956"><ele>92.0</ele><time>2026-04-04T07:16:18Z</time></trkpt><trkpt lat="39.34673885153807" lon="9.47342730046726"><ele>92.0</ele><time>2026-04-04T07:16:19Z</time></trkpt><trkpt lat="39.34660764440388" lon="9.473303549888497"><ele>92.0</ele><time>2026-04-04T07:16:20Z</time></trkpt><trkpt lat="39.346493040795295" lon="9.473176063117515"><ele>92.0</ele><time>2026-04-04T07:16:21Z</time></trkpt><trkpt lat="39.3463911255499" lon="9.473061516833312"><ele>92.0</ele><time>2026-04-04T07:16:22Z</time></trkpt><trkpt lat="39.346312051945546" lon="9.472941712455889"><ele>92.0</ele><time>2026-04-04T07:16:23Z</time></trkpt><trkpt lat="39.346272606897756" lon="9.472800077402276"><ele>92.0</ele><time>2026-04-04T07:16:24Z</time></trkpt><trkpt lat="39.34627576166006" lon="9.472644173351984"><ele>90.25</ele><time>2026-04-04T07:16:25Z</time></trkpt><trkpt lat="39.34634207394928" lon="9.472495789594296"><ele>88.5</ele><time>2026-04-04T07:16:26Z</time></trkpt><trkpt lat="39.34637808545893" lon="9.472320657857194"><ele>86.75</ele><time>2026-04-04T07:16:27Z</time></trkpt><trkpt lat="39.346427115924385" lon="9.472140193794317"><ele>85.0</ele><time>2026-04-04T07:16:28Z</time></trkpt><trkpt lat="39.34645972883609" lon="9.471942788520105"><ele>95.66666666666666</ele><time>2026-04-04T07:16:29Z</time></trkpt><trkpt lat="39.346487582553856" lon="9.471731685306228"><ele>106.33333333333333</ele><time>2026-04-04T07:16:30Z</time></trkpt><trkpt lat="39.34647424222587" lon="9.471513057159667"><ele>117.0</ele><time>2026-04-04T07:16:31Z</time></trkpt><trkpt lat="39.346478713743004" lon="9.471296978929047"><ele>120.66666666666666</ele><time>2026-04-04T07:16:32Z</time></trkpt><trkpt lat="39.34647445741171" lon="9.471082427994151"><ele>124.33333333333333</ele><time>2026-04-04T07:16:33Z</time></trkpt><trkpt lat="39.346437635481884" lon="9.470874136578894"><ele>128.0</ele><time>2026-04-04T07:16:34Z</time></trkpt><trkpt lat="39.346368551573946" lon="9.470669776702369"><ele>122.0</ele><time>2026-04-04T07:16:35Z</time></trkpt><trkpt lat="39.34629340381154" lon="9.470464776249198"><ele>116.0</ele><time>2026-04-04T07:16:36Z</time></trkpt><trkpt lat="39.34621352909622" lon="9.47026264574582"><ele>110.0</ele><time>2026-04-04T07:16:37Z</time></trkpt><trkpt lat="39.3461344307657" lon="9.470062691341052"><ele>110.0</ele><time>2026-04-04T07:16:38Z</time></trkpt><trkpt lat="39.34605818277003" lon="9.469869939211504"><ele>110.0</ele><time>2026-04-04T07:16:39Z</time></trkpt><trkpt lat="39.34598789740716" lon="9.46969226039909"><ele>110.0</ele><time>2026-04-04T07:16:40Z</time></trkpt><trkpt lat="39.34592222336106" lon="9.469526238823233"><ele>107.66666666666666</ele><time>2026-04-04T07:16:41Z</time></trkpt><trkpt lat="39.3456925574331" lon="9.46948180180255"><ele>105.33333333333334</ele><time>2026-04-04T07:16:42Z</time></trkpt><trkpt lat="39.34554885705275" lon="9.469397057339641"><ele>103.0</ele><time>2026-04-04T07:16:43Z</time></trkpt><trkpt lat="39.345413060726074" lon="9.469313826266959"><ele>103.0</ele><time>2026-04-04T07:16:44Z</time></trkpt><trkpt lat="39.34528934003624" lon="9.469227110958176"><ele>103.0</ele><time>2026-04-04T07:16:45Z</time></trkpt><trkpt lat="39.345190689886564" lon="9.469129494752927"><ele>103.0</ele><time>2026-04-04T07:16:46Z</time></trkpt><trkpt lat="39.3451309232973" lon="9.46900530480072"><ele>103.0</ele><time>2026-04-04T07:16:47Z</time></trkpt><trkpt lat="39.34512706026518" lon="9.468856732178812"><ele>102.25</ele><time>2026-04-04T07:16:48Z</time></trkpt><trkpt lat="39.34518494166761" lon="9.468711069882913"><ele>101.5</ele><time>2026-04-04T07:16:49Z</time></trkpt><trkpt lat="39.3452479774744" lon="9.468572108556813"><ele>100.75</ele><time>2026-04-04T07:16:50Z</time></trkpt><trkpt lat="39.3453252340703" lon="9.468426277340786"><ele>100.0</ele><time>2026-04-04T07:16:51Z</time></trkpt><trkpt lat="39.345433638933564" lon="9.468303835668085"><ele>106.0</ele><time>2026-04-04T07:16:52Z</time></trkpt><trkpt lat="39.345551560520036" lon="9.468184912825857"><ele>112.0</ele><time>2026-04-04T07:16:53Z</time></trkpt><trkpt lat="39.34566936032232" lon="9.4680665419326"><ele>118.0</ele><time>2026-04-04T07:16:54Z</time></trkpt><trkpt lat="39.34578151274422" lon="9.467961756525161"><ele>124.0</ele><time>2026-04-04T07:16:55Z</time></trkpt><trkpt lat="39.345882400970595" lon="9.467864195766408"><ele>124.0</ele><time>2026-04-04T07:16:56Z</time></trkpt><trkpt lat="39.34596322312985" lon="9.467765014137028"><ele>124.0</ele><time>2026-04-04T07:16:57Z</time></trkpt><trkpt lat="39.346011850546404" lon="9.467640348628278"><ele>124.0</ele><time>2026-04-04T07:16:58Z</time></trkpt><trkpt lat="39.34601007940888" lon="9.467494613564234"><ele>124.0</ele><time>2026-04-04T07:16:59Z</time></trkpt><trkpt lat="39.34596386181508" lon="9.46734684841818"><ele>124.0</ele><time>2026-04-04T07:17:00Z</time></trkpt><trkpt lat="39.345888047352965" lon="9.4672078001232"><ele>124.0</ele><time>2026-04-04T07:17:01Z</time></trkpt><trkpt lat="39.3458185156136" lon="9.467062518348097"><ele>124.0</ele><time>2026-04-04T07:17:02Z</time></trkpt><trkpt lat="39.34577302952827" lon="9.466891063903097"><ele>124.0</ele><time>2026-04-04T07:17:03Z</time></trkpt><trkpt lat="39.34575549565838" lon="9.466706277892117"><ele>126.75</ele><time>2026-04-04T07:17:04Z</time></trkpt><trkpt lat="39.34575505824753" lon="9.466520086458829"><ele>129.5</ele><time>2026-04-04T07:17:05Z</time></trkpt><trkpt lat="39.34574705140817" lon="9.466335893049877"><ele>132.25</ele><time>2026-04-04T07:17:06Z</time></trkpt><trkpt lat="39.34571888198603" lon="9.466153692633906"><ele>135.0</ele><time>2026-04-04T07:17:07Z</time></trkpt><trkpt lat="39.34565384212052" lon="9.465980573925833"><ele>136.75</ele><time>2026-04-04T07:17:08Z</time></trkpt><trkpt lat="39.34556268068866" lon="9.465822557317656"><ele>138.5</ele><time>2026-04-04T07:17:09Z</time></trkpt><trkpt lat="39.3454707964197" lon="9.465675847872918"><ele>140.25</ele><time>2026-04-04T07:17:10Z</time></trkpt><trkpt lat="39.345388158251" lon="9.465536776724269"><ele>142.0</ele><time>2026-04-04T07:17:11Z</time></trkpt><trkpt lat="39.34533702769173" lon="9.465389496868337"><ele>140.0</ele><time>2026-04-04T07:17:12Z</time></trkpt><trkpt lat="39.34533170175073" lon="9.465248675048153"><ele>138.0</ele><time>2026-04-04T07:17:13Z</time></trkpt><trkpt lat="39.34537662303625" lon="9.465120942175023"><ele>136.0</ele><time>2026-04-04T07:17:14Z</time></trkpt><trkpt lat="39.34545837052073" lon="9.46499260153102"><ele>134.0</ele><time>2026-04-04T07:17:15Z</time></trkpt><trkpt lat="39.345553733012885" lon="9.464860091272879"><ele>134.0</ele><time>2026-04-04T07:17:16Z</time></trkpt><trkpt lat="39.345658979079026" lon="9.464713768275546"><ele>134.0</ele><time>2026-04-04T07:17:17Z</time></trkpt><trkpt lat="39.34575405551612" lon="9.4646035433384"><ele>134.0</ele><time>2026-04-04T07:17:18Z</time></trkpt><trkpt lat="39.34585704299169" lon="9.464551341979494"><ele>134.0</ele><time>2026-04-04T07:17:19Z</time></trkpt><trkpt lat="39.34596157475802" lon="9.464567021824177"><ele>134.0</ele><time>2026-04-04T07:17:20Z</time></trkpt><trkpt lat="39.346049807745224" lon="9.46464205654958"><ele>134.0</ele><time>2026-04-04T07:17:21Z</time></trkpt><trkpt lat="39.34610136162491" lon="9.46476947131869"><ele>134.0</ele><time>2026-04-04T07:17:22Z</time></trkpt><trkpt lat="39.3461379985219" lon="9.46493181815285"><ele>134.0</ele><time>2026-04-04T07:17:23Z</time></trkpt><trkpt lat="39.34616755285189" lon="9.465106591237056"><ele>134.0</ele><time>2026-04-04T07:17:24Z</time></trkpt><trkpt lat="39.346231345444735" lon="9.465257567634621"><ele>134.0</ele><time>2026-04-04T07:17:25Z</time></trkpt><trkpt lat="39.34633924941241" lon="9.465385644961026"><ele>134.0</ele><time>2026-04-04T07:17:26Z</time></trkpt><trkpt lat="39.34647814495683" lon="9.465485935037455"><ele>134.0</ele><time>2026-04-04T07:17:27Z</time></trkpt><trkpt lat="39.346629330164276" lon="9.46556851237327"><ele>136.66666666666666</ele><time>2026-04-04T07:17:28Z</time></trkpt><trkpt lat="39.346778679569574" lon="9.46565548237381"><ele>139.33333333333334</ele><time>2026-04-04T07:17:29Z</time></trkpt><trkpt lat="39.34693279637984" lon="9.465715873865696"><ele>142.0</ele><time>2026-04-04T07:17:30Z</time></trkpt><trkpt lat="39.34707992842152" lon="9.46573790196675"><ele>138.5</ele><time>2026-04-04T07:17:31Z</time></trkpt><trkpt lat="39.34721616607744" lon="9.465758652277678"><ele>135.0</ele><time>2026-04-04T07:17:32Z</time></trkpt><trkpt lat="39.34733778992317" lon="9.46581570575905"><ele>131.5</ele><time>2026-04-04T07:17:33Z</time></trkpt><trkpt lat="39.347439928520046" lon="9.465912819560264"><ele>128.0</ele><time>2026-04-04T07:17:34Z</time></trkpt><trkpt lat="39.34751479370248" lon="9.466055900438688"><ele>128.0</ele><time>2026-04-04T07:17:35Z</time></trkpt><trkpt lat="39.34757357249209" lon="9.466207718063032"><ele>128.0</ele><time>2026-04-04T07:17:36Z</time></trkpt><trkpt lat="39.34765860392726" lon="9.466345473729094"><ele>128.0</ele><time>2026-04-04T07:17:37Z</time></trkpt><trkpt lat="39.34778342528552" lon="9.466442727009921"><ele>128.0</ele><time>2026-04-04T07:17:38Z</time></trkpt><trkpt lat="39.347928543029624" lon="9.46649116173944"><ele>124.75</ele><time>2026-04-04T07:17:39Z</time></trkpt><trkpt lat="39.34806721180448" lon="9.466495478790137"><ele>121.5</ele><time>2026-04-04T07:17:40Z</time></trkpt><trkpt lat="39.348208077042955" lon="9.466435864187348"><ele>118.25</ele><time>2026-04-04T07:17:41Z</time></trkpt><trkpt lat="39.34834946396139" lon="9.466335303210316"><ele>115.0</ele><time>2026-04-04T07:17:42Z</time></trkpt><trkpt lat="39.3484945265109" lon="9.466240686148158"><ele>115.0</ele><time>2026-04-04T07:17:43Z</time></trkpt><trkpt lat="39.34864368075929" lon="9.466137083507178"><ele>115.0</ele><time>2026-04-04T07:17:44Z</time></trkpt><trkpt lat="39.34879168761549" lon="9.46603204455516"><ele>115.0</ele><time>2026-04-04T07:17:45Z</time></trkpt><trkpt lat="39.34892304905438" lon="9.465907361910805"><ele>121.66666666666667</ele><time>2026-04-04T07:17:46Z</time></trkpt><trkpt lat="39.34903660381304" lon="9.465759144703767"><ele>128.33333333333334</ele><time>2026-04-04T07:17:47Z</time></trkpt><trkpt lat="39.34915311964649" lon="9.465635845592628"><ele>135.0</ele><time>2026-04-04T07:17:48Z</time></trkpt><trkpt lat="39.34929197189634" lon="9.465545427769255"><ele>135.0</ele><time>2026-04-04T07:17:49Z</time></trkpt><trkpt lat="39.34944174147148" lon="9.465455078751472"><ele>135.0</ele><time>2026-04-04T07:17:50Z</time></trkpt><trkpt lat="39.34958856775005" lon="9.465361986738703"><ele>135.0</ele><time>2026-04-04T07:17:51Z</time></trkpt><trkpt lat="39.34974432210982" lon="9.465256391477961"><ele>132.66666666666666</ele><time>2026-04-04T07:17:52Z</time></trkpt><trkpt lat="39.349899679126935" lon="9.4651668680426"><ele>130.33333333333331</ele><time>2026-04-04T07:17:53Z</time></trkpt><trkpt lat="39.35005363795304" lon="9.465080830641341"><ele>128.0</ele><time>2026-04-04T07:17:54Z</time></trkpt><trkpt lat="39.35019447886011" lon="9.464991747138614"><ele>128.0</ele><time>2026-04-04T07:17:55Z</time></trkpt><trkpt lat="39.35031515256335" lon="9.464886265334702"><ele>128.0</ele><time>2026-04-04T07:17:56Z</time></trkpt><trkpt lat="39.35041059545355" lon="9.464747781148079"><ele>128.0</ele><time>2026-04-04T07:17:57Z</time></trkpt><trkpt lat="39.35047015423523" lon="9.46456520553876"><ele>128.0</ele><time>2026-04-04T07:17:58Z</time></trkpt><trkpt lat="39.35050307503619" lon="9.46436466746901"><ele>135.33333333333331</ele><time>2026-04-04T07:17:59Z</time></trkpt><trkpt lat="39.35054187346907" lon="9.46416241101138"><ele>142.66666666666666</ele><time>2026-04-04T07:18:00Z</time></trkpt><trkpt lat="39.3505779155019" lon="9.463958546852343"><ele>150.0</ele><time>2026-04-04T07:18:01Z</time></trkpt><trkpt lat="39.35062182586456" lon="9.463761032100772"><ele>150.0</ele><time>2026-04-04T07:18:02Z</time></trkpt><trkpt lat="39.35067454943061" lon="9.463564001606603"><ele>150.0</ele><time>2026-04-04T07:18:03Z</time></trkpt><trkpt lat="39.35073262948824" lon="9.463377607654905"><ele>150.0</ele><time>2026-04-04T07:18:04Z</time></trkpt><trkpt lat="39.35078660509932" lon="9.463202822052383"><ele>150.0</ele><time>2026-04-04T07:18:05Z</time></trkpt><trkpt lat="39.35081576035247" lon="9.46303293492878"><ele>150.0</ele><time>2026-04-04T07:18:06Z</time></trkpt><trkpt lat="39.350793986582026" lon="9.462875321881194"><ele>150.0</ele><time>2026-04-04T07:18:07Z</time></trkpt><trkpt lat="39.35072827907784" lon="9.462730824993473"><ele>150.0</ele><time>2026-04-04T07:18:08Z</time></trkpt><trkpt lat="39.3506362882013" lon="9.462587285698872"><ele>151.66666666666666</ele><time>2026-04-04T07:18:09Z</time></trkpt><trkpt lat="39.350563834230464" lon="9.462424722803595"><ele>153.33333333333331</ele><time>2026-04-04T07:18:10Z</time></trkpt><trkpt lat="39.35051894331226" lon="9.462234379728612"><ele>155.0</ele><time>2026-04-04T07:18:11Z</time></trkpt><trkpt lat="39.35047453272779" lon="9.462032657205356"><ele>146.33333333333331</ele><time>2026-04-04T07:18:12Z</time></trkpt><trkpt lat="39.35042400042932" lon="9.461831600742633"><ele>137.66666666666666</ele><time>2026-04-04T07:18:13Z</time></trkpt><trkpt lat="39.35036422945738" lon="9.461638444512923"><ele>129.0</ele><time>2026-04-04T07:18:14Z</time></trkpt><trkpt lat="39.35028080011848" lon="9.461469944711718"><ele>129.0</ele><time>2026-04-04T07:18:15Z</time></trkpt><trkpt lat="39.35016047378524" lon="9.461349092754014"><ele>129.0</ele><time>2026-04-04T07:18:16Z</time></trkpt><trkpt lat="39.35001810462323" lon="9.461251565121598"><ele>129.0</ele><time>2026-04-04T07:18:17Z</time></trkpt><trkpt lat="39.349878987277044" lon="9.461152914523403"><ele>127.25</ele><time>2026-04-04T07:18:18Z</time></trkpt><trkpt lat="39.34974079938859" lon="9.461062499171126"><ele>125.5</ele><time>2026-04-04T07:18:19Z</time></trkpt><trkpt lat="39.349611214598134" lon="9.460982171800518"><ele>123.75</ele><time>2026-04-04T07:18:20Z</time></trkpt><trkpt lat="39.34950015423432" lon="9.460874438963236"><ele>122.0</ele><time>2026-04-04T07:18:21Z</time></trkpt><trkpt lat="39.34943519970061" lon="9.460711616802588"><ele>122.0</ele><time>2026-04-04T07:18:22Z</time></trkpt><trkpt lat="39.34939510274748" lon="9.460536261009835"><ele>122.0</ele><time>2026-04-04T07:18:23Z</time></trkpt><trkpt lat="39.349351630949286" lon="9.460351933401231"><ele>122.0</ele><time>2026-04-04T07:18:24Z</time></trkpt><trkpt lat="39.34933436214194" lon="9.460161900723856"><ele>122.0</ele><time>2026-04-04T07:18:25Z</time></trkpt><trkpt lat="39.349356346557144" lon="9.459967828029763"><ele>124.33333333333333</ele><time>2026-04-04T07:18:26Z</time></trkpt><trkpt lat="39.3493686650073" lon="9.459768803785318"><ele>126.66666666666666</ele><time>2026-04-04T07:18:27Z</time></trkpt><trkpt lat="39.34935212957872" lon="9.45956713118209"><ele>129.0</ele><time>2026-04-04T07:18:28Z</time></trkpt><trkpt lat="39.3493563453269" lon="9.459364051156571"><ele>129.0</ele><time>2026-04-04T07:18:29Z</time></trkpt><trkpt lat="39.349394075182126" lon="9.459166706945174"><ele>129.0</ele><time>2026-04-04T07:18:30Z</time></trkpt><trkpt lat="39.34945632768211" lon="9.458981046935214"><ele>129.0</ele><time>2026-04-04T07:18:31Z</time></trkpt><trkpt lat="39.349540322319605" lon="9.458806236701788"><ele>126.33333333333334</ele><time>2026-04-04T07:18:32Z</time></trkpt><trkpt lat="39.349625815779696" lon="9.45863930243368"><ele>123.66666666666667</ele><time>2026-04-04T07:18:33Z</time></trkpt><trkpt lat="39.3496972079167" lon="9.458466765068259"><ele>121.0</ele><time>2026-04-04T07:18:34Z</time></trkpt><trkpt lat="39.34974752861026" lon="9.458269825462859"><ele>128.66666666666669</ele><time>2026-04-04T07:18:35Z</time></trkpt><trkpt lat="39.34980251148342" lon="9.458070589230944"><ele>136.33333333333334</ele><time>2026-04-04T07:18:36Z</time></trkpt><trkpt lat="39.3498546078726" lon="9.457874601557544"><ele>144.0</ele><time>2026-04-04T07:18:37Z</time></trkpt><trkpt lat="39.34990623773011" lon="9.4576778577772"><ele>144.0</ele><time>2026-04-04T07:18:38Z</time></trkpt><trkpt lat="39.349934194785256" lon="9.45748541447433"><ele>144.0</ele><time>2026-04-04T07:18:39Z</time></trkpt><trkpt lat="39.34994908299381" lon="9.457305056631368"><ele>144.0</ele><time>2026-04-04T07:18:40Z</time></trkpt><trkpt lat="39.34992866778777" lon="9.457125615156224"><ele>144.0</ele><time>2026-04-04T07:18:41Z</time></trkpt><trkpt lat="39.349862362977596" lon="9.456938418324413"><ele>148.66666666666666</ele><time>2026-04-04T07:18:42Z</time></trkpt><trkpt lat="39.34978458992021" lon="9.456758637430045"><ele>153.33333333333331</ele><time>2026-04-04T07:18:43Z</time></trkpt><trkpt lat="39.349679106621124" lon="9.456595464727599"><ele>158.0</ele><time>2026-04-04T07:18:44Z</time></trkpt><trkpt lat="39.34955343225977" lon="9.456454965374903"><ele>153.33333333333331</ele><time>2026-04-04T07:18:45Z</time></trkpt><trkpt lat="39.349437356626645" lon="9.456305079012607"><ele>148.66666666666666</ele><time>2026-04-04T07:18:46Z</time></trkpt><trkpt lat="39.34932559933208" lon="9.456140076619269"><ele>144.0</ele><time>2026-04-04T07:18:47Z</time></trkpt><trkpt lat="39.349218178763834" lon="9.455969587808122"><ele>144.0</ele><time>2026-04-04T07:18:48Z</time></trkpt><trkpt lat="39.3491093639251" lon="9.455798461949524"><ele>144.0</ele><time>2026-04-04T07:18:49Z</time></trkpt><trkpt lat="39.34900681997558" lon="9.455625788538331"><ele>144.0</ele><time>2026-04-04T07:18:50Z</time></trkpt><trkpt lat="39.34891693340217" lon="9.455448879562173"><ele>140.0</ele><time>2026-04-04T07:18:51Z</time></trkpt><trkpt lat="39.348825059128636" lon="9.45527471795074"><ele>136.0</ele><time>2026-04-04T07:18:52Z</time></trkpt><trkpt lat="39.348719513644454" lon="9.455120010425654"><ele>132.0</ele><time>2026-04-04T07:18:53Z</time></trkpt><trkpt lat="39.348594083010646" lon="9.455002815092765"><ele>132.0</ele><time>2026-04-04T07:18:54Z</time></trkpt><trkpt lat="39.348452303240165" lon="9.454920388753676"><ele>132.0</ele><time>2026-04-04T07:18:55Z</time></trkpt><trkpt lat="39.34831530606079" lon="9.454847717443624"><ele>132.0</ele><time>2026-04-04T07:18:56Z</time></trkpt><trkpt lat="39.34819725378964" lon="9.45477086737156"><ele>132.0</ele><time>2026-04-04T07:18:57Z</time></trkpt><trkpt lat="39.34810997764136" lon="9.454652556040767"><ele>132.75</ele><time>2026-04-04T07:18:58Z</time></trkpt><trkpt lat="39.348062257928525" lon="9.454495475581343"><ele>133.5</ele><time>2026-04-04T07:18:59Z</time></trkpt><trkpt lat="39.348014901853546" lon="9.454316370664884"><ele>134.25</ele><time>2026-04-04T07:19:00Z</time></trkpt><trkpt lat="39.34796387553172" lon="9.454142507762644"><ele>135.0</ele><time>2026-04-04T07:19:01Z</time></trkpt><trkpt lat="39.34792817384958" lon="9.453972320073062"><ele>135.0</ele><time>2026-04-04T07:19:02Z</time></trkpt><trkpt lat="39.34792435394692" lon="9.45380392893932"><ele>135.0</ele><time>2026-04-04T07:19:03Z</time></trkpt><trkpt lat="39.3479580560411" lon="9.453651088161632"><ele>135.0</ele><time>2026-04-04T07:19:04Z</time></trkpt><trkpt lat="39.348033727960456" lon="9.453513558299209"><ele>135.0</ele><time>2026-04-04T07:19:05Z</time></trkpt><trkpt lat="39.34813114782745" lon="9.453376254602912"><ele>136.25</ele><time>2026-04-04T07:19:06Z</time></trkpt><trkpt lat="39.348220621372846" lon="9.453236620515185"><ele>137.5</ele><time>2026-04-04T07:19:07Z</time></trkpt><trkpt lat="39.3482972816532" lon="9.453106609255054"><ele>138.75</ele><time>2026-04-04T07:19:08Z</time></trkpt><trkpt lat="39.34835806557353" lon="9.452975746090669"><ele>140.0</ele><time>2026-04-04T07:19:09Z</time></trkpt><trkpt lat="39.34838475979206" lon="9.452840008860571"><ele>140.0</ele><time>2026-04-04T07:19:10Z</time></trkpt><trkpt lat="39.348363905558195" lon="9.452713921926241"><ele>140.0</ele><time>2026-04-04T07:19:11Z</time></trkpt><trkpt lat="39.34828747991278" lon="9.452609121809543"><ele>140.0</ele><time>2026-04-04T07:19:12Z</time></trkpt><trkpt lat="39.34817430498887" lon="9.45251148498959"><ele>140.0</ele><time>2026-04-04T07:19:13Z</time></trkpt><trkpt lat="39.34804919155021" lon="9.452425848998173"><ele>136.5</ele><time>2026-04-04T07:19:14Z</time></trkpt><trkpt lat="39.347925471192106" lon="9.45232828685672"><ele>133.0</ele><time>2026-04-04T07:19:15Z</time></trkpt><trkpt lat="39.34780106163514" lon="9.452221934788993"><ele>129.5</ele><time>2026-04-04T07:19:16Z</time></trkpt><trkpt lat="39.347686669770944" lon="9.452116132291748"><ele>126.0</ele><time>2026-04-04T07:19:17Z</time></trkpt><trkpt lat="39.347562118723204" lon="9.452034924531867"><ele>135.25</ele><time>2026-04-04T07:19:18Z</time></trkpt><trkpt lat="39.34742514783942" lon="9.451992694796653"><ele>144.5</ele><time>2026-04-04T07:19:19Z</time></trkpt><trkpt lat="39.347280293044534" lon="9.451991902884828"><ele>153.75</ele><time>2026-04-04T07:19:20Z</time></trkpt><trkpt lat="39.347137181886694" lon="9.452008061754416"><ele>163.0</ele><time>2026-04-04T07:19:21Z</time></trkpt><trkpt lat="39.346984585100806" lon="9.452013338437153"><ele>163.33333333333334</ele><time>2026-04-04T07:19:22Z</time></trkpt><trkpt lat="39.34683289289121" lon="9.452026363936383"><ele>163.66666666666666</ele><time>2026-04-04T07:19:23Z</time></trkpt><trkpt lat="39.34667759124859" lon="9.452041088546217"><ele>164.0</ele><time>2026-04-04T07:19:24Z</time></trkpt><trkpt lat="39.346517628622685" lon="9.452052710537528"><ele>166.33333333333331</ele><time>2026-04-04T07:19:25Z</time></trkpt><trkpt lat="39.34635781510753" lon="9.452061324481658"><ele>168.66666666666666</ele><time>2026-04-04T07:19:26Z</time></trkpt><trkpt lat="39.3462032794933" lon="9.452082830186502"><ele>171.0</ele><time>2026-04-04T07:19:27Z</time></trkpt><trkpt lat="39.34605552292073" lon="9.452140373809225"><ele>159.33333333333334</ele><time>2026-04-04T07:19:28Z</time></trkpt><trkpt lat="39.345918916914236" lon="9.452229863679174"><ele>147.66666666666669</ele><time>2026-04-04T07:19:29Z</time></trkpt><trkpt lat="39.345779357902956" lon="9.452290945512305"><ele>136.0</ele><time>2026-04-04T07:19:30Z</time></trkpt><trkpt lat="39.345624987580194" lon="9.452317921715855"><ele>140.0</ele><time>2026-04-04T07:19:31Z</time></trkpt><trkpt lat="39.345469997258256" lon="9.452356169724492"><ele>144.0</ele><time>2026-04-04T07:19:32Z</time></trkpt><trkpt lat="39.345325834939864" lon="9.452416704452974"><ele>148.0</ele><time>2026-04-04T07:19:33Z</time></trkpt><trkpt lat="39.34519086535677" lon="9.4525125494731"><ele>148.0</ele><time>2026-04-04T07:19:34Z</time></trkpt><trkpt lat="39.345072254696845" lon="9.452615327889738"><ele>148.0</ele><time>2026-04-04T07:19:35Z</time></trkpt><trkpt lat="39.34495792132741" lon="9.452694170995533"><ele>148.0</ele><time>2026-04-04T07:19:36Z</time></trkpt><trkpt lat="39.3447975701061" lon="9.452715222347173"><ele>148.0</ele><time>2026-04-04T07:19:37Z</time></trkpt><trkpt lat="39.34463140293946" lon="9.452707581969682"><ele>146.75</ele><time>2026-04-04T07:19:38Z</time></trkpt><trkpt lat="39.34448104004977" lon="9.45270649361947"><ele>145.5</ele><time>2026-04-04T07:19:39Z</time></trkpt><trkpt lat="39.34434973039807" lon="9.452698848871073"><ele>144.25</ele><time>2026-04-04T07:19:40Z</time></trkpt><trkpt lat="39.34423667451116" lon="9.452647707490549"><ele>143.0</ele><time>2026-04-04T07:19:41Z</time></trkpt><trkpt lat="39.34413465115612" lon="9.452551841884159"><ele>143.0</ele><time>2026-04-04T07:19:42Z</time></trkpt><trkpt lat="39.34404601303234" lon="9.45241069939058"><ele>143.0</ele><time>2026-04-04T07:19:43Z</time></trkpt><trkpt lat="39.343966201354924" lon="9.45222912516189"><ele>143.0</ele><time>2026-04-04T07:19:44Z</time></trkpt><trkpt lat="39.343886011675856" lon="9.45202704858009"><ele>142.0</ele><time>2026-04-04T07:19:45Z</time></trkpt><trkpt lat="39.34380583039941" lon="9.45181344734902"><ele>141.0</ele><time>2026-04-04T07:19:46Z</time></trkpt><trkpt lat="39.34374508621998" lon="9.451606561602599"><ele>140.0</ele><time>2026-04-04T07:19:47Z</time></trkpt><trkpt lat="39.34369831493871" lon="9.451397120670824"><ele>141.66666666666666</ele><time>2026-04-04T07:19:48Z</time></trkpt><trkpt lat="39.34365166604471" lon="9.45117915188792"><ele>143.33333333333334</ele><time>2026-04-04T07:19:49Z</time></trkpt><trkpt lat="39.34362011347228" lon="9.4509536766101"><ele>145.0</ele><time>2026-04-04T07:19:50Z</time></trkpt><trkpt lat="39.343602035045166" lon="9.450722423081913"><ele>145.0</ele><time>2026-04-04T07:19:51Z</time></trkpt><trkpt lat="39.34357592914492" lon="9.450492082416101"><ele>145.0</ele><time>2026-04-04T07:19:52Z</time></trkpt><trkpt lat="39.343543269242154" lon="9.450275581828349"><ele>145.0</ele><time>2026-04-04T07:19:53Z</time></trkpt><trkpt lat="39.343513222175595" lon="9.450081493601491"><ele>145.75</ele><time>2026-04-04T07:19:54Z</time></trkpt><trkpt lat="39.343494835604034" lon="9.449902711842274"><ele>146.5</ele><time>2026-04-04T07:19:55Z</time></trkpt><trkpt lat="39.343513673159165" lon="9.449743237940355"><ele>147.25</ele><time>2026-04-04T07:19:56Z</time></trkpt><trkpt lat="39.34359052436218" lon="9.44962712569446"><ele>148.0</ele><time>2026-04-04T07:19:57Z</time></trkpt><trkpt lat="39.343714453716274" lon="9.449536270347101"><ele>150.0</ele><time>2026-04-04T07:19:58Z</time></trkpt><trkpt lat="39.34386049231063" lon="9.449445049765302"><ele>152.0</ele><time>2026-04-04T07:19:59Z</time></trkpt><trkpt lat="39.34401233500963" lon="9.44932825161321"><ele>154.0</ele><time>2026-04-04T07:20:00Z</time></trkpt><trkpt lat="39.3441580619479" lon="9.449190481669097"><ele>154.0</ele><time>2026-04-04T07:20:01Z</time></trkpt><trkpt lat="39.34430217474628" lon="9.449034184023795"><ele>154.0</ele><time>2026-04-04T07:20:02Z</time></trkpt><trkpt lat="39.344446323610214" lon="9.44888159364404"><ele>154.0</ele><time>2026-04-04T07:20:03Z</time></trkpt><trkpt lat="39.34459045399178" lon="9.44875720839788"><ele>159.66666666666669</ele><time>2026-04-04T07:20:04Z</time></trkpt><trkpt lat="39.344724119885704" lon="9.44864400847854"><ele>165.33333333333334</ele><time>2026-04-04T07:20:05Z</time></trkpt><trkpt lat="39.34482226063338" lon="9.448494500320875"><ele>171.0</ele><time>2026-04-04T07:20:06Z</time></trkpt><trkpt lat="39.34488620583305" lon="9.448297032821698"><ele>171.0</ele><time>2026-04-04T07:20:07Z</time></trkpt><trkpt lat="39.34493794961204" lon="9.448077420790167"><ele>171.0</ele><time>2026-04-04T07:20:08Z</time></trkpt><trkpt lat="39.3449924021167" lon="9.447852903484367"><ele>171.0</ele><time>2026-04-04T07:20:09Z</time></trkpt><trkpt lat="39.345041049017446" lon="9.447631090628734"><ele>167.66666666666666</ele><time>2026-04-04T07:20:10Z</time></trkpt><trkpt lat="39.34507085707517" lon="9.447410882395372"><ele>164.33333333333331</ele><time>2026-04-04T07:20:11Z</time></trkpt><trkpt lat="39.34507815213296" lon="9.447185740527148"><ele>161.0</ele><time>2026-04-04T07:20:12Z</time></trkpt><trkpt lat="39.3450694859481" lon="9.446962936128148"><ele>161.0</ele><time>2026-04-04T07:20:13Z</time></trkpt><trkpt lat="39.3450372750155" lon="9.446747270414669"><ele>161.0</ele><time>2026-04-04T07:20:14Z</time></trkpt><trkpt lat="39.34498873911923" lon="9.44654521306875"><ele>161.0</ele><time>2026-04-04T07:20:15Z</time></trkpt><trkpt lat="39.344939946876714" lon="9.446352967097708"><ele>161.0</ele><time>2026-04-04T07:20:16Z</time></trkpt><trkpt lat="39.34489842303927" lon="9.44616864001412"><ele>161.0</ele><time>2026-04-04T07:20:17Z</time></trkpt><trkpt lat="39.34488217625505" lon="9.445987348521511"><ele>161.0</ele><time>2026-04-04T07:20:18Z</time></trkpt><trkpt lat="39.34486587953504" lon="9.44582048623483"><ele>161.0</ele><time>2026-04-04T07:20:19Z</time></trkpt><trkpt lat="39.3448855766721" lon="9.44566423396598"><ele>161.0</ele><time>2026-04-04T07:20:20Z</time></trkpt><trkpt lat="39.34496904806013" lon="9.445566195027546"><ele>161.0</ele><time>2026-04-04T07:20:21Z</time></trkpt><trkpt lat="39.34506031777639" lon="9.445447991568486"><ele>161.0</ele><time>2026-04-04T07:20:22Z</time></trkpt><trkpt lat="39.34512840638382" lon="9.445286182990456"><ele>161.0</ele><time>2026-04-04T07:20:23Z</time></trkpt><trkpt lat="39.345140735321124" lon="9.445080500100824"><ele>159.33333333333331</ele><time>2026-04-04T07:20:24Z</time></trkpt><trkpt lat="39.345169035396545" lon="9.444881169581247"><ele>157.66666666666666</ele><time>2026-04-04T07:20:25Z</time></trkpt><trkpt lat="39.34525172004984" lon="9.444704141331496"><ele>156.0</ele><time>2026-04-04T07:20:26Z</time></trkpt><trkpt lat="39.34526212206551" lon="9.444500609616272"><ele>154.66666666666666</ele><time>2026-04-04T07:20:27Z</time></trkpt><trkpt lat="39.34524253593577" lon="9.444300551318792"><ele>153.33333333333331</ele><time>2026-04-04T07:20:28Z</time></trkpt><trkpt lat="39.345202371620715" lon="9.444098128228537"><ele>152.0</ele><time>2026-04-04T07:20:29Z</time></trkpt><trkpt lat="39.345177092418794" lon="9.443902365795013"><ele>153.5</ele><time>2026-04-04T07:20:30Z</time></trkpt><trkpt lat="39.34516867252512" lon="9.44372527253481"><ele>155.0</ele><time>2026-04-04T07:20:31Z</time></trkpt><trkpt lat="39.345132709192114" lon="9.44357661708877"><ele>156.5</ele><time>2026-04-04T07:20:32Z</time></trkpt><trkpt lat="39.34504334323065" lon="9.443474937510848"><ele>158.0</ele><time>2026-04-04T07:20:33Z</time></trkpt><trkpt lat="39.34491527148631" lon="9.44341850658918"><ele>158.0</ele><time>2026-04-04T07:20:34Z</time></trkpt><trkpt lat="39.34476073333942" lon="9.443385074891767"><ele>158.0</ele><time>2026-04-04T07:20:35Z</time></trkpt><trkpt lat="39.34463674231316" lon="9.443293648576457"><ele>158.0</ele><time>2026-04-04T07:20:36Z</time></trkpt><trkpt lat="39.3445203339406" lon="9.443159601718094"><ele>158.0</ele><time>2026-04-04T07:20:37Z</time></trkpt><trkpt lat="39.34440432933596" lon="9.443014465465792"><ele>158.0</ele><time>2026-04-04T07:20:38Z</time></trkpt><trkpt lat="39.344290994447654" lon="9.442861335814968"><ele>158.0</ele><time>2026-04-04T07:20:39Z</time></trkpt><trkpt lat="39.34418510111557" lon="9.44270056837402"><ele>159.0</ele><time>2026-04-04T07:20:40Z</time></trkpt><trkpt lat="39.34408925615075" lon="9.442543937722276"><ele>160.0</ele><time>2026-04-04T07:20:41Z</time></trkpt><trkpt lat="39.34398903611298" lon="9.442378882606763"><ele>161.0</ele><time>2026-04-04T07:20:42Z</time></trkpt><trkpt lat="39.34388077241135" lon="9.442215711381595"><ele>162.0</ele><time>2026-04-04T07:20:43Z</time></trkpt><trkpt lat="39.34375565950229" lon="9.442083625275409"><ele>163.0</ele><time>2026-04-04T07:20:44Z</time></trkpt><trkpt lat="39.34360771949648" lon="9.441997365183783"><ele>164.0</ele><time>2026-04-04T07:20:45Z</time></trkpt><trkpt lat="39.34346765785999" lon="9.441905395157233"><ele>164.0</ele><time>2026-04-04T07:20:46Z</time></trkpt><trkpt lat="39.343352277966254" lon="9.441780752505352"><ele>164.0</ele><time>2026-04-04T07:20:47Z</time></trkpt><trkpt lat="39.343283487836274" lon="9.44163542857814"><ele>164.0</ele><time>2026-04-04T07:20:48Z</time></trkpt><trkpt lat="39.34322782873064" lon="9.441463851115513"><ele>164.0</ele><time>2026-04-04T07:20:49Z</time></trkpt><trkpt lat="39.34317227177588" lon="9.441274951082423"><ele>162.0</ele><time>2026-04-04T07:20:50Z</time></trkpt><trkpt lat="39.34310618995993" lon="9.441086104116279"><ele>160.0</ele><time>2026-04-04T07:20:51Z</time></trkpt><trkpt lat="39.34300515353337" lon="9.440935970472848"><ele>158.0</ele><time>2026-04-04T07:20:52Z</time></trkpt><trkpt lat="39.342896998456716" lon="9.440813439813802"><ele>158.0</ele><time>2026-04-04T07:20:53Z</time></trkpt><trkpt lat="39.34275796600897" lon="9.440742044077064"><ele>158.0</ele><time>2026-04-04T07:20:54Z</time></trkpt><trkpt lat="39.342602498120996" lon="9.440707556529611"><ele>158.0</ele><time>2026-04-04T07:20:55Z</time></trkpt><trkpt lat="39.34244112245492" lon="9.440681257622929"><ele>158.0</ele><time>2026-04-04T07:20:56Z</time></trkpt><trkpt lat="39.342275771960374" lon="9.440650780825314"><ele>158.0</ele><time>2026-04-04T07:20:57Z</time></trkpt><trkpt lat="39.342108511552794" lon="9.440614459099987"><ele>158.0</ele><time>2026-04-04T07:20:58Z</time></trkpt><trkpt lat="39.341935932604926" lon="9.440573577791282"><ele>159.0</ele><time>2026-04-04T07:20:59Z</time></trkpt><trkpt lat="39.34176605353652" lon="9.440529439380448"><ele>160.0</ele><time>2026-04-04T07:21:00Z</time></trkpt><trkpt lat="39.34159703735024" lon="9.440490870493852"><ele>161.0</ele><time>2026-04-04T07:21:01Z</time></trkpt><trkpt lat="39.34143024371511" lon="9.440446554782257"><ele>163.33333333333331</ele><time>2026-04-04T07:21:02Z</time></trkpt><trkpt lat="39.34127325384528" lon="9.440375466642875"><ele>165.66666666666666</ele><time>2026-04-04T07:21:03Z</time></trkpt><trkpt lat="39.34112169164704" lon="9.44029169555587"><ele>168.0</ele><time>2026-04-04T07:21:04Z</time></trkpt><trkpt lat="39.34099122745841" lon="9.440175852306409"><ele>168.0</ele><time>2026-04-04T07:21:05Z</time></trkpt><trkpt lat="39.34087760071551" lon="9.440029882782317"><ele>168.0</ele><time>2026-04-04T07:21:06Z</time></trkpt><trkpt lat="39.340775000190064" lon="9.439867107328404"><ele>168.0</ele><time>2026-04-04T07:21:07Z</time></trkpt><trkpt lat="39.34067938375712" lon="9.439703843129715"><ele>169.0</ele><time>2026-04-04T07:21:08Z</time></trkpt><trkpt lat="39.34058644504257" lon="9.439554238206272"><ele>170.0</ele><time>2026-04-04T07:21:09Z</time></trkpt><trkpt lat="39.340476826376836" lon="9.439456029658993"><ele>171.0</ele><time>2026-04-04T07:21:10Z</time></trkpt><trkpt lat="39.34036774234343" lon="9.439392248654707"><ele>172.0</ele><time>2026-04-04T07:21:11Z</time></trkpt><trkpt lat="39.3402373775236" lon="9.43944574398643"><ele>172.0</ele><time>2026-04-04T07:21:12Z</time></trkpt><trkpt lat="39.34009760487387" lon="9.439502380356982"><ele>172.0</ele><time>2026-04-04T07:21:13Z</time></trkpt><trkpt lat="39.339956017099894" lon="9.439597293986463"><ele>172.0</ele><time>2026-04-04T07:21:14Z</time></trkpt><trkpt lat="39.33979802137062" lon="9.439653330888937"><ele>169.66666666666669</ele><time>2026-04-04T07:21:15Z</time></trkpt><trkpt lat="39.339645494791036" lon="9.439721232043453"><ele>167.33333333333334</ele><time>2026-04-04T07:21:16Z</time></trkpt><trkpt lat="39.339492032584836" lon="9.439785870413509"><ele>165.0</ele><time>2026-04-04T07:21:17Z</time></trkpt><trkpt lat="39.33932644878243" lon="9.43979912428466"><ele>165.0</ele><time>2026-04-04T07:21:18Z</time></trkpt><trkpt lat="39.33915892884491" lon="9.439792414753471"><ele>165.0</ele><time>2026-04-04T07:21:19Z</time></trkpt><trkpt lat="39.33898913566235" lon="9.43977221949209"><ele>165.0</ele><time>2026-04-04T07:21:20Z</time></trkpt><trkpt lat="39.33882368925256" lon="9.439722242916943"><ele>164.66666666666666</ele><time>2026-04-04T07:21:21Z</time></trkpt><trkpt lat="39.33866116504712" lon="9.439637216593145"><ele>164.33333333333331</ele><time>2026-04-04T07:21:22Z</time></trkpt><trkpt lat="39.338502542171454" lon="9.439529597205587"><ele>164.0</ele><time>2026-04-04T07:21:23Z</time></trkpt><trkpt lat="39.33835838988554" lon="9.439401026178748"><ele>169.33333333333331</ele><time>2026-04-04T07:21:24Z</time></trkpt><trkpt lat="39.33822494365207" lon="9.43926081668108"><ele>174.66666666666666</ele><time>2026-04-04T07:21:25Z</time></trkpt><trkpt lat="39.33808850899577" lon="9.439136552974608"><ele>180.0</ele><time>2026-04-04T07:21:26Z</time></trkpt><trkpt lat="39.33792670415976" lon="9.43906253782314"><ele>180.0</ele><time>2026-04-04T07:21:27Z</time></trkpt><trkpt lat="39.33774215144095" lon="9.439035262769012"><ele>180.0</ele><time>2026-04-04T07:21:28Z</time></trkpt><trkpt lat="39.337553756941304" lon="9.439010344510915"><ele>180.0</ele><time>2026-04-04T07:21:29Z</time></trkpt><trkpt lat="39.33736895854927" lon="9.43897212248566"><ele>178.0</ele><time>2026-04-04T07:21:30Z</time></trkpt><trkpt lat="39.33718098756373" lon="9.438922610891183"><ele>176.0</ele><time>2026-04-04T07:21:31Z</time></trkpt><trkpt lat="39.33699362165037" lon="9.438878107041601"><ele>174.0</ele><time>2026-04-04T07:21:32Z</time></trkpt><trkpt lat="39.33680305237535" lon="9.438850412879983"><ele>174.0</ele><time>2026-04-04T07:21:33Z</time></trkpt><trkpt lat="39.33661734014166" lon="9.4388470697309"><ele>174.0</ele><time>2026-04-04T07:21:34Z</time></trkpt><trkpt lat="39.33643232342417" lon="9.438853324548802"><ele>174.0</ele><time>2026-04-04T07:21:35Z</time></trkpt><trkpt lat="39.33624649997462" lon="9.438863968513141"><ele>174.33333333333334</ele><time>2026-04-04T07:21:36Z</time></trkpt><trkpt lat="39.33606692107339" lon="9.43888670553965"><ele>174.66666666666669</ele><time>2026-04-04T07:21:37Z</time></trkpt><trkpt lat="39.33589152871314" lon="9.438920172746942"><ele>175.0</ele><time>2026-04-04T07:21:38Z</time></trkpt><trkpt lat="39.3357330156893" lon="9.438952184697293"><ele>175.0</ele><time>2026-04-04T07:21:39Z</time></trkpt><trkpt lat="39.3355907689191" lon="9.438960713869404"><ele>175.0</ele><time>2026-04-04T07:21:40Z</time></trkpt><trkpt lat="39.33544805905271" lon="9.438925689512464"><ele>175.0</ele><time>2026-04-04T07:21:41Z</time></trkpt><trkpt lat="39.335298683522794" lon="9.438874434262802"><ele>175.0</ele><time>2026-04-04T07:21:42Z</time></trkpt><trkpt lat="39.3351421867453" lon="9.438860007167872"><ele>174.75</ele><time>2026-04-04T07:21:43Z</time></trkpt><trkpt lat="39.3349905236558" lon="9.43888125194443"><ele>174.5</ele><time>2026-04-04T07:21:44Z</time></trkpt><trkpt lat="39.334852813018315" lon="9.438904706817892"><ele>174.25</ele><time>2026-04-04T07:21:45Z</time></trkpt><trkpt lat="39.33472753940872" lon="9.438894888206962"><ele>174.0</ele><time>2026-04-04T07:21:46Z</time></trkpt><trkpt lat="39.334625181454264" lon="9.438831093666142"><ele>177.0</ele><time>2026-04-04T07:21:47Z</time></trkpt><trkpt lat="39.33455980095639" lon="9.438720121760605"><ele>180.0</ele><time>2026-04-04T07:21:48Z</time></trkpt><trkpt lat="39.33454877270895" lon="9.438567450954572"><ele>183.0</ele><time>2026-04-04T07:21:49Z</time></trkpt><trkpt lat="39.33455215039486" lon="9.438383070044363"><ele>186.0</ele><time>2026-04-04T07:21:50Z</time></trkpt><trkpt lat="39.334549761549525" lon="9.43818299476613"><ele>186.0</ele><time>2026-04-04T07:21:51Z</time></trkpt><trkpt lat="39.33453212928287" lon="9.437985626039406"><ele>186.0</ele><time>2026-04-04T07:21:52Z</time></trkpt><trkpt lat="39.334504536446616" lon="9.437790685365293"><ele>186.0</ele><time>2026-04-04T07:21:53Z</time></trkpt><trkpt lat="39.33445491430996" lon="9.43759751282632"><ele>190.0</ele><time>2026-04-04T07:21:54Z</time></trkpt><trkpt lat="39.334368273721424" lon="9.43740980243888"><ele>194.0</ele><time>2026-04-04T07:21:55Z</time></trkpt><trkpt lat="39.33425714147801" lon="9.437238130973258"><ele>198.0</ele><time>2026-04-04T07:21:56Z</time></trkpt><trkpt lat="39.334140601208624" lon="9.437063559354012"><ele>196.33333333333331</ele><time>2026-04-04T07:21:57Z</time></trkpt><trkpt lat="39.33402359702441" lon="9.436891562734939"><ele>194.66666666666666</ele><time>2026-04-04T07:21:58Z</time></trkpt><trkpt lat="39.33390861594874" lon="9.436722436526846"><ele>193.0</ele><time>2026-04-04T07:21:59Z</time></trkpt><trkpt lat="39.33380827142893" lon="9.436547082428323"><ele>193.0</ele><time>2026-04-04T07:22:00Z</time></trkpt><trkpt lat="39.33373833113186" lon="9.436352667491086"><ele>193.0</ele><time>2026-04-04T07:22:01Z</time></trkpt><trkpt lat="39.33371394567797" lon="9.436139449637329"><ele>193.0</ele><time>2026-04-04T07:22:02Z</time></trkpt><trkpt lat="39.33371790124996" lon="9.435918023540694"><ele>196.33333333333331</ele><time>2026-04-04T07:22:03Z</time></trkpt><trkpt lat="39.3337542350838" lon="9.435709303414916"><ele>199.66666666666669</ele><time>2026-04-04T07:22:04Z</time></trkpt><trkpt lat="39.33381834073362" lon="9.4355118909678"><ele>203.0</ele><time>2026-04-04T07:22:05Z</time></trkpt><trkpt lat="39.33390077824862" lon="9.435318834385843"><ele>205.25</ele><time>2026-04-04T07:22:06Z</time></trkpt><trkpt lat="39.333958421182345" lon="9.435136746347276"><ele>207.5</ele><time>2026-04-04T07:22:07Z</time></trkpt><trkpt lat="39.33397644028774" lon="9.43495458440176"><ele>209.75</ele><time>2026-04-04T07:22:08Z</time></trkpt><trkpt lat="39.333943578791526" lon="9.43476809400661"><ele>212.0</ele><time>2026-04-04T07:22:09Z</time></trkpt><trkpt lat="39.333869299626855" lon="9.434585677195695"><ele>212.0</ele><time>2026-04-04T07:22:10Z</time></trkpt><trkpt lat="39.33375208710976" lon="9.43441526780184"><ele>212.0</ele><time>2026-04-04T07:22:11Z</time></trkpt><trkpt lat="39.33362448491641" lon="9.434251759688664"><ele>212.0</ele><time>2026-04-04T07:22:12Z</time></trkpt><trkpt lat="39.3334929030772" lon="9.434102096922496"><ele>212.0</ele><time>2026-04-04T07:22:13Z</time></trkpt><trkpt lat="39.33336881823783" lon="9.433955515330252"><ele>212.0</ele><time>2026-04-04T07:22:14Z</time></trkpt><trkpt lat="39.333264534532574" lon="9.43378531421045"><ele>212.0</ele><time>2026-04-04T07:22:15Z</time></trkpt><trkpt lat="39.33319939730245" lon="9.433584517317358"><ele>210.0</ele><time>2026-04-04T07:22:16Z</time></trkpt><trkpt lat="39.33313977006392" lon="9.433375424690887"><ele>208.0</ele><time>2026-04-04T07:22:17Z</time></trkpt><trkpt lat="39.333055111563105" lon="9.433195591518878"><ele>206.0</ele><time>2026-04-04T07:22:18Z</time></trkpt><trkpt lat="39.33293326529252" lon="9.433049764263282"><ele>208.75</ele><time>2026-04-04T07:22:19Z</time></trkpt><trkpt lat="39.33281385188465" lon="9.432908080474347"><ele>211.5</ele><time>2026-04-04T07:22:20Z</time></trkpt><trkpt lat="39.33270970006127" lon="9.432772453606258"><ele>214.25</ele><time>2026-04-04T07:22:21Z</time></trkpt><trkpt lat="39.332619026934374" lon="9.432640799951258"><ele>217.0</ele><time>2026-04-04T07:22:22Z</time></trkpt><trkpt lat="39.33254470542081" lon="9.432506782195833"><ele>217.0</ele><time>2026-04-04T07:22:23Z</time></trkpt><trkpt lat="39.332505223539826" lon="9.432355861012296"><ele>217.0</ele><time>2026-04-04T07:22:24Z</time></trkpt><trkpt lat="39.3325165983094" lon="9.432192742378117"><ele>217.0</ele><time>2026-04-04T07:22:25Z</time></trkpt><trkpt lat="39.332563614835486" lon="9.43202237099388"><ele>217.0</ele><time>2026-04-04T07:22:26Z</time></trkpt><trkpt lat="39.33262568048792" lon="9.431833471883733"><ele>217.0</ele><time>2026-04-04T07:22:27Z</time></trkpt><trkpt lat="39.33265448650797" lon="9.431629856218919"><ele>217.0</ele><time>2026-04-04T07:22:28Z</time></trkpt><trkpt lat="39.332630007248035" lon="9.431410081133947"><ele>217.0</ele><time>2026-04-04T07:22:29Z</time></trkpt><trkpt lat="39.3326159208115" lon="9.431204677404683"><ele>216.0</ele><time>2026-04-04T07:22:30Z</time></trkpt><trkpt lat="39.332634350900996" lon="9.430989318857286"><ele>215.0</ele><time>2026-04-04T07:22:31Z</time></trkpt><trkpt lat="39.33267266603248" lon="9.43078984167442"><ele>214.0</ele><time>2026-04-04T07:22:32Z</time></trkpt><trkpt lat="39.332732232454006" lon="9.430603965488665"><ele>212.0</ele><time>2026-04-04T07:22:33Z</time></trkpt><trkpt lat="39.33281260300963" lon="9.430426062818077"><ele>210.0</ele><time>2026-04-04T07:22:34Z</time></trkpt><trkpt lat="39.33288262909769" lon="9.430229867358973"><ele>208.0</ele><time>2026-04-04T07:22:35Z</time></trkpt><trkpt lat="39.3329194429922" lon="9.430021867959587"><ele>208.0</ele><time>2026-04-04T07:22:36Z</time></trkpt><trkpt lat="39.33293288487151" lon="9.429812237542091"><ele>208.0</ele><time>2026-04-04T07:22:37Z</time></trkpt><trkpt lat="39.33292460134897" lon="9.429615302730198"><ele>208.0</ele><time>2026-04-04T07:22:38Z</time></trkpt><trkpt lat="39.33287258232317" lon="9.429430593323442"><ele>209.75</ele><time>2026-04-04T07:22:39Z</time></trkpt><trkpt lat="39.332783516370206" lon="9.4292861238606"><ele>211.5</ele><time>2026-04-04T07:22:40Z</time></trkpt><trkpt lat="39.332664034566065" lon="9.429186521145889"><ele>213.25</ele><time>2026-04-04T07:22:41Z</time></trkpt><trkpt lat="39.33251746844342" lon="9.429135637636108"><ele>215.0</ele><time>2026-04-04T07:22:42Z</time></trkpt><trkpt lat="39.33234900146566" lon="9.429125881317217"><ele>215.33333333333334</ele><time>2026-04-04T07:22:43Z</time></trkpt><trkpt lat="39.33217698365961" lon="9.429123779807163"><ele>215.66666666666669</ele><time>2026-04-04T07:22:44Z</time></trkpt><trkpt lat="39.33199903933994" lon="9.429109304569822"><ele>216.0</ele><time>2026-04-04T07:22:45Z</time></trkpt><trkpt lat="39.33181971415409" lon="9.429081468732157"><ele>216.0</ele><time>2026-04-04T07:22:46Z</time></trkpt><trkpt lat="39.33163447111465" lon="9.429051665087325"><ele>216.0</ele><time>2026-04-04T07:22:47Z</time></trkpt><trkpt lat="39.331446508125175" lon="9.429024168783297"><ele>216.0</ele><time>2026-04-04T07:22:48Z</time></trkpt><trkpt lat="39.331258492296115" lon="9.428998648084358"><ele>215.66666666666669</ele><time>2026-04-04T07:22:49Z</time></trkpt><trkpt lat="39.33106981815929" lon="9.428973849366782"><ele>215.33333333333334</ele><time>2026-04-04T07:22:50Z</time></trkpt><trkpt lat="39.33088206930061" lon="9.428953044873229"><ele>215.0</ele><time>2026-04-04T07:22:51Z</time></trkpt><trkpt lat="39.33070445830197" lon="9.42893324931954"><ele>216.66666666666669</ele><time>2026-04-04T07:22:52Z</time></trkpt><trkpt lat="39.330537004337906" lon="9.428892728701733"><ele>218.33333333333331</ele><time>2026-04-04T07:22:53Z</time></trkpt><trkpt lat="39.33037544510562" lon="9.428811527721995"><ele>220.0</ele><time>2026-04-04T07:22:54Z</time></trkpt><trkpt lat="39.330215051442956" lon="9.428690726133727"><ele>220.33333333333331</ele><time>2026-04-04T07:22:55Z</time></trkpt><trkpt lat="39.33005650447988" lon="9.428549243553586"><ele>220.66666666666669</ele><time>2026-04-04T07:22:56Z</time></trkpt><trkpt lat="39.32989472580779" lon="9.428406893243457"><ele>221.0</ele><time>2026-04-04T07:22:57Z</time></trkpt><trkpt lat="39.32972993530994" lon="9.428266554712689"><ele>221.66666666666669</ele><time>2026-04-04T07:22:58Z</time></trkpt><trkpt lat="39.3295605516072" lon="9.428130111291653"><ele>222.33333333333331</ele><time>2026-04-04T07:22:59Z</time></trkpt><trkpt lat="39.329391970674244" lon="9.427993022023042"><ele>223.0</ele><time>2026-04-04T07:23:00Z</time></trkpt><trkpt lat="39.3292236163646" lon="9.427863932547375"><ele>223.33333333333331</ele><time>2026-04-04T07:23:01Z</time></trkpt><trkpt lat="39.329053349036535" lon="9.427756579501997"><ele>223.66666666666669</ele><time>2026-04-04T07:23:02Z</time></trkpt><trkpt lat="39.32888398915556" lon="9.427667445300802"><ele>224.0</ele><time>2026-04-04T07:23:03Z</time></trkpt><trkpt lat="39.32871893722678" lon="9.427575397678739"><ele>224.0</ele><time>2026-04-04T07:23:04Z</time></trkpt><trkpt lat="39.32856618297268" lon="9.427472393646106"><ele>224.0</ele><time>2026-04-04T07:23:05Z</time></trkpt><trkpt lat="39.32843197060723" lon="9.427358901998176"><ele>224.0</ele><time>2026-04-04T07:23:06Z</time></trkpt><trkpt lat="39.3283264457694" lon="9.427223087407485"><ele>229.66666666666669</ele><time>2026-04-04T07:23:07Z</time></trkpt><trkpt lat="39.32825489279071" lon="9.427051098289603"><ele>235.33333333333331</ele><time>2026-04-04T07:23:08Z</time></trkpt><trkpt lat="39.32820544654945" lon="9.42685139187448"><ele>241.0</ele><time>2026-04-04T07:23:09Z</time></trkpt><trkpt lat="39.32815009657446" lon="9.426658262767694"><ele>241.0</ele><time>2026-04-04T07:23:10Z</time></trkpt><trkpt lat="39.3280611002186" lon="9.4265045054173"><ele>241.0</ele><time>2026-04-04T07:23:11Z</time></trkpt><trkpt lat="39.32792843931673" lon="9.426400206036494"><ele>241.0</ele><time>2026-04-04T07:23:12Z</time></trkpt><trkpt lat="39.32776381368233" lon="9.426350890205534"><ele>237.0</ele><time>2026-04-04T07:23:13Z</time></trkpt><trkpt lat="39.3275864055294" lon="9.42632316266063"><ele>233.0</ele><time>2026-04-04T07:23:14Z</time></trkpt><trkpt lat="39.327413647727944" lon="9.426282154748197"><ele>229.0</ele><time>2026-04-04T07:23:15Z</time></trkpt><trkpt lat="39.32725772627778" lon="9.426213199787652"><ele>236.66666666666666</ele><time>2026-04-04T07:23:16Z</time></trkpt><trkpt lat="39.32711189119563" lon="9.42612785262641"><ele>244.33333333333331</ele><time>2026-04-04T07:23:17Z</time></trkpt><trkpt lat="39.326967712135044" lon="9.426064992905618"><ele>252.0</ele><time>2026-04-04T07:23:18Z</time></trkpt><trkpt lat="39.326821379628356" lon="9.426053387145828"><ele>252.0</ele><time>2026-04-04T07:23:19Z</time></trkpt><trkpt lat="39.32668118875152" lon="9.426099879215128"><ele>252.0</ele><time>2026-04-04T07:23:20Z</time></trkpt><trkpt lat="39.326556818381086" lon="9.426196367689048"><ele>252.0</ele><time>2026-04-04T07:23:21Z</time></trkpt><trkpt lat="39.32645132350506" lon="9.426285642551338"><ele>252.0</ele><time>2026-04-04T07:23:22Z</time></trkpt><trkpt lat="39.32634127738291" lon="9.42628328083528"><ele>248.5</ele><time>2026-04-04T07:23:23Z</time></trkpt><trkpt lat="39.32623739543691" lon="9.426212984327208"><ele>245.0</ele><time>2026-04-04T07:23:24Z</time></trkpt><trkpt lat="39.32616498054965" lon="9.426101245978556"><ele>241.5</ele><time>2026-04-04T07:23:25Z</time></trkpt><trkpt lat="39.32612818218285" lon="9.425941326533737"><ele>238.0</ele><time>2026-04-04T07:23:26Z</time></trkpt><trkpt lat="39.32612815147022" lon="9.425763034363165"><ele>238.0</ele><time>2026-04-04T07:23:27Z</time></trkpt><trkpt lat="39.32614128844544" lon="9.425569993231912"><ele>238.0</ele><time>2026-04-04T07:23:28Z</time></trkpt><trkpt lat="39.32615250954761" lon="9.425361666875686"><ele>238.0</ele><time>2026-04-04T07:23:29Z</time></trkpt><trkpt lat="39.326157041935076" lon="9.425139871100097"><ele>239.33333333333331</ele><time>2026-04-04T07:23:30Z</time></trkpt><trkpt lat="39.326157569021" lon="9.424929505781552"><ele>240.66666666666669</ele><time>2026-04-04T07:23:31Z</time></trkpt><trkpt lat="39.326148744224994" lon="9.42470996405767"><ele>242.0</ele><time>2026-04-04T07:23:32Z</time></trkpt><trkpt lat="39.326126494994746" lon="9.424491945777312"><ele>244.0</ele><time>2026-04-04T07:23:33Z</time></trkpt><trkpt lat="39.32608200448391" lon="9.424285797345659"><ele>246.0</ele><time>2026-04-04T07:23:34Z</time></trkpt><trkpt lat="39.3260074327547" lon="9.42411281515789"><ele>248.0</ele><time>2026-04-04T07:23:35Z</time></trkpt><trkpt lat="39.32590861333163" lon="9.423970014383292"><ele>248.0</ele><time>2026-04-04T07:23:36Z</time></trkpt><trkpt lat="39.32582703273265" lon="9.42381911695744"><ele>248.0</ele><time>2026-04-04T07:23:37Z</time></trkpt><trkpt lat="39.32577417082763" lon="9.423666853202937"><ele>248.0</ele><time>2026-04-04T07:23:38Z</time></trkpt><trkpt lat="39.32576018410131" lon="9.423497541709219"><ele>248.0</ele><time>2026-04-04T07:23:39Z</time></trkpt><trkpt lat="39.325801139986346" lon="9.423332064200318"><ele>252.33333333333334</ele><time>2026-04-04T07:23:40Z</time></trkpt><trkpt lat="39.325895996493465" lon="9.423189125797489"><ele>256.6666666666667</ele><time>2026-04-04T07:23:41Z</time></trkpt><trkpt lat="39.326028019558464" lon="9.423072870950229"><ele>261.0</ele><time>2026-04-04T07:23:42Z</time></trkpt><trkpt lat="39.32616980633633" lon="9.42295794136323"><ele>258.3333333333333</ele><time>2026-04-04T07:23:43Z</time></trkpt><trkpt lat="39.32631888945549" lon="9.422832485289403"><ele>255.66666666666666</ele><time>2026-04-04T07:23:44Z</time></trkpt><trkpt lat="39.32646621756298" lon="9.422703703164789"><ele>253.0</ele><time>2026-04-04T07:23:45Z</time></trkpt><trkpt lat="39.326614059840786" lon="9.42258474758884"><ele>253.0</ele><time>2026-04-04T07:23:46Z</time></trkpt><trkpt lat="39.326763250371236" lon="9.422479260336033"><ele>253.0</ele><time>2026-04-04T07:23:47Z</time></trkpt><trkpt lat="39.3269139481651" lon="9.42237656417844"><ele>253.0</ele><time>2026-04-04T07:23:48Z</time></trkpt><trkpt lat="39.32705181074626" lon="9.422265008905827"><ele>253.0</ele><time>2026-04-04T07:23:49Z</time></trkpt><trkpt lat="39.327170322141136" lon="9.422149328364775"><ele>253.0</ele><time>2026-04-04T07:23:50Z</time></trkpt><trkpt lat="39.32726776819095" lon="9.422026059599048"><ele>253.0</ele><time>2026-04-04T07:23:51Z</time></trkpt><trkpt lat="39.32732583692534" lon="9.421887625870431"><ele>253.0</ele><time>2026-04-04T07:23:52Z</time></trkpt><trkpt lat="39.32732908538089" lon="9.421745301140756"><ele>251.0</ele><time>2026-04-04T07:23:53Z</time></trkpt><trkpt lat="39.32726775292698" lon="9.421610457310447"><ele>249.0</ele><time>2026-04-04T07:23:54Z</time></trkpt><trkpt lat="39.3271748633856" lon="9.421483567149338"><ele>247.0</ele><time>2026-04-04T07:23:55Z</time></trkpt><trkpt lat="39.327049827744204" lon="9.421366627032382"><ele>245.0</ele><time>2026-04-04T07:23:56Z</time></trkpt><trkpt lat="39.32692186322599" lon="9.42123855707021"><ele>250.66666666666669</ele><time>2026-04-04T07:23:57Z</time></trkpt><trkpt lat="39.32679087724014" lon="9.421100005128277"><ele>256.3333333333333</ele><time>2026-04-04T07:23:58Z</time></trkpt><trkpt lat="39.32667835821486" lon="9.420964647520753"><ele>262.0</ele><time>2026-04-04T07:23:59Z</time></trkpt><trkpt lat="39.32659753644202" lon="9.42080451836497"><ele>262.0</ele><time>2026-04-04T07:24:00Z</time></trkpt><trkpt lat="39.32654046629742" lon="9.420620916941457"><ele>262.0</ele><time>2026-04-04T07:24:01Z</time></trkpt><trkpt lat="39.326483669366695" lon="9.420423493459689"><ele>262.0</ele><time>2026-04-04T07:24:02Z</time></trkpt><trkpt lat="39.326424229533856" lon="9.420229771101022"><ele>262.66666666666663</ele><time>2026-04-04T07:24:03Z</time></trkpt><trkpt lat="39.32638425715468" lon="9.42003368649713"><ele>263.3333333333333</ele><time>2026-04-04T07:24:04Z</time></trkpt><trkpt lat="39.326382658299806" lon="9.419830255994967"><ele>264.0</ele><time>2026-04-04T07:24:05Z</time></trkpt><trkpt lat="39.32641232539683" lon="9.419628359242845"><ele>264.0</ele><time>2026-04-04T07:24:06Z</time></trkpt><trkpt lat="39.326480540554265" lon="9.41943842168512"><ele>264.0</ele><time>2026-04-04T07:24:07Z</time></trkpt><trkpt lat="39.32657976677728" lon="9.419263513457917"><ele>264.0</ele><time>2026-04-04T07:24:08Z</time></trkpt><trkpt lat="39.326692046922524" lon="9.419098599187505"><ele>264.0</ele><time>2026-04-04T07:24:09Z</time></trkpt><trkpt lat="39.32680614841883" lon="9.418937359746545"><ele>264.0</ele><time>2026-04-04T07:24:10Z</time></trkpt><trkpt lat="39.32692455085756" lon="9.418766991171717"><ele>264.0</ele><time>2026-04-04T07:24:11Z</time></trkpt><trkpt lat="39.327044149416054" lon="9.418593219869873"><ele>262.0</ele><time>2026-04-04T07:24:12Z</time></trkpt><trkpt lat="39.32716327746575" lon="9.418419245294148"><ele>260.0</ele><time>2026-04-04T07:24:13Z</time></trkpt><trkpt lat="39.32727673787171" lon="9.418252363421244"><ele>258.0</ele><time>2026-04-04T07:24:14Z</time></trkpt><trkpt lat="39.3273700719885" lon="9.418085208623868"><ele>258.3333333333333</ele><time>2026-04-04T07:24:15Z</time></trkpt><trkpt lat="39.32742481180718" lon="9.41789499416964"><ele>258.66666666666663</ele><time>2026-04-04T07:24:16Z</time></trkpt><trkpt lat="39.32744971321719" lon="9.417687953695776"><ele>259.0</ele><time>2026-04-04T07:24:17Z</time></trkpt><trkpt lat="39.32745026221553" lon="9.417501755854234"><ele>259.0</ele><time>2026-04-04T07:24:18Z</time></trkpt><trkpt lat="39.32739469492703" lon="9.417348470636588"><ele>259.0</ele><time>2026-04-04T07:24:19Z</time></trkpt><trkpt lat="39.32729467086883" lon="9.41726731000733"><ele>259.0</ele><time>2026-04-04T07:24:20Z</time></trkpt><trkpt lat="39.32717517286898" lon="9.417241489474566"><ele>259.0</ele><time>2026-04-04T07:24:21Z</time></trkpt><trkpt lat="39.32703620027116" lon="9.417246115211661"><ele>265.0</ele><time>2026-04-04T07:24:22Z</time></trkpt><trkpt lat="39.32688663862424" lon="9.417261971112874"><ele>271.0</ele><time>2026-04-04T07:24:23Z</time></trkpt><trkpt lat="39.326733283907764" lon="9.417270338999035"><ele>277.0</ele><time>2026-04-04T07:24:24Z</time></trkpt><trkpt lat="39.32658502604184" lon="9.417262520094697"><ele>277.0</ele><time>2026-04-04T07:24:25Z</time></trkpt><trkpt lat="39.326451900943916" lon="9.417229894228708"><ele>277.0</ele><time>2026-04-04T07:24:26Z</time></trkpt><trkpt lat="39.32633734009038" lon="9.417142234150035"><ele>277.0</ele><time>2026-04-04T07:24:27Z</time></trkpt><trkpt lat="39.3262359979854" lon="9.417012873673684"><ele>277.0</ele><time>2026-04-04T07:24:28Z</time></trkpt><trkpt lat="39.326136215238535" lon="9.416866192973535"><ele>279.3333333333333</ele><time>2026-04-04T07:24:29Z</time></trkpt><trkpt lat="39.3260246634212" lon="9.416722385196358"><ele>281.6666666666667</ele><time>2026-04-04T07:24:30Z</time></trkpt><trkpt lat="39.32590842363647" lon="9.416577824547074"><ele>284.0</ele><time>2026-04-04T07:24:31Z</time></trkpt><trkpt lat="39.325795010976755" lon="9.416434231870712"><ele>280.33333333333337</ele><time>2026-04-04T07:24:32Z</time></trkpt><trkpt lat="39.32569186373593" lon="9.416297219690708"><ele>276.6666666666667</ele><time>2026-04-04T07:24:33Z</time></trkpt><trkpt lat="39.325592892518245" lon="9.416147405487067"><ele>273.0</ele><time>2026-04-04T07:24:34Z</time></trkpt><trkpt lat="39.3255154973953" lon="9.415974123503021"><ele>280.5</ele><time>2026-04-04T07:24:35Z</time></trkpt><trkpt lat="39.32545363740904" lon="9.415791148528363"><ele>288.0</ele><time>2026-04-04T07:24:36Z</time></trkpt><trkpt lat="39.325392545963396" lon="9.415623262484992"><ele>295.5</ele><time>2026-04-04T07:24:37Z</time></trkpt><trkpt lat="39.32533889702765" lon="9.415462914269083"><ele>303.0</ele><time>2026-04-04T07:24:38Z</time></trkpt><trkpt lat="39.32531307581118" lon="9.415301908355966"><ele>303.0</ele><time>2026-04-04T07:24:39Z</time></trkpt><trkpt lat="39.32533181216473" lon="9.41514441184346"><ele>303.0</ele><time>2026-04-04T07:24:40Z</time></trkpt><trkpt lat="39.32539603019303" lon="9.41502152656884"><ele>303.0</ele><time>2026-04-04T07:24:41Z</time></trkpt><trkpt lat="39.32544035312654" lon="9.414883783604614"><ele>303.0</ele><time>2026-04-04T07:24:42Z</time></trkpt><trkpt lat="39.32542415922411" lon="9.414734033564905"><ele>301.25</ele><time>2026-04-04T07:24:43Z</time></trkpt><trkpt lat="39.32536114399005" lon="9.414589409875903"><ele>299.5</ele><time>2026-04-04T07:24:44Z</time></trkpt><trkpt lat="39.32525409299058" lon="9.414468107124783"><ele>297.75</ele><time>2026-04-04T07:24:45Z</time></trkpt><trkpt lat="39.32514659131494" lon="9.414348401230242"><ele>296.0</ele><time>2026-04-04T07:24:46Z</time></trkpt><trkpt lat="39.32506203840548" lon="9.414204083282847"><ele>296.0</ele><time>2026-04-04T07:24:47Z</time></trkpt><trkpt lat="39.325017094194486" lon="9.414028092262066"><ele>296.0</ele><time>2026-04-04T07:24:48Z</time></trkpt><trkpt lat="39.325005078579565" lon="9.413846288500153"><ele>296.0</ele><time>2026-04-04T07:24:49Z</time></trkpt><trkpt lat="39.32501329943575" lon="9.413654655923105"><ele>296.0</ele><time>2026-04-04T07:24:50Z</time></trkpt><trkpt lat="39.32499651278766" lon="9.413469349179886"><ele>296.0</ele><time>2026-04-04T07:24:51Z</time></trkpt><trkpt lat="39.32494967851965" lon="9.413292647457208"><ele>296.0</ele><time>2026-04-04T07:24:52Z</time></trkpt><trkpt lat="39.324881539252715" lon="9.4131384161285"><ele>296.0</ele><time>2026-04-04T07:24:53Z</time></trkpt><trkpt lat="39.32479744306982" lon="9.413019828039022"><ele>296.0</ele><time>2026-04-04T07:24:54Z</time></trkpt><trkpt lat="39.32472940321468" lon="9.412911110572946"><ele>296.0</ele><time>2026-04-04T07:24:55Z</time></trkpt><trkpt lat="39.324688053778424" lon="9.412797773163247"><ele>296.0</ele><time>2026-04-04T07:24:56Z</time></trkpt><trkpt lat="39.324686897629775" lon="9.41267214139656"><ele>296.0</ele><time>2026-04-04T07:24:57Z</time></trkpt><trkpt lat="39.32472746322784" lon="9.412555849785221"><ele>296.0</ele><time>2026-04-04T07:24:58Z</time></trkpt><trkpt lat="39.32480381584129" lon="9.41246757400291"><ele>296.0</ele><time>2026-04-04T07:24:59Z</time></trkpt><trkpt lat="39.32490907361141" lon="9.412403096302016"><ele>296.0</ele><time>2026-04-04T07:25:00Z</time></trkpt><trkpt lat="39.325033200514206" lon="9.412355857262657"><ele>296.0</ele><time>2026-04-04T07:25:01Z</time></trkpt><trkpt lat="39.32514933716318" lon="9.412320792909812"><ele>296.0</ele><time>2026-04-04T07:25:02Z</time></trkpt><trkpt lat="39.32524376148052" lon="9.412266301255237"><ele>296.0</ele><time>2026-04-04T07:25:03Z</time></trkpt><trkpt lat="39.32530885700104" lon="9.412174368327507"><ele>296.0</ele><time>2026-04-04T07:25:04Z</time></trkpt><trkpt lat="39.3253169484509" lon="9.41204664897077"><ele>297.75</ele><time>2026-04-04T07:25:05Z</time></trkpt><trkpt lat="39.3252828859644" lon="9.411912539150658"><ele>299.5</ele><time>2026-04-04T07:25:06Z</time></trkpt><trkpt lat="39.32519223416342" lon="9.411776973062956"><ele>301.25</ele><time>2026-04-04T07:25:07Z</time></trkpt><trkpt lat="39.32509109518042" lon="9.411647654024126"><ele>303.0</ele><time>2026-04-04T07:25:08Z</time></trkpt><trkpt lat="39.324985288631694" lon="9.411506881123247"><ele>303.0</ele><time>2026-04-04T07:25:09Z</time></trkpt><trkpt lat="39.32488978896123" lon="9.411348712269582"><ele>303.0</ele><time>2026-04-04T07:25:10Z</time></trkpt><trkpt lat="39.32481841935937" lon="9.411180732887985"><ele>303.0</ele><time>2026-04-04T07:25:11Z</time></trkpt><trkpt lat="39.324764429762695" lon="9.411021280611985"><ele>303.0</ele><time>2026-04-04T07:25:12Z</time></trkpt><trkpt lat="39.324685588221236" lon="9.41090010256312"><ele>307.0</ele><time>2026-04-04T07:25:13Z</time></trkpt><trkpt lat="39.32456725141641" lon="9.41082303249491"><ele>311.0</ele><time>2026-04-04T07:25:14Z</time></trkpt><trkpt lat="39.32442234092666" lon="9.41077066469513"><ele>315.0</ele><time>2026-04-04T07:25:15Z</time></trkpt><trkpt lat="39.32428825798085" lon="9.410719260037306"><ele>319.0</ele><time>2026-04-04T07:25:16Z</time></trkpt><trkpt lat="39.32415478428499" lon="9.41065463952467"><ele>319.0</ele><time>2026-04-04T07:25:17Z</time></trkpt><trkpt lat="39.324035162448375" lon="9.410567008982973"><ele>319.0</ele><time>2026-04-04T07:25:18Z</time></trkpt><trkpt lat="39.32395296766755" lon="9.410429936395996"><ele>319.0</ele><time>2026-04-04T07:25:19Z</time></trkpt><trkpt lat="39.323906651435635" lon="9.410253986305856"><ele>319.0</ele><time>2026-04-04T07:25:20Z</time></trkpt><trkpt lat="39.32387236143871" lon="9.410057973967588"><ele>327.75</ele><time>2026-04-04T07:25:21Z</time></trkpt><trkpt lat="39.32383635273225" lon="9.409865094906845"><ele>336.5</ele><time>2026-04-04T07:25:22Z</time></trkpt><trkpt lat="39.32379926994775" lon="9.409697718970143"><ele>345.25</ele><time>2026-04-04T07:25:23Z</time></trkpt><trkpt lat="39.32378032067806" lon="9.409530817301462"><ele>354.0</ele><time>2026-04-04T07:25:24Z</time></trkpt><trkpt lat="39.323805504686256" lon="9.409365415417831"><ele>354.6666666666667</ele><time>2026-04-04T07:25:25Z</time></trkpt><trkpt lat="39.32388357177194" lon="9.409203316713588"><ele>355.33333333333337</ele><time>2026-04-04T07:25:26Z</time></trkpt><trkpt lat="39.32397319070074" lon="9.40904445929292"><ele>356.0</ele><time>2026-04-04T07:25:27Z</time></trkpt><trkpt lat="39.32405579387303" lon="9.408872877102208"><ele>345.5</ele><time>2026-04-04T07:25:28Z</time></trkpt><trkpt lat="39.3241352547106" lon="9.408714503898679"><ele>335.0</ele><time>2026-04-04T07:25:29Z</time></trkpt><trkpt lat="39.32420115218559" lon="9.408571460224502"><ele>324.5</ele><time>2026-04-04T07:25:30Z</time></trkpt><trkpt lat="39.32423901087364" lon="9.40842435230869"><ele>314.0</ele><time>2026-04-04T07:25:31Z</time></trkpt><trkpt lat="39.324226176513626" lon="9.40828057053316"><ele>314.0</ele><time>2026-04-04T07:25:32Z</time></trkpt><trkpt lat="39.32417446049794" lon="9.408159926418795"><ele>314.0</ele><time>2026-04-04T07:25:33Z</time></trkpt><trkpt lat="39.324080959539195" lon="9.408096781025932"><ele>314.0</ele><time>2026-04-04T07:25:34Z</time></trkpt><trkpt lat="39.32399089650971" lon="9.408037660459945"><ele>314.0</ele><time>2026-04-04T07:25:35Z</time></trkpt><trkpt lat="39.323946456337616" lon="9.407933177101341"><ele>314.0</ele><time>2026-04-04T07:25:36Z</time></trkpt><trkpt lat="39.32395056365331" lon="9.407805545111637"><ele>318.0</ele><time>2026-04-04T07:25:37Z</time></trkpt><trkpt lat="39.32400709756427" lon="9.40768285214542"><ele>322.0</ele><time>2026-04-04T07:25:38Z</time></trkpt><trkpt lat="39.32409715201533" lon="9.407593406224628"><ele>326.0</ele><time>2026-04-04T07:25:39Z</time></trkpt><trkpt lat="39.32422980870394" lon="9.407534065161817"><ele>330.0</ele><time>2026-04-04T07:25:40Z</time></trkpt><trkpt lat="39.324342928682206" lon="9.407458870821326"><ele>330.0</ele><time>2026-04-04T07:25:41Z</time></trkpt><trkpt lat="39.32444045440708" lon="9.407343742183798"><ele>330.0</ele><time>2026-04-04T07:25:42Z</time></trkpt><trkpt lat="39.32450871140211" lon="9.407182422006414"><ele>330.0</ele><time>2026-04-04T07:25:43Z</time></trkpt><trkpt lat="39.32456792475408" lon="9.407001413168691"><ele>330.0</ele><time>2026-04-04T07:25:44Z</time></trkpt><trkpt lat="39.32464109574721" lon="9.406836514378025"><ele>325.5</ele><time>2026-04-04T07:25:45Z</time></trkpt><trkpt lat="39.3247276075718" lon="9.406676100101755"><ele>321.0</ele><time>2026-04-04T07:25:46Z</time></trkpt><trkpt lat="39.32481527319774" lon="9.406521018701707"><ele>316.5</ele><time>2026-04-04T07:25:47Z</time></trkpt><trkpt lat="39.32488747147014" lon="9.406373173000805"><ele>312.0</ele><time>2026-04-04T07:25:48Z</time></trkpt><trkpt lat="39.32493209902938" lon="9.40621828503454"><ele>312.0</ele><time>2026-04-04T07:25:49Z</time></trkpt><trkpt lat="39.32492060345659" lon="9.406060533914292"><ele>312.0</ele><time>2026-04-04T07:25:50Z</time></trkpt><trkpt lat="39.32485625843831" lon="9.405910597040853"><ele>312.0</ele><time>2026-04-04T07:25:51Z</time></trkpt><trkpt lat="39.32476023554918" lon="9.405784849847832"><ele>312.0</ele><time>2026-04-04T07:25:52Z</time></trkpt><trkpt lat="39.32464012397063" lon="9.405685222961461"><ele>318.75</ele><time>2026-04-04T07:25:53Z</time></trkpt><trkpt lat="39.324528233092074" lon="9.405581052862956"><ele>325.5</ele><time>2026-04-04T07:25:54Z</time></trkpt><trkpt lat="39.32443516399188" lon="9.405446872764019"><ele>332.25</ele><time>2026-04-04T07:25:55Z</time></trkpt><trkpt lat="39.32437255376987" lon="9.405280813661536"><ele>339.0</ele><time>2026-04-04T07:25:56Z</time></trkpt><trkpt lat="39.32434499300698" lon="9.405102591012989"><ele>339.0</ele><time>2026-04-04T07:25:57Z</time></trkpt><trkpt lat="39.32431856587859" lon="9.404941538308817"><ele>339.0</ele><time>2026-04-04T07:25:58Z</time></trkpt><trkpt lat="39.324243153467755" lon="9.404798405700022"><ele>339.0</ele><time>2026-04-04T07:25:59Z</time></trkpt><trkpt lat="39.32413993343599" lon="9.404673459484883"><ele>339.0</ele><time>2026-04-04T07:26:00Z</time></trkpt><trkpt lat="39.32403528297752" lon="9.404544280312276"><ele>336.25</ele><time>2026-04-04T07:26:01Z</time></trkpt><trkpt lat="39.32393759734623" lon="9.40441326522676"><ele>333.5</ele><time>2026-04-04T07:26:02Z</time></trkpt><trkpt lat="39.32384636488444" lon="9.40428849272381"><ele>330.75</ele><time>2026-04-04T07:26:03Z</time></trkpt><trkpt lat="39.323764655234974" lon="9.404171459247666"><ele>328.0</ele><time>2026-04-04T07:26:04Z</time></trkpt><trkpt lat="39.323710073257864" lon="9.404047797350419"><ele>330.2</ele><time>2026-04-04T07:26:05Z</time></trkpt><trkpt lat="39.32369276830082" lon="9.403911686425193"><ele>332.4</ele><time>2026-04-04T07:26:06Z</time></trkpt><trkpt lat="39.32370933862684" lon="9.403779384981773"><ele>334.59999999999997</ele><time>2026-04-04T07:26:07Z</time></trkpt><trkpt lat="39.32376520268896" lon="9.403661702040912"><ele>336.79999999999995</ele><time>2026-04-04T07:26:08Z</time></trkpt><trkpt lat="39.32386027064182" lon="9.403566295178459"><ele>339.0</ele><time>2026-04-04T07:26:09Z</time></trkpt><trkpt lat="39.323987204082435" lon="9.403483222094868"><ele>339.0</ele><time>2026-04-04T07:26:10Z</time></trkpt><trkpt lat="39.32410322093081" lon="9.40338602634913"><ele>339.0</ele><time>2026-04-04T07:26:11Z</time></trkpt><trkpt lat="39.32420953486518" lon="9.40327749550598"><ele>339.0</ele><time>2026-04-04T07:26:12Z</time></trkpt><trkpt lat="39.32429227471513" lon="9.40313855148456"><ele>339.0</ele><time>2026-04-04T07:26:13Z</time></trkpt><trkpt lat="39.32433551429039" lon="9.40297408797928"><ele>346.5</ele><time>2026-04-04T07:26:14Z</time></trkpt><trkpt lat="39.32436559695063" lon="9.402818715470186"><ele>354.0</ele><time>2026-04-04T07:26:15Z</time></trkpt><trkpt lat="39.32443005224006" lon="9.402689585418054"><ele>361.5</ele><time>2026-04-04T07:26:16Z</time></trkpt><trkpt lat="39.32452965884573" lon="9.402603899882305"><ele>369.0</ele><time>2026-04-04T07:26:17Z</time></trkpt><trkpt lat="39.324653555252624" lon="9.402575188404096"><ele>362.5</ele><time>2026-04-04T07:26:18Z</time></trkpt><trkpt lat="39.32478087219188" lon="9.402564608753615"><ele>356.0</ele><time>2026-04-04T07:26:19Z</time></trkpt><trkpt lat="39.32491298757258" lon="9.402535079240659"><ele>349.5</ele><time>2026-04-04T07:26:20Z</time></trkpt><trkpt lat="39.32504297174107" lon="9.402474320734704"><ele>343.0</ele><time>2026-04-04T07:26:21Z</time></trkpt><trkpt lat="39.32515647375318" lon="9.402362504437312"><ele>343.0</ele><time>2026-04-04T07:26:22Z</time></trkpt><trkpt lat="39.32525442480937" lon="9.402216195677783"><ele>343.0</ele><time>2026-04-04T07:26:23Z</time></trkpt><trkpt lat="39.32534123592759" lon="9.402055745111532"><ele>343.0</ele><time>2026-04-04T07:26:24Z</time></trkpt><trkpt lat="39.325427383494514" lon="9.401898748811954"><ele>342.5</ele><time>2026-04-04T07:26:25Z</time></trkpt><trkpt lat="39.32551595647861" lon="9.401750885385626"><ele>342.0</ele><time>2026-04-04T07:26:26Z</time></trkpt><trkpt lat="39.325619815387476" lon="9.401626632561882"><ele>341.5</ele><time>2026-04-04T07:26:27Z</time></trkpt><trkpt lat="39.32574740059348" lon="9.401536091315077"><ele>341.0</ele><time>2026-04-04T07:26:28Z</time></trkpt><trkpt lat="39.32587028776921" lon="9.401456864372111"><ele>341.0</ele><time>2026-04-04T07:26:29Z</time></trkpt><trkpt lat="39.32597509442681" lon="9.401376323036477"><ele>341.0</ele><time>2026-04-04T07:26:30Z</time></trkpt><trkpt lat="39.32605002000531" lon="9.401276273126244"><ele>341.0</ele><time>2026-04-04T07:26:31Z</time></trkpt><trkpt lat="39.3260756121387" lon="9.401154059943115"><ele>341.0</ele><time>2026-04-04T07:26:32Z</time></trkpt><trkpt lat="39.32604676842741" lon="9.401034267935628"><ele>341.0</ele><time>2026-04-04T07:26:33Z</time></trkpt><trkpt lat="39.32596489914365" lon="9.400926054502957"><ele>343.6666666666667</ele><time>2026-04-04T07:26:34Z</time></trkpt><trkpt lat="39.325845217477045" lon="9.400815955877047"><ele>346.3333333333333</ele><time>2026-04-04T07:26:35Z</time></trkpt><trkpt lat="39.325723613125234" lon="9.4006945392588"><ele>349.0</ele><time>2026-04-04T07:26:36Z</time></trkpt><trkpt lat="39.32560339391993" lon="9.400562747347811"><ele>355.3333333333333</ele><time>2026-04-04T07:26:37Z</time></trkpt><trkpt lat="39.32548741510282" lon="9.400427957328247"><ele>361.6666666666667</ele><time>2026-04-04T07:26:38Z</time></trkpt><trkpt lat="39.325372042750686" lon="9.400284592857805"><ele>368.0</ele><time>2026-04-04T07:26:39Z</time></trkpt><trkpt lat="39.32526453449743" lon="9.400127604766404"><ele>368.0</ele><time>2026-04-04T07:26:40Z</time></trkpt><trkpt lat="39.32517252683425" lon="9.39995323166456"><ele>368.0</ele><time>2026-04-04T07:26:41Z</time></trkpt><trkpt lat="39.32510751375718" lon="9.39975823587038"><ele>368.0</ele><time>2026-04-04T07:26:42Z</time></trkpt><trkpt lat="39.325071801963375" lon="9.399550981326758"><ele>364.33333333333337</ele><time>2026-04-04T07:26:43Z</time></trkpt><trkpt lat="39.325037652379734" lon="9.399344330920579"><ele>360.6666666666667</ele><time>2026-04-04T07:26:44Z</time></trkpt><trkpt lat="39.32497069487144" lon="9.399151282978561"><ele>357.0</ele><time>2026-04-04T07:26:45Z</time></trkpt><trkpt lat="39.32489601472824" lon="9.398966494895282"><ele>356.6666666666667</ele><time>2026-04-04T07:26:46Z</time></trkpt><trkpt lat="39.324847382334404" lon="9.398774409007222"><ele>356.33333333333337</ele><time>2026-04-04T07:26:47Z</time></trkpt><trkpt lat="39.32483835283252" lon="9.398568213732343"><ele>356.0</ele><time>2026-04-04T07:26:48Z</time></trkpt><trkpt lat="39.32485498420501" lon="9.398359731341868"><ele>356.0</ele><time>2026-04-04T07:26:49Z</time></trkpt><trkpt lat="39.32487004632797" lon="9.398140750003668"><ele>356.0</ele><time>2026-04-04T07:26:50Z</time></trkpt><trkpt lat="39.32486323783467" lon="9.397918461719234"><ele>356.0</ele><time>2026-04-04T07:26:51Z</time></trkpt><trkpt lat="39.32483513573064" lon="9.39768959179273"><ele>354.33333333333337</ele><time>2026-04-04T07:26:52Z</time></trkpt><trkpt lat="39.32480125183846" lon="9.397463814240746"><ele>352.6666666666667</ele><time>2026-04-04T07:26:53Z</time></trkpt><trkpt lat="39.32476694592785" lon="9.397237715891368"><ele>351.0</ele><time>2026-04-04T07:26:54Z</time></trkpt><trkpt lat="39.324737448147175" lon="9.397029298716491"><ele>355.0</ele><time>2026-04-04T07:26:55Z</time></trkpt><trkpt lat="39.324683893938754" lon="9.396855784429698"><ele>359.0</ele><time>2026-04-04T07:26:56Z</time></trkpt><trkpt lat="39.32458228187096" lon="9.396724813344258"><ele>363.0</ele><time>2026-04-04T07:26:57Z</time></trkpt><trkpt lat="39.32444312403195" lon="9.396634116058223"><ele>367.0</ele><time>2026-04-04T07:26:58Z</time></trkpt><trkpt lat="39.32428944889335" lon="9.39655233359257"><ele>367.0</ele><time>2026-04-04T07:26:59Z</time></trkpt><trkpt lat="39.32414999001674" lon="9.39645372267162"><ele>367.0</ele><time>2026-04-04T07:27:00Z</time></trkpt><trkpt lat="39.324022907647525" lon="9.396311804856266"><ele>367.0</ele><time>2026-04-04T07:27:01Z</time></trkpt><trkpt lat="39.32391905177913" lon="9.396138559490671"><ele>366.66666666666663</ele><time>2026-04-04T07:27:02Z</time></trkpt><trkpt lat="39.32382896981726" lon="9.395965364298892"><ele>366.3333333333333</ele><time>2026-04-04T07:27:03Z</time></trkpt><trkpt lat="39.32371371385444" lon="9.395825798355231"><ele>366.0</ele><time>2026-04-04T07:27:04Z</time></trkpt><trkpt lat="39.32356567772655" lon="9.395738302052239"><ele>366.0</ele><time>2026-04-04T07:27:05Z</time></trkpt><trkpt lat="39.323404902483425" lon="9.39569831351155"><ele>366.0</ele><time>2026-04-04T07:27:06Z</time></trkpt><trkpt lat="39.3232445175229" lon="9.395726408455802"><ele>366.0</ele><time>2026-04-04T07:27:07Z</time></trkpt><trkpt lat="39.32308636363807" lon="9.395799381441522"><ele>360.3333333333333</ele><time>2026-04-04T07:27:08Z</time></trkpt><trkpt lat="39.32293132192524" lon="9.395899021541041"><ele>354.66666666666663</ele><time>2026-04-04T07:27:09Z</time></trkpt><trkpt lat="39.32278673427369" lon="9.395997723703395"><ele>349.0</ele><time>2026-04-04T07:27:10Z</time></trkpt><trkpt lat="39.32265997062529" lon="9.39613430930512"><ele>349.0</ele><time>2026-04-04T07:27:11Z</time></trkpt><trkpt lat="39.3225545220603" lon="9.396311614574719"><ele>349.0</ele><time>2026-04-04T07:27:12Z</time></trkpt><trkpt lat="39.32245587223518" lon="9.396494624505076"><ele>349.0</ele><time>2026-04-04T07:27:13Z</time></trkpt><trkpt lat="39.322352879438256" lon="9.396668927831788"><ele>348.0</ele><time>2026-04-04T07:27:14Z</time></trkpt><trkpt lat="39.32225027203988" lon="9.3968356589895"><ele>347.0</ele><time>2026-04-04T07:27:15Z</time></trkpt><trkpt lat="39.322154386214606" lon="9.396987007986542"><ele>346.0</ele><time>2026-04-04T07:27:16Z</time></trkpt><trkpt lat="39.322062789887994" lon="9.397129163670131"><ele>347.20000000000005</ele><time>2026-04-04T07:27:17Z</time></trkpt><trkpt lat="39.32198754080897" lon="9.397257468462728"><ele>348.40000000000003</ele><time>2026-04-04T07:27:18Z</time></trkpt><trkpt lat="39.3219538714606" lon="9.397386337492163"><ele>349.6</ele><time>2026-04-04T07:27:19Z</time></trkpt><trkpt lat="39.32196893670174" lon="9.397514420291577"><ele>350.8</ele><time>2026-04-04T07:27:20Z</time></trkpt><trkpt lat="39.322041998151185" lon="9.397630697519238"><ele>352.0</ele><time>2026-04-04T07:27:21Z</time></trkpt><trkpt lat="39.322136329664325" lon="9.397727101022463"><ele>356.25</ele><time>2026-04-04T07:27:22Z</time></trkpt><trkpt lat="39.32223343006349" lon="9.397827859804906"><ele>360.5</ele><time>2026-04-04T07:27:23Z</time></trkpt><trkpt lat="39.322325951106244" lon="9.397961247599268"><ele>364.75</ele><time>2026-04-04T07:27:24Z</time></trkpt><trkpt lat="39.32240297671382" lon="9.398128338591153"><ele>369.0</ele><time>2026-04-04T07:27:25Z</time></trkpt><trkpt lat="39.32248104115249" lon="9.39829420700724"><ele>369.0</ele><time>2026-04-04T07:27:26Z</time></trkpt><trkpt lat="39.32256669038768" lon="9.398466768596213"><ele>369.0</ele><time>2026-04-04T07:27:27Z</time></trkpt><trkpt lat="39.32265362422025" lon="9.398635531401272"><ele>369.0</ele><time>2026-04-04T07:27:28Z</time></trkpt><trkpt lat="39.322741608899335" lon="9.398798332818792"><ele>366.0</ele><time>2026-04-04T07:27:29Z</time></trkpt><trkpt lat="39.32283283387646" lon="9.398951778872004"><ele>363.0</ele><time>2026-04-04T07:27:30Z</time></trkpt><trkpt lat="39.322913504339716" lon="9.399105875032316"><ele>360.0</ele><time>2026-04-04T07:27:31Z</time></trkpt><trkpt lat="39.322953869341816" lon="9.399277582310221"><ele>357.0</ele><time>2026-04-04T07:27:32Z</time></trkpt><trkpt lat="39.322948217434" lon="9.399450119844955"><ele>357.0</ele><time>2026-04-04T07:27:33Z</time></trkpt><trkpt lat="39.32290412760703" lon="9.399616757141708"><ele>357.0</ele><time>2026-04-04T07:27:34Z</time></trkpt><trkpt lat="39.322821872413755" lon="9.399760787609404"><ele>357.0</ele><time>2026-04-04T07:27:35Z</time></trkpt><trkpt lat="39.32272583822291" lon="9.399897080034746"><ele>357.0</ele><time>2026-04-04T07:27:36Z</time></trkpt><trkpt lat="39.32264161784911" lon="9.400047330002618"><ele>357.75</ele><time>2026-04-04T07:27:37Z</time></trkpt><trkpt lat="39.322578503952016" lon="9.40020292354309"><ele>358.5</ele><time>2026-04-04T07:27:38Z</time></trkpt><trkpt lat="39.322523136096834" lon="9.400361310881662"><ele>359.25</ele><time>2026-04-04T07:27:39Z</time></trkpt><trkpt lat="39.322468179953624" lon="9.400516237797186"><ele>360.0</ele><time>2026-04-04T07:27:40Z</time></trkpt><trkpt lat="39.322407606145376" lon="9.400663679582829"><ele>358.0</ele><time>2026-04-04T07:27:41Z</time></trkpt><trkpt lat="39.32233282181969" lon="9.400796403275105"><ele>356.0</ele><time>2026-04-04T07:27:42Z</time></trkpt><trkpt lat="39.3222424979364" lon="9.400892825954802"><ele>354.0</ele><time>2026-04-04T07:27:43Z</time></trkpt><trkpt lat="39.32213781754477" lon="9.400975932446327"><ele>352.0</ele><time>2026-04-04T07:27:44Z</time></trkpt><trkpt lat="39.32203597596958" lon="9.401067442524871"><ele>352.0</ele><time>2026-04-04T07:27:45Z</time></trkpt><trkpt lat="39.32192836700639" lon="9.401163343541235"><ele>352.0</ele><time>2026-04-04T07:27:46Z</time></trkpt><trkpt lat="39.32181742813412" lon="9.401260840986021"><ele>352.0</ele><time>2026-04-04T07:27:47Z</time></trkpt><trkpt lat="39.32170235888523" lon="9.401358434881024"><ele>352.0</ele><time>2026-04-04T07:27:48Z</time></trkpt><trkpt lat="39.321584185031725" lon="9.401457071990102"><ele>361.0</ele><time>2026-04-04T07:27:49Z</time></trkpt><trkpt lat="39.321462657431866" lon="9.401555353322507"><ele>370.0</ele><time>2026-04-04T07:27:50Z</time></trkpt><trkpt lat="39.32133513047434" lon="9.401631950550358"><ele>379.0</ele><time>2026-04-04T07:27:51Z</time></trkpt><trkpt lat="39.321199402012496" lon="9.401651945763332"><ele>388.0</ele><time>2026-04-04T07:27:52Z</time></trkpt><trkpt lat="39.32106777004361" lon="9.401629755107805"><ele>388.0</ele><time>2026-04-04T07:27:53Z</time></trkpt><trkpt lat="39.32093991290129" lon="9.401628826741284"><ele>388.0</ele><time>2026-04-04T07:27:54Z</time></trkpt><trkpt lat="39.32081485861487" lon="9.401677843569871"><ele>388.0</ele><time>2026-04-04T07:27:55Z</time></trkpt><trkpt lat="39.32068413337218" lon="9.401727881971773"><ele>388.0</ele><time>2026-04-04T07:27:56Z</time></trkpt><trkpt lat="39.320548447177174" lon="9.401759342034927"><ele>390.75</ele><time>2026-04-04T07:27:57Z</time></trkpt><trkpt lat="39.320414667802716" lon="9.401741980479525"><ele>393.5</ele><time>2026-04-04T07:27:58Z</time></trkpt><trkpt lat="39.320293225083454" lon="9.401647441926995"><ele>396.25</ele><time>2026-04-04T07:27:59Z</time></trkpt><trkpt lat="39.32018072893224" lon="9.401523890184858"><ele>399.0</ele><time>2026-04-04T07:28:00Z</time></trkpt><trkpt lat="39.32004746437919" lon="9.401413208386753"><ele>392.0</ele><time>2026-04-04T07:28:01Z</time></trkpt><trkpt lat="39.31990459990687" lon="9.40130516371365"><ele>385.0</ele><time>2026-04-04T07:28:02Z</time></trkpt><trkpt lat="39.319761627384736" lon="9.401200690985993"><ele>378.0</ele><time>2026-04-04T07:28:03Z</time></trkpt><trkpt lat="39.31960853690504" lon="9.401121475805333"><ele>378.0</ele><time>2026-04-04T07:28:04Z</time></trkpt><trkpt lat="39.31944676178794" lon="9.401081290435487"><ele>378.0</ele><time>2026-04-04T07:28:05Z</time></trkpt><trkpt lat="39.3192769039109" lon="9.401081242372"><ele>378.0</ele><time>2026-04-04T07:28:06Z</time></trkpt><trkpt lat="39.319108166590716" lon="9.401116349769847"><ele>378.0</ele><time>2026-04-04T07:28:07Z</time></trkpt><trkpt lat="39.31895126220104" lon="9.401176574025387"><ele>378.0</ele><time>2026-04-04T07:28:08Z</time></trkpt><trkpt lat="39.31881396062892" lon="9.401282718831833"><ele>378.0</ele><time>2026-04-04T07:28:09Z</time></trkpt><trkpt lat="39.31869786824437" lon="9.401419169890444"><ele>383.25</ele><time>2026-04-04T07:28:10Z</time></trkpt><trkpt lat="39.318579541085604" lon="9.40153204690045"><ele>388.5</ele><time>2026-04-04T07:28:11Z</time></trkpt><trkpt lat="39.31846857008245" lon="9.401605488912441"><ele>393.75</ele><time>2026-04-04T07:28:12Z</time></trkpt><trkpt lat="39.318351164664065" lon="9.401633562236519"><ele>399.0</ele><time>2026-04-04T07:28:13Z</time></trkpt><trkpt lat="39.31822309897493" lon="9.40157283027718"><ele>399.0</ele><time>2026-04-04T07:28:14Z</time></trkpt><trkpt lat="39.3180724196128" lon="9.401507870327743"><ele>399.0</ele><time>2026-04-04T07:28:15Z</time></trkpt><trkpt lat="39.3179243994858" lon="9.401453860819585"><ele>399.0</ele><time>2026-04-04T07:28:16Z</time></trkpt><trkpt lat="39.31776868335665" lon="9.40142725562301"><ele>401.0</ele><time>2026-04-04T07:28:17Z</time></trkpt><trkpt lat="39.31761031823588" lon="9.401429460831881"><ele>403.0</ele><time>2026-04-04T07:28:18Z</time></trkpt><trkpt lat="39.31744989790989" lon="9.4014361768772"><ele>405.0</ele><time>2026-04-04T07:28:19Z</time></trkpt><trkpt lat="39.31728764340438" lon="9.401437298710974"><ele>405.0</ele><time>2026-04-04T07:28:20Z</time></trkpt><trkpt lat="39.31711989694904" lon="9.401433816520939"><ele>405.0</ele><time>2026-04-04T07:28:21Z</time></trkpt><trkpt lat="39.31695846246518" lon="9.401443345869106"><ele>405.0</ele><time>2026-04-04T07:28:22Z</time></trkpt><trkpt lat="39.316805499566506" lon="9.401481516793748"><ele>405.0</ele><time>2026-04-04T07:28:23Z</time></trkpt><trkpt lat="39.31666382453571" lon="9.401518534836425"><ele>405.0</ele><time>2026-04-04T07:28:24Z</time></trkpt><trkpt lat="39.31651699862655" lon="9.401512313156754"><ele>405.0</ele><time>2026-04-04T07:28:25Z</time></trkpt><trkpt lat="39.316360117640656" lon="9.401467715262127"><ele>406.0</ele><time>2026-04-04T07:28:26Z</time></trkpt><trkpt lat="39.3161989102815" lon="9.401432118377432"><ele>407.0</ele><time>2026-04-04T07:28:27Z</time></trkpt><trkpt lat="39.31603169715807" lon="9.401392629351546"><ele>408.0</ele><time>2026-04-04T07:28:28Z</time></trkpt><trkpt lat="39.31585701256171" lon="9.401354616233073"><ele>402.0</ele><time>2026-04-04T07:28:29Z</time></trkpt><trkpt lat="39.31567757038758" lon="9.401314012511662"><ele>396.0</ele><time>2026-04-04T07:28:30Z</time></trkpt><trkpt lat="39.31550237301232" lon="9.401269009330521"><ele>390.0</ele><time>2026-04-04T07:28:31Z</time></trkpt><trkpt lat="39.31534121002797" lon="9.401228871772403"><ele>394.33333333333337</ele><time>2026-04-04T07:28:32Z</time></trkpt><trkpt lat="39.31518604266305" lon="9.401245112571202"><ele>398.6666666666667</ele><time>2026-04-04T07:28:33Z</time></trkpt><trkpt lat="39.31503959849216" lon="9.401320531224295"><ele>403.0</ele><time>2026-04-04T07:28:34Z</time></trkpt><trkpt lat="39.31490160473493" lon="9.401412328332052"><ele>403.0</ele><time>2026-04-04T07:28:35Z</time></trkpt><trkpt lat="39.31475634042469" lon="9.401496872099484"><ele>403.0</ele><time>2026-04-04T07:28:36Z</time></trkpt><trkpt lat="39.314603579305356" lon="9.401576667316604"><ele>403.0</ele><time>2026-04-04T07:28:37Z</time></trkpt><trkpt lat="39.31444293624934" lon="9.401636165088382"><ele>397.33333333333337</ele><time>2026-04-04T07:28:38Z</time></trkpt><trkpt lat="39.31427289068268" lon="9.401663426263399"><ele>391.66666666666663</ele><time>2026-04-04T07:28:39Z</time></trkpt><trkpt lat="39.31410068157091" lon="9.401677652814593"><ele>386.0</ele><time>2026-04-04T07:28:40Z</time></trkpt><trkpt lat="39.31393057179279" lon="9.401696218987086"><ele>384.0</ele><time>2026-04-04T07:28:41Z</time></trkpt><trkpt lat="39.31377961189357" lon="9.401717201463294"><ele>382.0</ele><time>2026-04-04T07:28:42Z</time></trkpt><trkpt lat="39.313640743789676" lon="9.401768980267931"><ele>380.0</ele><time>2026-04-04T07:28:43Z</time></trkpt><trkpt lat="39.313518417411316" lon="9.40187058210827"><ele>378.0</ele><time>2026-04-04T07:28:44Z</time></trkpt><trkpt lat="39.3133990908698" lon="9.4019922334579"><ele>378.0</ele><time>2026-04-04T07:28:45Z</time></trkpt><trkpt lat="39.31327361337401" lon="9.402112451112078"><ele>378.0</ele><time>2026-04-04T07:28:46Z</time></trkpt><trkpt lat="39.31313447969183" lon="9.402224221027188"><ele>378.0</ele><time>2026-04-04T07:28:47Z</time></trkpt><trkpt lat="39.31298828364224" lon="9.40232318582682"><ele>381.0</ele><time>2026-04-04T07:28:48Z</time></trkpt><trkpt lat="39.31283943236442" lon="9.402409090240207"><ele>384.0</ele><time>2026-04-04T07:28:49Z</time></trkpt><trkpt lat="39.31269619293346" lon="9.402464323138998"><ele>387.0</ele><time>2026-04-04T07:28:50Z</time></trkpt><trkpt lat="39.31255823379978" lon="9.402477360687103"><ele>387.0</ele><time>2026-04-04T07:28:51Z</time></trkpt><trkpt lat="39.312425738186185" lon="9.402434329366297"><ele>387.0</ele><time>2026-04-04T07:28:52Z</time></trkpt><trkpt lat="39.31232059336235" lon="9.402344425214702"><ele>387.0</ele><time>2026-04-04T07:28:53Z</time></trkpt><trkpt lat="39.31223788536834" lon="9.40219884672809"><ele>387.0</ele><time>2026-04-04T07:28:54Z</time></trkpt><trkpt lat="39.31216989720431" lon="9.402032605009905"><ele>390.66666666666663</ele><time>2026-04-04T07:28:55Z</time></trkpt><trkpt lat="39.312104607477224" lon="9.40185816203599"><ele>394.3333333333333</ele><time>2026-04-04T07:28:56Z</time></trkpt><trkpt lat="39.31203967225078" lon="9.401674717436673"><ele>398.0</ele><time>2026-04-04T07:28:57Z</time></trkpt><trkpt lat="39.31197059776265" lon="9.401488321976347"><ele>391.3333333333333</ele><time>2026-04-04T07:28:58Z</time></trkpt><trkpt lat="39.31188517397167" lon="9.40131153779675"><ele>384.66666666666663</ele><time>2026-04-04T07:28:59Z</time></trkpt><trkpt lat="39.31177035655471" lon="9.401159494551306"><ele>378.0</ele><time>2026-04-04T07:29:00Z</time></trkpt><trkpt lat="39.31163132044254" lon="9.4010430510239"><ele>378.0</ele><time>2026-04-04T07:29:01Z</time></trkpt><trkpt lat="39.31147830994688" lon="9.400956949869519"><ele>378.0</ele><time>2026-04-04T07:29:02Z</time></trkpt><trkpt lat="39.31133591190551" lon="9.400880036010332"><ele>378.0</ele><time>2026-04-04T07:29:03Z</time></trkpt><trkpt lat="39.3112142412488" lon="9.400787339966568"><ele>381.25</ele><time>2026-04-04T07:29:04Z</time></trkpt><trkpt lat="39.31113010939166" lon="9.400669487366512"><ele>384.5</ele><time>2026-04-04T07:29:05Z</time></trkpt><trkpt lat="39.31110632269246" lon="9.400532337653424"><ele>387.75</ele><time>2026-04-04T07:29:06Z</time></trkpt><trkpt lat="39.31112748048842" lon="9.40038322636156"><ele>391.0</ele><time>2026-04-04T07:29:07Z</time></trkpt><trkpt lat="39.31116806937343" lon="9.400221590495345"><ele>391.0</ele><time>2026-04-04T07:29:08Z</time></trkpt><trkpt lat="39.311173350932435" lon="9.400059531247404"><ele>391.0</ele><time>2026-04-04T07:29:09Z</time></trkpt><trkpt lat="39.31118761219688" lon="9.399892508258597"><ele>391.0</ele><time>2026-04-04T07:29:10Z</time></trkpt><trkpt lat="39.31119575658505" lon="9.399718641136594"><ele>391.0</ele><time>2026-04-04T07:29:11Z</time></trkpt><trkpt lat="39.31115922741585" lon="9.39955039059146"><ele>388.5</ele><time>2026-04-04T07:29:12Z</time></trkpt><trkpt lat="39.31108185004745" lon="9.3993975778685"><ele>386.0</ele><time>2026-04-04T07:29:13Z</time></trkpt><trkpt lat="39.31098117060967" lon="9.399254069679191"><ele>383.5</ele><time>2026-04-04T07:29:14Z</time></trkpt><trkpt lat="39.31085873033493" lon="9.399137150304549"><ele>381.0</ele><time>2026-04-04T07:29:15Z</time></trkpt><trkpt lat="39.310720294997964" lon="9.399065048599484"><ele>382.0</ele><time>2026-04-04T07:29:16Z</time></trkpt><trkpt lat="39.31057089617242" lon="9.399039443923078"><ele>383.0</ele><time>2026-04-04T07:29:17Z</time></trkpt><trkpt lat="39.31041753959022" lon="9.399024700683828"><ele>384.0</ele><time>2026-04-04T07:29:18Z</time></trkpt><trkpt lat="39.310259469332465" lon="9.399008904413087"><ele>384.0</ele><time>2026-04-04T07:29:19Z</time></trkpt><trkpt lat="39.310101280583275" lon="9.398994222326403"><ele>384.0</ele><time>2026-04-04T07:29:20Z</time></trkpt><trkpt lat="39.3099452327742" lon="9.39898698671494"><ele>384.0</ele><time>2026-04-04T07:29:21Z</time></trkpt><trkpt lat="39.30979852879286" lon="9.399010558950327"><ele>382.75</ele><time>2026-04-04T07:29:22Z</time></trkpt><trkpt lat="39.309664012659894" lon="9.399084599640855"><ele>381.5</ele><time>2026-04-04T07:29:23Z</time></trkpt><trkpt lat="39.30954575497728" lon="9.399190383350307"><ele>380.25</ele><time>2026-04-04T07:29:24Z</time></trkpt><trkpt lat="39.30942563869711" lon="9.3992989573638"><ele>379.0</ele><time>2026-04-04T07:29:25Z</time></trkpt><trkpt lat="39.30930916265401" lon="9.39940782897357"><ele>379.0</ele><time>2026-04-04T07:29:26Z</time></trkpt><trkpt lat="39.30918802498211" lon="9.399504241331691"><ele>379.0</ele><time>2026-04-04T07:29:27Z</time></trkpt><trkpt lat="39.309069136022494" lon="9.39957341129798"><ele>379.0</ele><time>2026-04-04T07:29:28Z</time></trkpt><trkpt lat="39.30894497231438" lon="9.399588453138875"><ele>379.0</ele><time>2026-04-04T07:29:29Z</time></trkpt><trkpt lat="39.308829144163276" lon="9.399534796579852"><ele>380.25</ele><time>2026-04-04T07:29:30Z</time></trkpt><trkpt lat="39.30872672505118" lon="9.399425521960977"><ele>381.5</ele><time>2026-04-04T07:29:31Z</time></trkpt><trkpt lat="39.30865181870812" lon="9.399278069294322"><ele>382.75</ele><time>2026-04-04T07:29:32Z</time></trkpt><trkpt lat="39.30856592818929" lon="9.39912995439277"><ele>384.0</ele><time>2026-04-04T07:29:33Z</time></trkpt><trkpt lat="39.308468551455796" lon="9.398976972766253"><ele>385.25</ele><time>2026-04-04T07:29:34Z</time></trkpt><trkpt lat="39.308383018555425" lon="9.398821427928949"><ele>386.5</ele><time>2026-04-04T07:29:35Z</time></trkpt><trkpt lat="39.3083412808467" lon="9.39866099558775"><ele>387.75</ele><time>2026-04-04T07:29:36Z</time></trkpt><trkpt lat="39.30833177213819" lon="9.398469776292918"><ele>389.0</ele><time>2026-04-04T07:29:37Z</time></trkpt><trkpt lat="39.3083518160358" lon="9.398265577618501"><ele>389.0</ele><time>2026-04-04T07:29:38Z</time></trkpt><trkpt lat="39.30836204187231" lon="9.3980625558166"><ele>389.0</ele><time>2026-04-04T07:29:39Z</time></trkpt><trkpt lat="39.30836856283957" lon="9.39785173188823"><ele>389.0</ele><time>2026-04-04T07:29:40Z</time></trkpt><trkpt lat="39.308380877951016" lon="9.397631952330912"><ele>389.66666666666663</ele><time>2026-04-04T07:29:41Z</time></trkpt><trkpt lat="39.30838254025177" lon="9.39741111360773"><ele>390.33333333333337</ele><time>2026-04-04T07:29:42Z</time></trkpt><trkpt lat="39.30836640333275" lon="9.397190612855152"><ele>391.0</ele><time>2026-04-04T07:29:43Z</time></trkpt><trkpt lat="39.308324698060126" lon="9.396971270678021"><ele>391.0</ele><time>2026-04-04T07:29:44Z</time></trkpt><trkpt lat="39.3082661690969" lon="9.396755379863285"><ele>391.0</ele><time>2026-04-04T07:29:45Z</time></trkpt><trkpt lat="39.30821010975526" lon="9.396546784909278"><ele>391.0</ele><time>2026-04-04T07:29:46Z</time></trkpt><trkpt lat="39.30815690792768" lon="9.396349734006158"><ele>390.25</ele><time>2026-04-04T07:29:47Z</time></trkpt><trkpt lat="39.308093373921956" lon="9.39617536343111"><ele>389.5</ele><time>2026-04-04T07:29:48Z</time></trkpt><trkpt lat="39.3080025697235" lon="9.396031348346641"><ele>388.75</ele><time>2026-04-04T07:29:49Z</time></trkpt><trkpt lat="39.30786897520064" lon="9.395931720105759"><ele>388.0</ele><time>2026-04-04T07:29:50Z</time></trkpt><trkpt lat="39.30771229912339" lon="9.395861358707096"><ele>393.33333333333337</ele><time>2026-04-04T07:29:51Z</time></trkpt><trkpt lat="39.307558956102376" lon="9.395797180011451"><ele>398.66666666666663</ele><time>2026-04-04T07:29:52Z</time></trkpt><trkpt lat="39.30739098851656" lon="9.395747758156393"><ele>404.0</ele><time>2026-04-04T07:29:53Z</time></trkpt><trkpt lat="39.307221720859104" lon="9.39570310379363"><ele>407.66666666666663</ele><time>2026-04-04T07:29:54Z</time></trkpt><trkpt lat="39.30704959286436" lon="9.395654770419064"><ele>411.33333333333337</ele><time>2026-04-04T07:29:55Z</time></trkpt><trkpt lat="39.30688070137344" lon="9.395608038419399"><ele>415.0</ele><time>2026-04-04T07:29:56Z</time></trkpt><trkpt lat="39.30671277045014" lon="9.395558612794174"><ele>415.0</ele><time>2026-04-04T07:29:57Z</time></trkpt><trkpt lat="39.306556466211404" lon="9.3955149910091"><ele>415.0</ele><time>2026-04-04T07:29:58Z</time></trkpt><trkpt lat="39.30641162959997" lon="9.395471989365081"><ele>415.0</ele><time>2026-04-04T07:29:59Z</time></trkpt><trkpt lat="39.30628501955245" lon="9.395408988573292"><ele>415.0</ele><time>2026-04-04T07:30:00Z</time></trkpt><trkpt lat="39.306186410553714" lon="9.395321335681574"><ele>418.6</ele><time>2026-04-04T07:30:01Z</time></trkpt><trkpt lat="39.30613895093985" lon="9.395214680832753"><ele>422.2</ele><time>2026-04-04T07:30:02Z</time></trkpt><trkpt lat="39.306142547024095" lon="9.395074690420559"><ele>425.79999999999995</ele><time>2026-04-04T07:30:03Z</time></trkpt><trkpt lat="39.30618334967092" lon="9.394938845931488"><ele>429.4</ele><time>2026-04-04T07:30:04Z</time></trkpt><trkpt lat="39.30625366488068" lon="9.394795456338583"><ele>433.0</ele><time>2026-04-04T07:30:05Z</time></trkpt><trkpt lat="39.30629010017451" lon="9.39463539311103"><ele>434.33333333333337</ele><time>2026-04-04T07:30:06Z</time></trkpt><trkpt lat="39.306292372939204" lon="9.394452265599048"><ele>435.66666666666663</ele><time>2026-04-04T07:30:07Z</time></trkpt><trkpt lat="39.30626252640199" lon="9.394253911658884"><ele>437.0</ele><time>2026-04-04T07:30:08Z</time></trkpt><trkpt lat="39.306233263518344" lon="9.394055011372918"><ele>437.0</ele><time>2026-04-04T07:30:09Z</time></trkpt><trkpt lat="39.306193611030295" lon="9.393850747758261"><ele>437.0</ele><time>2026-04-04T07:30:10Z</time></trkpt><trkpt lat="39.3061659461052" lon="9.393639309461685"><ele>437.0</ele><time>2026-04-04T07:30:11Z</time></trkpt><trkpt lat="39.30615424639782" lon="9.393424886341199"><ele>436.25</ele><time>2026-04-04T07:30:12Z</time></trkpt><trkpt lat="39.306136159896006" lon="9.393235741683199"><ele>435.5</ele><time>2026-04-04T07:30:13Z</time></trkpt><trkpt lat="39.30609528209288" lon="9.39305866967867"><ele>434.75</ele><time>2026-04-04T07:30:14Z</time></trkpt><trkpt lat="39.3060393621525" lon="9.392874134694223"><ele>434.0</ele><time>2026-04-04T07:30:15Z</time></trkpt><trkpt lat="39.305984914591036" lon="9.39269023340662"><ele>433.66666666666663</ele><time>2026-04-04T07:30:16Z</time></trkpt><trkpt lat="39.30593133523982" lon="9.392512801421585"><ele>433.33333333333337</ele><time>2026-04-04T07:30:17Z</time></trkpt><trkpt lat="39.3058606825251" lon="9.392320191477761"><ele>433.0</ele><time>2026-04-04T07:30:18Z</time></trkpt><trkpt lat="39.30578976545749" lon="9.392143204412248"><ele>432.75</ele><time>2026-04-04T07:30:19Z</time></trkpt><trkpt lat="39.30573186564456" lon="9.391962567834478"><ele>432.5</ele><time>2026-04-04T07:30:20Z</time></trkpt><trkpt lat="39.3056975287927" lon="9.391774973112213"><ele>432.25</ele><time>2026-04-04T07:30:21Z</time></trkpt><trkpt lat="39.30567641068303" lon="9.391587905770422"><ele>432.0</ele><time>2026-04-04T07:30:22Z</time></trkpt><trkpt lat="39.30567035080979" lon="9.391394597027626"><ele>434.25</ele><time>2026-04-04T07:30:23Z</time></trkpt><trkpt lat="39.30566405738542" lon="9.391212729482948"><ele>436.5</ele><time>2026-04-04T07:30:24Z</time></trkpt><trkpt lat="39.30562675665805" lon="9.391038302102784"><ele>438.75</ele><time>2026-04-04T07:30:25Z</time></trkpt><trkpt lat="39.305559460299534" lon="9.390882448687154"><ele>441.0</ele><time>2026-04-04T07:30:26Z</time></trkpt><trkpt lat="39.30547878723125" lon="9.390746361912088"><ele>438.25</ele><time>2026-04-04T07:30:27Z</time></trkpt><trkpt lat="39.30538934560841" lon="9.390629152359889"><ele>435.5</ele><time>2026-04-04T07:30:28Z</time></trkpt><trkpt lat="39.30529037733123" lon="9.390537325987989"><ele>432.75</ele><time>2026-04-04T07:30:29Z</time></trkpt><trkpt lat="39.30516759306703" lon="9.390482585967485"><ele>430.0</ele><time>2026-04-04T07:30:30Z</time></trkpt><trkpt lat="39.30503029578563" lon="9.390458789496252"><ele>430.0</ele><time>2026-04-04T07:30:31Z</time></trkpt><trkpt lat="39.304888510318456" lon="9.39043079456886"><ele>430.0</ele><time>2026-04-04T07:30:32Z</time></trkpt><trkpt lat="39.30475729497138" lon="9.390379906844876"><ele>430.0</ele><time>2026-04-04T07:30:33Z</time></trkpt><trkpt lat="39.30463238730243" lon="9.390299605710165"><ele>430.0</ele><time>2026-04-04T07:30:34Z</time></trkpt><trkpt lat="39.30454189310487" lon="9.390165982258601"><ele>423.75</ele><time>2026-04-04T07:30:35Z</time></trkpt><trkpt lat="39.30446373298473" lon="9.390046145470171"><ele>417.5</ele><time>2026-04-04T07:30:36Z</time></trkpt><trkpt lat="39.30441248658844" lon="9.389902343558507"><ele>411.25</ele><time>2026-04-04T07:30:37Z</time></trkpt><trkpt lat="39.3043554412267" lon="9.389740974977464"><ele>405.0</ele><time>2026-04-04T07:30:38Z</time></trkpt><trkpt lat="39.30430015586029" lon="9.389584585060563"><ele>404.8</ele><time>2026-04-04T07:30:39Z</time></trkpt><trkpt lat="39.304241618767406" lon="9.38942092256367"><ele>404.6</ele><time>2026-04-04T07:30:40Z</time></trkpt><trkpt lat="39.304196696448436" lon="9.389275289061164"><ele>404.4</ele><time>2026-04-04T07:30:41Z</time></trkpt><trkpt lat="39.30418558820179" lon="9.389153559000249"><ele>404.2</ele><time>2026-04-04T07:30:42Z</time></trkpt><trkpt lat="39.30423284548675" lon="9.389060401462425"><ele>404.0</ele><time>2026-04-04T07:30:43Z</time></trkpt><trkpt lat="39.304324515952736" lon="9.38904412009806"><ele>404.0</ele><time>2026-04-04T07:30:44Z</time></trkpt><trkpt lat="39.30443454707951" lon="9.389073706857737"><ele>404.0</ele><time>2026-04-04T07:30:45Z</time></trkpt><trkpt lat="39.30453927575421" lon="9.389155538760042"><ele>404.0</ele><time>2026-04-04T07:30:46Z</time></trkpt><trkpt lat="39.30463381102294" lon="9.389250267057019"><ele>404.0</ele><time>2026-04-04T07:30:47Z</time></trkpt><trkpt lat="39.304752407420416" lon="9.38931638019736"><ele>405.79999999999995</ele><time>2026-04-04T07:30:48Z</time></trkpt><trkpt lat="39.30486680707343" lon="9.389367453521334"><ele>407.59999999999997</ele><time>2026-04-04T07:30:49Z</time></trkpt><trkpt lat="39.30497720380112" lon="9.389376877672108"><ele>409.4</ele><time>2026-04-04T07:30:50Z</time></trkpt><trkpt lat="39.30507516385615" lon="9.389341923329365"><ele>411.2</ele><time>2026-04-04T07:30:51Z</time></trkpt><trkpt lat="39.30514824450461" lon="9.389241359005574"><ele>413.0</ele><time>2026-04-04T07:30:52Z</time></trkpt><trkpt lat="39.3051855300418" lon="9.389099664979355"><ele>413.0</ele><time>2026-04-04T07:30:53Z</time></trkpt><trkpt lat="39.30517072395044" lon="9.388940886014995"><ele>413.0</ele><time>2026-04-04T07:30:54Z</time></trkpt><trkpt lat="39.3051249568043" lon="9.388799369496084"><ele>413.0</ele><time>2026-04-04T07:30:55Z</time></trkpt><trkpt lat="39.305103109817615" lon="9.388659419385004"><ele>413.0</ele><time>2026-04-04T07:30:56Z</time></trkpt><trkpt lat="39.30510830651471" lon="9.388521905278619"><ele>409.25</ele><time>2026-04-04T07:30:57Z</time></trkpt><trkpt lat="39.30515058468416" lon="9.388375155444958"><ele>405.5</ele><time>2026-04-04T07:30:58Z</time></trkpt><trkpt lat="39.30520113111794" lon="9.388217024610206"><ele>401.75</ele><time>2026-04-04T07:30:59Z</time></trkpt><trkpt lat="39.30524726674259" lon="9.38807416508965"><ele>398.0</ele><time>2026-04-04T07:31:00Z</time></trkpt><trkpt lat="39.30524996242894" lon="9.387923136865403"><ele>396.25</ele><time>2026-04-04T07:31:01Z</time></trkpt><trkpt lat="39.30518734354246" lon="9.387791484189524"><ele>394.5</ele><time>2026-04-04T07:31:02Z</time></trkpt><trkpt lat="39.30508998475751" lon="9.387682143690528"><ele>392.75</ele><time>2026-04-04T07:31:03Z</time></trkpt><trkpt lat="39.30502722591334" lon="9.387562173080745"><ele>391.0</ele><time>2026-04-04T07:31:04Z</time></trkpt><trkpt lat="39.304983911517276" lon="9.387439216898148"><ele>391.0</ele><time>2026-04-04T07:31:05Z</time></trkpt><trkpt lat="39.305008938517304" lon="9.387321886389776"><ele>391.0</ele><time>2026-04-04T07:31:06Z</time></trkpt><trkpt lat="39.30506828056574" lon="9.387213314940276"><ele>391.0</ele><time>2026-04-04T07:31:07Z</time></trkpt><trkpt lat="39.30515084947218" lon="9.38712577010743"><ele>391.0</ele><time>2026-04-04T07:31:08Z</time></trkpt><trkpt lat="39.30522631074008" lon="9.387027259022037"><ele>391.0</ele><time>2026-04-04T07:31:09Z</time></trkpt><trkpt lat="39.30530012156085" lon="9.386948265310679"><ele>389.6</ele><time>2026-04-04T07:31:10Z</time></trkpt><trkpt lat="39.305331484125915" lon="9.386839352850508"><ele>388.20000000000005</ele><time>2026-04-04T07:31:11Z</time></trkpt><trkpt lat="39.3053251095631" lon="9.386714358498091"><ele>386.79999999999995</ele><time>2026-04-04T07:31:12Z</time></trkpt><trkpt lat="39.3052872273658" lon="9.38657790374854"><ele>385.4</ele><time>2026-04-04T07:31:13Z</time></trkpt><trkpt lat="39.305172102666205" lon="9.386490375093244"><ele>384.0</ele><time>2026-04-04T07:31:14Z</time></trkpt><trkpt lat="39.305060460529766" lon="9.386426986322544"><ele>383.4</ele><time>2026-04-04T07:31:15Z</time></trkpt><trkpt lat="39.30498726081186" lon="9.38632469681884"><ele>382.79999999999995</ele><time>2026-04-04T07:31:16Z</time></trkpt><trkpt lat="39.304921381806835" lon="9.38624384944568"><ele>382.20000000000005</ele><time>2026-04-04T07:31:17Z</time></trkpt><trkpt lat="39.304944526607855" lon="9.38612014603488"><ele>381.6</ele><time>2026-04-04T07:31:18Z</time></trkpt><trkpt lat="39.30497980035928" lon="9.386011346791607"><ele>381.0</ele><time>2026-04-04T07:31:19Z</time></trkpt><trkpt lat="39.30505811751963" lon="9.385921937908712"><ele>381.0</ele><time>2026-04-04T07:31:20Z</time></trkpt><trkpt lat="39.3051240238177" lon="9.38580579076673"><ele>381.0</ele><time>2026-04-04T07:31:21Z</time></trkpt><trkpt lat="39.30516093127965" lon="9.385692140020648"><ele>381.0</ele><time>2026-04-04T07:31:22Z</time></trkpt><trkpt lat="39.30512417453007" lon="9.385551229858208"><ele>381.0</ele><time>2026-04-04T07:31:23Z</time></trkpt><trkpt lat="39.30508446638994" lon="9.38541270525952"><ele>381.0</ele><time>2026-04-04T07:31:24Z</time></trkpt><trkpt lat="39.30499593008314" lon="9.385304285329662"><ele>383.25</ele><time>2026-04-04T07:31:25Z</time></trkpt><trkpt lat="39.30487773369831" lon="9.385232422779264"><ele>385.5</ele><time>2026-04-04T07:31:26Z</time></trkpt><trkpt lat="39.304737617039955" lon="9.38522043788464"><ele>387.75</ele><time>2026-04-04T07:31:27Z</time></trkpt><trkpt lat="39.304605132694306" lon="9.385226915615883"><ele>390.0</ele><time>2026-04-04T07:31:28Z</time></trkpt><trkpt lat="39.304471865996405" lon="9.385208678904272"><ele>384.8</ele><time>2026-04-04T07:31:29Z</time></trkpt><trkpt lat="39.304347986290765" lon="9.38519828439142"><ele>379.6</ele><time>2026-04-04T07:31:30Z</time></trkpt><trkpt lat="39.30423727222341" lon="9.385155613504086"><ele>374.4</ele><time>2026-04-04T07:31:31Z</time></trkpt><trkpt lat="39.304140596548066" lon="9.385086342604463"><ele>369.2</ele><time>2026-04-04T07:31:32Z</time></trkpt><trkpt lat="39.30407887441634" lon="9.385006334833271"><ele>364.0</ele><time>2026-04-04T07:31:33Z</time></trkpt><trkpt lat="39.30403628935278" lon="9.384919720131878"><ele>364.0</ele><time>2026-04-04T07:31:34Z</time></trkpt><trkpt lat="39.304042140587015" lon="9.384822149597467"><ele>364.0</ele><time>2026-04-04T07:31:35Z</time></trkpt><trkpt lat="39.304098580827755" lon="9.384738490084683"><ele>364.0</ele><time>2026-04-04T07:31:36Z</time></trkpt><trkpt lat="39.30416284538189" lon="9.384635426037068"><ele>364.0</ele><time>2026-04-04T07:31:37Z</time></trkpt><trkpt lat="39.304254495792215" lon="9.384544961545291"><ele>364.0</ele><time>2026-04-04T07:31:38Z</time></trkpt><trkpt lat="39.30432682118948" lon="9.38444816020386"><ele>364.4</ele><time>2026-04-04T07:31:39Z</time></trkpt><trkpt lat="39.30435394253326" lon="9.384328529134072"><ele>364.79999999999995</ele><time>2026-04-04T07:31:40Z</time></trkpt><trkpt lat="39.30433880560529" lon="9.384197168509642"><ele>365.20000000000005</ele><time>2026-04-04T07:31:41Z</time></trkpt><trkpt lat="39.30426445816948" lon="9.384078022922026"><ele>365.6</ele><time>2026-04-04T07:31:42Z</time></trkpt><trkpt lat="39.30416248967851" lon="9.383983030618976"><ele>366.0</ele><time>2026-04-04T07:31:43Z</time></trkpt><trkpt lat="39.30405468499839" lon="9.383884187163869"><ele>367.75</ele><time>2026-04-04T07:31:44Z</time></trkpt><trkpt lat="39.30394333576779" lon="9.383782123358651"><ele>369.5</ele><time>2026-04-04T07:31:45Z</time></trkpt><trkpt lat="39.303837772316896" lon="9.38368458598537"><ele>371.25</ele><time>2026-04-04T07:31:46Z</time></trkpt><trkpt lat="39.30376002983984" lon="9.383596932504119"><ele>373.0</ele><time>2026-04-04T07:31:47Z</time></trkpt><trkpt lat="39.30371007945176" lon="9.383509159605257"><ele>373.0</ele><time>2026-04-04T07:31:48Z</time></trkpt><trkpt lat="39.303716379910995" lon="9.383409132610172"><ele>373.0</ele><time>2026-04-04T07:31:49Z</time></trkpt><trkpt lat="39.30377525620426" lon="9.383317929150543"><ele>373.0</ele><time>2026-04-04T07:31:50Z</time></trkpt><trkpt lat="39.30383672611545" lon="9.383211932917563"><ele>373.0</ele><time>2026-04-04T07:31:51Z</time></trkpt><trkpt lat="39.30391852595034" lon="9.383094091737751"><ele>373.0</ele><time>2026-04-04T07:31:52Z</time></trkpt><trkpt lat="39.303990694442206" lon="9.382960490025303"><ele>371.25</ele><time>2026-04-04T07:31:53Z</time></trkpt><trkpt lat="39.304036669993316" lon="9.382812779536485"><ele>369.5</ele><time>2026-04-04T07:31:54Z</time></trkpt><trkpt lat="39.30403792619275" lon="9.38266036585106"><ele>367.75</ele><time>2026-04-04T07:31:55Z</time></trkpt><trkpt lat="39.30398111018435" lon="9.382526254440142"><ele>366.0</ele><time>2026-04-04T07:31:56Z</time></trkpt><trkpt lat="39.30388611645044" lon="9.382424867955386"><ele>361.6</ele><time>2026-04-04T07:31:57Z</time></trkpt><trkpt lat="39.30377349946839" lon="9.382354703722912"><ele>357.20000000000005</ele><time>2026-04-04T07:31:58Z</time></trkpt><trkpt lat="39.3036941202101" lon="9.382270132063804"><ele>352.79999999999995</ele><time>2026-04-04T07:31:59Z</time></trkpt><trkpt lat="39.30368342898524" lon="9.382133293653393"><ele>348.4</ele><time>2026-04-04T07:32:00Z</time></trkpt><trkpt lat="39.30369685610855" lon="9.381991313102342"><ele>344.0</ele><time>2026-04-04T07:32:01Z</time></trkpt><trkpt lat="39.30367785659737" lon="9.3818369241166"><ele>344.0</ele><time>2026-04-04T07:32:02Z</time></trkpt><trkpt lat="39.30366668287664" lon="9.381668017279228"><ele>344.0</ele><time>2026-04-04T07:32:03Z</time></trkpt><trkpt lat="39.30363625433042" lon="9.381521953822926"><ele>344.0</ele><time>2026-04-04T07:32:04Z</time></trkpt><trkpt lat="39.30353335312931" lon="9.381427907435897"><ele>344.0</ele><time>2026-04-04T07:32:05Z</time></trkpt><trkpt lat="39.303406395338776" lon="9.381356104979485"><ele>347.5</ele><time>2026-04-04T07:32:06Z</time></trkpt><trkpt lat="39.30327515929725" lon="9.38128858997251"><ele>351.0</ele><time>2026-04-04T07:32:07Z</time></trkpt><trkpt lat="39.30316344940574" lon="9.381176547223374"><ele>354.5</ele><time>2026-04-04T07:32:08Z</time></trkpt><trkpt lat="39.3030624898572" lon="9.381045405464098"><ele>358.0</ele><time>2026-04-04T07:32:09Z</time></trkpt><trkpt lat="39.302960491764324" lon="9.380902935664116"><ele>349.75</ele><time>2026-04-04T07:32:10Z</time></trkpt><trkpt lat="39.302859054985376" lon="9.380761581330484"><ele>341.5</ele><time>2026-04-04T07:32:11Z</time></trkpt><trkpt lat="39.30276130357549" lon="9.380625625298178"><ele>333.25</ele><time>2026-04-04T07:32:12Z</time></trkpt><trkpt lat="39.30268359928587" lon="9.38050195353563"><ele>325.0</ele><time>2026-04-04T07:32:13Z</time></trkpt><trkpt lat="39.30263948220169" lon="9.380385879697794"><ele>324.8</ele><time>2026-04-04T07:32:14Z</time></trkpt><trkpt lat="39.302625264989054" lon="9.38027872220392"><ele>324.6</ele><time>2026-04-04T07:32:15Z</time></trkpt><trkpt lat="39.302679905356044" lon="9.380164366253542"><ele>324.4</ele><time>2026-04-04T07:32:16Z</time></trkpt><trkpt lat="39.302782179728375" lon="9.380071114522044"><ele>324.2</ele><time>2026-04-04T07:32:17Z</time></trkpt><trkpt lat="39.30290348570906" lon="9.380010420240694"><ele>324.0</ele><time>2026-04-04T07:32:18Z</time></trkpt><trkpt lat="39.30301063082765" lon="9.379950353119783"><ele>324.0</ele><time>2026-04-04T07:32:19Z</time></trkpt><trkpt lat="39.30307611611251" lon="9.379856363677941"><ele>324.0</ele><time>2026-04-04T07:32:20Z</time></trkpt><trkpt lat="39.30309749570997" lon="9.379719125694233"><ele>324.0</ele><time>2026-04-04T07:32:21Z</time></trkpt><trkpt lat="39.303056408806846" lon="9.379563608450262"><ele>324.0</ele><time>2026-04-04T07:32:22Z</time></trkpt><trkpt lat="39.30300158845786" lon="9.37941044746481"><ele>322.25</ele><time>2026-04-04T07:32:23Z</time></trkpt><trkpt lat="39.30295045062846" lon="9.379253897858852"><ele>320.5</ele><time>2026-04-04T07:32:24Z</time></trkpt><trkpt lat="39.302870115564794" lon="9.379129029167453"><ele>318.75</ele><time>2026-04-04T07:32:25Z</time></trkpt><trkpt lat="39.30275946420182" lon="9.379053671594349"><ele>317.0</ele><time>2026-04-04T07:32:26Z</time></trkpt><trkpt lat="39.302644727587676" lon="9.379007893458205"><ele>317.0</ele><time>2026-04-04T07:32:27Z</time></trkpt><trkpt lat="39.30255332589548" lon="9.37894490186117"><ele>317.0</ele><time>2026-04-04T07:32:28Z</time></trkpt><trkpt lat="39.30249124577003" lon="9.37883062319414"><ele>317.0</ele><time>2026-04-04T07:32:29Z</time></trkpt><trkpt lat="39.3025177264229" lon="9.378688250807198"><ele>317.0</ele><time>2026-04-04T07:32:30Z</time></trkpt><trkpt lat="39.30254676401754" lon="9.378547411035997"><ele>317.0</ele><time>2026-04-04T07:32:31Z</time></trkpt><trkpt lat="39.30257281908949" lon="9.378381418833131"><ele>318.0</ele><time>2026-04-04T07:32:32Z</time></trkpt><trkpt lat="39.302568746425926" lon="9.37821549793446"><ele>319.0</ele><time>2026-04-04T07:32:33Z</time></trkpt><trkpt lat="39.302538549587204" lon="9.378050094503346"><ele>320.0</ele><time>2026-04-04T07:32:34Z</time></trkpt><trkpt lat="39.30248254646583" lon="9.377904603939456"><ele>321.0</ele><time>2026-04-04T07:32:35Z</time></trkpt><trkpt lat="39.30245461002101" lon="9.377771032981489"><ele>319.0</ele><time>2026-04-04T07:32:36Z</time></trkpt><trkpt lat="39.30248355271308" lon="9.377652523425574"><ele>317.0</ele><time>2026-04-04T07:32:37Z</time></trkpt><trkpt lat="39.30257038608883" lon="9.377563520547012"><ele>315.0</ele><time>2026-04-04T07:32:38Z</time></trkpt><trkpt lat="39.3026631370098" lon="9.37745176412486"><ele>313.0</ele><time>2026-04-04T07:32:39Z</time></trkpt><trkpt lat="39.30279225725933" lon="9.377365046308183"><ele>313.0</ele><time>2026-04-04T07:32:40Z</time></trkpt><trkpt lat="39.302905161639146" lon="9.377280033098732"><ele>313.0</ele><time>2026-04-04T07:32:41Z</time></trkpt><trkpt lat="39.3029860036959" lon="9.377181038293436"><ele>313.0</ele><time>2026-04-04T07:32:42Z</time></trkpt><trkpt lat="39.303018722600115" lon="9.377044765627717"><ele>313.0</ele><time>2026-04-04T07:32:43Z</time></trkpt><trkpt lat="39.3030034380488" lon="9.376897538856474"><ele>311.0</ele><time>2026-04-04T07:32:44Z</time></trkpt><trkpt lat="39.30294303672572" lon="9.376752908027743"><ele>309.0</ele><time>2026-04-04T07:32:45Z</time></trkpt><trkpt lat="39.30285256748139" lon="9.376630986695545"><ele>307.0</ele><time>2026-04-04T07:32:46Z</time></trkpt><trkpt lat="39.30275074279221" lon="9.376525315819904"><ele>305.0</ele><time>2026-04-04T07:32:47Z</time></trkpt><trkpt lat="39.30267489138704" lon="9.37641288370977"><ele>304.83333333333337</ele><time>2026-04-04T07:32:48Z</time></trkpt><trkpt lat="39.30260694860897" lon="9.376321143090273"><ele>304.6666666666667</ele><time>2026-04-04T07:32:49Z</time></trkpt><trkpt lat="39.302573902818196" lon="9.376237918586297"><ele>304.5</ele><time>2026-04-04T07:32:50Z</time></trkpt><trkpt lat="39.30259293315307" lon="9.376145326531143"><ele>304.3333333333333</ele><time>2026-04-04T07:32:51Z</time></trkpt><trkpt lat="39.30263854190885" lon="9.376060063983921"><ele>304.16666666666663</ele><time>2026-04-04T07:32:52Z</time></trkpt><trkpt lat="39.30269628751111" lon="9.376008714541074"><ele>304.0</ele><time>2026-04-04T07:32:53Z</time></trkpt><trkpt lat="39.30274906736237" lon="9.375949779538654"><ele>304.0</ele><time>2026-04-04T07:32:54Z</time></trkpt><trkpt lat="39.30278587652693" lon="9.375865764431994"><ele>304.0</ele><time>2026-04-04T07:32:55Z</time></trkpt><trkpt lat="39.30279603304912" lon="9.375760599963229"><ele>304.0</ele><time>2026-04-04T07:32:56Z</time></trkpt><trkpt lat="39.30276677453122" lon="9.375656684291878"><ele>304.0</ele><time>2026-04-04T07:32:57Z</time></trkpt><trkpt lat="39.30270398988652" lon="9.375568387590784"><ele>304.0</ele><time>2026-04-04T07:32:58Z</time></trkpt><trkpt lat="39.30261865545806" lon="9.375501486466304"><ele>304.0</ele><time>2026-04-04T07:32:59Z</time></trkpt><trkpt lat="39.30253579573733" lon="9.375424324460264"><ele>305.0</ele><time>2026-04-04T07:33:00Z</time></trkpt><trkpt lat="39.30243776258656" lon="9.375366429242126"><ele>306.0</ele><time>2026-04-04T07:33:01Z</time></trkpt><trkpt lat="39.30232450504718" lon="9.375348758504867"><ele>307.0</ele><time>2026-04-04T07:33:02Z</time></trkpt><trkpt lat="39.30221279380665" lon="9.375331353216176"><ele>308.0</ele><time>2026-04-04T07:33:03Z</time></trkpt><trkpt lat="39.30211396954481" lon="9.375324886784306"><ele>309.0</ele><time>2026-04-04T07:33:04Z</time></trkpt><trkpt lat="39.301996353034404" lon="9.375328216975861"><ele>309.0</ele><time>2026-04-04T07:33:05Z</time></trkpt><trkpt lat="39.30188549282958" lon="9.375305648759662"><ele>309.0</ele><time>2026-04-04T07:33:06Z</time></trkpt><trkpt lat="39.301775566684604" lon="9.375301084350008"><ele>309.0</ele><time>2026-04-04T07:33:07Z</time></trkpt><trkpt lat="39.30167077263756" lon="9.375313853951129"><ele>309.0</ele><time>2026-04-04T07:33:08Z</time></trkpt><trkpt lat="39.30157832103449" lon="9.375307605639977"><ele>309.0</ele><time>2026-04-04T07:33:09Z</time></trkpt><trkpt lat="39.301495316222905" lon="9.375304986041233"><ele>309.0</ele><time>2026-04-04T07:33:10Z</time></trkpt><trkpt lat="39.30141552251087" lon="9.375282162156815"><ele>309.0</ele><time>2026-04-04T07:33:11Z</time></trkpt><trkpt lat="39.30134517201845" lon="9.375231358032801"><ele>309.0</ele><time>2026-04-04T07:33:12Z</time></trkpt><trkpt lat="39.301283076897285" lon="9.375152536225793"><ele>309.0</ele><time>2026-04-04T07:33:13Z</time></trkpt><trkpt lat="39.30122633106711" lon="9.37504986766567"><ele>309.0</ele><time>2026-04-04T07:33:14Z</time></trkpt><trkpt lat="39.30117598561276" lon="9.374926991794188"><ele>302.59999999999997</ele><time>2026-04-04T07:33:15Z</time></trkpt><trkpt lat="39.30113052999388" lon="9.374804284029434"><ele>296.2</ele><time>2026-04-04T07:33:16Z</time></trkpt><trkpt lat="39.301082304235024" lon="9.374679605209975"><ele>289.79999999999995</ele><time>2026-04-04T07:33:17Z</time></trkpt><trkpt lat="39.30103213157972" lon="9.374553519065486"><ele>283.4</ele><time>2026-04-04T07:33:18Z</time></trkpt><trkpt lat="39.30099575270266" lon="9.374415757006691"><ele>277.0</ele><time>2026-04-04T07:33:19Z</time></trkpt><trkpt lat="39.30094690460427" lon="9.374284749908332"><ele>277.0</ele><time>2026-04-04T07:33:20Z</time></trkpt><trkpt lat="39.30090074405993" lon="9.374157723353452"><ele>277.0</ele><time>2026-04-04T07:33:21Z</time></trkpt><trkpt lat="39.30086218283237" lon="9.374028022527106"><ele>277.0</ele><time>2026-04-04T07:33:22Z</time></trkpt><trkpt lat="39.300846168369375" lon="9.373898012504993"><ele>277.0</ele><time>2026-04-04T07:33:23Z</time></trkpt><trkpt lat="39.30083331201713" lon="9.373772524158447"><ele>277.0</ele><time>2026-04-04T07:33:24Z</time></trkpt><trkpt lat="39.30082114857718" lon="9.373653799311183"><ele>276.66666666666663</ele><time>2026-04-04T07:33:25Z</time></trkpt><trkpt lat="39.30081094801316" lon="9.373542209482356"><ele>276.3333333333333</ele><time>2026-04-04T07:33:26Z</time></trkpt><trkpt lat="39.300787271650265" lon="9.373434042237417"><ele>276.0</ele><time>2026-04-04T07:33:27Z</time></trkpt><trkpt lat="39.300795151762046" lon="9.373326663352824"><ele>275.6666666666667</ele><time>2026-04-04T07:33:28Z</time></trkpt><trkpt lat="39.30081281596242" lon="9.37322062885989"><ele>275.33333333333337</ele><time>2026-04-04T07:33:29Z</time></trkpt><trkpt lat="39.30083852262499" lon="9.373096236769877"><ele>275.0</ele><time>2026-04-04T07:33:30Z</time></trkpt><trkpt lat="39.300872984134806" lon="9.37296481031376"><ele>273.8</ele><time>2026-04-04T07:33:31Z</time></trkpt><trkpt lat="39.30090332855251" lon="9.3728313610534"><ele>272.6</ele><time>2026-04-04T07:33:32Z</time></trkpt><trkpt lat="39.300933694708775" lon="9.372700821154325"><ele>271.4</ele><time>2026-04-04T07:33:33Z</time></trkpt><trkpt lat="39.30096632917928" lon="9.372573032624695"><ele>270.2</ele><time>2026-04-04T07:33:34Z</time></trkpt><trkpt lat="39.30100413370746" lon="9.372451016439635"><ele>269.0</ele><time>2026-04-04T07:33:35Z</time></trkpt><trkpt lat="39.301048151321766" lon="9.372336716034292"><ele>269.0</ele><time>2026-04-04T07:33:36Z</time></trkpt><trkpt lat="39.301096486977706" lon="9.372231508926525"><ele>269.0</ele><time>2026-04-04T07:33:37Z</time></trkpt><trkpt lat="39.301140841643786" lon="9.372130387851994"><ele>269.0</ele><time>2026-04-04T07:33:38Z</time></trkpt><trkpt lat="39.301169592431826" lon="9.372022061264493"><ele>269.0</ele><time>2026-04-04T07:33:39Z</time></trkpt><trkpt lat="39.30120117565231" lon="9.371892617824559"><ele>269.0</ele><time>2026-04-04T07:33:40Z</time></trkpt><trkpt lat="39.301184188674135" lon="9.371754365371585"><ele>267.4</ele><time>2026-04-04T07:33:41Z</time></trkpt><trkpt lat="39.30117909080401" lon="9.371613477316187"><ele>265.79999999999995</ele><time>2026-04-04T07:33:42Z</time></trkpt><trkpt lat="39.30116998997313" lon="9.371471633892902"><ele>264.20000000000005</ele><time>2026-04-04T07:33:43Z</time></trkpt><trkpt lat="39.30115818888687" lon="9.371332782314001"><ele>262.6</ele><time>2026-04-04T07:33:44Z</time></trkpt><trkpt lat="39.301146933542995" lon="9.37119807770218"><ele>261.0</ele><time>2026-04-04T07:33:45Z</time></trkpt><trkpt lat="39.30112976013956" lon="9.371067229290974"><ele>260.8333333333333</ele><time>2026-04-04T07:33:46Z</time></trkpt><trkpt lat="39.30110648312163" lon="9.370941029593805"><ele>260.6666666666667</ele><time>2026-04-04T07:33:47Z</time></trkpt><trkpt lat="39.30104306513395" lon="9.37083005520064"><ele>260.5</ele><time>2026-04-04T07:33:48Z</time></trkpt><trkpt lat="39.30097541761775" lon="9.370760110281017"><ele>260.33333333333337</ele><time>2026-04-04T07:33:49Z</time></trkpt><trkpt lat="39.3009220600843" lon="9.370704319290763"><ele>260.1666666666667</ele><time>2026-04-04T07:33:50Z</time></trkpt><trkpt lat="39.30087306628004" lon="9.370635941546142"><ele>260.0</ele><time>2026-04-04T07:33:51Z</time></trkpt><trkpt lat="39.3008410828066" lon="9.370555751143886"><ele>259.0</ele><time>2026-04-04T07:33:52Z</time></trkpt><trkpt lat="39.30084465903378" lon="9.370442832600988"><ele>258.0</ele><time>2026-04-04T07:33:53Z</time></trkpt><trkpt lat="39.30087043836493" lon="9.37031904101761"><ele>257.0</ele><time>2026-04-04T07:33:54Z</time></trkpt><trkpt lat="39.300907697952" lon="9.370197104795423"><ele>256.0</ele><time>2026-04-04T07:33:55Z</time></trkpt><trkpt lat="39.300955679826934" lon="9.370057843319978"><ele>255.0</ele><time>2026-04-04T07:33:56Z</time></trkpt><trkpt lat="39.30100772424973" lon="9.369901938029699"><ele>255.0</ele><time>2026-04-04T07:33:57Z</time></trkpt><trkpt lat="39.30105825851415" lon="9.36974198933482"><ele>255.0</ele><time>2026-04-04T07:33:58Z</time></trkpt><trkpt lat="39.30110869299393" lon="9.369585568919938"><ele>255.0</ele><time>2026-04-04T07:33:59Z</time></trkpt><trkpt lat="39.301161553225405" lon="9.369425818773378"><ele>255.0</ele><time>2026-04-04T07:34:00Z</time></trkpt><trkpt lat="39.30121439794268" lon="9.369266745262248"><ele>254.0</ele><time>2026-04-04T07:34:01Z</time></trkpt><trkpt lat="39.3012662527389" lon="9.369107309721224"><ele>253.0</ele><time>2026-04-04T07:34:02Z</time></trkpt><trkpt lat="39.30131473577605" lon="9.368954652439209"><ele>252.0</ele><time>2026-04-04T07:34:03Z</time></trkpt><trkpt lat="39.30136185763507" lon="9.368806575761258"><ele>251.0</ele><time>2026-04-04T07:34:04Z</time></trkpt><trkpt lat="39.30140135910177" lon="9.36866280691262"><ele>251.00000000000003</ele><time>2026-04-04T07:34:05Z</time></trkpt><trkpt lat="39.30141198471372" lon="9.368533279193105"><ele>251.0</ele><time>2026-04-04T07:34:06Z</time></trkpt><trkpt lat="39.30139666670997" lon="9.368422817832254"><ele>251.0</ele><time>2026-04-04T07:34:07Z</time></trkpt><trkpt lat="39.301361710271735" lon="9.368338219953188"><ele>251.0</ele><time>2026-04-04T07:34:08Z</time></trkpt><trkpt lat="39.30130956144574" lon="9.36827351393944"><ele>251.00000000000003</ele><time>2026-04-04T07:34:09Z</time></trkpt><trkpt lat="39.30122916039547" lon="9.368211909304549"><ele>251.0</ele><time>2026-04-04T07:34:10Z</time></trkpt><trkpt lat="39.30108925752532" lon="9.36822443690048"><ele>251.0</ele><time>2026-04-04T07:34:11Z</time></trkpt><trkpt lat="39.30091287176647" lon="9.368218180595067"><ele>251.0</ele><time>2026-04-04T07:34:12Z</time></trkpt><trkpt lat="39.30070013160918" lon="9.368180661512074"><ele>251.0</ele><time>2026-04-04T07:34:13Z</time></trkpt><trkpt lat="39.30052459837723" lon="9.368159451820848"><ele>248.66666666666669</ele><time>2026-04-04T07:34:14Z</time></trkpt><trkpt lat="39.30036374729889" lon="9.36809763605588"><ele>246.33333333333331</ele><time>2026-04-04T07:34:15Z</time></trkpt><trkpt lat="39.300229083727466" lon="9.367996662798543"><ele>244.0</ele><time>2026-04-04T07:34:16Z</time></trkpt><trkpt lat="39.30014303212806" lon="9.3678101573735"><ele>244.0</ele><time>2026-04-04T07:34:17Z</time></trkpt><trkpt lat="39.30004771234475" lon="9.367607445697745"><ele>244.0</ele><time>2026-04-04T07:34:18Z</time></trkpt><trkpt lat="39.299973067504645" lon="9.367395403751129"><ele>244.0</ele><time>2026-04-04T07:34:19Z</time></trkpt><trkpt lat="39.2999487582228" lon="9.367178919948818"><ele>241.33333333333331</ele><time>2026-04-04T07:34:20Z</time></trkpt><trkpt lat="39.29995144020416" lon="9.36694780085551"><ele>238.66666666666669</ele><time>2026-04-04T07:34:21Z</time></trkpt><trkpt lat="39.29998551432825" lon="9.366707569465447"><ele>236.0</ele><time>2026-04-04T07:34:22Z</time></trkpt><trkpt lat="39.30001322950686" lon="9.366459831099537"><ele>233.66666666666669</ele><time>2026-04-04T07:34:23Z</time></trkpt><trkpt lat="39.300059571104754" lon="9.366212776724305"><ele>231.33333333333331</ele><time>2026-04-04T07:34:24Z</time></trkpt><trkpt lat="39.300100313760005" lon="9.365961933162641"><ele>229.0</ele><time>2026-04-04T07:34:25Z</time></trkpt><trkpt lat="39.30013871345718" lon="9.365714452710748"><ele>228.0</ele><time>2026-04-04T07:34:26Z</time></trkpt><trkpt lat="39.30017892257988" lon="9.365472980480927"><ele>227.0</ele><time>2026-04-04T07:34:27Z</time></trkpt><trkpt lat="39.30022048688433" lon="9.365244116905405"><ele>226.0</ele><time>2026-04-04T07:34:28Z</time></trkpt><trkpt lat="39.30025651476506" lon="9.365041249607764"><ele>226.0</ele><time>2026-04-04T07:34:29Z</time></trkpt><trkpt lat="39.30028762847229" lon="9.364862004761967"><ele>226.0</ele><time>2026-04-04T07:34:30Z</time></trkpt><trkpt lat="39.300308817839735" lon="9.364692854517564"><ele>226.0</ele><time>2026-04-04T07:34:31Z</time></trkpt><trkpt lat="39.30029943940046" lon="9.364542370900145"><ele>226.0</ele><time>2026-04-04T07:34:32Z</time></trkpt><trkpt lat="39.30025423512174" lon="9.364412310616324"><ele>226.0</ele><time>2026-04-04T07:34:33Z</time></trkpt><trkpt lat="39.3001328595081" lon="9.364335062193511"><ele>226.0</ele><time>2026-04-04T07:34:34Z</time></trkpt><trkpt lat="39.2999927156449" lon="9.364282208390225"><ele>226.0</ele><time>2026-04-04T07:34:35Z</time></trkpt><trkpt lat="39.29982882880282" lon="9.364275427709062"><ele>226.0</ele><time>2026-04-04T07:34:36Z</time></trkpt><trkpt lat="39.29965892272661" lon="9.364298302716348"><ele>222.66666666666666</ele><time>2026-04-04T07:34:37Z</time></trkpt><trkpt lat="39.2995007638563" lon="9.364369806372627"><ele>219.33333333333331</ele><time>2026-04-04T07:34:38Z</time></trkpt><trkpt lat="39.299368731919856" lon="9.364454813002178"><ele>216.0</ele><time>2026-04-04T07:34:39Z</time></trkpt><trkpt lat="39.299229598630596" lon="9.36449397132536"><ele>216.0</ele><time>2026-04-04T07:34:40Z</time></trkpt><trkpt lat="39.29909588515595" lon="9.364443611514677"><ele>216.0</ele><time>2026-04-04T07:34:41Z</time></trkpt><trkpt lat="39.2989871483596" lon="9.364399075952518"><ele>216.0</ele><time>2026-04-04T07:34:42Z</time></trkpt><trkpt lat="39.298921835629116" lon="9.364292587344298"><ele>216.0</ele><time>2026-04-04T07:34:43Z</time></trkpt><trkpt lat="39.29890117253057" lon="9.364137729630151"><ele>216.0</ele><time>2026-04-04T07:34:44Z</time></trkpt><trkpt lat="39.29893318258694" lon="9.36395908086898"><ele>216.0</ele><time>2026-04-04T07:34:45Z</time></trkpt><trkpt lat="39.29896648762656" lon="9.363771839761174"><ele>216.0</ele><time>2026-04-04T07:34:46Z</time></trkpt><trkpt lat="39.29894344298599" lon="9.363577405723166"><ele>216.0</ele><time>2026-04-04T07:34:47Z</time></trkpt><trkpt lat="39.29886532688865" lon="9.363387024536019"><ele>213.0</ele><time>2026-04-04T07:34:48Z</time></trkpt><trkpt lat="39.29879741880049" lon="9.363180897996463"><ele>210.0</ele><time>2026-04-04T07:34:49Z</time></trkpt><trkpt lat="39.298716081973424" lon="9.362977806517945"><ele>207.0</ele><time>2026-04-04T07:34:50Z</time></trkpt><trkpt lat="39.298635625279196" lon="9.362780615103965"><ele>206.66666666666669</ele><time>2026-04-04T07:34:51Z</time></trkpt><trkpt lat="39.298527164519236" lon="9.362601372560006"><ele>206.33333333333334</ele><time>2026-04-04T07:34:52Z</time></trkpt><trkpt lat="39.29840562985885" lon="9.362452585421158"><ele>206.0</ele><time>2026-04-04T07:34:53Z</time></trkpt><trkpt lat="39.29830480586934" lon="9.36230117644134"><ele>205.33333333333334</ele><time>2026-04-04T07:34:54Z</time></trkpt><trkpt lat="39.29825732362731" lon="9.3621182846176"><ele>204.66666666666669</ele><time>2026-04-04T07:34:55Z</time></trkpt><trkpt lat="39.2982224805776" lon="9.361915813098594"><ele>204.0</ele><time>2026-04-04T07:34:56Z</time></trkpt><trkpt lat="39.298173960334545" lon="9.361715290838461"><ele>204.0</ele><time>2026-04-04T07:34:57Z</time></trkpt><trkpt lat="39.29813614739626" lon="9.361516942183037"><ele>204.0</ele><time>2026-04-04T07:34:58Z</time></trkpt><trkpt lat="39.298039802931726" lon="9.36135589281934"><ele>204.0</ele><time>2026-04-04T07:34:59Z</time></trkpt><trkpt lat="39.297942658812886" lon="9.361260780920382"><ele>204.0</ele><time>2026-04-04T07:35:00Z</time></trkpt><trkpt lat="39.29779653614701" lon="9.361197493899509"><ele>202.66666666666669</ele><time>2026-04-04T07:35:01Z</time></trkpt><trkpt lat="39.29764214702914" lon="9.361153529116727"><ele>201.33333333333334</ele><time>2026-04-04T07:35:02Z</time></trkpt><trkpt lat="39.297503639804525" lon="9.361049869030369"><ele>200.0</ele><time>2026-04-04T07:35:03Z</time></trkpt><trkpt lat="39.297368863814626" lon="9.360903514616528"><ele>198.66666666666669</ele><time>2026-04-04T07:35:04Z</time></trkpt><trkpt lat="39.29722016905901" lon="9.360770109232497"><ele>197.33333333333331</ele><time>2026-04-04T07:35:05Z</time></trkpt><trkpt lat="39.297071044554535" lon="9.360610268076769"><ele>196.0</ele><time>2026-04-04T07:35:06Z</time></trkpt><trkpt lat="39.296925252976216" lon="9.360426361651909"><ele>196.0</ele><time>2026-04-04T07:35:07Z</time></trkpt><trkpt lat="39.296763869875214" lon="9.360250491019077"><ele>196.0</ele><time>2026-04-04T07:35:08Z</time></trkpt><trkpt lat="39.29660877797122" lon="9.360062442596751"><ele>196.0</ele><time>2026-04-04T07:35:09Z</time></trkpt><trkpt lat="39.296458722060436" lon="9.359858922645087"><ele>191.0</ele><time>2026-04-04T07:35:10Z</time></trkpt><trkpt lat="39.296309454998195" lon="9.359640781415044"><ele>186.0</ele><time>2026-04-04T07:35:11Z</time></trkpt><trkpt lat="39.29616829073708" lon="9.359414700934284"><ele>186.0</ele><time>2026-04-04T07:35:12Z</time></trkpt><trkpt lat="39.296032617552186" lon="9.359197397684863"><ele>186.0</ele><time>2026-04-04T07:35:13Z</time></trkpt><trkpt lat="39.295905148922195" lon="9.358990129006832"><ele>186.0</ele><time>2026-04-04T07:35:14Z</time></trkpt><trkpt lat="39.295788367219544" lon="9.358796092564434"><ele>186.0</ele><time>2026-04-04T07:35:15Z</time></trkpt><trkpt lat="39.29571378040129" lon="9.358590496742005"><ele>186.0</ele><time>2026-04-04T07:35:16Z</time></trkpt><trkpt lat="39.295654482487606" lon="9.358378603944265"><ele>186.0</ele><time>2026-04-04T07:35:17Z</time></trkpt><trkpt lat="39.29559677427105" lon="9.358171999602915"><ele>183.66666666666666</ele><time>2026-04-04T07:35:18Z</time></trkpt><trkpt lat="39.29554040256446" lon="9.357971625717678"><ele>181.33333333333331</ele><time>2026-04-04T07:35:19Z</time></trkpt><trkpt lat="39.29548082349229" lon="9.357771636929272"><ele>179.0</ele><time>2026-04-04T07:35:20Z</time></trkpt><trkpt lat="39.29541667854413" lon="9.357579196054305"><ele>179.0</ele><time>2026-04-04T07:35:21Z</time></trkpt><trkpt lat="39.29534181912002" lon="9.357416112098123"><ele>179.0</ele><time>2026-04-04T07:35:22Z</time></trkpt><trkpt lat="39.29526478827559" lon="9.35726773429642"><ele>179.0</ele><time>2026-04-04T07:35:23Z</time></trkpt><trkpt lat="39.295173858122205" lon="9.357114999983848"><ele>179.0</ele><time>2026-04-04T07:35:24Z</time></trkpt><trkpt lat="39.29507903851379" lon="9.35695428712923"><ele>179.33333333333331</ele><time>2026-04-04T07:35:25Z</time></trkpt><trkpt lat="39.29497512153261" lon="9.356794727916274"><ele>179.66666666666666</ele><time>2026-04-04T07:35:26Z</time></trkpt><trkpt lat="39.294855883238284" lon="9.356645843980022"><ele>180.0</ele><time>2026-04-04T07:35:27Z</time></trkpt><trkpt lat="39.29472568627634" lon="9.356514543346233"><ele>180.33333333333334</ele><time>2026-04-04T07:35:28Z</time></trkpt><trkpt lat="39.294593490829385" lon="9.356368323527263"><ele>180.66666666666669</ele><time>2026-04-04T07:35:29Z</time></trkpt><trkpt lat="39.29445681779588" lon="9.356235031506172"><ele>181.0</ele><time>2026-04-04T07:35:30Z</time></trkpt><trkpt lat="39.2943188148059" lon="9.356098840170626"><ele>181.0</ele><time>2026-04-04T07:35:31Z</time></trkpt><trkpt lat="39.29418337139044" lon="9.35596255388935"><ele>181.0</ele><time>2026-04-04T07:35:32Z</time></trkpt><trkpt lat="39.29405369835865" lon="9.355815833105263"><ele>181.0</ele><time>2026-04-04T07:35:33Z</time></trkpt><trkpt lat="39.29393965031513" lon="9.355651816761819"><ele>178.66666666666669</ele><time>2026-04-04T07:35:34Z</time></trkpt><trkpt lat="39.2938309559078" lon="9.35547407197556"><ele>176.33333333333334</ele><time>2026-04-04T07:35:35Z</time></trkpt><trkpt lat="39.29372771469696" lon="9.355287145515344"><ele>174.0</ele><time>2026-04-04T07:35:36Z</time></trkpt><trkpt lat="39.29362122612023" lon="9.35509784602746"><ele>174.0</ele><time>2026-04-04T07:35:37Z</time></trkpt><trkpt lat="39.29351449025441" lon="9.35490810689895"><ele>174.0</ele><time>2026-04-04T07:35:38Z</time></trkpt><trkpt lat="39.29340628052382" lon="9.354715747722267"><ele>174.0</ele><time>2026-04-04T07:35:39Z</time></trkpt><trkpt lat="39.29329756040406" lon="9.354522168082745"><ele>173.33333333333334</ele><time>2026-04-04T07:35:40Z</time></trkpt><trkpt lat="39.2931870898588" lon="9.354325400125784"><ele>172.66666666666669</ele><time>2026-04-04T07:35:41Z</time></trkpt><trkpt lat="39.293076799531754" lon="9.354128953141938"><ele>172.0</ele><time>2026-04-04T07:35:42Z</time></trkpt><trkpt lat="39.29296862208493" lon="9.353933317531759"><ele>169.33333333333334</ele><time>2026-04-04T07:35:43Z</time></trkpt><trkpt lat="39.292861355629924" lon="9.353734740228878"><ele>166.66666666666666</ele><time>2026-04-04T07:35:44Z</time></trkpt><trkpt lat="39.29274927177271" lon="9.353546016083607"><ele>164.0</ele><time>2026-04-04T07:35:45Z</time></trkpt><trkpt lat="39.292653621723424" lon="9.353340436829008"><ele>164.0</ele><time>2026-04-04T07:35:46Z</time></trkpt><trkpt lat="39.29256116695188" lon="9.353131299154127"><ele>164.0</ele><time>2026-04-04T07:35:47Z</time></trkpt><trkpt lat="39.29247295430526" lon="9.352925428989082"><ele>164.0</ele><time>2026-04-04T07:35:48Z</time></trkpt><trkpt lat="39.29238550163385" lon="9.352717148453564"><ele>163.66666666666666</ele><time>2026-04-04T07:35:49Z</time></trkpt><trkpt lat="39.292301161429634" lon="9.352508990708053"><ele>163.33333333333334</ele><time>2026-04-04T07:35:50Z</time></trkpt><trkpt lat="39.29221434834313" lon="9.352299355855791"><ele>163.0</ele><time>2026-04-04T07:35:51Z</time></trkpt><trkpt lat="39.29212979445729" lon="9.352099135971429"><ele>163.0</ele><time>2026-04-04T07:35:52Z</time></trkpt><trkpt lat="39.29203839770086" lon="9.351900908347217"><ele>163.0</ele><time>2026-04-04T07:35:53Z</time></trkpt><trkpt lat="39.291939287938824" lon="9.351704585756117"><ele>163.0</ele><time>2026-04-04T07:35:54Z</time></trkpt><trkpt lat="39.291829560336105" lon="9.351516991247703"><ele>165.0</ele><time>2026-04-04T07:35:55Z</time></trkpt><trkpt lat="39.2917121341145" lon="9.35133303327167"><ele>167.0</ele><time>2026-04-04T07:35:56Z</time></trkpt><trkpt lat="39.291609230515455" lon="9.351140225666903"><ele>169.0</ele><time>2026-04-04T07:35:57Z</time></trkpt><trkpt lat="39.291494000045425" lon="9.350956640281439"><ele>166.33333333333334</ele><time>2026-04-04T07:35:58Z</time></trkpt><trkpt lat="39.291393249921676" lon="9.350788686673667"><ele>163.66666666666666</ele><time>2026-04-04T07:35:59Z</time></trkpt><trkpt lat="39.29131083894025" lon="9.350596511347534"><ele>161.0</ele><time>2026-04-04T07:36:00Z</time></trkpt><trkpt lat="39.29129532012074" lon="9.35039116815438"><ele>160.0</ele><time>2026-04-04T07:36:01Z</time></trkpt><trkpt lat="39.29124715620211" lon="9.350224270531152"><ele>159.0</ele><time>2026-04-04T07:36:02Z</time></trkpt><trkpt lat="39.291183143533004" lon="9.350052392470632"><ele>158.0</ele><time>2026-04-04T07:36:03Z</time></trkpt><trkpt lat="39.29105501443259" lon="9.349930167135915"><ele>157.0</ele><time>2026-04-04T07:36:04Z</time></trkpt><trkpt lat="39.29090628346471" lon="9.349848498596852"><ele>157.0</ele><time>2026-04-04T07:36:05Z</time></trkpt><trkpt lat="39.29076020760425" lon="9.349764601397451"><ele>157.0</ele><time>2026-04-04T07:36:06Z</time></trkpt><trkpt lat="39.290627417965744" lon="9.349679657814717"><ele>157.0</ele><time>2026-04-04T07:36:07Z</time></trkpt><trkpt lat="39.29051195724213" lon="9.349546520284257"><ele>158.75</ele><time>2026-04-04T07:36:08Z</time></trkpt><trkpt lat="39.29039247321492" lon="9.34943285498314"><ele>160.5</ele><time>2026-04-04T07:36:09Z</time></trkpt><trkpt lat="39.290307929898226" lon="9.34927544079269"><ele>162.25</ele><time>2026-04-04T07:36:10Z</time></trkpt><trkpt lat="39.290236664126155" lon="9.349102792302915"><ele>164.0</ele><time>2026-04-04T07:36:11Z</time></trkpt><trkpt lat="39.29020953497295" lon="9.34890411508589"><ele>161.66666666666666</ele><time>2026-04-04T07:36:12Z</time></trkpt><trkpt lat="39.29018105508452" lon="9.348689343220105"><ele>159.33333333333334</ele><time>2026-04-04T07:36:13Z</time></trkpt><trkpt lat="39.29014652760448" lon="9.348467838303206"><ele>157.0</ele><time>2026-04-04T07:36:14Z</time></trkpt><trkpt lat="39.29010593785106" lon="9.34824058023626"><ele>156.0</ele><time>2026-04-04T07:36:15Z</time></trkpt><trkpt lat="39.29005784293651" lon="9.348007130639603"><ele>155.0</ele><time>2026-04-04T07:36:16Z</time></trkpt><trkpt lat="39.28999783422389" lon="9.347775719145153"><ele>154.0</ele><time>2026-04-04T07:36:17Z</time></trkpt><trkpt lat="39.28991691146659" lon="9.34754963463816"><ele>154.0</ele><time>2026-04-04T07:36:18Z</time></trkpt><trkpt lat="39.28984030689364" lon="9.34730066353369"><ele>154.0</ele><time>2026-04-04T07:36:19Z</time></trkpt><trkpt lat="39.289759479685685" lon="9.347072287209224"><ele>154.0</ele><time>2026-04-04T07:36:20Z</time></trkpt><trkpt lat="39.289672544777886" lon="9.346836605618211"><ele>154.33333333333334</ele><time>2026-04-04T07:36:21Z</time></trkpt><trkpt lat="39.289584201695405" lon="9.346598670832996"><ele>154.66666666666666</ele><time>2026-04-04T07:36:22Z</time></trkpt><trkpt lat="39.289491342508136" lon="9.346365514978462"><ele>155.0</ele><time>2026-04-04T07:36:23Z</time></trkpt><trkpt lat="39.28938545598956" lon="9.346135308790624"><ele>153.0</ele><time>2026-04-04T07:36:24Z</time></trkpt><trkpt lat="39.289267613348514" lon="9.3459164594763"><ele>151.0</ele><time>2026-04-04T07:36:25Z</time></trkpt><trkpt lat="39.28913737614338" lon="9.345711824657883"><ele>149.0</ele><time>2026-04-04T07:36:26Z</time></trkpt><trkpt lat="39.28900328520627" lon="9.345519236358488"><ele>148.33333333333331</ele><time>2026-04-04T07:36:27Z</time></trkpt><trkpt lat="39.288869850086826" lon="9.345332702409168"><ele>147.66666666666666</ele><time>2026-04-04T07:36:28Z</time></trkpt><trkpt lat="39.28874138307232" lon="9.345143263089312"><ele>147.0</ele><time>2026-04-04T07:36:29Z</time></trkpt><trkpt lat="39.288622556620965" lon="9.344949734145017"><ele>147.0</ele><time>2026-04-04T07:36:30Z</time></trkpt><trkpt lat="39.288525268860774" lon="9.344732407750097"><ele>147.0</ele><time>2026-04-04T07:36:31Z</time></trkpt><trkpt lat="39.28840901889549" lon="9.344531136340011"><ele>147.0</ele><time>2026-04-04T07:36:32Z</time></trkpt><trkpt lat="39.28832332426862" lon="9.344326102952532"><ele>145.66666666666666</ele><time>2026-04-04T07:36:33Z</time></trkpt><trkpt lat="39.28822143357216" lon="9.344126677855996"><ele>144.33333333333331</ele><time>2026-04-04T07:36:34Z</time></trkpt><trkpt lat="39.28809331026818" lon="9.343912423149746"><ele>143.0</ele><time>2026-04-04T07:36:35Z</time></trkpt><trkpt lat="39.28796043881719" lon="9.343684397838658"><ele>142.66666666666666</ele><time>2026-04-04T07:36:36Z</time></trkpt><trkpt lat="39.287860284351716" lon="9.343512519141417"><ele>142.33333333333334</ele><time>2026-04-04T07:36:37Z</time></trkpt><trkpt lat="39.28775293329902" lon="9.343320093628543"><ele>142.0</ele><time>2026-04-04T07:36:38Z</time></trkpt><trkpt lat="39.287633945309075" lon="9.343123357603165"><ele>139.66666666666669</ele><time>2026-04-04T07:36:39Z</time></trkpt><trkpt lat="39.28754642185814" lon="9.342895858278368"><ele>137.33333333333334</ele><time>2026-04-04T07:36:40Z</time></trkpt><trkpt lat="39.2874562055209" lon="9.342672750428333"><ele>135.0</ele><time>2026-04-04T07:36:41Z</time></trkpt><trkpt lat="39.287352336638705" lon="9.34245317935003"><ele>135.0</ele><time>2026-04-04T07:36:42Z</time></trkpt><trkpt lat="39.28726289925715" lon="9.342218891820808"><ele>135.0</ele><time>2026-04-04T07:36:43Z</time></trkpt><trkpt lat="39.287171858027726" lon="9.341988822737799"><ele>135.0</ele><time>2026-04-04T07:36:44Z</time></trkpt><trkpt lat="39.28708208896274" lon="9.341758853908225"><ele>134.33333333333334</ele><time>2026-04-04T07:36:45Z</time></trkpt><trkpt lat="39.28698929624035" lon="9.341526862528932"><ele>133.66666666666669</ele><time>2026-04-04T07:36:46Z</time></trkpt><trkpt lat="39.286894990597105" lon="9.341296734114898"><ele>133.0</ele><time>2026-04-04T07:36:47Z</time></trkpt><trkpt lat="39.2868030754835" lon="9.341064141920194"><ele>132.66666666666669</ele><time>2026-04-04T07:36:48Z</time></trkpt><trkpt lat="39.28671051678956" lon="9.340830671998537"><ele>132.33333333333334</ele><time>2026-04-04T07:36:49Z</time></trkpt><trkpt lat="39.28662065570426" lon="9.340596009743036"><ele>132.0</ele><time>2026-04-04T07:36:50Z</time></trkpt><trkpt lat="39.28653155543185" lon="9.340360357733259"><ele>132.0</ele><time>2026-04-04T07:36:51Z</time></trkpt><trkpt lat="39.28643544754256" lon="9.340123330844985"><ele>132.0</ele><time>2026-04-04T07:36:52Z</time></trkpt><trkpt lat="39.286337038691464" lon="9.339890477504673"><ele>132.0</ele><time>2026-04-04T07:36:53Z</time></trkpt><trkpt lat="39.2862298473929" lon="9.339662536886621"><ele>132.0</ele><time>2026-04-04T07:36:54Z</time></trkpt><trkpt lat="39.28610874147996" lon="9.339441095926274"><ele>132.0</ele><time>2026-04-04T07:36:55Z</time></trkpt><trkpt lat="39.28597282729487" lon="9.339229234515798"><ele>132.0</ele><time>2026-04-04T07:36:56Z</time></trkpt><trkpt lat="39.285838715019445" lon="9.339021010052052"><ele>133.33333333333334</ele><time>2026-04-04T07:36:57Z</time></trkpt><trkpt lat="39.28571799338822" lon="9.338798265338502"><ele>134.66666666666669</ele><time>2026-04-04T07:36:58Z</time></trkpt><trkpt lat="39.285585301360854" lon="9.33858836790606"><ele>136.0</ele><time>2026-04-04T07:36:59Z</time></trkpt><trkpt lat="39.28544199997901" lon="9.338393044543402"><ele>136.0</ele><time>2026-04-04T07:37:00Z</time></trkpt><trkpt lat="39.28531012145565" lon="9.338183152181031"><ele>136.0</ele><time>2026-04-04T07:37:01Z</time></trkpt><trkpt lat="39.28517634604769" lon="9.33797045573065"><ele>136.0</ele><time>2026-04-04T07:37:02Z</time></trkpt><trkpt lat="39.28503997406148" lon="9.337760406800875"><ele>133.33333333333334</ele><time>2026-04-04T07:37:03Z</time></trkpt><trkpt lat="39.2849033657744" lon="9.33754708760096"><ele>130.66666666666666</ele><time>2026-04-04T07:37:04Z</time></trkpt><trkpt lat="39.28477795024053" lon="9.337316768783396"><ele>128.0</ele><time>2026-04-04T07:37:05Z</time></trkpt><trkpt lat="39.28462870227226" lon="9.33711536795803"><ele>128.0</ele><time>2026-04-04T07:37:06Z</time></trkpt><trkpt lat="39.28448919938579" lon="9.33689611414002"><ele>128.0</ele><time>2026-04-04T07:37:07Z</time></trkpt><trkpt lat="39.28434878935261" lon="9.33667611545836"><ele>128.0</ele><time>2026-04-04T07:37:08Z</time></trkpt><trkpt lat="39.28421943338748" lon="9.336441112125268"><ele>126.0</ele><time>2026-04-04T07:37:09Z</time></trkpt><trkpt lat="39.284080926190754" lon="9.336223124863972"><ele>124.0</ele><time>2026-04-04T07:37:10Z</time></trkpt><trkpt lat="39.2839508293178" lon="9.336008802350873"><ele>122.0</ele><time>2026-04-04T07:37:11Z</time></trkpt><trkpt lat="39.283836734951215" lon="9.335791041390996"><ele>126.33333333333333</ele><time>2026-04-04T07:37:12Z</time></trkpt><trkpt lat="39.28374497514371" lon="9.335559634897734"><ele>130.66666666666666</ele><time>2026-04-04T07:37:13Z</time></trkpt><trkpt lat="39.28367397505796" lon="9.335308385321508"><ele>135.0</ele><time>2026-04-04T07:37:14Z</time></trkpt><trkpt lat="39.28361374168352" lon="9.335044367999142"><ele>135.0</ele><time>2026-04-04T07:37:15Z</time></trkpt><trkpt lat="39.28355299344699" lon="9.334778767254148"><ele>135.0</ele><time>2026-04-04T07:37:16Z</time></trkpt><trkpt lat="39.283477126183485" lon="9.33451291090674"><ele>135.0</ele><time>2026-04-04T07:37:17Z</time></trkpt><trkpt lat="39.28342975282055" lon="9.334239940290205"><ele>130.66666666666666</ele><time>2026-04-04T07:37:18Z</time></trkpt><trkpt lat="39.28336906889455" lon="9.333975091775486"><ele>126.33333333333333</ele><time>2026-04-04T07:37:19Z</time></trkpt><trkpt lat="39.28330784732563" lon="9.33371709517664"><ele>122.0</ele><time>2026-04-04T07:37:20Z</time></trkpt><trkpt lat="39.2832496999024" lon="9.33347100838817"><ele>120.66666666666666</ele><time>2026-04-04T07:37:21Z</time></trkpt><trkpt lat="39.283172904433975" lon="9.333235822708012"><ele>119.33333333333334</ele><time>2026-04-04T07:37:22Z</time></trkpt><trkpt lat="39.2831004308389" lon="9.332997277247888"><ele>118.0</ele><time>2026-04-04T07:37:23Z</time></trkpt><trkpt lat="39.283012996444135" lon="9.332765073961134"><ele>118.0</ele><time>2026-04-04T07:37:24Z</time></trkpt><trkpt lat="39.282912318775175" lon="9.332542863908639"><ele>118.0</ele><time>2026-04-04T07:37:25Z</time></trkpt><trkpt lat="39.282818733171894" lon="9.332319547045172"><ele>118.0</ele><time>2026-04-04T07:37:26Z</time></trkpt><trkpt lat="39.28271445107491" lon="9.33210476212511"><ele>116.66666666666667</ele><time>2026-04-04T07:37:27Z</time></trkpt><trkpt lat="39.282616911219776" lon="9.331903365598928"><ele>115.33333333333334</ele><time>2026-04-04T07:37:28Z</time></trkpt><trkpt lat="39.28252379378878" lon="9.331710390768716"><ele>114.0</ele><time>2026-04-04T07:37:29Z</time></trkpt><trkpt lat="39.28243181494074" lon="9.331519775257243"><ele>113.33333333333334</ele><time>2026-04-04T07:37:30Z</time></trkpt><trkpt lat="39.282338504215545" lon="9.331326399708228"><ele>112.66666666666667</ele><time>2026-04-04T07:37:31Z</time></trkpt><trkpt lat="39.282242379840724" lon="9.331129496426044"><ele>112.0</ele><time>2026-04-04T07:37:32Z</time></trkpt><trkpt lat="39.2821440461103" lon="9.330929871929996"><ele>112.66666666666667</ele><time>2026-04-04T07:37:33Z</time></trkpt><trkpt lat="39.282044473878855" lon="9.330726742789711"><ele>113.33333333333334</ele><time>2026-04-04T07:37:34Z</time></trkpt><trkpt lat="39.28194498753019" lon="9.330523022649059"><ele>114.0</ele><time>2026-04-04T07:37:35Z</time></trkpt><trkpt lat="39.281844950272635" lon="9.330318174389285"><ele>114.0</ele><time>2026-04-04T07:37:36Z</time></trkpt><trkpt lat="39.28174701447811" lon="9.330117629344896"><ele>114.0</ele><time>2026-04-04T07:37:37Z</time></trkpt><trkpt lat="39.28165098734739" lon="9.329920992731271"><ele>114.0</ele><time>2026-04-04T07:37:38Z</time></trkpt><trkpt lat="39.281555701758116" lon="9.329725874543298"><ele>114.33333333333334</ele><time>2026-04-04T07:37:39Z</time></trkpt><trkpt lat="39.2814626594907" lon="9.32953566359936"><ele>114.66666666666667</ele><time>2026-04-04T07:37:40Z</time></trkpt><trkpt lat="39.2813703977877" lon="9.329347150496725"><ele>115.0</ele><time>2026-04-04T07:37:41Z</time></trkpt><trkpt lat="39.281277804183254" lon="9.329157959245277"><ele>115.0</ele><time>2026-04-04T07:37:42Z</time></trkpt><trkpt lat="39.28118464966074" lon="9.328967621882775"><ele>115.0</ele><time>2026-04-04T07:37:43Z</time></trkpt><trkpt lat="39.28109103088114" lon="9.328775709820718"><ele>115.0</ele><time>2026-04-04T07:37:44Z</time></trkpt><trkpt lat="39.28099662287261" lon="9.328581107186931"><ele>113.66666666666667</ele><time>2026-04-04T07:37:45Z</time></trkpt><trkpt lat="39.280901333071256" lon="9.32838468690941"><ele>112.33333333333334</ele><time>2026-04-04T07:37:46Z</time></trkpt><trkpt lat="39.28079017397305" lon="9.328194332687225"><ele>111.0</ele><time>2026-04-04T07:37:47Z</time></trkpt><trkpt lat="39.28069215982943" lon="9.32799400957017"><ele>109.33333333333334</ele><time>2026-04-04T07:37:48Z</time></trkpt><trkpt lat="39.280602565034904" lon="9.327768838954805"><ele>107.66666666666667</ele><time>2026-04-04T07:37:49Z</time></trkpt><trkpt lat="39.2805002396811" lon="9.327557912970585"><ele>106.0</ele><time>2026-04-04T07:37:50Z</time></trkpt><trkpt lat="39.280396725881154" lon="9.327344537039213"><ele>104.66666666666667</ele><time>2026-04-04T07:37:51Z</time></trkpt><trkpt lat="39.28027893022492" lon="9.32713806854501"><ele>103.33333333333334</ele><time>2026-04-04T07:37:52Z</time></trkpt><trkpt lat="39.28017190240903" lon="9.326915521617233"><ele>102.0</ele><time>2026-04-04T07:37:53Z</time></trkpt><trkpt lat="39.28006680851094" lon="9.326706737407946"><ele>102.0</ele><time>2026-04-04T07:37:54Z</time></trkpt><trkpt lat="39.2799614711578" lon="9.326505486390516"><ele>102.0</ele><time>2026-04-04T07:37:55Z</time></trkpt><trkpt lat="39.279865315625784" lon="9.326309437572608"><ele>102.0</ele><time>2026-04-04T07:37:56Z</time></trkpt><trkpt lat="39.279776638168656" lon="9.326129095305452"><ele>101.66666666666666</ele><time>2026-04-04T07:37:57Z</time></trkpt><trkpt lat="39.27968570517012" lon="9.32595744350245"><ele>101.33333333333333</ele><time>2026-04-04T07:37:58Z</time></trkpt><trkpt lat="39.27960129121694" lon="9.325772875330944"><ele>101.0</ele><time>2026-04-04T07:37:59Z</time></trkpt><trkpt lat="39.27952656686445" lon="9.325588457625997"><ele>100.33333333333333</ele><time>2026-04-04T07:38:00Z</time></trkpt><trkpt lat="39.279438651412114" lon="9.325395057688906"><ele>99.66666666666666</ele><time>2026-04-04T07:38:01Z</time></trkpt><trkpt lat="39.279337629233474" lon="9.325201655650584"><ele>99.0</ele><time>2026-04-04T07:38:02Z</time></trkpt><trkpt lat="39.27924184842826" lon="9.325003876898805"><ele>99.0</ele><time>2026-04-04T07:38:03Z</time></trkpt><trkpt lat="39.27914890790708" lon="9.324805932334845"><ele>99.0</ele><time>2026-04-04T07:38:04Z</time></trkpt><trkpt lat="39.279050731108036" lon="9.324600262536718"><ele>99.0</ele><time>2026-04-04T07:38:05Z</time></trkpt><trkpt lat="39.27894986045073" lon="9.324389472357828"><ele>98.33333333333334</ele><time>2026-04-04T07:38:06Z</time></trkpt><trkpt lat="39.27884546917162" lon="9.324178243138626"><ele>97.66666666666667</ele><time>2026-04-04T07:38:07Z</time></trkpt><trkpt lat="39.27874057595825" lon="9.323965836129222"><ele>97.0</ele><time>2026-04-04T07:38:08Z</time></trkpt><trkpt lat="39.278633066029215" lon="9.323747164270797"><ele>95.33333333333334</ele><time>2026-04-04T07:38:09Z</time></trkpt><trkpt lat="39.2785259834059" lon="9.323528274823202"><ele>93.66666666666667</ele><time>2026-04-04T07:38:10Z</time></trkpt><trkpt lat="39.278417794873924" lon="9.323304133635197"><ele>92.0</ele><time>2026-04-04T07:38:11Z</time></trkpt><trkpt lat="39.2783136186292" lon="9.323088873076449"><ele>92.33333333333334</ele><time>2026-04-04T07:38:12Z</time></trkpt><trkpt lat="39.27821131713119" lon="9.322887550036954"><ele>92.66666666666667</ele><time>2026-04-04T07:38:13Z</time></trkpt><trkpt lat="39.27811429468022" lon="9.32269576067997"><ele>93.0</ele><time>2026-04-04T07:38:14Z</time></trkpt><trkpt lat="39.27802496389373" lon="9.32251012025643"><ele>93.0</ele><time>2026-04-04T07:38:15Z</time></trkpt><trkpt lat="39.27794563586678" lon="9.322341721544138"><ele>93.0</ele><time>2026-04-04T07:38:16Z</time></trkpt><trkpt lat="39.27786733442799" lon="9.322177555085027"><ele>93.0</ele><time>2026-04-04T07:38:17Z</time></trkpt><trkpt lat="39.27779314925529" lon="9.3220240425285"><ele>93.0</ele><time>2026-04-04T07:38:18Z</time></trkpt><trkpt lat="39.27772375030388" lon="9.321887212235255"><ele>93.0</ele><time>2026-04-04T07:38:19Z</time></trkpt><trkpt lat="39.27765684395581" lon="9.321752234268954"><ele>93.0</ele><time>2026-04-04T07:38:20Z</time></trkpt><trkpt lat="39.277596374476566" lon="9.321624541474302"><ele>93.0</ele><time>2026-04-04T07:38:21Z</time></trkpt><trkpt lat="39.27753527832398" lon="9.321498480636292"><ele>93.0</ele><time>2026-04-04T07:38:22Z</time></trkpt><trkpt lat="39.277472804048564" lon="9.321374208289773"><ele>92.25</ele><time>2026-04-04T07:38:23Z</time></trkpt><trkpt lat="39.277410237766226" lon="9.32124638346432"><ele>91.5</ele><time>2026-04-04T07:38:24Z</time></trkpt><trkpt lat="39.27734551937673" lon="9.321105291251111"><ele>90.75</ele><time>2026-04-04T07:38:25Z</time></trkpt><trkpt lat="39.27727985254307" lon="9.320964834581071"><ele>90.0</ele><time>2026-04-04T07:38:26Z</time></trkpt><trkpt lat="39.277209815644405" lon="9.320817027684964"><ele>89.75</ele><time>2026-04-04T07:38:27Z</time></trkpt><trkpt lat="39.27713649361176" lon="9.320664907245675"><ele>89.5</ele><time>2026-04-04T07:38:28Z</time></trkpt><trkpt lat="39.27706157658159" lon="9.320507094936959"><ele>89.25</ele><time>2026-04-04T07:38:29Z</time></trkpt><trkpt lat="39.27698453249619" lon="9.320341997225112"><ele>89.0</ele><time>2026-04-04T07:38:30Z</time></trkpt><trkpt lat="39.27690357363539" lon="9.320178838465834"><ele>88.66666666666667</ele><time>2026-04-04T07:38:31Z</time></trkpt><trkpt lat="39.27681733410751" lon="9.320009302653848"><ele>88.33333333333333</ele><time>2026-04-04T07:38:32Z</time></trkpt><trkpt lat="39.27673695647022" lon="9.319831460285338"><ele>88.0</ele><time>2026-04-04T07:38:33Z</time></trkpt><trkpt lat="39.276642929801724" lon="9.319652185587227"><ele>88.0</ele><time>2026-04-04T07:38:34Z</time></trkpt><trkpt lat="39.27655579769358" lon="9.319463756094532"><ele>88.0</ele><time>2026-04-04T07:38:35Z</time></trkpt><trkpt lat="39.27646329200169" lon="9.319278153326605"><ele>88.0</ele><time>2026-04-04T07:38:36Z</time></trkpt><trkpt lat="39.276372698751274" lon="9.319093023368296"><ele>87.66666666666666</ele><time>2026-04-04T07:38:37Z</time></trkpt><trkpt lat="39.2762836686547" lon="9.31890685364153"><ele>87.33333333333333</ele><time>2026-04-04T07:38:38Z</time></trkpt><trkpt lat="39.276192500169685" lon="9.318717985192654"><ele>87.0</ele><time>2026-04-04T07:38:39Z</time></trkpt><trkpt lat="39.27610215633643" lon="9.318531764356216"><ele>87.0</ele><time>2026-04-04T07:38:40Z</time></trkpt><trkpt lat="39.27600978468586" lon="9.318345596338267"><ele>87.0</ele><time>2026-04-04T07:38:41Z</time></trkpt><trkpt lat="39.275938408049726" lon="9.318146971769467"><ele>87.0</ele><time>2026-04-04T07:38:42Z</time></trkpt><trkpt lat="39.27584869771419" lon="9.317962543091102"><ele>86.33333333333333</ele><time>2026-04-04T07:38:43Z</time></trkpt><trkpt lat="39.275758984826396" lon="9.317775657096357"><ele>85.66666666666666</ele><time>2026-04-04T07:38:44Z</time></trkpt><trkpt lat="39.27565535453683" lon="9.317600148167935"><ele>85.0</ele><time>2026-04-04T07:38:45Z</time></trkpt><trkpt lat="39.27558109519542" lon="9.317405086218267"><ele>84.66666666666666</ele><time>2026-04-04T07:38:46Z</time></trkpt><trkpt lat="39.27549149205478" lon="9.317218676921748"><ele>84.33333333333333</ele><time>2026-04-04T07:38:47Z</time></trkpt><trkpt lat="39.27540509230804" lon="9.317036225332867"><ele>84.0</ele><time>2026-04-04T07:38:48Z</time></trkpt><trkpt lat="39.27531966521845" lon="9.316853034702113"><ele>84.0</ele><time>2026-04-04T07:38:49Z</time></trkpt><trkpt lat="39.27524043930802" lon="9.316668462980891"><ele>84.0</ele><time>2026-04-04T07:38:50Z</time></trkpt><trkpt lat="39.27516067746864" lon="9.316481648300826"><ele>84.0</ele><time>2026-04-04T07:38:51Z</time></trkpt><trkpt lat="39.27508405972541" lon="9.316288251570464"><ele>83.33333333333333</ele><time>2026-04-04T07:38:52Z</time></trkpt><trkpt lat="39.27500979913765" lon="9.316098469634335"><ele>82.66666666666666</ele><time>2026-04-04T07:38:53Z</time></trkpt><trkpt lat="39.274934105627494" lon="9.315901204994885"><ele>82.0</ele><time>2026-04-04T07:38:54Z</time></trkpt><trkpt lat="39.27485759419393" lon="9.315701808734966"><ele>81.33333333333333</ele><time>2026-04-04T07:38:55Z</time></trkpt><trkpt lat="39.274784174304685" lon="9.3155097483209"><ele>80.66666666666667</ele><time>2026-04-04T07:38:56Z</time></trkpt><trkpt lat="39.274710723430836" lon="9.315315995822939"><ele>80.0</ele><time>2026-04-04T07:38:57Z</time></trkpt><trkpt lat="39.274635799297535" lon="9.315118357122138"><ele>82.0</ele><time>2026-04-04T07:38:58Z</time></trkpt><trkpt lat="39.27454704645783" lon="9.314931883969406"><ele>84.0</ele><time>2026-04-04T07:38:59Z</time></trkpt><trkpt lat="39.27448618135025" lon="9.314723687235784"><ele>86.0</ele><time>2026-04-04T07:39:00Z</time></trkpt><trkpt lat="39.27441036778116" lon="9.314524848339156"><ele>86.33333333333334</ele><time>2026-04-04T07:39:01Z</time></trkpt><trkpt lat="39.27433416322521" lon="9.314325558110113"><ele>86.66666666666667</ele><time>2026-04-04T07:39:02Z</time></trkpt><trkpt lat="39.27425692602004" lon="9.314123567306982"><ele>87.0</ele><time>2026-04-04T07:39:03Z</time></trkpt><trkpt lat="39.2741782621972" lon="9.31391927356791"><ele>84.0</ele><time>2026-04-04T07:39:04Z</time></trkpt><trkpt lat="39.27409802842026" lon="9.313713099065158"><ele>81.0</ele><time>2026-04-04T07:39:05Z</time></trkpt><trkpt lat="39.27400545330084" lon="9.31351574330442"><ele>78.0</ele><time>2026-04-04T07:39:06Z</time></trkpt><trkpt lat="39.27392366145138" lon="9.313308798782474"><ele>79.33333333333333</ele><time>2026-04-04T07:39:07Z</time></trkpt><trkpt lat="39.27384973344424" lon="9.31309455773603"><ele>80.66666666666666</ele><time>2026-04-04T07:39:08Z</time></trkpt><trkpt lat="39.273746786886214" lon="9.312890459288266"><ele>82.0</ele><time>2026-04-04T07:39:09Z</time></trkpt><trkpt lat="39.27363048055183" lon="9.312699544295917"><ele>82.0</ele><time>2026-04-04T07:39:10Z</time></trkpt><trkpt lat="39.27349057754646" lon="9.312529856567664"><ele>82.0</ele><time>2026-04-04T07:39:11Z</time></trkpt><trkpt lat="39.273371549778986" lon="9.312328422207697"><ele>82.0</ele><time>2026-04-04T07:39:12Z</time></trkpt><trkpt lat="39.27324066069604" lon="9.312145153327611"><ele>81.66666666666666</ele><time>2026-04-04T07:39:13Z</time></trkpt><trkpt lat="39.27310358452004" lon="9.311959527772228"><ele>81.33333333333333</ele><time>2026-04-04T07:39:14Z</time></trkpt><trkpt lat="39.27295857914128" lon="9.31178403936308"><ele>81.0</ele><time>2026-04-04T07:39:15Z</time></trkpt><trkpt lat="39.27280924520198" lon="9.311612871751695"><ele>81.0</ele><time>2026-04-04T07:39:16Z</time></trkpt><trkpt lat="39.27266080570035" lon="9.311442949371518"><ele>81.0</ele><time>2026-04-04T07:39:17Z</time></trkpt><trkpt lat="39.27251267196768" lon="9.31127430964283"><ele>81.0</ele><time>2026-04-04T07:39:18Z</time></trkpt><trkpt lat="39.27236679879655" lon="9.311108243354607"><ele>80.0</ele><time>2026-04-04T07:39:19Z</time></trkpt><trkpt lat="39.27222078853278" lon="9.310941434365347"><ele>79.0</ele><time>2026-04-04T07:39:20Z</time></trkpt><trkpt lat="39.272065690576376" lon="9.310792332779945"><ele>78.0</ele><time>2026-04-04T07:39:21Z</time></trkpt><trkpt lat="39.27192257262765" lon="9.310626805669692"><ele>77.0</ele><time>2026-04-04T07:39:22Z</time></trkpt><trkpt lat="39.27177800206164" lon="9.310462336638922"><ele>76.0</ele><time>2026-04-04T07:39:23Z</time></trkpt><trkpt lat="39.2716464055098" lon="9.310282409654924"><ele>75.0</ele><time>2026-04-04T07:39:24Z</time></trkpt><trkpt lat="39.271505236180396" lon="9.310118655406175"><ele>76.0</ele><time>2026-04-04T07:39:25Z</time></trkpt><trkpt lat="39.27136499588304" lon="9.30995764887857"><ele>77.0</ele><time>2026-04-04T07:39:26Z</time></trkpt><trkpt lat="39.27120622943964" lon="9.30982074635505"><ele>78.0</ele><time>2026-04-04T07:39:27Z</time></trkpt><trkpt lat="39.27103974822439" lon="9.309689236511348"><ele>75.66666666666667</ele><time>2026-04-04T07:39:28Z</time></trkpt><trkpt lat="39.270859162122505" lon="9.30959469557896"><ele>73.33333333333334</ele><time>2026-04-04T07:39:29Z</time></trkpt><trkpt lat="39.27069729959887" lon="9.309504927684827"><ele>71.0</ele><time>2026-04-04T07:39:30Z</time></trkpt><trkpt lat="39.270522159591735" lon="9.309431642573903"><ele>71.0</ele><time>2026-04-04T07:39:31Z</time></trkpt><trkpt lat="39.270336757272155" lon="9.309354276158048"><ele>71.0</ele><time>2026-04-04T07:39:32Z</time></trkpt><trkpt lat="39.2701449625335" lon="9.309274399495385"><ele>71.0</ele><time>2026-04-04T07:39:33Z</time></trkpt><trkpt lat="39.26995103443475" lon="9.309193424094603"><ele>71.0</ele><time>2026-04-04T07:39:34Z</time></trkpt><trkpt lat="39.26979112208164" lon="9.309142441686076"><ele>71.0</ele><time>2026-04-04T07:39:35Z</time></trkpt><trkpt lat="39.26959816007669" lon="9.309068116097961"><ele>71.0</ele><time>2026-04-04T07:39:36Z</time></trkpt><trkpt lat="39.26941516320712" lon="9.308969669057047"><ele>69.66666666666667</ele><time>2026-04-04T07:39:37Z</time></trkpt><trkpt lat="39.269228851072654" lon="9.308891873720299"><ele>68.33333333333333</ele><time>2026-04-04T07:39:38Z</time></trkpt><trkpt lat="39.26904857828776" lon="9.308814805162163"><ele>67.0</ele><time>2026-04-04T07:39:39Z</time></trkpt><trkpt lat="39.26886475127615" lon="9.308756538792089"><ele>66.66666666666666</ele><time>2026-04-04T07:39:40Z</time></trkpt><trkpt lat="39.26868605074287" lon="9.308666594333381"><ele>66.33333333333333</ele><time>2026-04-04T07:39:41Z</time></trkpt><trkpt lat="39.26850538893713" lon="9.30857138664059"><ele>66.0</ele><time>2026-04-04T07:39:42Z</time></trkpt><trkpt lat="39.26832896239661" lon="9.308474053852741"><ele>66.0</ele><time>2026-04-04T07:39:43Z</time></trkpt><trkpt lat="39.26815628923257" lon="9.308375055681276"><ele>66.0</ele><time>2026-04-04T07:39:44Z</time></trkpt><trkpt lat="39.26798573428985" lon="9.308278443400408"><ele>66.0</ele><time>2026-04-04T07:39:45Z</time></trkpt><trkpt lat="39.26782203599082" lon="9.308189802764693"><ele>66.0</ele><time>2026-04-04T07:39:46Z</time></trkpt><trkpt lat="39.26767287033318" lon="9.308090321765265"><ele>66.0</ele><time>2026-04-04T07:39:47Z</time></trkpt><trkpt lat="39.267523866335104" lon="9.30800813242303"><ele>66.0</ele><time>2026-04-04T07:39:48Z</time></trkpt><trkpt lat="39.26737975182559" lon="9.307928535223324"><ele>66.33333333333333</ele><time>2026-04-04T07:39:49Z</time></trkpt><trkpt lat="39.26723805613609" lon="9.307849377171962"><ele>66.66666666666666</ele><time>2026-04-04T07:39:50Z</time></trkpt><trkpt lat="39.267092849933356" lon="9.307763273676468"><ele>67.0</ele><time>2026-04-04T07:39:51Z</time></trkpt><trkpt lat="39.26694541412471" lon="9.307669791387713"><ele>67.0</ele><time>2026-04-04T07:39:52Z</time></trkpt><trkpt lat="39.26679639123001" lon="9.307561292219022"><ele>67.0</ele><time>2026-04-04T07:39:53Z</time></trkpt><trkpt lat="39.26664951852508" lon="9.307441027147279"><ele>67.0</ele><time>2026-04-04T07:39:54Z</time></trkpt><trkpt lat="39.26650321843682" lon="9.307312349372609"><ele>65.0</ele><time>2026-04-04T07:39:55Z</time></trkpt><trkpt lat="39.26635600837716" lon="9.307182871254975"><ele>63.0</ele><time>2026-04-04T07:39:56Z</time></trkpt><trkpt lat="39.266210959314456" lon="9.307052510307852"><ele>61.0</ele><time>2026-04-04T07:39:57Z</time></trkpt><trkpt lat="39.266064667317735" lon="9.306921531599356"><ele>61.0</ele><time>2026-04-04T07:39:58Z</time></trkpt><trkpt lat="39.265915265460805" lon="9.306789169833149"><ele>61.0</ele><time>2026-04-04T07:39:59Z</time></trkpt><trkpt lat="39.26576682908755" lon="9.306658577241192"><ele>61.0</ele><time>2026-04-04T07:40:00Z</time></trkpt><trkpt lat="39.265616663237644" lon="9.306524074841784"><ele>60.33333333333333</ele><time>2026-04-04T07:40:01Z</time></trkpt><trkpt lat="39.265462865030926" lon="9.306386318965101"><ele>59.66666666666667</ele><time>2026-04-04T07:40:02Z</time></trkpt><trkpt lat="39.265313380978725" lon="9.306252856193733"><ele>59.0</ele><time>2026-04-04T07:40:03Z</time></trkpt><trkpt lat="39.26516019420781" lon="9.306115910041566"><ele>59.0</ele><time>2026-04-04T07:40:04Z</time></trkpt><trkpt lat="39.265015801450396" lon="9.305985723613281"><ele>59.0</ele><time>2026-04-04T07:40:05Z</time></trkpt><trkpt lat="39.264877806461705" lon="9.305861305497775"><ele>59.0</ele><time>2026-04-04T07:40:06Z</time></trkpt><trkpt lat="39.26474528823756" lon="9.305741825297916"><ele>59.0</ele><time>2026-04-04T07:40:07Z</time></trkpt><trkpt lat="39.26461748188908" lon="9.30562659339357"><ele>59.0</ele><time>2026-04-04T07:40:08Z</time></trkpt><trkpt lat="39.26449760736293" lon="9.3055185129266"><ele>59.0</ele><time>2026-04-04T07:40:09Z</time></trkpt><trkpt lat="39.26438244069109" lon="9.305414677122013"><ele>59.0</ele><time>2026-04-04T07:40:10Z</time></trkpt><trkpt lat="39.26427252287606" lon="9.305315153138952"><ele>58.75</ele><time>2026-04-04T07:40:11Z</time></trkpt><trkpt lat="39.26416317663738" lon="9.305216512431915"><ele>58.5</ele><time>2026-04-04T07:40:12Z</time></trkpt><trkpt lat="39.26405978358569" lon="9.305122724335032"><ele>58.25</ele><time>2026-04-04T07:40:13Z</time></trkpt><trkpt lat="39.26395178849915" lon="9.305046827378025"><ele>58.0</ele><time>2026-04-04T07:40:14Z</time></trkpt><trkpt lat="39.2638597551186" lon="9.304944490071092"><ele>57.8</ele><time>2026-04-04T07:40:15Z</time></trkpt><trkpt lat="39.26379723710664" lon="9.30481533861622"><ele>57.599999999999994</ele><time>2026-04-04T07:40:16Z</time></trkpt><trkpt lat="39.26374452549392" lon="9.304688364223827"><ele>57.400000000000006</ele><time>2026-04-04T07:40:17Z</time></trkpt><trkpt lat="39.26371142304549" lon="9.304555692221347"><ele>57.2</ele><time>2026-04-04T07:40:18Z</time></trkpt><trkpt lat="39.2637016398079" lon="9.304414135891523"><ele>57.0</ele><time>2026-04-04T07:40:19Z</time></trkpt><trkpt lat="39.263701863432765" lon="9.304276792779586"><ele>57.0</ele><time>2026-04-04T07:40:20Z</time></trkpt><trkpt lat="39.26370561212338" lon="9.304138320086258"><ele>57.0</ele><time>2026-04-04T07:40:21Z</time></trkpt><trkpt lat="39.263711018935275" lon="9.304001064017536"><ele>57.0</ele><time>2026-04-04T07:40:22Z</time></trkpt><trkpt lat="39.263718320907074" lon="9.30385651332812"><ele>57.0</ele><time>2026-04-04T07:40:23Z</time></trkpt><trkpt lat="39.26370795512281" lon="9.303704645054902"><ele>57.0</ele><time>2026-04-04T07:40:24Z</time></trkpt><trkpt lat="39.263710194774376" lon="9.303554047892852"><ele>57.0</ele><time>2026-04-04T07:40:25Z</time></trkpt><trkpt lat="39.263710708846176" lon="9.303406842520372"><ele>57.0</ele><time>2026-04-04T07:40:26Z</time></trkpt><trkpt lat="39.26369257149331" lon="9.30326070592477"><ele>57.0</ele><time>2026-04-04T07:40:27Z</time></trkpt><trkpt lat="39.26364410975565" lon="9.303103282040013"><ele>57.0</ele><time>2026-04-04T07:40:28Z</time></trkpt><trkpt lat="39.26358399119376" lon="9.302933305074713"><ele>57.0</ele><time>2026-04-04T07:40:29Z</time></trkpt><trkpt lat="39.263487035171245" lon="9.3027839278718"><ele>57.0</ele><time>2026-04-04T07:40:30Z</time></trkpt><trkpt lat="39.26339638237698" lon="9.302628013392786"><ele>57.0</ele><time>2026-04-04T07:40:31Z</time></trkpt><trkpt lat="39.263328209814" lon="9.302469948059503"><ele>57.0</ele><time>2026-04-04T07:40:32Z</time></trkpt><trkpt lat="39.263246452876736" lon="9.302323735759664"><ele>57.5</ele><time>2026-04-04T07:40:33Z</time></trkpt><trkpt lat="39.26316283846311" lon="9.302174201576078"><ele>58.0</ele><time>2026-04-04T07:40:34Z</time></trkpt><trkpt lat="39.26307813264925" lon="9.3020227155617"><ele>58.5</ele><time>2026-04-04T07:40:35Z</time></trkpt><trkpt lat="39.26299312085702" lon="9.301870682341178"><ele>59.0</ele><time>2026-04-04T07:40:36Z</time></trkpt><trkpt lat="39.26290782215048" lon="9.301718136012834"><ele>59.0</ele><time>2026-04-04T07:40:37Z</time></trkpt><trkpt lat="39.262825024325146" lon="9.301570062209711"><ele>59.0</ele><time>2026-04-04T07:40:38Z</time></trkpt><trkpt lat="39.26274190406993" lon="9.30142141177083"><ele>59.0</ele><time>2026-04-04T07:40:39Z</time></trkpt><trkpt lat="39.26265800003637" lon="9.30127135964082"><ele>59.0</ele><time>2026-04-04T07:40:40Z</time></trkpt><trkpt lat="39.262573166913945" lon="9.301119176711564"><ele>60.66666666666667</ele><time>2026-04-04T07:40:41Z</time></trkpt><trkpt lat="39.26248508130078" lon="9.30096010880263"><ele>62.33333333333333</ele><time>2026-04-04T07:40:42Z</time></trkpt><trkpt lat="39.262395229020605" lon="9.300797850591026"><ele>64.0</ele><time>2026-04-04T07:40:43Z</time></trkpt><trkpt lat="39.26230354816263" lon="9.300632290072084"><ele>62.33333333333333</ele><time>2026-04-04T07:40:44Z</time></trkpt><trkpt lat="39.2622095399512" lon="9.30046214351946"><ele>60.66666666666667</ele><time>2026-04-04T07:40:45Z</time></trkpt><trkpt lat="39.26209242501933" lon="9.300308816521609"><ele>59.0</ele><time>2026-04-04T07:40:46Z</time></trkpt><trkpt lat="39.26199844113239" lon="9.300135898372856"><ele>59.0</ele><time>2026-04-04T07:40:47Z</time></trkpt><trkpt lat="39.26190266092207" lon="9.299956589431709"><ele>59.0</ele><time>2026-04-04T07:40:48Z</time></trkpt><trkpt lat="39.26180738727112" lon="9.299782491986598"><ele>59.0</ele><time>2026-04-04T07:40:49Z</time></trkpt><trkpt lat="39.26172879309247" lon="9.299592679862588"><ele>60.0</ele><time>2026-04-04T07:40:50Z</time></trkpt><trkpt lat="39.261635490976836" lon="9.299422310816626"><ele>61.0</ele><time>2026-04-04T07:40:51Z</time></trkpt><trkpt lat="39.26154650237909" lon="9.299250740474177"><ele>62.0</ele><time>2026-04-04T07:40:52Z</time></trkpt><trkpt lat="39.261462139680766" lon="9.299077666259931"><ele>62.333333333333336</ele><time>2026-04-04T07:40:53Z</time></trkpt><trkpt lat="39.26137092765514" lon="9.29890344822602"><ele>62.66666666666667</ele><time>2026-04-04T07:40:54Z</time></trkpt><trkpt lat="39.26131395345409" lon="9.298707616382083"><ele>63.0</ele><time>2026-04-04T07:40:55Z</time></trkpt><trkpt lat="39.261268203030376" lon="9.298506896723882"><ele>63.0</ele><time>2026-04-04T07:40:56Z</time></trkpt><trkpt lat="39.26123312055517" lon="9.29830484987932"><ele>63.0</ele><time>2026-04-04T07:40:57Z</time></trkpt><trkpt lat="39.26120617769647" lon="9.298106355752742"><ele>63.0</ele><time>2026-04-04T07:40:58Z</time></trkpt><trkpt lat="39.261171793136356" lon="9.297904974863554"><ele>64.0</ele><time>2026-04-04T07:40:59Z</time></trkpt><trkpt lat="39.2611329107657" lon="9.29769940350972"><ele>65.0</ele><time>2026-04-04T07:41:00Z</time></trkpt><trkpt lat="39.26111398532327" lon="9.297491637484995"><ele>66.0</ele><time>2026-04-04T07:41:01Z</time></trkpt><trkpt lat="39.261080909287955" lon="9.297288735566989"><ele>66.0</ele><time>2026-04-04T07:41:02Z</time></trkpt><trkpt lat="39.26102984820847" lon="9.297082300679435"><ele>66.0</ele><time>2026-04-04T07:41:03Z</time></trkpt><trkpt lat="39.2609993067195" lon="9.296876749017402"><ele>66.0</ele><time>2026-04-04T07:41:04Z</time></trkpt><trkpt lat="39.260965770142384" lon="9.296663333537825"><ele>66.0</ele><time>2026-04-04T07:41:05Z</time></trkpt><trkpt lat="39.26093439750795" lon="9.296457994031414"><ele>66.0</ele><time>2026-04-04T07:41:06Z</time></trkpt><trkpt lat="39.26089959225636" lon="9.2962521743677"><ele>66.0</ele><time>2026-04-04T07:41:07Z</time></trkpt><trkpt lat="39.26088500372883" lon="9.296053893802709"><ele>66.25</ele><time>2026-04-04T07:41:08Z</time></trkpt><trkpt lat="39.26085407800683" lon="9.295856797493217"><ele>66.5</ele><time>2026-04-04T07:41:09Z</time></trkpt><trkpt lat="39.2608232516178" lon="9.295670632233794"><ele>66.75</ele><time>2026-04-04T07:41:10Z</time></trkpt><trkpt lat="39.26077694963878" lon="9.295491521800962"><ele>67.0</ele><time>2026-04-04T07:41:11Z</time></trkpt><trkpt lat="39.26076175525959" lon="9.295297358009512"><ele>67.0</ele><time>2026-04-04T07:41:12Z</time></trkpt><trkpt lat="39.26073084520676" lon="9.295108973072049"><ele>67.0</ele><time>2026-04-04T07:41:13Z</time></trkpt><trkpt lat="39.260700667305436" lon="9.294925050293056"><ele>67.0</ele><time>2026-04-04T07:41:14Z</time></trkpt><trkpt lat="39.260671294373665" lon="9.294746033521537"><ele>67.0</ele><time>2026-04-04T07:41:15Z</time></trkpt><trkpt lat="39.26064112174354" lon="9.294562142860597"><ele>66.25</ele><time>2026-04-04T07:41:16Z</time></trkpt><trkpt lat="39.26061118095957" lon="9.294378988791532"><ele>65.5</ele><time>2026-04-04T07:41:17Z</time></trkpt><trkpt lat="39.26058047757977" lon="9.294189308159703"><ele>64.75</ele><time>2026-04-04T07:41:18Z</time></trkpt><trkpt lat="39.26055083872724" lon="9.294006203908783"><ele>64.0</ele><time>2026-04-04T07:41:19Z</time></trkpt><trkpt lat="39.260521757788965" lon="9.2938275264162"><ele>64.0</ele><time>2026-04-04T07:41:20Z</time></trkpt><trkpt lat="39.26049124692345" lon="9.293640067645534"><ele>64.0</ele><time>2026-04-04T07:41:21Z</time></trkpt><trkpt lat="39.26046051419883" lon="9.293451245763368"><ele>64.0</ele><time>2026-04-04T07:41:22Z</time></trkpt><trkpt lat="39.260429027807454" lon="9.293257793362322"><ele>64.0</ele><time>2026-04-04T07:41:23Z</time></trkpt><trkpt lat="39.2603972787386" lon="9.29306272710893"><ele>64.0</ele><time>2026-04-04T07:41:24Z</time></trkpt><trkpt lat="39.26036531768008" lon="9.292866358352267"><ele>64.0</ele><time>2026-04-04T07:41:25Z</time></trkpt><trkpt lat="39.260333319227" lon="9.292669759859834"><ele>64.0</ele><time>2026-04-04T07:41:26Z</time></trkpt><trkpt lat="39.26030113388902" lon="9.292472013139058"><ele>64.0</ele><time>2026-04-04T07:41:27Z</time></trkpt><trkpt lat="39.26026864711945" lon="9.292272414433368"><ele>64.0</ele><time>2026-04-04T07:41:28Z</time></trkpt><trkpt lat="39.26023578714442" lon="9.292070522738525"><ele>65.0</ele><time>2026-04-04T07:41:29Z</time></trkpt><trkpt lat="39.26020289990319" lon="9.291868462752724"><ele>66.0</ele><time>2026-04-04T07:41:30Z</time></trkpt><trkpt lat="39.26016869997392" lon="9.29165726092674"><ele>67.0</ele><time>2026-04-04T07:41:31Z</time></trkpt><trkpt lat="39.26013455451375" lon="9.291446644092016"><ele>68.0</ele><time>2026-04-04T07:41:32Z</time></trkpt><trkpt lat="39.260099920057364" lon="9.291233010549467"><ele>69.0</ele><time>2026-04-04T07:41:33Z</time></trkpt><trkpt lat="39.26006848755408" lon="9.29102779575163"><ele>70.0</ele><time>2026-04-04T07:41:34Z</time></trkpt><trkpt lat="39.260046294992016" lon="9.29082199608663"><ele>70.0</ele><time>2026-04-04T07:41:35Z</time></trkpt><trkpt lat="39.26003852539866" lon="9.290616138905136"><ele>70.0</ele><time>2026-04-04T07:41:36Z</time></trkpt><trkpt lat="39.260043330541286" lon="9.290404562929938"><ele>70.0</ele><time>2026-04-04T07:41:37Z</time></trkpt><trkpt lat="39.26004515660504" lon="9.290189555416077"><ele>70.33333333333333</ele><time>2026-04-04T07:41:38Z</time></trkpt><trkpt lat="39.260072699818544" lon="9.289973096631838"><ele>70.66666666666667</ele><time>2026-04-04T07:41:39Z</time></trkpt><trkpt lat="39.26010552063023" lon="9.289757960766414"><ele>71.0</ele><time>2026-04-04T07:41:40Z</time></trkpt><trkpt lat="39.26013894407439" lon="9.289543592925616"><ele>70.33333333333334</ele><time>2026-04-04T07:41:41Z</time></trkpt><trkpt lat="39.260171221179924" lon="9.289330371565061"><ele>69.66666666666667</ele><time>2026-04-04T07:41:42Z</time></trkpt><trkpt lat="39.26020290085881" lon="9.28911382470649"><ele>69.0</ele><time>2026-04-04T07:41:43Z</time></trkpt><trkpt lat="39.260251629461976" lon="9.288904239762434"><ele>68.66666666666667</ele><time>2026-04-04T07:41:44Z</time></trkpt><trkpt lat="39.260284975101655" lon="9.288690018278436"><ele>68.33333333333334</ele><time>2026-04-04T07:41:45Z</time></trkpt><trkpt lat="39.2603033894491" lon="9.288470305193886"><ele>68.0</ele><time>2026-04-04T07:41:46Z</time></trkpt><trkpt lat="39.260337987234614" lon="9.288253584183972"><ele>67.66666666666667</ele><time>2026-04-04T07:41:47Z</time></trkpt><trkpt lat="39.26037301139595" lon="9.288034723000617"><ele>67.33333333333333</ele><time>2026-04-04T07:41:48Z</time></trkpt><trkpt lat="39.2604069185128" lon="9.28781524087621"><ele>67.0</ele><time>2026-04-04T07:41:49Z</time></trkpt><trkpt lat="39.26044006331818" lon="9.287591520227243"><ele>67.0</ele><time>2026-04-04T07:41:50Z</time></trkpt><trkpt lat="39.260487262167466" lon="9.28736970133812"><ele>67.0</ele><time>2026-04-04T07:41:51Z</time></trkpt><trkpt lat="39.26049582340894" lon="9.287144708827674"><ele>67.0</ele><time>2026-04-04T07:41:52Z</time></trkpt><trkpt lat="39.260498443875036" lon="9.286927059321847"><ele>67.66666666666666</ele><time>2026-04-04T07:41:53Z</time></trkpt><trkpt lat="39.260500559689675" lon="9.28671928930837"><ele>68.33333333333333</ele><time>2026-04-04T07:41:54Z</time></trkpt><trkpt lat="39.26044992034411" lon="9.286512067812245"><ele>69.0</ele><time>2026-04-04T07:41:55Z</time></trkpt><trkpt lat="39.260375664251725" lon="9.286326165594602"><ele>69.0</ele><time>2026-04-04T07:41:56Z</time></trkpt><trkpt lat="39.26032418279419" lon="9.286130251141058"><ele>69.0</ele><time>2026-04-04T07:41:57Z</time></trkpt><trkpt lat="39.260276756115076" lon="9.285929509080306"><ele>69.0</ele><time>2026-04-04T07:41:58Z</time></trkpt><trkpt lat="39.26023079997669" lon="9.285731716694285"><ele>68.66666666666667</ele><time>2026-04-04T07:41:59Z</time></trkpt><trkpt lat="39.260182640015124" lon="9.285533080124798"><ele>68.33333333333334</ele><time>2026-04-04T07:42:00Z</time></trkpt><trkpt lat="39.26013404118177" lon="9.285339082379531"><ele>68.0</ele><time>2026-04-04T07:42:01Z</time></trkpt><trkpt lat="39.26011155760058" lon="9.285138631515546"><ele>68.0</ele><time>2026-04-04T07:42:02Z</time></trkpt><trkpt lat="39.260064991896556" lon="9.284946616416157"><ele>68.0</ele><time>2026-04-04T07:42:03Z</time></trkpt><trkpt lat="39.26001849783092" lon="9.284754896786616"><ele>68.0</ele><time>2026-04-04T07:42:04Z</time></trkpt><trkpt lat="39.25997277256394" lon="9.284566347309406"><ele>68.0</ele><time>2026-04-04T07:42:05Z</time></trkpt><trkpt lat="39.25993006464059" lon="9.2843902399125"><ele>68.0</ele><time>2026-04-04T07:42:06Z</time></trkpt><trkpt lat="39.25989060765322" lon="9.28422753781012"><ele>68.0</ele><time>2026-04-04T07:42:07Z</time></trkpt><trkpt lat="39.259851792155764" lon="9.284067481002142"><ele>68.0</ele><time>2026-04-04T07:42:08Z</time></trkpt><trkpt lat="39.25981366149551" lon="9.283910247826096"><ele>66.25</ele><time>2026-04-04T07:42:09Z</time></trkpt><trkpt lat="39.25977481619067" lon="9.283753285815894"><ele>64.5</ele><time>2026-04-04T07:42:10Z</time></trkpt><trkpt lat="39.259735403948454" lon="9.283593625680684"><ele>62.75</ele><time>2026-04-04T07:42:11Z</time></trkpt><trkpt lat="39.25969499642975" lon="9.28342994248397"><ele>61.0</ele><time>2026-04-04T07:42:12Z</time></trkpt><trkpt lat="39.25965376784329" lon="9.283263060098133"><ele>61.0</ele><time>2026-04-04T07:42:13Z</time></trkpt><trkpt lat="39.25961069648039" lon="9.283088718645823"><ele>61.0</ele><time>2026-04-04T07:42:14Z</time></trkpt><trkpt lat="39.25956705845059" lon="9.282911333184247"><ele>61.0</ele><time>2026-04-04T07:42:15Z</time></trkpt><trkpt lat="39.25952222750621" lon="9.282725092313106"><ele>61.0</ele><time>2026-04-04T07:42:16Z</time></trkpt><trkpt lat="39.25947955213226" lon="9.282543753712266"><ele>61.0</ele><time>2026-04-04T07:42:17Z</time></trkpt><trkpt lat="39.259443461610566" lon="9.282355782053402"><ele>61.0</ele><time>2026-04-04T07:42:18Z</time></trkpt><trkpt lat="39.25942793373446" lon="9.282164162437729"><ele>61.0</ele><time>2026-04-04T07:42:19Z</time></trkpt><trkpt lat="39.2594202700205" lon="9.281966452921244"><ele>59.666666666666664</ele><time>2026-04-04T07:42:20Z</time></trkpt><trkpt lat="39.259460405384964" lon="9.281774152463646"><ele>58.33333333333333</ele><time>2026-04-04T07:42:21Z</time></trkpt><trkpt lat="39.25952357952435" lon="9.28159163934992"><ele>57.0</ele><time>2026-04-04T07:42:22Z</time></trkpt><trkpt lat="39.25961579525868" lon="9.281432929501978"><ele>56.5</ele><time>2026-04-04T07:42:23Z</time></trkpt><trkpt lat="39.2597094700144" lon="9.281297413537192"><ele>56.0</ele><time>2026-04-04T07:42:24Z</time></trkpt><trkpt lat="39.259814851425716" lon="9.281157541501852"><ele>55.5</ele><time>2026-04-04T07:42:25Z</time></trkpt><trkpt lat="39.25985107605384" lon="9.28099753928308"><ele>55.0</ele><time>2026-04-04T07:42:26Z</time></trkpt><trkpt lat="39.2599281619333" lon="9.280828187210831"><ele>55.0</ele><time>2026-04-04T07:42:27Z</time></trkpt><trkpt lat="39.25999520359384" lon="9.280652566850769"><ele>55.0</ele><time>2026-04-04T07:42:28Z</time></trkpt><trkpt lat="39.26004101160347" lon="9.280475063378953"><ele>55.0</ele><time>2026-04-04T07:42:29Z</time></trkpt><trkpt lat="39.26005420582424" lon="9.280289245876808"><ele>55.0</ele><time>2026-04-04T07:42:30Z</time></trkpt><trkpt lat="39.260054153922674" lon="9.28009607423232"><ele>54.0</ele><time>2026-04-04T07:42:31Z</time></trkpt><trkpt lat="39.260037144530536" lon="9.27990387064876"><ele>53.0</ele><time>2026-04-04T07:42:32Z</time></trkpt><trkpt lat="39.26003846079182" lon="9.279718230978146"><ele>52.0</ele><time>2026-04-04T07:42:33Z</time></trkpt><trkpt lat="39.26002984630519" lon="9.279543985240425"><ele>51.0</ele><time>2026-04-04T07:42:34Z</time></trkpt><trkpt lat="39.26002193628949" lon="9.279387212002849"><ele>50.5</ele><time>2026-04-04T07:42:35Z</time></trkpt><trkpt lat="39.26001416843511" lon="9.279233256330716"><ele>50.0</ele><time>2026-04-04T07:42:36Z</time></trkpt><trkpt lat="39.260006368532444" lon="9.279078665471651"><ele>49.5</ele><time>2026-04-04T07:42:37Z</time></trkpt><trkpt lat="39.259998222330495" lon="9.278917211009793"><ele>49.0</ele><time>2026-04-04T07:42:38Z</time></trkpt><trkpt lat="39.25998990869822" lon="9.278752438373868"><ele>49.0</ele><time>2026-04-04T07:42:39Z</time></trkpt><trkpt lat="39.25998124362625" lon="9.27858070020482"><ele>49.0</ele><time>2026-04-04T07:42:40Z</time></trkpt><trkpt lat="39.259972368266205" lon="9.278405726489813"><ele>49.0</ele><time>2026-04-04T07:42:41Z</time></trkpt><trkpt lat="39.25996301329488" lon="9.278222017097765"><ele>49.0</ele><time>2026-04-04T07:42:42Z</time></trkpt><trkpt lat="39.259953744747605" lon="9.278039467041598"><ele>49.5</ele><time>2026-04-04T07:42:43Z</time></trkpt><trkpt lat="39.25994452745299" lon="9.277858280535906"><ele>50.0</ele><time>2026-04-04T07:42:44Z</time></trkpt><trkpt lat="39.25993553067543" lon="9.27768397928611"><ele>50.5</ele><time>2026-04-04T07:42:45Z</time></trkpt><trkpt lat="39.25992680047053" lon="9.277514842612987"><ele>51.0</ele><time>2026-04-04T07:42:46Z</time></trkpt><trkpt lat="39.25991862038705" lon="9.277353256084368"><ele>51.5</ele><time>2026-04-04T07:42:47Z</time></trkpt><trkpt lat="39.259910635792345" lon="9.277195121604008"><ele>52.0</ele><time>2026-04-04T07:42:48Z</time></trkpt><trkpt lat="39.25990231333969" lon="9.27703029596566"><ele>52.5</ele><time>2026-04-04T07:42:49Z</time></trkpt><trkpt lat="39.25989386741826" lon="9.276863024866794"><ele>53.0</ele><time>2026-04-04T07:42:50Z</time></trkpt><trkpt lat="39.25988524996172" lon="9.2766924050975"><ele>53.0</ele><time>2026-04-04T07:42:51Z</time></trkpt><trkpt lat="39.259876070879834" lon="9.276516344663877"><ele>53.0</ele><time>2026-04-04T07:42:52Z</time></trkpt><trkpt lat="39.259865848484246" lon="9.276335080211439"><ele>53.0</ele><time>2026-04-04T07:42:53Z</time></trkpt><trkpt lat="39.25985554624316" lon="9.27614990228361"><ele>53.0</ele><time>2026-04-04T07:42:54Z</time></trkpt><trkpt lat="39.25984572568253" lon="9.27596011498825"><ele>53.333333333333336</ele><time>2026-04-04T07:42:55Z</time></trkpt><trkpt lat="39.25983554089228" lon="9.275767090959224"><ele>53.66666666666667</ele><time>2026-04-04T07:42:56Z</time></trkpt><trkpt lat="39.259809427976805" lon="9.27557030786388"><ele>54.0</ele><time>2026-04-04T07:42:57Z</time></trkpt><trkpt lat="39.259801227991886" lon="9.275366965324835"><ele>54.0</ele><time>2026-04-04T07:42:58Z</time></trkpt><trkpt lat="39.259789153380645" lon="9.275156690006865"><ele>54.0</ele><time>2026-04-04T07:42:59Z</time></trkpt><trkpt lat="39.259777882887576" lon="9.274945668052885"><ele>54.0</ele><time>2026-04-04T07:43:00Z</time></trkpt><trkpt lat="39.25978145101247" lon="9.274719704029668"><ele>53.66666666666667</ele><time>2026-04-04T07:43:01Z</time></trkpt><trkpt lat="39.25977046023152" lon="9.274503162938888"><ele>53.333333333333336</ele><time>2026-04-04T07:43:02Z</time></trkpt><trkpt lat="39.25975902439151" lon="9.27427785318259"><ele>53.0</ele><time>2026-04-04T07:43:03Z</time></trkpt><trkpt lat="39.259747476175384" lon="9.274050329428148"><ele>53.333333333333336</ele><time>2026-04-04T07:43:04Z</time></trkpt><trkpt lat="39.25973562617482" lon="9.273816859876533"><ele>53.66666666666667</ele><time>2026-04-04T07:43:05Z</time></trkpt><trkpt lat="39.259723718759055" lon="9.273582259155534"><ele>54.0</ele><time>2026-04-04T07:43:06Z</time></trkpt><trkpt lat="39.25969680398769" lon="9.273344761945058"><ele>54.0</ele><time>2026-04-04T07:43:07Z</time></trkpt><trkpt lat="39.25968672377728" lon="9.273095316349815"><ele>54.0</ele><time>2026-04-04T07:43:08Z</time></trkpt><trkpt lat="39.25968653320761" lon="9.272843126633108"><ele>54.0</ele><time>2026-04-04T07:43:09Z</time></trkpt><trkpt lat="39.259657847166814" lon="9.272577340473978"><ele>54.0</ele><time>2026-04-04T07:43:10Z</time></trkpt><trkpt lat="39.259659493808556" lon="9.27230543436949"><ele>54.0</ele><time>2026-04-04T07:43:11Z</time></trkpt><trkpt lat="39.2596449965173" lon="9.272016642895833"><ele>54.0</ele><time>2026-04-04T07:43:12Z</time></trkpt><trkpt lat="39.259630514825524" lon="9.271728162317906"><ele>54.0</ele><time>2026-04-04T07:43:13Z</time></trkpt><trkpt lat="39.25961615718547" lon="9.271442152800063"><ele>54.0</ele><time>2026-04-04T07:43:14Z</time></trkpt><trkpt lat="39.25960155034432" lon="9.27116551791933"><ele>54.0</ele><time>2026-04-04T07:43:15Z</time></trkpt><trkpt lat="39.25958843853339" lon="9.270893611406276"><ele>53.66666666666667</ele><time>2026-04-04T07:43:16Z</time></trkpt><trkpt lat="39.259575463053075" lon="9.270626887601917"><ele>53.333333333333336</ele><time>2026-04-04T07:43:17Z</time></trkpt><trkpt lat="39.25956251433787" lon="9.270360713929096"><ele>53.0</ele><time>2026-04-04T07:43:18Z</time></trkpt><trkpt lat="39.25954996828075" lon="9.270102817329885"><ele>53.0</ele><time>2026-04-04T07:43:19Z</time></trkpt><trkpt lat="39.25953807452748" lon="9.269858329484068"><ele>53.0</ele><time>2026-04-04T07:43:20Z</time></trkpt><trkpt lat="39.25950274675045" lon="9.269624307327613"><ele>53.0</ele><time>2026-04-04T07:43:21Z</time></trkpt><trkpt lat="39.25948830487652" lon="9.269393361138091"><ele>53.0</ele><time>2026-04-04T07:43:22Z</time></trkpt><trkpt lat="39.25947618161328" lon="9.269159002527772"><ele>53.0</ele><time>2026-04-04T07:43:23Z</time></trkpt><trkpt lat="39.259463449280666" lon="9.268934227954722"><ele>53.0</ele><time>2026-04-04T07:43:24Z</time></trkpt><trkpt lat="39.25945753414418" lon="9.268707170246778"><ele>52.66666666666667</ele><time>2026-04-04T07:43:25Z</time></trkpt><trkpt lat="39.25944502298685" lon="9.268476739445498"><ele>52.33333333333333</ele><time>2026-04-04T07:43:26Z</time></trkpt><trkpt lat="39.25943404478845" lon="9.268246675175021"><ele>52.0</ele><time>2026-04-04T07:43:27Z</time></trkpt><trkpt lat="39.25944737253265" lon="9.268004482759117"><ele>52.0</ele><time>2026-04-04T07:43:28Z</time></trkpt><trkpt lat="39.25943536678165" lon="9.267759314033794"><ele>52.0</ele><time>2026-04-04T07:43:29Z</time></trkpt><trkpt lat="39.25942326549649" lon="9.26751602822284"><ele>52.0</ele><time>2026-04-04T07:43:30Z</time></trkpt><trkpt lat="39.25941078167503" lon="9.26726768549556"><ele>52.666666666666664</ele><time>2026-04-04T07:43:31Z</time></trkpt><trkpt lat="39.25939820696325" lon="9.267017534670726"><ele>53.33333333333333</ele><time>2026-04-04T07:43:32Z</time></trkpt><trkpt lat="39.25938540507928" lon="9.266762864683516"><ele>54.0</ele><time>2026-04-04T07:43:33Z</time></trkpt><trkpt lat="39.25937263444769" lon="9.26650881642159"><ele>55.0</ele><time>2026-04-04T07:43:34Z</time></trkpt><trkpt lat="39.2593598468127" lon="9.266254429899297"><ele>56.0</ele><time>2026-04-04T07:43:35Z</time></trkpt><trkpt lat="39.259346844066606" lon="9.265995764134166"><ele>57.0</ele><time>2026-04-04T07:43:36Z</time></trkpt><trkpt lat="39.259333860305674" lon="9.265737476047153"><ele>57.66666666666667</ele><time>2026-04-04T07:43:37Z</time></trkpt><trkpt lat="39.2593208433771" lon="9.265476345672885"><ele>58.333333333333336</ele><time>2026-04-04T07:43:38Z</time></trkpt><trkpt lat="39.25930797896523" lon="9.26521557931003"><ele>59.0</ele><time>2026-04-04T07:43:39Z</time></trkpt><trkpt lat="39.259295890156054" lon="9.264970534127183"><ele>60.333333333333336</ele><time>2026-04-04T07:43:40Z</time></trkpt><trkpt lat="39.259284853179906" lon="9.264741316644397"><ele>61.66666666666667</ele><time>2026-04-04T07:43:41Z</time></trkpt><trkpt lat="39.2592740240436" lon="9.264520453468846"><ele>63.0</ele><time>2026-04-04T07:43:42Z</time></trkpt><trkpt lat="39.25923895012501" lon="9.264307095437298"><ele>63.0</ele><time>2026-04-04T07:43:43Z</time></trkpt><trkpt lat="39.25922885183581" lon="9.264089151421292"><ele>63.0</ele><time>2026-04-04T07:43:44Z</time></trkpt><trkpt lat="39.25921928137822" lon="9.263867894823695"><ele>63.0</ele><time>2026-04-04T07:43:45Z</time></trkpt><trkpt lat="39.25921448598187" lon="9.26363872907795"><ele>63.33333333333333</ele><time>2026-04-04T07:43:46Z</time></trkpt><trkpt lat="39.25920846081695" lon="9.263408376936429"><ele>63.666666666666664</ele><time>2026-04-04T07:43:47Z</time></trkpt><trkpt lat="39.259198727061545" lon="9.263177870565947"><ele>64.0</ele><time>2026-04-04T07:43:48Z</time></trkpt><trkpt lat="39.2591881512968" lon="9.26294945483855"><ele>64.0</ele><time>2026-04-04T07:43:49Z</time></trkpt><trkpt lat="39.25918065848578" lon="9.262724618105615"><ele>64.0</ele><time>2026-04-04T07:43:50Z</time></trkpt><trkpt lat="39.259172357037635" lon="9.262498160203378"><ele>64.0</ele><time>2026-04-04T07:43:51Z</time></trkpt><trkpt lat="39.25916336299127" lon="9.262276778389962"><ele>64.66666666666666</ele><time>2026-04-04T07:43:52Z</time></trkpt><trkpt lat="39.25915329279001" lon="9.262055170155456"><ele>65.33333333333333</ele><time>2026-04-04T07:43:53Z</time></trkpt><trkpt lat="39.25914463171006" lon="9.26183282160021"><ele>66.0</ele><time>2026-04-04T07:43:54Z</time></trkpt><trkpt lat="39.25913549671278" lon="9.2616107183926"><ele>67.0</ele><time>2026-04-04T07:43:55Z</time></trkpt><trkpt lat="39.2591265628159" lon="9.26138805334163"><ele>68.0</ele><time>2026-04-04T07:43:56Z</time></trkpt><trkpt lat="39.259116884432736" lon="9.26116621690589"><ele>69.0</ele><time>2026-04-04T07:43:57Z</time></trkpt><trkpt lat="39.25910833088145" lon="9.26094248003788"><ele>69.0</ele><time>2026-04-04T07:43:58Z</time></trkpt><trkpt lat="39.259098300253754" lon="9.260719635472059"><ele>69.0</ele><time>2026-04-04T07:43:59Z</time></trkpt><trkpt lat="39.259088755550984" lon="9.260493956154006"><ele>69.0</ele><time>2026-04-04T07:44:00Z</time></trkpt><trkpt lat="39.259081269867615" lon="9.260268390630126"><ele>69.33333333333333</ele><time>2026-04-04T07:44:01Z</time></trkpt><trkpt lat="39.25907525048098" lon="9.260041500734369"><ele>69.66666666666666</ele><time>2026-04-04T07:44:02Z</time></trkpt><trkpt lat="39.25906879615329" lon="9.25981252136248"><ele>70.0</ele><time>2026-04-04T07:44:03Z</time></trkpt><trkpt lat="39.25905865180047" lon="9.259582177217078"><ele>70.66666666666666</ele><time>2026-04-04T07:44:04Z</time></trkpt><trkpt lat="39.259047046295535" lon="9.259344598306946"><ele>71.33333333333333</ele><time>2026-04-04T07:44:05Z</time></trkpt><trkpt lat="39.25904054711994" lon="9.259111009460849"><ele>72.0</ele><time>2026-04-04T07:44:06Z</time></trkpt><trkpt lat="39.259026058351324" lon="9.258867820321331"><ele>72.66666666666667</ele><time>2026-04-04T07:44:07Z</time></trkpt><trkpt lat="39.259009006787096" lon="9.2586340726291"><ele>73.33333333333334</ele><time>2026-04-04T07:44:08Z</time></trkpt><trkpt lat="39.2589948034921" lon="9.258387729439946"><ele>74.0</ele><time>2026-04-04T07:44:09Z</time></trkpt><trkpt lat="39.25900090594607" lon="9.258141890078027"><ele>74.33333333333334</ele><time>2026-04-04T07:44:10Z</time></trkpt><trkpt lat="39.259022301362684" lon="9.25790968136418"><ele>74.66666666666667</ele><time>2026-04-04T07:44:11Z</time></trkpt><trkpt lat="39.25905948926824" lon="9.257679187153158"><ele>75.0</ele><time>2026-04-04T07:44:12Z</time></trkpt><trkpt lat="39.25910160733709" lon="9.25745032025626"><ele>74.0</ele><time>2026-04-04T07:44:13Z</time></trkpt><trkpt lat="39.259157649189866" lon="9.25722165688844"><ele>73.0</ele><time>2026-04-04T07:44:14Z</time></trkpt><trkpt lat="39.25920961760388" lon="9.25699262994222"><ele>72.0</ele><time>2026-04-04T07:44:15Z</time></trkpt><trkpt lat="39.259260053449346" lon="9.256749736773623"><ele>72.0</ele><time>2026-04-04T07:44:16Z</time></trkpt><trkpt lat="39.25931879476484" lon="9.256525509191258"><ele>72.0</ele><time>2026-04-04T07:44:17Z</time></trkpt><trkpt lat="39.259378478355835" lon="9.256295793830285"><ele>72.0</ele><time>2026-04-04T07:44:18Z</time></trkpt><trkpt lat="39.25943056691094" lon="9.256069608665529"><ele>71.66666666666667</ele><time>2026-04-04T07:44:19Z</time></trkpt><trkpt lat="39.259481506108976" lon="9.255842670879492"><ele>71.33333333333334</ele><time>2026-04-04T07:44:20Z</time></trkpt><trkpt lat="39.25953122595607" lon="9.255619496578925"><ele>71.0</ele><time>2026-04-04T07:44:21Z</time></trkpt><trkpt lat="39.25958189532829" lon="9.255403420681983"><ele>70.66666666666667</ele><time>2026-04-04T07:44:22Z</time></trkpt><trkpt lat="39.25963677485028" lon="9.25520776580262"><ele>70.33333333333333</ele><time>2026-04-04T07:44:23Z</time></trkpt><trkpt lat="39.25969576233705" lon="9.255028351773172"><ele>70.0</ele><time>2026-04-04T07:44:24Z</time></trkpt><trkpt lat="39.259762561375695" lon="9.254865861077533"><ele>69.75</ele><time>2026-04-04T07:44:25Z</time></trkpt><trkpt lat="39.25984046331899" lon="9.254713337658416"><ele>69.5</ele><time>2026-04-04T07:44:26Z</time></trkpt><trkpt lat="39.25992448424746" lon="9.254559933051274"><ele>69.25</ele><time>2026-04-04T07:44:27Z</time></trkpt><trkpt lat="39.26002673030391" lon="9.25440902461951"><ele>69.0</ele><time>2026-04-04T07:44:28Z</time></trkpt><trkpt lat="39.260125050170295" lon="9.254271837882289"><ele>69.0</ele><time>2026-04-04T07:44:29Z</time></trkpt><trkpt lat="39.26022128004835" lon="9.25414853386596"><ele>69.0</ele><time>2026-04-04T07:44:30Z</time></trkpt><trkpt lat="39.260322790679886" lon="9.25402081821073"><ele>69.0</ele><time>2026-04-04T07:44:31Z</time></trkpt><trkpt lat="39.26043072317388" lon="9.253885803936187"><ele>69.0</ele><time>2026-04-04T07:44:32Z</time></trkpt><trkpt lat="39.2605416527913" lon="9.253754802617173"><ele>68.75</ele><time>2026-04-04T07:44:33Z</time></trkpt><trkpt lat="39.26065533104628" lon="9.253622608671288"><ele>68.5</ele><time>2026-04-04T07:44:34Z</time></trkpt><trkpt lat="39.26076322132996" lon="9.253492567261157"><ele>68.25</ele><time>2026-04-04T07:44:35Z</time></trkpt><trkpt lat="39.260865579093775" lon="9.253368932528033"><ele>68.0</ele><time>2026-04-04T07:44:36Z</time></trkpt><trkpt lat="39.26096574011957" lon="9.253253930714296"><ele>68.0</ele><time>2026-04-04T07:44:37Z</time></trkpt><trkpt lat="39.2610668682673" lon="9.25313973615149"><ele>68.0</ele><time>2026-04-04T07:44:38Z</time></trkpt><trkpt lat="39.261171855052595" lon="9.253013424327785"><ele>68.0</ele><time>2026-04-04T07:44:39Z</time></trkpt><trkpt lat="39.2612800146449" lon="9.25288252012567"><ele>68.0</ele><time>2026-04-04T07:44:40Z</time></trkpt><trkpt lat="39.261394576781335" lon="9.252751949050158"><ele>67.25</ele><time>2026-04-04T07:44:41Z</time></trkpt><trkpt lat="39.26150897510154" lon="9.252623657560422"><ele>66.5</ele><time>2026-04-04T07:44:42Z</time></trkpt><trkpt lat="39.26161421236811" lon="9.252492809660167"><ele>65.75</ele><time>2026-04-04T07:44:43Z</time></trkpt><trkpt lat="39.26172908060196" lon="9.252366744065997"><ele>65.0</ele><time>2026-04-04T07:44:44Z</time></trkpt><trkpt lat="39.2618336633508" lon="9.252240380746303"><ele>65.0</ele><time>2026-04-04T07:44:45Z</time></trkpt><trkpt lat="39.26194013423073" lon="9.252114093093587"><ele>65.0</ele><time>2026-04-04T07:44:46Z</time></trkpt><trkpt lat="39.26204691266697" lon="9.251981548064322"><ele>65.0</ele><time>2026-04-04T07:44:47Z</time></trkpt><trkpt lat="39.26215655232028" lon="9.251846318442395"><ele>65.0</ele><time>2026-04-04T07:44:48Z</time></trkpt><trkpt lat="39.262244851270204" lon="9.251694260316913"><ele>62.66666666666667</ele><time>2026-04-04T07:44:49Z</time></trkpt><trkpt lat="39.26234708632575" lon="9.251543410579322"><ele>60.33333333333333</ele><time>2026-04-04T07:44:50Z</time></trkpt><trkpt lat="39.26242339191436" lon="9.251370677638247"><ele>58.0</ele><time>2026-04-04T07:44:51Z</time></trkpt><trkpt lat="39.262485308666236" lon="9.251175417212066"><ele>58.0</ele><time>2026-04-04T07:44:52Z</time></trkpt><trkpt lat="39.262536657966244" lon="9.250977353422517"><ele>58.0</ele><time>2026-04-04T07:44:53Z</time></trkpt><trkpt lat="39.26256541894114" lon="9.25077102305317"><ele>58.0</ele><time>2026-04-04T07:44:54Z</time></trkpt><trkpt lat="39.262611629550925" lon="9.250565812039671"><ele>58.0</ele><time>2026-04-04T07:44:55Z</time></trkpt><trkpt lat="39.262658548531874" lon="9.250361971759945"><ele>58.0</ele><time>2026-04-04T07:44:56Z</time></trkpt><trkpt lat="39.26270640857623" lon="9.2501515014237"><ele>58.0</ele><time>2026-04-04T07:44:57Z</time></trkpt><trkpt lat="39.26277172035229" lon="9.249944348286535"><ele>56.0</ele><time>2026-04-04T07:44:58Z</time></trkpt><trkpt lat="39.26282112781188" lon="9.249731608336685"><ele>54.0</ele><time>2026-04-04T07:44:59Z</time></trkpt><trkpt lat="39.26287193748456" lon="9.24951283069481"><ele>52.0</ele><time>2026-04-04T07:45:00Z</time></trkpt><trkpt lat="39.26292256095198" lon="9.24929484913591"><ele>52.0</ele><time>2026-04-04T07:45:01Z</time></trkpt><trkpt lat="39.2629736227455" lon="9.249074859875808"><ele>52.0</ele><time>2026-04-04T07:45:02Z</time></trkpt><trkpt lat="39.26302545149244" lon="9.248851566356919"><ele>52.0</ele><time>2026-04-04T07:45:03Z</time></trkpt><trkpt lat="39.26306093323819" lon="9.248627837713562"><ele>51.0</ele><time>2026-04-04T07:45:04Z</time></trkpt><trkpt lat="39.26312590713521" lon="9.248418773833388"><ele>50.0</ele><time>2026-04-04T07:45:05Z</time></trkpt><trkpt lat="39.26317333225036" lon="9.248205637836847"><ele>49.0</ele><time>2026-04-04T07:45:06Z</time></trkpt><trkpt lat="39.26321505182396" lon="9.247996000157622"><ele>49.0</ele><time>2026-04-04T07:45:07Z</time></trkpt><trkpt lat="39.26324856921134" lon="9.247781689556465"><ele>49.0</ele><time>2026-04-04T07:45:08Z</time></trkpt><trkpt lat="39.26325762768345" lon="9.247553745491667"><ele>49.0</ele><time>2026-04-04T07:45:09Z</time></trkpt><trkpt lat="39.263248120327766" lon="9.24732937144254"><ele>49.33333333333333</ele><time>2026-04-04T07:45:10Z</time></trkpt><trkpt lat="39.26322450626429" lon="9.247105087806041"><ele>49.66666666666667</ele><time>2026-04-04T07:45:11Z</time></trkpt><trkpt lat="39.26319649406321" lon="9.246883789803862"><ele>50.0</ele><time>2026-04-04T07:45:12Z</time></trkpt><trkpt lat="39.263169599459715" lon="9.246660393921422"><ele>49.333333333333336</ele><time>2026-04-04T07:45:13Z</time></trkpt><trkpt lat="39.263142810505194" lon="9.24643787490382"><ele>48.66666666666667</ele><time>2026-04-04T07:45:14Z</time></trkpt><trkpt lat="39.263114358389046" lon="9.24621107236819"><ele>48.0</ele><time>2026-04-04T07:45:15Z</time></trkpt><trkpt lat="39.263055080737324" lon="9.245989579490015"><ele>48.0</ele><time>2026-04-04T07:45:16Z</time></trkpt><trkpt lat="39.26302893565034" lon="9.245766119364353"><ele>48.0</ele><time>2026-04-04T07:45:17Z</time></trkpt><trkpt lat="39.26300202279578" lon="9.24554750441099"><ele>48.0</ele><time>2026-04-04T07:45:18Z</time></trkpt><trkpt lat="39.26297133461179" lon="9.245333109777505"><ele>47.0</ele><time>2026-04-04T07:45:19Z</time></trkpt><trkpt lat="39.26296628399911" lon="9.245113041953166"><ele>46.0</ele><time>2026-04-04T07:45:20Z</time></trkpt><trkpt lat="39.26293809552915" lon="9.244897436995345"><ele>45.0</ele><time>2026-04-04T07:45:21Z</time></trkpt><trkpt lat="39.262909136119404" lon="9.244674823905532"><ele>44.666666666666664</ele><time>2026-04-04T07:45:22Z</time></trkpt><trkpt lat="39.262880316425736" lon="9.24445221176434"><ele>44.33333333333333</ele><time>2026-04-04T07:45:23Z</time></trkpt><trkpt lat="39.262851259349176" lon="9.244229591595753"><ele>44.0</ele><time>2026-04-04T07:45:24Z</time></trkpt><trkpt lat="39.26282206950914" lon="9.244008847422066"><ele>44.33333333333333</ele><time>2026-04-04T07:45:25Z</time></trkpt><trkpt lat="39.262793429650756" lon="9.243792262391366"><ele>44.666666666666664</ele><time>2026-04-04T07:45:26Z</time></trkpt><trkpt lat="39.262766025138475" lon="9.243585019493626"><ele>45.0</ele><time>2026-04-04T07:45:27Z</time></trkpt><trkpt lat="39.26273868145052" lon="9.243378236626494"><ele>45.0</ele><time>2026-04-04T07:45:28Z</time></trkpt><trkpt lat="39.26271135607033" lon="9.243168561187934"><ele>45.0</ele><time>2026-04-04T07:45:29Z</time></trkpt><trkpt lat="39.26268407659067" lon="9.242956390558048"><ele>45.0</ele><time>2026-04-04T07:45:30Z</time></trkpt><trkpt lat="39.26265632465781" lon="9.242740545340107"><ele>44.333333333333336</ele><time>2026-04-04T07:45:31Z</time></trkpt><trkpt lat="39.26262931974629" lon="9.242530510240304"><ele>43.66666666666667</ele><time>2026-04-04T07:45:32Z</time></trkpt><trkpt lat="39.26260317380061" lon="9.242322245860507"><ele>43.0</ele><time>2026-04-04T07:45:33Z</time></trkpt><trkpt lat="39.26255686695194" lon="9.242123088472672"><ele>43.0</ele><time>2026-04-04T07:45:34Z</time></trkpt><trkpt lat="39.26253199177844" lon="9.241914704622594"><ele>43.0</ele><time>2026-04-04T07:45:35Z</time></trkpt><trkpt lat="39.26250542964296" lon="9.241709266912366"><ele>43.0</ele><time>2026-04-04T07:45:36Z</time></trkpt><trkpt lat="39.2624791985171" lon="9.24150198153567"><ele>43.0</ele><time>2026-04-04T07:45:37Z</time></trkpt><trkpt lat="39.26245324224956" lon="9.241312023874627"><ele>43.0</ele><time>2026-04-04T07:45:38Z</time></trkpt><trkpt lat="39.262428036718966" lon="9.241128998341127"><ele>43.0</ele><time>2026-04-04T07:45:39Z</time></trkpt><trkpt lat="39.26240592321209" lon="9.240950713488672"><ele>43.0</ele><time>2026-04-04T07:45:40Z</time></trkpt><trkpt lat="39.262387020558734" lon="9.240780807410847"><ele>43.0</ele><time>2026-04-04T07:45:41Z</time></trkpt><trkpt lat="39.26238452393329" lon="9.240608732251212"><ele>43.0</ele><time>2026-04-04T07:45:42Z</time></trkpt><trkpt lat="39.2623630073604" lon="9.24043928376929"><ele>43.0</ele><time>2026-04-04T07:45:43Z</time></trkpt><trkpt lat="39.26234102153261" lon="9.240272913234175"><ele>43.0</ele><time>2026-04-04T07:45:44Z</time></trkpt><trkpt lat="39.26230596527984" lon="9.240117058374608"><ele>43.0</ele><time>2026-04-04T07:45:45Z</time></trkpt><trkpt lat="39.26228221788389" lon="9.239949204732122"><ele>43.0</ele><time>2026-04-04T07:45:46Z</time></trkpt><trkpt lat="39.26226259753966" lon="9.239786578258348"><ele>43.0</ele><time>2026-04-04T07:45:47Z</time></trkpt><trkpt lat="39.262244361330346" lon="9.239636939834236"><ele>43.0</ele><time>2026-04-04T07:45:48Z</time></trkpt><trkpt lat="39.26222770318496" lon="9.239491804897382"><ele>42.8</ele><time>2026-04-04T07:45:49Z</time></trkpt><trkpt lat="39.262209237526626" lon="9.239353753404002"><ele>42.599999999999994</ele><time>2026-04-04T07:45:50Z</time></trkpt><trkpt lat="39.262191688427336" lon="9.2392266610433"><ele>42.400000000000006</ele><time>2026-04-04T07:45:51Z</time></trkpt><trkpt lat="39.2621830646572" lon="9.239112791588276"><ele>42.2</ele><time>2026-04-04T07:45:52Z</time></trkpt><trkpt lat="39.262185655336836" lon="9.239009963859086"><ele>42.0</ele><time>2026-04-04T07:45:53Z</time></trkpt><trkpt lat="39.26221011938054" lon="9.238887761807542"><ele>42.0</ele><time>2026-04-04T07:45:54Z</time></trkpt><trkpt lat="39.262256142260945" lon="9.238759353662761"><ele>42.0</ele><time>2026-04-04T07:45:55Z</time></trkpt><trkpt lat="39.26232019738236" lon="9.238613288810889"><ele>42.0</ele><time>2026-04-04T07:45:56Z</time></trkpt><trkpt lat="39.26238993481553" lon="9.238467957549434"><ele>42.0</ele><time>2026-04-04T07:45:57Z</time></trkpt><trkpt lat="39.26252050658456" lon="9.238365169958529"><ele>42.25</ele><time>2026-04-04T07:45:58Z</time></trkpt><trkpt lat="39.26262684449796" lon="9.238252872571069"><ele>42.5</ele><time>2026-04-04T07:45:59Z</time></trkpt><trkpt lat="39.26272915463521" lon="9.238150768034622"><ele>42.75</ele><time>2026-04-04T07:46:00Z</time></trkpt><trkpt lat="39.26283856644373" lon="9.238042567346497"><ele>43.0</ele><time>2026-04-04T07:46:01Z</time></trkpt><trkpt lat="39.262943203280805" lon="9.23793598688925"><ele>43.2</ele><time>2026-04-04T07:46:02Z</time></trkpt><trkpt lat="39.263028799199475" lon="9.237849748362898"><ele>43.4</ele><time>2026-04-04T07:46:03Z</time></trkpt><trkpt lat="39.26310194032646" lon="9.23778152722583"><ele>43.6</ele><time>2026-04-04T07:46:04Z</time></trkpt><trkpt lat="39.263161249911384" lon="9.237729763145378"><ele>43.800000000000004</ele><time>2026-04-04T07:46:05Z</time></trkpt><trkpt lat="39.26322384797727" lon="9.237676035314852"><ele>44.0</ele><time>2026-04-04T07:46:07Z</time></trkpt><trkpt lat="39.263305291038876" lon="9.237586812833674"><ele>43.800000000000004</ele><time>2026-04-04T07:51:33Z</time></trkpt><trkpt lat="39.263400999420526" lon="9.237467919886088"><ele>43.6</ele><time>2026-04-04T07:51:35Z</time></trkpt><trkpt lat="39.26346695604999" lon="9.237396357306034"><ele>43.4</ele><time>2026-04-04T07:51:36Z</time></trkpt><trkpt lat="39.263543375390825" lon="9.237318660358387"><ele>43.2</ele><time>2026-04-04T07:51:37Z</time></trkpt><trkpt lat="39.263631302895504" lon="9.237226596102747"><ele>43.0</ele><time>2026-04-04T07:51:38Z</time></trkpt><trkpt lat="39.263735184002805" lon="9.23713070396622"><ele>43.0</ele><time>2026-04-04T07:51:39Z</time></trkpt><trkpt lat="39.263837179581095" lon="9.237028503738056"><ele>43.0</ele><time>2026-04-04T07:51:40Z</time></trkpt><trkpt lat="39.263948205255716" lon="9.236918322987037"><ele>43.0</ele><time>2026-04-04T07:51:41Z</time></trkpt><trkpt lat="39.26406504672585" lon="9.236802334088097"><ele>43.0</ele><time>2026-04-04T07:51:42Z</time></trkpt><trkpt lat="39.2641795262545" lon="9.236685237772681"><ele>43.0</ele><time>2026-04-04T07:51:43Z</time></trkpt><trkpt lat="39.26430060955182" lon="9.236563234929367"><ele>43.0</ele><time>2026-04-04T07:51:44Z</time></trkpt><trkpt lat="39.264422356896745" lon="9.23644102713002"><ele>43.0</ele><time>2026-04-04T07:51:45Z</time></trkpt><trkpt lat="39.26455031084234" lon="9.236312295994612"><ele>43.0</ele><time>2026-04-04T07:51:46Z</time></trkpt><trkpt lat="39.26468163686449" lon="9.23618006080695"><ele>43.0</ele><time>2026-04-04T07:51:47Z</time></trkpt><trkpt lat="39.26481791794736" lon="9.236044932238194"><ele>43.0</ele><time>2026-04-04T07:51:48Z</time></trkpt><trkpt lat="39.26495648173237" lon="9.235904973013922"><ele>43.66666666666667</ele><time>2026-04-04T07:51:49Z</time></trkpt><trkpt lat="39.26509615632616" lon="9.23576553042982"><ele>44.333333333333336</ele><time>2026-04-04T07:51:50Z</time></trkpt><trkpt lat="39.26523223227916" lon="9.23562984341539"><ele>45.0</ele><time>2026-04-04T07:51:51Z</time></trkpt><trkpt lat="39.26536075269879" lon="9.235498010387529"><ele>45.25</ele><time>2026-04-04T07:51:52Z</time></trkpt><trkpt lat="39.265479706052766" lon="9.235375308504285"><ele>45.5</ele><time>2026-04-04T07:51:53Z</time></trkpt><trkpt lat="39.265591227779694" lon="9.235261689808038"><ele>45.75</ele><time>2026-04-04T07:51:54Z</time></trkpt><trkpt lat="39.26570446803274" lon="9.235151446712322"><ele>46.0</ele><time>2026-04-04T07:51:55Z</time></trkpt><trkpt lat="39.26582078936831" lon="9.235030164319284"><ele>46.333333333333336</ele><time>2026-04-04T07:51:56Z</time></trkpt><trkpt lat="39.26594140831138" lon="9.234909455157712"><ele>46.666666666666664</ele><time>2026-04-04T07:51:57Z</time></trkpt><trkpt lat="39.2660654874302" lon="9.234785211984004"><ele>47.0</ele><time>2026-04-04T07:51:58Z</time></trkpt><trkpt lat="39.26619046954067" lon="9.234658111250324"><ele>47.0</ele><time>2026-04-04T07:51:59Z</time></trkpt><trkpt lat="39.26631612457022" lon="9.23452701272432"><ele>47.0</ele><time>2026-04-04T07:52:00Z</time></trkpt><trkpt lat="39.26644293497787" lon="9.234397265320698"><ele>47.0</ele><time>2026-04-04T07:52:01Z</time></trkpt><trkpt lat="39.26656793817987" lon="9.234266601747597"><ele>47.33333333333333</ele><time>2026-04-04T07:52:02Z</time></trkpt><trkpt lat="39.2666932918526" lon="9.234137526159795"><ele>47.666666666666664</ele><time>2026-04-04T07:52:03Z</time></trkpt><trkpt lat="39.266824021321945" lon="9.234006742757611"><ele>48.0</ele><time>2026-04-04T07:52:04Z</time></trkpt><trkpt lat="39.26695529817653" lon="9.233884057279976"><ele>48.33333333333333</ele><time>2026-04-04T07:52:05Z</time></trkpt><trkpt lat="39.267089613534836" lon="9.233762033508148"><ele>48.666666666666664</ele><time>2026-04-04T07:52:06Z</time></trkpt><trkpt lat="39.26722671261157" lon="9.233649911793465"><ele>49.0</ele><time>2026-04-04T07:52:07Z</time></trkpt><trkpt lat="39.26736949188647" lon="9.23355038873826"><ele>49.666666666666664</ele><time>2026-04-04T07:52:08Z</time></trkpt><trkpt lat="39.26751959968202" lon="9.233464008886529"><ele>50.33333333333333</ele><time>2026-04-04T07:52:09Z</time></trkpt><trkpt lat="39.26767583175594" lon="9.23336961289172"><ele>51.0</ele><time>2026-04-04T07:52:10Z</time></trkpt><trkpt lat="39.267828646011864" lon="9.233273381690273"><ele>51.0</ele><time>2026-04-04T07:52:11Z</time></trkpt><trkpt lat="39.267985299116226" lon="9.233169860880352"><ele>51.0</ele><time>2026-04-04T07:52:12Z</time></trkpt><trkpt lat="39.26814372143643" lon="9.23306126079177"><ele>51.0</ele><time>2026-04-04T07:52:13Z</time></trkpt><trkpt lat="39.26831071939311" lon="9.232949452354474"><ele>50.66666666666667</ele><time>2026-04-04T07:52:14Z</time></trkpt><trkpt lat="39.268473423305814" lon="9.232830841526859"><ele>50.333333333333336</ele><time>2026-04-04T07:52:15Z</time></trkpt><trkpt lat="39.26862981455243" lon="9.23270142293603"><ele>50.0</ele><time>2026-04-04T07:52:16Z</time></trkpt><trkpt lat="39.2687857930233" lon="9.232571219456993"><ele>51.0</ele><time>2026-04-04T07:52:17Z</time></trkpt><trkpt lat="39.26894457704429" lon="9.232439435046576"><ele>52.0</ele><time>2026-04-04T07:52:18Z</time></trkpt><trkpt lat="39.26910299339066" lon="9.23230585943397"><ele>53.0</ele><time>2026-04-04T07:52:19Z</time></trkpt><trkpt lat="39.26926231297404" lon="9.232173628161474"><ele>53.0</ele><time>2026-04-04T07:52:20Z</time></trkpt><trkpt lat="39.269421422047664" lon="9.232043004311148"><ele>53.0</ele><time>2026-04-04T07:52:21Z</time></trkpt><trkpt lat="39.26958111873646" lon="9.231912081811798"><ele>53.0</ele><time>2026-04-04T07:52:22Z</time></trkpt><trkpt lat="39.269742251302134" lon="9.231778531478364"><ele>53.66666666666667</ele><time>2026-04-04T07:52:23Z</time></trkpt><trkpt lat="39.26990117713049" lon="9.231643484944819"><ele>54.33333333333333</ele><time>2026-04-04T07:52:24Z</time></trkpt><trkpt lat="39.270059319415225" lon="9.231506550067618"><ele>55.0</ele><time>2026-04-04T07:52:25Z</time></trkpt><trkpt lat="39.27021005613742" lon="9.231377157646017"><ele>55.33333333333333</ele><time>2026-04-04T07:52:26Z</time></trkpt><trkpt lat="39.270366019867375" lon="9.231247582641736"><ele>55.66666666666667</ele><time>2026-04-04T07:52:27Z</time></trkpt><trkpt lat="39.27051875189426" lon="9.231117973636954"><ele>56.0</ele><time>2026-04-04T07:52:28Z</time></trkpt><trkpt lat="39.27067381649782" lon="9.230989339723742"><ele>57.0</ele><time>2026-04-04T07:52:29Z</time></trkpt><trkpt lat="39.27083044732445" lon="9.230862276010212"><ele>58.0</ele><time>2026-04-04T07:52:30Z</time></trkpt><trkpt lat="39.27098602333891" lon="9.230733761487274"><ele>59.0</ele><time>2026-04-04T07:52:31Z</time></trkpt><trkpt lat="39.27113621710738" lon="9.230607246296273"><ele>59.333333333333336</ele><time>2026-04-04T07:52:32Z</time></trkpt><trkpt lat="39.2712825352212" lon="9.230482862207845"><ele>59.66666666666667</ele><time>2026-04-04T07:52:33Z</time></trkpt><trkpt lat="39.27142223864261" lon="9.230369381413551"><ele>60.0</ele><time>2026-04-04T07:52:34Z</time></trkpt><trkpt lat="39.27156009088946" lon="9.230278497937997"><ele>60.66666666666667</ele><time>2026-04-04T07:52:35Z</time></trkpt><trkpt lat="39.271711226945655" lon="9.230206974385165"><ele>61.333333333333336</ele><time>2026-04-04T07:52:36Z</time></trkpt><trkpt lat="39.27187451991136" lon="9.23016842488118"><ele>62.0</ele><time>2026-04-04T07:52:37Z</time></trkpt><trkpt lat="39.27203567007617" lon="9.230155194690276"><ele>62.0</ele><time>2026-04-04T07:52:38Z</time></trkpt><trkpt lat="39.2722014131588" lon="9.2301700540634"><ele>62.0</ele><time>2026-04-04T07:52:39Z</time></trkpt><trkpt lat="39.272367207853165" lon="9.230194400967562"><ele>62.0</ele><time>2026-04-04T07:52:40Z</time></trkpt><trkpt lat="39.27253598033282" lon="9.230218523097182"><ele>62.0</ele><time>2026-04-04T07:52:41Z</time></trkpt><trkpt lat="39.272708232124444" lon="9.230244288530976"><ele>62.0</ele><time>2026-04-04T07:52:42Z</time></trkpt><trkpt lat="39.272879776702354" lon="9.230269196440878"><ele>62.0</ele><time>2026-04-04T07:52:43Z</time></trkpt><trkpt lat="39.27305674402431" lon="9.230292516924116"><ele>61.66666666666667</ele><time>2026-04-04T07:52:44Z</time></trkpt><trkpt lat="39.27323329941664" lon="9.230315864567833"><ele>61.33333333333333</ele><time>2026-04-04T07:52:45Z</time></trkpt><trkpt lat="39.27341184049579" lon="9.230339613269265"><ele>61.0</ele><time>2026-04-04T07:52:46Z</time></trkpt><trkpt lat="39.27359022677204" lon="9.23036545222998"><ele>61.0</ele><time>2026-04-04T07:52:47Z</time></trkpt><trkpt lat="39.27376751294253" lon="9.230393571819778"><ele>61.0</ele><time>2026-04-04T07:52:48Z</time></trkpt><trkpt lat="39.27393308134425" lon="9.230418064102208"><ele>61.0</ele><time>2026-04-04T07:52:49Z</time></trkpt><trkpt lat="39.27408742138516" lon="9.23043085455509"><ele>61.5</ele><time>2026-04-04T07:52:50Z</time></trkpt><trkpt lat="39.27424101612155" lon="9.23043592430628"><ele>62.0</ele><time>2026-04-04T07:52:51Z</time></trkpt><trkpt lat="39.274386754448386" lon="9.230420685073979"><ele>62.5</ele><time>2026-04-04T07:52:52Z</time></trkpt><trkpt lat="39.27451931084065" lon="9.230387651191176"><ele>63.0</ele><time>2026-04-04T07:52:53Z</time></trkpt><trkpt lat="39.27463349236238" lon="9.23034837945088"><ele>63.0</ele><time>2026-04-04T07:52:54Z</time></trkpt><trkpt lat="39.27472692859945" lon="9.2303093394147"><ele>63.0</ele><time>2026-04-04T07:52:55Z</time></trkpt><trkpt lat="39.27480344266472" lon="9.23026879436012"><ele>63.0</ele><time>2026-04-04T07:52:56Z</time></trkpt><trkpt lat="39.27486287575041" lon="9.230234140514302"><ele>63.0</ele><time>2026-04-04T07:52:57Z</time></trkpt><trkpt lat="39.27493929456403" lon="9.230194820388508"><ele>63.0</ele><time>2026-04-04T07:52:59Z</time></trkpt><trkpt lat="39.27499689456735" lon="9.230147947133581"><ele>63.0</ele><time>2026-04-04T07:53:42Z</time></trkpt><trkpt lat="39.27508127975227" lon="9.230091851149234"><ele>63.166666666666664</ele><time>2026-04-04T07:53:44Z</time></trkpt><trkpt lat="39.27514664196015" lon="9.230064128143102"><ele>63.33333333333333</ele><time>2026-04-04T07:53:45Z</time></trkpt><trkpt lat="39.275213536046046" lon="9.23003242120597"><ele>63.5</ele><time>2026-04-04T07:53:46Z</time></trkpt><trkpt lat="39.275295985439705" lon="9.229993735734991"><ele>63.666666666666664</ele><time>2026-04-04T07:53:47Z</time></trkpt><trkpt lat="39.27538377125575" lon="9.229950553332763"><ele>63.83333333333333</ele><time>2026-04-04T07:53:48Z</time></trkpt><trkpt lat="39.275473328936734" lon="9.229903883565022"><ele>64.0</ele><time>2026-04-04T07:53:49Z</time></trkpt><trkpt lat="39.27557050331604" lon="9.229846071052654"><ele>64.2</ele><time>2026-04-04T07:53:50Z</time></trkpt><trkpt lat="39.27567265946812" lon="9.229789538938343"><ele>64.4</ele><time>2026-04-04T07:53:51Z</time></trkpt><trkpt lat="39.27577593520739" lon="9.22973339915365"><ele>64.6</ele><time>2026-04-04T07:53:52Z</time></trkpt><trkpt lat="39.27587345221343" lon="9.229677846234992"><ele>64.8</ele><time>2026-04-04T07:53:53Z</time></trkpt><trkpt lat="39.27596992806075" lon="9.22962498780054"><ele>65.0</ele><time>2026-04-04T07:53:54Z</time></trkpt><trkpt lat="39.27606435264618" lon="9.229573845283875"><ele>65.0</ele><time>2026-04-04T07:53:55Z</time></trkpt><trkpt lat="39.27615796098329" lon="9.229522556320733"><ele>65.0</ele><time>2026-04-04T07:53:56Z</time></trkpt><trkpt lat="39.27625196836047" lon="9.22947055470081"><ele>65.0</ele><time>2026-04-04T07:53:57Z</time></trkpt><trkpt lat="39.2763508023557" lon="9.229416135586042"><ele>65.0</ele><time>2026-04-04T07:53:58Z</time></trkpt><trkpt lat="39.27645260184527" lon="9.229358828131106"><ele>65.0</ele><time>2026-04-04T07:53:59Z</time></trkpt><trkpt lat="39.27655408027499" lon="9.229302471274286"><ele>65.25</ele><time>2026-04-04T07:54:00Z</time></trkpt><trkpt lat="39.27666047678266" lon="9.229244160427964"><ele>65.5</ele><time>2026-04-04T07:54:01Z</time></trkpt><trkpt lat="39.2767684341473" lon="9.229184735087792"><ele>65.75</ele><time>2026-04-04T07:54:02Z</time></trkpt><trkpt lat="39.276879457890075" lon="9.229126088123767"><ele>66.0</ele><time>2026-04-04T07:54:03Z</time></trkpt><trkpt lat="39.276991829743885" lon="9.229063317896443"><ele>66.0</ele><time>2026-04-04T07:54:04Z</time></trkpt><trkpt lat="39.2771066469209" lon="9.229000093463606"><ele>66.0</ele><time>2026-04-04T07:54:05Z</time></trkpt><trkpt lat="39.27722404615302" lon="9.228934976594092"><ele>66.0</ele><time>2026-04-04T07:54:06Z</time></trkpt><trkpt lat="39.277345260895814" lon="9.228870417835862"><ele>66.0</ele><time>2026-04-04T07:54:07Z</time></trkpt><trkpt lat="39.27746841572251" lon="9.228802389823137"><ele>66.0</ele><time>2026-04-04T07:54:08Z</time></trkpt><trkpt lat="39.27759454312131" lon="9.228733159600433"><ele>66.0</ele><time>2026-04-04T07:54:09Z</time></trkpt><trkpt lat="39.27772188135105" lon="9.228661376305672"><ele>66.0</ele><time>2026-04-04T07:54:10Z</time></trkpt><trkpt lat="39.277850433050624" lon="9.228587051885642"><ele>66.0</ele><time>2026-04-04T07:54:11Z</time></trkpt><trkpt lat="39.27797879116938" lon="9.228514071060127"><ele>67.25</ele><time>2026-04-04T07:54:12Z</time></trkpt><trkpt lat="39.27810932821752" lon="9.228437648647683"><ele>68.5</ele><time>2026-04-04T07:54:13Z</time></trkpt><trkpt lat="39.278240696131576" lon="9.228351336367085"><ele>69.75</ele><time>2026-04-04T07:54:14Z</time></trkpt><trkpt lat="39.27837196010158" lon="9.228263561660373"><ele>71.0</ele><time>2026-04-04T07:54:15Z</time></trkpt><trkpt lat="39.27850661556932" lon="9.228174626630883"><ele>70.66666666666667</ele><time>2026-04-04T07:54:16Z</time></trkpt><trkpt lat="39.278643589610844" lon="9.228087265407824"><ele>70.33333333333333</ele><time>2026-04-04T07:54:17Z</time></trkpt><trkpt lat="39.27878424772937" lon="9.227995715126328"><ele>70.0</ele><time>2026-04-04T07:54:18Z</time></trkpt><trkpt lat="39.2789297885672" lon="9.227902061691253"><ele>70.0</ele><time>2026-04-04T07:54:19Z</time></trkpt><trkpt lat="39.27907680922258" lon="9.227806091878918"><ele>70.0</ele><time>2026-04-04T07:54:20Z</time></trkpt><trkpt lat="39.27922489757864" lon="9.227708003600714"><ele>70.0</ele><time>2026-04-04T07:54:21Z</time></trkpt><trkpt lat="39.27937465198486" lon="9.227607970291297"><ele>70.0</ele><time>2026-04-04T07:54:22Z</time></trkpt><trkpt lat="39.27952595454859" lon="9.227508750111475"><ele>70.0</ele><time>2026-04-04T07:54:23Z</time></trkpt><trkpt lat="39.27967980534949" lon="9.227404865358626"><ele>70.0</ele><time>2026-04-04T07:54:24Z</time></trkpt><trkpt lat="39.27983527924594" lon="9.227298688735694"><ele>69.66666666666666</ele><time>2026-04-04T07:54:25Z</time></trkpt><trkpt lat="39.279991233846665" lon="9.227192721366995"><ele>69.33333333333333</ele><time>2026-04-04T07:54:26Z</time></trkpt><trkpt lat="39.28014928553609" lon="9.227088920762066"><ele>69.0</ele><time>2026-04-04T07:54:27Z</time></trkpt><trkpt lat="39.280308593314444" lon="9.226982827800652"><ele>69.0</ele><time>2026-04-04T07:54:28Z</time></trkpt><trkpt lat="39.28046843643557" lon="9.226876365237779"><ele>69.0</ele><time>2026-04-04T07:54:29Z</time></trkpt><trkpt lat="39.28063055878322" lon="9.226768944266121"><ele>69.0</ele><time>2026-04-04T07:54:30Z</time></trkpt><trkpt lat="39.28079013494541" lon="9.226664696574051"><ele>70.33333333333333</ele><time>2026-04-04T07:54:31Z</time></trkpt><trkpt lat="39.280946994923255" lon="9.22656227444444"><ele>71.66666666666666</ele><time>2026-04-04T07:54:32Z</time></trkpt><trkpt lat="39.28108875267094" lon="9.226459256009921"><ele>73.0</ele><time>2026-04-04T07:54:33Z</time></trkpt><trkpt lat="39.28121962126011" lon="9.226372226313675"><ele>73.0</ele><time>2026-04-04T07:54:34Z</time></trkpt><trkpt lat="39.28134235309299" lon="9.226292475688563"><ele>73.0</ele><time>2026-04-04T07:54:35Z</time></trkpt><trkpt lat="39.28146168206141" lon="9.226222222394226"><ele>73.0</ele><time>2026-04-04T07:54:36Z</time></trkpt><trkpt lat="39.281575991629836" lon="9.226167515401754"><ele>73.0</ele><time>2026-04-04T07:54:37Z</time></trkpt><trkpt lat="39.28168780858925" lon="9.226126361329268"><ele>73.2</ele><time>2026-04-04T07:54:38Z</time></trkpt><trkpt lat="39.281797299589755" lon="9.22609359311013"><ele>73.4</ele><time>2026-04-04T07:54:39Z</time></trkpt><trkpt lat="39.28190303883054" lon="9.226070879166317"><ele>73.60000000000001</ele><time>2026-04-04T07:54:40Z</time></trkpt><trkpt lat="39.28200408711224" lon="9.226053737977411"><ele>73.8</ele><time>2026-04-04T07:54:41Z</time></trkpt><trkpt lat="39.28209967549278" lon="9.226039888764346"><ele>74.0</ele><time>2026-04-04T07:54:42Z</time></trkpt><trkpt lat="39.28219201579495" lon="9.226030135668452"><ele>74.60000000000001</ele><time>2026-04-04T07:54:43Z</time></trkpt><trkpt lat="39.2822831538824" lon="9.226020815448086"><ele>75.2</ele><time>2026-04-04T07:54:44Z</time></trkpt><trkpt lat="39.28237578971238" lon="9.226013934241182"><ele>75.80000000000001</ele><time>2026-04-04T07:54:45Z</time></trkpt><trkpt lat="39.28247149229556" lon="9.22600737837384"><ele>76.4</ele><time>2026-04-04T07:54:46Z</time></trkpt><trkpt lat="39.28256892353116" lon="9.225992755525242"><ele>77.0</ele><time>2026-04-04T07:54:47Z</time></trkpt><trkpt lat="39.282670123399285" lon="9.22597875325313"><ele>77.0</ele><time>2026-04-04T07:54:48Z</time></trkpt><trkpt lat="39.28277345760019" lon="9.225964041205886"><ele>77.0</ele><time>2026-04-04T07:54:49Z</time></trkpt><trkpt lat="39.28288073113094" lon="9.225949511528764"><ele>77.0</ele><time>2026-04-04T07:54:50Z</time></trkpt><trkpt lat="39.28299147427595" lon="9.22593951392064"><ele>77.0</ele><time>2026-04-04T07:54:51Z</time></trkpt><trkpt lat="39.283104772135424" lon="9.225929364688218"><ele>77.0</ele><time>2026-04-04T07:54:52Z</time></trkpt><trkpt lat="39.28322006039788" lon="9.225914489314235"><ele>77.25</ele><time>2026-04-04T07:54:53Z</time></trkpt><trkpt lat="39.28333997150582" lon="9.225902652166907"><ele>77.5</ele><time>2026-04-04T07:54:54Z</time></trkpt><trkpt lat="39.283460255167846" lon="9.225889236356965"><ele>77.75</ele><time>2026-04-04T07:54:55Z</time></trkpt><trkpt lat="39.283581060425405" lon="9.225869146212277"><ele>78.0</ele><time>2026-04-04T07:54:56Z</time></trkpt><trkpt lat="39.28370118408022" lon="9.22583837185917"><ele>78.0</ele><time>2026-04-04T07:54:57Z</time></trkpt><trkpt lat="39.28382099502279" lon="9.225796706185696"><ele>78.0</ele><time>2026-04-04T07:54:58Z</time></trkpt><trkpt lat="39.28393664462582" lon="9.225743042598943"><ele>78.0</ele><time>2026-04-04T07:54:59Z</time></trkpt><trkpt lat="39.28405147523912" lon="9.225680464320606"><ele>78.0</ele><time>2026-04-04T07:55:00Z</time></trkpt><trkpt lat="39.284162344307916" lon="9.225607786737257"><ele>78.75</ele><time>2026-04-04T07:55:01Z</time></trkpt><trkpt lat="39.28426774040003" lon="9.22552485659916"><ele>79.5</ele><time>2026-04-04T07:55:02Z</time></trkpt><trkpt lat="39.284370794870796" lon="9.225433167983775"><ele>80.25</ele><time>2026-04-04T07:55:03Z</time></trkpt><trkpt lat="39.284473338246165" lon="9.225335922242166"><ele>81.0</ele><time>2026-04-04T07:55:04Z</time></trkpt><trkpt lat="39.2845773371253" lon="9.225241510931475"><ele>81.0</ele><time>2026-04-04T07:55:05Z</time></trkpt><trkpt lat="39.28468370731906" lon="9.225145752451182"><ele>81.0</ele><time>2026-04-04T07:55:06Z</time></trkpt><trkpt lat="39.284790588404825" lon="9.225049735685417"><ele>81.0</ele><time>2026-04-04T07:55:07Z</time></trkpt><trkpt lat="39.2848951865161" lon="9.224948915970465"><ele>81.0</ele><time>2026-04-04T07:55:08Z</time></trkpt><trkpt lat="39.28500205296443" lon="9.224849154682193"><ele>81.5</ele><time>2026-04-04T07:55:09Z</time></trkpt><trkpt lat="39.28510982184678" lon="9.224752619595375"><ele>82.0</ele><time>2026-04-04T07:55:10Z</time></trkpt><trkpt lat="39.28521737036604" lon="9.224656453761199"><ele>82.5</ele><time>2026-04-04T07:55:11Z</time></trkpt><trkpt lat="39.285316956405204" lon="9.224567104134772"><ele>83.0</ele><time>2026-04-04T07:55:12Z</time></trkpt><trkpt lat="39.28541069457026" lon="9.224483038481301"><ele>83.0</ele><time>2026-04-04T07:55:13Z</time></trkpt><trkpt lat="39.28549772755175" lon="9.224403219061108"><ele>83.0</ele><time>2026-04-04T07:55:14Z</time></trkpt><trkpt lat="39.2855771148949" lon="9.224327604421715"><ele>83.0</ele><time>2026-04-04T07:55:15Z</time></trkpt><trkpt lat="39.28565474337643" lon="9.224261787709255"><ele>83.0</ele><time>2026-04-04T07:55:16Z</time></trkpt><trkpt lat="39.285728159240755" lon="9.224210164562647"><ele>83.0</ele><time>2026-04-04T07:55:17Z</time></trkpt><trkpt lat="39.28579833140268" lon="9.22414960560785"><ele>83.0</ele><time>2026-04-04T07:55:18Z</time></trkpt><trkpt lat="39.28587259765674" lon="9.22411064176692"><ele>83.0</ele><time>2026-04-04T07:55:19Z</time></trkpt><trkpt lat="39.28588079830186" lon="9.223943278972618"><ele>83.0</ele><time>2026-04-04T07:55:20Z</time></trkpt><trkpt lat="39.28590438487486" lon="9.223810164545228"><ele>83.0</ele><time>2026-04-04T07:55:21Z</time></trkpt><trkpt lat="39.285947661727356" lon="9.22367137074469"><ele>83.0</ele><time>2026-04-04T07:55:22Z</time></trkpt><trkpt lat="39.285999786492425" lon="9.223528825994308"><ele>82.75</ele><time>2026-04-04T07:55:23Z</time></trkpt><trkpt lat="39.28604769613757" lon="9.223373578728495"><ele>82.5</ele><time>2026-04-04T07:55:24Z</time></trkpt><trkpt lat="39.28609652806483" lon="9.223209595366981"><ele>82.25</ele><time>2026-04-04T07:55:25Z</time></trkpt><trkpt lat="39.286148589247276" lon="9.22304183725279"><ele>82.0</ele><time>2026-04-04T07:55:26Z</time></trkpt><trkpt lat="39.28620008364114" lon="9.222875314784824"><ele>82.0</ele><time>2026-04-04T07:55:27Z</time></trkpt><trkpt lat="39.28624898849415" lon="9.222712991341611"><ele>82.0</ele><time>2026-04-04T07:55:28Z</time></trkpt><trkpt lat="39.28629650512378" lon="9.222552259092314"><ele>82.0</ele><time>2026-04-04T07:55:29Z</time></trkpt><trkpt lat="39.28635922201406" lon="9.222402962201661"><ele>82.0</ele><time>2026-04-04T07:55:30Z</time></trkpt><trkpt lat="39.28640502080347" lon="9.222255944010419"><ele>82.16666666666666</ele><time>2026-04-04T07:55:31Z</time></trkpt><trkpt lat="39.28644710435863" lon="9.22212123106511"><ele>82.33333333333333</ele><time>2026-04-04T07:55:32Z</time></trkpt><trkpt lat="39.286482972239234" lon="9.222006286256528"><ele>82.5</ele><time>2026-04-04T07:55:33Z</time></trkpt><trkpt lat="39.286514184510786" lon="9.221906261179177"><ele>82.66666666666667</ele><time>2026-04-04T07:55:34Z</time></trkpt><trkpt lat="39.286539907090706" lon="9.22182382871026"><ele>82.83333333333334</ele><time>2026-04-04T07:55:35Z</time></trkpt><trkpt lat="39.28656895958307" lon="9.221730725051204"><ele>83.0</ele><time>2026-04-04T07:55:37Z</time></trkpt><trkpt lat="39.286592749458535" lon="9.221654486311248"><ele>83.0</ele><time>2026-04-04T07:57:06Z</time></trkpt><trkpt lat="39.28662687000908" lon="9.221545141131092"><ele>83.0</ele><time>2026-04-04T07:57:08Z</time></trkpt><trkpt lat="39.28665058190321" lon="9.221469152284758"><ele>83.0</ele><time>2026-04-04T07:57:09Z</time></trkpt><trkpt lat="39.28667663372728" lon="9.221385664744897"><ele>83.0</ele><time>2026-04-04T07:57:10Z</time></trkpt><trkpt lat="39.286707373062214" lon="9.221287155273037"><ele>83.0</ele><time>2026-04-04T07:57:11Z</time></trkpt><trkpt lat="39.286739977078945" lon="9.221182670110936"><ele>83.0</ele><time>2026-04-04T07:57:12Z</time></trkpt><trkpt lat="39.28677438309935" lon="9.221072410100325"><ele>83.0</ele><time>2026-04-04T07:57:13Z</time></trkpt><trkpt lat="39.28678924760818" lon="9.220943684939378"><ele>83.0</ele><time>2026-04-04T07:57:14Z</time></trkpt><trkpt lat="39.286832696765295" lon="9.22082078224615"><ele>83.0</ele><time>2026-04-04T07:57:15Z</time></trkpt><trkpt lat="39.28687725820674" lon="9.22069146682004"><ele>83.0</ele><time>2026-04-04T07:57:16Z</time></trkpt><trkpt lat="39.28691555342123" lon="9.220569457541115"><ele>83.0</ele><time>2026-04-04T07:57:17Z</time></trkpt><trkpt lat="39.28695291204694" lon="9.220447371557828"><ele>83.0</ele><time>2026-04-04T07:57:18Z</time></trkpt><trkpt lat="39.286991721001655" lon="9.2203190776717"><ele>83.0</ele><time>2026-04-04T07:57:19Z</time></trkpt><trkpt lat="39.287033131804264" lon="9.220189749057877"><ele>83.0</ele><time>2026-04-04T07:57:20Z</time></trkpt><trkpt lat="39.287075729739755" lon="9.220059371715886"><ele>83.0</ele><time>2026-04-04T07:57:21Z</time></trkpt><trkpt lat="39.287113960620026" lon="9.219931434546409"><ele>83.0</ele><time>2026-04-04T07:57:22Z</time></trkpt><trkpt lat="39.28715100733329" lon="9.21980908642446"><ele>83.0</ele><time>2026-04-04T07:57:23Z</time></trkpt><trkpt lat="39.28718925577406" lon="9.219687330036594"><ele>83.0</ele><time>2026-04-04T07:57:24Z</time></trkpt><trkpt lat="39.28722571654683" lon="9.219570842306789"><ele>83.0</ele><time>2026-04-04T07:57:25Z</time></trkpt><trkpt lat="39.28726268709134" lon="9.219453644730184"><ele>83.0</ele><time>2026-04-04T07:57:26Z</time></trkpt><trkpt lat="39.28730174638244" lon="9.21933060315188"><ele>83.0</ele><time>2026-04-04T07:57:27Z</time></trkpt><trkpt lat="39.28734445507718" lon="9.219205939000776"><ele>83.75</ele><time>2026-04-04T07:57:28Z</time></trkpt><trkpt lat="39.28739009361316" lon="9.21907563435812"><ele>84.5</ele><time>2026-04-04T07:57:29Z</time></trkpt><trkpt lat="39.28743378360064" lon="9.218936296902854"><ele>85.25</ele><time>2026-04-04T07:57:30Z</time></trkpt><trkpt lat="39.2874786044868" lon="9.218792596063603"><ele>86.0</ele><time>2026-04-04T07:57:31Z</time></trkpt><trkpt lat="39.28752410420361" lon="9.21864377401959"><ele>86.0</ele><time>2026-04-04T07:57:32Z</time></trkpt><trkpt lat="39.28757246247034" lon="9.218490057050625"><ele>86.0</ele><time>2026-04-04T07:57:33Z</time></trkpt><trkpt lat="39.28762191612959" lon="9.2183347954469"><ele>86.0</ele><time>2026-04-04T07:57:34Z</time></trkpt><trkpt lat="39.28767367456312" lon="9.218173176006262"><ele>86.0</ele><time>2026-04-04T07:57:35Z</time></trkpt><trkpt lat="39.28772567822546" lon="9.218010672398384"><ele>85.75</ele><time>2026-04-04T07:57:36Z</time></trkpt><trkpt lat="39.2877756879677" lon="9.217850223374565"><ele>85.5</ele><time>2026-04-04T07:57:37Z</time></trkpt><trkpt lat="39.287824340928964" lon="9.217696190234006"><ele>85.25</ele><time>2026-04-04T07:57:38Z</time></trkpt><trkpt lat="39.287868092328615" lon="9.217553205028429"><ele>85.0</ele><time>2026-04-04T07:57:39Z</time></trkpt><trkpt lat="39.28790305657203" lon="9.21742320461876"><ele>84.4</ele><time>2026-04-04T07:57:40Z</time></trkpt><trkpt lat="39.28792676134553" lon="9.217310140213538"><ele>83.8</ele><time>2026-04-04T07:57:41Z</time></trkpt><trkpt lat="39.28794091301547" lon="9.217215044527793"><ele>83.19999999999999</ele><time>2026-04-04T07:57:42Z</time></trkpt><trkpt lat="39.28796589305947" lon="9.217092109246117"><ele>82.6</ele><time>2026-04-04T07:57:44Z</time></trkpt><trkpt lat="39.288016207882336" lon="9.216968575294924"><ele>82.0</ele><time>2026-04-04T07:57:47Z</time></trkpt><trkpt lat="39.288053329012094" lon="9.21681863239379"><ele>82.0</ele><time>2026-04-04T07:57:49Z</time></trkpt><trkpt lat="39.288053015561836" lon="9.216729893612381"><ele>82.0</ele><time>2026-04-04T07:57:50Z</time></trkpt><trkpt lat="39.288006121507856" lon="9.216646292561189"><ele>82.0</ele><time>2026-04-04T07:57:51Z</time></trkpt><trkpt lat="39.28792986552979" lon="9.216569572416875"><ele>82.0</ele><time>2026-04-04T07:57:52Z</time></trkpt><trkpt lat="39.28785152328468" lon="9.216470937788038"><ele>82.0</ele><time>2026-04-04T07:57:53Z</time></trkpt><trkpt lat="39.28779702304612" lon="9.216331713323376"><ele>82.5</ele><time>2026-04-04T07:57:54Z</time></trkpt><trkpt lat="39.28779584122448" lon="9.216172463957825"><ele>83.0</ele><time>2026-04-04T07:57:55Z</time></trkpt><trkpt lat="39.28781487667243" lon="9.215996708197705"><ele>83.5</ele><time>2026-04-04T07:57:56Z</time></trkpt><trkpt lat="39.287796196227276" lon="9.215815694630333"><ele>84.0</ele><time>2026-04-04T07:57:57Z</time></trkpt><trkpt lat="39.28776695788481" lon="9.215632572145328"><ele>84.0</ele><time>2026-04-04T07:57:58Z</time></trkpt><trkpt lat="39.28773355712176" lon="9.215432599720897"><ele>84.0</ele><time>2026-04-04T07:57:59Z</time></trkpt><trkpt lat="39.287698399168626" lon="9.215226723999313"><ele>84.0</ele><time>2026-04-04T07:58:00Z</time></trkpt><trkpt lat="39.28766120993304" lon="9.21500895386861"><ele>84.33333333333333</ele><time>2026-04-04T07:58:01Z</time></trkpt><trkpt lat="39.28762292918751" lon="9.214784791994385"><ele>84.66666666666666</ele><time>2026-04-04T07:58:02Z</time></trkpt><trkpt lat="39.287582687617366" lon="9.214549148112138"><ele>85.0</ele><time>2026-04-04T07:58:03Z</time></trkpt><trkpt lat="39.287541297615014" lon="9.214306779280815"><ele>85.0</ele><time>2026-04-04T07:58:04Z</time></trkpt><trkpt lat="39.28749834307251" lon="9.214056937208927"><ele>85.0</ele><time>2026-04-04T07:58:05Z</time></trkpt><trkpt lat="39.28745650021399" lon="9.213813824519445"><ele>85.0</ele><time>2026-04-04T07:58:06Z</time></trkpt><trkpt lat="39.28741531809673" lon="9.213574550705058"><ele>85.0</ele><time>2026-04-04T07:58:07Z</time></trkpt><trkpt lat="39.28737412487399" lon="9.213335212318775"><ele>85.0</ele><time>2026-04-04T07:58:08Z</time></trkpt><trkpt lat="39.28733336807622" lon="9.213098409756675"><ele>85.0</ele><time>2026-04-04T07:58:09Z</time></trkpt><trkpt lat="39.28729447910114" lon="9.212862007244967"><ele>84.33333333333333</ele><time>2026-04-04T07:58:10Z</time></trkpt><trkpt lat="39.28726107078154" lon="9.212629846605541"><ele>83.66666666666667</ele><time>2026-04-04T07:58:11Z</time></trkpt><trkpt lat="39.28723497166618" lon="9.212402492509687"><ele>83.0</ele><time>2026-04-04T07:58:12Z</time></trkpt><trkpt lat="39.28721622262094" lon="9.212192489823817"><ele>83.0</ele><time>2026-04-04T07:58:13Z</time></trkpt><trkpt lat="39.287206050081615" lon="9.21198852137351"><ele>83.0</ele><time>2026-04-04T07:58:14Z</time></trkpt><trkpt lat="39.287204663292265" lon="9.21177755926588"><ele>83.0</ele><time>2026-04-04T07:58:15Z</time></trkpt><trkpt lat="39.28720923676851" lon="9.21156235574303"><ele>83.0</ele><time>2026-04-04T07:58:16Z</time></trkpt><trkpt lat="39.287207274204576" lon="9.21134174521629"><ele>83.0</ele><time>2026-04-04T07:58:17Z</time></trkpt><trkpt lat="39.287242841639" lon="9.211122589201496"><ele>83.0</ele><time>2026-04-04T07:58:18Z</time></trkpt><trkpt lat="39.28727943956927" lon="9.210911163251179"><ele>84.0</ele><time>2026-04-04T07:58:19Z</time></trkpt><trkpt lat="39.28732300857356" lon="9.210701666401157"><ele>85.0</ele><time>2026-04-04T07:58:20Z</time></trkpt><trkpt lat="39.28737130477419" lon="9.210498381871774"><ele>86.0</ele><time>2026-04-04T07:58:21Z</time></trkpt><trkpt lat="39.28742330507468" lon="9.210316077575483"><ele>86.0</ele><time>2026-04-04T07:58:22Z</time></trkpt><trkpt lat="39.287476137410124" lon="9.210151899461176"><ele>86.0</ele><time>2026-04-04T07:58:23Z</time></trkpt><trkpt lat="39.28752940067363" lon="9.21000188369506"><ele>86.0</ele><time>2026-04-04T07:58:24Z</time></trkpt><trkpt lat="39.28758176151983" lon="9.20986129838836"><ele>86.0</ele><time>2026-04-04T07:58:25Z</time></trkpt><trkpt lat="39.287625966159354" lon="9.209758428177269"><ele>86.16666666666667</ele><time>2026-04-04T07:58:26Z</time></trkpt><trkpt lat="39.287660286638804" lon="9.209682605278031"><ele>86.33333333333334</ele><time>2026-04-04T07:58:27Z</time></trkpt><trkpt lat="39.287693248778005" lon="9.209612624699554"><ele>86.5</ele><time>2026-04-04T07:58:28Z</time></trkpt><trkpt lat="39.28774776116691" lon="9.209498162700697"><ele>86.66666666666667</ele><time>2026-04-04T07:58:30Z</time></trkpt><trkpt lat="39.287788045584485" lon="9.209380550912664"><ele>86.83333333333333</ele><time>2026-04-04T07:58:32Z</time></trkpt><trkpt lat="39.28783995414918" lon="9.209326182062496"><ele>87.0</ele><time>2026-04-04T07:58:34Z</time></trkpt><trkpt lat="39.287895358238686" lon="9.209197198159528"><ele>87.0</ele><time>2026-04-04T07:59:29Z</time></trkpt><trkpt lat="39.28793483264828" lon="9.209119483171868"><ele>87.0</ele><time>2026-04-04T07:59:30Z</time></trkpt><trkpt lat="39.2879827482467" lon="9.209031334509316"><ele>87.0</ele><time>2026-04-04T07:59:31Z</time></trkpt><trkpt lat="39.28803693501023" lon="9.208923401083753"><ele>87.0</ele><time>2026-04-04T07:59:32Z</time></trkpt><trkpt lat="39.28809432641202" lon="9.208805844675048"><ele>87.0</ele><time>2026-04-04T07:59:33Z</time></trkpt><trkpt lat="39.28816350557821" lon="9.20866835513951"><ele>88.0</ele><time>2026-04-04T07:59:34Z</time></trkpt><trkpt lat="39.288238283084766" lon="9.208521824250004"><ele>89.0</ele><time>2026-04-04T07:59:35Z</time></trkpt><trkpt lat="39.288313504939794" lon="9.20837308887833"><ele>90.0</ele><time>2026-04-04T07:59:36Z</time></trkpt><trkpt lat="39.288391566110825" lon="9.20821544735946"><ele>91.0</ele><time>2026-04-04T07:59:37Z</time></trkpt><trkpt lat="39.28847229166366" lon="9.20805136440039"><ele>91.0</ele><time>2026-04-04T07:59:38Z</time></trkpt><trkpt lat="39.28855501760817" lon="9.207885957234955"><ele>91.0</ele><time>2026-04-04T07:59:39Z</time></trkpt><trkpt lat="39.28864019176838" lon="9.207718092641267"><ele>91.0</ele><time>2026-04-04T07:59:40Z</time></trkpt><trkpt lat="39.28872591447108" lon="9.207545907563029"><ele>91.0</ele><time>2026-04-04T07:59:41Z</time></trkpt><trkpt lat="39.28881084872157" lon="9.207375489656963"><ele>91.0</ele><time>2026-04-04T07:59:42Z</time></trkpt><trkpt lat="39.288890915140946" lon="9.20721820092987"><ele>91.0</ele><time>2026-04-04T07:59:43Z</time></trkpt><trkpt lat="39.28897242804381" lon="9.207054925146625"><ele>93.66666666666666</ele><time>2026-04-04T07:59:44Z</time></trkpt><trkpt lat="39.28905590880622" lon="9.20689214129154"><ele>96.33333333333333</ele><time>2026-04-04T07:59:45Z</time></trkpt><trkpt lat="39.289141051282876" lon="9.206726832609354"><ele>99.0</ele><time>2026-04-04T07:59:46Z</time></trkpt><trkpt lat="39.28922526574855" lon="9.206552145883037"><ele>97.33333333333333</ele><time>2026-04-04T07:59:47Z</time></trkpt><trkpt lat="39.28931338462826" lon="9.206372939372619"><ele>95.66666666666666</ele><time>2026-04-04T07:59:48Z</time></trkpt><trkpt lat="39.28940721287127" lon="9.20618734596455"><ele>94.0</ele><time>2026-04-04T07:59:49Z</time></trkpt><trkpt lat="39.28950265929315" lon="9.206000671359828"><ele>94.0</ele><time>2026-04-04T07:59:50Z</time></trkpt><trkpt lat="39.28960190947868" lon="9.205802231505357"><ele>94.0</ele><time>2026-04-04T07:59:51Z</time></trkpt><trkpt lat="39.28969852328724" lon="9.205598074627307"><ele>94.0</ele><time>2026-04-04T07:59:52Z</time></trkpt><trkpt lat="39.289791732793134" lon="9.205388951236827"><ele>95.33333333333333</ele><time>2026-04-04T07:59:53Z</time></trkpt><trkpt lat="39.28988716747561" lon="9.205166350070957"><ele>96.66666666666666</ele><time>2026-04-04T07:59:54Z</time></trkpt><trkpt lat="39.289977256734126" lon="9.204938546585298"><ele>98.0</ele><time>2026-04-04T07:59:55Z</time></trkpt><trkpt lat="39.29005979461828" lon="9.20470200481038"><ele>98.0</ele><time>2026-04-04T07:59:56Z</time></trkpt><trkpt lat="39.2901618304104" lon="9.204470792885003"><ele>98.0</ele><time>2026-04-04T07:59:57Z</time></trkpt><trkpt lat="39.29022713601256" lon="9.204224722169174"><ele>98.0</ele><time>2026-04-04T07:59:58Z</time></trkpt><trkpt lat="39.29028788601256" lon="9.203973374943818"><ele>98.33333333333333</ele><time>2026-04-04T07:59:59Z</time></trkpt><trkpt lat="39.29033769717863" lon="9.203724155956666"><ele>98.66666666666666</ele><time>2026-04-04T08:00:00Z</time></trkpt><trkpt lat="39.290376904628054" lon="9.203481847563001"><ele>99.0</ele><time>2026-04-04T08:00:01Z</time></trkpt><trkpt lat="39.2904125857322" lon="9.203239369174431"><ele>99.66666666666666</ele><time>2026-04-04T08:00:02Z</time></trkpt><trkpt lat="39.29043931583607" lon="9.203005041572299"><ele>100.33333333333333</ele><time>2026-04-04T08:00:03Z</time></trkpt><trkpt lat="39.290449388220914" lon="9.20277279845899"><ele>101.0</ele><time>2026-04-04T08:00:04Z</time></trkpt><trkpt lat="39.29045186810058" lon="9.202557765355005"><ele>101.0</ele><time>2026-04-04T08:00:05Z</time></trkpt><trkpt lat="39.290448693882794" lon="9.202353436907504"><ele>101.0</ele><time>2026-04-04T08:00:06Z</time></trkpt><trkpt lat="39.290448663227856" lon="9.202166909211906"><ele>101.0</ele><time>2026-04-04T08:00:07Z</time></trkpt><trkpt lat="39.29045780824289" lon="9.20201514283246"><ele>101.0</ele><time>2026-04-04T08:00:08Z</time></trkpt><trkpt lat="39.29050191258854" lon="9.201877911019086"><ele>102.19999999999999</ele><time>2026-04-04T08:00:09Z</time></trkpt><trkpt lat="39.29053463567876" lon="9.201764407576789"><ele>103.39999999999999</ele><time>2026-04-04T08:00:10Z</time></trkpt><trkpt lat="39.29061379467068" lon="9.2017106159508"><ele>104.6</ele><time>2026-04-04T08:00:11Z</time></trkpt><trkpt lat="39.29064176206457" lon="9.2016262331485"><ele>105.8</ele><time>2026-04-04T08:00:12Z</time></trkpt><trkpt lat="39.29062166228308" lon="9.201497276134113"><ele>107.0</ele><time>2026-04-04T08:00:13Z</time></trkpt><trkpt lat="39.29048199379846" lon="9.20143676864747"><ele>107.75</ele><time>2026-04-04T08:00:14Z</time></trkpt><trkpt lat="39.29039370889559" lon="9.201370013093362"><ele>108.5</ele><time>2026-04-04T08:00:15Z</time></trkpt><trkpt lat="39.290311990415546" lon="9.201279430333509"><ele>109.25</ele><time>2026-04-04T08:00:16Z</time></trkpt><trkpt lat="39.29024529679661" lon="9.20113914321561"><ele>110.0</ele><time>2026-04-04T08:00:17Z</time></trkpt><trkpt lat="39.290232801856966" lon="9.200953969769747"><ele>110.0</ele><time>2026-04-04T08:00:18Z</time></trkpt><trkpt lat="39.29017404601501" lon="9.20076925549644"><ele>110.0</ele><time>2026-04-04T08:00:19Z</time></trkpt><trkpt lat="39.290115241891776" lon="9.200587362716591"><ele>110.0</ele><time>2026-04-04T08:00:20Z</time></trkpt><trkpt lat="39.29004713324525" lon="9.200401550289696"><ele>111.0</ele><time>2026-04-04T08:00:21Z</time></trkpt><trkpt lat="39.2899702866156" lon="9.200210362061771"><ele>112.0</ele><time>2026-04-04T08:00:22Z</time></trkpt><trkpt lat="39.28988708754631" lon="9.200015948359523"><ele>113.0</ele><time>2026-04-04T08:00:23Z</time></trkpt><trkpt lat="39.28979231273513" lon="9.199820062803408"><ele>114.0</ele><time>2026-04-04T08:00:24Z</time></trkpt><trkpt lat="39.28968597270053" lon="9.19962211802569"><ele>115.0</ele><time>2026-04-04T08:00:25Z</time></trkpt><trkpt lat="39.28956563013767" lon="9.199423419741278"><ele>116.0</ele><time>2026-04-04T08:00:26Z</time></trkpt><trkpt lat="39.28943225720576" lon="9.199231880386854"><ele>116.0</ele><time>2026-04-04T08:00:27Z</time></trkpt><trkpt lat="39.289293273085406" lon="9.199049108103079"><ele>116.0</ele><time>2026-04-04T08:00:28Z</time></trkpt><trkpt lat="39.2891530007096" lon="9.198870909905624"><ele>116.0</ele><time>2026-04-04T08:00:29Z</time></trkpt><trkpt lat="39.289009148467606" lon="9.198701341700806"><ele>113.33333333333333</ele><time>2026-04-04T08:00:30Z</time></trkpt><trkpt lat="39.28886044221501" lon="9.19854175306103"><ele>110.66666666666666</ele><time>2026-04-04T08:00:31Z</time></trkpt><trkpt lat="39.28870656786673" lon="9.198393581294848"><ele>108.0</ele><time>2026-04-04T08:00:32Z</time></trkpt><trkpt lat="39.28854614068923" lon="9.198250237903366"><ele>105.0</ele><time>2026-04-04T08:00:33Z</time></trkpt><trkpt lat="39.288377650141214" lon="9.198118046122907"><ele>102.0</ele><time>2026-04-04T08:00:34Z</time></trkpt><trkpt lat="39.28820188415081" lon="9.197993055845746"><ele>99.0</ele><time>2026-04-04T08:00:35Z</time></trkpt><trkpt lat="39.288020258091166" lon="9.197878571347259"><ele>97.33333333333333</ele><time>2026-04-04T08:00:36Z</time></trkpt><trkpt lat="39.28782612436826" lon="9.197792967890107"><ele>95.66666666666666</ele><time>2026-04-04T08:00:37Z</time></trkpt><trkpt lat="39.28763876622164" lon="9.19769613750535"><ele>94.0</ele><time>2026-04-04T08:00:38Z</time></trkpt><trkpt lat="39.28744700404303" lon="9.19760138662108"><ele>91.33333333333333</ele><time>2026-04-04T08:00:39Z</time></trkpt><trkpt lat="39.28724773348252" lon="9.197533125260746"><ele>88.66666666666667</ele><time>2026-04-04T08:00:40Z</time></trkpt><trkpt lat="39.287048854116435" lon="9.197464345253238"><ele>86.0</ele><time>2026-04-04T08:00:41Z</time></trkpt><trkpt lat="39.286855011044715" lon="9.197368308290509"><ele>83.33333333333334</ele><time>2026-04-04T08:00:42Z</time></trkpt><trkpt lat="39.28666024942904" lon="9.197292015437753"><ele>80.66666666666667</ele><time>2026-04-04T08:00:43Z</time></trkpt><trkpt lat="39.28645858830377" lon="9.197211908278891"><ele>78.0</ele><time>2026-04-04T08:00:44Z</time></trkpt><trkpt lat="39.286259967478976" lon="9.19713262985327"><ele>76.0</ele><time>2026-04-04T08:00:45Z</time></trkpt><trkpt lat="39.2860622195801" lon="9.197053699848633"><ele>74.0</ele><time>2026-04-04T08:00:46Z</time></trkpt><trkpt lat="39.28586528010331" lon="9.196973500669957"><ele>72.0</ele><time>2026-04-04T08:00:47Z</time></trkpt><trkpt lat="39.28566416405778" lon="9.196891209148065"><ele>70.0</ele><time>2026-04-04T08:00:48Z</time></trkpt><trkpt lat="39.285465180344985" lon="9.196809779548195"><ele>68.0</ele><time>2026-04-04T08:00:49Z</time></trkpt><trkpt lat="39.285266182606605" lon="9.196728337674593"><ele>66.0</ele><time>2026-04-04T08:00:50Z</time></trkpt><trkpt lat="39.28506685326875" lon="9.19664676009708"><ele>66.0</ele><time>2026-04-04T08:00:51Z</time></trkpt><trkpt lat="39.28486981636972" lon="9.196564802442918"><ele>66.0</ele><time>2026-04-04T08:00:52Z</time></trkpt><trkpt lat="39.284673207175764" lon="9.196482661405412"><ele>66.0</ele><time>2026-04-04T08:00:53Z</time></trkpt><trkpt lat="39.2844721266248" lon="9.196414781508151"><ele>64.66666666666667</ele><time>2026-04-04T08:00:54Z</time></trkpt><trkpt lat="39.28427971888714" lon="9.196316485197745"><ele>63.333333333333336</ele><time>2026-04-04T08:00:55Z</time></trkpt><trkpt lat="39.28409957030452" lon="9.196185538735934"><ele>62.0</ele><time>2026-04-04T08:00:56Z</time></trkpt><trkpt lat="39.28391968461056" lon="9.196066750683919"><ele>62.0</ele><time>2026-04-04T08:00:57Z</time></trkpt><trkpt lat="39.28375098335962" lon="9.19594262315108"><ele>62.0</ele><time>2026-04-04T08:00:58Z</time></trkpt><trkpt lat="39.28360102119224" lon="9.195812549410467"><ele>62.0</ele><time>2026-04-04T08:00:59Z</time></trkpt><trkpt lat="39.283468395950635" lon="9.195667704271113"><ele>62.0</ele><time>2026-04-04T08:01:00Z</time></trkpt><trkpt lat="39.28333776997422" lon="9.195503704806718"><ele>62.0</ele><time>2026-04-04T08:01:01Z</time></trkpt><trkpt lat="39.28320589430853" lon="9.195337772367479"><ele>62.0</ele><time>2026-04-04T08:01:02Z</time></trkpt><trkpt lat="39.283078065014266" lon="9.195166246310183"><ele>62.66666666666667</ele><time>2026-04-04T08:01:03Z</time></trkpt><trkpt lat="39.282953717445" lon="9.194987631102613"><ele>63.33333333333333</ele><time>2026-04-04T08:01:04Z</time></trkpt><trkpt lat="39.282834831849335" lon="9.194796221192004"><ele>64.0</ele><time>2026-04-04T08:01:05Z</time></trkpt><trkpt lat="39.28272410218092" lon="9.194590369016323"><ele>64.0</ele><time>2026-04-04T08:01:06Z</time></trkpt><trkpt lat="39.28261968480803" lon="9.1943775250654"><ele>64.0</ele><time>2026-04-04T08:01:07Z</time></trkpt><trkpt lat="39.28252246501714" lon="9.19416007998565"><ele>64.0</ele><time>2026-04-04T08:01:08Z</time></trkpt><trkpt lat="39.28242629970347" lon="9.193930762596416"><ele>63.33333333333333</ele><time>2026-04-04T08:01:09Z</time></trkpt><trkpt lat="39.28233038189849" lon="9.193697169785091"><ele>62.66666666666667</ele><time>2026-04-04T08:01:10Z</time></trkpt><trkpt lat="39.2822264319131" lon="9.19346609602221"><ele>62.0</ele><time>2026-04-04T08:01:11Z</time></trkpt><trkpt lat="39.28213149545372" lon="9.193220856399684"><ele>61.66666666666667</ele><time>2026-04-04T08:01:12Z</time></trkpt><trkpt lat="39.28203516519936" lon="9.192973787826901"><ele>61.33333333333333</ele><time>2026-04-04T08:01:13Z</time></trkpt><trkpt lat="39.28193635007296" lon="9.192729163591885"><ele>61.0</ele><time>2026-04-04T08:01:14Z</time></trkpt><trkpt lat="39.281834531687124" lon="9.192480002146748"><ele>60.33333333333333</ele><time>2026-04-04T08:01:15Z</time></trkpt><trkpt lat="39.28173204935386" lon="9.192227904113347"><ele>59.66666666666667</ele><time>2026-04-04T08:01:16Z</time></trkpt><trkpt lat="39.28163125872577" lon="9.191974660631717"><ele>59.0</ele><time>2026-04-04T08:01:17Z</time></trkpt><trkpt lat="39.28152910179373" lon="9.191721411952818"><ele>57.66666666666667</ele><time>2026-04-04T08:01:18Z</time></trkpt><trkpt lat="39.2814276564335" lon="9.191465588062078"><ele>56.33333333333333</ele><time>2026-04-04T08:01:19Z</time></trkpt><trkpt lat="39.28132585806515" lon="9.191207043386138"><ele>55.0</ele><time>2026-04-04T08:01:20Z</time></trkpt><trkpt lat="39.2812268748141" lon="9.190952811266357"><ele>55.0</ele><time>2026-04-04T08:01:21Z</time></trkpt><trkpt lat="39.281126031885584" lon="9.190705883851667"><ele>55.0</ele><time>2026-04-04T08:01:22Z</time></trkpt><trkpt lat="39.2810286692172" lon="9.190460701452775"><ele>55.0</ele><time>2026-04-04T08:01:23Z</time></trkpt><trkpt lat="39.28093414372038" lon="9.190220005553664"><ele>54.33333333333333</ele><time>2026-04-04T08:01:24Z</time></trkpt><trkpt lat="39.280838177131834" lon="9.189988235811702"><ele>53.66666666666667</ele><time>2026-04-04T08:01:25Z</time></trkpt><trkpt lat="39.280733558857854" lon="9.189768522727183"><ele>53.0</ele><time>2026-04-04T08:01:26Z</time></trkpt><trkpt lat="39.280610066846634" lon="9.189559310404993"><ele>53.0</ele><time>2026-04-04T08:01:27Z</time></trkpt><trkpt lat="39.28047871405531" lon="9.189356808938813"><ele>53.0</ele><time>2026-04-04T08:01:28Z</time></trkpt><trkpt lat="39.280344218089404" lon="9.189159560766614"><ele>53.0</ele><time>2026-04-04T08:01:29Z</time></trkpt><trkpt lat="39.28020235130115" lon="9.18896660143942"><ele>53.333333333333336</ele><time>2026-04-04T08:01:30Z</time></trkpt><trkpt lat="39.28004985626221" lon="9.188789598137944"><ele>53.66666666666667</ele><time>2026-04-04T08:01:31Z</time></trkpt><trkpt lat="39.27988700925108" lon="9.188625224576597"><ele>54.0</ele><time>2026-04-04T08:01:32Z</time></trkpt><trkpt lat="39.27972687673528" lon="9.188458465869955"><ele>53.0</ele><time>2026-04-04T08:01:33Z</time></trkpt><trkpt lat="39.2795606225336" lon="9.1882921012635"><ele>52.0</ele><time>2026-04-04T08:01:34Z</time></trkpt><trkpt lat="39.27939101750475" lon="9.188133838740551"><ele>51.0</ele><time>2026-04-04T08:01:35Z</time></trkpt><trkpt lat="39.279221486406946" lon="9.187975631801587"><ele>51.0</ele><time>2026-04-04T08:01:36Z</time></trkpt><trkpt lat="39.27905196945125" lon="9.187814195085513"><ele>51.0</ele><time>2026-04-04T08:01:37Z</time></trkpt><trkpt lat="39.27887075950716" lon="9.18767072132315"><ele>51.0</ele><time>2026-04-04T08:01:38Z</time></trkpt><trkpt lat="39.27870072556728" lon="9.18750617941613"><ele>50.33333333333333</ele><time>2026-04-04T08:01:39Z</time></trkpt><trkpt lat="39.27853666022832" lon="9.187333136567103"><ele>49.666666666666664</ele><time>2026-04-04T08:01:40Z</time></trkpt><trkpt lat="39.27835896575148" lon="9.187182030804491"><ele>49.0</ele><time>2026-04-04T08:01:41Z</time></trkpt><trkpt lat="39.27818716315978" lon="9.187027361583075"><ele>48.0</ele><time>2026-04-04T08:01:42Z</time></trkpt><trkpt lat="39.27802100697846" lon="9.18687034993301"><ele>47.0</ele><time>2026-04-04T08:01:43Z</time></trkpt><trkpt lat="39.27785762498238" lon="9.186710982388915"><ele>46.0</ele><time>2026-04-04T08:01:44Z</time></trkpt><trkpt lat="39.27769446549358" lon="9.186557319685301"><ele>46.0</ele><time>2026-04-04T08:01:45Z</time></trkpt><trkpt lat="39.27753371425314" lon="9.186409109840662"><ele>46.0</ele><time>2026-04-04T08:01:46Z</time></trkpt><trkpt lat="39.277375632923004" lon="9.18626380700507"><ele>46.0</ele><time>2026-04-04T08:01:47Z</time></trkpt><trkpt lat="39.27722296466974" lon="9.186110930241885"><ele>45.66666666666667</ele><time>2026-04-04T08:01:48Z</time></trkpt><trkpt lat="39.27707819983194" lon="9.185948320688702"><ele>45.333333333333336</ele><time>2026-04-04T08:01:49Z</time></trkpt><trkpt lat="39.276933374741894" lon="9.185799706522396"><ele>45.0</ele><time>2026-04-04T08:01:50Z</time></trkpt><trkpt lat="39.276818535778425" lon="9.185610600537785"><ele>44.666666666666664</ele><time>2026-04-04T08:01:51Z</time></trkpt><trkpt lat="39.27670769081557" lon="9.1854220764729"><ele>44.33333333333333</ele><time>2026-04-04T08:01:52Z</time></trkpt><trkpt lat="39.27659739571732" lon="9.185228128858174"><ele>44.0</ele><time>2026-04-04T08:01:53Z</time></trkpt><trkpt lat="39.27649578433829" lon="9.185023277783666"><ele>43.666666666666664</ele><time>2026-04-04T08:01:54Z</time></trkpt><trkpt lat="39.27639982738274" lon="9.184811307800905"><ele>43.333333333333336</ele><time>2026-04-04T08:01:55Z</time></trkpt><trkpt lat="39.27630879997193" lon="9.184595574890645"><ele>43.0</ele><time>2026-04-04T08:01:56Z</time></trkpt><trkpt lat="39.27622865031707" lon="9.184377753036072"><ele>43.0</ele><time>2026-04-04T08:01:57Z</time></trkpt><trkpt lat="39.27617106610959" lon="9.184166946489519"><ele>43.0</ele><time>2026-04-04T08:01:58Z</time></trkpt><trkpt lat="39.27611853356811" lon="9.183964191082948"><ele>43.0</ele><time>2026-04-04T08:01:59Z</time></trkpt><trkpt lat="39.27607055146767" lon="9.183768979984329"><ele>43.0</ele><time>2026-04-04T08:02:00Z</time></trkpt><trkpt lat="39.27602288912491" lon="9.183574070191309"><ele>43.0</ele><time>2026-04-04T08:02:01Z</time></trkpt><trkpt lat="39.275977271238354" lon="9.183384497648683"><ele>43.0</ele><time>2026-04-04T08:02:02Z</time></trkpt><trkpt lat="39.275932478396776" lon="9.18319416541487"><ele>42.75</ele><time>2026-04-04T08:02:03Z</time></trkpt><trkpt lat="39.2758869669274" lon="9.18300813110253"><ele>42.5</ele><time>2026-04-04T08:02:04Z</time></trkpt><trkpt lat="39.275844572044356" lon="9.18282656716064"><ele>42.25</ele><time>2026-04-04T08:02:05Z</time></trkpt><trkpt lat="39.27580409235642" lon="9.182651528195331"><ele>42.0</ele><time>2026-04-04T08:02:06Z</time></trkpt><trkpt lat="39.27576755338079" lon="9.18248812530562"><ele>42.5</ele><time>2026-04-04T08:02:07Z</time></trkpt><trkpt lat="39.275729814980686" lon="9.182328610002807"><ele>43.0</ele><time>2026-04-04T08:02:08Z</time></trkpt><trkpt lat="39.27569269528956" lon="9.182175972743574"><ele>43.5</ele><time>2026-04-04T08:02:09Z</time></trkpt><trkpt lat="39.275653111179814" lon="9.182020855929768"><ele>44.0</ele><time>2026-04-04T08:02:10Z</time></trkpt><trkpt lat="39.275607982067726" lon="9.181859706701678"><ele>43.25</ele><time>2026-04-04T08:02:11Z</time></trkpt><trkpt lat="39.27555050451267" lon="9.181698069438031"><ele>42.5</ele><time>2026-04-04T08:02:12Z</time></trkpt><trkpt lat="39.27549148308955" lon="9.181532113904325"><ele>41.75</ele><time>2026-04-04T08:02:13Z</time></trkpt><trkpt lat="39.27542585684342" lon="9.181358104136805"><ele>41.0</ele><time>2026-04-04T08:02:14Z</time></trkpt><trkpt lat="39.275354173203546" lon="9.18118255655889"><ele>41.0</ele><time>2026-04-04T08:02:15Z</time></trkpt><trkpt lat="39.275278825258795" lon="9.181006679748755"><ele>41.0</ele><time>2026-04-04T08:02:16Z</time></trkpt><trkpt lat="39.275204706140805" lon="9.180830122826567"><ele>41.0</ele><time>2026-04-04T08:02:17Z</time></trkpt><trkpt lat="39.27513428670092" lon="9.180660530868398"><ele>40.25</ele><time>2026-04-04T08:02:18Z</time></trkpt><trkpt lat="39.275069402333465" lon="9.180492909763139"><ele>39.5</ele><time>2026-04-04T08:02:19Z</time></trkpt><trkpt lat="39.275008080404184" lon="9.180333422118434"><ele>38.75</ele><time>2026-04-04T08:02:20Z</time></trkpt><trkpt lat="39.27494671520921" lon="9.180175221803426"><ele>38.0</ele><time>2026-04-04T08:02:21Z</time></trkpt><trkpt lat="39.274887405604815" lon="9.180026119562177"><ele>38.0</ele><time>2026-04-04T08:02:22Z</time></trkpt><trkpt lat="39.27482724265807" lon="9.179882746393666"><ele>38.0</ele><time>2026-04-04T08:02:23Z</time></trkpt><trkpt lat="39.27477019017893" lon="9.17974064640428"><ele>38.0</ele><time>2026-04-04T08:02:24Z</time></trkpt><trkpt lat="39.274714189040054" lon="9.17959801821136"><ele>38.0</ele><time>2026-04-04T08:02:25Z</time></trkpt><trkpt lat="39.27465384607121" lon="9.179452931459814"><ele>37.25</ele><time>2026-04-04T08:02:26Z</time></trkpt><trkpt lat="39.27458456412037" lon="9.179316938243968"><ele>36.5</ele><time>2026-04-04T08:02:27Z</time></trkpt><trkpt lat="39.27450034886457" lon="9.179191472404286"><ele>35.75</ele><time>2026-04-04T08:02:28Z</time></trkpt><trkpt lat="39.27439849900942" lon="9.179097605073123"><ele>35.0</ele><time>2026-04-04T08:02:29Z</time></trkpt><trkpt lat="39.274298051143305" lon="9.179016322223722"><ele>35.0</ele><time>2026-04-04T08:02:30Z</time></trkpt><trkpt lat="39.274212185784464" lon="9.17892337223074"><ele>35.0</ele><time>2026-04-04T08:02:31Z</time></trkpt><trkpt lat="39.27415035634453" lon="9.17880846599201"><ele>35.0</ele><time>2026-04-04T08:02:32Z</time></trkpt><trkpt lat="39.27411943357369" lon="9.178683507493743"><ele>35.0</ele><time>2026-04-04T08:02:33Z</time></trkpt><trkpt lat="39.27411680093517" lon="9.178568130261823"><ele>35.0</ele><time>2026-04-04T08:02:34Z</time></trkpt><trkpt lat="39.27415549642055" lon="9.17847789974657"><ele>35.0</ele><time>2026-04-04T08:02:35Z</time></trkpt><trkpt lat="39.27421136075272" lon="9.178374403171663"><ele>35.0</ele><time>2026-04-04T08:02:36Z</time></trkpt><trkpt lat="39.27422420234298" lon="9.178261972048457"><ele>35.0</ele><time>2026-04-04T08:02:37Z</time></trkpt><trkpt lat="39.27418653426964" lon="9.178165549578777"><ele>35.0</ele><time>2026-04-04T08:02:38Z</time></trkpt><trkpt lat="39.27411777830275" lon="9.178111532258459"><ele>35.0</ele><time>2026-04-04T08:02:39Z</time></trkpt><trkpt lat="39.274040250800894" lon="9.178116279960552"><ele>35.0</ele><time>2026-04-04T08:02:40Z</time></trkpt><trkpt lat="39.273960872087834" lon="9.178171429514595"><ele>35.25</ele><time>2026-04-04T08:02:41Z</time></trkpt><trkpt lat="39.27386098860131" lon="9.178237412646816"><ele>35.5</ele><time>2026-04-04T08:02:42Z</time></trkpt><trkpt lat="39.273750506289325" lon="9.178235240263225"><ele>35.75</ele><time>2026-04-04T08:02:43Z</time></trkpt><trkpt lat="39.27363011327458" lon="9.178163589376243"><ele>36.0</ele><time>2026-04-04T08:02:44Z</time></trkpt><trkpt lat="39.27351646017357" lon="9.178052834806634"><ele>35.25</ele><time>2026-04-04T08:02:45Z</time></trkpt><trkpt lat="39.27340936444711" lon="9.177934569435621"><ele>34.5</ele><time>2026-04-04T08:02:46Z</time></trkpt><trkpt lat="39.273290461044375" lon="9.177836107182591"><ele>33.75</ele><time>2026-04-04T08:02:47Z</time></trkpt><trkpt lat="39.273157713745164" lon="9.17776149389711"><ele>33.0</ele><time>2026-04-04T08:02:48Z</time></trkpt><trkpt lat="39.27301462280161" lon="9.177717878269599"><ele>33.0</ele><time>2026-04-04T08:02:49Z</time></trkpt><trkpt lat="39.2728677372353" lon="9.177685995634993"><ele>33.0</ele><time>2026-04-04T08:02:50Z</time></trkpt><trkpt lat="39.27272329882159" lon="9.177648510568543"><ele>33.0</ele><time>2026-04-04T08:02:51Z</time></trkpt><trkpt lat="39.27257573527488" lon="9.177609374739001"><ele>33.0</ele><time>2026-04-04T08:02:52Z</time></trkpt><trkpt lat="39.27242752139435" lon="9.177572559827201"><ele>33.0</ele><time>2026-04-04T08:02:53Z</time></trkpt><trkpt lat="39.272282377065636" lon="9.177535530033106"><ele>33.0</ele><time>2026-04-04T08:02:54Z</time></trkpt><trkpt lat="39.272142318271165" lon="9.177497907123843"><ele>33.0</ele><time>2026-04-04T08:02:55Z</time></trkpt><trkpt lat="39.272006953465066" lon="9.177462801388222"><ele>33.0</ele><time>2026-04-04T08:02:56Z</time></trkpt><trkpt lat="39.27187817423447" lon="9.177432860914964"><ele>33.0</ele><time>2026-04-04T08:02:57Z</time></trkpt><trkpt lat="39.27175112632317" lon="9.177402402147642"><ele>33.0</ele><time>2026-04-04T08:02:58Z</time></trkpt><trkpt lat="39.271620459436875" lon="9.177366803481554"><ele>33.0</ele><time>2026-04-04T08:02:59Z</time></trkpt><trkpt lat="39.27149008273229" lon="9.177331252522336"><ele>33.0</ele><time>2026-04-04T08:03:00Z</time></trkpt><trkpt lat="39.27136476384559" lon="9.177302049111388"><ele>33.25</ele><time>2026-04-04T08:03:01Z</time></trkpt><trkpt lat="39.27124473254362" lon="9.177275986803236"><ele>33.5</ele><time>2026-04-04T08:03:02Z</time></trkpt><trkpt lat="39.27112626107033" lon="9.17724920364417"><ele>33.75</ele><time>2026-04-04T08:03:03Z</time></trkpt><trkpt lat="39.271005201663115" lon="9.177217648445023"><ele>34.0</ele><time>2026-04-04T08:03:04Z</time></trkpt><trkpt lat="39.27088179770152" lon="9.177182315199815"><ele>34.0</ele><time>2026-04-04T08:03:05Z</time></trkpt><trkpt lat="39.27076081724942" lon="9.17714953942668"><ele>34.0</ele><time>2026-04-04T08:03:06Z</time></trkpt><trkpt lat="39.270642455526655" lon="9.177121002755541"><ele>34.0</ele><time>2026-04-04T08:03:07Z</time></trkpt><trkpt lat="39.27052862799672" lon="9.177096060831405"><ele>34.0</ele><time>2026-04-04T08:03:08Z</time></trkpt><trkpt lat="39.27041912335984" lon="9.177072065227495"><ele>33.8</ele><time>2026-04-04T08:03:09Z</time></trkpt><trkpt lat="39.27031384817468" lon="9.177047725455015"><ele>33.599999999999994</ele><time>2026-04-04T08:03:10Z</time></trkpt><trkpt lat="39.27021709373295" lon="9.177022454857882"><ele>33.4</ele><time>2026-04-04T08:03:11Z</time></trkpt><trkpt lat="39.270127808308565" lon="9.177001720154436"><ele>33.199999999999996</ele><time>2026-04-04T08:03:12Z</time></trkpt><trkpt lat="39.2700439684149" lon="9.176981971359172"><ele>33.0</ele><time>2026-04-04T08:03:13Z</time></trkpt><trkpt lat="39.269963965716514" lon="9.176956587627073"><ele>33.0</ele><time>2026-04-04T08:03:14Z</time></trkpt><trkpt lat="39.269883516265175" lon="9.176926902415655"><ele>33.0</ele><time>2026-04-04T08:03:15Z</time></trkpt><trkpt lat="39.26979729722084" lon="9.176898879595974"><ele>33.0</ele><time>2026-04-04T08:03:16Z</time></trkpt><trkpt lat="39.26971285088022" lon="9.176880586695562"><ele>33.0</ele><time>2026-04-04T08:03:17Z</time></trkpt><trkpt lat="39.26963839426339" lon="9.17686664501061"><ele>33.0</ele><time>2026-04-04T08:03:18Z</time></trkpt><trkpt lat="39.26957565125294" lon="9.176852100423735"><ele>33.0</ele><time>2026-04-04T08:03:19Z</time></trkpt><trkpt lat="39.269494317959186" lon="9.176829514034456"><ele>32.5</ele><time>2026-04-04T08:03:21Z</time></trkpt><trkpt lat="39.2694315721887" lon="9.17681682898027"><ele>32.0</ele><time>2026-04-04T08:03:23Z</time></trkpt><trkpt lat="39.26936849537179" lon="9.176809348519333"><ele>31.5</ele><time>2026-04-04T08:03:25Z</time></trkpt><trkpt lat="39.2692892893217" lon="9.176788633898923"><ele>31.0</ele><time>2026-04-04T08:03:27Z</time></trkpt><trkpt lat="39.269175285742975" lon="9.176749012264018"><ele>30.5</ele><time>2026-04-04T08:03:29Z</time></trkpt><trkpt lat="39.26911840465704" lon="9.176713716356186"><ele>30.0</ele><time>2026-04-04T08:03:30Z</time></trkpt><trkpt lat="39.26906081959944" lon="9.17666623584507"><ele>30.0</ele><time>2026-04-04T08:03:31Z</time></trkpt><trkpt lat="39.26899011528107" lon="9.176618885172834"><ele>30.0</ele><time>2026-04-04T08:03:32Z</time></trkpt><trkpt lat="39.26891469028815" lon="9.176587925482929"><ele>30.0</ele><time>2026-04-04T08:03:33Z</time></trkpt><trkpt lat="39.268832449809565" lon="9.176590899045168"><ele>30.0</ele><time>2026-04-04T08:03:34Z</time></trkpt><trkpt lat="39.268739506033704" lon="9.176613852512832"><ele>30.0</ele><time>2026-04-04T08:03:35Z</time></trkpt><trkpt lat="39.268636339075705" lon="9.176622050121916"><ele>30.0</ele><time>2026-04-04T08:03:36Z</time></trkpt><trkpt lat="39.26852830745432" lon="9.176593355154152"><ele>29.75</ele><time>2026-04-04T08:03:37Z</time></trkpt><trkpt lat="39.268417790606364" lon="9.176554619914592"><ele>29.5</ele><time>2026-04-04T08:03:38Z</time></trkpt><trkpt lat="39.26830889028526" lon="9.176528763458556"><ele>29.25</ele><time>2026-04-04T08:03:39Z</time></trkpt><trkpt lat="39.26819275393612" lon="9.17650409753321"><ele>29.0</ele><time>2026-04-04T08:03:40Z</time></trkpt><trkpt lat="39.268083551397716" lon="9.176481917490657"><ele>28.6</ele><time>2026-04-04T08:03:41Z</time></trkpt><trkpt lat="39.26797505241632" lon="9.176456103240612"><ele>28.2</ele><time>2026-04-04T08:03:42Z</time></trkpt><trkpt lat="39.26787364689584" lon="9.176432145445627"><ele>27.800000000000004</ele><time>2026-04-04T08:03:43Z</time></trkpt><trkpt lat="39.26777749540849" lon="9.176409589244438"><ele>27.400000000000002</ele><time>2026-04-04T08:03:44Z</time></trkpt><trkpt lat="39.26768389335281" lon="9.176386121205686"><ele>27.0</ele><time>2026-04-04T08:03:45Z</time></trkpt><trkpt lat="39.26759364265178" lon="9.176363199774988"><ele>27.0</ele><time>2026-04-04T08:03:46Z</time></trkpt><trkpt lat="39.26750264456276" lon="9.176340711737417"><ele>27.000000000000004</ele><time>2026-04-04T08:03:47Z</time></trkpt><trkpt lat="39.267411540647295" lon="9.176317930029771"><ele>27.000000000000004</ele><time>2026-04-04T08:03:48Z</time></trkpt><trkpt lat="39.267316604591464" lon="9.1762958686186"><ele>27.0</ele><time>2026-04-04T08:03:49Z</time></trkpt><trkpt lat="39.26722067959521" lon="9.176274628912862"><ele>27.0</ele><time>2026-04-04T08:03:50Z</time></trkpt><trkpt lat="39.26712816685597" lon="9.176251863398782"><ele>27.400000000000002</ele><time>2026-04-04T08:03:51Z</time></trkpt><trkpt lat="39.2670360793285" lon="9.176225446512104"><ele>27.800000000000004</ele><time>2026-04-04T08:03:52Z</time></trkpt><trkpt lat="39.2669403559429" lon="9.176200220926852"><ele>28.2</ele><time>2026-04-04T08:03:53Z</time></trkpt><trkpt lat="39.2668421173521" lon="9.176179442142901"><ele>28.6</ele><time>2026-04-04T08:03:54Z</time></trkpt><trkpt lat="39.26674364057721" lon="9.176157632014021"><ele>29.0</ele><time>2026-04-04T08:03:55Z</time></trkpt><trkpt lat="39.26664641457396" lon="9.176131792335934"><ele>29.0</ele><time>2026-04-04T08:03:56Z</time></trkpt><trkpt lat="39.26654294518489" lon="9.17610533395724"><ele>29.0</ele><time>2026-04-04T08:03:57Z</time></trkpt><trkpt lat="39.26643515317692" lon="9.176079035489773"><ele>29.0</ele><time>2026-04-04T08:03:58Z</time></trkpt><trkpt lat="39.26632599449325" lon="9.176054490624718"><ele>29.0</ele><time>2026-04-04T08:03:59Z</time></trkpt><trkpt lat="39.266216062268185" lon="9.176028746857593"><ele>29.0</ele><time>2026-04-04T08:04:00Z</time></trkpt><trkpt lat="39.26610657392443" lon="9.176000660829299"><ele>28.4</ele><time>2026-04-04T08:04:01Z</time></trkpt><trkpt lat="39.265996757297486" lon="9.175969542507355"><ele>27.799999999999997</ele><time>2026-04-04T08:04:02Z</time></trkpt><trkpt lat="39.26588670585298" lon="9.17594032074347"><ele>27.200000000000003</ele><time>2026-04-04T08:04:03Z</time></trkpt><trkpt lat="39.265777357682985" lon="9.175914815495485"><ele>26.6</ele><time>2026-04-04T08:04:04Z</time></trkpt><trkpt lat="39.26567092843031" lon="9.175891333087637"><ele>26.0</ele><time>2026-04-04T08:04:05Z</time></trkpt><trkpt lat="39.26556264997238" lon="9.175865911077247"><ele>25.666666666666664</ele><time>2026-04-04T08:04:06Z</time></trkpt><trkpt lat="39.26545887029659" lon="9.175839693758835"><ele>25.333333333333332</ele><time>2026-04-04T08:04:07Z</time></trkpt><trkpt lat="39.26537230654218" lon="9.175820921470827"><ele>25.0</ele><time>2026-04-04T08:04:08Z</time></trkpt><trkpt lat="39.26530362328447" lon="9.175805608133812"><ele>24.666666666666664</ele><time>2026-04-04T08:04:09Z</time></trkpt><trkpt lat="39.265233524895145" lon="9.175791158278084"><ele>24.333333333333332</ele><time>2026-04-04T08:04:11Z</time></trkpt><trkpt lat="39.2651623696532" lon="9.175775778709864"><ele>24.0</ele><time>2026-04-04T08:04:19Z</time></trkpt><trkpt lat="39.26505344206132" lon="9.175748926795812"><ele>24.0</ele><time>2026-04-04T08:04:21Z</time></trkpt><trkpt lat="39.264989412815076" lon="9.175733717052855"><ele>24.0</ele><time>2026-04-04T08:04:22Z</time></trkpt><trkpt lat="39.2649067537212" lon="9.175720188174825"><ele>24.0</ele><time>2026-04-04T08:04:23Z</time></trkpt><trkpt lat="39.26482536601026" lon="9.175706164954516"><ele>24.0</ele><time>2026-04-04T08:04:24Z</time></trkpt><trkpt lat="39.264739878185296" lon="9.175683089839373"><ele>24.0</ele><time>2026-04-04T08:04:25Z</time></trkpt><trkpt lat="39.264662626838124" lon="9.175654250616336"><ele>24.0</ele><time>2026-04-04T08:04:26Z</time></trkpt><trkpt lat="39.264588454905876" lon="9.17562946940741"><ele>23.666666666666668</ele><time>2026-04-04T08:04:27Z</time></trkpt><trkpt lat="39.26452016530674" lon="9.175610630970947"><ele>23.333333333333332</ele><time>2026-04-04T08:04:28Z</time></trkpt><trkpt lat="39.26445675973433" lon="9.175596031628672"><ele>23.0</ele><time>2026-04-04T08:04:29Z</time></trkpt><trkpt lat="39.264358743536484" lon="9.175573600250424"><ele>22.666666666666664</ele><time>2026-04-04T08:04:31Z</time></trkpt><trkpt lat="39.26428066085663" lon="9.175550226251643"><ele>22.333333333333332</ele><time>2026-04-04T08:04:33Z</time></trkpt><trkpt lat="39.26419947988263" lon="9.175525793632335"><ele>22.0</ele><time>2026-04-04T08:04:35Z</time></trkpt><trkpt lat="39.264115131170044" lon="9.175499068887916"><ele>22.0</ele><time>2026-04-04T08:04:37Z</time></trkpt><trkpt lat="39.26402182937287" lon="9.175464415188003"><ele>22.0</ele><time>2026-04-04T08:04:39Z</time></trkpt><trkpt lat="39.26392043803274" lon="9.175426492636863"><ele>22.0</ele><time>2026-04-04T08:04:41Z</time></trkpt><trkpt lat="39.263817640017294" lon="9.17537918971635"><ele>22.0</ele><time>2026-04-04T08:04:43Z</time></trkpt><trkpt lat="39.2637279072699" lon="9.175330381551372"><ele>22.0</ele><time>2026-04-04T08:04:45Z</time></trkpt><trkpt lat="39.26365683138737" lon="9.175298826901475"><ele>22.166666666666664</ele><time>2026-04-04T08:04:47Z</time></trkpt><trkpt lat="39.26358051955253" lon="9.175257661464117"><ele>22.333333333333332</ele><time>2026-04-04T08:04:50Z</time></trkpt><trkpt lat="39.263522181027085" lon="9.175218885090871"><ele>22.5</ele><time>2026-04-04T08:05:27Z</time></trkpt><trkpt lat="39.263454655307456" lon="9.175182595039853"><ele>22.666666666666668</ele><time>2026-04-04T08:05:29Z</time></trkpt><trkpt lat="39.26337493411763" lon="9.175135954399801"><ele>22.833333333333336</ele><time>2026-04-04T08:05:31Z</time></trkpt><trkpt lat="39.263287315033324" lon="9.175085975233516"><ele>23.0</ele><time>2026-04-04T08:05:33Z</time></trkpt><trkpt lat="39.26318858504888" lon="9.175030622171304"><ele>22.599999999999998</ele><time>2026-04-04T08:05:35Z</time></trkpt><trkpt lat="39.26311318393511" lon="9.174983913402462"><ele>22.2</ele><time>2026-04-04T08:05:37Z</time></trkpt><trkpt lat="39.26302312195411" lon="9.174934077934395"><ele>21.8</ele><time>2026-04-04T08:05:39Z</time></trkpt><trkpt lat="39.262923934268954" lon="9.174865165663407"><ele>21.4</ele><time>2026-04-04T08:05:41Z</time></trkpt><trkpt lat="39.26284641745165" lon="9.174820245780571"><ele>21.0</ele><time>2026-04-04T08:05:43Z</time></trkpt><trkpt lat="39.26277593580147" lon="9.17474267031503"><ele>20.833333333333332</ele><time>2026-04-04T08:05:45Z</time></trkpt><trkpt lat="39.26273216177768" lon="9.174624730003423"><ele>20.666666666666668</ele><time>2026-04-04T08:05:47Z</time></trkpt><trkpt lat="39.26273617309612" lon="9.174541000367608"><ele>20.5</ele><time>2026-04-04T08:05:48Z</time></trkpt><trkpt lat="39.26276170497565" lon="9.174444609226232"><ele>20.333333333333336</ele><time>2026-04-04T08:05:49Z</time></trkpt><trkpt lat="39.26279152008743" lon="9.174353936574514"><ele>20.166666666666668</ele><time>2026-04-04T08:05:50Z</time></trkpt><trkpt lat="39.26282169880602" lon="9.174238310656865"><ele>20.0</ele><time>2026-04-04T08:05:51Z</time></trkpt><trkpt lat="39.26285512367135" lon="9.174099951108854"><ele>20.0</ele><time>2026-04-04T08:05:52Z</time></trkpt><trkpt lat="39.26289303828507" lon="9.173942515222345"><ele>20.0</ele><time>2026-04-04T08:05:53Z</time></trkpt><trkpt lat="39.26293229509451" lon="9.17376412210375"><ele>20.0</ele><time>2026-04-04T08:05:54Z</time></trkpt><trkpt lat="39.26297371892477" lon="9.173575372542352"><ele>20.0</ele><time>2026-04-04T08:05:55Z</time></trkpt><trkpt lat="39.26302902585951" lon="9.17337151928075"><ele>20.0</ele><time>2026-04-04T08:05:56Z</time></trkpt><trkpt lat="39.263094579285124" lon="9.17316349908498"><ele>20.0</ele><time>2026-04-04T08:05:57Z</time></trkpt><trkpt lat="39.263162595887415" lon="9.172956068343781"><ele>20.0</ele><time>2026-04-04T08:05:58Z</time></trkpt><trkpt lat="39.26323199498667" lon="9.172741915102677"><ele>20.0</ele><time>2026-04-04T08:05:59Z</time></trkpt><trkpt lat="39.26329873285813" lon="9.172524044385934"><ele>20.0</ele><time>2026-04-04T08:06:00Z</time></trkpt><trkpt lat="39.2633643000265" lon="9.172304373144039"><ele>20.0</ele><time>2026-04-04T08:06:01Z</time></trkpt><trkpt lat="39.26342782612112" lon="9.172086071938411"><ele>20.0</ele><time>2026-04-04T08:06:02Z</time></trkpt><trkpt lat="39.26349026983731" lon="9.171866314962651"><ele>20.0</ele><time>2026-04-04T08:06:03Z</time></trkpt><trkpt lat="39.26355418394601" lon="9.171643010997412"><ele>20.0</ele><time>2026-04-04T08:06:04Z</time></trkpt><trkpt lat="39.2636174013458" lon="9.171418674578145"><ele>19.666666666666668</ele><time>2026-04-04T08:06:05Z</time></trkpt><trkpt lat="39.263679374154016" lon="9.171198804400383"><ele>19.333333333333332</ele><time>2026-04-04T08:06:06Z</time></trkpt><trkpt lat="39.263744246202634" lon="9.17096905633225"><ele>19.0</ele><time>2026-04-04T08:06:07Z</time></trkpt><trkpt lat="39.26380763593495" lon="9.170740478758827"><ele>18.666666666666664</ele><time>2026-04-04T08:06:08Z</time></trkpt><trkpt lat="39.263875079035124" lon="9.170508578653074"><ele>18.333333333333332</ele><time>2026-04-04T08:06:09Z</time></trkpt><trkpt lat="39.26394290650208" lon="9.170271161119762"><ele>18.0</ele><time>2026-04-04T08:06:10Z</time></trkpt><trkpt lat="39.26401183207527" lon="9.170032597920642"><ele>18.0</ele><time>2026-04-04T08:06:11Z</time></trkpt><trkpt lat="39.26408243650841" lon="9.169792793522197"><ele>18.0</ele><time>2026-04-04T08:06:12Z</time></trkpt><trkpt lat="39.26415102483365" lon="9.169552840881376"><ele>18.0</ele><time>2026-04-04T08:06:13Z</time></trkpt><trkpt lat="39.264218766669785" lon="9.169312762293123"><ele>18.0</ele><time>2026-04-04T08:06:14Z</time></trkpt><trkpt lat="39.26428540164278" lon="9.169073927330022"><ele>18.0</ele><time>2026-04-04T08:06:15Z</time></trkpt><trkpt lat="39.26435131967215" lon="9.168836993683625"><ele>18.0</ele><time>2026-04-04T08:06:16Z</time></trkpt><trkpt lat="39.26441883575424" lon="9.1686018430888"><ele>17.666666666666668</ele><time>2026-04-04T08:06:17Z</time></trkpt><trkpt lat="39.264487500855466" lon="9.168366444096558"><ele>17.333333333333336</ele><time>2026-04-04T08:06:18Z</time></trkpt><trkpt lat="39.26455693874329" lon="9.168131010610734"><ele>17.0</ele><time>2026-04-04T08:06:19Z</time></trkpt><trkpt lat="39.264623832876694" lon="9.167897375254315"><ele>17.0</ele><time>2026-04-04T08:06:20Z</time></trkpt><trkpt lat="39.26469179648671" lon="9.167663349185592"><ele>17.0</ele><time>2026-04-04T08:06:21Z</time></trkpt><trkpt lat="39.26475785633423" lon="9.167429396896312"><ele>17.0</ele><time>2026-04-04T08:06:22Z</time></trkpt><trkpt lat="39.26482305502466" lon="9.167197381494145"><ele>16.666666666666668</ele><time>2026-04-04T08:06:23Z</time></trkpt><trkpt lat="39.264888459004275" lon="9.16696454275466"><ele>16.333333333333332</ele><time>2026-04-04T08:06:24Z</time></trkpt><trkpt lat="39.26495574901365" lon="9.166734911808703"><ele>16.0</ele><time>2026-04-04T08:06:25Z</time></trkpt><trkpt lat="39.26502161786468" lon="9.166503075828606"><ele>16.0</ele><time>2026-04-04T08:06:26Z</time></trkpt><trkpt lat="39.265090633021416" lon="9.166271603256826"><ele>16.0</ele><time>2026-04-04T08:06:27Z</time></trkpt><trkpt lat="39.26515920362275" lon="9.166039528155387"><ele>16.0</ele><time>2026-04-04T08:06:28Z</time></trkpt><trkpt lat="39.26522708618112" lon="9.165804809586193"><ele>16.0</ele><time>2026-04-04T08:06:29Z</time></trkpt><trkpt lat="39.265289401268966" lon="9.165566744076614"><ele>16.0</ele><time>2026-04-04T08:06:30Z</time></trkpt><trkpt lat="39.26535718239267" lon="9.165327589754982"><ele>16.0</ele><time>2026-04-04T08:06:31Z</time></trkpt><trkpt lat="39.265428800021496" lon="9.165091850222542"><ele>15.666666666666666</ele><time>2026-04-04T08:06:32Z</time></trkpt><trkpt lat="39.26549786030279" lon="9.16485162931366"><ele>15.333333333333332</ele><time>2026-04-04T08:06:33Z</time></trkpt><trkpt lat="39.26556831492286" lon="9.164610814604401"><ele>15.0</ele><time>2026-04-04T08:06:34Z</time></trkpt><trkpt lat="39.26563551018992" lon="9.164369452157327"><ele>15.0</ele><time>2026-04-04T08:06:35Z</time></trkpt><trkpt lat="39.26570288934421" lon="9.164126376525731"><ele>15.0</ele><time>2026-04-04T08:06:36Z</time></trkpt><trkpt lat="39.26577208284881" lon="9.163884862544977"><ele>15.0</ele><time>2026-04-04T08:06:37Z</time></trkpt><trkpt lat="39.26584086437228" lon="9.163639088174813"><ele>15.0</ele><time>2026-04-04T08:06:38Z</time></trkpt><trkpt lat="39.26591304870693" lon="9.163389568985457"><ele>15.0</ele><time>2026-04-04T08:06:39Z</time></trkpt><trkpt lat="39.265987161960766" lon="9.163140859008406"><ele>15.0</ele><time>2026-04-04T08:06:40Z</time></trkpt><trkpt lat="39.26606098360911" lon="9.16288980865133"><ele>15.0</ele><time>2026-04-04T08:06:41Z</time></trkpt><trkpt lat="39.26613155484793" lon="9.162635254816475"><ele>15.0</ele><time>2026-04-04T08:06:42Z</time></trkpt><trkpt lat="39.26620207773408" lon="9.162379290884834"><ele>15.0</ele><time>2026-04-04T08:06:43Z</time></trkpt><trkpt lat="39.26627206586456" lon="9.16212030705677"><ele>15.0</ele><time>2026-04-04T08:06:44Z</time></trkpt><trkpt lat="39.26634512549426" lon="9.161868001718938"><ele>15.0</ele><time>2026-04-04T08:06:45Z</time></trkpt><trkpt lat="39.266419608717506" lon="9.161620809671993"><ele>15.0</ele><time>2026-04-04T08:06:46Z</time></trkpt><trkpt lat="39.26649020747462" lon="9.161377084350343"><ele>15.0</ele><time>2026-04-04T08:06:47Z</time></trkpt><trkpt lat="39.26656225779599" lon="9.161131139926242"><ele>15.0</ele><time>2026-04-04T08:06:48Z</time></trkpt><trkpt lat="39.26664152932905" lon="9.160849079619897"><ele>15.0</ele><time>2026-04-04T08:06:49Z</time></trkpt><trkpt lat="39.266707418025575" lon="9.160598390913623"><ele>15.0</ele><time>2026-04-04T08:06:50Z</time></trkpt><trkpt lat="39.26677442212382" lon="9.16035037829201"><ele>15.0</ele><time>2026-04-04T08:06:51Z</time></trkpt><trkpt lat="39.26684727165812" lon="9.160101957883924"><ele>15.0</ele><time>2026-04-04T08:06:52Z</time></trkpt><trkpt lat="39.26691716057615" lon="9.159853063007823"><ele>15.666666666666668</ele><time>2026-04-04T08:06:53Z</time></trkpt><trkpt lat="39.26699228619712" lon="9.159605169505243"><ele>16.333333333333336</ele><time>2026-04-04T08:06:54Z</time></trkpt><trkpt lat="39.267065837448364" lon="9.159354944177116"><ele>17.0</ele><time>2026-04-04T08:06:55Z</time></trkpt><trkpt lat="39.26713684717311" lon="9.159101988639318"><ele>17.333333333333336</ele><time>2026-04-04T08:06:56Z</time></trkpt><trkpt lat="39.2672118941542" lon="9.158849033529057"><ele>17.666666666666668</ele><time>2026-04-04T08:06:57Z</time></trkpt><trkpt lat="39.26728424073762" lon="9.158592492736995"><ele>18.0</ele><time>2026-04-04T08:06:58Z</time></trkpt><trkpt lat="39.26735877614802" lon="9.158343206842941"><ele>18.0</ele><time>2026-04-04T08:06:59Z</time></trkpt><trkpt lat="39.26743303284225" lon="9.158092745383325"><ele>18.0</ele><time>2026-04-04T08:07:00Z</time></trkpt><trkpt lat="39.267506631509946" lon="9.157840942861437"><ele>18.0</ele><time>2026-04-04T08:07:01Z</time></trkpt><trkpt lat="39.267575303720626" lon="9.157592627384561"><ele>18.0</ele><time>2026-04-04T08:07:02Z</time></trkpt><trkpt lat="39.267649413794494" lon="9.157345393683341"><ele>18.0</ele><time>2026-04-04T08:07:03Z</time></trkpt><trkpt lat="39.26772060970791" lon="9.157095928348335"><ele>18.0</ele><time>2026-04-04T08:07:04Z</time></trkpt><trkpt lat="39.26779123295317" lon="9.156845542101102"><ele>18.0</ele><time>2026-04-04T08:07:05Z</time></trkpt><trkpt lat="39.26786113817303" lon="9.156596267431434"><ele>18.0</ele><time>2026-04-04T08:07:06Z</time></trkpt><trkpt lat="39.267932975784056" lon="9.156352615748323"><ele>18.0</ele><time>2026-04-04T08:07:07Z</time></trkpt><trkpt lat="39.2679969180126" lon="9.156109602007879"><ele>18.0</ele><time>2026-04-04T08:07:08Z</time></trkpt><trkpt lat="39.26805096462796" lon="9.155866897705259"><ele>18.0</ele><time>2026-04-04T08:07:09Z</time></trkpt><trkpt lat="39.268089952228344" lon="9.155624967644643"><ele>18.0</ele><time>2026-04-04T08:07:10Z</time></trkpt><trkpt lat="39.26811655397192" lon="9.155386277347477"><ele>18.333333333333332</ele><time>2026-04-04T08:07:11Z</time></trkpt><trkpt lat="39.26812953390776" lon="9.155159114346056"><ele>18.666666666666664</ele><time>2026-04-04T08:07:12Z</time></trkpt><trkpt lat="39.26813954103485" lon="9.154943656896979"><ele>19.0</ele><time>2026-04-04T08:07:13Z</time></trkpt><trkpt lat="39.26814545368618" lon="9.154744119836659"><ele>19.25</ele><time>2026-04-04T08:07:14Z</time></trkpt><trkpt lat="39.26813840949118" lon="9.154562509136877"><ele>19.5</ele><time>2026-04-04T08:07:15Z</time></trkpt><trkpt lat="39.2681269114794" lon="9.154397187410924"><ele>19.75</ele><time>2026-04-04T08:07:16Z</time></trkpt><trkpt lat="39.2681134241885" lon="9.15424027777126"><ele>20.0</ele><time>2026-04-04T08:07:17Z</time></trkpt><trkpt lat="39.26809966928241" lon="9.1540922687371"><ele>20.0</ele><time>2026-04-04T08:07:18Z</time></trkpt><trkpt lat="39.26808710567947" lon="9.153951089635449"><ele>20.0</ele><time>2026-04-04T08:07:19Z</time></trkpt><trkpt lat="39.26807545186164" lon="9.153817220388259"><ele>20.0</ele><time>2026-04-04T08:07:20Z</time></trkpt><trkpt lat="39.26806214621891" lon="9.153689551008648"><ele>20.0</ele><time>2026-04-04T08:07:21Z</time></trkpt><trkpt lat="39.26804861619282" lon="9.153564365133102"><ele>20.0</ele><time>2026-04-04T08:07:22Z</time></trkpt><trkpt lat="39.268034267093846" lon="9.153434443395154"><ele>20.0</ele><time>2026-04-04T08:07:23Z</time></trkpt><trkpt lat="39.26802224845887" lon="9.153294506070164"><ele>20.0</ele><time>2026-04-04T08:07:24Z</time></trkpt><trkpt lat="39.26800930520392" lon="9.153147870541078"><ele>20.0</ele><time>2026-04-04T08:07:25Z</time></trkpt><trkpt lat="39.267993975401595" lon="9.152996088291204"><ele>20.0</ele><time>2026-04-04T08:07:26Z</time></trkpt><trkpt lat="39.26797722480256" lon="9.152842986394695"><ele>19.8</ele><time>2026-04-04T08:07:27Z</time></trkpt><trkpt lat="39.26796292130779" lon="9.152693130762158"><ele>19.6</ele><time>2026-04-04T08:07:28Z</time></trkpt><trkpt lat="39.26794963076583" lon="9.152558481732507"><ele>19.4</ele><time>2026-04-04T08:07:29Z</time></trkpt><trkpt lat="39.26793891925039" lon="9.152452929649948"><ele>19.2</ele><time>2026-04-04T08:07:30Z</time></trkpt><trkpt lat="39.26793157427631" lon="9.152369183431368"><ele>19.0</ele><time>2026-04-04T08:07:31Z</time></trkpt><trkpt lat="39.26792231629628" lon="9.152262166258296"><ele>18.5</ele><time>2026-04-04T08:07:33Z</time></trkpt><trkpt lat="39.267900177019456" lon="9.15216241941368"><ele>18.0</ele><time>2026-04-04T08:08:44Z</time></trkpt><trkpt lat="39.267890692449875" lon="9.152032485447974"><ele>17.5</ele><time>2026-04-04T08:08:46Z</time></trkpt><trkpt lat="39.26787082025224" lon="9.151860284964153"><ele>17.0</ele><time>2026-04-04T08:08:48Z</time></trkpt><trkpt lat="39.26785534185764" lon="9.151679409585942"><ele>17.0</ele><time>2026-04-04T08:08:50Z</time></trkpt><trkpt lat="39.2678469104082" lon="9.151566570991507"><ele>17.0</ele><time>2026-04-04T08:08:51Z</time></trkpt><trkpt lat="39.26783688401249" lon="9.151442500072218"><ele>17.0</ele><time>2026-04-04T08:08:52Z</time></trkpt><trkpt lat="39.26782312569924" lon="9.151304560053061"><ele>17.0</ele><time>2026-04-04T08:08:53Z</time></trkpt><trkpt lat="39.267806895386485" lon="9.151153462950749"><ele>17.0</ele><time>2026-04-04T08:08:54Z</time></trkpt><trkpt lat="39.26778877426407" lon="9.151003740963239"><ele>17.0</ele><time>2026-04-04T08:08:55Z</time></trkpt><trkpt lat="39.26777183683856" lon="9.150839291801542"><ele>17.0</ele><time>2026-04-04T08:08:56Z</time></trkpt><trkpt lat="39.26775497615961" lon="9.150663587976224"><ele>17.0</ele><time>2026-04-04T08:08:57Z</time></trkpt><trkpt lat="39.26773744656525" lon="9.150481291180625"><ele>17.0</ele><time>2026-04-04T08:08:58Z</time></trkpt><trkpt lat="39.26772120001837" lon="9.150300362413189"><ele>17.0</ele><time>2026-04-04T08:08:59Z</time></trkpt><trkpt lat="39.26770234147427" lon="9.150110678583502"><ele>17.0</ele><time>2026-04-04T08:09:00Z</time></trkpt><trkpt lat="39.26768152855608" lon="9.149928352766663"><ele>17.0</ele><time>2026-04-04T08:09:01Z</time></trkpt><trkpt lat="39.2676598757487" lon="9.14973081609258"><ele>17.0</ele><time>2026-04-04T08:09:02Z</time></trkpt><trkpt lat="39.26764092579268" lon="9.14952700845647"><ele>17.0</ele><time>2026-04-04T08:09:03Z</time></trkpt><trkpt lat="39.26761913066132" lon="9.14931124928002"><ele>17.0</ele><time>2026-04-04T08:09:04Z</time></trkpt><trkpt lat="39.26759377286694" lon="9.14908898950264"><ele>17.0</ele><time>2026-04-04T08:09:05Z</time></trkpt><trkpt lat="39.26756795963248" lon="9.148869981480976"><ele>17.333333333333336</ele><time>2026-04-04T08:09:06Z</time></trkpt><trkpt lat="39.26754324918274" lon="9.148648498888006"><ele>17.666666666666668</ele><time>2026-04-04T08:09:07Z</time></trkpt><trkpt lat="39.26752144141046" lon="9.148428116953802"><ele>18.0</ele><time>2026-04-04T08:09:08Z</time></trkpt><trkpt lat="39.26750144873177" lon="9.148199595008174"><ele>18.666666666666668</ele><time>2026-04-04T08:09:09Z</time></trkpt><trkpt lat="39.26748295337096" lon="9.147972456688654"><ele>19.333333333333336</ele><time>2026-04-04T08:09:10Z</time></trkpt><trkpt lat="39.267463412212976" lon="9.147737835854883"><ele>20.0</ele><time>2026-04-04T08:09:11Z</time></trkpt><trkpt lat="39.267439431796554" lon="9.147500909253889"><ele>19.333333333333336</ele><time>2026-04-04T08:09:12Z</time></trkpt><trkpt lat="39.26741590991512" lon="9.14726093640764"><ele>18.666666666666668</ele><time>2026-04-04T08:09:13Z</time></trkpt><trkpt lat="39.26738994022074" lon="9.14701342003409"><ele>18.0</ele><time>2026-04-04T08:09:14Z</time></trkpt><trkpt lat="39.26736332467283" lon="9.146776121050028"><ele>18.333333333333332</ele><time>2026-04-04T08:09:15Z</time></trkpt><trkpt lat="39.267336853201215" lon="9.14653305555973"><ele>18.666666666666664</ele><time>2026-04-04T08:09:16Z</time></trkpt><trkpt lat="39.26731264983036" lon="9.14629415183749"><ele>19.0</ele><time>2026-04-04T08:09:17Z</time></trkpt><trkpt lat="39.267290395095266" lon="9.14605359505042"><ele>19.0</ele><time>2026-04-04T08:09:18Z</time></trkpt><trkpt lat="39.267266193995326" lon="9.145815108167104"><ele>19.0</ele><time>2026-04-04T08:09:19Z</time></trkpt><trkpt lat="39.26724224247317" lon="9.145574353544104"><ele>19.0</ele><time>2026-04-04T08:09:20Z</time></trkpt><trkpt lat="39.26721891284727" lon="9.145338257703603"><ele>19.0</ele><time>2026-04-04T08:09:21Z</time></trkpt><trkpt lat="39.26719604754369" lon="9.14510618281606"><ele>19.0</ele><time>2026-04-04T08:09:22Z</time></trkpt><trkpt lat="39.26717463711784" lon="9.144872945593482"><ele>19.0</ele><time>2026-04-04T08:09:23Z</time></trkpt><trkpt lat="39.26714971684771" lon="9.144626095532567"><ele>18.666666666666664</ele><time>2026-04-04T08:09:24Z</time></trkpt><trkpt lat="39.2671210151615" lon="9.144375783713306"><ele>18.333333333333332</ele><time>2026-04-04T08:09:25Z</time></trkpt><trkpt lat="39.26708825753674" lon="9.144116596059835"><ele>18.0</ele><time>2026-04-04T08:09:26Z</time></trkpt><trkpt lat="39.267060700453996" lon="9.143843532687432"><ele>17.666666666666668</ele><time>2026-04-04T08:09:27Z</time></trkpt><trkpt lat="39.26702405908112" lon="9.143597589825488"><ele>17.333333333333336</ele><time>2026-04-04T08:09:28Z</time></trkpt><trkpt lat="39.26700138917648" lon="9.143361626920619"><ele>17.0</ele><time>2026-04-04T08:09:29Z</time></trkpt><trkpt lat="39.26697943784545" lon="9.143118904455141"><ele>16.333333333333336</ele><time>2026-04-04T08:09:30Z</time></trkpt><trkpt lat="39.26695361840517" lon="9.142869604166117"><ele>15.666666666666668</ele><time>2026-04-04T08:09:31Z</time></trkpt><trkpt lat="39.26692672724381" lon="9.14261269832817"><ele>15.0</ele><time>2026-04-04T08:09:32Z</time></trkpt><trkpt lat="39.26690016431985" lon="9.142354227559963"><ele>14.666666666666668</ele><time>2026-04-04T08:09:33Z</time></trkpt><trkpt lat="39.26687480091978" lon="9.142090689933712"><ele>14.333333333333334</ele><time>2026-04-04T08:09:34Z</time></trkpt><trkpt lat="39.26685411013671" lon="9.141836060018687"><ele>14.0</ele><time>2026-04-04T08:09:35Z</time></trkpt><trkpt lat="39.266835536330184" lon="9.141593853297067"><ele>14.333333333333334</ele><time>2026-04-04T08:09:36Z</time></trkpt><trkpt lat="39.26681434005491" lon="9.141361492343743"><ele>14.666666666666668</ele><time>2026-04-04T08:09:37Z</time></trkpt><trkpt lat="39.266790795044" lon="9.141136689930933"><ele>15.0</ele><time>2026-04-04T08:09:38Z</time></trkpt><trkpt lat="39.266767245238704" lon="9.14092396229016"><ele>15.0</ele><time>2026-04-04T08:09:39Z</time></trkpt><trkpt lat="39.26674758004687" lon="9.140723749723099"><ele>15.0</ele><time>2026-04-04T08:09:40Z</time></trkpt><trkpt lat="39.26673185243165" lon="9.140540556482271"><ele>15.0</ele><time>2026-04-04T08:09:41Z</time></trkpt><trkpt lat="39.266716930294805" lon="9.140381983425137"><ele>15.0</ele><time>2026-04-04T08:09:42Z</time></trkpt><trkpt lat="39.26670069253644" lon="9.140231523526415"><ele>15.166666666666666</ele><time>2026-04-04T08:09:43Z</time></trkpt><trkpt lat="39.26668710770923" lon="9.140088158967915"><ele>15.333333333333332</ele><time>2026-04-04T08:09:44Z</time></trkpt><trkpt lat="39.26667637049288" lon="9.139965398468693"><ele>15.5</ele><time>2026-04-04T08:09:45Z</time></trkpt><trkpt lat="39.26666678690406" lon="9.139854810688362"><ele>15.666666666666666</ele><time>2026-04-04T08:09:46Z</time></trkpt><trkpt lat="39.266661338024406" lon="9.139764777826361"><ele>15.833333333333332</ele><time>2026-04-04T08:09:47Z</time></trkpt><trkpt lat="39.26665544905612" lon="9.139683233915806"><ele>16.0</ele><time>2026-04-04T08:09:48Z</time></trkpt><trkpt lat="39.26664713319495" lon="9.139563506967145"><ele>16.0</ele><time>2026-04-04T08:09:50Z</time></trkpt><trkpt lat="39.266639777569296" lon="9.139448983042032"><ele>16.0</ele><time>2026-04-04T08:09:53Z</time></trkpt><trkpt lat="39.26663106867719" lon="9.139368085691219"><ele>16.0</ele><time>2026-04-04T08:09:56Z</time></trkpt><trkpt lat="39.266612437576896" lon="9.139283135185458"><ele>16.0</ele><time>2026-04-04T08:10:00Z</time></trkpt><trkpt lat="39.266592469021305" lon="9.139154648615284"><ele>16.0</ele><time>2026-04-04T08:10:03Z</time></trkpt><trkpt lat="39.266579233479895" lon="9.138990308690559"><ele>16.0</ele><time>2026-04-04T08:10:05Z</time></trkpt><trkpt lat="39.26656956415808" lon="9.138890903907651"><ele>16.0</ele><time>2026-04-04T08:10:06Z</time></trkpt><trkpt lat="39.26655854842468" lon="9.138783516832385"><ele>16.0</ele><time>2026-04-04T08:10:07Z</time></trkpt><trkpt lat="39.26654769245615" lon="9.138662915095814"><ele>16.0</ele><time>2026-04-04T08:10:08Z</time></trkpt><trkpt lat="39.26653877840834" lon="9.138523694728942"><ele>16.0</ele><time>2026-04-04T08:10:09Z</time></trkpt><trkpt lat="39.26652647479843" lon="9.138373244786342"><ele>15.75</ele><time>2026-04-04T08:10:10Z</time></trkpt><trkpt lat="39.266509776028585" lon="9.138216442828861"><ele>15.5</ele><time>2026-04-04T08:10:11Z</time></trkpt><trkpt lat="39.26648843250934" lon="9.138050980089126"><ele>15.25</ele><time>2026-04-04T08:10:12Z</time></trkpt><trkpt lat="39.26645818084581" lon="9.137866529474373"><ele>15.0</ele><time>2026-04-04T08:10:13Z</time></trkpt><trkpt lat="39.26643199654921" lon="9.137673585216534"><ele>15.0</ele><time>2026-04-04T08:10:14Z</time></trkpt><trkpt lat="39.26640900946161" lon="9.137455944425124"><ele>15.0</ele><time>2026-04-04T08:10:15Z</time></trkpt><trkpt lat="39.266388480033264" lon="9.13726490158922"><ele>15.0</ele><time>2026-04-04T08:10:16Z</time></trkpt><trkpt lat="39.26636891470401" lon="9.13707587946248"><ele>15.0</ele><time>2026-04-04T08:10:17Z</time></trkpt><trkpt lat="39.26635003001316" lon="9.136877678926378"><ele>15.0</ele><time>2026-04-04T08:10:18Z</time></trkpt><trkpt lat="39.26633049644083" lon="9.136672322267719"><ele>15.0</ele><time>2026-04-04T08:10:19Z</time></trkpt><trkpt lat="39.26631327572335" lon="9.136460785438722"><ele>15.333333333333332</ele><time>2026-04-04T08:10:20Z</time></trkpt><trkpt lat="39.266294949127676" lon="9.136242940357775"><ele>15.666666666666666</ele><time>2026-04-04T08:10:21Z</time></trkpt><trkpt lat="39.26627321384562" lon="9.136016390523936"><ele>16.0</ele><time>2026-04-04T08:10:22Z</time></trkpt><trkpt lat="39.26625016277189" lon="9.135789935795083"><ele>16.333333333333332</ele><time>2026-04-04T08:10:23Z</time></trkpt><trkpt lat="39.266228294870174" lon="9.135561616665823"><ele>16.666666666666668</ele><time>2026-04-04T08:10:24Z</time></trkpt><trkpt lat="39.26620900232906" lon="9.135332825800512"><ele>17.0</ele><time>2026-04-04T08:10:25Z</time></trkpt><trkpt lat="39.26618854419206" lon="9.13510346869943"><ele>17.0</ele><time>2026-04-04T08:10:26Z</time></trkpt><trkpt lat="39.266165614841775" lon="9.134872522865054"><ele>17.0</ele><time>2026-04-04T08:10:27Z</time></trkpt><trkpt lat="39.26614189607603" lon="9.13463574760863"><ele>17.0</ele><time>2026-04-04T08:10:28Z</time></trkpt><trkpt lat="39.26611945788804" lon="9.134403635887786"><ele>17.0</ele><time>2026-04-04T08:10:29Z</time></trkpt><trkpt lat="39.266097018413966" lon="9.134167633395451"><ele>17.0</ele><time>2026-04-04T08:10:30Z</time></trkpt><trkpt lat="39.26607416891383" lon="9.133936615696653"><ele>17.0</ele><time>2026-04-04T08:10:31Z</time></trkpt><trkpt lat="39.26605149546279" lon="9.133708519837901"><ele>17.666666666666668</ele><time>2026-04-04T08:10:32Z</time></trkpt><trkpt lat="39.26602984651801" lon="9.133481639585847"><ele>18.333333333333332</ele><time>2026-04-04T08:10:33Z</time></trkpt><trkpt lat="39.26600770703377" lon="9.133254099827008"><ele>19.0</ele><time>2026-04-04T08:10:34Z</time></trkpt><trkpt lat="39.26598216930252" lon="9.133032029327081"><ele>19.0</ele><time>2026-04-04T08:10:35Z</time></trkpt><trkpt lat="39.2659554253438" lon="9.132815388737107"><ele>19.0</ele><time>2026-04-04T08:10:36Z</time></trkpt><trkpt lat="39.26593023989921" lon="9.132599200303616"><ele>19.0</ele><time>2026-04-04T08:10:37Z</time></trkpt><trkpt lat="39.26590602510754" lon="9.132383693964846"><ele>18.0</ele><time>2026-04-04T08:10:38Z</time></trkpt><trkpt lat="39.26588619506834" lon="9.132169413181806"><ele>17.0</ele><time>2026-04-04T08:10:39Z</time></trkpt><trkpt lat="39.265864276271316" lon="9.131960434259176"><ele>16.0</ele><time>2026-04-04T08:10:40Z</time></trkpt><trkpt lat="39.26584068542047" lon="9.131751407048837"><ele>17.0</ele><time>2026-04-04T08:10:41Z</time></trkpt><trkpt lat="39.2658194926442" lon="9.131538131119795"><ele>18.0</ele><time>2026-04-04T08:10:42Z</time></trkpt><trkpt lat="39.265800253642375" lon="9.13132347422688"><ele>19.0</ele><time>2026-04-04T08:10:43Z</time></trkpt><trkpt lat="39.265778346826814" lon="9.131100183114585"><ele>19.0</ele><time>2026-04-04T08:10:44Z</time></trkpt><trkpt lat="39.26575762912405" lon="9.130874617726334"><ele>19.0</ele><time>2026-04-04T08:10:45Z</time></trkpt><trkpt lat="39.265736214951914" lon="9.130647135724818"><ele>19.0</ele><time>2026-04-04T08:10:46Z</time></trkpt><trkpt lat="39.26571274051898" lon="9.130399689022973"><ele>19.0</ele><time>2026-04-04T08:10:47Z</time></trkpt><trkpt lat="39.26568420622285" lon="9.13012924302738"><ele>19.0</ele><time>2026-04-04T08:10:48Z</time></trkpt><trkpt lat="39.26565445503457" lon="9.129839150667259"><ele>19.0</ele><time>2026-04-04T08:10:49Z</time></trkpt><trkpt lat="39.26562198812492" lon="9.1295267091314"><ele>20.5</ele><time>2026-04-04T08:10:50Z</time></trkpt><trkpt lat="39.2655869413315" lon="9.129201270538099"><ele>22.0</ele><time>2026-04-04T08:10:51Z</time></trkpt><trkpt lat="39.26555365347476" lon="9.128877076777888"><ele>22.5</ele><time>2026-04-04T08:10:52Z</time></trkpt><trkpt lat="39.26552450369324" lon="9.128546243716688"><ele>23.0</ele><time>2026-04-04T08:10:53Z</time></trkpt><trkpt lat="39.26549592376062" lon="9.128222961828405"><ele>23.5</ele><time>2026-04-04T08:10:54Z</time></trkpt><trkpt lat="39.26546112060423" lon="9.12790461722324"><ele>24.0</ele><time>2026-04-04T08:10:55Z</time></trkpt><trkpt lat="39.26542556866675" lon="9.127593027384059"><ele>26.5</ele><time>2026-04-04T08:10:56Z</time></trkpt><trkpt lat="39.26539880956549" lon="9.127288283397498"><ele>29.0</ele><time>2026-04-04T08:10:57Z</time></trkpt><trkpt lat="39.26537233905733" lon="9.126979950007497"><ele>29.0</ele><time>2026-04-04T08:10:58Z</time></trkpt><trkpt lat="39.2653492662046" lon="9.126687781123552"><ele>29.0</ele><time>2026-04-04T08:10:59Z</time></trkpt><trkpt lat="39.26531817022942" lon="9.126397985416721"><ele>29.0</ele><time>2026-04-04T08:11:00Z</time></trkpt><trkpt lat="39.265284932658204" lon="9.126109615763996"><ele>29.0</ele><time>2026-04-04T08:11:01Z</time></trkpt><trkpt lat="39.26525264064174" lon="9.1258221035612"><ele>29.5</ele><time>2026-04-04T08:11:02Z</time></trkpt><trkpt lat="39.26522351918109" lon="9.125530419930206"><ele>30.0</ele><time>2026-04-04T08:11:03Z</time></trkpt><trkpt lat="39.26520405773924" lon="9.125230803547382"><ele>30.0</ele><time>2026-04-04T08:11:04Z</time></trkpt><trkpt lat="39.26519045594858" lon="9.124936734528319"><ele>30.0</ele><time>2026-04-04T08:11:05Z</time></trkpt><trkpt lat="39.26517624089926" lon="9.12465085829824"><ele>31.333333333333336</ele><time>2026-04-04T08:11:06Z</time></trkpt><trkpt lat="39.26515828159184" lon="9.124370601779027"><ele>32.66666666666667</ele><time>2026-04-04T08:11:07Z</time></trkpt><trkpt lat="39.26513836098799" lon="9.12409604778013"><ele>34.0</ele><time>2026-04-04T08:11:08Z</time></trkpt><trkpt lat="39.265117868690645" lon="9.123829445185931"><ele>34.0</ele><time>2026-04-04T08:11:09Z</time></trkpt><trkpt lat="39.265099326344256" lon="9.123566155305683"><ele>34.0</ele><time>2026-04-04T08:11:10Z</time></trkpt><trkpt lat="39.26508112931402" lon="9.123304645068213"><ele>34.0</ele><time>2026-04-04T08:11:11Z</time></trkpt><trkpt lat="39.26506167756619" lon="9.123038874192424"><ele>34.0</ele><time>2026-04-04T08:11:12Z</time></trkpt><trkpt lat="39.265042305321515" lon="9.12277277750369"><ele>34.0</ele><time>2026-04-04T08:11:13Z</time></trkpt><trkpt lat="39.265022353082955" lon="9.122499744191147"><ele>34.0</ele><time>2026-04-04T08:11:14Z</time></trkpt><trkpt lat="39.26500277887018" lon="9.12222484959584"><ele>34.0</ele><time>2026-04-04T08:11:15Z</time></trkpt><trkpt lat="39.2649849102078" lon="9.121949211155515"><ele>34.0</ele><time>2026-04-04T08:11:16Z</time></trkpt><trkpt lat="39.264968207642504" lon="9.121672397890123"><ele>34.0</ele><time>2026-04-04T08:11:17Z</time></trkpt><trkpt lat="39.26495146130913" lon="9.121395547104791"><ele>34.0</ele><time>2026-04-04T08:11:18Z</time></trkpt><trkpt lat="39.26492986583638" lon="9.121063187434176"><ele>34.0</ele><time>2026-04-04T08:11:19Z</time></trkpt><trkpt lat="39.26490796899341" lon="9.120764132030722"><ele>34.0</ele><time>2026-04-04T08:11:20Z</time></trkpt><trkpt lat="39.2648880052003" lon="9.120460849716011"><ele>34.0</ele><time>2026-04-04T08:11:21Z</time></trkpt><trkpt lat="39.26486536753206" lon="9.120164424870199"><ele>33.66666666666667</ele><time>2026-04-04T08:11:22Z</time></trkpt><trkpt lat="39.26484130325645" lon="9.1198765840327"><ele>33.333333333333336</ele><time>2026-04-04T08:11:23Z</time></trkpt><trkpt lat="39.26481901693452" lon="9.119590334664458"><ele>33.0</ele><time>2026-04-04T08:11:24Z</time></trkpt><trkpt lat="39.26479952010921" lon="9.119303687675526"><ele>32.333333333333336</ele><time>2026-04-04T08:11:25Z</time></trkpt><trkpt lat="39.26477964512344" lon="9.11902146854986"><ele>31.666666666666668</ele><time>2026-04-04T08:11:26Z</time></trkpt><trkpt lat="39.2647605569241" lon="9.118736569977772"><ele>31.0</ele><time>2026-04-04T08:11:27Z</time></trkpt><trkpt lat="39.2647402267768" lon="9.118456668046814"><ele>31.333333333333336</ele><time>2026-04-04T08:11:28Z</time></trkpt><trkpt lat="39.2647135790884" lon="9.118173751184733"><ele>31.666666666666664</ele><time>2026-04-04T08:11:29Z</time></trkpt><trkpt lat="39.26468154666856" lon="9.117893292842007"><ele>32.0</ele><time>2026-04-04T08:11:30Z</time></trkpt><trkpt lat="39.26463886472156" lon="9.117614080670853"><ele>31.333333333333332</ele><time>2026-04-04T08:11:31Z</time></trkpt><trkpt lat="39.26458941743131" lon="9.117333323928737"><ele>30.666666666666664</ele><time>2026-04-04T08:11:32Z</time></trkpt><trkpt lat="39.264530240175084" lon="9.117052370676715"><ele>30.0</ele><time>2026-04-04T08:11:33Z</time></trkpt><trkpt lat="39.26447060005119" lon="9.11677635084118"><ele>30.0</ele><time>2026-04-04T08:11:34Z</time></trkpt><trkpt lat="39.26440534771703" lon="9.116497708902402"><ele>30.0</ele><time>2026-04-04T08:11:35Z</time></trkpt><trkpt lat="39.264339813402835" lon="9.116221230740262"><ele>30.0</ele><time>2026-04-04T08:11:36Z</time></trkpt><trkpt lat="39.264276162868" lon="9.115944106237041"><ele>29.333333333333336</ele><time>2026-04-04T08:11:37Z</time></trkpt><trkpt lat="39.26421690110241" lon="9.115665065640727"><ele>28.666666666666668</ele><time>2026-04-04T08:11:38Z</time></trkpt><trkpt lat="39.26415667938518" lon="9.115387582229694"><ele>28.0</ele><time>2026-04-04T08:11:39Z</time></trkpt><trkpt lat="39.264095983270956" lon="9.1151112540641"><ele>28.0</ele><time>2026-04-04T08:11:40Z</time></trkpt><trkpt lat="39.26403077013194" lon="9.114830258041604"><ele>28.0</ele><time>2026-04-04T08:11:41Z</time></trkpt><trkpt lat="39.263967255306575" lon="9.114549083790845"><ele>28.0</ele><time>2026-04-04T08:11:42Z</time></trkpt><trkpt lat="39.263902477317444" lon="9.114269515455064"><ele>28.0</ele><time>2026-04-04T08:11:43Z</time></trkpt><trkpt lat="39.2638413072051" lon="9.113992438772328"><ele>28.0</ele><time>2026-04-04T08:11:44Z</time></trkpt><trkpt lat="39.263780134668934" lon="9.113722362564989"><ele>28.0</ele><time>2026-04-04T08:11:45Z</time></trkpt><trkpt lat="39.26372197414429" lon="9.11346085163817"><ele>28.0</ele><time>2026-04-04T08:11:46Z</time></trkpt><trkpt lat="39.26366673347609" lon="9.1132053543959"><ele>28.0</ele><time>2026-04-04T08:11:47Z</time></trkpt><trkpt lat="39.263617943126654" lon="9.112968279057153"><ele>27.666666666666668</ele><time>2026-04-04T08:11:48Z</time></trkpt><trkpt lat="39.263563114557876" lon="9.112727050664406"><ele>27.333333333333336</ele><time>2026-04-04T08:11:49Z</time></trkpt><trkpt lat="39.26350938632654" lon="9.112492738228203"><ele>27.0</ele><time>2026-04-04T08:11:50Z</time></trkpt><trkpt lat="39.26345461359922" lon="9.112266865504708"><ele>27.0</ele><time>2026-04-04T08:11:51Z</time></trkpt><trkpt lat="39.26340748085263" lon="9.11205621180524"><ele>27.0</ele><time>2026-04-04T08:11:52Z</time></trkpt><trkpt lat="39.26335310787051" lon="9.111844101574698"><ele>27.0</ele><time>2026-04-04T08:11:53Z</time></trkpt><trkpt lat="39.26329401705521" lon="9.111656749680701"><ele>26.666666666666664</ele><time>2026-04-04T08:11:54Z</time></trkpt><trkpt lat="39.26322750781889" lon="9.11147212564587"><ele>26.333333333333332</ele><time>2026-04-04T08:11:55Z</time></trkpt><trkpt lat="39.263135605624974" lon="9.111299959725853"><ele>26.0</ele><time>2026-04-04T08:11:56Z</time></trkpt><trkpt lat="39.263023033736246" lon="9.111148461675368"><ele>26.0</ele><time>2026-04-04T08:11:57Z</time></trkpt><trkpt lat="39.262879424165256" lon="9.111011895574727"><ele>26.0</ele><time>2026-04-04T08:11:58Z</time></trkpt><trkpt lat="39.26271334303161" lon="9.110900954488486"><ele>26.0</ele><time>2026-04-04T08:11:59Z</time></trkpt><trkpt lat="39.26252681303359" lon="9.11081487482211"><ele>26.0</ele><time>2026-04-04T08:12:00Z</time></trkpt><trkpt lat="39.262328953558516" lon="9.110744575075843"><ele>26.0</ele><time>2026-04-04T08:12:01Z</time></trkpt><trkpt lat="39.262123744333074" lon="9.110679917308023"><ele>26.0</ele><time>2026-04-04T08:12:02Z</time></trkpt><trkpt lat="39.26191517763262" lon="9.110614540544773"><ele>26.0</ele><time>2026-04-04T08:12:03Z</time></trkpt><trkpt lat="39.261707059847026" lon="9.110548497400856"><ele>26.0</ele><time>2026-04-04T08:12:04Z</time></trkpt><trkpt lat="39.261508023815075" lon="9.110482648692727"><ele>26.0</ele><time>2026-04-04T08:12:05Z</time></trkpt><trkpt lat="39.26131892531092" lon="9.110412125129425"><ele>26.333333333333332</ele><time>2026-04-04T08:12:06Z</time></trkpt><trkpt lat="39.2611457448934" lon="9.110321373626718"><ele>26.666666666666664</ele><time>2026-04-04T08:12:07Z</time></trkpt><trkpt lat="39.260991577087296" lon="9.110197559079367"><ele>27.0</ele><time>2026-04-04T08:12:08Z</time></trkpt><trkpt lat="39.26085687549772" lon="9.110046600938304"><ele>27.0</ele><time>2026-04-04T08:12:09Z</time></trkpt><trkpt lat="39.26073310933255" lon="9.109872774396377"><ele>27.0</ele><time>2026-04-04T08:12:10Z</time></trkpt><trkpt lat="39.2606176102431" lon="9.109677356832318"><ele>27.0</ele><time>2026-04-04T08:12:11Z</time></trkpt><trkpt lat="39.26052033689256" lon="9.10945501393401"><ele>27.333333333333336</ele><time>2026-04-04T08:12:12Z</time></trkpt><trkpt lat="39.260446608901574" lon="9.109216655980768"><ele>27.666666666666668</ele><time>2026-04-04T08:12:13Z</time></trkpt><trkpt lat="39.26039440312207" lon="9.10897349089015"><ele>28.0</ele><time>2026-04-04T08:12:14Z</time></trkpt><trkpt lat="39.260336505782256" lon="9.108735382792371"><ele>28.333333333333336</ele><time>2026-04-04T08:12:15Z</time></trkpt><trkpt lat="39.260273762990685" lon="9.108494821560774"><ele>28.666666666666664</ele><time>2026-04-04T08:12:16Z</time></trkpt><trkpt lat="39.260204312462804" lon="9.108253930365114"><ele>29.0</ele><time>2026-04-04T08:12:17Z</time></trkpt><trkpt lat="39.26012708054886" lon="9.108009203399039"><ele>29.0</ele><time>2026-04-04T08:12:18Z</time></trkpt><trkpt lat="39.260046749315684" lon="9.107763405395529"><ele>29.0</ele><time>2026-04-04T08:12:19Z</time></trkpt><trkpt lat="39.259967971792584" lon="9.107509856224958"><ele>29.0</ele><time>2026-04-04T08:12:20Z</time></trkpt><trkpt lat="39.25989602271247" lon="9.107249590446058"><ele>29.0</ele><time>2026-04-04T08:12:21Z</time></trkpt><trkpt lat="39.259828295895645" lon="9.106987880085176"><ele>29.0</ele><time>2026-04-04T08:12:22Z</time></trkpt><trkpt lat="39.25976257795912" lon="9.106725687767446"><ele>29.0</ele><time>2026-04-04T08:12:23Z</time></trkpt><trkpt lat="39.259693456309094" lon="9.106468413525123"><ele>29.666666666666664</ele><time>2026-04-04T08:12:24Z</time></trkpt><trkpt lat="39.25962286697211" lon="9.106213819576874"><ele>30.333333333333336</ele><time>2026-04-04T08:12:25Z</time></trkpt><trkpt lat="39.25955664906595" lon="9.10596360293637"><ele>31.0</ele><time>2026-04-04T08:12:26Z</time></trkpt><trkpt lat="39.259492793034184" lon="9.10570853258465"><ele>31.0</ele><time>2026-04-04T08:12:27Z</time></trkpt><trkpt lat="39.25943212042335" lon="9.105448789490508"><ele>31.0</ele><time>2026-04-04T08:12:28Z</time></trkpt><trkpt lat="39.25938655035033" lon="9.105184534103532"><ele>31.0</ele><time>2026-04-04T08:12:29Z</time></trkpt><trkpt lat="39.25937307685539" lon="9.104925576522751"><ele>30.666666666666668</ele><time>2026-04-04T08:12:30Z</time></trkpt><trkpt lat="39.25939254663018" lon="9.104667489039189"><ele>30.333333333333336</ele><time>2026-04-04T08:12:31Z</time></trkpt><trkpt lat="39.259433051255705" lon="9.104410998384363"><ele>30.0</ele><time>2026-04-04T08:12:32Z</time></trkpt><trkpt lat="39.25950668049063" lon="9.10416105771445"><ele>29.0</ele><time>2026-04-04T08:12:33Z</time></trkpt><trkpt lat="39.25960578436454" lon="9.103923093398139"><ele>28.0</ele><time>2026-04-04T08:12:34Z</time></trkpt><trkpt lat="39.25971986935706" lon="9.103685507527247"><ele>27.0</ele><time>2026-04-04T08:12:35Z</time></trkpt><trkpt lat="39.259835158287935" lon="9.103432822829571"><ele>25.333333333333332</ele><time>2026-04-04T08:12:36Z</time></trkpt><trkpt lat="39.259941386476434" lon="9.103182998497836"><ele>23.666666666666664</ele><time>2026-04-04T08:12:37Z</time></trkpt><trkpt lat="39.260033544442415" lon="9.10293837611533"><ele>22.0</ele><time>2026-04-04T08:12:38Z</time></trkpt><trkpt lat="39.260110521032615" lon="9.102685064590432"><ele>22.0</ele><time>2026-04-04T08:12:39Z</time></trkpt><trkpt lat="39.26015747485762" lon="9.102420767952747"><ele>22.0</ele><time>2026-04-04T08:12:40Z</time></trkpt><trkpt lat="39.26016655992047" lon="9.10214689576292"><ele>22.0</ele><time>2026-04-04T08:12:41Z</time></trkpt><trkpt lat="39.26014347418288" lon="9.101869451110353"><ele>22.0</ele><time>2026-04-04T08:12:42Z</time></trkpt><trkpt lat="39.26009784856397" lon="9.101591858537223"><ele>22.0</ele><time>2026-04-04T08:12:43Z</time></trkpt><trkpt lat="39.26004002217429" lon="9.101317085791877"><ele>22.0</ele><time>2026-04-04T08:12:44Z</time></trkpt><trkpt lat="39.259971825778486" lon="9.101039634761937"><ele>21.5</ele><time>2026-04-04T08:12:45Z</time></trkpt><trkpt lat="39.2599072478613" lon="9.10075762345606"><ele>21.0</ele><time>2026-04-04T08:12:46Z</time></trkpt><trkpt lat="39.25984959764621" lon="9.10047199466257"><ele>21.0</ele><time>2026-04-04T08:12:47Z</time></trkpt><trkpt lat="39.259790579319926" lon="9.100178786572302"><ele>21.0</ele><time>2026-04-04T08:12:48Z</time></trkpt><trkpt lat="39.25972839877951" lon="9.099883795908855"><ele>22.0</ele><time>2026-04-04T08:12:49Z</time></trkpt><trkpt lat="39.25966531830507" lon="9.09958289689083"><ele>23.0</ele><time>2026-04-04T08:12:50Z</time></trkpt><trkpt lat="39.259601984504776" lon="9.099274431852788"><ele>23.0</ele><time>2026-04-04T08:12:51Z</time></trkpt><trkpt lat="39.25953522727573" lon="9.098958623735163"><ele>23.0</ele><time>2026-04-04T08:12:52Z</time></trkpt><trkpt lat="39.25946922334154" lon="9.098642969703125"><ele>23.0</ele><time>2026-04-04T08:12:53Z</time></trkpt><trkpt lat="39.2594067460241" lon="9.098334181546367"><ele>23.0</ele><time>2026-04-04T08:12:54Z</time></trkpt><trkpt lat="39.259344958495085" lon="9.098026861992851"><ele>20.5</ele><time>2026-04-04T08:12:55Z</time></trkpt><trkpt lat="39.2592819147675" lon="9.09771979796623"><ele>18.0</ele><time>2026-04-04T08:12:56Z</time></trkpt><trkpt lat="39.259216115734695" lon="9.097408572812572"><ele>16.5</ele><time>2026-04-04T08:12:57Z</time></trkpt><trkpt lat="39.25914949421216" lon="9.097102001278065"><ele>15.0</ele><time>2026-04-04T08:12:58Z</time></trkpt><trkpt lat="39.259088129986814" lon="9.09681668040333"><ele>15.666666666666668</ele><time>2026-04-04T08:12:59Z</time></trkpt><trkpt lat="39.2590300876438" lon="9.096545425513835"><ele>16.333333333333336</ele><time>2026-04-04T08:13:00Z</time></trkpt><trkpt lat="39.25897514689276" lon="9.096282604665658"><ele>17.0</ele><time>2026-04-04T08:13:01Z</time></trkpt><trkpt lat="39.25892276485711" lon="9.096017322233017"><ele>17.333333333333336</ele><time>2026-04-04T08:13:02Z</time></trkpt><trkpt lat="39.258873974738854" lon="9.095750395385446"><ele>17.666666666666668</ele><time>2026-04-04T08:13:03Z</time></trkpt><trkpt lat="39.25883588670272" lon="9.095482671106588"><ele>18.0</ele><time>2026-04-04T08:13:04Z</time></trkpt><trkpt lat="39.25882046462906" lon="9.095213790471714"><ele>18.0</ele><time>2026-04-04T08:13:05Z</time></trkpt><trkpt lat="39.258822646250884" lon="9.094939332859761"><ele>18.0</ele><time>2026-04-04T08:13:06Z</time></trkpt><trkpt lat="39.258841079223316" lon="9.09466739171052"><ele>18.0</ele><time>2026-04-04T08:13:07Z</time></trkpt><trkpt lat="39.25886867434454" lon="9.094395079918552"><ele>17.0</ele><time>2026-04-04T08:13:08Z</time></trkpt><trkpt lat="39.258913133994625" lon="9.09412555384579"><ele>16.0</ele><time>2026-04-04T08:13:09Z</time></trkpt><trkpt lat="39.258988404616616" lon="9.093862041131024"><ele>15.0</ele><time>2026-04-04T08:13:10Z</time></trkpt><trkpt lat="39.259079769519786" lon="9.09361664344896"><ele>14.333333333333332</ele><time>2026-04-04T08:13:11Z</time></trkpt><trkpt lat="39.25918835128677" lon="9.09337647936754"><ele>13.666666666666666</ele><time>2026-04-04T08:13:12Z</time></trkpt><trkpt lat="39.259308684243294" lon="9.093148284674378"><ele>13.0</ele><time>2026-04-04T08:13:13Z</time></trkpt><trkpt lat="39.25943324875831" lon="9.092925175460294"><ele>13.0</ele><time>2026-04-04T08:13:14Z</time></trkpt><trkpt lat="39.25956420553732" lon="9.09271186403088"><ele>13.0</ele><time>2026-04-04T08:13:15Z</time></trkpt><trkpt lat="39.25970244216076" lon="9.092509760967827"><ele>13.0</ele><time>2026-04-04T08:13:16Z</time></trkpt><trkpt lat="39.25984602209904" lon="9.09230392274119"><ele>12.0</ele><time>2026-04-04T08:13:17Z</time></trkpt><trkpt lat="39.259986427127735" lon="9.09209571772081"><ele>11.0</ele><time>2026-04-04T08:13:18Z</time></trkpt><trkpt lat="39.26012587415775" lon="9.091877520813266"><ele>10.0</ele><time>2026-04-04T08:13:19Z</time></trkpt><trkpt lat="39.26026815792847" lon="9.09165061626364"><ele>10.5</ele><time>2026-04-04T08:13:20Z</time></trkpt><trkpt lat="39.260414335589964" lon="9.091426995710712"><ele>11.0</ele><time>2026-04-04T08:13:21Z</time></trkpt><trkpt lat="39.26056562845288" lon="9.09120722002022"><ele>10.0</ele><time>2026-04-04T08:13:22Z</time></trkpt><trkpt lat="39.26071798284908" lon="9.090992208730212"><ele>9.0</ele><time>2026-04-04T08:13:23Z</time></trkpt><trkpt lat="39.26086803660944" lon="9.090770580068844"><ele>8.5</ele><time>2026-04-04T08:13:24Z</time></trkpt><trkpt lat="39.2610188590449" lon="9.09053898541083"><ele>8.0</ele><time>2026-04-04T08:13:25Z</time></trkpt><trkpt lat="39.261173163339286" lon="9.09031709649052"><ele>8.0</ele><time>2026-04-04T08:13:26Z</time></trkpt><trkpt lat="39.26133020882338" lon="9.090111275412163"><ele>8.0</ele><time>2026-04-04T08:13:27Z</time></trkpt><trkpt lat="39.26148517968971" lon="9.089908432202462"><ele>8.0</ele><time>2026-04-04T08:13:28Z</time></trkpt><trkpt lat="39.261629438109004" lon="9.089698815951387"><ele>7.666666666666666</ele><time>2026-04-04T08:13:29Z</time></trkpt><trkpt lat="39.26176253086746" lon="9.089476979079816"><ele>7.333333333333334</ele><time>2026-04-04T08:13:30Z</time></trkpt><trkpt lat="39.26189106437803" lon="9.08924420399772"><ele>7.0</ele><time>2026-04-04T08:13:31Z</time></trkpt><trkpt lat="39.26199056750468" lon="9.088982777537318"><ele>7.0</ele><time>2026-04-04T08:13:32Z</time></trkpt><trkpt lat="39.26205800560927" lon="9.08871521726215"><ele>7.0</ele><time>2026-04-04T08:13:33Z</time></trkpt><trkpt lat="39.2621063028331" lon="9.088435012002648"><ele>7.0</ele><time>2026-04-04T08:13:34Z</time></trkpt><trkpt lat="39.262134618004566" lon="9.08815152270621"><ele>7.0</ele><time>2026-04-04T08:13:35Z</time></trkpt><trkpt lat="39.26214083439568" lon="9.087866672887891"><ele>7.0</ele><time>2026-04-04T08:13:36Z</time></trkpt><trkpt lat="39.26211493656174" lon="9.087588784383987"><ele>7.0</ele><time>2026-04-04T08:13:37Z</time></trkpt><trkpt lat="39.262053656176434" lon="9.087326207490499"><ele>7.333333333333334</ele><time>2026-04-04T08:13:38Z</time></trkpt><trkpt lat="39.261972678461646" lon="9.087064476919664"><ele>7.666666666666666</ele><time>2026-04-04T08:13:39Z</time></trkpt><trkpt lat="39.26186843261836" lon="9.086809181140909"><ele>8.0</ele><time>2026-04-04T08:13:40Z</time></trkpt><trkpt lat="39.26175614856205" lon="9.086559150374814"><ele>9.333333333333332</ele><time>2026-04-04T08:13:41Z</time></trkpt><trkpt lat="39.26163420635295" lon="9.086314872200838"><ele>10.666666666666666</ele><time>2026-04-04T08:13:42Z</time></trkpt><trkpt lat="39.26151523450488" lon="9.086074717811888"><ele>12.0</ele><time>2026-04-04T08:13:43Z</time></trkpt><trkpt lat="39.26140142858931" lon="9.085830804705957"><ele>12.333333333333332</ele><time>2026-04-04T08:13:44Z</time></trkpt><trkpt lat="39.26128812331711" lon="9.085588709039797"><ele>12.666666666666666</ele><time>2026-04-04T08:13:45Z</time></trkpt><trkpt lat="39.26116586691229" lon="9.08535112090022"><ele>13.0</ele><time>2026-04-04T08:13:46Z</time></trkpt><trkpt lat="39.26103095003044" lon="9.085127005861843"><ele>13.0</ele><time>2026-04-04T08:13:47Z</time></trkpt><trkpt lat="39.2608732624444" lon="9.084931295957492"><ele>13.0</ele><time>2026-04-04T08:13:48Z</time></trkpt><trkpt lat="39.26069444338146" lon="9.084763932523433"><ele>13.0</ele><time>2026-04-04T08:13:49Z</time></trkpt><trkpt lat="39.26051009204912" lon="9.084606909236136"><ele>13.333333333333332</ele><time>2026-04-04T08:13:50Z</time></trkpt><trkpt lat="39.260319947251915" lon="9.084463310646393"><ele>13.666666666666668</ele><time>2026-04-04T08:13:51Z</time></trkpt><trkpt lat="39.260121282348855" lon="9.084347628349612"><ele>14.0</ele><time>2026-04-04T08:13:52Z</time></trkpt><trkpt lat="39.259928798919766" lon="9.08426444771512"><ele>13.666666666666668</ele><time>2026-04-04T08:13:53Z</time></trkpt><trkpt lat="39.25974890477708" lon="9.084186018284914"><ele>13.333333333333332</ele><time>2026-04-04T08:13:54Z</time></trkpt><trkpt lat="39.259587279628086" lon="9.084104711985264"><ele>13.0</ele><time>2026-04-04T08:13:55Z</time></trkpt><trkpt lat="39.25945818107015" lon="9.08403583139993"><ele>13.0</ele><time>2026-04-04T08:13:56Z</time></trkpt><trkpt lat="39.25934318485357" lon="9.083968923412453"><ele>13.0</ele><time>2026-04-04T08:13:57Z</time></trkpt><trkpt lat="39.25926360749624" lon="9.083879303100213"><ele>13.0</ele><time>2026-04-04T08:13:58Z</time></trkpt><trkpt lat="39.25921643416377" lon="9.083766500351812"><ele>13.0</ele><time>2026-04-04T08:13:59Z</time></trkpt><trkpt lat="39.25920465084074" lon="9.083641882889422"><ele>13.0</ele><time>2026-04-04T08:14:00Z</time></trkpt><trkpt lat="39.259222543871104" lon="9.083503716572084"><ele>13.0</ele><time>2026-04-04T08:14:01Z</time></trkpt><trkpt lat="39.25926557757065" lon="9.083374277541868"><ele>13.0</ele><time>2026-04-04T08:14:02Z</time></trkpt><trkpt lat="39.259330297878286" lon="9.083262799356458"><ele>13.0</ele><time>2026-04-04T08:14:03Z</time></trkpt><trkpt lat="39.2594182294495" lon="9.083184039440164"><ele>13.0</ele><time>2026-04-04T08:14:04Z</time></trkpt><trkpt lat="39.25952241449706" lon="9.083153978167658"><ele>13.0</ele><time>2026-04-04T08:14:05Z</time></trkpt><trkpt lat="39.25963478250241" lon="9.083160340274603"><ele>13.0</ele><time>2026-04-04T08:14:06Z</time></trkpt><trkpt lat="39.25975197669202" lon="9.083195201566364"><ele>13.0</ele><time>2026-04-04T08:14:07Z</time></trkpt><trkpt lat="39.25986646188383" lon="9.083271644829354"><ele>13.0</ele><time>2026-04-04T08:14:08Z</time></trkpt><trkpt lat="39.25996822774487" lon="9.083366524087126"><ele>13.0</ele><time>2026-04-04T08:14:09Z</time></trkpt><trkpt lat="39.260047946823754" lon="9.083471244220505"><ele>13.0</ele><time>2026-04-04T08:14:10Z</time></trkpt><trkpt lat="39.26011455086423" lon="9.083591987405054"><ele>13.0</ele><time>2026-04-04T08:14:11Z</time></trkpt><trkpt lat="39.26015763248265" lon="9.083732669349683"><ele>13.0</ele><time>2026-04-04T08:14:12Z</time></trkpt><trkpt lat="39.26018576510945" lon="9.0838789047811"><ele>13.0</ele><time>2026-04-04T08:14:13Z</time></trkpt><trkpt lat="39.26020622031731" lon="9.084028878483005"><ele>13.25</ele><time>2026-04-04T08:14:14Z</time></trkpt><trkpt lat="39.26022620071337" lon="9.084178064312844"><ele>13.5</ele><time>2026-04-04T08:14:15Z</time></trkpt><trkpt lat="39.260246234256584" lon="9.084330274443682"><ele>13.75</ele><time>2026-04-04T08:14:16Z</time></trkpt><trkpt lat="39.26026643586417" lon="9.08448671749298"><ele>14.0</ele><time>2026-04-04T08:14:17Z</time></trkpt><trkpt lat="39.260284927542834" lon="9.08464545401704"><ele>14.0</ele><time>2026-04-04T08:14:18Z</time></trkpt><trkpt lat="39.260304370023775" lon="9.0848084206022"><ele>14.0</ele><time>2026-04-04T08:14:19Z</time></trkpt><trkpt lat="39.260327331995285" lon="9.084973339961795"><ele>14.0</ele><time>2026-04-04T08:14:20Z</time></trkpt><trkpt lat="39.26035240165272" lon="9.085142231050972"><ele>14.0</ele><time>2026-04-04T08:14:21Z</time></trkpt><trkpt lat="39.2603715039243" lon="9.085314452498864"><ele>13.0</ele><time>2026-04-04T08:14:22Z</time></trkpt><trkpt lat="39.26038885419066" lon="9.085491454749821"><ele>12.0</ele><time>2026-04-04T08:14:23Z</time></trkpt><trkpt lat="39.26041689912701" lon="9.085668565460873"><ele>11.0</ele><time>2026-04-04T08:14:24Z</time></trkpt><trkpt lat="39.26044508391096" lon="9.085849288705992"><ele>10.0</ele><time>2026-04-04T08:14:25Z</time></trkpt><trkpt lat="39.26046517351612" lon="9.086033155225072"><ele>10.0</ele><time>2026-04-04T08:14:26Z</time></trkpt><trkpt lat="39.2604697536141" lon="9.086215269375783"><ele>10.0</ele><time>2026-04-04T08:14:27Z</time></trkpt><trkpt lat="39.26042923869662" lon="9.086381936736824"><ele>10.0</ele><time>2026-04-04T08:14:28Z</time></trkpt><trkpt lat="39.26037651636106" lon="9.086542126670594"><ele>10.0</ele><time>2026-04-04T08:14:29Z</time></trkpt><trkpt lat="39.26030886949847" lon="9.08668025926368"><ele>10.0</ele><time>2026-04-04T08:14:30Z</time></trkpt><trkpt lat="39.260220785168386" lon="9.086794414592376"><ele>10.0</ele><time>2026-04-04T08:14:31Z</time></trkpt><trkpt lat="39.26012987436067" lon="9.086884486593009"><ele>10.0</ele><time>2026-04-04T08:14:32Z</time></trkpt><trkpt lat="39.260006123813554" lon="9.08696104867487"><ele>10.0</ele><time>2026-04-04T08:14:33Z</time></trkpt><trkpt lat="39.25987775604097" lon="9.087065093558829"><ele>10.0</ele><time>2026-04-04T08:14:34Z</time></trkpt><trkpt lat="39.25974568614913" lon="9.087182579853247"><ele>10.0</ele><time>2026-04-04T08:14:35Z</time></trkpt><trkpt lat="39.25960807265213" lon="9.087301457395373"><ele>10.0</ele><time>2026-04-04T08:14:36Z</time></trkpt><trkpt lat="39.259467174764694" lon="9.087416765188395"><ele>11.333333333333334</ele><time>2026-04-04T08:14:37Z</time></trkpt><trkpt lat="39.259328835950036" lon="9.08752850020181"><ele>12.666666666666668</ele><time>2026-04-04T08:14:38Z</time></trkpt><trkpt lat="39.25919492613805" lon="9.087635065074824"><ele>14.0</ele><time>2026-04-04T08:14:39Z</time></trkpt><trkpt lat="39.25907247871088" lon="9.087735624173556"><ele>14.0</ele><time>2026-04-04T08:14:40Z</time></trkpt><trkpt lat="39.258955053713784" lon="9.087829237078047"><ele>14.0</ele><time>2026-04-04T08:14:41Z</time></trkpt><trkpt lat="39.25883766804795" lon="9.087923188560689"><ele>14.0</ele><time>2026-04-04T08:14:42Z</time></trkpt><trkpt lat="39.25871769120738" lon="9.08802216977867"><ele>14.0</ele><time>2026-04-04T08:14:43Z</time></trkpt><trkpt lat="39.258587075091384" lon="9.088148777904372"><ele>14.0</ele><time>2026-04-04T08:14:44Z</time></trkpt><trkpt lat="39.258437053789706" lon="9.088279257886859"><ele>14.0</ele><time>2026-04-04T08:14:45Z</time></trkpt><trkpt lat="39.25827335424281" lon="9.088406895054929"><ele>14.0</ele><time>2026-04-04T08:14:46Z</time></trkpt><trkpt lat="39.2581066652172" lon="9.088542077665542"><ele>14.0</ele><time>2026-04-04T08:14:47Z</time></trkpt><trkpt lat="39.257938664026476" lon="9.08868019611096"><ele>14.0</ele><time>2026-04-04T08:14:48Z</time></trkpt><trkpt lat="39.25776223937355" lon="9.08881403076323"><ele>14.0</ele><time>2026-04-04T08:14:49Z</time></trkpt><trkpt lat="39.25758408903357" lon="9.088955384024153"><ele>15.0</ele><time>2026-04-04T08:14:50Z</time></trkpt><trkpt lat="39.25741064614996" lon="9.089094821411386"><ele>16.0</ele><time>2026-04-04T08:14:51Z</time></trkpt><trkpt lat="39.257243636324546" lon="9.089223917068551"><ele>17.0</ele><time>2026-04-04T08:14:52Z</time></trkpt><trkpt lat="39.25707793912076" lon="9.089346496888213"><ele>17.666666666666668</ele><time>2026-04-04T08:14:53Z</time></trkpt><trkpt lat="39.25692247038313" lon="9.089463639104109"><ele>18.333333333333332</ele><time>2026-04-04T08:14:54Z</time></trkpt><trkpt lat="39.25677394912669" lon="9.08958580371743"><ele>19.0</ele><time>2026-04-04T08:14:55Z</time></trkpt><trkpt lat="39.25662247862628" lon="9.089707760562627"><ele>19.0</ele><time>2026-04-04T08:14:56Z</time></trkpt><trkpt lat="39.25646287847441" lon="9.08983178293462"><ele>19.0</ele><time>2026-04-04T08:14:57Z</time></trkpt><trkpt lat="39.25629901090993" lon="9.089950996677207"><ele>19.0</ele><time>2026-04-04T08:14:58Z</time></trkpt><trkpt lat="39.25613649844386" lon="9.090065571724995"><ele>19.333333333333332</ele><time>2026-04-04T08:14:59Z</time></trkpt><trkpt lat="39.255976829757856" lon="9.090183909486978"><ele>19.666666666666668</ele><time>2026-04-04T08:15:00Z</time></trkpt><trkpt lat="39.255823973314705" lon="9.090307406407774"><ele>20.0</ele><time>2026-04-04T08:15:01Z</time></trkpt><trkpt lat="39.25567310725794" lon="9.090428128254963"><ele>19.666666666666668</ele><time>2026-04-04T08:15:02Z</time></trkpt><trkpt lat="39.25552613108939" lon="9.09054530436438"><ele>19.333333333333332</ele><time>2026-04-04T08:15:03Z</time></trkpt><trkpt lat="39.25538029591222" lon="9.090658909155508"><ele>19.0</ele><time>2026-04-04T08:15:04Z</time></trkpt><trkpt lat="39.25524114762133" lon="9.090767953191932"><ele>19.0</ele><time>2026-04-04T08:15:05Z</time></trkpt><trkpt lat="39.25510847528077" lon="9.090872007141495"><ele>19.0</ele><time>2026-04-04T08:15:06Z</time></trkpt><trkpt lat="39.25497841942291" lon="9.090974586155015"><ele>19.0</ele><time>2026-04-04T08:15:07Z</time></trkpt><trkpt lat="39.25485515999992" lon="9.091072235372174"><ele>19.75</ele><time>2026-04-04T08:15:08Z</time></trkpt><trkpt lat="39.25473850055676" lon="9.091168766254036"><ele>20.5</ele><time>2026-04-04T08:15:09Z</time></trkpt><trkpt lat="39.25462999605761" lon="9.091258267068824"><ele>21.25</ele><time>2026-04-04T08:15:10Z</time></trkpt><trkpt lat="39.25452771314201" lon="9.091342083126898"><ele>22.0</ele><time>2026-04-04T08:15:11Z</time></trkpt><trkpt lat="39.25443969849619" lon="9.091422079130323"><ele>22.0</ele><time>2026-04-04T08:15:12Z</time></trkpt><trkpt lat="39.254359538774885" lon="9.091490487976477"><ele>22.0</ele><time>2026-04-04T08:15:13Z</time></trkpt><trkpt lat="39.2542883444131" lon="9.091536189861857"><ele>22.0</ele><time>2026-04-04T08:15:14Z</time></trkpt><trkpt lat="39.25420304738234" lon="9.091603515506682"><ele>22.0</ele><time>2026-04-04T08:15:16Z</time></trkpt><trkpt lat="39.25411348647208" lon="9.091678531961442"><ele>22.0</ele><time>2026-04-04T08:15:48Z</time></trkpt><trkpt lat="39.25402097856324" lon="9.091754386759293"><ele>22.666666666666664</ele><time>2026-04-04T08:15:50Z</time></trkpt><trkpt lat="39.253920937841436" lon="9.091831331730917"><ele>23.333333333333332</ele><time>2026-04-04T08:15:52Z</time></trkpt><trkpt lat="39.25386318104346" lon="9.091877471789795"><ele>24.0</ele><time>2026-04-04T08:15:53Z</time></trkpt><trkpt lat="39.253801932971925" lon="9.091928061147408"><ele>24.666666666666664</ele><time>2026-04-04T08:15:54Z</time></trkpt><trkpt lat="39.253734961807" lon="9.091982344231862"><ele>25.333333333333332</ele><time>2026-04-04T08:15:55Z</time></trkpt><trkpt lat="39.253664743093125" lon="9.092043436842115"><ele>26.0</ele><time>2026-04-04T08:15:56Z</time></trkpt><trkpt lat="39.25358966076211" lon="9.092099943296285"><ele>26.0</ele><time>2026-04-04T08:15:57Z</time></trkpt><trkpt lat="39.25352019740629" lon="9.09215370858136"><ele>26.0</ele><time>2026-04-04T08:15:58Z</time></trkpt><trkpt lat="39.25350982485628" lon="9.092319015808025"><ele>26.0</ele><time>2026-04-04T08:15:59Z</time></trkpt><trkpt lat="39.2534920109144" lon="9.092431968181282"><ele>26.0</ele><time>2026-04-04T08:16:00Z</time></trkpt><trkpt lat="39.253472294557334" lon="9.092551729968777"><ele>26.0</ele><time>2026-04-04T08:16:01Z</time></trkpt><trkpt lat="39.253449466075416" lon="9.092679486561396"><ele>26.0</ele><time>2026-04-04T08:16:02Z</time></trkpt><trkpt lat="39.25342684713463" lon="9.09280715542832"><ele>26.0</ele><time>2026-04-04T08:16:03Z</time></trkpt><trkpt lat="39.25340384064996" lon="9.0929261339732"><ele>26.0</ele><time>2026-04-04T08:16:04Z</time></trkpt><trkpt lat="39.25338466773147" lon="9.093048727070265"><ele>26.0</ele><time>2026-04-04T08:16:05Z</time></trkpt><trkpt lat="39.253364999829394" lon="9.093166739645481"><ele>26.0</ele><time>2026-04-04T08:16:06Z</time></trkpt><trkpt lat="39.25334637411217" lon="9.093278710189304"><ele>25.999999999999996</ele><time>2026-04-04T08:16:07Z</time></trkpt><trkpt lat="39.253353122792404" lon="9.093360328237214"><ele>26.0</ele><time>2026-04-04T08:16:08Z</time></trkpt><trkpt lat="39.2534423765996" lon="9.09345177978393"><ele>26.0</ele><time>2026-04-04T08:16:10Z</time></trkpt><trkpt lat="39.25350736748534" lon="9.09346868920828"><ele>26.0</ele><time>2026-04-04T08:16:11Z</time></trkpt><trkpt lat="39.253589035999326" lon="9.093454437772087"><ele>25.999999999999996</ele><time>2026-04-04T08:16:12Z</time></trkpt><trkpt lat="39.253680082588915" lon="9.093409993915133"><ele>26.0</ele><time>2026-04-04T08:16:13Z</time></trkpt><trkpt lat="39.25378408093748" lon="9.09336275385101"><ele>26.0</ele><time>2026-04-04T08:16:14Z</time></trkpt><trkpt lat="39.25390188810028" lon="9.093323555777493"><ele>26.0</ele><time>2026-04-04T08:16:15Z</time></trkpt><trkpt lat="39.254032662954295" lon="9.093282803220006"><ele>26.0</ele><time>2026-04-04T08:16:16Z</time></trkpt><trkpt lat="39.2541710766381" lon="9.093239549969056"><ele>26.0</ele><time>2026-04-04T08:16:17Z</time></trkpt><trkpt lat="39.254315063915605" lon="9.093196085157484"><ele>25.333333333333332</ele><time>2026-04-04T08:16:18Z</time></trkpt><trkpt lat="39.254471564015965" lon="9.093154197779025"><ele>24.666666666666664</ele><time>2026-04-04T08:16:19Z</time></trkpt><trkpt lat="39.25463599413444" lon="9.093112955479562"><ele>24.0</ele><time>2026-04-04T08:16:20Z</time></trkpt><trkpt lat="39.25479919547355" lon="9.093069465566956"><ele>23.333333333333332</ele><time>2026-04-04T08:16:21Z</time></trkpt><trkpt lat="39.25496909427659" lon="9.093020096603613"><ele>22.666666666666664</ele><time>2026-04-04T08:16:22Z</time></trkpt><trkpt lat="39.25513317295464" lon="9.092969400345797"><ele>22.0</ele><time>2026-04-04T08:16:23Z</time></trkpt><trkpt lat="39.25528790431677" lon="9.092920422233236"><ele>22.0</ele><time>2026-04-04T08:16:24Z</time></trkpt><trkpt lat="39.25543865241367" lon="9.09287381646905"><ele>22.0</ele><time>2026-04-04T08:16:25Z</time></trkpt><trkpt lat="39.2555863459446" lon="9.09282294118476"><ele>22.0</ele><time>2026-04-04T08:16:26Z</time></trkpt><trkpt lat="39.25572967303486" lon="9.092752710759395"><ele>21.666666666666664</ele><time>2026-04-04T08:16:27Z</time></trkpt><trkpt lat="39.255869611333175" lon="9.092660745027535"><ele>21.333333333333332</ele><time>2026-04-04T08:16:28Z</time></trkpt><trkpt lat="39.256005378942824" lon="9.09256289573325"><ele>21.0</ele><time>2026-04-04T08:16:29Z</time></trkpt><trkpt lat="39.256140054603904" lon="9.092463607305117"><ele>20.333333333333332</ele><time>2026-04-04T08:16:30Z</time></trkpt><trkpt lat="39.25626894358547" lon="9.09235239589198"><ele>19.666666666666664</ele><time>2026-04-04T08:16:31Z</time></trkpt><trkpt lat="39.256397167926764" lon="9.092230648500761"><ele>19.0</ele><time>2026-04-04T08:16:32Z</time></trkpt><trkpt lat="39.25652840956113" lon="9.092113915359379"><ele>18.666666666666664</ele><time>2026-04-04T08:16:33Z</time></trkpt><trkpt lat="39.25666203381259" lon="9.09200636890443"><ele>18.333333333333332</ele><time>2026-04-04T08:16:34Z</time></trkpt><trkpt lat="39.256796135303944" lon="9.091903860935235"><ele>18.0</ele><time>2026-04-04T08:16:35Z</time></trkpt><trkpt lat="39.25693304918425" lon="9.091801079047709"><ele>18.0</ele><time>2026-04-04T08:16:36Z</time></trkpt><trkpt lat="39.25706940202247" lon="9.091695949244174"><ele>18.0</ele><time>2026-04-04T08:16:37Z</time></trkpt><trkpt lat="39.257205283090954" lon="9.091588948262002"><ele>18.0</ele><time>2026-04-04T08:16:38Z</time></trkpt><trkpt lat="39.2573344268901" lon="9.091488664039229"><ele>18.0</ele><time>2026-04-04T08:16:39Z</time></trkpt><trkpt lat="39.2574549009064" lon="9.091387182869171"><ele>18.0</ele><time>2026-04-04T08:16:40Z</time></trkpt><trkpt lat="39.25756850595601" lon="9.091288688078905"><ele>18.0</ele><time>2026-04-04T08:16:41Z</time></trkpt><trkpt lat="39.257676591638806" lon="9.091199597002445"><ele>18.0</ele><time>2026-04-04T08:16:42Z</time></trkpt><trkpt lat="39.257781715578325" lon="9.091121904685506"><ele>18.0</ele><time>2026-04-04T08:16:43Z</time></trkpt><trkpt lat="39.25787491834075" lon="9.091050282767263"><ele>18.0</ele><time>2026-04-04T08:16:44Z</time></trkpt><trkpt lat="39.25795261086021" lon="9.09098829104379"><ele>18.0</ele><time>2026-04-04T08:16:45Z</time></trkpt><trkpt lat="39.25802314314658" lon="9.090940499097302"><ele>18.0</ele><time>2026-04-04T08:16:57Z</time></trkpt><trkpt lat="39.258108310618915" lon="9.09090688102293"><ele>18.0</ele><time>2026-04-04T08:17:00Z</time></trkpt><trkpt lat="39.25817952007606" lon="9.090707499758421"><ele>17.6</ele><time>2026-04-04T08:17:02Z</time></trkpt><trkpt lat="39.25820011289897" lon="9.090585284430238"><ele>17.200000000000003</ele><time>2026-04-04T08:17:03Z</time></trkpt><trkpt lat="39.25822231966528" lon="9.09045685792617"><ele>16.8</ele><time>2026-04-04T08:17:04Z</time></trkpt><trkpt lat="39.25823687712922" lon="9.090310896737586"><ele>16.400000000000002</ele><time>2026-04-04T08:17:05Z</time></trkpt><trkpt lat="39.25824607794261" lon="9.090171150600472"><ele>16.0</ele><time>2026-04-04T08:17:06Z</time></trkpt><trkpt lat="39.25825773118755" lon="9.090022066461565"><ele>15.600000000000001</ele><time>2026-04-04T08:17:07Z</time></trkpt><trkpt lat="39.25826628777766" lon="9.089870598379344"><ele>15.200000000000001</ele><time>2026-04-04T08:17:08Z</time></trkpt><trkpt lat="39.258266160474214" lon="9.08971876308219"><ele>14.799999999999999</ele><time>2026-04-04T08:17:09Z</time></trkpt><trkpt lat="39.25826381029647" lon="9.089579253236655"><ele>14.399999999999999</ele><time>2026-04-04T08:17:10Z</time></trkpt><trkpt lat="39.25825995936128" lon="9.089446952006965"><ele>14.0</ele><time>2026-04-04T08:17:11Z</time></trkpt><trkpt lat="39.2582555701724" lon="9.08933351924146"><ele>14.000000000000002</ele><time>2026-04-04T08:17:12Z</time></trkpt><trkpt lat="39.2582507686166" lon="9.089234785139825"><ele>14.0</ele><time>2026-04-04T08:17:13Z</time></trkpt><trkpt lat="39.258247167682036" lon="9.089144576264482"><ele>14.0</ele><time>2026-04-04T08:17:14Z</time></trkpt><trkpt lat="39.25823479107876" lon="9.08899728505764"><ele>14.0</ele><time>2026-04-04T08:17:16Z</time></trkpt><trkpt lat="39.258218529402896" lon="9.088906836001732"><ele>14.000000000000002</ele><time>2026-04-04T08:17:19Z</time></trkpt><trkpt lat="39.25820224190051" lon="9.088817516754872"><ele>14.0</ele><time>2026-04-04T08:17:22Z</time></trkpt><trkpt lat="39.25819746840727" lon="9.088698480395294"><ele>13.799999999999999</ele><time>2026-04-04T08:17:24Z</time></trkpt><trkpt lat="39.25817547715682" lon="9.088589433904165"><ele>13.599999999999998</ele><time>2026-04-04T08:17:34Z</time></trkpt><trkpt lat="39.258279323447915" lon="9.08848540411401"><ele>13.4</ele><time>2026-04-04T08:17:36Z</time></trkpt><trkpt lat="39.25836436205688" lon="9.088424818816804"><ele>13.2</ele><time>2026-04-04T08:17:37Z</time></trkpt><trkpt lat="39.25846346162982" lon="9.088339444384681"><ele>13.0</ele><time>2026-04-04T08:17:38Z</time></trkpt><trkpt lat="39.25856736145652" lon="9.088253760579427"><ele>13.25</ele><time>2026-04-04T08:17:39Z</time></trkpt><trkpt lat="39.25868761596618" lon="9.088158225472746"><ele>13.5</ele><time>2026-04-04T08:17:40Z</time></trkpt><trkpt lat="39.25880799968577" lon="9.088061578205762"><ele>13.75</ele><time>2026-04-04T08:17:41Z</time></trkpt><trkpt lat="39.25893427408673" lon="9.087960183501925"><ele>14.0</ele><time>2026-04-04T08:17:42Z</time></trkpt><trkpt lat="39.259068587739755" lon="9.087855750045346"><ele>14.0</ele><time>2026-04-04T08:17:43Z</time></trkpt><trkpt lat="39.25920444330844" lon="9.087751760860785"><ele>14.0</ele><time>2026-04-04T08:17:44Z</time></trkpt><trkpt lat="39.259345633531105" lon="9.087642302613983"><ele>14.0</ele><time>2026-04-04T08:17:45Z</time></trkpt><trkpt lat="39.25949943868263" lon="9.087524941113188"><ele>12.666666666666668</ele><time>2026-04-04T08:17:46Z</time></trkpt><trkpt lat="39.25965852842563" lon="9.087398083582011"><ele>11.333333333333334</ele><time>2026-04-04T08:17:47Z</time></trkpt><trkpt lat="39.25982237027222" lon="9.087266467982719"><ele>10.0</ele><time>2026-04-04T08:17:48Z</time></trkpt><trkpt lat="39.25998307103978" lon="9.087144836423265"><ele>10.0</ele><time>2026-04-04T08:17:49Z</time></trkpt><trkpt lat="39.26015445090651" lon="9.087012247380638"><ele>10.0</ele><time>2026-04-04T08:17:50Z</time></trkpt><trkpt lat="39.26032341364724" lon="9.08688176224714"><ele>10.0</ele><time>2026-04-04T08:17:51Z</time></trkpt><trkpt lat="39.260487029460755" lon="9.086747908419833"><ele>9.333333333333334</ele><time>2026-04-04T08:17:52Z</time></trkpt><trkpt lat="39.260645861991165" lon="9.08661896446093"><ele>8.666666666666666</ele><time>2026-04-04T08:17:53Z</time></trkpt><trkpt lat="39.26079465705889" lon="9.086501711033582"><ele>8.0</ele><time>2026-04-04T08:17:54Z</time></trkpt><trkpt lat="39.260937454428095" lon="9.086387747801178"><ele>9.333333333333332</ele><time>2026-04-04T08:17:55Z</time></trkpt><trkpt lat="39.26107532098945" lon="9.08627876363803"><ele>10.666666666666666</ele><time>2026-04-04T08:17:56Z</time></trkpt><trkpt lat="39.26121679461611" lon="9.086172486084616"><ele>12.0</ele><time>2026-04-04T08:17:57Z</time></trkpt><trkpt lat="39.26136229919828" lon="9.086060446688293"><ele>12.0</ele><time>2026-04-04T08:17:58Z</time></trkpt><trkpt lat="39.26151174853513" lon="9.08594457145858"><ele>12.0</ele><time>2026-04-04T08:17:59Z</time></trkpt><trkpt lat="39.261662367275036" lon="9.085818004374605"><ele>12.0</ele><time>2026-04-04T08:18:00Z</time></trkpt><trkpt lat="39.26182042171467" lon="9.085694788225164"><ele>12.0</ele><time>2026-04-04T08:18:01Z</time></trkpt><trkpt lat="39.26198099256226" lon="9.085566942956348"><ele>12.0</ele><time>2026-04-04T08:18:02Z</time></trkpt><trkpt lat="39.262141317382756" lon="9.085441368767395"><ele>12.0</ele><time>2026-04-04T08:18:03Z</time></trkpt><trkpt lat="39.26230359268563" lon="9.085313211430124"><ele>12.0</ele><time>2026-04-04T08:18:04Z</time></trkpt><trkpt lat="39.26246435463504" lon="9.085187429200987"><ele>12.0</ele><time>2026-04-04T08:18:05Z</time></trkpt><trkpt lat="39.26262448872457" lon="9.085062238252034"><ele>12.0</ele><time>2026-04-04T08:18:06Z</time></trkpt><trkpt lat="39.26278241909694" lon="9.084933151179117"><ele>12.333333333333332</ele><time>2026-04-04T08:18:07Z</time></trkpt><trkpt lat="39.26294119328799" lon="9.084807389782378"><ele>12.666666666666666</ele><time>2026-04-04T08:18:08Z</time></trkpt><trkpt lat="39.26310051883975" lon="9.084684559741268"><ele>13.0</ele><time>2026-04-04T08:18:09Z</time></trkpt><trkpt lat="39.2632591871423" lon="9.0845659313602"><ele>13.333333333333332</ele><time>2026-04-04T08:18:10Z</time></trkpt><trkpt lat="39.263413995902106" lon="9.08444693287155"><ele>13.666666666666668</ele><time>2026-04-04T08:18:11Z</time></trkpt><trkpt lat="39.263564126642216" lon="9.084326574268829"><ele>14.0</ele><time>2026-04-04T08:18:12Z</time></trkpt><trkpt lat="39.263712820087136" lon="9.084205396859222"><ele>15.0</ele><time>2026-04-04T08:18:13Z</time></trkpt><trkpt lat="39.26386402141543" lon="9.084085550464119"><ele>16.0</ele><time>2026-04-04T08:18:14Z</time></trkpt><trkpt lat="39.26401456793741" lon="9.083969680600887"><ele>17.0</ele><time>2026-04-04T08:18:15Z</time></trkpt><trkpt lat="39.26416001015251" lon="9.083857214699751"><ele>18.333333333333336</ele><time>2026-04-04T08:18:16Z</time></trkpt><trkpt lat="39.26430452885304" lon="9.083742584034828"><ele>19.666666666666668</ele><time>2026-04-04T08:18:17Z</time></trkpt><trkpt lat="39.26444903152821" lon="9.083627861336547"><ele>21.0</ele><time>2026-04-04T08:18:18Z</time></trkpt><trkpt lat="39.26458647732511" lon="9.08351313563493"><ele>21.0</ele><time>2026-04-04T08:18:19Z</time></trkpt><trkpt lat="39.264726639875605" lon="9.083396381647251"><ele>21.0</ele><time>2026-04-04T08:18:20Z</time></trkpt><trkpt lat="39.26487275643914" lon="9.083282881077682"><ele>21.0</ele><time>2026-04-04T08:18:21Z</time></trkpt><trkpt lat="39.26501581083097" lon="9.083173730396531"><ele>22.666666666666664</ele><time>2026-04-04T08:18:22Z</time></trkpt><trkpt lat="39.26515708833209" lon="9.083061484043942"><ele>24.333333333333332</ele><time>2026-04-04T08:18:23Z</time></trkpt><trkpt lat="39.265303360561106" lon="9.08295488149868"><ele>26.0</ele><time>2026-04-04T08:18:24Z</time></trkpt><trkpt lat="39.26545185169796" lon="9.082845851184274"><ele>26.0</ele><time>2026-04-04T08:18:25Z</time></trkpt><trkpt lat="39.2655991111241" lon="9.082738764493037"><ele>26.0</ele><time>2026-04-04T08:18:26Z</time></trkpt><trkpt lat="39.26574806557833" lon="9.082632867464474"><ele>26.0</ele><time>2026-04-04T08:18:27Z</time></trkpt><trkpt lat="39.2658997385806" lon="9.082526278026736"><ele>28.0</ele><time>2026-04-04T08:18:28Z</time></trkpt><trkpt lat="39.26605489394131" lon="9.082424608111337"><ele>30.0</ele><time>2026-04-04T08:18:29Z</time></trkpt><trkpt lat="39.266213423029015" lon="9.08232734956646"><ele>32.0</ele><time>2026-04-04T08:18:30Z</time></trkpt><trkpt lat="39.26637718810833" lon="9.082235423479666"><ele>32.0</ele><time>2026-04-04T08:18:31Z</time></trkpt><trkpt lat="39.2665433428471" lon="9.082146683568025"><ele>32.0</ele><time>2026-04-04T08:18:32Z</time></trkpt><trkpt lat="39.266714018672666" lon="9.082058078565531"><ele>32.0</ele><time>2026-04-04T08:18:33Z</time></trkpt><trkpt lat="39.26688484890007" lon="9.081968004922368"><ele>32.0</ele><time>2026-04-04T08:18:34Z</time></trkpt><trkpt lat="39.267066212124575" lon="9.081876604092285"><ele>32.0</ele><time>2026-04-04T08:18:35Z</time></trkpt><trkpt lat="39.267247430211626" lon="9.08178251752203"><ele>32.0</ele><time>2026-04-04T08:18:36Z</time></trkpt><trkpt lat="39.267435568948756" lon="9.081685576901592"><ele>31.333333333333332</ele><time>2026-04-04T08:18:37Z</time></trkpt><trkpt lat="39.26762699862497" lon="9.081587026277496"><ele>30.666666666666664</ele><time>2026-04-04T08:18:38Z</time></trkpt><trkpt lat="39.267826703726584" lon="9.08148483478619"><ele>30.0</ele><time>2026-04-04T08:18:39Z</time></trkpt><trkpt lat="39.268029828655926" lon="9.081384108287299"><ele>29.666666666666664</ele><time>2026-04-04T08:18:40Z</time></trkpt><trkpt lat="39.26823745330686" lon="9.081280236201328"><ele>29.333333333333332</ele><time>2026-04-04T08:18:41Z</time></trkpt><trkpt lat="39.26844638166058" lon="9.081173924437067"><ele>29.0</ele><time>2026-04-04T08:18:42Z</time></trkpt><trkpt lat="39.26866081672965" lon="9.081063010339415"><ele>29.0</ele><time>2026-04-04T08:18:43Z</time></trkpt><trkpt lat="39.268876562633324" lon="9.08094853457082"><ele>29.0</ele><time>2026-04-04T08:18:44Z</time></trkpt><trkpt lat="39.269092590271164" lon="9.080830637962215"><ele>30.5</ele><time>2026-04-04T08:18:45Z</time></trkpt><trkpt lat="39.26930911289908" lon="9.080707530636076"><ele>32.0</ele><time>2026-04-04T08:18:46Z</time></trkpt><trkpt lat="39.26952429320846" lon="9.080576676412093"><ele>32.0</ele><time>2026-04-04T08:18:47Z</time></trkpt><trkpt lat="39.26973191651603" lon="9.08043966124476"><ele>32.0</ele><time>2026-04-04T08:18:48Z</time></trkpt><trkpt lat="39.269931442825296" lon="9.080299151335316"><ele>32.0</ele><time>2026-04-04T08:18:49Z</time></trkpt><trkpt lat="39.27012449808557" lon="9.080154842526351"><ele>32.0</ele><time>2026-04-04T08:18:50Z</time></trkpt><trkpt lat="39.270314934140984" lon="9.080003358786977"><ele>32.0</ele><time>2026-04-04T08:18:51Z</time></trkpt><trkpt lat="39.27050220926429" lon="9.079845524903593"><ele>31.666666666666664</ele><time>2026-04-04T08:18:52Z</time></trkpt><trkpt lat="39.270686134401316" lon="9.079682202570242"><ele>31.333333333333336</ele><time>2026-04-04T08:18:53Z</time></trkpt><trkpt lat="39.270867961814076" lon="9.079510403040846"><ele>31.0</ele><time>2026-04-04T08:18:54Z</time></trkpt><trkpt lat="39.27104565573084" lon="9.079333980929247"><ele>31.0</ele><time>2026-04-04T08:18:55Z</time></trkpt><trkpt lat="39.27122050252764" lon="9.079154598020278"><ele>31.0</ele><time>2026-04-04T08:18:56Z</time></trkpt><trkpt lat="39.27138953583701" lon="9.078975601684482"><ele>31.0</ele><time>2026-04-04T08:18:57Z</time></trkpt><trkpt lat="39.271553487044756" lon="9.078795834289325"><ele>32.0</ele><time>2026-04-04T08:18:58Z</time></trkpt><trkpt lat="39.27170634774863" lon="9.078616756256533"><ele>33.0</ele><time>2026-04-04T08:18:59Z</time></trkpt><trkpt lat="39.27185115166315" lon="9.078439042430473"><ele>34.0</ele><time>2026-04-04T08:19:00Z</time></trkpt><trkpt lat="39.27198352488783" lon="9.078269221474626"><ele>33.66666666666667</ele><time>2026-04-04T08:19:01Z</time></trkpt><trkpt lat="39.27210804681523" lon="9.078096284384799"><ele>33.333333333333336</ele><time>2026-04-04T08:19:02Z</time></trkpt><trkpt lat="39.27223302327292" lon="9.077921196040627"><ele>33.0</ele><time>2026-04-04T08:19:03Z</time></trkpt><trkpt lat="39.27235811090076" lon="9.077744429940283"><ele>33.666666666666664</ele><time>2026-04-04T08:19:04Z</time></trkpt><trkpt lat="39.27248036911107" lon="9.077566405247573"><ele>34.33333333333333</ele><time>2026-04-04T08:19:05Z</time></trkpt><trkpt lat="39.27260225119217" lon="9.077384978702446"><ele>35.0</ele><time>2026-04-04T08:19:06Z</time></trkpt><trkpt lat="39.27272405954362" lon="9.07719888039899"><ele>35.0</ele><time>2026-04-04T08:19:07Z</time></trkpt><trkpt lat="39.27285418557113" lon="9.077003743226951"><ele>35.0</ele><time>2026-04-04T08:19:08Z</time></trkpt><trkpt lat="39.27298963307365" lon="9.076801097196402"><ele>35.0</ele><time>2026-04-04T08:19:09Z</time></trkpt><trkpt lat="39.273129602989655" lon="9.076587266818743"><ele>35.0</ele><time>2026-04-04T08:19:10Z</time></trkpt><trkpt lat="39.27327612694525" lon="9.076353857729806"><ele>35.0</ele><time>2026-04-04T08:19:11Z</time></trkpt><trkpt lat="39.27343657912401" lon="9.076101293927072"><ele>35.0</ele><time>2026-04-04T08:19:12Z</time></trkpt><trkpt lat="39.273607117250464" lon="9.075841056308334"><ele>35.0</ele><time>2026-04-04T08:19:13Z</time></trkpt><trkpt lat="39.273801997412804" lon="9.075582973811485"><ele>34.5</ele><time>2026-04-04T08:19:14Z</time></trkpt><trkpt lat="39.27401467287673" lon="9.075325390731491"><ele>34.0</ele><time>2026-04-04T08:19:15Z</time></trkpt><trkpt lat="39.2742321505628" lon="9.075074513672071"><ele>34.5</ele><time>2026-04-04T08:19:16Z</time></trkpt><trkpt lat="39.27445836922182" lon="9.07483393600758"><ele>35.0</ele><time>2026-04-04T08:19:17Z</time></trkpt><trkpt lat="39.274685968233115" lon="9.074606547124647"><ele>31.0</ele><time>2026-04-04T08:19:18Z</time></trkpt><trkpt lat="39.27491641524463" lon="9.074395291436808"><ele>27.0</ele><time>2026-04-04T08:19:19Z</time></trkpt><trkpt lat="39.27514978618385" lon="9.074187554172324"><ele>27.0</ele><time>2026-04-04T08:19:20Z</time></trkpt><trkpt lat="39.275383401166444" lon="9.07399306633898"><ele>27.0</ele><time>2026-04-04T08:19:21Z</time></trkpt><trkpt lat="39.27561296018084" lon="9.073816727569305"><ele>25.5</ele><time>2026-04-04T08:19:22Z</time></trkpt><trkpt lat="39.275838649247156" lon="9.073661702776903"><ele>24.0</ele><time>2026-04-04T08:19:23Z</time></trkpt><trkpt lat="39.27605572078926" lon="9.073533065535347"><ele>24.0</ele><time>2026-04-04T08:19:24Z</time></trkpt><trkpt lat="39.27626587703873" lon="9.073417374399563"><ele>24.0</ele><time>2026-04-04T08:19:25Z</time></trkpt><trkpt lat="39.27647177105883" lon="9.073304519878686"><ele>22.5</ele><time>2026-04-04T08:19:26Z</time></trkpt><trkpt lat="39.276680040559214" lon="9.073187972893008"><ele>21.0</ele><time>2026-04-04T08:19:27Z</time></trkpt><trkpt lat="39.276893159412516" lon="9.0730713430172"><ele>21.0</ele><time>2026-04-04T08:19:28Z</time></trkpt><trkpt lat="39.277111784751774" lon="9.072955191663228"><ele>21.0</ele><time>2026-04-04T08:19:29Z</time></trkpt><trkpt lat="39.277332154285354" lon="9.072842845298482"><ele>21.0</ele><time>2026-04-04T08:19:30Z</time></trkpt><trkpt lat="39.27755666369911" lon="9.072731319846532"><ele>21.0</ele><time>2026-04-04T08:19:31Z</time></trkpt><trkpt lat="39.277783317007554" lon="9.072620808840488"><ele>21.0</ele><time>2026-04-04T08:19:32Z</time></trkpt><trkpt lat="39.278009307423645" lon="9.072513310052871"><ele>21.0</ele><time>2026-04-04T08:19:33Z</time></trkpt><trkpt lat="39.278237736872605" lon="9.072406386296356"><ele>20.5</ele><time>2026-04-04T08:19:34Z</time></trkpt><trkpt lat="39.27846922758805" lon="9.072294812685785"><ele>20.0</ele><time>2026-04-04T08:19:35Z</time></trkpt><trkpt lat="39.27870381545344" lon="9.072177041487382"><ele>20.0</ele><time>2026-04-04T08:19:36Z</time></trkpt><trkpt lat="39.278937869588844" lon="9.072060645475041"><ele>20.0</ele><time>2026-04-04T08:19:37Z</time></trkpt><trkpt lat="39.27917330533291" lon="9.071946028433937"><ele>20.0</ele><time>2026-04-04T08:19:38Z</time></trkpt><trkpt lat="39.2794117867786" lon="9.071830645664045"><ele>20.0</ele><time>2026-04-04T08:19:39Z</time></trkpt><trkpt lat="39.27965569838644" lon="9.071709960915191"><ele>20.5</ele><time>2026-04-04T08:19:40Z</time></trkpt><trkpt lat="39.279904300021535" lon="9.071583650502209"><ele>21.0</ele><time>2026-04-04T08:19:41Z</time></trkpt><trkpt lat="39.28016197629954" lon="9.071447199439898"><ele>21.0</ele><time>2026-04-04T08:19:42Z</time></trkpt><trkpt lat="39.28041804130047" lon="9.071317706642613"><ele>21.0</ele><time>2026-04-04T08:19:43Z</time></trkpt><trkpt lat="39.280672320149584" lon="9.071198337792111"><ele>22.5</ele><time>2026-04-04T08:19:44Z</time></trkpt><trkpt lat="39.28091933865396" lon="9.071088270610442"><ele>24.0</ele><time>2026-04-04T08:19:45Z</time></trkpt><trkpt lat="39.28116277344015" lon="9.070975388207506"><ele>24.0</ele><time>2026-04-04T08:19:46Z</time></trkpt><trkpt lat="39.28139548030879" lon="9.070866261597471"><ele>24.0</ele><time>2026-04-04T08:19:47Z</time></trkpt><trkpt lat="39.281623394255" lon="9.070759224177591"><ele>24.0</ele><time>2026-04-04T08:19:48Z</time></trkpt><trkpt lat="39.28184551284838" lon="9.070653128028827"><ele>24.0</ele><time>2026-04-04T08:19:49Z</time></trkpt><trkpt lat="39.28206323098281" lon="9.07054760762412"><ele>26.0</ele><time>2026-04-04T08:19:50Z</time></trkpt><trkpt lat="39.28227643885954" lon="9.070444715235684"><ele>28.0</ele><time>2026-04-04T08:19:51Z</time></trkpt><trkpt lat="39.2824852907503" lon="9.070342465929182"><ele>28.0</ele><time>2026-04-04T08:19:52Z</time></trkpt><trkpt lat="39.282690593095765" lon="9.07023815208687"><ele>28.0</ele><time>2026-04-04T08:19:53Z</time></trkpt><trkpt lat="39.28289625887578" lon="9.070126964215929"><ele>28.0</ele><time>2026-04-04T08:19:54Z</time></trkpt><trkpt lat="39.28309754332835" lon="9.070008737638885"><ele>28.0</ele><time>2026-04-04T08:19:55Z</time></trkpt><trkpt lat="39.2832908206638" lon="9.069885842168693"><ele>28.0</ele><time>2026-04-04T08:19:56Z</time></trkpt><trkpt lat="39.283486990631296" lon="9.06976127132381"><ele>28.0</ele><time>2026-04-04T08:19:57Z</time></trkpt><trkpt lat="39.28368627372803" lon="9.069635685658831"><ele>28.0</ele><time>2026-04-04T08:19:58Z</time></trkpt><trkpt lat="39.283881802761584" lon="9.069512866848278"><ele>28.0</ele><time>2026-04-04T08:19:59Z</time></trkpt><trkpt lat="39.28407369722702" lon="9.069378707434193"><ele>28.0</ele><time>2026-04-04T08:20:00Z</time></trkpt><trkpt lat="39.28425834982425" lon="9.069234439640159"><ele>29.0</ele><time>2026-04-04T08:20:01Z</time></trkpt><trkpt lat="39.284435578565684" lon="9.069078080922353"><ele>30.0</ele><time>2026-04-04T08:20:02Z</time></trkpt><trkpt lat="39.28460911766856" lon="9.0689146803911"><ele>31.0</ele><time>2026-04-04T08:20:03Z</time></trkpt><trkpt lat="39.284780424944195" lon="9.068740457499446"><ele>31.0</ele><time>2026-04-04T08:20:04Z</time></trkpt><trkpt lat="39.2849507950302" lon="9.068560013440644"><ele>31.0</ele><time>2026-04-04T08:20:05Z</time></trkpt><trkpt lat="39.285120388899564" lon="9.06837529833307"><ele>31.0</ele><time>2026-04-04T08:20:06Z</time></trkpt><trkpt lat="39.285292319449034" lon="9.068187780461038"><ele>32.0</ele><time>2026-04-04T08:20:07Z</time></trkpt><trkpt lat="39.28546447826691" lon="9.067998850895796"><ele>33.0</ele><time>2026-04-04T08:20:08Z</time></trkpt><trkpt lat="39.28563529224593" lon="9.067804263606675"><ele>33.0</ele><time>2026-04-04T08:20:09Z</time></trkpt><trkpt lat="39.28580346737765" lon="9.067604885983721"><ele>33.0</ele><time>2026-04-04T08:20:10Z</time></trkpt><trkpt lat="39.285972247796195" lon="9.067405660456243"><ele>33.0</ele><time>2026-04-04T08:20:11Z</time></trkpt><trkpt lat="39.28614377326608" lon="9.067209276394916"><ele>33.0</ele><time>2026-04-04T08:20:12Z</time></trkpt><trkpt lat="39.28631776561628" lon="9.067021203556621"><ele>33.5</ele><time>2026-04-04T08:20:13Z</time></trkpt><trkpt lat="39.28649394154522" lon="9.06683624417292"><ele>34.0</ele><time>2026-04-04T08:20:14Z</time></trkpt><trkpt lat="39.28667250785252" lon="9.066653259405522"><ele>33.5</ele><time>2026-04-04T08:20:15Z</time></trkpt><trkpt lat="39.2868531485473" lon="9.066474522000352"><ele>33.0</ele><time>2026-04-04T08:20:16Z</time></trkpt><trkpt lat="39.287038456286986" lon="9.06629979532849"><ele>33.0</ele><time>2026-04-04T08:20:17Z</time></trkpt><trkpt lat="39.28722662618893" lon="9.066130527340999"><ele>33.0</ele><time>2026-04-04T08:20:18Z</time></trkpt><trkpt lat="39.28741830400068" lon="9.065966183107761"><ele>33.0</ele><time>2026-04-04T08:20:19Z</time></trkpt><trkpt lat="39.287612060634984" lon="9.065809032983754"><ele>33.0</ele><time>2026-04-04T08:20:20Z</time></trkpt><trkpt lat="39.28781465468391" lon="9.065660810039509"><ele>33.5</ele><time>2026-04-04T08:20:21Z</time></trkpt><trkpt lat="39.28802073267047" lon="9.065518620429277"><ele>34.0</ele><time>2026-04-04T08:20:22Z</time></trkpt><trkpt lat="39.28823021555609" lon="9.065381329237189"><ele>35.0</ele><time>2026-04-04T08:20:23Z</time></trkpt><trkpt lat="39.28844404838043" lon="9.065251978500992"><ele>36.0</ele><time>2026-04-04T08:20:24Z</time></trkpt><trkpt lat="39.28866516519801" lon="9.065127552242128"><ele>36.0</ele><time>2026-04-04T08:20:25Z</time></trkpt><trkpt lat="39.28888998381765" lon="9.06501229657055"><ele>36.0</ele><time>2026-04-04T08:20:26Z</time></trkpt><trkpt lat="39.28912002443238" lon="9.064897853458215"><ele>36.5</ele><time>2026-04-04T08:20:27Z</time></trkpt><trkpt lat="39.28935305188165" lon="9.06479108838231"><ele>37.0</ele><time>2026-04-04T08:20:28Z</time></trkpt><trkpt lat="39.289590665662416" lon="9.06468769162825"><ele>39.0</ele><time>2026-04-04T08:20:29Z</time></trkpt><trkpt lat="39.289832413090714" lon="9.064588412886877"><ele>41.0</ele><time>2026-04-04T08:20:30Z</time></trkpt><trkpt lat="39.290080018474995" lon="9.064489252543945"><ele>41.0</ele><time>2026-04-04T08:20:31Z</time></trkpt><trkpt lat="39.29033410860163" lon="9.064387914614612"><ele>41.0</ele><time>2026-04-04T08:20:32Z</time></trkpt><trkpt lat="39.29059052430084" lon="9.064286613621963"><ele>40.0</ele><time>2026-04-04T08:20:33Z</time></trkpt><trkpt lat="39.29084627515605" lon="9.064199810168889"><ele>39.0</ele><time>2026-04-04T08:20:34Z</time></trkpt><trkpt lat="39.291100282196275" lon="9.064100291599635"><ele>38.5</ele><time>2026-04-04T08:20:35Z</time></trkpt><trkpt lat="39.2913590422706" lon="9.064000976563735"><ele>38.0</ele><time>2026-04-04T08:20:36Z</time></trkpt><trkpt lat="39.29161163759253" lon="9.06390304801613"><ele>36.5</ele><time>2026-04-04T08:20:37Z</time></trkpt><trkpt lat="39.29186041612728" lon="9.063808367062085"><ele>35.0</ele><time>2026-04-04T08:20:38Z</time></trkpt><trkpt lat="39.2921071496533" lon="9.063714670298316"><ele>36.0</ele><time>2026-04-04T08:20:39Z</time></trkpt><trkpt lat="39.292353780110545" lon="9.06362256155553"><ele>37.0</ele><time>2026-04-04T08:20:40Z</time></trkpt><trkpt lat="39.29259737295182" lon="9.063530451098071"><ele>37.0</ele><time>2026-04-04T08:20:41Z</time></trkpt><trkpt lat="39.29284371800345" lon="9.06343702789387"><ele>37.0</ele><time>2026-04-04T08:20:42Z</time></trkpt><trkpt lat="39.293092099938505" lon="9.063342201278825"><ele>37.5</ele><time>2026-04-04T08:20:43Z</time></trkpt><trkpt lat="39.29334075039325" lon="9.063246792218056"><ele>38.0</ele><time>2026-04-04T08:20:44Z</time></trkpt><trkpt lat="39.293589332630525" lon="9.063154122585653"><ele>38.0</ele><time>2026-04-04T08:20:45Z</time></trkpt><trkpt lat="39.293837185741765" lon="9.063061914451819"><ele>38.0</ele><time>2026-04-04T08:20:46Z</time></trkpt><trkpt lat="39.294085293976" lon="9.06297008616079"><ele>40.0</ele><time>2026-04-04T08:20:47Z</time></trkpt><trkpt lat="39.2943342468855" lon="9.062877370539208"><ele>42.0</ele><time>2026-04-04T08:20:48Z</time></trkpt><trkpt lat="39.29458179987262" lon="9.062786762147773"><ele>41.5</ele><time>2026-04-04T08:20:49Z</time></trkpt><trkpt lat="39.29483115799158" lon="9.062698951104165"><ele>41.0</ele><time>2026-04-04T08:20:50Z</time></trkpt><trkpt lat="39.29508495259602" lon="9.062614433170873"><ele>41.0</ele><time>2026-04-04T08:20:51Z</time></trkpt><trkpt lat="39.29533646046296" lon="9.062535621839425"><ele>41.0</ele><time>2026-04-04T08:20:52Z</time></trkpt><trkpt lat="39.295584256427865" lon="9.062460781131602"><ele>38.5</ele><time>2026-04-04T08:20:53Z</time></trkpt><trkpt lat="39.29583000692456" lon="9.062389644094157"><ele>36.0</ele><time>2026-04-04T08:20:54Z</time></trkpt><trkpt lat="39.296072447794614" lon="9.062321372399856"><ele>36.0</ele><time>2026-04-04T08:20:55Z</time></trkpt><trkpt lat="39.296317140484184" lon="9.06225659310724"><ele>36.0</ele><time>2026-04-04T08:20:56Z</time></trkpt><trkpt lat="39.29655413873342" lon="9.062197147080338"><ele>37.5</ele><time>2026-04-04T08:20:57Z</time></trkpt><trkpt lat="39.29678242323759" lon="9.062144901093161"><ele>39.0</ele><time>2026-04-04T08:20:58Z</time></trkpt><trkpt lat="39.29700047687725" lon="9.062097836886013"><ele>39.0</ele><time>2026-04-04T08:20:59Z</time></trkpt><trkpt lat="39.297211581627835" lon="9.06205472017886"><ele>39.0</ele><time>2026-04-04T08:21:00Z</time></trkpt><trkpt lat="39.29741075334198" lon="9.062015435331595"><ele>39.0</ele><time>2026-04-04T08:21:01Z</time></trkpt><trkpt lat="39.297600956188916" lon="9.061980741643584"><ele>39.666666666666664</ele><time>2026-04-04T08:21:02Z</time></trkpt><trkpt lat="39.297788658413566" lon="9.061947358424899"><ele>40.33333333333333</ele><time>2026-04-04T08:21:03Z</time></trkpt><trkpt lat="39.29797131511628" lon="9.061916602469676"><ele>41.0</ele><time>2026-04-04T08:21:04Z</time></trkpt><trkpt lat="39.29816288641063" lon="9.061892333416273"><ele>41.0</ele><time>2026-04-04T08:21:05Z</time></trkpt><trkpt lat="39.2983597841187" lon="9.061875199703742"><ele>41.0</ele><time>2026-04-04T08:21:06Z</time></trkpt><trkpt lat="39.29855743233566" lon="9.061869052508538"><ele>41.0</ele><time>2026-04-04T08:21:07Z</time></trkpt><trkpt lat="39.29875787040817" lon="9.06186983582232"><ele>42.0</ele><time>2026-04-04T08:21:08Z</time></trkpt><trkpt lat="39.29895261367734" lon="9.061851307444531"><ele>43.0</ele><time>2026-04-04T08:21:09Z</time></trkpt><trkpt lat="39.299137293802865" lon="9.06184727086861"><ele>44.0</ele><time>2026-04-04T08:21:10Z</time></trkpt><trkpt lat="39.2993111550622" lon="9.061850699765039"><ele>44.0</ele><time>2026-04-04T08:21:11Z</time></trkpt><trkpt lat="39.299476035057566" lon="9.061919661825934"><ele>44.0</ele><time>2026-04-04T08:21:12Z</time></trkpt><trkpt lat="39.29963169209831" lon="9.06195499231315"><ele>44.0</ele><time>2026-04-04T08:21:13Z</time></trkpt><trkpt lat="39.29978322128818" lon="9.062003780082796"><ele>44.33333333333333</ele><time>2026-04-04T08:21:14Z</time></trkpt><trkpt lat="39.2999278051813" lon="9.062069404365797"><ele>44.666666666666664</ele><time>2026-04-04T08:21:15Z</time></trkpt><trkpt lat="39.30008504661537" lon="9.061927763652914"><ele>45.0</ele><time>2026-04-04T08:21:16Z</time></trkpt><trkpt lat="39.30037088225654" lon="9.062870098798252"><ele>45.0</ele><time>2026-04-04T08:21:21Z</time></trkpt><trkpt lat="39.30035151792997" lon="9.0630339809222"><ele>45.0</ele><time>2026-04-04T08:21:22Z</time></trkpt><trkpt lat="39.30029889649056" lon="9.0631773993721"><ele>45.0</ele><time>2026-04-04T08:21:23Z</time></trkpt><trkpt lat="39.300225382217526" lon="9.063309278684443"><ele>45.0</ele><time>2026-04-04T08:21:24Z</time></trkpt><trkpt lat="39.3001215646867" lon="9.063427587642877"><ele>45.0</ele><time>2026-04-04T08:21:25Z</time></trkpt><trkpt lat="39.299999954451444" lon="9.063524539433487"><ele>45.0</ele><time>2026-04-04T08:21:26Z</time></trkpt><trkpt lat="39.29987583988686" lon="9.063592765811496"><ele>45.0</ele><time>2026-04-04T08:21:27Z</time></trkpt><trkpt lat="39.29974575930761" lon="9.063620232817335"><ele>45.0</ele><time>2026-04-04T08:21:28Z</time></trkpt><trkpt lat="39.29961821963647" lon="9.06362987915506"><ele>44.8</ele><time>2026-04-04T08:21:29Z</time></trkpt><trkpt lat="39.29949731681876" lon="9.063645735103739"><ele>44.6</ele><time>2026-04-04T08:21:30Z</time></trkpt><trkpt lat="39.2993868403497" lon="9.063642909043416"><ele>44.400000000000006</ele><time>2026-04-04T08:21:31Z</time></trkpt><trkpt lat="39.29928572184486" lon="9.063611042440327"><ele>44.2</ele><time>2026-04-04T08:21:32Z</time></trkpt><trkpt lat="39.29920363855726" lon="9.063543093504014"><ele>44.0</ele><time>2026-04-04T08:21:33Z</time></trkpt><trkpt lat="39.29914193240661" lon="9.063442780783404"><ele>44.0</ele><time>2026-04-04T08:21:34Z</time></trkpt><trkpt lat="39.299111517392696" lon="9.063300348391023"><ele>44.0</ele><time>2026-04-04T08:21:35Z</time></trkpt><trkpt lat="39.29907860909027" lon="9.063132610082743"><ele>44.0</ele><time>2026-04-04T08:21:36Z</time></trkpt><trkpt lat="39.29904527638773" lon="9.06295213014369"><ele>44.0</ele><time>2026-04-04T08:21:37Z</time></trkpt><trkpt lat="39.29901444416149" lon="9.062744473001354"><ele>44.33333333333333</ele><time>2026-04-04T08:21:38Z</time></trkpt><trkpt lat="39.29895796073829" lon="9.062524198405283"><ele>44.666666666666664</ele><time>2026-04-04T08:21:39Z</time></trkpt><trkpt lat="39.29889778041327" lon="9.062281455270004"><ele>45.0</ele><time>2026-04-04T08:21:40Z</time></trkpt><trkpt lat="39.29884490979204" lon="9.062039447260702"><ele>44.666666666666664</ele><time>2026-04-04T08:21:41Z</time></trkpt><trkpt lat="39.29879121341814" lon="9.061795310033906"><ele>44.33333333333333</ele><time>2026-04-04T08:21:42Z</time></trkpt><trkpt lat="39.29874000802269" lon="9.061546229928794"><ele>44.0</ele><time>2026-04-04T08:21:43Z</time></trkpt><trkpt lat="39.29869286410923" lon="9.06129305772696"><ele>44.0</ele><time>2026-04-04T08:21:44Z</time></trkpt><trkpt lat="39.29864577549302" lon="9.06103589178344"><ele>44.0</ele><time>2026-04-04T08:21:45Z</time></trkpt><trkpt lat="39.29859832286336" lon="9.060773534621896"><ele>44.0</ele><time>2026-04-04T08:21:46Z</time></trkpt><trkpt lat="39.298549897077436" lon="9.060516488158687"><ele>43.666666666666664</ele><time>2026-04-04T08:21:47Z</time></trkpt><trkpt lat="39.29849844945977" lon="9.060268739279252"><ele>43.333333333333336</ele><time>2026-04-04T08:21:48Z</time></trkpt><trkpt lat="39.29845024205009" lon="9.060018278783977"><ele>43.0</ele><time>2026-04-04T08:21:49Z</time></trkpt><trkpt lat="39.29840634423045" lon="9.059764089138657"><ele>43.0</ele><time>2026-04-04T08:21:50Z</time></trkpt><trkpt lat="39.29837664962667" lon="9.059505274882923"><ele>43.0</ele><time>2026-04-04T08:21:51Z</time></trkpt><trkpt lat="39.29836392320887" lon="9.059240341041122"><ele>43.0</ele><time>2026-04-04T08:21:52Z</time></trkpt><trkpt lat="39.2983613986805" lon="9.058971842460592"><ele>42.333333333333336</ele><time>2026-04-04T08:21:53Z</time></trkpt><trkpt lat="39.29835386502961" lon="9.058705060880571"><ele>41.666666666666664</ele><time>2026-04-04T08:21:54Z</time></trkpt><trkpt lat="39.29834084986822" lon="9.0584423441999"><ele>41.0</ele><time>2026-04-04T08:21:55Z</time></trkpt><trkpt lat="39.29832857084577" lon="9.058186995173356"><ele>40.33333333333333</ele><time>2026-04-04T08:21:56Z</time></trkpt><trkpt lat="39.29831831984135" lon="9.057932282964273"><ele>39.666666666666664</ele><time>2026-04-04T08:21:57Z</time></trkpt><trkpt lat="39.298305559563595" lon="9.057674423066679"><ele>39.0</ele><time>2026-04-04T08:21:58Z</time></trkpt><trkpt lat="39.298287106945814" lon="9.05742055030874"><ele>37.333333333333336</ele><time>2026-04-04T08:21:59Z</time></trkpt><trkpt lat="39.29826017655336" lon="9.057174032527158"><ele>35.66666666666667</ele><time>2026-04-04T08:22:00Z</time></trkpt><trkpt lat="39.29822763786165" lon="9.056929803836354"><ele>34.0</ele><time>2026-04-04T08:22:01Z</time></trkpt><trkpt lat="39.29818393344601" lon="9.056687144682101"><ele>33.66666666666667</ele><time>2026-04-04T08:22:02Z</time></trkpt><trkpt lat="39.29812189615338" lon="9.05644380416678"><ele>33.333333333333336</ele><time>2026-04-04T08:22:03Z</time></trkpt><trkpt lat="39.29805372472878" lon="9.056190061017208"><ele>33.0</ele><time>2026-04-04T08:22:04Z</time></trkpt><trkpt lat="39.29797923408863" lon="9.055935676444182"><ele>32.333333333333336</ele><time>2026-04-04T08:22:05Z</time></trkpt><trkpt lat="39.29789197590956" lon="9.055683246313535"><ele>31.666666666666668</ele><time>2026-04-04T08:22:06Z</time></trkpt><trkpt lat="39.297797421455726" lon="9.055430097986035"><ele>31.0</ele><time>2026-04-04T08:22:07Z</time></trkpt><trkpt lat="39.29770440826926" lon="9.055187029981463"><ele>30.0</ele><time>2026-04-04T08:22:08Z</time></trkpt><trkpt lat="39.29761073630534" lon="9.05494920740063"><ele>29.0</ele><time>2026-04-04T08:22:09Z</time></trkpt><trkpt lat="39.29751831259849" lon="9.054707958061877"><ele>28.0</ele><time>2026-04-04T08:22:10Z</time></trkpt><trkpt lat="39.29742716908765" lon="9.054462232615348"><ele>28.0</ele><time>2026-04-04T08:22:11Z</time></trkpt><trkpt lat="39.29733690761371" lon="9.054215084739585"><ele>28.0</ele><time>2026-04-04T08:22:12Z</time></trkpt><trkpt lat="39.29724896557436" lon="9.053971725480752"><ele>28.0</ele><time>2026-04-04T08:22:13Z</time></trkpt><trkpt lat="39.297162447587716" lon="9.05372998721109"><ele>28.0</ele><time>2026-04-04T08:22:14Z</time></trkpt><trkpt lat="39.29707493506392" lon="9.053487700557342"><ele>28.0</ele><time>2026-04-04T08:22:15Z</time></trkpt><trkpt lat="39.296986336595545" lon="9.053246620359754"><ele>28.0</ele><time>2026-04-04T08:22:16Z</time></trkpt><trkpt lat="39.29689700313711" lon="9.053007573290087"><ele>28.0</ele><time>2026-04-04T08:22:17Z</time></trkpt><trkpt lat="39.29680429533843" lon="9.052769310685354"><ele>28.0</ele><time>2026-04-04T08:22:18Z</time></trkpt><trkpt lat="39.29671098346923" lon="9.052529719319145"><ele>28.0</ele><time>2026-04-04T08:22:19Z</time></trkpt><trkpt lat="39.29661957528397" lon="9.052281082785944"><ele>27.666666666666668</ele><time>2026-04-04T08:22:20Z</time></trkpt><trkpt lat="39.29652037339124" lon="9.052033606095483"><ele>27.333333333333336</ele><time>2026-04-04T08:22:21Z</time></trkpt><trkpt lat="39.296414934626455" lon="9.051787939069484"><ele>27.0</ele><time>2026-04-04T08:22:22Z</time></trkpt><trkpt lat="39.29630827697222" lon="9.051546426715271"><ele>26.333333333333336</ele><time>2026-04-04T08:22:23Z</time></trkpt><trkpt lat="39.29620047804536" lon="9.05130865867568"><ele>25.666666666666668</ele><time>2026-04-04T08:22:24Z</time></trkpt><trkpt lat="39.296086599511106" lon="9.051047970909147"><ele>25.0</ele><time>2026-04-04T08:22:25Z</time></trkpt><trkpt lat="39.29598876410835" lon="9.050793452353789"><ele>24.666666666666668</ele><time>2026-04-04T08:22:26Z</time></trkpt><trkpt lat="39.29590567296984" lon="9.050532646896789"><ele>24.333333333333336</ele><time>2026-04-04T08:22:27Z</time></trkpt><trkpt lat="39.2958307328857" lon="9.050275098614533"><ele>24.0</ele><time>2026-04-04T08:22:28Z</time></trkpt><trkpt lat="39.29575959286404" lon="9.050025374302157"><ele>24.0</ele><time>2026-04-04T08:22:29Z</time></trkpt><trkpt lat="39.29568910760196" lon="9.04977896745736"><ele>24.0</ele><time>2026-04-04T08:22:30Z</time></trkpt><trkpt lat="39.29561787538315" lon="9.04953155167857"><ele>24.0</ele><time>2026-04-04T08:22:31Z</time></trkpt><trkpt lat="39.29554808393342" lon="9.049279498465923"><ele>24.0</ele><time>2026-04-04T08:22:32Z</time></trkpt><trkpt lat="39.29547653597336" lon="9.049025998778022"><ele>24.0</ele><time>2026-04-04T08:22:33Z</time></trkpt><trkpt lat="39.295403522337054" lon="9.048774790972134"><ele>24.0</ele><time>2026-04-04T08:22:34Z</time></trkpt><trkpt lat="39.29533144035949" lon="9.048520586015076"><ele>24.0</ele><time>2026-04-04T08:22:35Z</time></trkpt><trkpt lat="39.29525852040016" lon="9.048265736382886"><ele>24.0</ele><time>2026-04-04T08:22:36Z</time></trkpt><trkpt lat="39.295184114761625" lon="9.04801570615863"><ele>24.0</ele><time>2026-04-04T08:22:37Z</time></trkpt><trkpt lat="39.29511099010939" lon="9.04776711625717"><ele>24.0</ele><time>2026-04-04T08:22:38Z</time></trkpt><trkpt lat="39.295044667959544" lon="9.047521890057585"><ele>24.0</ele><time>2026-04-04T08:22:39Z</time></trkpt><trkpt lat="39.29497752982463" lon="9.047280726133128"><ele>24.0</ele><time>2026-04-04T08:22:40Z</time></trkpt><trkpt lat="39.29489505598407" lon="9.047055454607326"><ele>24.333333333333336</ele><time>2026-04-04T08:22:41Z</time></trkpt><trkpt lat="39.29481277602435" lon="9.046820493754637"><ele>24.666666666666668</ele><time>2026-04-04T08:22:42Z</time></trkpt><trkpt lat="39.29468731474288" lon="9.04661645447916"><ele>25.0</ele><time>2026-04-04T08:22:43Z</time></trkpt><trkpt lat="39.294557587678156" lon="9.04641629118991"><ele>24.333333333333336</ele><time>2026-04-04T08:22:44Z</time></trkpt><trkpt lat="39.294407677071376" lon="9.04622837917192"><ele>23.666666666666668</ele><time>2026-04-04T08:22:45Z</time></trkpt><trkpt lat="39.29425218361298" lon="9.046045317945515"><ele>23.0</ele><time>2026-04-04T08:22:46Z</time></trkpt><trkpt lat="39.29410018740598" lon="9.045863528038138"><ele>23.0</ele><time>2026-04-04T08:22:47Z</time></trkpt><trkpt lat="39.2939485181317" lon="9.0456804724875"><ele>23.0</ele><time>2026-04-04T08:22:48Z</time></trkpt><trkpt lat="39.29378804837691" lon="9.045487132928873"><ele>23.0</ele><time>2026-04-04T08:22:49Z</time></trkpt><trkpt lat="39.29362423064691" lon="9.045295325856666"><ele>23.0</ele><time>2026-04-04T08:22:50Z</time></trkpt><trkpt lat="39.29345532099829" lon="9.045097236360624"><ele>23.0</ele><time>2026-04-04T08:22:51Z</time></trkpt><trkpt lat="39.29328673916498" lon="9.04489692194226"><ele>22.666666666666668</ele><time>2026-04-04T08:22:52Z</time></trkpt><trkpt lat="39.29311376761879" lon="9.044693105662319"><ele>22.333333333333332</ele><time>2026-04-04T08:22:53Z</time></trkpt><trkpt lat="39.292967827585414" lon="9.044522520316587"><ele>22.0</ele><time>2026-04-04T08:22:54Z</time></trkpt><trkpt lat="39.29284070103315" lon="9.044358092544885"><ele>22.0</ele><time>2026-04-04T08:22:55Z</time></trkpt><trkpt lat="39.29268007818665" lon="9.044168090583288"><ele>22.0</ele><time>2026-04-04T08:22:56Z</time></trkpt><trkpt lat="39.2925170168033" lon="9.04398116494731"><ele>22.0</ele><time>2026-04-04T08:22:57Z</time></trkpt><trkpt lat="39.29240118995372" lon="9.043828935897114"><ele>22.0</ele><time>2026-04-04T08:22:58Z</time></trkpt><trkpt lat="39.292262085690474" lon="9.043662546934277"><ele>22.0</ele><time>2026-04-04T08:22:59Z</time></trkpt><trkpt lat="39.29213098007893" lon="9.043504039288933"><ele>22.0</ele><time>2026-04-04T08:23:00Z</time></trkpt><trkpt lat="39.292006860791005" lon="9.043357685905207"><ele>21.333333333333332</ele><time>2026-04-04T08:23:01Z</time></trkpt><trkpt lat="39.29188890866113" lon="9.04321483223109"><ele>20.666666666666668</ele><time>2026-04-04T08:23:02Z</time></trkpt><trkpt lat="39.291795296230816" lon="9.043052495743286"><ele>20.0</ele><time>2026-04-04T08:23:03Z</time></trkpt><trkpt lat="39.29170546451424" lon="9.042875556360551"><ele>20.0</ele><time>2026-04-04T08:23:04Z</time></trkpt><trkpt lat="39.29163204325652" lon="9.042675793572924"><ele>20.0</ele><time>2026-04-04T08:23:05Z</time></trkpt><trkpt lat="39.291584553061035" lon="9.042458133614291"><ele>20.0</ele><time>2026-04-04T08:23:06Z</time></trkpt><trkpt lat="39.29155847327482" lon="9.042225682799888"><ele>19.666666666666668</ele><time>2026-04-04T08:23:07Z</time></trkpt><trkpt lat="39.291535922898305" lon="9.041985333727931"><ele>19.333333333333332</ele><time>2026-04-04T08:23:08Z</time></trkpt><trkpt lat="39.29151406385464" lon="9.041738686159542"><ele>19.0</ele><time>2026-04-04T08:23:09Z</time></trkpt><trkpt lat="39.29147838402845" lon="9.041491167874756"><ele>18.666666666666664</ele><time>2026-04-04T08:23:10Z</time></trkpt><trkpt lat="39.291458267833846" lon="9.0412382625082"><ele>18.333333333333332</ele><time>2026-04-04T08:23:11Z</time></trkpt><trkpt lat="39.29143656359782" lon="9.040982495207276"><ele>18.0</ele><time>2026-04-04T08:23:12Z</time></trkpt><trkpt lat="39.29141417735011" lon="9.040725940703192"><ele>17.333333333333332</ele><time>2026-04-04T08:23:13Z</time></trkpt><trkpt lat="39.2913934145155" lon="9.040469531786236"><ele>16.666666666666664</ele><time>2026-04-04T08:23:14Z</time></trkpt><trkpt lat="39.29137315932036" lon="9.040217322411667"><ele>16.0</ele><time>2026-04-04T08:23:15Z</time></trkpt><trkpt lat="39.2913476457056" lon="9.039970420178198"><ele>15.333333333333332</ele><time>2026-04-04T08:23:16Z</time></trkpt><trkpt lat="39.291296447012996" lon="9.039728440661525"><ele>14.666666666666668</ele><time>2026-04-04T08:23:17Z</time></trkpt><trkpt lat="39.291221103827" lon="9.039489196857618"><ele>14.0</ele><time>2026-04-04T08:23:18Z</time></trkpt><trkpt lat="39.29112433252992" lon="9.039261625338385"><ele>14.0</ele><time>2026-04-04T08:23:19Z</time></trkpt><trkpt lat="39.29099289585592" lon="9.03903976539637"><ele>14.0</ele><time>2026-04-04T08:23:20Z</time></trkpt><trkpt lat="39.290867364766584" lon="9.038814438296821"><ele>14.0</ele><time>2026-04-04T08:23:21Z</time></trkpt><trkpt lat="39.29074097144259" lon="9.038585755465789"><ele>14.0</ele><time>2026-04-04T08:23:22Z</time></trkpt><trkpt lat="39.29061871368076" lon="9.038357299835814"><ele>14.0</ele><time>2026-04-04T08:23:23Z</time></trkpt><trkpt lat="39.29049818581868" lon="9.038132857053144"><ele>14.0</ele><time>2026-04-04T08:23:24Z</time></trkpt><trkpt lat="39.290380562049286" lon="9.0379172469095"><ele>13.333333333333334</ele><time>2026-04-04T08:23:25Z</time></trkpt><trkpt lat="39.2902654452043" lon="9.037710487867086"><ele>12.666666666666668</ele><time>2026-04-04T08:23:26Z</time></trkpt><trkpt lat="39.290168935493035" lon="9.037496443119533"><ele>12.0</ele><time>2026-04-04T08:23:27Z</time></trkpt><trkpt lat="39.29004914576167" lon="9.037300566829094"><ele>12.0</ele><time>2026-04-04T08:23:28Z</time></trkpt><trkpt lat="39.289948346273505" lon="9.037083379396705"><ele>12.0</ele><time>2026-04-04T08:23:29Z</time></trkpt><trkpt lat="39.289857048583784" lon="9.036861193446917"><ele>12.0</ele><time>2026-04-04T08:23:30Z</time></trkpt><trkpt lat="39.28977686993051" lon="9.036628621532174"><ele>10.333333333333334</ele><time>2026-04-04T08:23:31Z</time></trkpt><trkpt lat="39.28970584156169" lon="9.036389824657435"><ele>8.666666666666668</ele><time>2026-04-04T08:23:32Z</time></trkpt><trkpt lat="39.289646206777924" lon="9.036146763839227"><ele>7.0</ele><time>2026-04-04T08:23:33Z</time></trkpt><trkpt lat="39.28959534005433" lon="9.035905186003097"><ele>7.333333333333334</ele><time>2026-04-04T08:23:34Z</time></trkpt><trkpt lat="39.28955757236654" lon="9.035661589692479"><ele>7.666666666666666</ele><time>2026-04-04T08:23:35Z</time></trkpt><trkpt lat="39.28953351541861" lon="9.035412490075704"><ele>8.0</ele><time>2026-04-04T08:23:36Z</time></trkpt><trkpt lat="39.28952024016799" lon="9.03515883939154"><ele>7.666666666666666</ele><time>2026-04-04T08:23:37Z</time></trkpt><trkpt lat="39.28951354008401" lon="9.034897179257563"><ele>7.333333333333334</ele><time>2026-04-04T08:23:38Z</time></trkpt><trkpt lat="39.28950430139668" lon="9.034643115719401"><ele>7.0</ele><time>2026-04-04T08:23:39Z</time></trkpt><trkpt lat="39.289494460667825" lon="9.034398640319852"><ele>7.0</ele><time>2026-04-04T08:23:40Z</time></trkpt><trkpt lat="39.28948467073956" lon="9.0341597430746"><ele>7.0</ele><time>2026-04-04T08:23:41Z</time></trkpt><trkpt lat="39.28948068517361" lon="9.033924630880877"><ele>7.0</ele><time>2026-04-04T08:23:42Z</time></trkpt><trkpt lat="39.289485577450016" lon="9.033696045829494"><ele>7.333333333333334</ele><time>2026-04-04T08:23:43Z</time></trkpt><trkpt lat="39.28951131758414" lon="9.033473113041202"><ele>7.666666666666666</ele><time>2026-04-04T08:23:44Z</time></trkpt><trkpt lat="39.28955171211586" lon="9.033252161367662"><ele>8.0</ele><time>2026-04-04T08:23:45Z</time></trkpt><trkpt lat="39.28960207741581" lon="9.033031276498203"><ele>8.0</ele><time>2026-04-04T08:23:46Z</time></trkpt><trkpt lat="39.28966675477695" lon="9.032806312609262"><ele>8.0</ele><time>2026-04-04T08:23:47Z</time></trkpt><trkpt lat="39.289725432868536" lon="9.032571231354984"><ele>8.0</ele><time>2026-04-04T08:23:48Z</time></trkpt><trkpt lat="39.28978145728572" lon="9.03234141603395"><ele>9.333333333333332</ele><time>2026-04-04T08:23:49Z</time></trkpt><trkpt lat="39.28984023228023" lon="9.03210218531915"><ele>10.666666666666666</ele><time>2026-04-04T08:23:50Z</time></trkpt><trkpt lat="39.289897163396816" lon="9.031868315421356"><ele>12.0</ele><time>2026-04-04T08:23:51Z</time></trkpt><trkpt lat="39.289946313977595" lon="9.031640583083302"><ele>11.333333333333334</ele><time>2026-04-04T08:23:52Z</time></trkpt><trkpt lat="39.28998493159873" lon="9.031415075135062"><ele>10.666666666666668</ele><time>2026-04-04T08:23:53Z</time></trkpt><trkpt lat="39.2900098858589" lon="9.031197919708283"><ele>10.0</ele><time>2026-04-04T08:23:54Z</time></trkpt><trkpt lat="39.29000763031441" lon="9.030974440837332"><ele>10.0</ele><time>2026-04-04T08:23:55Z</time></trkpt><trkpt lat="39.28998330620067" lon="9.03073015411757"><ele>10.0</ele><time>2026-04-04T08:23:56Z</time></trkpt><trkpt lat="39.28996079292245" lon="9.03047429315603"><ele>10.0</ele><time>2026-04-04T08:23:57Z</time></trkpt><trkpt lat="39.2899408458796" lon="9.030209511578839"><ele>10.666666666666668</ele><time>2026-04-04T08:23:58Z</time></trkpt><trkpt lat="39.289920285915116" lon="9.029943602180552"><ele>11.333333333333334</ele><time>2026-04-04T08:23:59Z</time></trkpt><trkpt lat="39.28989817506675" lon="9.029682198127833"><ele>12.0</ele><time>2026-04-04T08:24:00Z</time></trkpt><trkpt lat="39.28988004684447" lon="9.029440555443587"><ele>12.0</ele><time>2026-04-04T08:24:01Z</time></trkpt><trkpt lat="39.28986103107548" lon="9.029212297968654"><ele>12.0</ele><time>2026-04-04T08:24:02Z</time></trkpt><trkpt lat="39.289829363429796" lon="9.029000444629332"><ele>12.0</ele><time>2026-04-04T08:24:03Z</time></trkpt><trkpt lat="39.289784585781376" lon="9.028785624656894"><ele>11.333333333333334</ele><time>2026-04-04T08:24:04Z</time></trkpt><trkpt lat="39.2897303428638" lon="9.02856342726495"><ele>10.666666666666668</ele><time>2026-04-04T08:24:05Z</time></trkpt><trkpt lat="39.289666848438706" lon="9.028340827764989"><ele>10.0</ele><time>2026-04-04T08:24:06Z</time></trkpt><trkpt lat="39.28960176792707" lon="9.028120046118786"><ele>10.0</ele><time>2026-04-04T08:24:07Z</time></trkpt><trkpt lat="39.28953766618585" lon="9.027898587787375"><ele>10.0</ele><time>2026-04-04T08:24:08Z</time></trkpt><trkpt lat="39.28947621628697" lon="9.027670968895718"><ele>10.0</ele><time>2026-04-04T08:24:09Z</time></trkpt><trkpt lat="39.28941434281388" lon="9.027442890209585"><ele>9.666666666666668</ele><time>2026-04-04T08:24:10Z</time></trkpt><trkpt lat="39.289350647465994" lon="9.027216794529972"><ele>9.333333333333334</ele><time>2026-04-04T08:24:11Z</time></trkpt><trkpt lat="39.289285111683014" lon="9.02699260618276"><ele>9.0</ele><time>2026-04-04T08:24:12Z</time></trkpt><trkpt lat="39.289222055730384" lon="9.026768791467719"><ele>9.333333333333334</ele><time>2026-04-04T08:24:13Z</time></trkpt><trkpt lat="39.28916040416813" lon="9.026541129646581"><ele>9.666666666666668</ele><time>2026-04-04T08:24:14Z</time></trkpt><trkpt lat="39.28910000043001" lon="9.026310681110091"><ele>10.0</ele><time>2026-04-04T08:24:15Z</time></trkpt><trkpt lat="39.28904531000497" lon="9.026073801196475"><ele>10.0</ele><time>2026-04-04T08:24:16Z</time></trkpt><trkpt lat="39.289002123477125" lon="9.02582777252955"><ele>10.0</ele><time>2026-04-04T08:24:17Z</time></trkpt><trkpt lat="39.28897536864976" lon="9.025578250589529"><ele>10.0</ele><time>2026-04-04T08:24:18Z</time></trkpt><trkpt lat="39.28897508807606" lon="9.025320074176609"><ele>9.666666666666668</ele><time>2026-04-04T08:24:19Z</time></trkpt><trkpt lat="39.2889871634614" lon="9.025064604362843"><ele>9.333333333333334</ele><time>2026-04-04T08:24:20Z</time></trkpt><trkpt lat="39.289017173244126" lon="9.024821019936587"><ele>9.0</ele><time>2026-04-04T08:24:21Z</time></trkpt><trkpt lat="39.289063954959104" lon="9.024591789671684"><ele>9.0</ele><time>2026-04-04T08:24:22Z</time></trkpt><trkpt lat="39.28912705455991" lon="9.024375976561902"><ele>9.0</ele><time>2026-04-04T08:24:23Z</time></trkpt><trkpt lat="39.28919754263344" lon="9.024159953897277"><ele>9.0</ele><time>2026-04-04T08:24:24Z</time></trkpt><trkpt lat="39.28926648886957" lon="9.023937046606216"><ele>9.333333333333334</ele><time>2026-04-04T08:24:25Z</time></trkpt><trkpt lat="39.2893330103949" lon="9.023715237337841"><ele>9.666666666666668</ele><time>2026-04-04T08:24:26Z</time></trkpt><trkpt lat="39.28939873834206" lon="9.023481426721451"><ele>10.0</ele><time>2026-04-04T08:24:27Z</time></trkpt><trkpt lat="39.289463196155886" lon="9.023248376827764"><ele>10.0</ele><time>2026-04-04T08:24:28Z</time></trkpt><trkpt lat="39.289528330639435" lon="9.023014579980027"><ele>10.0</ele><time>2026-04-04T08:24:29Z</time></trkpt><trkpt lat="39.2895936265984" lon="9.022772166270347"><ele>10.0</ele><time>2026-04-04T08:24:30Z</time></trkpt><trkpt lat="39.289656739044624" lon="9.02252062019086"><ele>9.666666666666668</ele><time>2026-04-04T08:24:31Z</time></trkpt><trkpt lat="39.28972032868426" lon="9.022261932718598"><ele>9.333333333333334</ele><time>2026-04-04T08:24:32Z</time></trkpt><trkpt lat="39.28978167029326" lon="9.02200859212212"><ele>9.0</ele><time>2026-04-04T08:24:33Z</time></trkpt><trkpt lat="39.28983922950484" lon="9.021771920159217"><ele>9.333333333333334</ele><time>2026-04-04T08:24:34Z</time></trkpt><trkpt lat="39.2898941135711" lon="9.021552044551587"><ele>9.666666666666668</ele><time>2026-04-04T08:24:35Z</time></trkpt><trkpt lat="39.28994923136828" lon="9.021337701952067"><ele>10.0</ele><time>2026-04-04T08:24:36Z</time></trkpt><trkpt lat="39.290003224338115" lon="9.021124846294368"><ele>10.0</ele><time>2026-04-04T08:24:37Z</time></trkpt><trkpt lat="39.29005689798354" lon="9.020906818100395"><ele>10.0</ele><time>2026-04-04T08:24:38Z</time></trkpt><trkpt lat="39.29011302017536" lon="9.020682066987668"><ele>10.0</ele><time>2026-04-04T08:24:39Z</time></trkpt><trkpt lat="39.29016793337162" lon="9.020461179964776"><ele>9.666666666666668</ele><time>2026-04-04T08:24:40Z</time></trkpt><trkpt lat="39.29022087411102" lon="9.020237034214011"><ele>9.333333333333334</ele><time>2026-04-04T08:24:41Z</time></trkpt><trkpt lat="39.29027412683784" lon="9.02001454991395"><ele>9.0</ele><time>2026-04-04T08:24:42Z</time></trkpt><trkpt lat="39.29032958910967" lon="9.01979558595141"><ele>9.666666666666666</ele><time>2026-04-04T08:24:43Z</time></trkpt><trkpt lat="39.2903862472584" lon="9.019580931681995"><ele>10.333333333333332</ele><time>2026-04-04T08:24:44Z</time></trkpt><trkpt lat="39.2904383501264" lon="9.019371955580626"><ele>11.0</ele><time>2026-04-04T08:24:45Z</time></trkpt><trkpt lat="39.2904849730398" lon="9.019174305019769"><ele>11.0</ele><time>2026-04-04T08:24:46Z</time></trkpt><trkpt lat="39.29052981327672" lon="9.018985464094142"><ele>11.0</ele><time>2026-04-04T08:24:47Z</time></trkpt><trkpt lat="39.29057345187586" lon="9.018809393462458"><ele>11.0</ele><time>2026-04-04T08:24:48Z</time></trkpt><trkpt lat="39.290615768862295" lon="9.01864141320697"><ele>11.0</ele><time>2026-04-04T08:24:49Z</time></trkpt><trkpt lat="39.2906569753111" lon="9.018478016377347"><ele>10.75</ele><time>2026-04-04T08:24:50Z</time></trkpt><trkpt lat="39.290698746785445" lon="9.018309348460843"><ele>10.5</ele><time>2026-04-04T08:24:51Z</time></trkpt><trkpt lat="39.290743222654484" lon="9.018137800040785"><ele>10.25</ele><time>2026-04-04T08:24:52Z</time></trkpt><trkpt lat="39.29079571235593" lon="9.017958668003919"><ele>10.0</ele><time>2026-04-04T08:24:53Z</time></trkpt><trkpt lat="39.290851205982946" lon="9.01777381495578"><ele>10.0</ele><time>2026-04-04T08:24:54Z</time></trkpt><trkpt lat="39.2909120444336" lon="9.017588058763472"><ele>10.0</ele><time>2026-04-04T08:24:55Z</time></trkpt><trkpt lat="39.29097712963103" lon="9.017404256340377"><ele>10.0</ele><time>2026-04-04T08:24:56Z</time></trkpt><trkpt lat="39.29104465681362" lon="9.017223723837352"><ele>10.666666666666668</ele><time>2026-04-04T08:24:57Z</time></trkpt><trkpt lat="39.29110998513512" lon="9.017048288607374"><ele>11.333333333333334</ele><time>2026-04-04T08:24:58Z</time></trkpt><trkpt lat="39.29117471968188" lon="9.01687325686152"><ele>12.0</ele><time>2026-04-04T08:24:59Z</time></trkpt><trkpt lat="39.29124131606844" lon="9.016699969895503"><ele>11.666666666666666</ele><time>2026-04-04T08:25:00Z</time></trkpt><trkpt lat="39.29131148149672" lon="9.016520429212926"><ele>11.333333333333332</ele><time>2026-04-04T08:25:01Z</time></trkpt><trkpt lat="39.291380704168816" lon="9.016334094494365"><ele>11.0</ele><time>2026-04-04T08:25:02Z</time></trkpt><trkpt lat="39.29145157346959" lon="9.016146453885773"><ele>11.0</ele><time>2026-04-04T08:25:03Z</time></trkpt><trkpt lat="39.29152095598769" lon="9.01597113982761"><ele>11.0</ele><time>2026-04-04T08:25:04Z</time></trkpt><trkpt lat="39.29158137990889" lon="9.01580130624425"><ele>11.0</ele><time>2026-04-04T08:25:05Z</time></trkpt><trkpt lat="39.29162923083859" lon="9.015647033890142"><ele>11.0</ele><time>2026-04-04T08:25:06Z</time></trkpt><trkpt lat="39.29165865044654" lon="9.015515468446951"><ele>11.0</ele><time>2026-04-04T08:25:07Z</time></trkpt><trkpt lat="39.2916714054296" lon="9.01540147984681"><ele>11.0</ele><time>2026-04-04T08:25:08Z</time></trkpt><trkpt lat="39.291676045997065" lon="9.015312267310598"><ele>11.0</ele><time>2026-04-04T08:25:09Z</time></trkpt><trkpt lat="39.29168050422126" lon="9.015212496772731"><ele>11.0</ele><time>2026-04-04T08:25:11Z</time></trkpt><trkpt lat="39.29166124480269" lon="9.015113809513615"><ele>11.0</ele><time>2026-04-04T08:25:14Z</time></trkpt><trkpt lat="39.291632817310784" lon="9.015033448775577"><ele>11.0</ele><time>2026-04-04T08:25:16Z</time></trkpt><trkpt lat="39.291662560754375" lon="9.01495337495719"><ele>11.0</ele><time>2026-04-04T08:25:17Z</time></trkpt><trkpt lat="39.291647851960185" lon="9.014807523036607"><ele>11.0</ele><time>2026-04-04T08:25:19Z</time></trkpt><trkpt lat="39.291639967955135" lon="9.014653110622971"><ele>11.0</ele><time>2026-04-04T08:25:21Z</time></trkpt><trkpt lat="39.29164839942675" lon="9.014567603779252"><ele>11.0</ele><time>2026-04-04T08:25:22Z</time></trkpt><trkpt lat="39.291685281303145" lon="9.014414679038333"><ele>11.0</ele><time>2026-04-04T08:25:24Z</time></trkpt><trkpt lat="39.29171900649462" lon="9.014315690804928"><ele>11.0</ele><time>2026-04-04T08:25:25Z</time></trkpt><trkpt lat="39.291771561864515" lon="9.014205974076415"><ele>11.0</ele><time>2026-04-04T08:25:26Z</time></trkpt><trkpt lat="39.29183533457292" lon="9.014079830825734"><ele>11.0</ele><time>2026-04-04T08:25:27Z</time></trkpt><trkpt lat="39.29190867302011" lon="9.013924721227008"><ele>11.0</ele><time>2026-04-04T08:25:28Z</time></trkpt><trkpt lat="39.29198000036419" lon="9.01376037897386"><ele>10.666666666666666</ele><time>2026-04-04T08:25:29Z</time></trkpt><trkpt lat="39.29206290741631" lon="9.013576808455143"><ele>10.333333333333334</ele><time>2026-04-04T08:25:30Z</time></trkpt><trkpt lat="39.292152983244144" lon="9.01339946638151"><ele>10.0</ele><time>2026-04-04T08:25:31Z</time></trkpt><trkpt lat="39.292248835421084" lon="9.013216445760463"><ele>9.333333333333334</ele><time>2026-04-04T08:25:32Z</time></trkpt><trkpt lat="39.292346024468635" lon="9.013025686664978"><ele>8.666666666666666</ele><time>2026-04-04T08:25:33Z</time></trkpt><trkpt lat="39.29244620703966" lon="9.0128259685913"><ele>8.0</ele><time>2026-04-04T08:25:34Z</time></trkpt><trkpt lat="39.29254698668878" lon="9.012621607224041"><ele>8.0</ele><time>2026-04-04T08:25:35Z</time></trkpt><trkpt lat="39.292647952842984" lon="9.012423262546381"><ele>8.0</ele><time>2026-04-04T08:25:36Z</time></trkpt><trkpt lat="39.29274725641272" lon="9.012224460269476"><ele>8.0</ele><time>2026-04-04T08:25:37Z</time></trkpt><trkpt lat="39.29284937274689" lon="9.012021352964693"><ele>8.0</ele><time>2026-04-04T08:25:38Z</time></trkpt><trkpt lat="39.292953690082655" lon="9.011818718433203"><ele>8.0</ele><time>2026-04-04T08:25:39Z</time></trkpt><trkpt lat="39.29305930568782" lon="9.011616785456452"><ele>8.0</ele><time>2026-04-04T08:25:40Z</time></trkpt><trkpt lat="39.29316898553166" lon="9.011407497052934"><ele>8.0</ele><time>2026-04-04T08:25:41Z</time></trkpt><trkpt lat="39.29327944253286" lon="9.011196000538906"><ele>8.0</ele><time>2026-04-04T08:25:42Z</time></trkpt><trkpt lat="39.29339214652589" lon="9.01098095961426"><ele>8.0</ele><time>2026-04-04T08:25:43Z</time></trkpt><trkpt lat="39.29350451328258" lon="9.01076558271047"><ele>8.0</ele><time>2026-04-04T08:25:44Z</time></trkpt><trkpt lat="39.29361780627286" lon="9.010547287994862"><ele>8.0</ele><time>2026-04-04T08:25:45Z</time></trkpt><trkpt lat="39.293731534713395" lon="9.010328704652212"><ele>8.0</ele><time>2026-04-04T08:25:46Z</time></trkpt><trkpt lat="39.29384590081752" lon="9.010110899735778"><ele>8.333333333333332</ele><time>2026-04-04T08:25:47Z</time></trkpt><trkpt lat="39.293958753212955" lon="9.009895051254874"><ele>8.666666666666666</ele><time>2026-04-04T08:25:48Z</time></trkpt><trkpt lat="39.29406880678202" lon="9.009683966235173"><ele>9.0</ele><time>2026-04-04T08:25:49Z</time></trkpt><trkpt lat="39.29417560002097" lon="9.009475484641763"><ele>9.0</ele><time>2026-04-04T08:25:50Z</time></trkpt><trkpt lat="39.294281489453056" lon="9.00927267808285"><ele>9.0</ele><time>2026-04-04T08:25:51Z</time></trkpt><trkpt lat="39.294390786119706" lon="9.009066155588702"><ele>9.0</ele><time>2026-04-04T08:25:52Z</time></trkpt><trkpt lat="39.29450066454736" lon="9.008856889571527"><ele>9.0</ele><time>2026-04-04T08:25:53Z</time></trkpt><trkpt lat="39.29461150039682" lon="9.008647071185296"><ele>9.0</ele><time>2026-04-04T08:25:54Z</time></trkpt><trkpt lat="39.29472441289953" lon="9.008433438701461"><ele>9.0</ele><time>2026-04-04T08:25:55Z</time></trkpt><trkpt lat="39.29483624253387" lon="9.008220727686464"><ele>9.333333333333334</ele><time>2026-04-04T08:25:56Z</time></trkpt><trkpt lat="39.29494829040307" lon="9.008004535468775"><ele>9.666666666666668</ele><time>2026-04-04T08:25:57Z</time></trkpt><trkpt lat="39.295058951835436" lon="9.00779145555169"><ele>10.0</ele><time>2026-04-04T08:25:58Z</time></trkpt><trkpt lat="39.29517026653365" lon="9.007579414711898"><ele>10.666666666666668</ele><time>2026-04-04T08:25:59Z</time></trkpt><trkpt lat="39.29528188383482" lon="9.007369554330408"><ele>11.333333333333334</ele><time>2026-04-04T08:26:00Z</time></trkpt><trkpt lat="39.295394544626" lon="9.007159022037388"><ele>12.0</ele><time>2026-04-04T08:26:01Z</time></trkpt><trkpt lat="39.295506328885374" lon="9.006948406021372"><ele>11.333333333333334</ele><time>2026-04-04T08:26:02Z</time></trkpt><trkpt lat="39.295617211363954" lon="9.006739165039829"><ele>10.666666666666668</ele><time>2026-04-04T08:26:03Z</time></trkpt><trkpt lat="39.29572660117454" lon="9.0065320706039"><ele>10.0</ele><time>2026-04-04T08:26:04Z</time></trkpt><trkpt lat="39.29583858005926" lon="9.006317188451112"><ele>10.0</ele><time>2026-04-04T08:26:05Z</time></trkpt><trkpt lat="39.29594745908668" lon="9.006105174720556"><ele>10.0</ele><time>2026-04-04T08:26:06Z</time></trkpt><trkpt lat="39.29605742056851" lon="9.005890346593992"><ele>10.0</ele><time>2026-04-04T08:26:07Z</time></trkpt><trkpt lat="39.29616769878382" lon="9.005675849438704"><ele>10.666666666666668</ele><time>2026-04-04T08:26:08Z</time></trkpt><trkpt lat="39.296281435715905" lon="9.005462619365574"><ele>11.333333333333334</ele><time>2026-04-04T08:26:09Z</time></trkpt><trkpt lat="39.29639527426306" lon="9.005248278916868"><ele>12.0</ele><time>2026-04-04T08:26:10Z</time></trkpt><trkpt lat="39.296508442489554" lon="9.005032800088975"><ele>12.0</ele><time>2026-04-04T08:26:11Z</time></trkpt><trkpt lat="39.29662009071141" lon="9.00481546883345"><ele>12.0</ele><time>2026-04-04T08:26:12Z</time></trkpt><trkpt lat="39.29673287811374" lon="9.004597658451972"><ele>12.0</ele><time>2026-04-04T08:26:13Z</time></trkpt><trkpt lat="39.29684620500065" lon="9.004379122480605"><ele>12.333333333333332</ele><time>2026-04-04T08:26:14Z</time></trkpt><trkpt lat="39.29695825271459" lon="9.004157417302439"><ele>12.666666666666666</ele><time>2026-04-04T08:26:15Z</time></trkpt><trkpt lat="39.297070080659935" lon="9.003935333640287"><ele>13.0</ele><time>2026-04-04T08:26:16Z</time></trkpt><trkpt lat="39.29718202631137" lon="9.003714198284245"><ele>12.666666666666666</ele><time>2026-04-04T08:26:17Z</time></trkpt><trkpt lat="39.29728896695673" lon="9.00350091639053"><ele>12.333333333333332</ele><time>2026-04-04T08:26:18Z</time></trkpt><trkpt lat="39.297389477902534" lon="9.003301093352961"><ele>12.0</ele><time>2026-04-04T08:26:19Z</time></trkpt><trkpt lat="39.2974860839252" lon="9.003110279813955"><ele>11.75</ele><time>2026-04-04T08:26:20Z</time></trkpt><trkpt lat="39.29757501678995" lon="9.002935405448444"><ele>11.5</ele><time>2026-04-04T08:26:21Z</time></trkpt><trkpt lat="39.29765039592291" lon="9.002782819558432"><ele>11.25</ele><time>2026-04-04T08:26:22Z</time></trkpt><trkpt lat="39.29771789458439" lon="9.002646506882298"><ele>11.0</ele><time>2026-04-04T08:26:23Z</time></trkpt><trkpt lat="39.297776482374594" lon="9.002527257003376"><ele>11.0</ele><time>2026-04-04T08:26:24Z</time></trkpt><trkpt lat="39.297825663420895" lon="9.002426931355513"><ele>11.0</ele><time>2026-04-04T08:26:25Z</time></trkpt><trkpt lat="39.29787196138993" lon="9.0023327234321"><ele>11.0</ele><time>2026-04-04T08:26:26Z</time></trkpt><trkpt lat="39.29791649720828" lon="9.002246190005573"><ele>11.0</ele><time>2026-04-04T08:26:27Z</time></trkpt><trkpt lat="39.297958967384446" lon="9.00216500648039"><ele>11.0</ele><time>2026-04-04T08:26:28Z</time></trkpt><trkpt lat="39.298001882659925" lon="9.002077218092598"><ele>11.0</ele><time>2026-04-04T08:26:29Z</time></trkpt><trkpt lat="39.298048074560405" lon="9.001981813742951"><ele>11.0</ele><time>2026-04-04T08:26:30Z</time></trkpt><trkpt lat="39.29809659353989" lon="9.001882934452778"><ele>11.0</ele><time>2026-04-04T08:26:31Z</time></trkpt><trkpt lat="39.298149116479195" lon="9.001776233124653"><ele>11.0</ele><time>2026-04-04T08:26:32Z</time></trkpt><trkpt lat="39.298201376149294" lon="9.001671807296617"><ele>11.0</ele><time>2026-04-04T08:26:33Z</time></trkpt><trkpt lat="39.298246539068" lon="9.001582062486172"><ele>11.0</ele><time>2026-04-04T08:26:34Z</time></trkpt><trkpt lat="39.2982846149088" lon="9.001507818859944"><ele>11.0</ele><time>2026-04-04T08:26:35Z</time></trkpt><trkpt lat="39.2983218220589" lon="9.00137584692845"><ele>11.0</ele><time>2026-04-04T08:26:37Z</time></trkpt><trkpt lat="39.29825463718753" lon="9.001252409667472"><ele>11.0</ele><time>2026-04-04T08:26:39Z</time></trkpt><trkpt lat="39.29819568242878" lon="9.001181913234708"><ele>11.0</ele><time>2026-04-04T08:26:40Z</time></trkpt><trkpt lat="39.29811407785479" lon="9.00120029465099"><ele>11.0</ele><time>2026-04-04T08:26:41Z</time></trkpt><trkpt lat="39.298030679285645" lon="9.001154645342464"><ele>11.0</ele><time>2026-04-04T08:26:42Z</time></trkpt><trkpt lat="39.297934940325476" lon="9.001126675295186"><ele>11.200000000000001</ele><time>2026-04-04T08:26:43Z</time></trkpt><trkpt lat="39.29784555965854" lon="9.001103555034192"><ele>11.4</ele><time>2026-04-04T08:26:44Z</time></trkpt><trkpt lat="39.29774835044976" lon="9.001074606951807"><ele>11.6</ele><time>2026-04-04T08:26:45Z</time></trkpt><trkpt lat="39.29764671157665" lon="9.001044061375671"><ele>11.8</ele><time>2026-04-04T08:26:46Z</time></trkpt><trkpt lat="39.297542238328354" lon="9.001012664002284"><ele>12.0</ele><time>2026-04-04T08:26:47Z</time></trkpt><trkpt lat="39.29743563656201" lon="9.000980627553867"><ele>12.0</ele><time>2026-04-04T08:26:48Z</time></trkpt><trkpt lat="39.297334020794025" lon="9.000950236784732"><ele>12.0</ele><time>2026-04-04T08:26:49Z</time></trkpt><trkpt lat="39.297242617131346" lon="9.000923090412423"><ele>12.0</ele><time>2026-04-04T08:26:50Z</time></trkpt><trkpt lat="39.29715325490537" lon="9.00092747470614"><ele>12.0</ele><time>2026-04-04T08:26:51Z</time></trkpt><trkpt lat="39.297058219470905" lon="9.000896055832031"><ele>12.0</ele><time>2026-04-04T08:26:52Z</time></trkpt><trkpt lat="39.296977803659594" lon="9.000869705938612"><ele>12.0</ele><time>2026-04-04T08:26:53Z</time></trkpt><trkpt lat="39.29690738519062" lon="9.00084669409606"><ele>12.0</ele><time>2026-04-04T08:26:54Z</time></trkpt><trkpt lat="39.29681603381789" lon="9.000816500159155"><ele>12.0</ele><time>2026-04-04T08:26:56Z</time></trkpt><trkpt lat="39.29674950148338" lon="9.00079543362356"><ele>12.0</ele><time>2026-04-04T08:27:00Z</time></trkpt><trkpt lat="39.29668123894148" lon="9.00075945668987"><ele>12.0</ele><time>2026-04-04T08:27:03Z</time></trkpt><trkpt lat="39.29658919224466" lon="9.00072071195732"><ele>12.0</ele><time>2026-04-04T08:27:06Z</time></trkpt><trkpt lat="39.2965014340176" lon="9.000685547586718"><ele>12.0</ele><time>2026-04-04T08:27:08Z</time></trkpt><trkpt lat="39.296435612801524" lon="9.000804447788372"><ele>12.0</ele><time>2026-04-04T08:27:10Z</time></trkpt><trkpt lat="39.29641843813396" lon="9.000909924361672"><ele>12.0</ele><time>2026-04-04T08:27:11Z</time></trkpt><trkpt lat="39.29639032709568" lon="9.00101392401769"><ele>12.0</ele><time>2026-04-04T08:27:12Z</time></trkpt><trkpt lat="39.2963558371746" lon="9.001117461986718"><ele>12.0</ele><time>2026-04-04T08:27:13Z</time></trkpt><trkpt lat="39.29631783109154" lon="9.001224718579731"><ele>11.833333333333334</ele><time>2026-04-04T08:27:14Z</time></trkpt><trkpt lat="39.296266877774514" lon="9.001329774747303"><ele>11.666666666666666</ele><time>2026-04-04T08:27:15Z</time></trkpt><trkpt lat="39.29620220657084" lon="9.001411947495424"><ele>11.5</ele><time>2026-04-04T08:27:16Z</time></trkpt><trkpt lat="39.296132777299675" lon="9.001477059392315"><ele>11.333333333333332</ele><time>2026-04-04T08:27:17Z</time></trkpt><trkpt lat="39.29606960620015" lon="9.001537412765488"><ele>11.166666666666666</ele><time>2026-04-04T08:27:18Z</time></trkpt><trkpt lat="39.29600578221239" lon="9.001600038800953"><ele>11.0</ele><time>2026-04-04T08:27:19Z</time></trkpt><trkpt lat="39.29594889569503" lon="9.001655556217175"><ele>10.8</ele><time>2026-04-04T08:27:20Z</time></trkpt><trkpt lat="39.29589174645373" lon="9.001713839269819"><ele>10.600000000000001</ele><time>2026-04-04T08:27:21Z</time></trkpt><trkpt lat="39.29582923622423" lon="9.001783745040202"><ele>10.4</ele><time>2026-04-04T08:27:22Z</time></trkpt><trkpt lat="39.29577138813346" lon="9.001874266163068"><ele>10.2</ele><time>2026-04-04T08:27:23Z</time></trkpt><trkpt lat="39.295713576775356" lon="9.001977236196545"><ele>10.0</ele><time>2026-04-04T08:27:24Z</time></trkpt><trkpt lat="39.2956485700063" lon="9.002083835134291"><ele>10.0</ele><time>2026-04-04T08:27:25Z</time></trkpt><trkpt lat="39.295588487685265" lon="9.002196698816519"><ele>10.0</ele><time>2026-04-04T08:27:26Z</time></trkpt><trkpt lat="39.29552884003792" lon="9.002303586254774"><ele>10.0</ele><time>2026-04-04T08:27:27Z</time></trkpt><trkpt lat="39.2954645082365" lon="9.002412189186707"><ele>10.0</ele><time>2026-04-04T08:27:28Z</time></trkpt><trkpt lat="39.29539887508661" lon="9.002529157661847"><ele>10.0</ele><time>2026-04-04T08:27:29Z</time></trkpt><trkpt lat="39.29533222874204" lon="9.002651773098751"><ele>9.75</ele><time>2026-04-04T08:27:30Z</time></trkpt><trkpt lat="39.295262238533816" lon="9.00277482351237"><ele>9.5</ele><time>2026-04-04T08:27:31Z</time></trkpt><trkpt lat="39.29519073476068" lon="9.00289529568248"><ele>9.25</ele><time>2026-04-04T08:27:32Z</time></trkpt><trkpt lat="39.29512137923124" lon="9.003015377338498"><ele>9.0</ele><time>2026-04-04T08:27:33Z</time></trkpt><trkpt lat="39.29505659913926" lon="9.003129258139749"><ele>9.0</ele><time>2026-04-04T08:27:34Z</time></trkpt><trkpt lat="39.294996962596834" lon="9.003234371386228"><ele>9.0</ele><time>2026-04-04T08:27:35Z</time></trkpt><trkpt lat="39.29494578029251" lon="9.003326213777594"><ele>9.0</ele><time>2026-04-04T08:27:36Z</time></trkpt><trkpt lat="39.29489901814129" lon="9.003410641726653"><ele>9.0</ele><time>2026-04-04T08:27:37Z</time></trkpt><trkpt lat="39.2948567822817" lon="9.003485629776916"><ele>9.0</ele><time>2026-04-04T08:27:38Z</time></trkpt><trkpt lat="39.29481896166319" lon="9.003553263901921"><ele>9.0</ele><time>2026-04-04T08:27:39Z</time></trkpt><trkpt lat="39.294750140369786" lon="9.003670799499188"><ele>9.2</ele><time>2026-04-04T08:27:41Z</time></trkpt><trkpt lat="39.29469468990742" lon="9.00377087237332"><ele>9.4</ele><time>2026-04-04T08:27:43Z</time></trkpt><trkpt lat="39.294637190821796" lon="9.003865283533889"><ele>9.6</ele><time>2026-04-04T08:27:45Z</time></trkpt><trkpt lat="39.29457247393771" lon="9.003975471551943"><ele>9.8</ele><time>2026-04-04T08:27:47Z</time></trkpt><trkpt lat="39.294504527007675" lon="9.004088674495515"><ele>10.0</ele><time>2026-04-04T08:27:49Z</time></trkpt><trkpt lat="39.294443290234575" lon="9.004189947128705"><ele>10.0</ele><time>2026-04-04T08:27:51Z</time></trkpt><trkpt lat="39.29436444609441" lon="9.004301489453946"><ele>10.0</ele><time>2026-04-04T08:27:53Z</time></trkpt><trkpt lat="39.29431477147588" lon="9.00435281374946"><ele>10.0</ele><time>2026-04-04T08:27:54Z</time></trkpt><trkpt lat="39.29426337055453" lon="9.0044049801396"><ele>10.0</ele><time>2026-04-04T08:27:55Z</time></trkpt><trkpt lat="39.294207617997515" lon="9.004457878596268"><ele>10.0</ele><time>2026-04-04T08:27:56Z</time></trkpt><trkpt lat="39.29414752739005" lon="9.004514591204606"><ele>10.0</ele><time>2026-04-04T08:27:57Z</time></trkpt><trkpt lat="39.2940863170998" lon="9.00456979553738"><ele>10.0</ele><time>2026-04-04T08:27:58Z</time></trkpt><trkpt lat="39.29403044460961" lon="9.004625864715608"><ele>10.0</ele><time>2026-04-04T08:27:59Z</time></trkpt><trkpt lat="39.29397633457877" lon="9.00468550217761"><ele>10.0</ele><time>2026-04-04T08:28:00Z</time></trkpt><trkpt lat="39.29392628877663" lon="9.004745497718021"><ele>10.0</ele><time>2026-04-04T08:28:01Z</time></trkpt><trkpt lat="39.29387642352148" lon="9.004810518553814"><ele>10.0</ele><time>2026-04-04T08:28:02Z</time></trkpt><trkpt lat="39.29382215699783" lon="9.00487926459967"><ele>10.0</ele><time>2026-04-04T08:28:03Z</time></trkpt><trkpt lat="39.29376209656519" lon="9.004949128129482"><ele>10.0</ele><time>2026-04-04T08:28:04Z</time></trkpt><trkpt lat="39.2937001655561" lon="9.005022482775177"><ele>9.833333333333334</ele><time>2026-04-04T08:28:05Z</time></trkpt><trkpt lat="39.293647582715515" lon="9.005094797272953"><ele>9.666666666666668</ele><time>2026-04-04T08:28:06Z</time></trkpt><trkpt lat="39.29359691703723" lon="9.005168457516964"><ele>9.5</ele><time>2026-04-04T08:28:07Z</time></trkpt><trkpt lat="39.29354807907176" lon="9.005244244194037"><ele>9.333333333333334</ele><time>2026-04-04T08:28:08Z</time></trkpt><trkpt lat="39.293496575855464" lon="9.005322629506702"><ele>9.166666666666666</ele><time>2026-04-04T08:28:09Z</time></trkpt><trkpt lat="39.293437556376595" lon="9.005405686611414"><ele>9.0</ele><time>2026-04-04T08:28:10Z</time></trkpt><trkpt lat="39.29337392608998" lon="9.005489883977758"><ele>9.0</ele><time>2026-04-04T08:28:11Z</time></trkpt><trkpt lat="39.293306456095294" lon="9.005579783715275"><ele>9.0</ele><time>2026-04-04T08:28:12Z</time></trkpt><trkpt lat="39.293236814021704" lon="9.005675489500328"><ele>9.0</ele><time>2026-04-04T08:28:13Z</time></trkpt><trkpt lat="39.2931691670304" lon="9.005771956948609"><ele>9.0</ele><time>2026-04-04T08:28:14Z</time></trkpt><trkpt lat="39.293103772498206" lon="9.00586683094817"><ele>9.0</ele><time>2026-04-04T08:28:15Z</time></trkpt><trkpt lat="39.293041321595894" lon="9.005959682072357"><ele>9.0</ele><time>2026-04-04T08:28:16Z</time></trkpt><trkpt lat="39.29297875619538" lon="9.006049755832429"><ele>9.0</ele><time>2026-04-04T08:28:17Z</time></trkpt><trkpt lat="39.2929163479764" lon="9.006133297005627"><ele>9.0</ele><time>2026-04-04T08:28:18Z</time></trkpt><trkpt lat="39.292853360280404" lon="9.00621686938769"><ele>9.0</ele><time>2026-04-04T08:28:19Z</time></trkpt><trkpt lat="39.29278975919492" lon="9.006301306914457"><ele>9.0</ele><time>2026-04-04T08:28:20Z</time></trkpt><trkpt lat="39.29272345630041" lon="9.006386656039512"><ele>9.0</ele><time>2026-04-04T08:28:21Z</time></trkpt><trkpt lat="39.292656383959475" lon="9.006471347182682"><ele>9.0</ele><time>2026-04-04T08:28:22Z</time></trkpt><trkpt lat="39.2925917501483" lon="9.006556372719208"><ele>9.0</ele><time>2026-04-04T08:28:23Z</time></trkpt><trkpt lat="39.29253624258181" lon="9.006629159098578"><ele>9.0</ele><time>2026-04-04T08:28:24Z</time></trkpt><trkpt lat="39.292491079112224" lon="9.006692149579036"><ele>9.0</ele><time>2026-04-04T08:28:25Z</time></trkpt><trkpt lat="39.29242799180659" lon="9.006790858725644"><ele>9.0</ele><time>2026-04-04T08:28:27Z</time></trkpt><trkpt lat="39.292368645490775" lon="9.006860370028713"><ele>9.0</ele><time>2026-04-04T08:28:30Z</time></trkpt><trkpt lat="39.29238458414138" lon="9.007069431798346"><ele>9.0</ele><time>2026-04-04T08:28:32Z</time></trkpt><trkpt lat="39.292380198030195" lon="9.007173452356039"><ele>9.0</ele><time>2026-04-04T08:28:33Z</time></trkpt><trkpt lat="39.29237635274159" lon="9.007290026490299"><ele>9.0</ele><time>2026-04-04T08:28:34Z</time></trkpt><trkpt lat="39.29236950505011" lon="9.0074111894486"><ele>9.0</ele><time>2026-04-04T08:28:35Z</time></trkpt><trkpt lat="39.29236278285534" lon="9.007528374062526"><ele>9.166666666666666</ele><time>2026-04-04T08:28:36Z</time></trkpt><trkpt lat="39.29235600612715" lon="9.007644030108075"><ele>9.333333333333334</ele><time>2026-04-04T08:28:37Z</time></trkpt><trkpt lat="39.29234636241521" lon="9.007759257874572"><ele>9.5</ele><time>2026-04-04T08:28:38Z</time></trkpt><trkpt lat="39.292335711323226" lon="9.007874091233148"><ele>9.666666666666668</ele><time>2026-04-04T08:28:39Z</time></trkpt><trkpt lat="39.292325720790956" lon="9.007991934485894"><ele>9.833333333333334</ele><time>2026-04-04T08:28:40Z</time></trkpt><trkpt lat="39.2923200690909" lon="9.008105570236653"><ele>10.0</ele><time>2026-04-04T08:28:41Z</time></trkpt><trkpt lat="39.292314576462545" lon="9.00822074593835"><ele>9.833333333333334</ele><time>2026-04-04T08:28:42Z</time></trkpt><trkpt lat="39.292306811013354" lon="9.008336399799585"><ele>9.666666666666668</ele><time>2026-04-04T08:28:43Z</time></trkpt><trkpt lat="39.29229661628376" lon="9.008452174555895"><ele>9.5</ele><time>2026-04-04T08:28:44Z</time></trkpt><trkpt lat="39.29228759993939" lon="9.00856020412327"><ele>9.333333333333334</ele><time>2026-04-04T08:28:45Z</time></trkpt><trkpt lat="39.29228216596025" lon="9.008661255554966"><ele>9.166666666666666</ele><time>2026-04-04T08:28:46Z</time></trkpt><trkpt lat="39.292278850914414" lon="9.00875547720197"><ele>9.0</ele><time>2026-04-04T08:28:47Z</time></trkpt><trkpt lat="39.29227584302137" lon="9.00884372324288"><ele>9.0</ele><time>2026-04-04T08:28:48Z</time></trkpt><trkpt lat="39.292271634174604" lon="9.008934304770563"><ele>9.0</ele><time>2026-04-04T08:28:49Z</time></trkpt><trkpt lat="39.292263853127615" lon="9.009032488967422"><ele>9.0</ele><time>2026-04-04T08:28:50Z</time></trkpt><trkpt lat="39.292256822015055" lon="9.009139616419072"><ele>9.0</ele><time>2026-04-04T08:28:51Z</time></trkpt><trkpt lat="39.29225249190115" lon="9.009248717935112"><ele>9.0</ele><time>2026-04-04T08:28:52Z</time></trkpt><trkpt lat="39.292256505730506" lon="9.009365489593097"><ele>9.0</ele><time>2026-04-04T08:28:53Z</time></trkpt><trkpt lat="39.29226557484854" lon="9.009474227061542"><ele>9.2</ele><time>2026-04-04T08:28:54Z</time></trkpt><trkpt lat="39.2922712074073" lon="9.009583427427634"><ele>9.4</ele><time>2026-04-04T08:28:55Z</time></trkpt><trkpt lat="39.29227992760614" lon="9.009666774453317"><ele>9.6</ele><time>2026-04-04T08:28:56Z</time></trkpt><trkpt lat="39.292291493789165" lon="9.009787729922957"><ele>9.8</ele><time>2026-04-04T08:28:57Z</time></trkpt><trkpt lat="39.292313713543216" lon="9.009922161117148"><ele>10.0</ele><time>2026-04-04T08:28:58Z</time></trkpt><trkpt lat="39.292329244742405" lon="9.010070503930907"><ele>10.4</ele><time>2026-04-04T08:28:59Z</time></trkpt><trkpt lat="39.29233554623784" lon="9.010212410104131"><ele>10.8</ele><time>2026-04-04T08:29:00Z</time></trkpt><trkpt lat="39.29233864940458" lon="9.010347124426321"><ele>11.2</ele><time>2026-04-04T08:29:01Z</time></trkpt><trkpt lat="39.29234438898482" lon="9.010480119371506"><ele>11.6</ele><time>2026-04-04T08:29:02Z</time></trkpt><trkpt lat="39.29235350570122" lon="9.010614903689941"><ele>12.0</ele><time>2026-04-04T08:29:03Z</time></trkpt><trkpt lat="39.29236485121337" lon="9.010750577375456"><ele>11.8</ele><time>2026-04-04T08:29:04Z</time></trkpt><trkpt lat="39.2923730531467" lon="9.010878143257486"><ele>11.6</ele><time>2026-04-04T08:29:05Z</time></trkpt><trkpt lat="39.292374428802404" lon="9.010995772873335"><ele>11.4</ele><time>2026-04-04T08:29:06Z</time></trkpt><trkpt lat="39.29237176470082" lon="9.011106820544873"><ele>11.200000000000001</ele><time>2026-04-04T08:29:07Z</time></trkpt><trkpt lat="39.29237535401538" lon="9.011219301530284"><ele>11.0</ele><time>2026-04-04T08:29:08Z</time></trkpt><trkpt lat="39.29234596569204" lon="9.011330572920027"><ele>11.0</ele><time>2026-04-04T08:29:09Z</time></trkpt><trkpt lat="39.29232750187692" lon="9.01144352839463"><ele>11.0</ele><time>2026-04-04T08:29:10Z</time></trkpt><trkpt lat="39.2923030411826" lon="9.011561798633833"><ele>11.0</ele><time>2026-04-04T08:29:11Z</time></trkpt><trkpt lat="39.29227510406332" lon="9.011685270712293"><ele>11.0</ele><time>2026-04-04T08:29:12Z</time></trkpt><trkpt lat="39.292242117652044" lon="9.01181389568028"><ele>11.0</ele><time>2026-04-04T08:29:13Z</time></trkpt><trkpt lat="39.29220426290838" lon="9.011937483709664"><ele>10.600000000000001</ele><time>2026-04-04T08:29:14Z</time></trkpt><trkpt lat="39.29216604529484" lon="9.01206817214471"><ele>10.200000000000001</ele><time>2026-04-04T08:29:15Z</time></trkpt><trkpt lat="39.29214694046891" lon="9.012196932604175"><ele>9.8</ele><time>2026-04-04T08:29:16Z</time></trkpt><trkpt lat="39.29210896311805" lon="9.012312754941354"><ele>9.4</ele><time>2026-04-04T08:29:17Z</time></trkpt><trkpt lat="39.2920627765371" lon="9.0124249019293"><ele>9.0</ele><time>2026-04-04T08:29:18Z</time></trkpt><trkpt lat="39.29202715423165" lon="9.012545641268451"><ele>9.0</ele><time>2026-04-04T08:29:19Z</time></trkpt><trkpt lat="39.29198968662717" lon="9.012672635319403"><ele>9.0</ele><time>2026-04-04T08:29:20Z</time></trkpt><trkpt lat="39.291951323314926" lon="9.012802665321786"><ele>9.0</ele><time>2026-04-04T08:29:21Z</time></trkpt><trkpt lat="39.291927755972516" lon="9.012941666533028"><ele>9.0</ele><time>2026-04-04T08:29:22Z</time></trkpt><trkpt lat="39.29187213645216" lon="9.013066716406014"><ele>9.0</ele><time>2026-04-04T08:29:23Z</time></trkpt><trkpt lat="39.29183042423088" lon="9.01319822009504"><ele>9.2</ele><time>2026-04-04T08:29:24Z</time></trkpt><trkpt lat="39.291812895062435" lon="9.013337677165678"><ele>9.4</ele><time>2026-04-04T08:29:25Z</time></trkpt><trkpt lat="39.29177621870309" lon="9.01345817568369"><ele>9.6</ele><time>2026-04-04T08:29:26Z</time></trkpt><trkpt lat="39.29174164999523" lon="9.013573541790212"><ele>9.8</ele><time>2026-04-04T08:29:27Z</time></trkpt><trkpt lat="39.291709201536946" lon="9.01367965663814"><ele>10.0</ele><time>2026-04-04T08:29:28Z</time></trkpt><trkpt lat="39.2916738820491" lon="9.013777975569484"><ele>10.0</ele><time>2026-04-04T08:29:29Z</time></trkpt><trkpt lat="39.29163248657908" lon="9.013858139196635"><ele>10.0</ele><time>2026-04-04T08:29:30Z</time></trkpt><trkpt lat="39.291584806922764" lon="9.01392409352545"><ele>10.0</ele><time>2026-04-04T08:29:31Z</time></trkpt><trkpt lat="39.29153318542003" lon="9.01398516560476"><ele>10.0</ele><time>2026-04-04T08:29:32Z</time></trkpt><trkpt lat="39.29144056725325" lon="9.014044892383092"><ele>10.0</ele><time>2026-04-04T08:29:34Z</time></trkpt><trkpt lat="39.29137098036051" lon="9.014100908266238"><ele>10.0</ele><time>2026-04-04T08:29:36Z</time></trkpt><trkpt lat="39.29132140011053" lon="9.01415864077774"><ele>11.0</ele><time>2026-04-04T08:29:38Z</time></trkpt></trkseg><trkseg><trkpt lat="39.29120351432141" lon="9.014231548718485"><ele>11.0</ele><time>2026-04-04T08:52:07Z</time></trkpt><trkpt lat="39.29113664659109" lon="9.014218511813983"><ele>11.0</ele><time>2026-04-04T08:52:09Z</time></trkpt><trkpt lat="39.29108541608276" lon="9.01416006491121"><ele>11.0</ele><time>2026-04-04T08:52:35Z</time></trkpt><trkpt lat="39.291028929350816" lon="9.014107764741109"><ele>11.0</ele><time>2026-04-04T08:52:39Z</time></trkpt><trkpt lat="39.29097184817912" lon="9.01403430369902"><ele>11.0</ele><time>2026-04-04T08:52:42Z</time></trkpt><trkpt lat="39.29092499500317" lon="9.013974383395777"><ele>11.0</ele><time>2026-04-04T08:52:46Z</time></trkpt><trkpt lat="39.29086039989286" lon="9.013948811039915"><ele>11.0</ele><time>2026-04-04T08:52:49Z</time></trkpt><trkpt lat="39.2908591270202" lon="9.014062702339997"><ele>11.0</ele><time>2026-04-04T08:52:52Z</time></trkpt><trkpt lat="39.29089892302816" lon="9.01419959357428"><ele>11.0</ele><time>2026-04-04T08:52:54Z</time></trkpt><trkpt lat="39.2909181348581" lon="9.014288475617944"><ele>11.0</ele><time>2026-04-04T08:52:55Z</time></trkpt><trkpt lat="39.29093992616246" lon="9.014378335808738"><ele>11.0</ele><time>2026-04-04T08:52:56Z</time></trkpt><trkpt lat="39.29096830451211" lon="9.014474338000612"><ele>11.0</ele><time>2026-04-04T08:52:57Z</time></trkpt><trkpt lat="39.29100010364755" lon="9.01455977630448"><ele>11.0</ele><time>2026-04-04T08:52:58Z</time></trkpt><trkpt lat="39.29103459629427" lon="9.014629936799247"><ele>11.0</ele><time>2026-04-04T08:52:59Z</time></trkpt><trkpt lat="39.29110298754259" lon="9.014706287129068"><ele>11.0</ele><time>2026-04-04T08:53:01Z</time></trkpt><trkpt lat="39.291191363577894" lon="9.014732742147443"><ele>11.0</ele><time>2026-04-04T08:54:12Z</time></trkpt><trkpt lat="39.291246783918005" lon="9.014791814426006"><ele>11.0</ele><time>2026-04-04T08:54:14Z</time></trkpt><trkpt lat="39.29131264077323" lon="9.014802820976158"><ele>11.0</ele><time>2026-04-04T08:54:18Z</time></trkpt><trkpt lat="39.29145050272933" lon="9.014727581391197"><ele>11.0</ele><time>2026-04-04T08:54:26Z</time></trkpt><trkpt lat="39.29150717450363" lon="9.014639406837283"><ele>11.0</ele><time>2026-04-04T08:54:27Z</time></trkpt><trkpt lat="39.29156608656485" lon="9.014534380469723"><ele>11.0</ele><time>2026-04-04T08:54:28Z</time></trkpt><trkpt lat="39.29162253632835" lon="9.014415199473646"><ele>11.0</ele><time>2026-04-04T08:54:29Z</time></trkpt><trkpt lat="39.29168554470569" lon="9.014288824596084"><ele>11.0</ele><time>2026-04-04T08:54:30Z</time></trkpt><trkpt lat="39.29175633020511" lon="9.014159045742042"><ele>10.75</ele><time>2026-04-04T08:54:31Z</time></trkpt><trkpt lat="39.29182783823675" lon="9.014026573008902"><ele>10.5</ele><time>2026-04-04T08:54:32Z</time></trkpt><trkpt lat="39.29189995703558" lon="9.013885696631398"><ele>10.25</ele><time>2026-04-04T08:54:33Z</time></trkpt><trkpt lat="39.2919755813431" lon="9.013732517568295"><ele>10.0</ele><time>2026-04-04T08:54:34Z</time></trkpt><trkpt lat="39.2920558398899" lon="9.013578837378544"><ele>10.0</ele><time>2026-04-04T08:54:35Z</time></trkpt><trkpt lat="39.29213670594134" lon="9.01342618583314"><ele>10.0</ele><time>2026-04-04T08:54:36Z</time></trkpt><trkpt lat="39.292215795654016" lon="9.013272830370864"><ele>10.0</ele><time>2026-04-04T08:54:37Z</time></trkpt><trkpt lat="39.292297053625056" lon="9.013105620512878"><ele>10.0</ele><time>2026-04-04T08:54:38Z</time></trkpt><trkpt lat="39.29238465250042" lon="9.012933534957819"><ele>9.333333333333334</ele><time>2026-04-04T08:54:39Z</time></trkpt><trkpt lat="39.29247608114232" lon="9.012754820734061"><ele>8.666666666666666</ele><time>2026-04-04T08:54:40Z</time></trkpt><trkpt lat="39.292570625988525" lon="9.012575041584691"><ele>8.0</ele><time>2026-04-04T08:54:41Z</time></trkpt><trkpt lat="39.29266103044324" lon="9.012393856634256"><ele>8.0</ele><time>2026-04-04T08:54:42Z</time></trkpt><trkpt lat="39.29275238182111" lon="9.012210461949238"><ele>8.0</ele><time>2026-04-04T08:54:43Z</time></trkpt><trkpt lat="39.29284403343098" lon="9.012024851051358"><ele>8.0</ele><time>2026-04-04T08:54:44Z</time></trkpt><trkpt lat="39.29294042036448" lon="9.011840343427291"><ele>8.333333333333332</ele><time>2026-04-04T08:54:45Z</time></trkpt><trkpt lat="39.29303748966387" lon="9.011656891137706"><ele>8.666666666666666</ele><time>2026-04-04T08:54:46Z</time></trkpt><trkpt lat="39.29313524835234" lon="9.011472586088638"><ele>9.0</ele><time>2026-04-04T08:54:47Z</time></trkpt><trkpt lat="39.29323373095826" lon="9.011285021067899"><ele>9.0</ele><time>2026-04-04T08:54:48Z</time></trkpt><trkpt lat="39.293330777718815" lon="9.011093005596315"><ele>9.0</ele><time>2026-04-04T08:54:49Z</time></trkpt><trkpt lat="39.29342885969558" lon="9.010900286928093"><ele>9.0</ele><time>2026-04-04T08:54:50Z</time></trkpt><trkpt lat="39.2935296648528" lon="9.010709166791132"><ele>8.666666666666666</ele><time>2026-04-04T08:54:51Z</time></trkpt><trkpt lat="39.29363127117783" lon="9.010516372143401"><ele>8.333333333333332</ele><time>2026-04-04T08:54:52Z</time></trkpt><trkpt lat="39.293736892601736" lon="9.010316538387466"><ele>8.0</ele><time>2026-04-04T08:54:53Z</time></trkpt><trkpt lat="39.29384528360496" lon="9.01011432131653"><ele>8.333333333333332</ele><time>2026-04-04T08:54:54Z</time></trkpt><trkpt lat="39.293954034577496" lon="9.009910565745335"><ele>8.666666666666666</ele><time>2026-04-04T08:54:55Z</time></trkpt><trkpt lat="39.29406453002769" lon="9.009700169090454"><ele>9.0</ele><time>2026-04-04T08:54:56Z</time></trkpt><trkpt lat="39.29417606566272" lon="9.009487228708416"><ele>9.0</ele><time>2026-04-04T08:54:57Z</time></trkpt><trkpt lat="39.29428938306458" lon="9.00927183197368"><ele>9.0</ele><time>2026-04-04T08:54:58Z</time></trkpt><trkpt lat="39.29439902608714" lon="9.009062005654474"><ele>9.0</ele><time>2026-04-04T08:54:59Z</time></trkpt><trkpt lat="39.294504208949334" lon="9.008849376805857"><ele>9.0</ele><time>2026-04-04T08:55:00Z</time></trkpt><trkpt lat="39.29462194403308" lon="9.008635155514936"><ele>9.0</ele><time>2026-04-04T08:55:01Z</time></trkpt><trkpt lat="39.294736120224" lon="9.008420669369494"><ele>9.0</ele><time>2026-04-04T08:55:02Z</time></trkpt><trkpt lat="39.294850524293324" lon="9.008205652675727"><ele>9.333333333333334</ele><time>2026-04-04T08:55:03Z</time></trkpt><trkpt lat="39.294964742145694" lon="9.00798741050882"><ele>9.666666666666668</ele><time>2026-04-04T08:55:04Z</time></trkpt><trkpt lat="39.29507923874207" lon="9.007767891298448"><ele>10.0</ele><time>2026-04-04T08:55:05Z</time></trkpt><trkpt lat="39.295195065876904" lon="9.007547649661163"><ele>10.666666666666668</ele><time>2026-04-04T08:55:06Z</time></trkpt><trkpt lat="39.29531227823299" lon="9.007325980541504"><ele>11.333333333333334</ele><time>2026-04-04T08:55:07Z</time></trkpt><trkpt lat="39.29542812975502" lon="9.007104880396847"><ele>12.0</ele><time>2026-04-04T08:55:08Z</time></trkpt><trkpt lat="39.2955438195213" lon="9.006884162368577"><ele>11.333333333333334</ele><time>2026-04-04T08:55:09Z</time></trkpt><trkpt lat="39.29565594847992" lon="9.006667724133814"><ele>10.666666666666668</ele><time>2026-04-04T08:55:10Z</time></trkpt><trkpt lat="39.29576734753715" lon="9.006454086621424"><ele>10.0</ele><time>2026-04-04T08:55:11Z</time></trkpt><trkpt lat="39.29587822713405" lon="9.006243231538924"><ele>10.0</ele><time>2026-04-04T08:55:12Z</time></trkpt><trkpt lat="39.295988775787585" lon="9.006033423735525"><ele>10.0</ele><time>2026-04-04T08:55:13Z</time></trkpt><trkpt lat="39.296098717748116" lon="9.00582326710754"><ele>10.0</ele><time>2026-04-04T08:55:14Z</time></trkpt><trkpt lat="39.29620722999337" lon="9.00561483230367"><ele>10.666666666666668</ele><time>2026-04-04T08:55:15Z</time></trkpt><trkpt lat="39.29631610350114" lon="9.005404208953921"><ele>11.333333333333334</ele><time>2026-04-04T08:55:16Z</time></trkpt><trkpt lat="39.296425534895505" lon="9.005195334592724"><ele>12.0</ele><time>2026-04-04T08:55:17Z</time></trkpt><trkpt lat="39.29653511612837" lon="9.004986729299464"><ele>12.0</ele><time>2026-04-04T08:55:18Z</time></trkpt><trkpt lat="39.29664189052386" lon="9.004781363071185"><ele>12.0</ele><time>2026-04-04T08:55:19Z</time></trkpt><trkpt lat="39.29674788255153" lon="9.004574529423085"><ele>12.0</ele><time>2026-04-04T08:55:20Z</time></trkpt><trkpt lat="39.29684695258053" lon="9.004378703500096"><ele>12.0</ele><time>2026-04-04T08:55:21Z</time></trkpt><trkpt lat="39.29694183012458" lon="9.00419369467482"><ele>12.0</ele><time>2026-04-04T08:55:22Z</time></trkpt><trkpt lat="39.29703189734434" lon="9.004018946567472"><ele>12.0</ele><time>2026-04-04T08:55:23Z</time></trkpt><trkpt lat="39.29711624326198" lon="9.003853898747659"><ele>12.0</ele><time>2026-04-04T08:55:24Z</time></trkpt><trkpt lat="39.29719299198281" lon="9.003703264511607"><ele>12.0</ele><time>2026-04-04T08:55:25Z</time></trkpt><trkpt lat="39.297263978770935" lon="9.003565885815322"><ele>12.0</ele><time>2026-04-04T08:55:26Z</time></trkpt><trkpt lat="39.29732650267805" lon="9.003444964426908"><ele>12.0</ele><time>2026-04-04T08:55:27Z</time></trkpt><trkpt lat="39.29738466624453" lon="9.003333141664166"><ele>11.833333333333334</ele><time>2026-04-04T08:55:28Z</time></trkpt><trkpt lat="39.297437550956914" lon="9.003233168158845"><ele>11.666666666666666</ele><time>2026-04-04T08:55:29Z</time></trkpt><trkpt lat="39.29748456256396" lon="9.003142784294592"><ele>11.5</ele><time>2026-04-04T08:55:30Z</time></trkpt><trkpt lat="39.29752254199099" lon="9.003066391568106"><ele>11.333333333333332</ele><time>2026-04-04T08:55:31Z</time></trkpt><trkpt lat="39.29757402189134" lon="9.002961083012654"><ele>11.166666666666666</ele><time>2026-04-04T08:55:33Z</time></trkpt><trkpt lat="39.2976168121686" lon="9.00287471544958"><ele>11.0</ele><time>2026-04-04T08:55:36Z</time></trkpt><trkpt lat="39.297661570643804" lon="9.002786662599972"><ele>11.0</ele><time>2026-04-04T08:55:38Z</time></trkpt><trkpt lat="39.297719655709386" lon="9.00267015746622"><ele>11.0</ele><time>2026-04-04T08:55:40Z</time></trkpt><trkpt lat="39.29778565465733" lon="9.002542940872752"><ele>11.0</ele><time>2026-04-04T08:55:42Z</time></trkpt><trkpt lat="39.29782304180764" lon="9.002472927345082"><ele>11.0</ele><time>2026-04-04T08:55:43Z</time></trkpt><trkpt lat="39.29786290750902" lon="9.002396871229317"><ele>11.0</ele><time>2026-04-04T08:55:44Z</time></trkpt><trkpt lat="39.297905053273205" lon="9.002313182086828"><ele>11.0</ele><time>2026-04-04T08:55:45Z</time></trkpt><trkpt lat="39.2979495781222" lon="9.002224198160878"><ele>11.0</ele><time>2026-04-04T08:55:46Z</time></trkpt><trkpt lat="39.297998399770606" lon="9.00212872844474"><ele>11.0</ele><time>2026-04-04T08:55:47Z</time></trkpt><trkpt lat="39.298048230783515" lon="9.002032591284284"><ele>11.0</ele><time>2026-04-04T08:55:48Z</time></trkpt><trkpt lat="39.29809880319782" lon="9.001935875783746"><ele>11.0</ele><time>2026-04-04T08:55:49Z</time></trkpt><trkpt lat="39.29814858423179" lon="9.001838703220962"><ele>11.0</ele><time>2026-04-04T08:55:50Z</time></trkpt><trkpt lat="39.29819836995054" lon="9.001740818506976"><ele>11.0</ele><time>2026-04-04T08:55:51Z</time></trkpt><trkpt lat="39.29824478533581" lon="9.001649402456737"><ele>11.0</ele><time>2026-04-04T08:55:52Z</time></trkpt><trkpt lat="39.29829606638306" lon="9.001548741625681"><ele>11.0</ele><time>2026-04-04T08:55:54Z</time></trkpt><trkpt lat="39.29834828648622" lon="9.001432188046532"><ele>11.0</ele><time>2026-04-04T08:57:14Z</time></trkpt><trkpt lat="39.298384028518626" lon="9.001363282679417"><ele>11.0</ele><time>2026-04-04T08:57:15Z</time></trkpt><trkpt lat="39.29842735809572" lon="9.001280875893936"><ele>11.0</ele><time>2026-04-04T08:57:16Z</time></trkpt><trkpt lat="39.298480676872195" lon="9.001184147626809"><ele>11.0</ele><time>2026-04-04T08:57:17Z</time></trkpt><trkpt lat="39.29854022442692" lon="9.001074555378093"><ele>11.0</ele><time>2026-04-04T08:57:18Z</time></trkpt><trkpt lat="39.298603840536295" lon="9.000952691477472"><ele>11.0</ele><time>2026-04-04T08:57:19Z</time></trkpt><trkpt lat="39.298673120930694" lon="9.000817706924709"><ele>11.0</ele><time>2026-04-04T08:57:20Z</time></trkpt><trkpt lat="39.29875342414798" lon="9.0006657745752"><ele>11.0</ele><time>2026-04-04T08:57:21Z</time></trkpt><trkpt lat="39.298834411762925" lon="9.000510364806686"><ele>10.666666666666666</ele><time>2026-04-04T08:57:22Z</time></trkpt><trkpt lat="39.29891945206478" lon="9.000344433495162"><ele>10.333333333333334</ele><time>2026-04-04T08:57:23Z</time></trkpt><trkpt lat="39.29900799281831" lon="9.000170851816875"><ele>10.0</ele><time>2026-04-04T08:57:24Z</time></trkpt><trkpt lat="39.29910111178372" lon="8.999987501974129"><ele>10.0</ele><time>2026-04-04T08:57:25Z</time></trkpt><trkpt lat="39.299199834965926" lon="8.999794085948086"><ele>10.0</ele><time>2026-04-04T08:57:26Z</time></trkpt><trkpt lat="39.299299917824264" lon="8.999598673229643"><ele>10.0</ele><time>2026-04-04T08:57:27Z</time></trkpt><trkpt lat="39.299406340013554" lon="8.999398495888004"><ele>10.0</ele><time>2026-04-04T08:57:28Z</time></trkpt><trkpt lat="39.299513888909715" lon="8.999191373992817"><ele>10.0</ele><time>2026-04-04T08:57:29Z</time></trkpt><trkpt lat="39.2996215711939" lon="8.998979821438754"><ele>10.0</ele><time>2026-04-04T08:57:30Z</time></trkpt><trkpt lat="39.29973258059977" lon="8.998763270366494"><ele>11.0</ele><time>2026-04-04T08:57:31Z</time></trkpt><trkpt lat="39.29984672169444" lon="8.998539478957985"><ele>12.0</ele><time>2026-04-04T08:57:32Z</time></trkpt><trkpt lat="39.2999626733988" lon="8.998314012047272"><ele>13.0</ele><time>2026-04-04T08:57:33Z</time></trkpt><trkpt lat="39.300077552636814" lon="8.9980888430174"><ele>13.333333333333332</ele><time>2026-04-04T08:57:34Z</time></trkpt><trkpt lat="39.300194025200184" lon="8.997863052917147"><ele>13.666666666666668</ele><time>2026-04-04T08:57:35Z</time></trkpt><trkpt lat="39.300312678242086" lon="8.997632244496186"><ele>14.0</ele><time>2026-04-04T08:57:36Z</time></trkpt><trkpt lat="39.3004347745417" lon="8.997398776407781"><ele>13.666666666666668</ele><time>2026-04-04T08:57:37Z</time></trkpt><trkpt lat="39.30055654667358" lon="8.997161454415377"><ele>13.333333333333332</ele><time>2026-04-04T08:57:38Z</time></trkpt><trkpt lat="39.3006821043173" lon="8.996920106109556"><ele>13.0</ele><time>2026-04-04T08:57:39Z</time></trkpt><trkpt lat="39.30080789080904" lon="8.996675622539966"><ele>12.5</ele><time>2026-04-04T08:57:40Z</time></trkpt><trkpt lat="39.300934766224564" lon="8.996428790664107"><ele>12.0</ele><time>2026-04-04T08:57:41Z</time></trkpt><trkpt lat="39.30106357482742" lon="8.996176736173817"><ele>12.0</ele><time>2026-04-04T08:57:42Z</time></trkpt><trkpt lat="39.301191944517235" lon="8.995925147954676"><ele>12.0</ele><time>2026-04-04T08:57:43Z</time></trkpt><trkpt lat="39.30132115495208" lon="8.99567219359894"><ele>11.5</ele><time>2026-04-04T08:57:44Z</time></trkpt><trkpt lat="39.30145058480643" lon="8.995417829033395"><ele>11.0</ele><time>2026-04-04T08:57:45Z</time></trkpt><trkpt lat="39.301581739567396" lon="8.9951618451061"><ele>11.0</ele><time>2026-04-04T08:57:46Z</time></trkpt><trkpt lat="39.30171189796355" lon="8.99490813631858"><ele>11.0</ele><time>2026-04-04T08:57:47Z</time></trkpt><trkpt lat="39.30184139322551" lon="8.994653158577611"><ele>11.0</ele><time>2026-04-04T08:57:48Z</time></trkpt><trkpt lat="39.30197315878608" lon="8.994398185414946"><ele>11.0</ele><time>2026-04-04T08:57:49Z</time></trkpt><trkpt lat="39.302104195254316" lon="8.994142863942809"><ele>10.5</ele><time>2026-04-04T08:57:50Z</time></trkpt><trkpt lat="39.302233657737006" lon="8.993889944088409"><ele>10.0</ele><time>2026-04-04T08:57:51Z</time></trkpt><trkpt lat="39.30236578935553" lon="8.993633701642567"><ele>10.0</ele><time>2026-04-04T08:57:52Z</time></trkpt><trkpt lat="39.30249522334647" lon="8.993381073227953"><ele>10.0</ele><time>2026-04-04T08:57:53Z</time></trkpt><trkpt lat="39.302625233202804" lon="8.993126440420804"><ele>11.0</ele><time>2026-04-04T08:57:54Z</time></trkpt><trkpt lat="39.302755928448825" lon="8.992871809504193"><ele>12.0</ele><time>2026-04-04T08:57:55Z</time></trkpt><trkpt lat="39.30288727151813" lon="8.99261661525757"><ele>11.5</ele><time>2026-04-04T08:57:56Z</time></trkpt><trkpt lat="39.3030187901101" lon="8.99236152264097"><ele>11.0</ele><time>2026-04-04T08:57:57Z</time></trkpt><trkpt lat="39.303150837744965" lon="8.992105985929738"><ele>11.0</ele><time>2026-04-04T08:57:58Z</time></trkpt><trkpt lat="39.30328483283931" lon="8.991846598052643"><ele>11.0</ele><time>2026-04-04T08:57:59Z</time></trkpt><trkpt lat="39.30341579077202" lon="8.991587657537421"><ele>10.5</ele><time>2026-04-04T08:58:00Z</time></trkpt><trkpt lat="39.303548162248596" lon="8.991328399760036"><ele>10.0</ele><time>2026-04-04T08:58:01Z</time></trkpt><trkpt lat="39.30368159184412" lon="8.991066463687938"><ele>9.5</ele><time>2026-04-04T08:58:02Z</time></trkpt><trkpt lat="39.30381436996795" lon="8.990808827540846"><ele>9.0</ele><time>2026-04-04T08:58:03Z</time></trkpt><trkpt lat="39.303946966340625" lon="8.990545185329047"><ele>9.0</ele><time>2026-04-04T08:58:04Z</time></trkpt><trkpt lat="39.30407413024928" lon="8.990282421260869"><ele>9.0</ele><time>2026-04-04T08:58:05Z</time></trkpt><trkpt lat="39.304209803038795" lon="8.990019182503703"><ele>9.5</ele><time>2026-04-04T08:58:06Z</time></trkpt><trkpt lat="39.30434370920791" lon="8.98975292362839"><ele>10.0</ele><time>2026-04-04T08:58:07Z</time></trkpt><trkpt lat="39.30447902264359" lon="8.98949155357262"><ele>10.0</ele><time>2026-04-04T08:58:08Z</time></trkpt><trkpt lat="39.30461479309198" lon="8.989223745855696"><ele>10.0</ele><time>2026-04-04T08:58:09Z</time></trkpt><trkpt lat="39.30474898859099" lon="8.988959126407268"><ele>10.5</ele><time>2026-04-04T08:58:10Z</time></trkpt><trkpt lat="39.30488568675289" lon="8.988691639155418"><ele>11.0</ele><time>2026-04-04T08:58:11Z</time></trkpt><trkpt lat="39.30502152820561" lon="8.988424945423588"><ele>10.5</ele><time>2026-04-04T08:58:12Z</time></trkpt><trkpt lat="39.30515860143307" lon="8.98815951037468"><ele>10.0</ele><time>2026-04-04T08:58:13Z</time></trkpt><trkpt lat="39.305295993623226" lon="8.987894728230168"><ele>10.0</ele><time>2026-04-04T08:58:14Z</time></trkpt><trkpt lat="39.3054336041944" lon="8.987626330666052"><ele>10.0</ele><time>2026-04-04T08:58:15Z</time></trkpt><trkpt lat="39.30557287540135" lon="8.9873569309394"><ele>9.5</ele><time>2026-04-04T08:58:16Z</time></trkpt><trkpt lat="39.305709312058966" lon="8.987088532986082"><ele>9.0</ele><time>2026-04-04T08:58:17Z</time></trkpt><trkpt lat="39.305849278348006" lon="8.986818175543783"><ele>9.5</ele><time>2026-04-04T08:58:18Z</time></trkpt><trkpt lat="39.305996391563305" lon="8.986558260015796"><ele>10.0</ele><time>2026-04-04T08:58:19Z</time></trkpt><trkpt lat="39.306144006596014" lon="8.986299655559556"><ele>10.0</ele><time>2026-04-04T08:58:20Z</time></trkpt><trkpt lat="39.30630248561564" lon="8.986053251511038"><ele>10.0</ele><time>2026-04-04T08:58:21Z</time></trkpt><trkpt lat="39.30646874994388" lon="8.985814277091311"><ele>10.5</ele><time>2026-04-04T08:58:22Z</time></trkpt><trkpt lat="39.306642014610134" lon="8.985585340938215"><ele>11.0</ele><time>2026-04-04T08:58:23Z</time></trkpt><trkpt lat="39.306823627579604" lon="8.985368409749489"><ele>11.0</ele><time>2026-04-04T08:58:24Z</time></trkpt><trkpt lat="39.30701407921901" lon="8.985169402195332"><ele>11.0</ele><time>2026-04-04T08:58:25Z</time></trkpt><trkpt lat="39.307213719850736" lon="8.984982017563734"><ele>12.0</ele><time>2026-04-04T08:58:26Z</time></trkpt><trkpt lat="39.30741839364696" lon="8.984809996340502"><ele>13.0</ele><time>2026-04-04T08:58:27Z</time></trkpt><trkpt lat="39.307629630511315" lon="8.984646341059399"><ele>13.0</ele><time>2026-04-04T08:58:28Z</time></trkpt><trkpt lat="39.30784489581053" lon="8.9844915354497"><ele>13.0</ele><time>2026-04-04T08:58:29Z</time></trkpt><trkpt lat="39.30806398149561" lon="8.984343795941252"><ele>13.5</ele><time>2026-04-04T08:58:30Z</time></trkpt><trkpt lat="39.308286217645204" lon="8.984199389251561"><ele>14.0</ele><time>2026-04-04T08:58:31Z</time></trkpt><trkpt lat="39.30851290131378" lon="8.984058181559442"><ele>14.0</ele><time>2026-04-04T08:58:32Z</time></trkpt><trkpt lat="39.3087388797199" lon="8.983912229553118"><ele>14.0</ele><time>2026-04-04T08:58:33Z</time></trkpt><trkpt lat="39.30896893265994" lon="8.983768097708026"><ele>14.0</ele><time>2026-04-04T08:58:34Z</time></trkpt><trkpt lat="39.30919812070115" lon="8.98362540998431"><ele>14.0</ele><time>2026-04-04T08:58:35Z</time></trkpt><trkpt lat="39.30942631466739" lon="8.98348367427095"><ele>14.0</ele><time>2026-04-04T08:58:36Z</time></trkpt><trkpt lat="39.30965339377107" lon="8.98334026165855"><ele>14.0</ele><time>2026-04-04T08:58:37Z</time></trkpt><trkpt lat="39.309883775524426" lon="8.983196597960909"><ele>14.5</ele><time>2026-04-04T08:58:38Z</time></trkpt><trkpt lat="39.31011200220931" lon="8.983052029928762"><ele>15.0</ele><time>2026-04-04T08:58:39Z</time></trkpt><trkpt lat="39.31033636755085" lon="8.982906541870072"><ele>15.0</ele><time>2026-04-04T08:58:40Z</time></trkpt><trkpt lat="39.31055939756593" lon="8.982759350064823"><ele>15.0</ele><time>2026-04-04T08:58:41Z</time></trkpt><trkpt lat="39.31078559442842" lon="8.982620712763064"><ele>14.5</ele><time>2026-04-04T08:58:42Z</time></trkpt><trkpt lat="39.31101253671188" lon="8.982477650092012"><ele>14.0</ele><time>2026-04-04T08:58:43Z</time></trkpt><trkpt lat="39.31123892940073" lon="8.982335933216735"><ele>15.0</ele><time>2026-04-04T08:58:44Z</time></trkpt><trkpt lat="39.31146883357601" lon="8.98219319633546"><ele>16.0</ele><time>2026-04-04T08:58:45Z</time></trkpt><trkpt lat="39.311694127982506" lon="8.982047650387953"><ele>16.0</ele><time>2026-04-04T08:58:46Z</time></trkpt><trkpt lat="39.311923257449976" lon="8.981899992584196"><ele>16.0</ele><time>2026-04-04T08:58:47Z</time></trkpt><trkpt lat="39.31215210518989" lon="8.981754055115447"><ele>15.5</ele><time>2026-04-04T08:58:48Z</time></trkpt><trkpt lat="39.31238133147992" lon="8.981609570447887"><ele>15.0</ele><time>2026-04-04T08:58:49Z</time></trkpt><trkpt lat="39.312615105752535" lon="8.981460822910615"><ele>15.0</ele><time>2026-04-04T08:58:50Z</time></trkpt><trkpt lat="39.312845116426594" lon="8.981313552514463"><ele>15.0</ele><time>2026-04-04T08:58:51Z</time></trkpt><trkpt lat="39.31307997889383" lon="8.981166358601376"><ele>15.5</ele><time>2026-04-04T08:58:52Z</time></trkpt><trkpt lat="39.313315370853175" lon="8.981016984387361"><ele>16.0</ele><time>2026-04-04T08:58:53Z</time></trkpt><trkpt lat="39.31355079892801" lon="8.980867907711284"><ele>16.0</ele><time>2026-04-04T08:58:54Z</time></trkpt><trkpt lat="39.31378959735688" lon="8.980718946443577"><ele>16.0</ele><time>2026-04-04T08:58:55Z</time></trkpt><trkpt lat="39.31402702679235" lon="8.980568136493785"><ele>16.0</ele><time>2026-04-04T08:58:56Z</time></trkpt><trkpt lat="39.31426697763504" lon="8.980418825762678"><ele>16.0</ele><time>2026-04-04T08:58:57Z</time></trkpt><trkpt lat="39.31450646362236" lon="8.98026991288148"><ele>17.0</ele><time>2026-04-04T08:58:58Z</time></trkpt><trkpt lat="39.31474829361596" lon="8.980117965518593"><ele>18.0</ele><time>2026-04-04T08:58:59Z</time></trkpt><trkpt lat="39.31499166099721" lon="8.979965519962699"><ele>18.0</ele><time>2026-04-04T08:59:00Z</time></trkpt><trkpt lat="39.315229913300065" lon="8.979815126325521"><ele>18.0</ele><time>2026-04-04T08:59:01Z</time></trkpt><trkpt lat="39.315463692958325" lon="8.979663942615352"><ele>17.5</ele><time>2026-04-04T08:59:02Z</time></trkpt><trkpt lat="39.31569024927963" lon="8.979521518027067"><ele>17.0</ele><time>2026-04-04T08:59:03Z</time></trkpt><trkpt lat="39.31591286411954" lon="8.97937321051491"><ele>17.0</ele><time>2026-04-04T08:59:04Z</time></trkpt><trkpt lat="39.31613165407872" lon="8.979220525894927"><ele>17.0</ele><time>2026-04-04T08:59:05Z</time></trkpt><trkpt lat="39.31634177217389" lon="8.979055019228184"><ele>16.0</ele><time>2026-04-04T08:59:06Z</time></trkpt><trkpt lat="39.31654254972319" lon="8.978876339424163"><ele>15.0</ele><time>2026-04-04T08:59:07Z</time></trkpt><trkpt lat="39.31673177208266" lon="8.978676276764448"><ele>15.0</ele><time>2026-04-04T08:59:08Z</time></trkpt><trkpt lat="39.31690789256962" lon="8.978458459992414"><ele>15.0</ele><time>2026-04-04T08:59:09Z</time></trkpt><trkpt lat="39.31707195165891" lon="8.9782242286312"><ele>15.0</ele><time>2026-04-04T08:59:10Z</time></trkpt><trkpt lat="39.31722186128406" lon="8.977973346515487"><ele>15.0</ele><time>2026-04-04T08:59:11Z</time></trkpt><trkpt lat="39.31735616040459" lon="8.97770482208257"><ele>15.5</ele><time>2026-04-04T08:59:12Z</time></trkpt><trkpt lat="39.31747474913335" lon="8.977428194828637"><ele>16.0</ele><time>2026-04-04T08:59:13Z</time></trkpt><trkpt lat="39.317581132726716" lon="8.977143725338427"><ele>16.0</ele><time>2026-04-04T08:59:14Z</time></trkpt><trkpt lat="39.31767381395915" lon="8.976860854609821"><ele>16.0</ele><time>2026-04-04T08:59:15Z</time></trkpt><trkpt lat="39.317756966408666" lon="8.976576029933364"><ele>16.0</ele><time>2026-04-04T08:59:16Z</time></trkpt><trkpt lat="39.31784060005758" lon="8.976300486284735"><ele>16.0</ele><time>2026-04-04T08:59:17Z</time></trkpt><trkpt lat="39.31792714313195" lon="8.97603977604407"><ele>16.0</ele><time>2026-04-04T08:59:18Z</time></trkpt><trkpt lat="39.31801741168127" lon="8.975799178435336"><ele>16.333333333333332</ele><time>2026-04-04T08:59:19Z</time></trkpt><trkpt lat="39.3181101377705" lon="8.97557437148747"><ele>16.666666666666668</ele><time>2026-04-04T08:59:20Z</time></trkpt><trkpt lat="39.31820355627849" lon="8.97536224241951"><ele>17.0</ele><time>2026-04-04T08:59:21Z</time></trkpt><trkpt lat="39.31829931656091" lon="8.975163136010249"><ele>16.666666666666668</ele><time>2026-04-04T08:59:22Z</time></trkpt><trkpt lat="39.31838795998208" lon="8.974970584558152"><ele>16.333333333333332</ele><time>2026-04-04T08:59:23Z</time></trkpt><trkpt lat="39.31847670058956" lon="8.97477300415604"><ele>16.0</ele><time>2026-04-04T08:59:24Z</time></trkpt><trkpt lat="39.31855550274273" lon="8.974570921941186"><ele>16.0</ele><time>2026-04-04T08:59:25Z</time></trkpt><trkpt lat="39.318631469129016" lon="8.974368730490156"><ele>16.0</ele><time>2026-04-04T08:59:26Z</time></trkpt><trkpt lat="39.318706623041656" lon="8.974158409647881"><ele>16.0</ele><time>2026-04-04T08:59:27Z</time></trkpt><trkpt lat="39.31876947383808" lon="8.97394144091083"><ele>16.0</ele><time>2026-04-04T08:59:28Z</time></trkpt><trkpt lat="39.318827725831" lon="8.973709044547"><ele>16.0</ele><time>2026-04-04T08:59:29Z</time></trkpt><trkpt lat="39.31886768695135" lon="8.973468380674234"><ele>16.0</ele><time>2026-04-04T08:59:30Z</time></trkpt><trkpt lat="39.31888864056013" lon="8.973212860875796"><ele>16.333333333333332</ele><time>2026-04-04T08:59:31Z</time></trkpt><trkpt lat="39.31890571192991" lon="8.972954266995902"><ele>16.666666666666668</ele><time>2026-04-04T08:59:32Z</time></trkpt><trkpt lat="39.318907530498485" lon="8.972669484419427"><ele>17.0</ele><time>2026-04-04T08:59:33Z</time></trkpt><trkpt lat="39.318899788851525" lon="8.972388046681777"><ele>16.0</ele><time>2026-04-04T08:59:34Z</time></trkpt><trkpt lat="39.31887572621246" lon="8.97209693864392"><ele>15.0</ele><time>2026-04-04T08:59:35Z</time></trkpt><trkpt lat="39.31883449869562" lon="8.971803250928566"><ele>15.0</ele><time>2026-04-04T08:59:36Z</time></trkpt><trkpt lat="39.31878235432777" lon="8.971507814190865"><ele>15.0</ele><time>2026-04-04T08:59:37Z</time></trkpt><trkpt lat="39.3187240416432" lon="8.971209798880496"><ele>15.0</ele><time>2026-04-04T08:59:38Z</time></trkpt><trkpt lat="39.318658490325745" lon="8.970915461733812"><ele>15.0</ele><time>2026-04-04T08:59:39Z</time></trkpt><trkpt lat="39.31858455730811" lon="8.97062306779075"><ele>15.0</ele><time>2026-04-04T08:59:40Z</time></trkpt><trkpt lat="39.318506111593486" lon="8.970330323531126"><ele>15.0</ele><time>2026-04-04T08:59:41Z</time></trkpt><trkpt lat="39.31842518851815" lon="8.970039499689694"><ele>14.0</ele><time>2026-04-04T08:59:42Z</time></trkpt><trkpt lat="39.318337060338166" lon="8.969755384886266"><ele>13.0</ele><time>2026-04-04T08:59:43Z</time></trkpt><trkpt lat="39.318236382895165" lon="8.969482476198685"><ele>13.0</ele><time>2026-04-04T08:59:44Z</time></trkpt><trkpt lat="39.31812550923008" lon="8.96922084921165"><ele>13.0</ele><time>2026-04-04T08:59:45Z</time></trkpt><trkpt lat="39.3180061162659" lon="8.968971648674477"><ele>12.666666666666666</ele><time>2026-04-04T08:59:46Z</time></trkpt><trkpt lat="39.31787896902709" lon="8.968731689552941"><ele>12.333333333333332</ele><time>2026-04-04T08:59:47Z</time></trkpt><trkpt lat="39.317745070204175" lon="8.968502499986275"><ele>12.0</ele><time>2026-04-04T08:59:48Z</time></trkpt><trkpt lat="39.31760534862893" lon="8.968277982763851"><ele>12.0</ele><time>2026-04-04T08:59:49Z</time></trkpt><trkpt lat="39.317460702927974" lon="8.96806314799554"><ele>12.0</ele><time>2026-04-04T08:59:50Z</time></trkpt><trkpt lat="39.31730979188277" lon="8.967855727277891"><ele>12.0</ele><time>2026-04-04T08:59:51Z</time></trkpt><trkpt lat="39.31715571078105" lon="8.967651409394614"><ele>10.333333333333334</ele><time>2026-04-04T08:59:52Z</time></trkpt><trkpt lat="39.317003988740005" lon="8.967445009806669"><ele>8.666666666666668</ele><time>2026-04-04T08:59:53Z</time></trkpt><trkpt lat="39.31685460848149" lon="8.967235436621543"><ele>7.0</ele><time>2026-04-04T08:59:54Z</time></trkpt><trkpt lat="39.31670125082378" lon="8.967024346870929"><ele>7.0</ele><time>2026-04-04T08:59:55Z</time></trkpt><trkpt lat="39.31654576389499" lon="8.966814754355363"><ele>7.0</ele><time>2026-04-04T08:59:56Z</time></trkpt><trkpt lat="39.31638706388954" lon="8.966598362530949"><ele>8.0</ele><time>2026-04-04T08:59:57Z</time></trkpt><trkpt lat="39.3162284484741" lon="8.966379059827702"><ele>9.0</ele><time>2026-04-04T08:59:58Z</time></trkpt><trkpt lat="39.31606895437626" lon="8.96615520720846"><ele>9.0</ele><time>2026-04-04T08:59:59Z</time></trkpt><trkpt lat="39.31591153046291" lon="8.965933694099759"><ele>9.0</ele><time>2026-04-04T09:00:00Z</time></trkpt><trkpt lat="39.315751712821516" lon="8.965713191126936"><ele>9.5</ele><time>2026-04-04T09:00:01Z</time></trkpt><trkpt lat="39.31559203117427" lon="8.965497194096475"><ele>10.0</ele><time>2026-04-04T09:00:02Z</time></trkpt><trkpt lat="39.315432512831464" lon="8.96528267218985"><ele>10.5</ele><time>2026-04-04T09:00:03Z</time></trkpt><trkpt lat="39.31527314467578" lon="8.965068516100478"><ele>11.0</ele><time>2026-04-04T09:00:04Z</time></trkpt><trkpt lat="39.31511383923203" lon="8.964850991908763"><ele>11.0</ele><time>2026-04-04T09:00:05Z</time></trkpt><trkpt lat="39.314954745322375" lon="8.964633652350207"><ele>11.0</ele><time>2026-04-04T09:00:06Z</time></trkpt><trkpt lat="39.314794248592186" lon="8.964415100290253"><ele>10.0</ele><time>2026-04-04T09:00:07Z</time></trkpt><trkpt lat="39.31463363973179" lon="8.964192407418427"><ele>9.0</ele><time>2026-04-04T09:00:08Z</time></trkpt><trkpt lat="39.31447309920905" lon="8.963969939313547"><ele>9.0</ele><time>2026-04-04T09:00:09Z</time></trkpt><trkpt lat="39.31431072899344" lon="8.963744773547448"><ele>9.0</ele><time>2026-04-04T09:00:10Z</time></trkpt><trkpt lat="39.31414949845235" lon="8.963522446629137"><ele>9.0</ele><time>2026-04-04T09:00:11Z</time></trkpt><trkpt lat="39.31398590386712" lon="8.963298841819016"><ele>9.0</ele><time>2026-04-04T09:00:12Z</time></trkpt><trkpt lat="39.31382400335573" lon="8.96307866922167"><ele>9.0</ele><time>2026-04-04T09:00:13Z</time></trkpt><trkpt lat="39.31366277096169" lon="8.962860127558352"><ele>9.0</ele><time>2026-04-04T09:00:14Z</time></trkpt><trkpt lat="39.313501899624875" lon="8.962643337643206"><ele>8.5</ele><time>2026-04-04T09:00:15Z</time></trkpt><trkpt lat="39.3133445627041" lon="8.96242695338525"><ele>8.0</ele><time>2026-04-04T09:00:16Z</time></trkpt><trkpt lat="39.31318528736869" lon="8.962208604692576"><ele>9.0</ele><time>2026-04-04T09:00:17Z</time></trkpt><trkpt lat="39.31302609324451" lon="8.961989630563187"><ele>10.0</ele><time>2026-04-04T09:00:18Z</time></trkpt><trkpt lat="39.31287194240057" lon="8.961776344466415"><ele>10.5</ele><time>2026-04-04T09:00:19Z</time></trkpt><trkpt lat="39.31271601405901" lon="8.961563789527244"><ele>11.0</ele><time>2026-04-04T09:00:20Z</time></trkpt><trkpt lat="39.312559623872836" lon="8.961347048294481"><ele>11.0</ele><time>2026-04-04T09:00:21Z</time></trkpt><trkpt lat="39.31240036475259" lon="8.961136948470582"><ele>11.0</ele><time>2026-04-04T09:00:22Z</time></trkpt><trkpt lat="39.31224578877757" lon="8.960920529722204"><ele>9.333333333333332</ele><time>2026-04-04T09:00:23Z</time></trkpt><trkpt lat="39.31209426415697" lon="8.960711178333396"><ele>7.666666666666666</ele><time>2026-04-04T09:00:24Z</time></trkpt><trkpt lat="39.3119507368678" lon="8.96051329489322"><ele>6.0</ele><time>2026-04-04T09:00:25Z</time></trkpt><trkpt lat="39.31181501483542" lon="8.960328341110777"><ele>6.0</ele><time>2026-04-04T09:00:26Z</time></trkpt><trkpt lat="39.31168744182033" lon="8.960151958541891"><ele>6.0</ele><time>2026-04-04T09:00:27Z</time></trkpt><trkpt lat="39.31156967361083" lon="8.959988812455972"><ele>6.0</ele><time>2026-04-04T09:00:28Z</time></trkpt><trkpt lat="39.31146046894949" lon="8.95983936819091"><ele>6.25</ele><time>2026-04-04T09:00:29Z</time></trkpt><trkpt lat="39.31136559615906" lon="8.959714262428452"><ele>6.5</ele><time>2026-04-04T09:00:30Z</time></trkpt><trkpt lat="39.31127970402098" lon="8.959592730159185"><ele>6.75</ele><time>2026-04-04T09:00:31Z</time></trkpt><trkpt lat="39.31120907610542" lon="8.959484549406891"><ele>7.0</ele><time>2026-04-04T09:00:32Z</time></trkpt><trkpt lat="39.31116825614936" lon="8.959369447114458"><ele>7.5</ele><time>2026-04-04T09:00:33Z</time></trkpt><trkpt lat="39.31129249241662" lon="8.959162025191501"><ele>8.0</ele><time>2026-04-04T09:00:36Z</time></trkpt><trkpt lat="39.31137777101409" lon="8.95911243211633"><ele>8.5</ele><time>2026-04-04T09:00:37Z</time></trkpt><trkpt lat="39.31147314461279" lon="8.959043072047859"><ele>9.0</ele><time>2026-04-04T09:00:38Z</time></trkpt><trkpt lat="39.31157498978298" lon="8.958962807446758"><ele>9.0</ele><time>2026-04-04T09:00:39Z</time></trkpt><trkpt lat="39.311679066536364" lon="8.958882257852865"><ele>9.0</ele><time>2026-04-04T09:00:40Z</time></trkpt><trkpt lat="39.311765413799954" lon="8.958774845463575"><ele>9.0</ele><time>2026-04-04T09:00:41Z</time></trkpt><trkpt lat="39.311872295407326" lon="8.9587364886505"><ele>9.0</ele><time>2026-04-04T09:00:42Z</time></trkpt><trkpt lat="39.31197094706966" lon="8.958677702591007"><ele>9.0</ele><time>2026-04-04T09:00:43Z</time></trkpt><trkpt lat="39.31206613278762" lon="8.958612195592378"><ele>9.0</ele><time>2026-04-04T09:00:44Z</time></trkpt><trkpt lat="39.312167531383224" lon="8.95857745568788"><ele>9.0</ele><time>2026-04-04T09:00:45Z</time></trkpt><trkpt lat="39.3122701905069" lon="8.958554994854946"><ele>9.0</ele><time>2026-04-04T09:00:46Z</time></trkpt><trkpt lat="39.31239076136553" lon="8.958527458547664"><ele>9.0</ele><time>2026-04-04T09:00:47Z</time></trkpt><trkpt lat="39.31253799853952" lon="8.958593971670803"><ele>8.666666666666666</ele><time>2026-04-04T09:00:48Z</time></trkpt><trkpt lat="39.31268810721797" lon="8.958615971340146"><ele>8.333333333333332</ele><time>2026-04-04T09:00:49Z</time></trkpt><trkpt lat="39.312848300471586" lon="8.95865424468602"><ele>8.0</ele><time>2026-04-04T09:00:50Z</time></trkpt><trkpt lat="39.31301735002341" lon="8.958695018366953"><ele>8.333333333333332</ele><time>2026-04-04T09:00:51Z</time></trkpt><trkpt lat="39.31318513181932" lon="8.958734870577615"><ele>8.666666666666666</ele><time>2026-04-04T09:00:52Z</time></trkpt><trkpt lat="39.31335911211775" lon="8.958774609516446"><ele>9.0</ele><time>2026-04-04T09:00:53Z</time></trkpt><trkpt lat="39.313537055287874" lon="8.958814159164637"><ele>9.0</ele><time>2026-04-04T09:00:54Z</time></trkpt><trkpt lat="39.31371913097412" lon="8.958854846904504"><ele>9.0</ele><time>2026-04-04T09:00:55Z</time></trkpt><trkpt lat="39.31390059782981" lon="8.958895674770863"><ele>9.0</ele><time>2026-04-04T09:00:56Z</time></trkpt><trkpt lat="39.31408224313882" lon="8.958934731337452"><ele>8.666666666666666</ele><time>2026-04-04T09:00:57Z</time></trkpt><trkpt lat="39.3142599656746" lon="8.958975671656791"><ele>8.333333333333332</ele><time>2026-04-04T09:00:58Z</time></trkpt><trkpt lat="39.31443387644536" lon="8.959017197551756"><ele>8.0</ele><time>2026-04-04T09:00:59Z</time></trkpt><trkpt lat="39.31460484991468" lon="8.959057434738272"><ele>8.0</ele><time>2026-04-04T09:01:00Z</time></trkpt><trkpt lat="39.31477028586829" lon="8.959096902852686"><ele>8.0</ele><time>2026-04-04T09:01:01Z</time></trkpt><trkpt lat="39.3149260497912" lon="8.95913373418008"><ele>8.0</ele><time>2026-04-04T09:01:02Z</time></trkpt><trkpt lat="39.31508484083668" lon="8.959172844258728"><ele>8.0</ele><time>2026-04-04T09:01:03Z</time></trkpt><trkpt lat="39.315244637163275" lon="8.959209116326837"><ele>8.0</ele><time>2026-04-04T09:01:04Z</time></trkpt><trkpt lat="39.31539746734254" lon="8.959243060442525"><ele>8.0</ele><time>2026-04-04T09:01:05Z</time></trkpt><trkpt lat="39.31554964374158" lon="8.959279474284935"><ele>8.0</ele><time>2026-04-04T09:01:06Z</time></trkpt><trkpt lat="39.31570938080348" lon="8.959318759634126"><ele>8.0</ele><time>2026-04-04T09:01:07Z</time></trkpt><trkpt lat="39.31587326162417" lon="8.959357218186893"><ele>8.0</ele><time>2026-04-04T09:01:08Z</time></trkpt><trkpt lat="39.31603938093383" lon="8.959399982365232"><ele>8.0</ele><time>2026-04-04T09:01:09Z</time></trkpt><trkpt lat="39.31621177804575" lon="8.959440094548393"><ele>8.0</ele><time>2026-04-04T09:01:10Z</time></trkpt><trkpt lat="39.31638864341705" lon="8.9594812596527"><ele>8.0</ele><time>2026-04-04T09:01:11Z</time></trkpt><trkpt lat="39.31656941729939" lon="8.959522282735723"><ele>9.0</ele><time>2026-04-04T09:01:12Z</time></trkpt><trkpt lat="39.31675139850427" lon="8.95956396595889"><ele>10.0</ele><time>2026-04-04T09:01:13Z</time></trkpt><trkpt lat="39.31693061275335" lon="8.959604971778758"><ele>11.0</ele><time>2026-04-04T09:01:14Z</time></trkpt><trkpt lat="39.31711106476832" lon="8.959647237826742"><ele>11.333333333333332</ele><time>2026-04-04T09:01:15Z</time></trkpt><trkpt lat="39.31729194525615" lon="8.95968634230251"><ele>11.666666666666666</ele><time>2026-04-04T09:01:16Z</time></trkpt><trkpt lat="39.31747893110401" lon="8.959729130188244"><ele>12.0</ele><time>2026-04-04T09:01:17Z</time></trkpt><trkpt lat="39.31766547928665" lon="8.959772415040643"><ele>12.0</ele><time>2026-04-04T09:01:18Z</time></trkpt><trkpt lat="39.317856489102006" lon="8.959816892808119"><ele>12.0</ele><time>2026-04-04T09:01:19Z</time></trkpt><trkpt lat="39.318049645041874" lon="8.959862158701272"><ele>12.0</ele><time>2026-04-04T09:01:20Z</time></trkpt><trkpt lat="39.31824672447944" lon="8.95990743096765"><ele>11.333333333333334</ele><time>2026-04-04T09:01:21Z</time></trkpt><trkpt lat="39.318448637951484" lon="8.959955585120847"><ele>10.666666666666668</ele><time>2026-04-04T09:01:22Z</time></trkpt><trkpt lat="39.31865481903029" lon="8.960006133656492"><ele>10.0</ele><time>2026-04-04T09:01:23Z</time></trkpt><trkpt lat="39.318856553698375" lon="8.96005561465517"><ele>11.0</ele><time>2026-04-04T09:01:24Z</time></trkpt><trkpt lat="39.31906779623288" lon="8.960108872749048"><ele>12.0</ele><time>2026-04-04T09:01:25Z</time></trkpt><trkpt lat="39.319280984210295" lon="8.960162212003555"><ele>13.0</ele><time>2026-04-04T09:01:26Z</time></trkpt><trkpt lat="39.319501496942245" lon="8.960214620111318"><ele>13.0</ele><time>2026-04-04T09:01:27Z</time></trkpt><trkpt lat="39.31972425741596" lon="8.96026544891004"><ele>13.0</ele><time>2026-04-04T09:01:28Z</time></trkpt><trkpt lat="39.31994866720827" lon="8.960315569271811"><ele>13.0</ele><time>2026-04-04T09:01:29Z</time></trkpt><trkpt lat="39.32017609848085" lon="8.96037352193007"><ele>13.0</ele><time>2026-04-04T09:01:30Z</time></trkpt><trkpt lat="39.32040457447419" lon="8.960440026665301"><ele>12.5</ele><time>2026-04-04T09:01:31Z</time></trkpt><trkpt lat="39.320634429496316" lon="8.96051622389363"><ele>12.0</ele><time>2026-04-04T09:01:32Z</time></trkpt><trkpt lat="39.32086700138932" lon="8.960596130639983"><ele>12.0</ele><time>2026-04-04T09:01:33Z</time></trkpt><trkpt lat="39.321097977034725" lon="8.96067706325115"><ele>12.0</ele><time>2026-04-04T09:01:34Z</time></trkpt><trkpt lat="39.32133251396598" lon="8.960761036038017"><ele>11.5</ele><time>2026-04-04T09:01:35Z</time></trkpt><trkpt lat="39.32156760212642" lon="8.960849463691515"><ele>11.0</ele><time>2026-04-04T09:01:36Z</time></trkpt><trkpt lat="39.3218061673971" lon="8.96093999534142"><ele>11.0</ele><time>2026-04-04T09:01:37Z</time></trkpt><trkpt lat="39.32204916556655" lon="8.961030981810367"><ele>11.0</ele><time>2026-04-04T09:01:38Z</time></trkpt><trkpt lat="39.32229567640186" lon="8.961121439250729"><ele>11.5</ele><time>2026-04-04T09:01:39Z</time></trkpt><trkpt lat="39.32254417246918" lon="8.961213882566652"><ele>12.0</ele><time>2026-04-04T09:01:40Z</time></trkpt><trkpt lat="39.32278819670934" lon="8.961307306221475"><ele>12.0</ele><time>2026-04-04T09:01:41Z</time></trkpt><trkpt lat="39.32301518430762" lon="8.96139491687369"><ele>12.0</ele><time>2026-04-04T09:01:42Z</time></trkpt><trkpt lat="39.32324317267253" lon="8.961479397759124"><ele>12.0</ele><time>2026-04-04T09:01:43Z</time></trkpt><trkpt lat="39.32346406995683" lon="8.961557941422491"><ele>12.0</ele><time>2026-04-04T09:01:44Z</time></trkpt><trkpt lat="39.32367601789961" lon="8.96162833830526"><ele>12.0</ele><time>2026-04-04T09:01:45Z</time></trkpt><trkpt lat="39.32389012469544" lon="8.961687874345404"><ele>12.333333333333332</ele><time>2026-04-04T09:01:46Z</time></trkpt><trkpt lat="39.32410586792794" lon="8.961711605735701"><ele>12.666666666666666</ele><time>2026-04-04T09:01:47Z</time></trkpt><trkpt lat="39.32432999107044" lon="8.961693768992493"><ele>13.0</ele><time>2026-04-04T09:01:48Z</time></trkpt><trkpt lat="39.324552183670285" lon="8.961654871002418"><ele>14.5</ele><time>2026-04-04T09:01:49Z</time></trkpt><trkpt lat="39.32477405746884" lon="8.961570932783472"><ele>16.0</ele><time>2026-04-04T09:01:50Z</time></trkpt><trkpt lat="39.32499130702469" lon="8.961450419636963"><ele>16.0</ele><time>2026-04-04T09:01:51Z</time></trkpt><trkpt lat="39.325202412574086" lon="8.961300434964965"><ele>16.0</ele><time>2026-04-04T09:01:52Z</time></trkpt><trkpt lat="39.325404433928554" lon="8.961127131160852"><ele>15.5</ele><time>2026-04-04T09:01:53Z</time></trkpt><trkpt lat="39.325601982610586" lon="8.960950441610551"><ele>15.0</ele><time>2026-04-04T09:01:54Z</time></trkpt><trkpt lat="39.32579740533201" lon="8.960775586563202"><ele>15.0</ele><time>2026-04-04T09:01:55Z</time></trkpt><trkpt lat="39.32599447879488" lon="8.960599765287975"><ele>15.0</ele><time>2026-04-04T09:01:56Z</time></trkpt><trkpt lat="39.326188432196034" lon="8.96042351988197"><ele>15.0</ele><time>2026-04-04T09:01:57Z</time></trkpt><trkpt lat="39.326385208483885" lon="8.960247250963452"><ele>15.0</ele><time>2026-04-04T09:01:58Z</time></trkpt><trkpt lat="39.326584903498194" lon="8.960069896670511"><ele>13.5</ele><time>2026-04-04T09:01:59Z</time></trkpt><trkpt lat="39.32678309069448" lon="8.95989423180744"><ele>12.0</ele><time>2026-04-04T09:02:00Z</time></trkpt><trkpt lat="39.32697966458018" lon="8.959720398994575"><ele>12.0</ele><time>2026-04-04T09:02:01Z</time></trkpt><trkpt lat="39.327172427794174" lon="8.959553735726582"><ele>12.0</ele><time>2026-04-04T09:02:02Z</time></trkpt><trkpt lat="39.32736057533079" lon="8.959395025777473"><ele>12.333333333333332</ele><time>2026-04-04T09:02:03Z</time></trkpt><trkpt lat="39.32754767920386" lon="8.959241012543488"><ele>12.666666666666666</ele><time>2026-04-04T09:02:04Z</time></trkpt><trkpt lat="39.32772827175373" lon="8.959087579176435"><ele>13.0</ele><time>2026-04-04T09:02:05Z</time></trkpt><trkpt lat="39.32790127529665" lon="8.95893029081173"><ele>13.0</ele><time>2026-04-04T09:02:06Z</time></trkpt><trkpt lat="39.328073076902434" lon="8.958772501807768"><ele>13.0</ele><time>2026-04-04T09:02:07Z</time></trkpt><trkpt lat="39.32824680016357" lon="8.95861416215234"><ele>13.0</ele><time>2026-04-04T09:02:08Z</time></trkpt><trkpt lat="39.328415232088204" lon="8.958466760799285"><ele>13.333333333333332</ele><time>2026-04-04T09:02:09Z</time></trkpt><trkpt lat="39.32858508906747" lon="8.958313489971381"><ele>13.666666666666668</ele><time>2026-04-04T09:02:10Z</time></trkpt><trkpt lat="39.328752717361404" lon="8.958161284452444"><ele>14.0</ele><time>2026-04-04T09:02:11Z</time></trkpt><trkpt lat="39.328917932479406" lon="8.958010203618588"><ele>14.0</ele><time>2026-04-04T09:02:12Z</time></trkpt><trkpt lat="39.329081891532645" lon="8.957859675177465"><ele>14.0</ele><time>2026-04-04T09:02:13Z</time></trkpt><trkpt lat="39.32924021783547" lon="8.957712942983502"><ele>14.0</ele><time>2026-04-04T09:02:14Z</time></trkpt><trkpt lat="39.32939308062451" lon="8.957572224355197"><ele>13.666666666666668</ele><time>2026-04-04T09:02:15Z</time></trkpt><trkpt lat="39.32954225212884" lon="8.957434087264533"><ele>13.333333333333332</ele><time>2026-04-04T09:02:16Z</time></trkpt><trkpt lat="39.32969222097381" lon="8.957294179374003"><ele>13.0</ele><time>2026-04-04T09:02:17Z</time></trkpt><trkpt lat="39.329843428874646" lon="8.95715320708776"><ele>13.0</ele><time>2026-04-04T09:02:18Z</time></trkpt><trkpt lat="39.32999710455694" lon="8.957015424247817"><ele>13.0</ele><time>2026-04-04T09:02:19Z</time></trkpt><trkpt lat="39.33015496085295" lon="8.956881744514"><ele>13.0</ele><time>2026-04-04T09:02:20Z</time></trkpt><trkpt lat="39.330316698220905" lon="8.956750581042627"><ele>13.0</ele><time>2026-04-04T09:02:21Z</time></trkpt><trkpt lat="39.33047554862234" lon="8.956623879980059"><ele>13.0</ele><time>2026-04-04T09:02:22Z</time></trkpt><trkpt lat="39.330632348058266" lon="8.956499902262482"><ele>13.0</ele><time>2026-04-04T09:02:23Z</time></trkpt><trkpt lat="39.330786274460486" lon="8.956378799323904"><ele>13.333333333333332</ele><time>2026-04-04T09:02:24Z</time></trkpt><trkpt lat="39.33093325199826" lon="8.956265020310397"><ele>13.666666666666668</ele><time>2026-04-04T09:02:25Z</time></trkpt><trkpt lat="39.3310841118289" lon="8.956151579554867"><ele>14.0</ele><time>2026-04-04T09:02:26Z</time></trkpt><trkpt lat="39.33123858418705" lon="8.95603412252915"><ele>14.0</ele><time>2026-04-04T09:02:27Z</time></trkpt><trkpt lat="39.33139585870716" lon="8.955914602608617"><ele>14.0</ele><time>2026-04-04T09:02:28Z</time></trkpt><trkpt lat="39.33155812999812" lon="8.955793309007245"><ele>14.0</ele><time>2026-04-04T09:02:29Z</time></trkpt><trkpt lat="39.33172070946576" lon="8.955673003586815"><ele>14.0</ele><time>2026-04-04T09:02:30Z</time></trkpt><trkpt lat="39.33188723551167" lon="8.955552310740133"><ele>14.0</ele><time>2026-04-04T09:02:31Z</time></trkpt><trkpt lat="39.33205482484409" lon="8.955433996217605"><ele>14.0</ele><time>2026-04-04T09:02:32Z</time></trkpt><trkpt lat="39.33221739038947" lon="8.955320675088904"><ele>14.0</ele><time>2026-04-04T09:02:33Z</time></trkpt><trkpt lat="39.33237391733435" lon="8.955210179876573"><ele>14.0</ele><time>2026-04-04T09:02:34Z</time></trkpt><trkpt lat="39.332526445257294" lon="8.955104571344894"><ele>14.0</ele><time>2026-04-04T09:02:35Z</time></trkpt><trkpt lat="39.332678529582715" lon="8.955000301869296"><ele>14.333333333333334</ele><time>2026-04-04T09:02:36Z</time></trkpt><trkpt lat="39.332829750834016" lon="8.954898085712138"><ele>14.666666666666668</ele><time>2026-04-04T09:02:37Z</time></trkpt><trkpt lat="39.332983173622324" lon="8.954797595108952"><ele>15.0</ele><time>2026-04-04T09:02:38Z</time></trkpt><trkpt lat="39.333137773174755" lon="8.954698615961457"><ele>15.0</ele><time>2026-04-04T09:02:39Z</time></trkpt><trkpt lat="39.3332894853935" lon="8.954603027960099"><ele>15.0</ele><time>2026-04-04T09:02:40Z</time></trkpt><trkpt lat="39.333440917388096" lon="8.954506820911345"><ele>15.0</ele><time>2026-04-04T09:02:41Z</time></trkpt><trkpt lat="39.333595418972635" lon="8.954408918050655"><ele>15.0</ele><time>2026-04-04T09:02:42Z</time></trkpt><trkpt lat="39.333749817246385" lon="8.954311698811827"><ele>15.0</ele><time>2026-04-04T09:02:43Z</time></trkpt><trkpt lat="39.33390683266672" lon="8.954214906777613"><ele>15.0</ele><time>2026-04-04T09:02:44Z</time></trkpt><trkpt lat="39.33406746343338" lon="8.954118478337223"><ele>15.0</ele><time>2026-04-04T09:02:45Z</time></trkpt><trkpt lat="39.334230997494174" lon="8.954024528076307"><ele>15.0</ele><time>2026-04-04T09:02:46Z</time></trkpt><trkpt lat="39.334398696815406" lon="8.953928184607706"><ele>15.0</ele><time>2026-04-04T09:02:47Z</time></trkpt><trkpt lat="39.3345682571506" lon="8.953830997524436"><ele>15.0</ele><time>2026-04-04T09:02:48Z</time></trkpt><trkpt lat="39.33473855587138" lon="8.953734161426723"><ele>15.0</ele><time>2026-04-04T09:02:49Z</time></trkpt><trkpt lat="39.33491218024179" lon="8.953631145819152"><ele>15.0</ele><time>2026-04-04T09:02:50Z</time></trkpt><trkpt lat="39.33509072479465" lon="8.953528499011275"><ele>15.0</ele><time>2026-04-04T09:02:51Z</time></trkpt><trkpt lat="39.33527525822831" lon="8.953431200378285"><ele>15.0</ele><time>2026-04-04T09:02:52Z</time></trkpt><trkpt lat="39.33546376017388" lon="8.953337472787055"><ele>15.0</ele><time>2026-04-04T09:02:53Z</time></trkpt><trkpt lat="39.33565392840855" lon="8.95323750967444"><ele>15.333333333333332</ele><time>2026-04-04T09:02:54Z</time></trkpt><trkpt lat="39.335843269367" lon="8.953135101910613"><ele>15.666666666666666</ele><time>2026-04-04T09:02:55Z</time></trkpt><trkpt lat="39.33603369801615" lon="8.953032654697843"><ele>16.0</ele><time>2026-04-04T09:02:56Z</time></trkpt><trkpt lat="39.336226236882375" lon="8.952930257647035"><ele>16.0</ele><time>2026-04-04T09:02:57Z</time></trkpt><trkpt lat="39.33641895330946" lon="8.952829327263592"><ele>16.0</ele><time>2026-04-04T09:02:58Z</time></trkpt><trkpt lat="39.336613728839254" lon="8.952726594839154"><ele>16.0</ele><time>2026-04-04T09:02:59Z</time></trkpt><trkpt lat="39.3368075979734" lon="8.952623782374193"><ele>15.666666666666666</ele><time>2026-04-04T09:03:00Z</time></trkpt><trkpt lat="39.337004156824" lon="8.952517953105014"><ele>15.333333333333332</ele><time>2026-04-04T09:03:01Z</time></trkpt><trkpt lat="39.33719791562156" lon="8.952412049577067"><ele>15.0</ele><time>2026-04-04T09:03:02Z</time></trkpt><trkpt lat="39.33739299686076" lon="8.952305429979083"><ele>15.0</ele><time>2026-04-04T09:03:03Z</time></trkpt><trkpt lat="39.337587376237074" lon="8.95220077070776"><ele>15.0</ele><time>2026-04-04T09:03:04Z</time></trkpt><trkpt lat="39.33778096723533" lon="8.95209659057908"><ele>15.0</ele><time>2026-04-04T09:03:05Z</time></trkpt><trkpt lat="39.337973290642694" lon="8.95199296482853"><ele>15.0</ele><time>2026-04-04T09:03:06Z</time></trkpt><trkpt lat="39.33817028750345" lon="8.951888713950865"><ele>15.0</ele><time>2026-04-04T09:03:07Z</time></trkpt><trkpt lat="39.33856646934589" lon="8.951675415896162"><ele>15.333333333333332</ele><time>2026-04-04T09:03:09Z</time></trkpt><trkpt lat="39.3387664399241" lon="8.951567114711697"><ele>15.666666666666666</ele><time>2026-04-04T09:03:10Z</time></trkpt><trkpt lat="39.33896955104624" lon="8.951458226313232"><ele>16.0</ele><time>2026-04-04T09:03:11Z</time></trkpt><trkpt lat="39.33917307278466" lon="8.951346982306493"><ele>16.0</ele><time>2026-04-04T09:03:12Z</time></trkpt><trkpt lat="39.33937755895975" lon="8.95123430070751"><ele>16.0</ele><time>2026-04-04T09:03:13Z</time></trkpt><trkpt lat="39.33958260763559" lon="8.951121984825006"><ele>16.0</ele><time>2026-04-04T09:03:14Z</time></trkpt><trkpt lat="39.33978689131002" lon="8.951011638164877"><ele>16.0</ele><time>2026-04-04T09:03:15Z</time></trkpt><trkpt lat="39.339990226004545" lon="8.950902794127801"><ele>16.0</ele><time>2026-04-04T09:03:16Z</time></trkpt><trkpt lat="39.3401933780065" lon="8.950793956382757"><ele>16.0</ele><time>2026-04-04T09:03:17Z</time></trkpt><trkpt lat="39.34039434266059" lon="8.95068682183303"><ele>16.0</ele><time>2026-04-04T09:03:18Z</time></trkpt><trkpt lat="39.34059250033274" lon="8.950581629162736"><ele>16.0</ele><time>2026-04-04T09:03:19Z</time></trkpt><trkpt lat="39.340791364816226" lon="8.950476201775048"><ele>16.0</ele><time>2026-04-04T09:03:20Z</time></trkpt><trkpt lat="39.34098893622637" lon="8.950371783097825"><ele>16.0</ele><time>2026-04-04T09:03:21Z</time></trkpt><trkpt lat="39.34118648097465" lon="8.95026543237801"><ele>16.0</ele><time>2026-04-04T09:03:22Z</time></trkpt><trkpt lat="39.34138510718494" lon="8.950157282701388"><ele>16.0</ele><time>2026-04-04T09:03:23Z</time></trkpt><trkpt lat="39.34158605772187" lon="8.950048125194222"><ele>16.0</ele><time>2026-04-04T09:03:24Z</time></trkpt><trkpt lat="39.34179107426538" lon="8.94993469203615"><ele>16.0</ele><time>2026-04-04T09:03:25Z</time></trkpt><trkpt lat="39.34196751357599" lon="8.949841186711906"><ele>16.0</ele><time>2026-04-04T09:03:26Z</time></trkpt><trkpt lat="39.34216227201794" lon="8.949737117321709"><ele>16.666666666666664</ele><time>2026-04-04T09:03:27Z</time></trkpt><trkpt lat="39.34236122489589" lon="8.949628781803698"><ele>17.333333333333332</ele><time>2026-04-04T09:03:28Z</time></trkpt><trkpt lat="39.34256613876035" lon="8.949514693702936"><ele>18.0</ele><time>2026-04-04T09:03:29Z</time></trkpt><trkpt lat="39.342774602407374" lon="8.949400594680666"><ele>18.0</ele><time>2026-04-04T09:03:30Z</time></trkpt><trkpt lat="39.342982342231515" lon="8.949289874927953"><ele>18.0</ele><time>2026-04-04T09:03:31Z</time></trkpt><trkpt lat="39.34319224598713" lon="8.949179109813866"><ele>17.666666666666668</ele><time>2026-04-04T09:03:32Z</time></trkpt><trkpt lat="39.34333719457852" lon="8.949106540278317"><ele>17.333333333333336</ele><time>2026-04-04T09:03:33Z</time></trkpt><trkpt lat="39.34353495260354" lon="8.949000624770274"><ele>17.0</ele><time>2026-04-04T09:03:34Z</time></trkpt><trkpt lat="39.343730319317" lon="8.948891323481579"><ele>17.666666666666668</ele><time>2026-04-04T09:03:35Z</time></trkpt><trkpt lat="39.34392680840064" lon="8.948786858776765"><ele>18.333333333333332</ele><time>2026-04-04T09:03:36Z</time></trkpt><trkpt lat="39.34412349036534" lon="8.948681885632618"><ele>19.0</ele><time>2026-04-04T09:03:37Z</time></trkpt><trkpt lat="39.344321603405774" lon="8.948573790327583"><ele>19.0</ele><time>2026-04-04T09:03:38Z</time></trkpt><trkpt lat="39.34452040778835" lon="8.948464210481344"><ele>19.0</ele><time>2026-04-04T09:03:39Z</time></trkpt><trkpt lat="39.34471753417672" lon="8.948355025596276"><ele>19.0</ele><time>2026-04-04T09:03:40Z</time></trkpt><trkpt lat="39.34491566289816" lon="8.948244611093259"><ele>19.333333333333332</ele><time>2026-04-04T09:03:41Z</time></trkpt><trkpt lat="39.34511410242795" lon="8.948139347312015"><ele>19.666666666666668</ele><time>2026-04-04T09:03:42Z</time></trkpt><trkpt lat="39.34531041394301" lon="8.948035566785627"><ele>20.0</ele><time>2026-04-04T09:03:43Z</time></trkpt><trkpt lat="39.34550252005725" lon="8.947932206455176"><ele>19.333333333333336</ele><time>2026-04-04T09:03:44Z</time></trkpt><trkpt lat="39.34569201355983" lon="8.947829154072274"><ele>18.666666666666668</ele><time>2026-04-04T09:03:45Z</time></trkpt><trkpt lat="39.3458795989826" lon="8.947726420326658"><ele>18.0</ele><time>2026-04-04T09:03:46Z</time></trkpt><trkpt lat="39.3460663403283" lon="8.947626238817701"><ele>18.333333333333332</ele><time>2026-04-04T09:03:47Z</time></trkpt><trkpt lat="39.34625342378286" lon="8.94752744629396"><ele>18.666666666666664</ele><time>2026-04-04T09:03:48Z</time></trkpt><trkpt lat="39.34644174925828" lon="8.947424520072383"><ele>19.0</ele><time>2026-04-04T09:03:49Z</time></trkpt><trkpt lat="39.346629270260095" lon="8.947320996512145"><ele>18.0</ele><time>2026-04-04T09:03:50Z</time></trkpt><trkpt lat="39.34681854966947" lon="8.947218203169417"><ele>17.0</ele><time>2026-04-04T09:03:51Z</time></trkpt><trkpt lat="39.34700758092945" lon="8.947113235494324"><ele>16.0</ele><time>2026-04-04T09:03:52Z</time></trkpt><trkpt lat="39.34719736798456" lon="8.94701285634193"><ele>16.333333333333332</ele><time>2026-04-04T09:03:53Z</time></trkpt><trkpt lat="39.347387517932724" lon="8.946911570046872"><ele>16.666666666666668</ele><time>2026-04-04T09:03:54Z</time></trkpt><trkpt lat="39.347578056316685" lon="8.94681619718315"><ele>17.0</ele><time>2026-04-04T09:03:55Z</time></trkpt><trkpt lat="39.34776839326738" lon="8.946723415976528"><ele>17.0</ele><time>2026-04-04T09:03:56Z</time></trkpt><trkpt lat="39.34795665534801" lon="8.946634419855776"><ele>17.0</ele><time>2026-04-04T09:03:57Z</time></trkpt><trkpt lat="39.348146112250596" lon="8.946543233599817"><ele>17.0</ele><time>2026-04-04T09:03:58Z</time></trkpt><trkpt lat="39.34833096682306" lon="8.94644764775091"><ele>17.333333333333336</ele><time>2026-04-04T09:03:59Z</time></trkpt><trkpt lat="39.348514826726365" lon="8.946350011781796"><ele>17.666666666666668</ele><time>2026-04-04T09:04:00Z</time></trkpt><trkpt lat="39.34870115590875" lon="8.946248567271002"><ele>18.0</ele><time>2026-04-04T09:04:01Z</time></trkpt><trkpt lat="39.34888633587979" lon="8.946146492987673"><ele>18.666666666666668</ele><time>2026-04-04T09:04:02Z</time></trkpt><trkpt lat="39.34906949262779" lon="8.946046524035806"><ele>19.333333333333336</ele><time>2026-04-04T09:04:03Z</time></trkpt><trkpt lat="39.349257206649476" lon="8.945943338981426"><ele>20.0</ele><time>2026-04-04T09:04:04Z</time></trkpt><trkpt lat="39.349442775021096" lon="8.945843619034974"><ele>20.0</ele><time>2026-04-04T09:04:05Z</time></trkpt><trkpt lat="39.349630219625325" lon="8.945743859681714"><ele>20.0</ele><time>2026-04-04T09:04:06Z</time></trkpt><trkpt lat="39.34981897748777" lon="8.945644291368627"><ele>20.0</ele><time>2026-04-04T09:04:07Z</time></trkpt><trkpt lat="39.350008969356345" lon="8.945544645673413"><ele>20.333333333333336</ele><time>2026-04-04T09:04:08Z</time></trkpt><trkpt lat="39.35020000727962" lon="8.945448742081478"><ele>20.666666666666668</ele><time>2026-04-04T09:04:09Z</time></trkpt><trkpt lat="39.35039176842017" lon="8.945356581407697"><ele>21.0</ele><time>2026-04-04T09:04:10Z</time></trkpt><trkpt lat="39.350590389445856" lon="8.945270681738414"><ele>21.0</ele><time>2026-04-04T09:04:11Z</time></trkpt><trkpt lat="39.35078609871182" lon="8.945195035282614"><ele>21.0</ele><time>2026-04-04T09:04:12Z</time></trkpt><trkpt lat="39.3509890818662" lon="8.945123260849767"><ele>21.0</ele><time>2026-04-04T09:04:13Z</time></trkpt><trkpt lat="39.351190429543216" lon="8.94505922204219"><ele>21.0</ele><time>2026-04-04T09:04:14Z</time></trkpt><trkpt lat="39.35139653609808" lon="8.944995885361974"><ele>21.0</ele><time>2026-04-04T09:04:15Z</time></trkpt><trkpt lat="39.351601173476084" lon="8.94493914063123"><ele>21.0</ele><time>2026-04-04T09:04:16Z</time></trkpt><trkpt lat="39.351809046846085" lon="8.94488209214226"><ele>21.0</ele><time>2026-04-04T09:04:17Z</time></trkpt><trkpt lat="39.35202025894911" lon="8.944827616358406"><ele>21.0</ele><time>2026-04-04T09:04:18Z</time></trkpt><trkpt lat="39.35223150919156" lon="8.944776387960477"><ele>21.0</ele><time>2026-04-04T09:04:19Z</time></trkpt><trkpt lat="39.352440559077486" lon="8.944736630011867"><ele>21.333333333333332</ele><time>2026-04-04T09:04:20Z</time></trkpt><trkpt lat="39.3526513433419" lon="8.944698112506156"><ele>21.666666666666664</ele><time>2026-04-04T09:04:21Z</time></trkpt><trkpt lat="39.35286643815007" lon="8.944664401482791"><ele>22.0</ele><time>2026-04-04T09:04:22Z</time></trkpt><trkpt lat="39.35307814126898" lon="8.944631312992156"><ele>22.333333333333332</ele><time>2026-04-04T09:04:23Z</time></trkpt><trkpt lat="39.35329186010704" lon="8.94459987262355"><ele>22.666666666666668</ele><time>2026-04-04T09:04:24Z</time></trkpt><trkpt lat="39.35350432911064" lon="8.94456679733845"><ele>23.0</ele><time>2026-04-04T09:04:25Z</time></trkpt><trkpt lat="39.353716915104066" lon="8.944534005828544"><ele>23.0</ele><time>2026-04-04T09:04:26Z</time></trkpt><trkpt lat="39.35392656427298" lon="8.94450425727566"><ele>23.0</ele><time>2026-04-04T09:04:27Z</time></trkpt><trkpt lat="39.35413898917066" lon="8.944471842463845"><ele>23.0</ele><time>2026-04-04T09:04:28Z</time></trkpt><trkpt lat="39.35435308827916" lon="8.944438231065984"><ele>23.0</ele><time>2026-04-04T09:04:29Z</time></trkpt><trkpt lat="39.354568622893865" lon="8.944405745945677"><ele>23.0</ele><time>2026-04-04T09:04:30Z</time></trkpt><trkpt lat="39.3547816395625" lon="8.944373765166855"><ele>23.0</ele><time>2026-04-04T09:04:31Z</time></trkpt><trkpt lat="39.35499575057361" lon="8.944340186579732"><ele>23.0</ele><time>2026-04-04T09:04:32Z</time></trkpt><trkpt lat="39.355209893541925" lon="8.944306462924628"><ele>23.0</ele><time>2026-04-04T09:04:33Z</time></trkpt><trkpt lat="39.355425959957465" lon="8.944274877293816"><ele>23.0</ele><time>2026-04-04T09:04:34Z</time></trkpt><trkpt lat="39.35564081317294" lon="8.94424204671169"><ele>22.666666666666668</ele><time>2026-04-04T09:04:35Z</time></trkpt><trkpt lat="39.35585543688427" lon="8.944211435605155"><ele>22.333333333333332</ele><time>2026-04-04T09:04:36Z</time></trkpt><trkpt lat="39.35606927655787" lon="8.944178853069085"><ele>22.0</ele><time>2026-04-04T09:04:37Z</time></trkpt><trkpt lat="39.35628333811154" lon="8.944145729173627"><ele>22.333333333333332</ele><time>2026-04-04T09:04:38Z</time></trkpt><trkpt lat="39.35649579271551" lon="8.944112091619802"><ele>22.666666666666668</ele><time>2026-04-04T09:04:39Z</time></trkpt><trkpt lat="39.356708606816476" lon="8.944078895894753"><ele>23.0</ele><time>2026-04-04T09:04:40Z</time></trkpt><trkpt lat="39.356918832554925" lon="8.944045017730094"><ele>23.0</ele><time>2026-04-04T09:04:41Z</time></trkpt><trkpt lat="39.35712818456103" lon="8.944013985386075"><ele>23.0</ele><time>2026-04-04T09:04:42Z</time></trkpt><trkpt lat="39.35733827075648" lon="8.943985376599885"><ele>23.0</ele><time>2026-04-04T09:04:43Z</time></trkpt><trkpt lat="39.35754597384852" lon="8.943955087117454"><ele>23.333333333333336</ele><time>2026-04-04T09:04:44Z</time></trkpt><trkpt lat="39.35775268857037" lon="8.943924672986443"><ele>23.666666666666668</ele><time>2026-04-04T09:04:45Z</time></trkpt><trkpt lat="39.35796016657844" lon="8.94388945164646"><ele>24.0</ele><time>2026-04-04T09:04:46Z</time></trkpt><trkpt lat="39.358169173067054" lon="8.943856930202864"><ele>24.0</ele><time>2026-04-04T09:04:47Z</time></trkpt><trkpt lat="39.358378986004325" lon="8.94382357362882"><ele>24.0</ele><time>2026-04-04T09:04:48Z</time></trkpt><trkpt lat="39.35859344588363" lon="8.943791025613843"><ele>24.0</ele><time>2026-04-04T09:04:49Z</time></trkpt><trkpt lat="39.358807036233024" lon="8.943759369831685"><ele>24.0</ele><time>2026-04-04T09:04:50Z</time></trkpt><trkpt lat="39.35901917984183" lon="8.94372716308817"><ele>24.0</ele><time>2026-04-04T09:04:51Z</time></trkpt><trkpt lat="39.35923089437609" lon="8.943694098055378"><ele>24.0</ele><time>2026-04-04T09:04:52Z</time></trkpt><trkpt lat="39.35944053203172" lon="8.943659600784065"><ele>24.0</ele><time>2026-04-04T09:04:53Z</time></trkpt><trkpt lat="39.359646321316376" lon="8.94362702722541"><ele>24.0</ele><time>2026-04-04T09:04:54Z</time></trkpt><trkpt lat="39.359850030180745" lon="8.94359648862535"><ele>24.0</ele><time>2026-04-04T09:04:55Z</time></trkpt><trkpt lat="39.36005208257666" lon="8.943567450493662"><ele>24.0</ele><time>2026-04-04T09:04:56Z</time></trkpt><trkpt lat="39.360248923628845" lon="8.943537168404701"><ele>24.0</ele><time>2026-04-04T09:04:57Z</time></trkpt><trkpt lat="39.36043826527693" lon="8.943507215839983"><ele>24.0</ele><time>2026-04-04T09:04:58Z</time></trkpt><trkpt lat="39.36062093081651" lon="8.943476765850367"><ele>24.0</ele><time>2026-04-04T09:04:59Z</time></trkpt><trkpt lat="39.36080739163559" lon="8.94344773826678"><ele>24.0</ele><time>2026-04-04T09:05:00Z</time></trkpt><trkpt lat="39.36099088361951" lon="8.943419829029734"><ele>24.0</ele><time>2026-04-04T09:05:01Z</time></trkpt><trkpt lat="39.361178504447956" lon="8.943390959104073"><ele>24.0</ele><time>2026-04-04T09:05:02Z</time></trkpt><trkpt lat="39.36136469191686" lon="8.943361571061988"><ele>24.0</ele><time>2026-04-04T09:05:03Z</time></trkpt><trkpt lat="39.361548709195226" lon="8.943332208612794"><ele>24.0</ele><time>2026-04-04T09:05:04Z</time></trkpt><trkpt lat="39.361735138173586" lon="8.94330250947121"><ele>24.0</ele><time>2026-04-04T09:05:05Z</time></trkpt><trkpt lat="39.361920900041994" lon="8.943273109937735"><ele>24.0</ele><time>2026-04-04T09:05:06Z</time></trkpt><trkpt lat="39.36210607931393" lon="8.943245002606407"><ele>24.0</ele><time>2026-04-04T09:05:07Z</time></trkpt><trkpt lat="39.36229589350592" lon="8.943215540458274"><ele>24.333333333333336</ele><time>2026-04-04T09:05:08Z</time></trkpt><trkpt lat="39.36248422178392" lon="8.943184597154861"><ele>24.666666666666668</ele><time>2026-04-04T09:05:09Z</time></trkpt><trkpt lat="39.36267173552578" lon="8.943153871600916"><ele>25.0</ele><time>2026-04-04T09:05:10Z</time></trkpt><trkpt lat="39.36285792806315" lon="8.943126334471842"><ele>24.666666666666668</ele><time>2026-04-04T09:05:11Z</time></trkpt><trkpt lat="39.3630464862726" lon="8.943099232507349"><ele>24.333333333333336</ele><time>2026-04-04T09:05:12Z</time></trkpt><trkpt lat="39.36323316417965" lon="8.94307287568822"><ele>24.0</ele><time>2026-04-04T09:05:13Z</time></trkpt><trkpt lat="39.363415910392" lon="8.94304653817525"><ele>24.0</ele><time>2026-04-04T09:05:14Z</time></trkpt><trkpt lat="39.36359800306006" lon="8.94301898709305"><ele>24.0</ele><time>2026-04-04T09:05:15Z</time></trkpt><trkpt lat="39.36377924926267" lon="8.94298773932441"><ele>24.0</ele><time>2026-04-04T09:05:16Z</time></trkpt><trkpt lat="39.363960750595446" lon="8.942954405871594"><ele>24.666666666666664</ele><time>2026-04-04T09:05:17Z</time></trkpt><trkpt lat="39.36413793349764" lon="8.942925213756343"><ele>25.333333333333332</ele><time>2026-04-04T09:05:18Z</time></trkpt><trkpt lat="39.36431383314417" lon="8.942898366881819"><ele>26.0</ele><time>2026-04-04T09:05:19Z</time></trkpt><trkpt lat="39.36447815360623" lon="8.942871076257605"><ele>26.0</ele><time>2026-04-04T09:05:20Z</time></trkpt><trkpt lat="39.364629664424434" lon="8.942845266506236"><ele>26.0</ele><time>2026-04-04T09:05:21Z</time></trkpt><trkpt lat="39.36476819233867" lon="8.942821493497316"><ele>26.0</ele><time>2026-04-04T09:05:22Z</time></trkpt><trkpt lat="39.36489825503857" lon="8.942798628370815"><ele>26.0</ele><time>2026-04-04T09:05:23Z</time></trkpt><trkpt lat="39.36501539072325" lon="8.94278165605559"><ele>25.999999999999996</ele><time>2026-04-04T09:05:24Z</time></trkpt><trkpt lat="39.36512151449162" lon="8.942766784075204"><ele>26.0</ele><time>2026-04-04T09:05:25Z</time></trkpt><trkpt lat="39.36521674310798" lon="8.942753309680379"><ele>26.0</ele><time>2026-04-04T09:05:26Z</time></trkpt><trkpt lat="39.36530017597129" lon="8.942743411030525"><ele>26.0</ele><time>2026-04-04T09:05:27Z</time></trkpt><trkpt lat="39.365380232990965" lon="8.942739542962892"><ele>25.999999999999996</ele><time>2026-04-04T09:05:28Z</time></trkpt><trkpt lat="39.36545332033614" lon="8.942751263590688"><ele>26.0</ele><time>2026-04-04T09:05:29Z</time></trkpt><trkpt lat="39.36552112779169" lon="8.942784548724811"><ele>25.999999999999996</ele><time>2026-04-04T09:05:30Z</time></trkpt><trkpt lat="39.36558163718764" lon="8.942840740531038"><ele>26.0</ele><time>2026-04-04T09:05:31Z</time></trkpt><trkpt lat="39.36564839315305" lon="8.942896866337001"><ele>26.0</ele><time>2026-04-04T09:05:32Z</time></trkpt><trkpt lat="39.36572762060306" lon="8.942936487961722"><ele>26.0</ele><time>2026-04-04T09:05:33Z</time></trkpt><trkpt lat="39.36580021767714" lon="8.942940859485033"><ele>25.999999999999996</ele><time>2026-04-04T09:05:34Z</time></trkpt><trkpt lat="39.36587518968318" lon="8.942915203593667"><ele>26.0</ele><time>2026-04-04T09:05:35Z</time></trkpt><trkpt lat="39.36594001975868" lon="8.942852388588468"><ele>26.0</ele><time>2026-04-04T09:05:36Z</time></trkpt><trkpt lat="39.36598503516397" lon="8.94275095802459"><ele>26.0</ele><time>2026-04-04T09:05:37Z</time></trkpt><trkpt lat="39.36600297651056" lon="8.942623756146778"><ele>26.0</ele><time>2026-04-04T09:05:38Z</time></trkpt><trkpt lat="39.36598377799118" lon="8.942492247878617"><ele>26.0</ele><time>2026-04-04T09:05:39Z</time></trkpt><trkpt lat="39.36594498904332" lon="8.942351167559227"><ele>26.0</ele><time>2026-04-04T09:05:40Z</time></trkpt><trkpt lat="39.365933120417886" lon="8.942198899302788"><ele>26.0</ele><time>2026-04-04T09:05:41Z</time></trkpt><trkpt lat="39.36595841833589" lon="8.942026611239811"><ele>26.0</ele><time>2026-04-04T09:05:42Z</time></trkpt><trkpt lat="39.36600331220673" lon="8.94185067486418"><ele>26.0</ele><time>2026-04-04T09:05:43Z</time></trkpt><trkpt lat="39.36605884435912" lon="8.941668613177487"><ele>26.0</ele><time>2026-04-04T09:05:44Z</time></trkpt><trkpt lat="39.36611823185911" lon="8.941478838109347"><ele>26.0</ele><time>2026-04-04T09:05:45Z</time></trkpt><trkpt lat="39.36617634566074" lon="8.941281063525887"><ele>26.0</ele><time>2026-04-04T09:05:46Z</time></trkpt><trkpt lat="39.36623420526946" lon="8.941086873130212"><ele>26.0</ele><time>2026-04-04T09:05:47Z</time></trkpt><trkpt lat="39.36629513778301" lon="8.940877698040389"><ele>24.666666666666664</ele><time>2026-04-04T09:05:48Z</time></trkpt><trkpt lat="39.366357105335794" lon="8.940661815386488"><ele>23.333333333333332</ele><time>2026-04-04T09:05:49Z</time></trkpt><trkpt lat="39.36642219273534" lon="8.940437530151355"><ele>22.0</ele><time>2026-04-04T09:05:50Z</time></trkpt><trkpt lat="39.366487998840846" lon="8.940206361006798"><ele>21.333333333333332</ele><time>2026-04-04T09:05:51Z</time></trkpt><trkpt lat="39.36655632490745" lon="8.939967154175035"><ele>20.666666666666668</ele><time>2026-04-04T09:05:52Z</time></trkpt><trkpt lat="39.36662591675699" lon="8.939723083121626"><ele>20.0</ele><time>2026-04-04T09:05:53Z</time></trkpt><trkpt lat="39.366696198958884" lon="8.939477113134144"><ele>20.0</ele><time>2026-04-04T09:05:54Z</time></trkpt><trkpt lat="39.36677130337986" lon="8.939227557725852"><ele>20.0</ele><time>2026-04-04T09:05:55Z</time></trkpt><trkpt lat="39.366852931814726" lon="8.938970510745877"><ele>20.0</ele><time>2026-04-04T09:05:56Z</time></trkpt><trkpt lat="39.366937067091534" lon="8.938707748224724"><ele>20.0</ele><time>2026-04-04T09:05:57Z</time></trkpt><trkpt lat="39.36702204785502" lon="8.93843916153337"><ele>20.0</ele><time>2026-04-04T09:05:58Z</time></trkpt><trkpt lat="39.367107734573445" lon="8.938167505581575"><ele>20.0</ele><time>2026-04-04T09:05:59Z</time></trkpt><trkpt lat="39.36719633480636" lon="8.937893480061543"><ele>20.0</ele><time>2026-04-04T09:06:00Z</time></trkpt><trkpt lat="39.36729236237545" lon="8.937624923192613"><ele>20.0</ele><time>2026-04-04T09:06:01Z</time></trkpt><trkpt lat="39.367399087493254" lon="8.937358448051029"><ele>20.0</ele><time>2026-04-04T09:06:02Z</time></trkpt><trkpt lat="39.36751575449092" lon="8.937097376355894"><ele>20.0</ele><time>2026-04-04T09:06:03Z</time></trkpt><trkpt lat="39.36763647535249" lon="8.936840362920806"><ele>20.0</ele><time>2026-04-04T09:06:04Z</time></trkpt><trkpt lat="39.36776554573932" lon="8.93659039556234"><ele>20.0</ele><time>2026-04-04T09:06:05Z</time></trkpt><trkpt lat="39.36789753097324" lon="8.936339591062248"><ele>20.0</ele><time>2026-04-04T09:06:06Z</time></trkpt><trkpt lat="39.36803451311889" lon="8.936094823822287"><ele>19.0</ele><time>2026-04-04T09:06:07Z</time></trkpt><trkpt lat="39.368179834368966" lon="8.935857913888691"><ele>18.0</ele><time>2026-04-04T09:06:08Z</time></trkpt><trkpt lat="39.368332390708424" lon="8.935626206816554"><ele>18.0</ele><time>2026-04-04T09:06:09Z</time></trkpt><trkpt lat="39.36848850904767" lon="8.935396539521802"><ele>18.0</ele><time>2026-04-04T09:06:10Z</time></trkpt><trkpt lat="39.36865341778794" lon="8.935178555805932"><ele>18.0</ele><time>2026-04-04T09:06:11Z</time></trkpt><trkpt lat="39.36882532265605" lon="8.93497047172514"><ele>18.0</ele><time>2026-04-04T09:06:12Z</time></trkpt><trkpt lat="39.36900094828692" lon="8.934762562273699"><ele>18.0</ele><time>2026-04-04T09:06:13Z</time></trkpt><trkpt lat="39.36918029806353" lon="8.934560469463289"><ele>18.0</ele><time>2026-04-04T09:06:14Z</time></trkpt><trkpt lat="39.369366355605784" lon="8.934361779927492"><ele>17.5</ele><time>2026-04-04T09:06:15Z</time></trkpt><trkpt lat="39.3695570978533" lon="8.934170253430262"><ele>17.0</ele><time>2026-04-04T09:06:16Z</time></trkpt><trkpt lat="39.369748385698216" lon="8.933990598503653"><ele>19.5</ele><time>2026-04-04T09:06:17Z</time></trkpt><trkpt lat="39.36994558026165" lon="8.93382055349575"><ele>22.0</ele><time>2026-04-04T09:06:18Z</time></trkpt><trkpt lat="39.37014438454206" lon="8.933658476525839"><ele>22.0</ele><time>2026-04-04T09:06:19Z</time></trkpt><trkpt lat="39.37034514410105" lon="8.93350871588281"><ele>22.0</ele><time>2026-04-04T09:06:20Z</time></trkpt><trkpt lat="39.37054837418259" lon="8.933372782095875"><ele>21.0</ele><time>2026-04-04T09:06:21Z</time></trkpt><trkpt lat="39.3707555198088" lon="8.933243921991343"><ele>20.0</ele><time>2026-04-04T09:06:22Z</time></trkpt><trkpt lat="39.37096367281614" lon="8.933117690491569"><ele>20.0</ele><time>2026-04-04T09:06:23Z</time></trkpt><trkpt lat="39.371168859567895" lon="8.93300033847377"><ele>20.0</ele><time>2026-04-04T09:06:24Z</time></trkpt><trkpt lat="39.37137786561541" lon="8.932888736846152"><ele>20.0</ele><time>2026-04-04T09:06:25Z</time></trkpt><trkpt lat="39.371586949758225" lon="8.932788349264944"><ele>20.0</ele><time>2026-04-04T09:06:26Z</time></trkpt><trkpt lat="39.371803223986205" lon="8.932697365846831"><ele>20.0</ele><time>2026-04-04T09:06:27Z</time></trkpt><trkpt lat="39.37201988033057" lon="8.932614978414126"><ele>20.0</ele><time>2026-04-04T09:06:28Z</time></trkpt><trkpt lat="39.3722406436237" lon="8.932540643787124"><ele>20.5</ele><time>2026-04-04T09:06:29Z</time></trkpt><trkpt lat="39.37246377567609" lon="8.93247397711998"><ele>21.0</ele><time>2026-04-04T09:06:30Z</time></trkpt><trkpt lat="39.3726874584184" lon="8.932409852046359"><ele>21.0</ele><time>2026-04-04T09:06:31Z</time></trkpt><trkpt lat="39.3729109981203" lon="8.932351524318085"><ele>21.0</ele><time>2026-04-04T09:06:32Z</time></trkpt><trkpt lat="39.373135397436485" lon="8.93229642262826"><ele>20.666666666666668</ele><time>2026-04-04T09:06:33Z</time></trkpt><trkpt lat="39.37335600668283" lon="8.932244126022642"><ele>20.333333333333336</ele><time>2026-04-04T09:06:34Z</time></trkpt><trkpt lat="39.37357663579352" lon="8.932192045796388"><ele>20.0</ele><time>2026-04-04T09:06:35Z</time></trkpt><trkpt lat="39.373798764422844" lon="8.932142788583855"><ele>20.333333333333336</ele><time>2026-04-04T09:06:36Z</time></trkpt><trkpt lat="39.37401898687325" lon="8.93209400188395"><ele>20.666666666666668</ele><time>2026-04-04T09:06:37Z</time></trkpt><trkpt lat="39.37424081379324" lon="8.932043233413186"><ele>21.0</ele><time>2026-04-04T09:06:38Z</time></trkpt><trkpt lat="39.37446393513099" lon="8.931991423574068"><ele>21.0</ele><time>2026-04-04T09:06:39Z</time></trkpt><trkpt lat="39.37468506831713" lon="8.931940738239215"><ele>21.0</ele><time>2026-04-04T09:06:40Z</time></trkpt><trkpt lat="39.37490466406445" lon="8.931890031137508"><ele>21.0</ele><time>2026-04-04T09:06:41Z</time></trkpt><trkpt lat="39.37512601284514" lon="8.931838518786252"><ele>21.0</ele><time>2026-04-04T09:06:42Z</time></trkpt><trkpt lat="39.37534742885749" lon="8.931787460007262"><ele>21.0</ele><time>2026-04-04T09:06:43Z</time></trkpt><trkpt lat="39.37556658347638" lon="8.931736474647847"><ele>21.0</ele><time>2026-04-04T09:06:44Z</time></trkpt><trkpt lat="39.375785084958004" lon="8.93168782904917"><ele>21.0</ele><time>2026-04-04T09:06:45Z</time></trkpt><trkpt lat="39.37600282199325" lon="8.93163690592189"><ele>21.0</ele><time>2026-04-04T09:06:46Z</time></trkpt><trkpt lat="39.37621790639634" lon="8.931584933961906"><ele>21.0</ele><time>2026-04-04T09:06:47Z</time></trkpt><trkpt lat="39.37643321829774" lon="8.931533646232714"><ele>21.666666666666668</ele><time>2026-04-04T09:06:48Z</time></trkpt><trkpt lat="39.376649288254086" lon="8.931485289610647"><ele>22.333333333333336</ele><time>2026-04-04T09:06:49Z</time></trkpt><trkpt lat="39.37686865543349" lon="8.931437730912815"><ele>23.0</ele><time>2026-04-04T09:06:50Z</time></trkpt><trkpt lat="39.37708688321687" lon="8.93139002640523"><ele>23.0</ele><time>2026-04-04T09:06:51Z</time></trkpt><trkpt lat="39.37730712080489" lon="8.931339193962739"><ele>23.0</ele><time>2026-04-04T09:06:52Z</time></trkpt><trkpt lat="39.377529864771" lon="8.931287901972421"><ele>23.0</ele><time>2026-04-04T09:06:53Z</time></trkpt><trkpt lat="39.3777542615744" lon="8.93123537061351"><ele>23.0</ele><time>2026-04-04T09:06:54Z</time></trkpt><trkpt lat="39.37797845565539" lon="8.931183450697528"><ele>22.0</ele><time>2026-04-04T09:06:55Z</time></trkpt><trkpt lat="39.37820403939738" lon="8.931131085553861"><ele>21.0</ele><time>2026-04-04T09:06:56Z</time></trkpt><trkpt lat="39.378428628287566" lon="8.931078795611674"><ele>21.0</ele><time>2026-04-04T09:06:57Z</time></trkpt><trkpt lat="39.3786535415642" lon="8.931027858758785"><ele>21.0</ele><time>2026-04-04T09:06:58Z</time></trkpt><trkpt lat="39.3788791891942" lon="8.930977008241115"><ele>21.333333333333332</ele><time>2026-04-04T09:06:59Z</time></trkpt><trkpt lat="39.37909876918454" lon="8.93092881255472"><ele>21.666666666666664</ele><time>2026-04-04T09:07:00Z</time></trkpt><trkpt lat="39.37931325734348" lon="8.930883294730712"><ele>22.0</ele><time>2026-04-04T09:07:01Z</time></trkpt><trkpt lat="39.37952354687763" lon="8.93084758319177"><ele>21.666666666666664</ele><time>2026-04-04T09:07:02Z</time></trkpt><trkpt lat="39.37972217802417" lon="8.930829727733693"><ele>21.333333333333332</ele><time>2026-04-04T09:07:03Z</time></trkpt><trkpt lat="39.379909174420256" lon="8.93082221844371"><ele>21.0</ele><time>2026-04-04T09:07:04Z</time></trkpt><trkpt lat="39.38008140808223" lon="8.930821824346554"><ele>21.0</ele><time>2026-04-04T09:07:05Z</time></trkpt><trkpt lat="39.380244284033495" lon="8.930824924558582"><ele>21.0</ele><time>2026-04-04T09:07:06Z</time></trkpt><trkpt lat="39.38039211202556" lon="8.930833601112623"><ele>21.0</ele><time>2026-04-04T09:07:07Z</time></trkpt><trkpt lat="39.38052866229201" lon="8.930849258380743"><ele>21.0</ele><time>2026-04-04T09:07:08Z</time></trkpt><trkpt lat="39.38065388253343" lon="8.930874673472772"><ele>21.4</ele><time>2026-04-04T09:07:09Z</time></trkpt><trkpt lat="39.38076333529533" lon="8.930917714073082"><ele>21.8</ele><time>2026-04-04T09:07:10Z</time></trkpt><trkpt lat="39.380848880565054" lon="8.930993816751167"><ele>22.2</ele><time>2026-04-04T09:07:11Z</time></trkpt><trkpt lat="39.38091645611655" lon="8.931085926791534"><ele>22.599999999999998</ele><time>2026-04-04T09:07:12Z</time></trkpt><trkpt lat="39.380996166680156" lon="8.931138995175786"><ele>23.0</ele><time>2026-04-04T09:07:13Z</time></trkpt><trkpt lat="39.381090573072036" lon="8.931163017449094"><ele>23.0</ele><time>2026-04-04T09:07:14Z</time></trkpt><trkpt lat="39.38119431621309" lon="8.931148836815618"><ele>23.0</ele><time>2026-04-04T09:07:15Z</time></trkpt><trkpt lat="39.38130574889865" lon="8.93112959109341"><ele>23.0</ele><time>2026-04-04T09:07:16Z</time></trkpt><trkpt lat="39.38142668055331" lon="8.931147749529877"><ele>23.0</ele><time>2026-04-04T09:07:17Z</time></trkpt><trkpt lat="39.381558137503035" lon="8.931204107930801"><ele>23.0</ele><time>2026-04-04T09:07:18Z</time></trkpt><trkpt lat="39.3816966217494" lon="8.93128469537725"><ele>23.0</ele><time>2026-04-04T09:07:19Z</time></trkpt><trkpt lat="39.38184153574535" lon="8.931370779959837"><ele>23.0</ele><time>2026-04-04T09:07:20Z</time></trkpt><trkpt lat="39.38198615283018" lon="8.931448555200264"><ele>23.0</ele><time>2026-04-04T09:07:21Z</time></trkpt><trkpt lat="39.38213502377523" lon="8.931514958809574"><ele>23.0</ele><time>2026-04-04T09:07:22Z</time></trkpt><trkpt lat="39.38229307295534" lon="8.931545152537565"><ele>23.0</ele><time>2026-04-04T09:07:23Z</time></trkpt><trkpt lat="39.38245165014391" lon="8.931536553728163"><ele>23.333333333333336</ele><time>2026-04-04T09:07:24Z</time></trkpt><trkpt lat="39.38261318630179" lon="8.93150405381561"><ele>23.666666666666668</ele><time>2026-04-04T09:07:25Z</time></trkpt><trkpt lat="39.38277642683231" lon="8.93143781442076"><ele>24.0</ele><time>2026-04-04T09:07:26Z</time></trkpt><trkpt lat="39.38292891088887" lon="8.9313367673222"><ele>24.333333333333336</ele><time>2026-04-04T09:07:27Z</time></trkpt><trkpt lat="39.383069607184304" lon="8.931196523182683"><ele>24.666666666666668</ele><time>2026-04-04T09:07:28Z</time></trkpt><trkpt lat="39.3831933252555" lon="8.931010185438698"><ele>25.0</ele><time>2026-04-04T09:07:29Z</time></trkpt><trkpt lat="39.383291553477626" lon="8.930805804218513"><ele>24.333333333333336</ele><time>2026-04-04T09:07:30Z</time></trkpt><trkpt lat="39.383365070987644" lon="8.930581489112134"><ele>23.666666666666668</ele><time>2026-04-04T09:07:31Z</time></trkpt><trkpt lat="39.383425721400776" lon="8.930340135394559"><ele>23.0</ele><time>2026-04-04T09:07:32Z</time></trkpt><trkpt lat="39.383497432597075" lon="8.93009384982846"><ele>23.0</ele><time>2026-04-04T09:07:33Z</time></trkpt><trkpt lat="39.38356640047461" lon="8.929843160225241"><ele>23.0</ele><time>2026-04-04T09:07:34Z</time></trkpt><trkpt lat="39.38363728863274" lon="8.92959273578117"><ele>23.0</ele><time>2026-04-04T09:07:35Z</time></trkpt><trkpt lat="39.383707673011976" lon="8.9293455691049"><ele>23.0</ele><time>2026-04-04T09:07:36Z</time></trkpt><trkpt lat="39.383781103325354" lon="8.929093265186898"><ele>23.0</ele><time>2026-04-04T09:07:37Z</time></trkpt><trkpt lat="39.3838548722294" lon="8.928839120996633"><ele>23.0</ele><time>2026-04-04T09:07:38Z</time></trkpt><trkpt lat="39.38392670214996" lon="8.928579462804365"><ele>22.333333333333336</ele><time>2026-04-04T09:07:39Z</time></trkpt><trkpt lat="39.383999152244904" lon="8.928317177632998"><ele>21.666666666666668</ele><time>2026-04-04T09:07:40Z</time></trkpt><trkpt lat="39.38407408413144" lon="8.928052004920977"><ele>21.0</ele><time>2026-04-04T09:07:41Z</time></trkpt><trkpt lat="39.3841494570206" lon="8.927785292535088"><ele>21.5</ele><time>2026-04-04T09:07:42Z</time></trkpt><trkpt lat="39.38422506761781" lon="8.92751134816787"><ele>22.0</ele><time>2026-04-04T09:07:43Z</time></trkpt><trkpt lat="39.38430107366858" lon="8.927235090290282"><ele>22.0</ele><time>2026-04-04T09:07:44Z</time></trkpt><trkpt lat="39.38437854954023" lon="8.926958586565336"><ele>22.0</ele><time>2026-04-04T09:07:45Z</time></trkpt><trkpt lat="39.3844567954195" lon="8.92668559931396"><ele>22.333333333333332</ele><time>2026-04-04T09:07:46Z</time></trkpt><trkpt lat="39.38453486899666" lon="8.926411589480079"><ele>22.666666666666668</ele><time>2026-04-04T09:07:47Z</time></trkpt><trkpt lat="39.38461368243744" lon="8.926143030147012"><ele>23.0</ele><time>2026-04-04T09:07:48Z</time></trkpt><trkpt lat="39.384690761815" lon="8.92587532792415"><ele>23.0</ele><time>2026-04-04T09:07:49Z</time></trkpt><trkpt lat="39.3847654167826" lon="8.925607582191589"><ele>23.0</ele><time>2026-04-04T09:07:50Z</time></trkpt><trkpt lat="39.384840562151616" lon="8.92533720483217"><ele>23.0</ele><time>2026-04-04T09:07:51Z</time></trkpt><trkpt lat="39.38491661300043" lon="8.925066066525307"><ele>23.333333333333336</ele><time>2026-04-04T09:07:52Z</time></trkpt><trkpt lat="39.3849915157845" lon="8.924799121280476"><ele>23.666666666666668</ele><time>2026-04-04T09:07:53Z</time></trkpt><trkpt lat="39.38506707105272" lon="8.924528537962507"><ele>24.0</ele><time>2026-04-04T09:07:54Z</time></trkpt><trkpt lat="39.385142071530865" lon="8.924255730207932"><ele>23.5</ele><time>2026-04-04T09:07:55Z</time></trkpt><trkpt lat="39.38521885262046" lon="8.923981433218975"><ele>23.0</ele><time>2026-04-04T09:07:56Z</time></trkpt><trkpt lat="39.38529697282915" lon="8.923706269559759"><ele>23.0</ele><time>2026-04-04T09:07:57Z</time></trkpt><trkpt lat="39.3853729008802" lon="8.923431895796629"><ele>23.0</ele><time>2026-04-04T09:07:58Z</time></trkpt><trkpt lat="39.38544850612825" lon="8.923157493683297"><ele>23.0</ele><time>2026-04-04T09:07:59Z</time></trkpt><trkpt lat="39.38552463856655" lon="8.92288392378344"><ele>23.0</ele><time>2026-04-04T09:08:00Z</time></trkpt><trkpt lat="39.38560313023218" lon="8.922610717215399"><ele>23.0</ele><time>2026-04-04T09:08:01Z</time></trkpt><trkpt lat="39.38568267903515" lon="8.92233681043489"><ele>23.0</ele><time>2026-04-04T09:08:02Z</time></trkpt><trkpt lat="39.38576170508169" lon="8.922062867077251"><ele>23.0</ele><time>2026-04-04T09:08:03Z</time></trkpt><trkpt lat="39.38583867546329" lon="8.921785290437287"><ele>23.0</ele><time>2026-04-04T09:08:04Z</time></trkpt><trkpt lat="39.38591557109694" lon="8.9215126742548"><ele>22.5</ele><time>2026-04-04T09:08:05Z</time></trkpt><trkpt lat="39.3859950540512" lon="8.921234972277375"><ele>22.0</ele><time>2026-04-04T09:08:06Z</time></trkpt><trkpt lat="39.38607368869935" lon="8.920957609299869"><ele>21.5</ele><time>2026-04-04T09:08:07Z</time></trkpt><trkpt lat="39.38615071354124" lon="8.920682791766074"><ele>21.0</ele><time>2026-04-04T09:08:08Z</time></trkpt><trkpt lat="39.38622847828476" lon="8.920406303285764"><ele>21.0</ele><time>2026-04-04T09:08:09Z</time></trkpt><trkpt lat="39.38630679298631" lon="8.920128443697482"><ele>21.0</ele><time>2026-04-04T09:08:10Z</time></trkpt><trkpt lat="39.38638599877608" lon="8.919852417283089"><ele>21.5</ele><time>2026-04-04T09:08:11Z</time></trkpt><trkpt lat="39.386465540115864" lon="8.919575676792798"><ele>22.0</ele><time>2026-04-04T09:08:12Z</time></trkpt><trkpt lat="39.38654607404736" lon="8.919298119631645"><ele>22.5</ele><time>2026-04-04T09:08:13Z</time></trkpt><trkpt lat="39.3866241860273" lon="8.919021497918285"><ele>23.0</ele><time>2026-04-04T09:08:14Z</time></trkpt><trkpt lat="39.386703085919706" lon="8.918744588638143"><ele>23.0</ele><time>2026-04-04T09:08:15Z</time></trkpt><trkpt lat="39.38677954365472" lon="8.91846875233997"><ele>23.0</ele><time>2026-04-04T09:08:16Z</time></trkpt><trkpt lat="39.38685513851461" lon="8.918195908435944"><ele>23.0</ele><time>2026-04-04T09:08:17Z</time></trkpt><trkpt lat="39.38693055563869" lon="8.917920873482034"><ele>23.0</ele><time>2026-04-04T09:08:18Z</time></trkpt><trkpt lat="39.38701101474601" lon="8.917651120943509"><ele>23.0</ele><time>2026-04-04T09:08:19Z</time></trkpt><trkpt lat="39.387088457239" lon="8.917380465242683"><ele>23.0</ele><time>2026-04-04T09:08:20Z</time></trkpt><trkpt lat="39.38716720365642" lon="8.917108617917252"><ele>23.0</ele><time>2026-04-04T09:08:21Z</time></trkpt><trkpt lat="39.38724194188072" lon="8.91683924850463"><ele>23.0</ele><time>2026-04-04T09:08:22Z</time></trkpt><trkpt lat="39.38731906714594" lon="8.916570024373305"><ele>23.666666666666668</ele><time>2026-04-04T09:08:23Z</time></trkpt><trkpt lat="39.38739656601927" lon="8.916301164732932"><ele>24.333333333333336</ele><time>2026-04-04T09:08:24Z</time></trkpt><trkpt lat="39.387469802945766" lon="8.916031204985574"><ele>25.0</ele><time>2026-04-04T09:08:25Z</time></trkpt><trkpt lat="39.3875452927117" lon="8.915761540764118"><ele>25.0</ele><time>2026-04-04T09:08:26Z</time></trkpt><trkpt lat="39.38762377874083" lon="8.915495009040395"><ele>25.0</ele><time>2026-04-04T09:08:27Z</time></trkpt><trkpt lat="39.38770086818013" lon="8.915228244834417"><ele>25.0</ele><time>2026-04-04T09:08:28Z</time></trkpt><trkpt lat="39.38777717440632" lon="8.91496104000124"><ele>24.666666666666668</ele><time>2026-04-04T09:08:29Z</time></trkpt><trkpt lat="39.387856252992925" lon="8.914693535722078"><ele>24.333333333333336</ele><time>2026-04-04T09:08:30Z</time></trkpt><trkpt lat="39.387929615184106" lon="8.914422704385787"><ele>24.0</ele><time>2026-04-04T09:08:31Z</time></trkpt><trkpt lat="39.38800344389751" lon="8.914155375006455"><ele>24.333333333333336</ele><time>2026-04-04T09:08:32Z</time></trkpt><trkpt lat="39.388079800812896" lon="8.91388979259293"><ele>24.666666666666668</ele><time>2026-04-04T09:08:33Z</time></trkpt><trkpt lat="39.388145122417114" lon="8.9136071394944"><ele>25.0</ele><time>2026-04-04T09:08:34Z</time></trkpt><trkpt lat="39.38822115810485" lon="8.913336780173527"><ele>24.333333333333336</ele><time>2026-04-04T09:08:35Z</time></trkpt><trkpt lat="39.388303760949285" lon="8.913059797238297"><ele>23.666666666666668</ele><time>2026-04-04T09:08:36Z</time></trkpt><trkpt lat="39.38837686465308" lon="8.912794125094479"><ele>23.0</ele><time>2026-04-04T09:08:37Z</time></trkpt><trkpt lat="39.38845598019984" lon="8.912521705397106"><ele>23.0</ele><time>2026-04-04T09:08:38Z</time></trkpt><trkpt lat="39.38853128699745" lon="8.91224991482717"><ele>23.0</ele><time>2026-04-04T09:08:39Z</time></trkpt><trkpt lat="39.38861083052783" lon="8.911978635463297"><ele>23.0</ele><time>2026-04-04T09:08:40Z</time></trkpt><trkpt lat="39.38869179723136" lon="8.911707259442206"><ele>22.5</ele><time>2026-04-04T09:08:41Z</time></trkpt><trkpt lat="39.38877365860682" lon="8.911423932941084"><ele>22.0</ele><time>2026-04-04T09:08:42Z</time></trkpt><trkpt lat="39.38885788655527" lon="8.911117910990273"><ele>23.0</ele><time>2026-04-04T09:08:43Z</time></trkpt><trkpt lat="39.38894692563588" lon="8.91079872440432"><ele>24.0</ele><time>2026-04-04T09:08:44Z</time></trkpt><trkpt lat="39.389038479467956" lon="8.91047673561219"><ele>24.0</ele><time>2026-04-04T09:08:45Z</time></trkpt><trkpt lat="39.389129958520876" lon="8.910156692302122"><ele>24.0</ele><time>2026-04-04T09:08:46Z</time></trkpt><trkpt lat="39.38922351044594" lon="8.909836816924383"><ele>24.0</ele><time>2026-04-04T09:08:47Z</time></trkpt><trkpt lat="39.389315080528824" lon="8.909515620427005"><ele>24.0</ele><time>2026-04-04T09:08:48Z</time></trkpt><trkpt lat="39.389405749608855" lon="8.90919049903676"><ele>24.5</ele><time>2026-04-04T09:08:49Z</time></trkpt><trkpt lat="39.38949627026745" lon="8.908865338096124"><ele>25.0</ele><time>2026-04-04T09:08:50Z</time></trkpt><trkpt lat="39.38958624212042" lon="8.908542320190886"><ele>25.0</ele><time>2026-04-04T09:08:51Z</time></trkpt><trkpt lat="39.389674380439764" lon="8.908220070263551"><ele>25.0</ele><time>2026-04-04T09:08:52Z</time></trkpt><trkpt lat="39.389764007460236" lon="8.907902019028322"><ele>25.5</ele><time>2026-04-04T09:08:53Z</time></trkpt><trkpt lat="39.38985048575564" lon="8.90759045651485"><ele>26.0</ele><time>2026-04-04T09:08:54Z</time></trkpt><trkpt lat="39.38994063616686" lon="8.90728212534948"><ele>26.5</ele><time>2026-04-04T09:08:55Z</time></trkpt><trkpt lat="39.39002681213607" lon="8.906978037649347"><ele>27.0</ele><time>2026-04-04T09:08:56Z</time></trkpt><trkpt lat="39.39011374293942" lon="8.906673864218247"><ele>28.0</ele><time>2026-04-04T09:08:57Z</time></trkpt><trkpt lat="39.390200103534895" lon="8.906372127152657"><ele>29.0</ele><time>2026-04-04T09:08:58Z</time></trkpt><trkpt lat="39.39028359655145" lon="8.906073914962596"><ele>28.0</ele><time>2026-04-04T09:08:59Z</time></trkpt><trkpt lat="39.39036785040196" lon="8.905781187717226"><ele>27.0</ele><time>2026-04-04T09:09:00Z</time></trkpt><trkpt lat="39.39044975050758" lon="8.905492916954296"><ele>27.0</ele><time>2026-04-04T09:09:01Z</time></trkpt><trkpt lat="39.39053459906996" lon="8.905183234784694"><ele>27.0</ele><time>2026-04-04T09:09:02Z</time></trkpt><trkpt lat="39.39061033392016" lon="8.904914921183906"><ele>27.0</ele><time>2026-04-04T09:09:03Z</time></trkpt><trkpt lat="39.39069322951308" lon="8.904625520796221"><ele>27.0</ele><time>2026-04-04T09:09:04Z</time></trkpt><trkpt lat="39.39077616137166" lon="8.904337904653715"><ele>26.5</ele><time>2026-04-04T09:09:05Z</time></trkpt><trkpt lat="39.39085627488158" lon="8.904048447152748"><ele>26.0</ele><time>2026-04-04T09:09:06Z</time></trkpt><trkpt lat="39.39093568874658" lon="8.903759025095418"><ele>26.0</ele><time>2026-04-04T09:09:07Z</time></trkpt><trkpt lat="39.39101559165344" lon="8.903470802268414"><ele>26.0</ele><time>2026-04-04T09:09:08Z</time></trkpt><trkpt lat="39.3910958332078" lon="8.903184785808087"><ele>26.0</ele><time>2026-04-04T09:09:09Z</time></trkpt><trkpt lat="39.39117703968642" lon="8.902900228764212"><ele>26.0</ele><time>2026-04-04T09:09:10Z</time></trkpt><trkpt lat="39.39125953612298" lon="8.90260936618723"><ele>27.0</ele><time>2026-04-04T09:09:11Z</time></trkpt><trkpt lat="39.391345338679024" lon="8.902298695323514"><ele>28.0</ele><time>2026-04-04T09:09:12Z</time></trkpt><trkpt lat="39.39143645007525" lon="8.901978016500925"><ele>28.5</ele><time>2026-04-04T09:09:13Z</time></trkpt><trkpt lat="39.391532584491934" lon="8.901648379155375"><ele>29.0</ele><time>2026-04-04T09:09:14Z</time></trkpt><trkpt lat="39.391631163211756" lon="8.901304019851906"><ele>29.0</ele><time>2026-04-04T09:09:15Z</time></trkpt><trkpt lat="39.3917306450368" lon="8.900954587407826"><ele>29.0</ele><time>2026-04-04T09:09:16Z</time></trkpt><trkpt lat="39.39183077668285" lon="8.900596594470333"><ele>29.0</ele><time>2026-04-04T09:09:17Z</time></trkpt><trkpt lat="39.39193162532149" lon="8.900237657177843"><ele>29.0</ele><time>2026-04-04T09:09:18Z</time></trkpt><trkpt lat="39.39203116908767" lon="8.899889393620052"><ele>28.5</ele><time>2026-04-04T09:09:19Z</time></trkpt><trkpt lat="39.39212829760731" lon="8.899546917256483"><ele>28.0</ele><time>2026-04-04T09:09:20Z</time></trkpt><trkpt lat="39.39222230331554" lon="8.899213207281978"><ele>30.0</ele><time>2026-04-04T09:09:21Z</time></trkpt><trkpt lat="39.3923164623977" lon="8.898886004659424"><ele>32.0</ele><time>2026-04-04T09:09:22Z</time></trkpt><trkpt lat="39.392407334939236" lon="8.8985622863002"><ele>32.5</ele><time>2026-04-04T09:09:23Z</time></trkpt><trkpt lat="39.39249430837653" lon="8.898249899029777"><ele>33.0</ele><time>2026-04-04T09:09:24Z</time></trkpt><trkpt lat="39.392580403066184" lon="8.89793684014535"><ele>33.0</ele><time>2026-04-04T09:09:25Z</time></trkpt><trkpt lat="39.39266341055484" lon="8.897627903414394"><ele>33.0</ele><time>2026-04-04T09:09:26Z</time></trkpt><trkpt lat="39.39274938522497" lon="8.897317987087865"><ele>33.0</ele><time>2026-04-04T09:09:27Z</time></trkpt><trkpt lat="39.3928354273356" lon="8.897009730497606"><ele>33.0</ele><time>2026-04-04T09:09:28Z</time></trkpt><trkpt lat="39.39292641495246" lon="8.896700462015799"><ele>37.5</ele><time>2026-04-04T09:09:29Z</time></trkpt><trkpt lat="39.3930160436646" lon="8.896389913672056"><ele>42.0</ele><time>2026-04-04T09:09:30Z</time></trkpt><trkpt lat="39.39310550619823" lon="8.896074375868734"><ele>38.0</ele><time>2026-04-04T09:09:31Z</time></trkpt><trkpt lat="39.39319498789862" lon="8.895756594921018"><ele>34.0</ele><time>2026-04-04T09:09:32Z</time></trkpt><trkpt lat="39.39328475381394" lon="8.895433237458116"><ele>34.0</ele><time>2026-04-04T09:09:33Z</time></trkpt><trkpt lat="39.393374515507624" lon="8.895112333720581"><ele>34.0</ele><time>2026-04-04T09:09:34Z</time></trkpt><trkpt lat="39.39346572219825" lon="8.894791193004627"><ele>32.0</ele><time>2026-04-04T09:09:35Z</time></trkpt><trkpt lat="39.393558443268425" lon="8.89446572170336"><ele>30.0</ele><time>2026-04-04T09:09:36Z</time></trkpt><trkpt lat="39.39365086993674" lon="8.894141288189077"><ele>29.5</ele><time>2026-04-04T09:09:37Z</time></trkpt><trkpt lat="39.39374470463407" lon="8.893813278391077"><ele>29.0</ele><time>2026-04-04T09:09:38Z</time></trkpt><trkpt lat="39.39383789973519" lon="8.893488117797055"><ele>29.5</ele><time>2026-04-04T09:09:39Z</time></trkpt><trkpt lat="39.393931931037905" lon="8.89315815543791"><ele>30.0</ele><time>2026-04-04T09:09:40Z</time></trkpt><trkpt lat="39.394024095527826" lon="8.892832455929641"><ele>30.0</ele><time>2026-04-04T09:09:41Z</time></trkpt><trkpt lat="39.39411708699033" lon="8.89250278979793"><ele>30.0</ele><time>2026-04-04T09:09:42Z</time></trkpt><trkpt lat="39.39420987434378" lon="8.892174689011014"><ele>30.0</ele><time>2026-04-04T09:09:43Z</time></trkpt><trkpt lat="39.394305860943994" lon="8.89184002350288"><ele>30.0</ele><time>2026-04-04T09:09:44Z</time></trkpt><trkpt lat="39.39440227317928" lon="8.891507245523066"><ele>30.0</ele><time>2026-04-04T09:09:45Z</time></trkpt><trkpt lat="39.39449732836984" lon="8.891173051083815"><ele>30.0</ele><time>2026-04-04T09:09:46Z</time></trkpt><trkpt lat="39.39458634480507" lon="8.89084614424086"><ele>31.0</ele><time>2026-04-04T09:09:47Z</time></trkpt><trkpt lat="39.394673809728026" lon="8.890524805163983"><ele>32.0</ele><time>2026-04-04T09:09:48Z</time></trkpt><trkpt lat="39.39476097516062" lon="8.890210491447519"><ele>31.5</ele><time>2026-04-04T09:09:49Z</time></trkpt><trkpt lat="39.39484704725975" lon="8.889907051360458"><ele>31.0</ele><time>2026-04-04T09:09:50Z</time></trkpt><trkpt lat="39.39493430332494" lon="8.889608816987083"><ele>31.0</ele><time>2026-04-04T09:09:51Z</time></trkpt><trkpt lat="39.39501738447239" lon="8.889319177156011"><ele>31.0</ele><time>2026-04-04T09:09:52Z</time></trkpt><trkpt lat="39.395099985737176" lon="8.889024722331827"><ele>32.0</ele><time>2026-04-04T09:09:53Z</time></trkpt><trkpt lat="39.39518301857362" lon="8.888735167858872"><ele>33.0</ele><time>2026-04-04T09:09:54Z</time></trkpt><trkpt lat="39.39526457990621" lon="8.888448980155289"><ele>33.5</ele><time>2026-04-04T09:09:55Z</time></trkpt><trkpt lat="39.39534236686126" lon="8.888163641086571"><ele>34.0</ele><time>2026-04-04T09:09:56Z</time></trkpt><trkpt lat="39.39542047596804" lon="8.887879902646462"><ele>34.0</ele><time>2026-04-04T09:09:57Z</time></trkpt><trkpt lat="39.395501500643256" lon="8.8875963327834"><ele>34.0</ele><time>2026-04-04T09:09:58Z</time></trkpt><trkpt lat="39.3955843950025" lon="8.887304561066696"><ele>34.0</ele><time>2026-04-04T09:09:59Z</time></trkpt><trkpt lat="39.39566620571543" lon="8.887010912862305"><ele>34.0</ele><time>2026-04-04T09:10:00Z</time></trkpt><trkpt lat="39.39574805575591" lon="8.886718436190023"><ele>34.0</ele><time>2026-04-04T09:10:01Z</time></trkpt><trkpt lat="39.395831824397725" lon="8.886423633211624"><ele>34.0</ele><time>2026-04-04T09:10:02Z</time></trkpt><trkpt lat="39.39591579620682" lon="8.886128602430169"><ele>34.0</ele><time>2026-04-04T09:10:03Z</time></trkpt><trkpt lat="39.39599988269059" lon="8.88583268160272"><ele>34.0</ele><time>2026-04-04T09:10:04Z</time></trkpt><trkpt lat="39.3960826017338" lon="8.885538529002643"><ele>34.0</ele><time>2026-04-04T09:10:05Z</time></trkpt><trkpt lat="39.39616535862256" lon="8.885244588357551"><ele>34.0</ele><time>2026-04-04T09:10:06Z</time></trkpt><trkpt lat="39.39625145255641" lon="8.884952688734177"><ele>33.5</ele><time>2026-04-04T09:10:07Z</time></trkpt><trkpt lat="39.39633533940585" lon="8.88466060990986"><ele>33.0</ele><time>2026-04-04T09:10:08Z</time></trkpt><trkpt lat="39.396416316209134" lon="8.884368432008422"><ele>33.5</ele><time>2026-04-04T09:10:09Z</time></trkpt><trkpt lat="39.396496500567316" lon="8.884073881891569"><ele>34.0</ele><time>2026-04-04T09:10:10Z</time></trkpt><trkpt lat="39.39657860385759" lon="8.883779990556105"><ele>34.0</ele><time>2026-04-04T09:10:11Z</time></trkpt><trkpt lat="39.39666215177839" lon="8.88348724232431"><ele>34.0</ele><time>2026-04-04T09:10:12Z</time></trkpt><trkpt lat="39.39674532676" lon="8.883196673302006"><ele>34.5</ele><time>2026-04-04T09:10:13Z</time></trkpt><trkpt lat="39.39682880803692" lon="8.88290776476871"><ele>35.0</ele><time>2026-04-04T09:10:14Z</time></trkpt><trkpt lat="39.396913146893546" lon="8.882618965204037"><ele>35.0</ele><time>2026-04-04T09:10:15Z</time></trkpt><trkpt lat="39.39699417750992" lon="8.882329852717145"><ele>35.0</ele><time>2026-04-04T09:10:16Z</time></trkpt><trkpt lat="39.39707391230831" lon="8.8820414152864"><ele>35.5</ele><time>2026-04-04T09:10:17Z</time></trkpt><trkpt lat="39.39715579682438" lon="8.881752801895178"><ele>36.0</ele><time>2026-04-04T09:10:18Z</time></trkpt><trkpt lat="39.39723613411267" lon="8.881465012265696"><ele>36.5</ele><time>2026-04-04T09:10:19Z</time></trkpt><trkpt lat="39.39731849323178" lon="8.881174921154692"><ele>37.0</ele><time>2026-04-04T09:10:20Z</time></trkpt><trkpt lat="39.397400040312604" lon="8.880883259744678"><ele>38.0</ele><time>2026-04-04T09:10:21Z</time></trkpt><trkpt lat="39.397482977335414" lon="8.880586683264983"><ele>39.0</ele><time>2026-04-04T09:10:22Z</time></trkpt><trkpt lat="39.397567488736684" lon="8.880288119899822"><ele>38.5</ele><time>2026-04-04T09:10:23Z</time></trkpt><trkpt lat="39.39765325628381" lon="8.879986186532884"><ele>38.0</ele><time>2026-04-04T09:10:24Z</time></trkpt><trkpt lat="39.39773939963507" lon="8.879679247145397"><ele>38.0</ele><time>2026-04-04T09:10:25Z</time></trkpt><trkpt lat="39.39782744010552" lon="8.879369536813005"><ele>38.0</ele><time>2026-04-04T09:10:26Z</time></trkpt><trkpt lat="39.39791506677294" lon="8.87905834420675"><ele>38.5</ele><time>2026-04-04T09:10:27Z</time></trkpt><trkpt lat="39.39800422787402" lon="8.87874402379503"><ele>39.0</ele><time>2026-04-04T09:10:28Z</time></trkpt><trkpt lat="39.39809330482551" lon="8.878430370310593"><ele>39.5</ele><time>2026-04-04T09:10:29Z</time></trkpt><trkpt lat="39.398181210540145" lon="8.878118614837964"><ele>40.0</ele><time>2026-04-04T09:10:30Z</time></trkpt><trkpt lat="39.39826990133885" lon="8.877804448171826"><ele>40.0</ele><time>2026-04-04T09:10:31Z</time></trkpt><trkpt lat="39.39835834431868" lon="8.877496227961608"><ele>40.0</ele><time>2026-04-04T09:10:32Z</time></trkpt><trkpt lat="39.39844668856683" lon="8.877187279734398"><ele>40.0</ele><time>2026-04-04T09:10:33Z</time></trkpt><trkpt lat="39.39853321233397" lon="8.876879830745333"><ele>40.0</ele><time>2026-04-04T09:10:34Z</time></trkpt><trkpt lat="39.39861951249725" lon="8.876567939319253"><ele>39.5</ele><time>2026-04-04T09:10:35Z</time></trkpt><trkpt lat="39.398706196848146" lon="8.876258774008189"><ele>39.0</ele><time>2026-04-04T09:10:36Z</time></trkpt><trkpt lat="39.398792900486825" lon="8.875945330580192"><ele>38.5</ele><time>2026-04-04T09:10:37Z</time></trkpt><trkpt lat="39.398879101556716" lon="8.875634117160777"><ele>38.0</ele><time>2026-04-04T09:10:38Z</time></trkpt><trkpt lat="39.39896894693114" lon="8.875318039789471"><ele>39.0</ele><time>2026-04-04T09:10:39Z</time></trkpt><trkpt lat="39.399060195248744" lon="8.875002665382926"><ele>40.0</ele><time>2026-04-04T09:10:40Z</time></trkpt><trkpt lat="39.399150531474156" lon="8.874680921003211"><ele>40.0</ele><time>2026-04-04T09:10:41Z</time></trkpt><trkpt lat="39.39924197620347" lon="8.874362391267043"><ele>40.0</ele><time>2026-04-04T09:10:42Z</time></trkpt><trkpt lat="39.39933161474577" lon="8.87404273106414"><ele>40.0</ele><time>2026-04-04T09:10:43Z</time></trkpt><trkpt lat="39.39941957123904" lon="8.873719729471455"><ele>40.0</ele><time>2026-04-04T09:10:44Z</time></trkpt><trkpt lat="39.39951112528897" lon="8.873395774681983"><ele>40.0</ele><time>2026-04-04T09:10:45Z</time></trkpt><trkpt lat="39.39960227700461" lon="8.873077309418012"><ele>40.0</ele><time>2026-04-04T09:10:46Z</time></trkpt><trkpt lat="39.39969479759846" lon="8.872754822757905"><ele>41.5</ele><time>2026-04-04T09:10:47Z</time></trkpt><trkpt lat="39.399784678751246" lon="8.872436801133421"><ele>43.0</ele><time>2026-04-04T09:10:48Z</time></trkpt><trkpt lat="39.39987433579446" lon="8.872117631138126"><ele>43.0</ele><time>2026-04-04T09:10:49Z</time></trkpt><trkpt lat="39.39996408967554" lon="8.871799047653354"><ele>43.0</ele><time>2026-04-04T09:10:50Z</time></trkpt><trkpt lat="39.40005460032307" lon="8.87148250684285"><ele>42.5</ele><time>2026-04-04T09:10:51Z</time></trkpt><trkpt lat="39.400143665090184" lon="8.87116952697623"><ele>42.0</ele><time>2026-04-04T09:10:52Z</time></trkpt><trkpt lat="39.400228861096956" lon="8.870864640751641"><ele>43.0</ele><time>2026-04-04T09:10:53Z</time></trkpt><trkpt lat="39.40031574694667" lon="8.870560293823269"><ele>44.0</ele><time>2026-04-04T09:10:54Z</time></trkpt><trkpt lat="39.40039530866514" lon="8.870276165459613"><ele>44.0</ele><time>2026-04-04T09:10:55Z</time></trkpt><trkpt lat="39.40046930515915" lon="8.87000707239306"><ele>44.0</ele><time>2026-04-04T09:10:56Z</time></trkpt><trkpt lat="39.40054589719068" lon="8.869746807712106"><ele>44.0</ele><time>2026-04-04T09:10:57Z</time></trkpt><trkpt lat="39.40062206642596" lon="8.869492694476463"><ele>44.0</ele><time>2026-04-04T09:10:58Z</time></trkpt><trkpt lat="39.400698512705695" lon="8.869233170983984"><ele>44.0</ele><time>2026-04-04T09:10:59Z</time></trkpt><trkpt lat="39.4007728775766" lon="8.868969227940136"><ele>44.0</ele><time>2026-04-04T09:11:00Z</time></trkpt><trkpt lat="39.40084725788401" lon="8.868699228216633"><ele>44.0</ele><time>2026-04-04T09:11:01Z</time></trkpt><trkpt lat="39.40092367323529" lon="8.868423929622356"><ele>44.0</ele><time>2026-04-04T09:11:02Z</time></trkpt><trkpt lat="39.40100151014807" lon="8.868145898890003"><ele>44.0</ele><time>2026-04-04T09:11:03Z</time></trkpt><trkpt lat="39.40108115676031" lon="8.867864972432992"><ele>44.0</ele><time>2026-04-04T09:11:04Z</time></trkpt><trkpt lat="39.401161109814446" lon="8.86758363789776"><ele>43.5</ele><time>2026-04-04T09:11:05Z</time></trkpt><trkpt lat="39.40124052708764" lon="8.867302643993659"><ele>43.0</ele><time>2026-04-04T09:11:06Z</time></trkpt><trkpt lat="39.40131870633442" lon="8.867023394357735"><ele>43.0</ele><time>2026-04-04T09:11:07Z</time></trkpt><trkpt lat="39.40139945761665" lon="8.866737442696037"><ele>43.0</ele><time>2026-04-04T09:11:08Z</time></trkpt><trkpt lat="39.40147931085694" lon="8.866462066082157"><ele>43.0</ele><time>2026-04-04T09:11:09Z</time></trkpt><trkpt lat="39.40155841198168" lon="8.866185185788042"><ele>43.0</ele><time>2026-04-04T09:11:10Z</time></trkpt><trkpt lat="39.4016356875362" lon="8.865915069325334"><ele>43.333333333333336</ele><time>2026-04-04T09:11:11Z</time></trkpt><trkpt lat="39.40171035422989" lon="8.865652075019609"><ele>43.666666666666664</ele><time>2026-04-04T09:11:12Z</time></trkpt><trkpt lat="39.40178500520034" lon="8.865392126289894"><ele>44.0</ele><time>2026-04-04T09:11:13Z</time></trkpt><trkpt lat="39.40185708096894" lon="8.865133296937659"><ele>44.33333333333333</ele><time>2026-04-04T09:11:14Z</time></trkpt><trkpt lat="39.40192762189692" lon="8.864878955284416"><ele>44.666666666666664</ele><time>2026-04-04T09:11:15Z</time></trkpt><trkpt lat="39.40199685730833" lon="8.864629317852778"><ele>45.0</ele><time>2026-04-04T09:11:16Z</time></trkpt><trkpt lat="39.402065380016325" lon="8.864382716369066"><ele>45.333333333333336</ele><time>2026-04-04T09:11:17Z</time></trkpt><trkpt lat="39.402137798203405" lon="8.86413754129316"><ele>45.66666666666667</ele><time>2026-04-04T09:11:18Z</time></trkpt><trkpt lat="39.40220902484216" lon="8.863892881489248"><ele>46.0</ele><time>2026-04-04T09:11:19Z</time></trkpt><trkpt lat="39.40227841219419" lon="8.863648676980258"><ele>47.0</ele><time>2026-04-04T09:11:20Z</time></trkpt><trkpt lat="39.40234815374794" lon="8.86340217883231"><ele>48.0</ele><time>2026-04-04T09:11:21Z</time></trkpt><trkpt lat="39.40241604720697" lon="8.863154044102611"><ele>49.0</ele><time>2026-04-04T09:11:22Z</time></trkpt><trkpt lat="39.40248608106064" lon="8.86290385908203"><ele>49.0</ele><time>2026-04-04T09:11:23Z</time></trkpt><trkpt lat="39.402555009140706" lon="8.862653575440406"><ele>49.0</ele><time>2026-04-04T09:11:24Z</time></trkpt><trkpt lat="39.40262212194803" lon="8.862408367560878"><ele>49.0</ele><time>2026-04-04T09:11:25Z</time></trkpt><trkpt lat="39.40269033602643" lon="8.86217044548376"><ele>48.33333333333333</ele><time>2026-04-04T09:11:26Z</time></trkpt><trkpt lat="39.40275405301753" lon="8.861946192078092"><ele>47.666666666666664</ele><time>2026-04-04T09:11:27Z</time></trkpt><trkpt lat="39.40281590987901" lon="8.861730206931151"><ele>47.0</ele><time>2026-04-04T09:11:28Z</time></trkpt><trkpt lat="39.40287528161785" lon="8.861518525812116"><ele>46.666666666666664</ele><time>2026-04-04T09:11:29Z</time></trkpt><trkpt lat="39.40293444925095" lon="8.86130764590013"><ele>46.333333333333336</ele><time>2026-04-04T09:11:30Z</time></trkpt><trkpt lat="39.40299648932069" lon="8.861094806864012"><ele>46.0</ele><time>2026-04-04T09:11:31Z</time></trkpt><trkpt lat="39.403059507261894" lon="8.860878662979232"><ele>47.0</ele><time>2026-04-04T09:11:32Z</time></trkpt><trkpt lat="39.403122074871746" lon="8.86066115816382"><ele>48.0</ele><time>2026-04-04T09:11:33Z</time></trkpt><trkpt lat="39.40318446612391" lon="8.860440480427116"><ele>49.0</ele><time>2026-04-04T09:11:34Z</time></trkpt><trkpt lat="39.40324715288744" lon="8.860219470808069"><ele>49.0</ele><time>2026-04-04T09:11:35Z</time></trkpt><trkpt lat="39.40331045323969" lon="8.859995369373822"><ele>49.0</ele><time>2026-04-04T09:11:36Z</time></trkpt><trkpt lat="39.40337344637059" lon="8.859769166046917"><ele>49.0</ele><time>2026-04-04T09:11:37Z</time></trkpt><trkpt lat="39.40343623806484" lon="8.859542516315324"><ele>49.0</ele><time>2026-04-04T09:11:38Z</time></trkpt><trkpt lat="39.403500533318955" lon="8.85931592501395"><ele>49.0</ele><time>2026-04-04T09:11:39Z</time></trkpt><trkpt lat="39.40356558414342" lon="8.859091096537549"><ele>49.0</ele><time>2026-04-04T09:11:40Z</time></trkpt><trkpt lat="39.40363161855022" lon="8.858864074215353"><ele>49.0</ele><time>2026-04-04T09:11:41Z</time></trkpt><trkpt lat="39.40369503518626" lon="8.858637057063227"><ele>49.0</ele><time>2026-04-04T09:11:42Z</time></trkpt><trkpt lat="39.403756839200405" lon="8.858417285361229"><ele>49.0</ele><time>2026-04-04T09:11:43Z</time></trkpt><trkpt lat="39.403818895723184" lon="8.858195703527814"><ele>49.0</ele><time>2026-04-04T09:11:44Z</time></trkpt><trkpt lat="39.403878695288164" lon="8.85797545602825"><ele>49.0</ele><time>2026-04-04T09:11:45Z</time></trkpt><trkpt lat="39.4039421328212" lon="8.857746152653515"><ele>49.0</ele><time>2026-04-04T09:11:46Z</time></trkpt><trkpt lat="39.40400883558615" lon="8.857519174434598"><ele>49.33333333333333</ele><time>2026-04-04T09:11:47Z</time></trkpt><trkpt lat="39.40407457787436" lon="8.857288851494218"><ele>49.66666666666667</ele><time>2026-04-04T09:11:48Z</time></trkpt><trkpt lat="39.404138450954406" lon="8.857053283284808"><ele>50.0</ele><time>2026-04-04T09:11:49Z</time></trkpt><trkpt lat="39.40420312526778" lon="8.856820743173106"><ele>51.0</ele><time>2026-04-04T09:11:50Z</time></trkpt><trkpt lat="39.404268803760026" lon="8.856586519263644"><ele>52.0</ele><time>2026-04-04T09:11:51Z</time></trkpt><trkpt lat="39.40433521416169" lon="8.856349960198713"><ele>53.0</ele><time>2026-04-04T09:11:52Z</time></trkpt><trkpt lat="39.40440198051928" lon="8.856110570369866"><ele>52.66666666666667</ele><time>2026-04-04T09:11:53Z</time></trkpt><trkpt lat="39.40446760370507" lon="8.855870931602032"><ele>52.33333333333333</ele><time>2026-04-04T09:11:54Z</time></trkpt><trkpt lat="39.404536501587884" lon="8.855635660181651"><ele>52.0</ele><time>2026-04-04T09:11:55Z</time></trkpt><trkpt lat="39.40460581533478" lon="8.855405278398258"><ele>52.0</ele><time>2026-04-04T09:11:56Z</time></trkpt><trkpt lat="39.40467134257848" lon="8.855180839683127"><ele>52.0</ele><time>2026-04-04T09:11:57Z</time></trkpt><trkpt lat="39.404732861933866" lon="8.854956599431032"><ele>52.0</ele><time>2026-04-04T09:11:58Z</time></trkpt><trkpt lat="39.40479222724512" lon="8.854738102944808"><ele>51.666666666666664</ele><time>2026-04-04T09:11:59Z</time></trkpt><trkpt lat="39.40485477348908" lon="8.854515590381803"><ele>51.33333333333333</ele><time>2026-04-04T09:12:00Z</time></trkpt><trkpt lat="39.404917750613706" lon="8.85429615004659"><ele>51.0</ele><time>2026-04-04T09:12:01Z</time></trkpt><trkpt lat="39.40497952117963" lon="8.854078097952218"><ele>51.66666666666667</ele><time>2026-04-04T09:12:02Z</time></trkpt><trkpt lat="39.40504236155676" lon="8.8538550956999"><ele>52.333333333333336</ele><time>2026-04-04T09:12:03Z</time></trkpt><trkpt lat="39.40510545107689" lon="8.853632115784064"><ele>53.0</ele><time>2026-04-04T09:12:04Z</time></trkpt><trkpt lat="39.405171605558884" lon="8.853402200548391"><ele>53.0</ele><time>2026-04-04T09:12:05Z</time></trkpt><trkpt lat="39.405236127215616" lon="8.853174670049254"><ele>53.0</ele><time>2026-04-04T09:12:06Z</time></trkpt><trkpt lat="39.40530122782463" lon="8.852941856897694"><ele>53.0</ele><time>2026-04-04T09:12:07Z</time></trkpt><trkpt lat="39.405367294799824" lon="8.852710388915655"><ele>52.66666666666667</ele><time>2026-04-04T09:12:08Z</time></trkpt><trkpt lat="39.40543378962659" lon="8.852476993632104"><ele>52.33333333333333</ele><time>2026-04-04T09:12:09Z</time></trkpt><trkpt lat="39.405498283184734" lon="8.852253309057101"><ele>52.0</ele><time>2026-04-04T09:12:10Z</time></trkpt><trkpt lat="39.4055588535096" lon="8.852037829836622"><ele>53.0</ele><time>2026-04-04T09:12:11Z</time></trkpt><trkpt lat="39.40561504486384" lon="8.851833800012276"><ele>54.0</ele><time>2026-04-04T09:12:12Z</time></trkpt><trkpt lat="39.40567114385565" lon="8.851628496890761"><ele>55.0</ele><time>2026-04-04T09:12:13Z</time></trkpt><trkpt lat="39.40572860135344" lon="8.851424706682703"><ele>55.0</ele><time>2026-04-04T09:12:14Z</time></trkpt><trkpt lat="39.405788006533335" lon="8.851219149738368"><ele>55.0</ele><time>2026-04-04T09:12:15Z</time></trkpt><trkpt lat="39.40584706208661" lon="8.85100652275611"><ele>55.0</ele><time>2026-04-04T09:12:16Z</time></trkpt><trkpt lat="39.405904783083685" lon="8.850789718182341"><ele>55.0</ele><time>2026-04-04T09:12:17Z</time></trkpt><trkpt lat="39.40596337163817" lon="8.85057228463455"><ele>55.0</ele><time>2026-04-04T09:12:18Z</time></trkpt><trkpt lat="39.406023037927774" lon="8.850355538235817"><ele>55.0</ele><time>2026-04-04T09:12:19Z</time></trkpt><trkpt lat="39.40608602854438" lon="8.850134562373881"><ele>55.0</ele><time>2026-04-04T09:12:20Z</time></trkpt><trkpt lat="39.406149040067874" lon="8.849915562687222"><ele>55.0</ele><time>2026-04-04T09:12:21Z</time></trkpt><trkpt lat="39.40621357860257" lon="8.849694529762552"><ele>55.0</ele><time>2026-04-04T09:12:22Z</time></trkpt><trkpt lat="39.40627776263613" lon="8.849470241871074"><ele>55.33333333333333</ele><time>2026-04-04T09:12:23Z</time></trkpt><trkpt lat="39.40634224694138" lon="8.849247137853274"><ele>55.66666666666667</ele><time>2026-04-04T09:12:24Z</time></trkpt><trkpt lat="39.40640770837428" lon="8.849022420685133"><ele>56.0</ele><time>2026-04-04T09:12:25Z</time></trkpt><trkpt lat="39.406471052404285" lon="8.848800111549465"><ele>56.0</ele><time>2026-04-04T09:12:26Z</time></trkpt><trkpt lat="39.406535100322124" lon="8.848576566774065"><ele>56.0</ele><time>2026-04-04T09:12:27Z</time></trkpt><trkpt lat="39.4065969290734" lon="8.848353072740517"><ele>56.0</ele><time>2026-04-04T09:12:28Z</time></trkpt><trkpt lat="39.406657936822235" lon="8.848131002461125"><ele>56.0</ele><time>2026-04-04T09:12:29Z</time></trkpt><trkpt lat="39.406719259871785" lon="8.847912837903955"><ele>56.0</ele><time>2026-04-04T09:12:30Z</time></trkpt><trkpt lat="39.406777580523844" lon="8.847699457191903"><ele>56.0</ele><time>2026-04-04T09:12:31Z</time></trkpt><trkpt lat="39.40683710440715" lon="8.847487045149602"><ele>56.0</ele><time>2026-04-04T09:12:32Z</time></trkpt><trkpt lat="39.4068951881005" lon="8.847281873966732"><ele>56.0</ele><time>2026-04-04T09:12:33Z</time></trkpt><trkpt lat="39.406951839576394" lon="8.847075467985098"><ele>56.0</ele><time>2026-04-04T09:12:34Z</time></trkpt><trkpt lat="39.40700763909692" lon="8.846872056021105"><ele>56.333333333333336</ele><time>2026-04-04T09:12:35Z</time></trkpt><trkpt lat="39.407066774361525" lon="8.846663973307633"><ele>56.66666666666667</ele><time>2026-04-04T09:12:36Z</time></trkpt><trkpt lat="39.407125179922836" lon="8.846462536909877"><ele>57.0</ele><time>2026-04-04T09:12:37Z</time></trkpt><trkpt lat="39.4071843656132" lon="8.846250112332042"><ele>57.0</ele><time>2026-04-04T09:12:38Z</time></trkpt><trkpt lat="39.407244314650264" lon="8.846037169104793"><ele>57.0</ele><time>2026-04-04T09:12:39Z</time></trkpt><trkpt lat="39.40730492331899" lon="8.845822763977008"><ele>57.0</ele><time>2026-04-04T09:12:40Z</time></trkpt><trkpt lat="39.4073656883995" lon="8.84560985383865"><ele>57.33333333333333</ele><time>2026-04-04T09:12:41Z</time></trkpt><trkpt lat="39.407428609636575" lon="8.845391977729928"><ele>57.666666666666664</ele><time>2026-04-04T09:12:42Z</time></trkpt><trkpt lat="39.40749034689678" lon="8.845171751812762"><ele>58.0</ele><time>2026-04-04T09:12:43Z</time></trkpt><trkpt lat="39.40755121315833" lon="8.844952248021489"><ele>58.33333333333333</ele><time>2026-04-04T09:12:44Z</time></trkpt><trkpt lat="39.40761183421535" lon="8.84473134483651"><ele>58.66666666666667</ele><time>2026-04-04T09:12:45Z</time></trkpt><trkpt lat="39.40767574641447" lon="8.844509539208694"><ele>59.0</ele><time>2026-04-04T09:12:46Z</time></trkpt><trkpt lat="39.407739764633334" lon="8.84429344866379"><ele>59.0</ele><time>2026-04-04T09:12:47Z</time></trkpt><trkpt lat="39.40780147443674" lon="8.844073418413194"><ele>59.0</ele><time>2026-04-04T09:12:48Z</time></trkpt><trkpt lat="39.40786479162284" lon="8.84384869826257"><ele>59.0</ele><time>2026-04-04T09:12:49Z</time></trkpt><trkpt lat="39.40792524977226" lon="8.843625444444163"><ele>59.333333333333336</ele><time>2026-04-04T09:12:50Z</time></trkpt><trkpt lat="39.40798728093991" lon="8.843395680117522"><ele>59.66666666666667</ele><time>2026-04-04T09:12:51Z</time></trkpt><trkpt lat="39.40805012079697" lon="8.84316748333929"><ele>60.0</ele><time>2026-04-04T09:12:52Z</time></trkpt><trkpt lat="39.4081150985019" lon="8.842938672882223"><ele>60.0</ele><time>2026-04-04T09:12:53Z</time></trkpt><trkpt lat="39.40817996386059" lon="8.84270744881419"><ele>60.0</ele><time>2026-04-04T09:12:54Z</time></trkpt><trkpt lat="39.40824419169248" lon="8.842477788327814"><ele>60.0</ele><time>2026-04-04T09:12:55Z</time></trkpt><trkpt lat="39.40830865634262" lon="8.842249163555005"><ele>60.0</ele><time>2026-04-04T09:12:56Z</time></trkpt><trkpt lat="39.408374710833556" lon="8.8420204234724"><ele>60.0</ele><time>2026-04-04T09:12:57Z</time></trkpt><trkpt lat="39.40844121560405" lon="8.841790940263659"><ele>60.0</ele><time>2026-04-04T09:12:58Z</time></trkpt><trkpt lat="39.40850533471844" lon="8.84156428423485"><ele>60.33333333333333</ele><time>2026-04-04T09:12:59Z</time></trkpt><trkpt lat="39.40856849630931" lon="8.841338394386153"><ele>60.666666666666664</ele><time>2026-04-04T09:13:00Z</time></trkpt><trkpt lat="39.40862878810016" lon="8.841117714574894"><ele>61.0</ele><time>2026-04-04T09:13:01Z</time></trkpt><trkpt lat="39.40868952482241" lon="8.840897828362527"><ele>61.33333333333333</ele><time>2026-04-04T09:13:02Z</time></trkpt><trkpt lat="39.40874898956773" lon="8.840683109515076"><ele>61.66666666666667</ele><time>2026-04-04T09:13:03Z</time></trkpt><trkpt lat="39.40881031035281" lon="8.840466951040083"><ele>62.0</ele><time>2026-04-04T09:13:04Z</time></trkpt><trkpt lat="39.40887331614572" lon="8.840252851805149"><ele>62.333333333333336</ele><time>2026-04-04T09:13:05Z</time></trkpt><trkpt lat="39.40893664782157" lon="8.840039079980768"><ele>62.66666666666667</ele><time>2026-04-04T09:13:06Z</time></trkpt><trkpt lat="39.40899878231008" lon="8.839822924008022"><ele>63.0</ele><time>2026-04-04T09:13:07Z</time></trkpt><trkpt lat="39.40905908366057" lon="8.839608609226397"><ele>63.0</ele><time>2026-04-04T09:13:08Z</time></trkpt><trkpt lat="39.40911977029768" lon="8.839393087927373"><ele>63.0</ele><time>2026-04-04T09:13:09Z</time></trkpt><trkpt lat="39.40918070438597" lon="8.839175255499027"><ele>63.0</ele><time>2026-04-04T09:13:10Z</time></trkpt><trkpt lat="39.40924168065106" lon="8.838956132161144"><ele>63.0</ele><time>2026-04-04T09:13:11Z</time></trkpt><trkpt lat="39.40930060653628" lon="8.838737808607783"><ele>63.0</ele><time>2026-04-04T09:13:12Z</time></trkpt><trkpt lat="39.40935959615191" lon="8.83852120117824"><ele>63.0</ele><time>2026-04-04T09:13:13Z</time></trkpt><trkpt lat="39.40942058864895" lon="8.838302539690506"><ele>62.66666666666667</ele><time>2026-04-04T09:13:14Z</time></trkpt><trkpt lat="39.40948316359529" lon="8.838083744284052"><ele>62.333333333333336</ele><time>2026-04-04T09:13:15Z</time></trkpt><trkpt lat="39.40954461027271" lon="8.8378684422522"><ele>62.0</ele><time>2026-04-04T09:13:16Z</time></trkpt><trkpt lat="39.409605009604775" lon="8.83765245835727"><ele>62.333333333333336</ele><time>2026-04-04T09:13:17Z</time></trkpt><trkpt lat="39.409665296531394" lon="8.837433697475978"><ele>62.66666666666667</ele><time>2026-04-04T09:13:18Z</time></trkpt><trkpt lat="39.40972570388153" lon="8.837216304130628"><ele>63.0</ele><time>2026-04-04T09:13:19Z</time></trkpt><trkpt lat="39.40978729751527" lon="8.836999319476057"><ele>64.0</ele><time>2026-04-04T09:13:20Z</time></trkpt><trkpt lat="39.40985071977252" lon="8.836780907756236"><ele>65.0</ele><time>2026-04-04T09:13:21Z</time></trkpt><trkpt lat="39.40991741096925" lon="8.836546722599008"><ele>66.0</ele><time>2026-04-04T09:13:22Z</time></trkpt><trkpt lat="39.40998906173916" lon="8.836295316141076"><ele>66.0</ele><time>2026-04-04T09:13:23Z</time></trkpt><trkpt lat="39.41006282392383" lon="8.83603214585963"><ele>66.0</ele><time>2026-04-04T09:13:24Z</time></trkpt><trkpt lat="39.41013784428625" lon="8.835752659752822"><ele>66.0</ele><time>2026-04-04T09:13:25Z</time></trkpt><trkpt lat="39.410213564463504" lon="8.835457054089968"><ele>66.0</ele><time>2026-04-04T09:13:26Z</time></trkpt><trkpt lat="39.410291486442624" lon="8.83514637559427"><ele>66.0</ele><time>2026-04-04T09:13:27Z</time></trkpt><trkpt lat="39.410394778105314" lon="8.834824511043788"><ele>65.5</ele><time>2026-04-04T09:13:28Z</time></trkpt><trkpt lat="39.410490353442775" lon="8.834485708322061"><ele>65.0</ele><time>2026-04-04T09:13:29Z</time></trkpt><trkpt lat="39.410588625085225" lon="8.834137348107717"><ele>66.0</ele><time>2026-04-04T09:13:30Z</time></trkpt><trkpt lat="39.41069368880278" lon="8.833767908350545"><ele>67.0</ele><time>2026-04-04T09:13:31Z</time></trkpt><trkpt lat="39.41080410031463" lon="8.833379160136074"><ele>67.0</ele><time>2026-04-04T09:13:32Z</time></trkpt><trkpt lat="39.410917823394556" lon="8.832977959379551"><ele>67.0</ele><time>2026-04-04T09:13:33Z</time></trkpt><trkpt lat="39.41101787613342" lon="8.832575181340442"><ele>67.0</ele><time>2026-04-04T09:13:34Z</time></trkpt><trkpt lat="39.41113415406376" lon="8.832200211165626"><ele>67.0</ele><time>2026-04-04T09:13:35Z</time></trkpt><trkpt lat="39.41124518351526" lon="8.831834018081084"><ele>67.5</ele><time>2026-04-04T09:13:36Z</time></trkpt><trkpt lat="39.41135177293833" lon="8.831473916615044"><ele>68.0</ele><time>2026-04-04T09:13:37Z</time></trkpt><trkpt lat="39.411455164108716" lon="8.831115111978876"><ele>68.5</ele><time>2026-04-04T09:13:38Z</time></trkpt><trkpt lat="39.41155495431634" lon="8.830756555774277"><ele>69.0</ele><time>2026-04-04T09:13:39Z</time></trkpt><trkpt lat="39.4116269095995" lon="8.830485269243978"><ele>69.0</ele><time>2026-04-04T09:13:40Z</time></trkpt><trkpt lat="39.41171480133661" lon="8.830161877399075"><ele>69.0</ele><time>2026-04-04T09:13:41Z</time></trkpt><trkpt lat="39.41180374877162" lon="8.82984420803843"><ele>69.5</ele><time>2026-04-04T09:13:42Z</time></trkpt><trkpt lat="39.41189224236" lon="8.829529363259155"><ele>70.0</ele><time>2026-04-04T09:13:43Z</time></trkpt><trkpt lat="39.411980104263435" lon="8.829219324994964"><ele>70.5</ele><time>2026-04-04T09:13:44Z</time></trkpt><trkpt lat="39.412065719301545" lon="8.828914183901249"><ele>71.0</ele><time>2026-04-04T09:13:45Z</time></trkpt><trkpt lat="39.41215203513396" lon="8.828612281546723"><ele>71.5</ele><time>2026-04-04T09:13:46Z</time></trkpt><trkpt lat="39.41223637857108" lon="8.828316959040396"><ele>72.0</ele><time>2026-04-04T09:13:47Z</time></trkpt><trkpt lat="39.412319002285706" lon="8.828020779792187"><ele>72.0</ele><time>2026-04-04T09:13:48Z</time></trkpt><trkpt lat="39.41239819200764" lon="8.827735346036667"><ele>72.0</ele><time>2026-04-04T09:13:49Z</time></trkpt><trkpt lat="39.412474149074995" lon="8.827460441354345"><ele>72.0</ele><time>2026-04-04T09:13:50Z</time></trkpt><trkpt lat="39.412548668404554" lon="8.827197175737414"><ele>72.0</ele><time>2026-04-04T09:13:51Z</time></trkpt><trkpt lat="39.41261965693615" lon="8.826943681091372"><ele>72.0</ele><time>2026-04-04T09:13:52Z</time></trkpt><trkpt lat="39.41269016299775" lon="8.826690604013976"><ele>72.0</ele><time>2026-04-04T09:13:53Z</time></trkpt><trkpt lat="39.412759861080986" lon="8.826442056566087"><ele>72.0</ele><time>2026-04-04T09:13:54Z</time></trkpt><trkpt lat="39.41282536967505" lon="8.82620174119898"><ele>72.0</ele><time>2026-04-04T09:13:55Z</time></trkpt><trkpt lat="39.412887202745885" lon="8.82596523286213"><ele>72.5</ele><time>2026-04-04T09:13:56Z</time></trkpt><trkpt lat="39.41293252708009" lon="8.825791968858484"><ele>73.0</ele><time>2026-04-04T09:13:57Z</time></trkpt><trkpt lat="39.41298512795274" lon="8.825599358650862"><ele>73.5</ele><time>2026-04-04T09:13:58Z</time></trkpt><trkpt lat="39.41303727696479" lon="8.825421077808558"><ele>74.0</ele><time>2026-04-04T09:13:59Z</time></trkpt><trkpt lat="39.41308955168882" lon="8.825249980700173"><ele>74.25</ele><time>2026-04-04T09:14:00Z</time></trkpt><trkpt lat="39.41313825255621" lon="8.82509174105161"><ele>74.5</ele><time>2026-04-04T09:14:01Z</time></trkpt><trkpt lat="39.413185774089754" lon="8.82493902038553"><ele>74.75</ele><time>2026-04-04T09:14:02Z</time></trkpt><trkpt lat="39.41322601732963" lon="8.82479556041936"><ele>75.0</ele><time>2026-04-04T09:14:03Z</time></trkpt><trkpt lat="39.41326191786809" lon="8.824655410747258"><ele>75.0</ele><time>2026-04-04T09:14:04Z</time></trkpt><trkpt lat="39.41330376196222" lon="8.824528631401309"><ele>75.0</ele><time>2026-04-04T09:14:05Z</time></trkpt><trkpt lat="39.41335513851352" lon="8.824417906681644"><ele>75.0</ele><time>2026-04-04T09:14:06Z</time></trkpt><trkpt lat="39.41341521674852" lon="8.8243233456302"><ele>75.0</ele><time>2026-04-04T09:14:07Z</time></trkpt><trkpt lat="39.41348220338725" lon="8.824249767519921"><ele>75.0</ele><time>2026-04-04T09:14:08Z</time></trkpt><trkpt lat="39.413534323546685" lon="8.824174431421822"><ele>75.0</ele><time>2026-04-04T09:14:09Z</time></trkpt><trkpt lat="39.41355959206371" lon="8.824060576052846"><ele>75.0</ele><time>2026-04-04T09:14:10Z</time></trkpt><trkpt lat="39.41354944970927" lon="8.823908918670053"><ele>75.0</ele><time>2026-04-04T09:14:11Z</time></trkpt><trkpt lat="39.41354213526707" lon="8.823721485408353"><ele>75.0</ele><time>2026-04-04T09:14:12Z</time></trkpt><trkpt lat="39.41357800726175" lon="8.823511480187396"><ele>74.66666666666667</ele><time>2026-04-04T09:14:13Z</time></trkpt><trkpt lat="39.4136391077528" lon="8.823279628974923"><ele>74.33333333333334</ele><time>2026-04-04T09:14:14Z</time></trkpt><trkpt lat="39.41369976062951" lon="8.823052749895925"><ele>74.0</ele><time>2026-04-04T09:14:15Z</time></trkpt><trkpt lat="39.4137662990786" lon="8.822823639178571"><ele>75.0</ele><time>2026-04-04T09:14:16Z</time></trkpt><trkpt lat="39.413861409301894" lon="8.822594763701492"><ele>76.0</ele><time>2026-04-04T09:14:17Z</time></trkpt><trkpt lat="39.41393075151991" lon="8.822353546638565"><ele>77.0</ele><time>2026-04-04T09:14:18Z</time></trkpt><trkpt lat="39.41399222893104" lon="8.82210265411441"><ele>77.0</ele><time>2026-04-04T09:14:19Z</time></trkpt><trkpt lat="39.414056053262804" lon="8.821867694442554"><ele>77.0</ele><time>2026-04-04T09:14:20Z</time></trkpt><trkpt lat="39.41412230627954" lon="8.82162931757541"><ele>77.0</ele><time>2026-04-04T09:14:21Z</time></trkpt><trkpt lat="39.414206438547836" lon="8.82139085489656"><ele>77.33333333333334</ele><time>2026-04-04T09:14:22Z</time></trkpt><trkpt lat="39.41425472342006" lon="8.821135123269784"><ele>77.66666666666667</ele><time>2026-04-04T09:14:23Z</time></trkpt><trkpt lat="39.41432294141562" lon="8.820890233824167"><ele>78.0</ele><time>2026-04-04T09:14:24Z</time></trkpt><trkpt lat="39.414394564508626" lon="8.820642653021283"><ele>78.0</ele><time>2026-04-04T09:14:25Z</time></trkpt><trkpt lat="39.41446600509625" lon="8.820392823212128"><ele>78.0</ele><time>2026-04-04T09:14:26Z</time></trkpt><trkpt lat="39.41453612415827" lon="8.820141543609845"><ele>78.0</ele><time>2026-04-04T09:14:27Z</time></trkpt><trkpt lat="39.41460272303178" lon="8.819889745839474"><ele>78.66666666666667</ele><time>2026-04-04T09:14:28Z</time></trkpt><trkpt lat="39.41467064846557" lon="8.81963955767408"><ele>79.33333333333334</ele><time>2026-04-04T09:14:29Z</time></trkpt><trkpt lat="39.414738094044296" lon="8.819398794482362"><ele>80.0</ele><time>2026-04-04T09:14:30Z</time></trkpt><trkpt lat="39.414805966214885" lon="8.819166423802455"><ele>80.0</ele><time>2026-04-04T09:14:31Z</time></trkpt><trkpt lat="39.41486823587495" lon="8.818949417402699"><ele>80.0</ele><time>2026-04-04T09:14:32Z</time></trkpt><trkpt lat="39.41492754525741" lon="8.8187356690621"><ele>80.0</ele><time>2026-04-04T09:14:33Z</time></trkpt><trkpt lat="39.414982784745256" lon="8.818533348290844"><ele>80.5</ele><time>2026-04-04T09:14:34Z</time></trkpt><trkpt lat="39.415091148369434" lon="8.818159472951063"><ele>81.0</ele><time>2026-04-04T09:14:36Z</time></trkpt><trkpt lat="39.4151408422977" lon="8.817986683319416"><ele>81.0</ele><time>2026-04-04T09:14:37Z</time></trkpt><trkpt lat="39.415188620895464" lon="8.817822896577026"><ele>81.0</ele><time>2026-04-04T09:14:38Z</time></trkpt><trkpt lat="39.41523606816338" lon="8.817675615238553"><ele>81.0</ele><time>2026-04-04T09:14:39Z</time></trkpt><trkpt lat="39.41528688164994" lon="8.817544400771592"><ele>81.0</ele><time>2026-04-04T09:14:40Z</time></trkpt><trkpt lat="39.415349364484356" lon="8.81744306623152"><ele>81.0</ele><time>2026-04-04T09:14:41Z</time></trkpt><trkpt lat="39.41542189193542" lon="8.81736442934594"><ele>81.0</ele><time>2026-04-04T09:14:42Z</time></trkpt><trkpt lat="39.415482510821654" lon="8.817289420480767"><ele>81.0</ele><time>2026-04-04T09:14:43Z</time></trkpt><trkpt lat="39.41550395450599" lon="8.817179308129225"><ele>81.0</ele><time>2026-04-04T09:14:44Z</time></trkpt><trkpt lat="39.41550057389061" lon="8.817034703482058"><ele>81.0</ele><time>2026-04-04T09:14:45Z</time></trkpt><trkpt lat="39.41548910900465" lon="8.816855766724036"><ele>81.33333333333333</ele><time>2026-04-04T09:14:46Z</time></trkpt><trkpt lat="39.41551293332448" lon="8.816659077097079"><ele>81.66666666666666</ele><time>2026-04-04T09:14:47Z</time></trkpt><trkpt lat="39.41556607147775" lon="8.816448136796522"><ele>82.0</ele><time>2026-04-04T09:14:48Z</time></trkpt><trkpt lat="39.415636421647676" lon="8.816226348563875"><ele>82.0</ele><time>2026-04-04T09:14:49Z</time></trkpt><trkpt lat="39.41570058278829" lon="8.816003668729941"><ele>82.0</ele><time>2026-04-04T09:14:50Z</time></trkpt><trkpt lat="39.41576308886699" lon="8.81577389811285"><ele>82.0</ele><time>2026-04-04T09:14:51Z</time></trkpt><trkpt lat="39.415833380152954" lon="8.8155367113376"><ele>82.0</ele><time>2026-04-04T09:14:52Z</time></trkpt><trkpt lat="39.41590637701628" lon="8.815292113467454"><ele>82.0</ele><time>2026-04-04T09:14:53Z</time></trkpt><trkpt lat="39.41597453418942" lon="8.815038332390904"><ele>82.0</ele><time>2026-04-04T09:14:54Z</time></trkpt><trkpt lat="39.416043074374166" lon="8.814780051621202"><ele>82.0</ele><time>2026-04-04T09:14:55Z</time></trkpt><trkpt lat="39.41611720374039" lon="8.81452173877971"><ele>82.0</ele><time>2026-04-04T09:14:56Z</time></trkpt><trkpt lat="39.4161930268081" lon="8.814260896378778"><ele>82.0</ele><time>2026-04-04T09:14:57Z</time></trkpt><trkpt lat="39.416264747637236" lon="8.814005246463418"><ele>83.0</ele><time>2026-04-04T09:14:58Z</time></trkpt><trkpt lat="39.41633696209254" lon="8.813748237187188"><ele>84.0</ele><time>2026-04-04T09:14:59Z</time></trkpt><trkpt lat="39.416413004475466" lon="8.813481425417264"><ele>85.0</ele><time>2026-04-04T09:15:00Z</time></trkpt><trkpt lat="39.416491446990555" lon="8.813206483177588"><ele>85.0</ele><time>2026-04-04T09:15:01Z</time></trkpt><trkpt lat="39.41657220926127" lon="8.812921701379056"><ele>85.0</ele><time>2026-04-04T09:15:02Z</time></trkpt><trkpt lat="39.416652734491244" lon="8.812630078266292"><ele>84.5</ele><time>2026-04-04T09:15:03Z</time></trkpt><trkpt lat="39.41673539207528" lon="8.812337759897638"><ele>84.0</ele><time>2026-04-04T09:15:04Z</time></trkpt><trkpt lat="39.41681798154827" lon="8.812045032349875"><ele>84.5</ele><time>2026-04-04T09:15:05Z</time></trkpt><trkpt lat="39.41689848582183" lon="8.811756528149724"><ele>85.0</ele><time>2026-04-04T09:15:06Z</time></trkpt><trkpt lat="39.41697956927502" lon="8.811468783365108"><ele>85.0</ele><time>2026-04-04T09:15:07Z</time></trkpt><trkpt lat="39.417063671115564" lon="8.811184757509027"><ele>85.0</ele><time>2026-04-04T09:15:08Z</time></trkpt><trkpt lat="39.41715365169652" lon="8.810903617785819"><ele>86.0</ele><time>2026-04-04T09:15:09Z</time></trkpt><trkpt lat="39.41725246527909" lon="8.81062580972"><ele>87.0</ele><time>2026-04-04T09:15:10Z</time></trkpt><trkpt lat="39.4173633850878" lon="8.810356506583506"><ele>87.0</ele><time>2026-04-04T09:15:11Z</time></trkpt><trkpt lat="39.41748702777587" lon="8.810097180902705"><ele>87.0</ele><time>2026-04-04T09:15:12Z</time></trkpt><trkpt lat="39.417616891835706" lon="8.809841705154307"><ele>87.0</ele><time>2026-04-04T09:15:13Z</time></trkpt><trkpt lat="39.41774327882002" lon="8.80958565779831"><ele>87.0</ele><time>2026-04-04T09:15:14Z</time></trkpt><trkpt lat="39.41786482106036" lon="8.809324163162088"><ele>88.0</ele><time>2026-04-04T09:15:15Z</time></trkpt><trkpt lat="39.417988887232234" lon="8.809062645557665"><ele>89.0</ele><time>2026-04-04T09:15:16Z</time></trkpt><trkpt lat="39.418114883357255" lon="8.808805386008393"><ele>89.0</ele><time>2026-04-04T09:15:17Z</time></trkpt><trkpt lat="39.41824073305797" lon="8.808547966466666"><ele>89.0</ele><time>2026-04-04T09:15:18Z</time></trkpt><trkpt lat="39.41836577368606" lon="8.808291026097997"><ele>89.0</ele><time>2026-04-04T09:15:19Z</time></trkpt><trkpt lat="39.41849207358576" lon="8.80803385616817"><ele>89.0</ele><time>2026-04-04T09:15:20Z</time></trkpt><trkpt lat="39.41861851498383" lon="8.807777631091374"><ele>89.0</ele><time>2026-04-04T09:15:21Z</time></trkpt><trkpt lat="39.41874483212855" lon="8.807520859737192"><ele>89.0</ele><time>2026-04-04T09:15:22Z</time></trkpt><trkpt lat="39.418869446330255" lon="8.807263655454689"><ele>89.0</ele><time>2026-04-04T09:15:23Z</time></trkpt><trkpt lat="39.418993650177924" lon="8.807006133713495"><ele>89.0</ele><time>2026-04-04T09:15:24Z</time></trkpt><trkpt lat="39.419117997907776" lon="8.806750264825917"><ele>90.0</ele><time>2026-04-04T09:15:25Z</time></trkpt><trkpt lat="39.41924337424832" lon="8.806493832398498"><ele>91.0</ele><time>2026-04-04T09:15:26Z</time></trkpt><trkpt lat="39.41936742633094" lon="8.806240212837947"><ele>91.0</ele><time>2026-04-04T09:15:27Z</time></trkpt><trkpt lat="39.41949131311024" lon="8.805984291120188"><ele>91.0</ele><time>2026-04-04T09:15:28Z</time></trkpt><trkpt lat="39.41961483159829" lon="8.805729354185809"><ele>91.0</ele><time>2026-04-04T09:15:29Z</time></trkpt><trkpt lat="39.41974249685173" lon="8.805469547430715"><ele>91.0</ele><time>2026-04-04T09:15:30Z</time></trkpt><trkpt lat="39.41986909190679" lon="8.80520689951171"><ele>91.0</ele><time>2026-04-04T09:15:31Z</time></trkpt><trkpt lat="39.41999393385327" lon="8.804939704650744"><ele>91.0</ele><time>2026-04-04T09:15:32Z</time></trkpt><trkpt lat="39.42012055373765" lon="8.804669175504575"><ele>91.0</ele><time>2026-04-04T09:15:33Z</time></trkpt><trkpt lat="39.42025000289563" lon="8.804400707658832"><ele>91.0</ele><time>2026-04-04T09:15:34Z</time></trkpt><trkpt lat="39.4203805191246" lon="8.804136005398114"><ele>91.5</ele><time>2026-04-04T09:15:35Z</time></trkpt><trkpt lat="39.420509925441195" lon="8.80386653780736"><ele>92.0</ele><time>2026-04-04T09:15:36Z</time></trkpt><trkpt lat="39.42064149744018" lon="8.803591950637003"><ele>93.0</ele><time>2026-04-04T09:15:37Z</time></trkpt><trkpt lat="39.4207783055184" lon="8.803311586775711"><ele>94.0</ele><time>2026-04-04T09:15:38Z</time></trkpt><trkpt lat="39.42091974955254" lon="8.803021221232854"><ele>94.0</ele><time>2026-04-04T09:15:39Z</time></trkpt><trkpt lat="39.4210630221889" lon="8.802723788176626"><ele>94.0</ele><time>2026-04-04T09:15:40Z</time></trkpt><trkpt lat="39.421208765506144" lon="8.802422628621352"><ele>95.0</ele><time>2026-04-04T09:15:41Z</time></trkpt><trkpt lat="39.421353537797536" lon="8.802122797221935"><ele>96.0</ele><time>2026-04-04T09:15:42Z</time></trkpt><trkpt lat="39.421497243179395" lon="8.801825226030784"><ele>96.0</ele><time>2026-04-04T09:15:43Z</time></trkpt><trkpt lat="39.42163969441417" lon="8.801527488031432"><ele>96.0</ele><time>2026-04-04T09:15:44Z</time></trkpt><trkpt lat="39.4217807652468" lon="8.801233280259167"><ele>96.5</ele><time>2026-04-04T09:15:45Z</time></trkpt><trkpt lat="39.42192498535415" lon="8.800933064330755"><ele>97.0</ele><time>2026-04-04T09:15:46Z</time></trkpt><trkpt lat="39.42206984735473" lon="8.800630580966553"><ele>97.5</ele><time>2026-04-04T09:15:47Z</time></trkpt><trkpt lat="39.42221748598741" lon="8.800330004156539"><ele>98.0</ele><time>2026-04-04T09:15:48Z</time></trkpt><trkpt lat="39.422366017650035" lon="8.800026091779891"><ele>98.5</ele><time>2026-04-04T09:15:49Z</time></trkpt><trkpt lat="39.42251534274015" lon="8.799724512282236"><ele>99.0</ele><time>2026-04-04T09:15:50Z</time></trkpt><trkpt lat="39.42266423087915" lon="8.799422358307291"><ele>98.5</ele><time>2026-04-04T09:15:51Z</time></trkpt><trkpt lat="39.42280724481584" lon="8.799125023575629"><ele>98.0</ele><time>2026-04-04T09:15:52Z</time></trkpt><trkpt lat="39.42295073728776" lon="8.798825929171016"><ele>98.5</ele><time>2026-04-04T09:15:53Z</time></trkpt><trkpt lat="39.42309340324355" lon="8.79852739358929"><ele>99.0</ele><time>2026-04-04T09:15:54Z</time></trkpt><trkpt lat="39.423234318989294" lon="8.798229710283215"><ele>99.0</ele><time>2026-04-04T09:15:55Z</time></trkpt><trkpt lat="39.42337908303378" lon="8.797927635392744"><ele>99.0</ele><time>2026-04-04T09:15:56Z</time></trkpt><trkpt lat="39.42352402791423" lon="8.797627251314836"><ele>100.0</ele><time>2026-04-04T09:15:57Z</time></trkpt><trkpt lat="39.42366860933755" lon="8.797330910160133"><ele>101.0</ele><time>2026-04-04T09:15:58Z</time></trkpt><trkpt lat="39.42381079618454" lon="8.79703889370021"><ele>101.5</ele><time>2026-04-04T09:15:59Z</time></trkpt><trkpt lat="39.42395255416034" lon="8.796745242486066"><ele>102.0</ele><time>2026-04-04T09:16:00Z</time></trkpt><trkpt lat="39.4240943444719" lon="8.796459353752233"><ele>102.0</ele><time>2026-04-04T09:16:01Z</time></trkpt><trkpt lat="39.42423508814896" lon="8.796174429843266"><ele>102.0</ele><time>2026-04-04T09:16:02Z</time></trkpt><trkpt lat="39.42437315115653" lon="8.79589064657353"><ele>103.0</ele><time>2026-04-04T09:16:03Z</time></trkpt><trkpt lat="39.42451182159976" lon="8.795606928179788"><ele>104.0</ele><time>2026-04-04T09:16:04Z</time></trkpt><trkpt lat="39.42464960197436" lon="8.795324363412545"><ele>104.5</ele><time>2026-04-04T09:16:05Z</time></trkpt><trkpt lat="39.42478753674746" lon="8.79503687992933"><ele>105.0</ele><time>2026-04-04T09:16:06Z</time></trkpt><trkpt lat="39.424925200207596" lon="8.794752494629828"><ele>105.0</ele><time>2026-04-04T09:16:07Z</time></trkpt><trkpt lat="39.42506348691649" lon="8.794468072689014"><ele>105.0</ele><time>2026-04-04T09:16:08Z</time></trkpt><trkpt lat="39.42520114344499" lon="8.794186356102962"><ele>106.0</ele><time>2026-04-04T09:16:09Z</time></trkpt><trkpt lat="39.42533604441811" lon="8.793906632518041"><ele>107.0</ele><time>2026-04-04T09:16:10Z</time></trkpt><trkpt lat="39.42547050180481" lon="8.79362065617328"><ele>107.0</ele><time>2026-04-04T09:16:11Z</time></trkpt><trkpt lat="39.42560328414668" lon="8.793342199671166"><ele>107.0</ele><time>2026-04-04T09:16:12Z</time></trkpt><trkpt lat="39.425736314599" lon="8.793068158434505"><ele>107.0</ele><time>2026-04-04T09:16:13Z</time></trkpt><trkpt lat="39.42587078471971" lon="8.792790420946316"><ele>107.0</ele><time>2026-04-04T09:16:14Z</time></trkpt><trkpt lat="39.42600149986416" lon="8.792519301966301"><ele>106.0</ele><time>2026-04-04T09:16:15Z</time></trkpt><trkpt lat="39.42613626451556" lon="8.792244255925587"><ele>105.0</ele><time>2026-04-04T09:16:16Z</time></trkpt><trkpt lat="39.42626796471596" lon="8.791972913102631"><ele>106.0</ele><time>2026-04-04T09:16:17Z</time></trkpt><trkpt lat="39.42640083365817" lon="8.791698773484827"><ele>107.0</ele><time>2026-04-04T09:16:18Z</time></trkpt><trkpt lat="39.42653369765187" lon="8.791421746236187"><ele>107.0</ele><time>2026-04-04T09:16:19Z</time></trkpt><trkpt lat="39.42666584173137" lon="8.791147484085288"><ele>107.0</ele><time>2026-04-04T09:16:20Z</time></trkpt><trkpt lat="39.42679955445659" lon="8.790873976277954"><ele>107.0</ele><time>2026-04-04T09:16:21Z</time></trkpt><trkpt lat="39.42693322030553" lon="8.790597750763931"><ele>107.0</ele><time>2026-04-04T09:16:22Z</time></trkpt><trkpt lat="39.42706555325763" lon="8.7903236584866"><ele>109.0</ele><time>2026-04-04T09:16:23Z</time></trkpt><trkpt lat="39.42719729593314" lon="8.790055310040842"><ele>111.0</ele><time>2026-04-04T09:16:24Z</time></trkpt><trkpt lat="39.42732206143517" lon="8.789795529852416"><ele>111.0</ele><time>2026-04-04T09:16:25Z</time></trkpt><trkpt lat="39.42744320392904" lon="8.789544471237491"><ele>111.0</ele><time>2026-04-04T09:16:26Z</time></trkpt><trkpt lat="39.427561635958625" lon="8.789298600740159"><ele>111.0</ele><time>2026-04-04T09:16:27Z</time></trkpt><trkpt lat="39.42767799426886" lon="8.789060437675554"><ele>111.0</ele><time>2026-04-04T09:16:28Z</time></trkpt><trkpt lat="39.427793596183754" lon="8.788828880362294"><ele>111.0</ele><time>2026-04-04T09:16:29Z</time></trkpt><trkpt lat="39.42791511330971" lon="8.788603485163792"><ele>111.66666666666666</ele><time>2026-04-04T09:16:30Z</time></trkpt><trkpt lat="39.428041284760155" lon="8.78838794299765"><ele>112.33333333333333</ele><time>2026-04-04T09:16:31Z</time></trkpt><trkpt lat="39.428174069925234" lon="8.788180125678549"><ele>113.0</ele><time>2026-04-04T09:16:32Z</time></trkpt><trkpt lat="39.42831503658923" lon="8.787975193452613"><ele>113.0</ele><time>2026-04-04T09:16:33Z</time></trkpt><trkpt lat="39.42846094345698" lon="8.787776064435567"><ele>113.0</ele><time>2026-04-04T09:16:34Z</time></trkpt><trkpt lat="39.428610467301844" lon="8.787582036964192"><ele>113.0</ele><time>2026-04-04T09:16:35Z</time></trkpt><trkpt lat="39.42876584307574" lon="8.787390255826853"><ele>113.0</ele><time>2026-04-04T09:16:36Z</time></trkpt><trkpt lat="39.428924088254355" lon="8.787200880236723"><ele>113.0</ele><time>2026-04-04T09:16:37Z</time></trkpt><trkpt lat="39.429137171064795" lon="8.786980759780645"><ele>114.0</ele><time>2026-04-04T09:16:38Z</time></trkpt><trkpt lat="39.4293254495336" lon="8.786788543043004"><ele>115.0</ele><time>2026-04-04T09:16:39Z</time></trkpt><trkpt lat="39.42952109634162" lon="8.786607625525964"><ele>114.5</ele><time>2026-04-04T09:16:40Z</time></trkpt><trkpt lat="39.4297256881481" lon="8.786441246388817"><ele>114.0</ele><time>2026-04-04T09:16:41Z</time></trkpt><trkpt lat="39.42994235711607" lon="8.786284333628315"><ele>114.0</ele><time>2026-04-04T09:16:42Z</time></trkpt><trkpt lat="39.430170900170054" lon="8.786134999807997"><ele>114.0</ele><time>2026-04-04T09:16:43Z</time></trkpt><trkpt lat="39.43040233474049" lon="8.785987361871587"><ele>114.5</ele><time>2026-04-04T09:16:44Z</time></trkpt><trkpt lat="39.430631508557106" lon="8.785843156731728"><ele>115.0</ele><time>2026-04-04T09:16:45Z</time></trkpt><trkpt lat="39.430859600894415" lon="8.785702231602837"><ele>115.0</ele><time>2026-04-04T09:16:46Z</time></trkpt><trkpt lat="39.43108978762125" lon="8.785582446723067"><ele>115.0</ele><time>2026-04-04T09:16:47Z</time></trkpt><trkpt lat="39.43132223889957" lon="8.78546017533076"><ele>115.0</ele><time>2026-04-04T09:16:48Z</time></trkpt><trkpt lat="39.43155562544033" lon="8.785351312792706"><ele>115.0</ele><time>2026-04-04T09:16:49Z</time></trkpt><trkpt lat="39.431795024099394" lon="8.785256326490527"><ele>116.0</ele><time>2026-04-04T09:16:50Z</time></trkpt><trkpt lat="39.43203607161676" lon="8.785172155393685"><ele>117.0</ele><time>2026-04-04T09:16:51Z</time></trkpt><trkpt lat="39.43228007089993" lon="8.785104145141641"><ele>117.0</ele><time>2026-04-04T09:16:52Z</time></trkpt><trkpt lat="39.432527252703906" lon="8.78504193592054"><ele>117.0</ele><time>2026-04-04T09:16:53Z</time></trkpt><trkpt lat="39.432775670111155" lon="8.784984126804021"><ele>117.0</ele><time>2026-04-04T09:16:54Z</time></trkpt><trkpt lat="39.433027727803136" lon="8.784933728274448"><ele>117.0</ele><time>2026-04-04T09:16:55Z</time></trkpt><trkpt lat="39.43328036083906" lon="8.784879618307937"><ele>117.0</ele><time>2026-04-04T09:16:56Z</time></trkpt><trkpt lat="39.433531716281266" lon="8.784822663474838"><ele>117.0</ele><time>2026-04-04T09:16:57Z</time></trkpt><trkpt lat="39.43378044420319" lon="8.78476589768777"><ele>117.0</ele><time>2026-04-04T09:16:58Z</time></trkpt><trkpt lat="39.43402699008154" lon="8.784708885300969"><ele>117.0</ele><time>2026-04-04T09:16:59Z</time></trkpt><trkpt lat="39.434263867252305" lon="8.784656215316867"><ele>117.0</ele><time>2026-04-04T09:17:00Z</time></trkpt><trkpt lat="39.43450514366342" lon="8.784600661612114"><ele>117.0</ele><time>2026-04-04T09:17:01Z</time></trkpt><trkpt lat="39.43474894187751" lon="8.784545777236938"><ele>117.5</ele><time>2026-04-04T09:17:02Z</time></trkpt><trkpt lat="39.43499376177663" lon="8.78448148616569"><ele>118.0</ele><time>2026-04-04T09:17:03Z</time></trkpt><trkpt lat="39.435245976113954" lon="8.784429265324164"><ele>118.5</ele><time>2026-04-04T09:17:04Z</time></trkpt><trkpt lat="39.435493771327664" lon="8.784367519658526"><ele>119.0</ele><time>2026-04-04T09:17:05Z</time></trkpt><trkpt lat="39.435749356266285" lon="8.78430837972823"><ele>119.0</ele><time>2026-04-04T09:17:06Z</time></trkpt><trkpt lat="39.436002874942375" lon="8.784249638655265"><ele>119.0</ele><time>2026-04-04T09:17:07Z</time></trkpt><trkpt lat="39.4362575000336" lon="8.784189571190112"><ele>119.5</ele><time>2026-04-04T09:17:08Z</time></trkpt><trkpt lat="39.436513159554714" lon="8.784128909519247"><ele>120.0</ele><time>2026-04-04T09:17:09Z</time></trkpt><trkpt lat="39.436770702602246" lon="8.784069311705647"><ele>120.0</ele><time>2026-04-04T09:17:10Z</time></trkpt><trkpt lat="39.43703785183858" lon="8.784011497140433"><ele>120.0</ele><time>2026-04-04T09:17:11Z</time></trkpt><trkpt lat="39.437298558180835" lon="8.783953762189125"><ele>120.0</ele><time>2026-04-04T09:17:12Z</time></trkpt><trkpt lat="39.4375521790914" lon="8.783889116530498"><ele>120.0</ele><time>2026-04-04T09:17:13Z</time></trkpt><trkpt lat="39.43781996638154" lon="8.783827515784415"><ele>120.5</ele><time>2026-04-04T09:17:14Z</time></trkpt><trkpt lat="39.438095837334345" lon="8.783759319515829"><ele>121.0</ele><time>2026-04-04T09:17:15Z</time></trkpt><trkpt lat="39.438368337501394" lon="8.783697410226988"><ele>121.0</ele><time>2026-04-04T09:17:16Z</time></trkpt><trkpt lat="39.438618503875745" lon="8.783649710039079"><ele>121.0</ele><time>2026-04-04T09:17:17Z</time></trkpt><trkpt lat="39.43887204768355" lon="8.783590618958439"><ele>121.5</ele><time>2026-04-04T09:17:18Z</time></trkpt><trkpt lat="39.43913118205704" lon="8.783525627459234"><ele>122.0</ele><time>2026-04-04T09:17:19Z</time></trkpt><trkpt lat="39.43937966912756" lon="8.783466774397926"><ele>121.0</ele><time>2026-04-04T09:17:20Z</time></trkpt><trkpt lat="39.43962360551308" lon="8.783413634505374"><ele>120.0</ele><time>2026-04-04T09:17:21Z</time></trkpt><trkpt lat="39.43986731653177" lon="8.783357794962086"><ele>118.0</ele><time>2026-04-04T09:17:22Z</time></trkpt><trkpt lat="39.4401108197827" lon="8.783299403938132"><ele>116.0</ele><time>2026-04-04T09:17:23Z</time></trkpt><trkpt lat="39.44035531887268" lon="8.783246557991482"><ele>117.0</ele><time>2026-04-04T09:17:24Z</time></trkpt><trkpt lat="39.4405967234428" lon="8.783190995980494"><ele>118.0</ele><time>2026-04-04T09:17:25Z</time></trkpt><trkpt lat="39.44083775091028" lon="8.783136591739709"><ele>118.0</ele><time>2026-04-04T09:17:26Z</time></trkpt><trkpt lat="39.441076128334146" lon="8.783083950486573"><ele>118.0</ele><time>2026-04-04T09:17:27Z</time></trkpt><trkpt lat="39.44131948014203" lon="8.783029424354194"><ele>119.5</ele><time>2026-04-04T09:17:28Z</time></trkpt><trkpt lat="39.44156345200306" lon="8.782972135197168"><ele>121.0</ele><time>2026-04-04T09:17:29Z</time></trkpt><trkpt lat="39.44180752094345" lon="8.782911251095278"><ele>121.0</ele><time>2026-04-04T09:17:30Z</time></trkpt><trkpt lat="39.44205576925788" lon="8.782849589533468"><ele>121.0</ele><time>2026-04-04T09:17:31Z</time></trkpt><trkpt lat="39.442308205157296" lon="8.782784278463756"><ele>121.0</ele><time>2026-04-04T09:17:32Z</time></trkpt><trkpt lat="39.44256265226793" lon="8.782724550075663"><ele>121.0</ele><time>2026-04-04T09:17:33Z</time></trkpt><trkpt lat="39.44281162703141" lon="8.782667183863182"><ele>122.0</ele><time>2026-04-04T09:17:34Z</time></trkpt><trkpt lat="39.44306215545783" lon="8.782611874080803"><ele>123.0</ele><time>2026-04-04T09:17:35Z</time></trkpt><trkpt lat="39.44330928391774" lon="8.782553412329998"><ele>123.0</ele><time>2026-04-04T09:17:36Z</time></trkpt><trkpt lat="39.4435543191848" lon="8.782496711050507"><ele>123.0</ele><time>2026-04-04T09:17:37Z</time></trkpt><trkpt lat="39.44379842325335" lon="8.78244250439622"><ele>123.0</ele><time>2026-04-04T09:17:38Z</time></trkpt><trkpt lat="39.44404201804858" lon="8.782385960630883"><ele>123.0</ele><time>2026-04-04T09:17:39Z</time></trkpt><trkpt lat="39.44428118013448" lon="8.782330860477943"><ele>123.0</ele><time>2026-04-04T09:17:40Z</time></trkpt><trkpt lat="39.444521909473096" lon="8.782274858743362"><ele>123.0</ele><time>2026-04-04T09:17:41Z</time></trkpt><trkpt lat="39.44476064655714" lon="8.782210311729283"><ele>123.0</ele><time>2026-04-04T09:17:42Z</time></trkpt><trkpt lat="39.44499819345506" lon="8.782166096670386"><ele>123.0</ele><time>2026-04-04T09:17:43Z</time></trkpt><trkpt lat="39.44523637933322" lon="8.782109051641731"><ele>123.0</ele><time>2026-04-04T09:17:44Z</time></trkpt><trkpt lat="39.44547045620099" lon="8.782054887691855"><ele>123.0</ele><time>2026-04-04T09:17:45Z</time></trkpt><trkpt lat="39.44570657348192" lon="8.782005830599603"><ele>123.0</ele><time>2026-04-04T09:17:46Z</time></trkpt><trkpt lat="39.44594003729973" lon="8.781954808442949"><ele>123.0</ele><time>2026-04-04T09:17:47Z</time></trkpt><trkpt lat="39.4461728646816" lon="8.78190220173333"><ele>123.0</ele><time>2026-04-04T09:17:48Z</time></trkpt><trkpt lat="39.44640348071844" lon="8.78185098229124"><ele>123.0</ele><time>2026-04-04T09:17:49Z</time></trkpt><trkpt lat="39.44663535289693" lon="8.781796951582649"><ele>123.5</ele><time>2026-04-04T09:17:50Z</time></trkpt><trkpt lat="39.44686542651807" lon="8.781740827785189"><ele>124.0</ele><time>2026-04-04T09:17:51Z</time></trkpt><trkpt lat="39.44709405848152" lon="8.781670898794376"><ele>124.0</ele><time>2026-04-04T09:17:52Z</time></trkpt><trkpt lat="39.447325082214526" lon="8.781592543462084"><ele>124.0</ele><time>2026-04-04T09:17:53Z</time></trkpt><trkpt lat="39.44755321652183" lon="8.781507705712187"><ele>124.0</ele><time>2026-04-04T09:17:54Z</time></trkpt><trkpt lat="39.447779624063394" lon="8.781416633867883"><ele>124.0</ele><time>2026-04-04T09:17:55Z</time></trkpt><trkpt lat="39.44800796773013" lon="8.781319745234951"><ele>125.0</ele><time>2026-04-04T09:17:56Z</time></trkpt><trkpt lat="39.44823601327874" lon="8.7812158320543"><ele>126.0</ele><time>2026-04-04T09:17:57Z</time></trkpt><trkpt lat="39.448461268112965" lon="8.781104269519984"><ele>126.0</ele><time>2026-04-04T09:17:58Z</time></trkpt><trkpt lat="39.44868784534706" lon="8.780985466324776"><ele>126.0</ele><time>2026-04-04T09:17:59Z</time></trkpt><trkpt lat="39.44890966364782" lon="8.780854463624166"><ele>126.0</ele><time>2026-04-04T09:18:00Z</time></trkpt><trkpt lat="39.449130200019155" lon="8.780716464098841"><ele>126.0</ele><time>2026-04-04T09:18:01Z</time></trkpt><trkpt lat="39.44934881423483" lon="8.780570393662229"><ele>126.0</ele><time>2026-04-04T09:18:02Z</time></trkpt><trkpt lat="39.4495645624322" lon="8.780417299232074"><ele>126.0</ele><time>2026-04-04T09:18:03Z</time></trkpt><trkpt lat="39.44977936765073" lon="8.780254486210904"><ele>126.5</ele><time>2026-04-04T09:18:04Z</time></trkpt><trkpt lat="39.44999060040792" lon="8.780084508527747"><ele>127.0</ele><time>2026-04-04T09:18:05Z</time></trkpt><trkpt lat="39.45019874347737" lon="8.779907785656537"><ele>127.0</ele><time>2026-04-04T09:18:06Z</time></trkpt><trkpt lat="39.45040428428355" lon="8.779722752240733"><ele>127.0</ele><time>2026-04-04T09:18:07Z</time></trkpt><trkpt lat="39.45060534019297" lon="8.779528088749526"><ele>127.5</ele><time>2026-04-04T09:18:08Z</time></trkpt><trkpt lat="39.450803476631194" lon="8.779323843492085"><ele>128.0</ele><time>2026-04-04T09:18:09Z</time></trkpt><trkpt lat="39.45099672661231" lon="8.779117839629988"><ele>128.0</ele><time>2026-04-04T09:18:10Z</time></trkpt><trkpt lat="39.45119304104175" lon="8.778906815051371"><ele>128.0</ele><time>2026-04-04T09:18:11Z</time></trkpt><trkpt lat="39.45138685816484" lon="8.778695231095584"><ele>128.5</ele><time>2026-04-04T09:18:12Z</time></trkpt><trkpt lat="39.451579505175324" lon="8.7784833820086"><ele>129.0</ele><time>2026-04-04T09:18:13Z</time></trkpt><trkpt lat="39.45177540521309" lon="8.778271322308516"><ele>129.0</ele><time>2026-04-04T09:18:14Z</time></trkpt><trkpt lat="39.451972334145246" lon="8.778059515364916"><ele>129.0</ele><time>2026-04-04T09:18:15Z</time></trkpt><trkpt lat="39.45216477613782" lon="8.77785129189918"><ele>128.5</ele><time>2026-04-04T09:18:16Z</time></trkpt><trkpt lat="39.4523609529023" lon="8.777639523065035"><ele>128.0</ele><time>2026-04-04T09:18:17Z</time></trkpt><trkpt lat="39.45255674124961" lon="8.777429345694783"><ele>128.0</ele><time>2026-04-04T09:18:18Z</time></trkpt><trkpt lat="39.45274981804135" lon="8.777216978869554"><ele>128.0</ele><time>2026-04-04T09:18:19Z</time></trkpt><trkpt lat="39.45293912436772" lon="8.777007043558065"><ele>129.0</ele><time>2026-04-04T09:18:20Z</time></trkpt><trkpt lat="39.45313122005528" lon="8.776791848653502"><ele>130.0</ele><time>2026-04-04T09:18:21Z</time></trkpt><trkpt lat="39.45332317639707" lon="8.776578567487185"><ele>130.0</ele><time>2026-04-04T09:18:22Z</time></trkpt><trkpt lat="39.453518775080724" lon="8.776364620919312"><ele>130.0</ele><time>2026-04-04T09:18:23Z</time></trkpt><trkpt lat="39.453716606535544" lon="8.776150361622369"><ele>131.0</ele><time>2026-04-04T09:18:24Z</time></trkpt><trkpt lat="39.4539150156102" lon="8.775939098432492"><ele>132.0</ele><time>2026-04-04T09:18:25Z</time></trkpt><trkpt lat="39.45411611087497" lon="8.775725251866888"><ele>132.0</ele><time>2026-04-04T09:18:26Z</time></trkpt><trkpt lat="39.45432171714061" lon="8.775508258388726"><ele>132.0</ele><time>2026-04-04T09:18:27Z</time></trkpt><trkpt lat="39.45452891828244" lon="8.775285322082818"><ele>132.0</ele><time>2026-04-04T09:18:28Z</time></trkpt><trkpt lat="39.454742283302096" lon="8.775059795859383"><ele>132.0</ele><time>2026-04-04T09:18:29Z</time></trkpt><trkpt lat="39.4549402463033" lon="8.774824299767479"><ele>132.0</ele><time>2026-04-04T09:18:30Z</time></trkpt><trkpt lat="39.45515433892288" lon="8.774594882603271"><ele>132.0</ele><time>2026-04-04T09:18:31Z</time></trkpt><trkpt lat="39.45536871135626" lon="8.77435709118716"><ele>133.0</ele><time>2026-04-04T09:18:32Z</time></trkpt><trkpt lat="39.45558369655486" lon="8.774123596530552"><ele>134.0</ele><time>2026-04-04T09:18:33Z</time></trkpt><trkpt lat="39.45579701840669" lon="8.773891651227029"><ele>134.0</ele><time>2026-04-04T09:18:34Z</time></trkpt><trkpt lat="39.45600995912074" lon="8.773666541475718"><ele>134.0</ele><time>2026-04-04T09:18:35Z</time></trkpt><trkpt lat="39.45621946528525" lon="8.773440475228925"><ele>134.0</ele><time>2026-04-04T09:18:36Z</time></trkpt><trkpt lat="39.45642767182294" lon="8.773209637015364"><ele>134.0</ele><time>2026-04-04T09:18:37Z</time></trkpt><trkpt lat="39.45663903095015" lon="8.772974533140848"><ele>134.0</ele><time>2026-04-04T09:18:38Z</time></trkpt><trkpt lat="39.45684644014154" lon="8.772744506415012"><ele>134.0</ele><time>2026-04-04T09:18:39Z</time></trkpt><trkpt lat="39.45704814438585" lon="8.772520453301633"><ele>135.5</ele><time>2026-04-04T09:18:40Z</time></trkpt><trkpt lat="39.45724905033558" lon="8.772298081040566"><ele>137.0</ele><time>2026-04-04T09:18:41Z</time></trkpt><trkpt lat="39.45744366287947" lon="8.77208576341232"><ele>137.0</ele><time>2026-04-04T09:18:42Z</time></trkpt><trkpt lat="39.45764022094081" lon="8.771872064892385"><ele>137.0</ele><time>2026-04-04T09:18:43Z</time></trkpt><trkpt lat="39.4578336248761" lon="8.771659839252488"><ele>137.0</ele><time>2026-04-04T09:18:44Z</time></trkpt><trkpt lat="39.4580258669879" lon="8.771451780703451"><ele>137.0</ele><time>2026-04-04T09:18:45Z</time></trkpt><trkpt lat="39.45821955370707" lon="8.771245983619288"><ele>137.0</ele><time>2026-04-04T09:18:46Z</time></trkpt><trkpt lat="39.45841527045269" lon="8.771032361770837"><ele>137.0</ele><time>2026-04-04T09:18:47Z</time></trkpt><trkpt lat="39.45861065658344" lon="8.770815772067952"><ele>137.5</ele><time>2026-04-04T09:18:48Z</time></trkpt><trkpt lat="39.45880528142408" lon="8.770599319979578"><ele>138.0</ele><time>2026-04-04T09:18:49Z</time></trkpt><trkpt lat="39.45899879821388" lon="8.770389410023139"><ele>139.0</ele><time>2026-04-04T09:18:50Z</time></trkpt><trkpt lat="39.45919470187423" lon="8.770179440500604"><ele>140.0</ele><time>2026-04-04T09:18:51Z</time></trkpt><trkpt lat="39.45938870354834" lon="8.769971991979622"><ele>140.0</ele><time>2026-04-04T09:18:52Z</time></trkpt><trkpt lat="39.45958775323031" lon="8.769757994745017"><ele>140.0</ele><time>2026-04-04T09:18:53Z</time></trkpt><trkpt lat="39.45978255330395" lon="8.769547511683133"><ele>141.0</ele><time>2026-04-04T09:18:54Z</time></trkpt><trkpt lat="39.45997802240958" lon="8.76933502285178"><ele>142.0</ele><time>2026-04-04T09:18:55Z</time></trkpt><trkpt lat="39.460175222365926" lon="8.769121111492254"><ele>142.0</ele><time>2026-04-04T09:18:56Z</time></trkpt><trkpt lat="39.46036839936233" lon="8.7689082307413"><ele>142.0</ele><time>2026-04-04T09:18:57Z</time></trkpt><trkpt lat="39.46056212383681" lon="8.768697658914792"><ele>142.5</ele><time>2026-04-04T09:18:58Z</time></trkpt><trkpt lat="39.46075349874835" lon="8.768487428444615"><ele>143.0</ele><time>2026-04-04T09:18:59Z</time></trkpt><trkpt lat="39.46094303985609" lon="8.768280380810504"><ele>143.0</ele><time>2026-04-04T09:19:00Z</time></trkpt><trkpt lat="39.46113193695946" lon="8.768071382701827"><ele>143.0</ele><time>2026-04-04T09:19:01Z</time></trkpt><trkpt lat="39.46132152177867" lon="8.76786416517845"><ele>144.0</ele><time>2026-04-04T09:19:02Z</time></trkpt><trkpt lat="39.461509406775384" lon="8.767658026680134"><ele>145.0</ele><time>2026-04-04T09:19:03Z</time></trkpt><trkpt lat="39.46169848540274" lon="8.767452693322426"><ele>145.0</ele><time>2026-04-04T09:19:04Z</time></trkpt><trkpt lat="39.461888471026995" lon="8.767247396183267"><ele>145.0</ele><time>2026-04-04T09:19:05Z</time></trkpt><trkpt lat="39.46207770416893" lon="8.767044954670075"><ele>145.5</ele><time>2026-04-04T09:19:06Z</time></trkpt><trkpt lat="39.46226608812796" lon="8.76683994958222"><ele>146.0</ele><time>2026-04-04T09:19:07Z</time></trkpt><trkpt lat="39.462453194500874" lon="8.766637867400787"><ele>146.0</ele><time>2026-04-04T09:19:08Z</time></trkpt><trkpt lat="39.46264399475248" lon="8.76643243363785"><ele>146.0</ele><time>2026-04-04T09:19:09Z</time></trkpt><trkpt lat="39.462834182789365" lon="8.766226798836696"><ele>146.0</ele><time>2026-04-04T09:19:10Z</time></trkpt><trkpt lat="39.46302932583055" lon="8.766014853744931"><ele>146.0</ele><time>2026-04-04T09:19:11Z</time></trkpt><trkpt lat="39.463223966052965" lon="8.765799436903476"><ele>146.0</ele><time>2026-04-04T09:19:12Z</time></trkpt><trkpt lat="39.46342174719553" lon="8.76557946238508"><ele>146.0</ele><time>2026-04-04T09:19:13Z</time></trkpt><trkpt lat="39.463619431930475" lon="8.76536028865239"><ele>147.5</ele><time>2026-04-04T09:19:14Z</time></trkpt><trkpt lat="39.46381754346658" lon="8.765142379425846"><ele>149.0</ele><time>2026-04-04T09:19:15Z</time></trkpt><trkpt lat="39.46401918839342" lon="8.76492068490353"><ele>149.0</ele><time>2026-04-04T09:19:16Z</time></trkpt><trkpt lat="39.46422131052607" lon="8.764701283800676"><ele>149.0</ele><time>2026-04-04T09:19:17Z</time></trkpt><trkpt lat="39.46442593593299" lon="8.764479203094965"><ele>148.5</ele><time>2026-04-04T09:19:18Z</time></trkpt><trkpt lat="39.46463042455829" lon="8.764258485388531"><ele>148.0</ele><time>2026-04-04T09:19:19Z</time></trkpt><trkpt lat="39.46483377024268" lon="8.76403840956209"><ele>148.0</ele><time>2026-04-04T09:19:20Z</time></trkpt><trkpt lat="39.46503333820761" lon="8.76381891458672"><ele>148.0</ele><time>2026-04-04T09:19:21Z</time></trkpt><trkpt lat="39.46523089776697" lon="8.763597751886422"><ele>147.5</ele><time>2026-04-04T09:19:22Z</time></trkpt><trkpt lat="39.46542506990919" lon="8.76337308235324"><ele>147.0</ele><time>2026-04-04T09:19:23Z</time></trkpt><trkpt lat="39.46561289843815" lon="8.763138203930355"><ele>147.0</ele><time>2026-04-04T09:19:24Z</time></trkpt><trkpt lat="39.465793620935514" lon="8.76289784691668"><ele>147.0</ele><time>2026-04-04T09:19:25Z</time></trkpt><trkpt lat="39.46597108987631" lon="8.762651258230477"><ele>148.0</ele><time>2026-04-04T09:19:26Z</time></trkpt><trkpt lat="39.466143507827695" lon="8.762399216004878"><ele>149.0</ele><time>2026-04-04T09:19:27Z</time></trkpt><trkpt lat="39.4663121421625" lon="8.762142352972306"><ele>149.0</ele><time>2026-04-04T09:19:28Z</time></trkpt><trkpt lat="39.46648037120425" lon="8.761886334788406"><ele>149.0</ele><time>2026-04-04T09:19:29Z</time></trkpt><trkpt lat="39.466646796139806" lon="8.76163006619377"><ele>149.5</ele><time>2026-04-04T09:19:30Z</time></trkpt><trkpt lat="39.46681353489453" lon="8.761376018668406"><ele>150.0</ele><time>2026-04-04T09:19:31Z</time></trkpt><trkpt lat="39.46698121362064" lon="8.76112143509115"><ele>150.0</ele><time>2026-04-04T09:19:32Z</time></trkpt><trkpt lat="39.467146879894365" lon="8.760867045392448"><ele>150.0</ele><time>2026-04-04T09:19:33Z</time></trkpt><trkpt lat="39.467311323407216" lon="8.760611179187395"><ele>150.0</ele><time>2026-04-04T09:19:34Z</time></trkpt><trkpt lat="39.46747468845092" lon="8.760355109432124"><ele>150.0</ele><time>2026-04-04T09:19:35Z</time></trkpt><trkpt lat="39.467636724021474" lon="8.760096631391932"><ele>150.0</ele><time>2026-04-04T09:19:36Z</time></trkpt><trkpt lat="39.46779965542741" lon="8.75983746064498"><ele>150.0</ele><time>2026-04-04T09:19:37Z</time></trkpt><trkpt lat="39.467963738591685" lon="8.759580431592632"><ele>152.0</ele><time>2026-04-04T09:19:38Z</time></trkpt><trkpt lat="39.46813086005238" lon="8.759322732682408"><ele>154.0</ele><time>2026-04-04T09:19:39Z</time></trkpt><trkpt lat="39.4683003884585" lon="8.759065973072062"><ele>154.0</ele><time>2026-04-04T09:19:40Z</time></trkpt><trkpt lat="39.4684706573384" lon="8.75880605095243"><ele>154.0</ele><time>2026-04-04T09:19:41Z</time></trkpt><trkpt lat="39.468639026978" lon="8.758547140296168"><ele>154.5</ele><time>2026-04-04T09:19:42Z</time></trkpt><trkpt lat="39.468806549425295" lon="8.758285688238303"><ele>155.0</ele><time>2026-04-04T09:19:43Z</time></trkpt><trkpt lat="39.46897234700539" lon="8.758024982951628"><ele>155.0</ele><time>2026-04-04T09:19:44Z</time></trkpt><trkpt lat="39.46914036644859" lon="8.757762191032894"><ele>155.0</ele><time>2026-04-04T09:19:45Z</time></trkpt><trkpt lat="39.469306814199996" lon="8.757503492423226"><ele>155.5</ele><time>2026-04-04T09:19:46Z</time></trkpt><trkpt lat="39.469472281447366" lon="8.757245124688556"><ele>156.0</ele><time>2026-04-04T09:19:47Z</time></trkpt><trkpt lat="39.46963426938057" lon="8.756993080294563"><ele>156.0</ele><time>2026-04-04T09:19:48Z</time></trkpt><trkpt lat="39.46979213900365" lon="8.75674571215758"><ele>156.0</ele><time>2026-04-04T09:19:49Z</time></trkpt><trkpt lat="39.469945296238684" lon="8.756505051846979"><ele>156.0</ele><time>2026-04-04T09:19:50Z</time></trkpt><trkpt lat="39.470098540457506" lon="8.756265251489442"><ele>156.0</ele><time>2026-04-04T09:19:51Z</time></trkpt><trkpt lat="39.470249949268776" lon="8.756032920386161"><ele>155.5</ele><time>2026-04-04T09:19:52Z</time></trkpt><trkpt lat="39.470398659381495" lon="8.755804187366934"><ele>155.0</ele><time>2026-04-04T09:19:53Z</time></trkpt><trkpt lat="39.47054577925807" lon="8.755577085023637"><ele>155.0</ele><time>2026-04-04T09:19:54Z</time></trkpt><trkpt lat="39.4706906864395" lon="8.755352934484435"><ele>155.0</ele><time>2026-04-04T09:19:55Z</time></trkpt><trkpt lat="39.47083561195677" lon="8.755130075444233"><ele>154.66666666666666</ele><time>2026-04-04T09:19:56Z</time></trkpt><trkpt lat="39.470980435835656" lon="8.754909500729218"><ele>154.33333333333334</ele><time>2026-04-04T09:19:57Z</time></trkpt><trkpt lat="39.471127397261654" lon="8.75468889329314"><ele>154.0</ele><time>2026-04-04T09:19:58Z</time></trkpt><trkpt lat="39.47127516422609" lon="8.754470737022999"><ele>154.33333333333334</ele><time>2026-04-04T09:19:59Z</time></trkpt><trkpt lat="39.47142190799904" lon="8.754250653722718"><ele>154.66666666666666</ele><time>2026-04-04T09:20:00Z</time></trkpt><trkpt lat="39.47156525825596" lon="8.754028610998338"><ele>155.0</ele><time>2026-04-04T09:20:01Z</time></trkpt><trkpt lat="39.47171001673115" lon="8.753802636669759"><ele>155.0</ele><time>2026-04-04T09:20:02Z</time></trkpt><trkpt lat="39.471852473320766" lon="8.753578136388544"><ele>155.0</ele><time>2026-04-04T09:20:03Z</time></trkpt><trkpt lat="39.47199662102741" lon="8.753353134249707"><ele>154.5</ele><time>2026-04-04T09:20:04Z</time></trkpt><trkpt lat="39.47214061558109" lon="8.753127674672463"><ele>154.0</ele><time>2026-04-04T09:20:05Z</time></trkpt><trkpt lat="39.47228513462832" lon="8.752901742278848"><ele>155.0</ele><time>2026-04-04T09:20:06Z</time></trkpt><trkpt lat="39.4724317588366" lon="8.752673398854721"><ele>156.0</ele><time>2026-04-04T09:20:07Z</time></trkpt><trkpt lat="39.47257789739348" lon="8.752446487891067"><ele>156.0</ele><time>2026-04-04T09:20:08Z</time></trkpt><trkpt lat="39.47272667738273" lon="8.752215444042394"><ele>156.0</ele><time>2026-04-04T09:20:09Z</time></trkpt><trkpt lat="39.472877078588276" lon="8.751981069932718"><ele>154.0</ele><time>2026-04-04T09:20:10Z</time></trkpt><trkpt lat="39.473027757870845" lon="8.751745120890034"><ele>152.0</ele><time>2026-04-04T09:20:11Z</time></trkpt><trkpt lat="39.47318016789765" lon="8.751505741145182"><ele>152.0</ele><time>2026-04-04T09:20:12Z</time></trkpt><trkpt lat="39.47333570352474" lon="8.751264279817397"><ele>152.0</ele><time>2026-04-04T09:20:13Z</time></trkpt><trkpt lat="39.47349182824547" lon="8.751021976827964"><ele>152.0</ele><time>2026-04-04T09:20:14Z</time></trkpt><trkpt lat="39.47364815718496" lon="8.750780973251677"><ele>152.0</ele><time>2026-04-04T09:20:15Z</time></trkpt><trkpt lat="39.47380553081577" lon="8.750537646787906"><ele>149.5</ele><time>2026-04-04T09:20:16Z</time></trkpt><trkpt lat="39.47396418665087" lon="8.750289096737099"><ele>147.0</ele><time>2026-04-04T09:20:17Z</time></trkpt><trkpt lat="39.47412118954852" lon="8.7500391889363"><ele>147.0</ele><time>2026-04-04T09:20:18Z</time></trkpt><trkpt lat="39.474282030203476" lon="8.74978349332841"><ele>147.0</ele><time>2026-04-04T09:20:19Z</time></trkpt><trkpt lat="39.474447227837935" lon="8.749528842898767"><ele>146.5</ele><time>2026-04-04T09:20:20Z</time></trkpt><trkpt lat="39.47461498992287" lon="8.749275453798013"><ele>146.0</ele><time>2026-04-04T09:20:21Z</time></trkpt><trkpt lat="39.47478436400347" lon="8.7490151659885"><ele>146.0</ele><time>2026-04-04T09:20:22Z</time></trkpt><trkpt lat="39.4749508382569" lon="8.74875285932903"><ele>146.0</ele><time>2026-04-04T09:20:23Z</time></trkpt><trkpt lat="39.47512074088528" lon="8.74848665483296"><ele>146.5</ele><time>2026-04-04T09:20:24Z</time></trkpt><trkpt lat="39.47529171186961" lon="8.74821656655515"><ele>147.0</ele><time>2026-04-04T09:20:25Z</time></trkpt><trkpt lat="39.47546517005583" lon="8.747943234553476"><ele>147.5</ele><time>2026-04-04T09:20:26Z</time></trkpt><trkpt lat="39.47564099449035" lon="8.747672536848707"><ele>148.0</ele><time>2026-04-04T09:20:27Z</time></trkpt><trkpt lat="39.475817273914636" lon="8.747406133094177"><ele>148.0</ele><time>2026-04-04T09:20:28Z</time></trkpt><trkpt lat="39.475992184175546" lon="8.747139434212242"><ele>148.0</ele><time>2026-04-04T09:20:29Z</time></trkpt><trkpt lat="39.47616568604421" lon="8.746868872880507"><ele>148.0</ele><time>2026-04-04T09:20:30Z</time></trkpt><trkpt lat="39.476335423718446" lon="8.746598800040944"><ele>148.0</ele><time>2026-04-04T09:20:31Z</time></trkpt><trkpt lat="39.476503205302194" lon="8.746334118604036"><ele>148.0</ele><time>2026-04-04T09:20:32Z</time></trkpt><trkpt lat="39.47667183082366" lon="8.74606821142458"><ele>148.0</ele><time>2026-04-04T09:20:33Z</time></trkpt><trkpt lat="39.47683885614139" lon="8.745805277876931"><ele>149.0</ele><time>2026-04-04T09:20:34Z</time></trkpt><trkpt lat="39.47700330131086" lon="8.745548037774137"><ele>150.0</ele><time>2026-04-04T09:20:35Z</time></trkpt><trkpt lat="39.47717053737886" lon="8.745288649923161"><ele>150.5</ele><time>2026-04-04T09:20:36Z</time></trkpt><trkpt lat="39.47733579978892" lon="8.745032050238358"><ele>151.0</ele><time>2026-04-04T09:20:37Z</time></trkpt><trkpt lat="39.47749978820715" lon="8.744777345095969"><ele>151.0</ele><time>2026-04-04T09:20:38Z</time></trkpt><trkpt lat="39.4776652731048" lon="8.744522357421804"><ele>151.0</ele><time>2026-04-04T09:20:39Z</time></trkpt><trkpt lat="39.47783082903928" lon="8.74426416635947"><ele>151.0</ele><time>2026-04-04T09:20:40Z</time></trkpt><trkpt lat="39.477998068913514" lon="8.744004340954746"><ele>151.0</ele><time>2026-04-04T09:20:41Z</time></trkpt><trkpt lat="39.4781693904878" lon="8.743740318180167"><ele>151.5</ele><time>2026-04-04T09:20:42Z</time></trkpt><trkpt lat="39.478343880143925" lon="8.743476068701044"><ele>152.0</ele><time>2026-04-04T09:20:43Z</time></trkpt><trkpt lat="39.478518180028544" lon="8.743209858025352"><ele>152.0</ele><time>2026-04-04T09:20:44Z</time></trkpt><trkpt lat="39.47868860985048" lon="8.742943589499978"><ele>152.0</ele><time>2026-04-04T09:20:45Z</time></trkpt><trkpt lat="39.47885393059558" lon="8.742681431705513"><ele>153.0</ele><time>2026-04-04T09:20:46Z</time></trkpt><trkpt lat="39.479016488879296" lon="8.742423300158825"><ele>154.0</ele><time>2026-04-04T09:20:47Z</time></trkpt><trkpt lat="39.47917947892088" lon="8.74216838359631"><ele>154.0</ele><time>2026-04-04T09:20:48Z</time></trkpt><trkpt lat="39.47934402316776" lon="8.741912287684249"><ele>154.0</ele><time>2026-04-04T09:20:49Z</time></trkpt><trkpt lat="39.47950827639932" lon="8.74165878899879"><ele>153.0</ele><time>2026-04-04T09:20:50Z</time></trkpt><trkpt lat="39.47967259496114" lon="8.74140543186903"><ele>152.0</ele><time>2026-04-04T09:20:51Z</time></trkpt><trkpt lat="39.479836046945415" lon="8.741153952004199"><ele>153.5</ele><time>2026-04-04T09:20:52Z</time></trkpt><trkpt lat="39.47999633886905" lon="8.740903820782535"><ele>155.0</ele><time>2026-04-04T09:20:53Z</time></trkpt><trkpt lat="39.480158403505875" lon="8.740647508653726"><ele>155.0</ele><time>2026-04-04T09:20:54Z</time></trkpt><trkpt lat="39.480324415147" lon="8.740389972369565"><ele>155.0</ele><time>2026-04-04T09:20:55Z</time></trkpt><trkpt lat="39.480492892934016" lon="8.740131888480237"><ele>154.5</ele><time>2026-04-04T09:20:56Z</time></trkpt><trkpt lat="39.480664099898775" lon="8.739869159468164"><ele>154.0</ele><time>2026-04-04T09:20:57Z</time></trkpt><trkpt lat="39.4808364579879" lon="8.73960291404948"><ele>154.5</ele><time>2026-04-04T09:20:58Z</time></trkpt><trkpt lat="39.48101268676322" lon="8.739329983412091"><ele>155.0</ele><time>2026-04-04T09:20:59Z</time></trkpt><trkpt lat="39.48118998033507" lon="8.739053016916174"><ele>155.0</ele><time>2026-04-04T09:21:00Z</time></trkpt><trkpt lat="39.4813686151604" lon="8.73877547578639"><ele>155.0</ele><time>2026-04-04T09:21:01Z</time></trkpt><trkpt lat="39.48154312449778" lon="8.738504987732234"><ele>155.0</ele><time>2026-04-04T09:21:02Z</time></trkpt><trkpt lat="39.48171640003138" lon="8.738236165648747"><ele>155.0</ele><time>2026-04-04T09:21:03Z</time></trkpt><trkpt lat="39.48188499811056" lon="8.737969520364096"><ele>154.5</ele><time>2026-04-04T09:21:04Z</time></trkpt><trkpt lat="39.482054743179845" lon="8.73770532781278"><ele>154.0</ele><time>2026-04-04T09:21:05Z</time></trkpt><trkpt lat="39.4822227913986" lon="8.737446421027325"><ele>153.0</ele><time>2026-04-04T09:21:06Z</time></trkpt><trkpt lat="39.48238908737671" lon="8.737186537402605"><ele>152.0</ele><time>2026-04-04T09:21:07Z</time></trkpt><trkpt lat="39.482551292685784" lon="8.736923703881716"><ele>152.0</ele><time>2026-04-04T09:21:08Z</time></trkpt><trkpt lat="39.48270917538093" lon="8.736661425274137"><ele>152.0</ele><time>2026-04-04T09:21:09Z</time></trkpt><trkpt lat="39.482865684496176" lon="8.736397330789252"><ele>152.5</ele><time>2026-04-04T09:21:10Z</time></trkpt><trkpt lat="39.48301739818282" lon="8.736129176451012"><ele>153.0</ele><time>2026-04-04T09:21:11Z</time></trkpt><trkpt lat="39.48316297813296" lon="8.735856004666571"><ele>154.0</ele><time>2026-04-04T09:21:12Z</time></trkpt><trkpt lat="39.48330648711694" lon="8.735577456096264"><ele>155.0</ele><time>2026-04-04T09:21:13Z</time></trkpt><trkpt lat="39.48344714743449" lon="8.73530187026096"><ele>154.0</ele><time>2026-04-04T09:21:14Z</time></trkpt><trkpt lat="39.48358964583468" lon="8.735022581488318"><ele>153.0</ele><time>2026-04-04T09:21:15Z</time></trkpt><trkpt lat="39.48373165041086" lon="8.734741234360152"><ele>152.0</ele><time>2026-04-04T09:21:16Z</time></trkpt><trkpt lat="39.48387422114749" lon="8.73445809833228"><ele>151.0</ele><time>2026-04-04T09:21:17Z</time></trkpt><trkpt lat="39.48401794921325" lon="8.73417201490547"><ele>151.0</ele><time>2026-04-04T09:21:18Z</time></trkpt><trkpt lat="39.484161135424024" lon="8.733890745643853"><ele>151.0</ele><time>2026-04-04T09:21:19Z</time></trkpt><trkpt lat="39.48430623997991" lon="8.733606230679653"><ele>152.0</ele><time>2026-04-04T09:21:20Z</time></trkpt><trkpt lat="39.48445073059177" lon="8.733321112620096"><ele>153.0</ele><time>2026-04-04T09:21:21Z</time></trkpt><trkpt lat="39.4845954932772" lon="8.733031817164493"><ele>152.0</ele><time>2026-04-04T09:21:22Z</time></trkpt><trkpt lat="39.48473961795416" lon="8.732744112154196"><ele>151.0</ele><time>2026-04-04T09:21:23Z</time></trkpt><trkpt lat="39.48488249555713" lon="8.732456793494661"><ele>151.0</ele><time>2026-04-04T09:21:24Z</time></trkpt><trkpt lat="39.48502402046585" lon="8.73216943938358"><ele>151.0</ele><time>2026-04-04T09:21:25Z</time></trkpt><trkpt lat="39.48516549907755" lon="8.731882662694009"><ele>151.5</ele><time>2026-04-04T09:21:26Z</time></trkpt><trkpt lat="39.485305181183364" lon="8.731598772358502"><ele>152.0</ele><time>2026-04-04T09:21:27Z</time></trkpt><trkpt lat="39.4854458288901" lon="8.731318374043438"><ele>151.0</ele><time>2026-04-04T09:21:28Z</time></trkpt><trkpt lat="39.485587777527925" lon="8.73103977479104"><ele>150.0</ele><time>2026-04-04T09:21:29Z</time></trkpt><trkpt lat="39.4857275172429" lon="8.730764691925064"><ele>150.0</ele><time>2026-04-04T09:21:30Z</time></trkpt><trkpt lat="39.48586420272417" lon="8.730491512147026"><ele>150.0</ele><time>2026-04-04T09:21:31Z</time></trkpt><trkpt lat="39.48599949529767" lon="8.730218583054425"><ele>150.0</ele><time>2026-04-04T09:21:32Z</time></trkpt><trkpt lat="39.486134047589175" lon="8.729946380513388"><ele>150.0</ele><time>2026-04-04T09:21:33Z</time></trkpt><trkpt lat="39.48627092246085" lon="8.729673312143687"><ele>150.5</ele><time>2026-04-04T09:21:34Z</time></trkpt><trkpt lat="39.48640575287441" lon="8.729405495232875"><ele>151.0</ele><time>2026-04-04T09:21:35Z</time></trkpt><trkpt lat="39.486541911898826" lon="8.729137353219548"><ele>152.5</ele><time>2026-04-04T09:21:36Z</time></trkpt><trkpt lat="39.48667675184826" lon="8.728871903999831"><ele>154.0</ele><time>2026-04-04T09:21:37Z</time></trkpt><trkpt lat="39.48681286179829" lon="8.728603053138544"><ele>155.0</ele><time>2026-04-04T09:21:38Z</time></trkpt><trkpt lat="39.48694767821722" lon="8.72833622158856"><ele>156.0</ele><time>2026-04-04T09:21:39Z</time></trkpt><trkpt lat="39.487083134587714" lon="8.728067337085996"><ele>156.5</ele><time>2026-04-04T09:21:40Z</time></trkpt><trkpt lat="39.48721735116087" lon="8.727799764226315"><ele>157.0</ele><time>2026-04-04T09:21:41Z</time></trkpt><trkpt lat="39.48735291662317" lon="8.727530888658263"><ele>157.5</ele><time>2026-04-04T09:21:42Z</time></trkpt><trkpt lat="39.48748691956569" lon="8.727264901621474"><ele>158.0</ele><time>2026-04-04T09:21:43Z</time></trkpt><trkpt lat="39.48762181115164" lon="8.726997357125466"><ele>158.5</ele><time>2026-04-04T09:21:44Z</time></trkpt><trkpt lat="39.48775538966463" lon="8.726730450402483"><ele>159.0</ele><time>2026-04-04T09:21:45Z</time></trkpt><trkpt lat="39.48788514967728" lon="8.726468494709621"><ele>157.0</ele><time>2026-04-04T09:21:46Z</time></trkpt><trkpt lat="39.48801323838242" lon="8.726209971200603"><ele>155.0</ele><time>2026-04-04T09:21:47Z</time></trkpt><trkpt lat="39.48814223559529" lon="8.725956105197735"><ele>155.0</ele><time>2026-04-04T09:21:48Z</time></trkpt><trkpt lat="39.488272187774136" lon="8.725705398742576"><ele>155.0</ele><time>2026-04-04T09:21:49Z</time></trkpt><trkpt lat="39.488395227081064" lon="8.72545870577021"><ele>156.0</ele><time>2026-04-04T09:21:50Z</time></trkpt><trkpt lat="39.48851174508631" lon="8.725206788083003"><ele>157.0</ele><time>2026-04-04T09:21:51Z</time></trkpt><trkpt lat="39.48861254231114" lon="8.72494875314748"><ele>157.0</ele><time>2026-04-04T09:21:52Z</time></trkpt><trkpt lat="39.48869694842066" lon="8.724685997744704"><ele>157.0</ele><time>2026-04-04T09:21:53Z</time></trkpt><trkpt lat="39.48877182997201" lon="8.724417630575253"><ele>157.0</ele><time>2026-04-04T09:21:54Z</time></trkpt><trkpt lat="39.48883360981129" lon="8.724146497840525"><ele>158.33333333333334</ele><time>2026-04-04T09:21:55Z</time></trkpt><trkpt lat="39.48887857650703" lon="8.723867986660979"><ele>159.66666666666666</ele><time>2026-04-04T09:21:56Z</time></trkpt><trkpt lat="39.48890727634713" lon="8.723582599653865"><ele>161.0</ele><time>2026-04-04T09:21:57Z</time></trkpt><trkpt lat="39.48892853633224" lon="8.723297139763728"><ele>161.66666666666666</ele><time>2026-04-04T09:21:58Z</time></trkpt><trkpt lat="39.48895166962972" lon="8.723006687806434"><ele>162.33333333333334</ele><time>2026-04-04T09:21:59Z</time></trkpt><trkpt lat="39.48897501257327" lon="8.722725427857903"><ele>163.0</ele><time>2026-04-04T09:22:00Z</time></trkpt><trkpt lat="39.488996607968254" lon="8.722447356540478"><ele>164.66666666666669</ele><time>2026-04-04T09:22:01Z</time></trkpt><trkpt lat="39.489015892315706" lon="8.722166771902431"><ele>166.33333333333334</ele><time>2026-04-04T09:22:02Z</time></trkpt><trkpt lat="39.489035505334805" lon="8.721886069547866"><ele>168.0</ele><time>2026-04-04T09:22:03Z</time></trkpt><trkpt lat="39.48905652285636" lon="8.721602857091133"><ele>169.33333333333334</ele><time>2026-04-04T09:22:04Z</time></trkpt><trkpt lat="39.48907771134733" lon="8.721322635045539"><ele>170.66666666666669</ele><time>2026-04-04T09:22:05Z</time></trkpt><trkpt lat="39.489098783166284" lon="8.721045921431747"><ele>172.0</ele><time>2026-04-04T09:22:06Z</time></trkpt><trkpt lat="39.48912118334045" lon="8.720765675576741"><ele>173.0</ele><time>2026-04-04T09:22:07Z</time></trkpt><trkpt lat="39.489141584307845" lon="8.720484333656737"><ele>174.0</ele><time>2026-04-04T09:22:08Z</time></trkpt><trkpt lat="39.48916055722798" lon="8.720202089020804"><ele>175.0</ele><time>2026-04-04T09:22:09Z</time></trkpt><trkpt lat="39.48918062379327" lon="8.719919440139895"><ele>175.0</ele><time>2026-04-04T09:22:10Z</time></trkpt><trkpt lat="39.48920329279106" lon="8.719636745578798"><ele>175.0</ele><time>2026-04-04T09:22:11Z</time></trkpt><trkpt lat="39.48922612038468" lon="8.7193517723979"><ele>175.0</ele><time>2026-04-04T09:22:12Z</time></trkpt><trkpt lat="39.4892485203475" lon="8.719070881932675"><ele>175.33333333333334</ele><time>2026-04-04T09:22:13Z</time></trkpt><trkpt lat="39.489270170095686" lon="8.718796033792886"><ele>175.66666666666666</ele><time>2026-04-04T09:22:14Z</time></trkpt><trkpt lat="39.48929321017486" lon="8.718529778712568"><ele>176.0</ele><time>2026-04-04T09:22:15Z</time></trkpt><trkpt lat="39.48932082932638" lon="8.71826737284405"><ele>177.33333333333331</ele><time>2026-04-04T09:22:16Z</time></trkpt><trkpt lat="39.48936748096221" lon="8.717999744563175"><ele>178.66666666666666</ele><time>2026-04-04T09:22:17Z</time></trkpt><trkpt lat="39.48945788698532" lon="8.717762024778096"><ele>180.0</ele><time>2026-04-04T09:22:18Z</time></trkpt><trkpt lat="39.48952560445419" lon="8.717511526306373"><ele>180.33333333333334</ele><time>2026-04-04T09:22:19Z</time></trkpt><trkpt lat="39.48962374817212" lon="8.717275436133434"><ele>180.66666666666669</ele><time>2026-04-04T09:22:20Z</time></trkpt><trkpt lat="39.489718216546585" lon="8.717030570381654"><ele>181.0</ele><time>2026-04-04T09:22:21Z</time></trkpt><trkpt lat="39.48980653972898" lon="8.716779572289736"><ele>182.33333333333334</ele><time>2026-04-04T09:22:22Z</time></trkpt><trkpt lat="39.489897442850804" lon="8.716528530575395"><ele>183.66666666666666</ele><time>2026-04-04T09:22:23Z</time></trkpt><trkpt lat="39.489990094774576" lon="8.716280006718675"><ele>185.0</ele><time>2026-04-04T09:22:24Z</time></trkpt><trkpt lat="39.49008178351913" lon="8.716028015010266"><ele>186.66666666666666</ele><time>2026-04-04T09:22:25Z</time></trkpt><trkpt lat="39.49016864093573" lon="8.715780357412509"><ele>188.33333333333334</ele><time>2026-04-04T09:22:26Z</time></trkpt><trkpt lat="39.490255151557854" lon="8.715538816907321"><ele>190.0</ele><time>2026-04-04T09:22:27Z</time></trkpt><trkpt lat="39.4903369801482" lon="8.715311089592074"><ele>189.66666666666669</ele><time>2026-04-04T09:22:28Z</time></trkpt><trkpt lat="39.4904140648895" lon="8.715093598920458"><ele>189.33333333333334</ele><time>2026-04-04T09:22:29Z</time></trkpt><trkpt lat="39.490488310714674" lon="8.714887680744702"><ele>189.0</ele><time>2026-04-04T09:22:30Z</time></trkpt><trkpt lat="39.49055705724988" lon="8.714687642801533"><ele>189.0</ele><time>2026-04-04T09:22:31Z</time></trkpt><trkpt lat="39.49061144605995" lon="8.714484994043758"><ele>189.0</ele><time>2026-04-04T09:22:32Z</time></trkpt><trkpt lat="39.490645285412114" lon="8.714267796934609"><ele>189.0</ele><time>2026-04-04T09:22:33Z</time></trkpt><trkpt lat="39.49065774102634" lon="8.714032146226613"><ele>190.0</ele><time>2026-04-04T09:22:34Z</time></trkpt><trkpt lat="39.49064774445598" lon="8.71378879969268"><ele>191.0</ele><time>2026-04-04T09:22:35Z</time></trkpt><trkpt lat="39.49061417221616" lon="8.71354042667898"><ele>192.0</ele><time>2026-04-04T09:22:36Z</time></trkpt><trkpt lat="39.49056108508561" lon="8.713291001159678"><ele>192.0</ele><time>2026-04-04T09:22:37Z</time></trkpt><trkpt lat="39.490485423595686" lon="8.713049183358441"><ele>192.0</ele><time>2026-04-04T09:22:38Z</time></trkpt><trkpt lat="39.490375454759096" lon="8.71284245666812"><ele>192.0</ele><time>2026-04-04T09:22:39Z</time></trkpt><trkpt lat="39.49028951806823" lon="8.712653203836139"><ele>195.0</ele><time>2026-04-04T09:22:40Z</time></trkpt><trkpt lat="39.49021739242543" lon="8.712470456273294"><ele>198.0</ele><time>2026-04-04T09:22:41Z</time></trkpt><trkpt lat="39.49017712693581" lon="8.712281321624284"><ele>201.0</ele><time>2026-04-04T09:22:42Z</time></trkpt><trkpt lat="39.49016396172857" lon="8.712086383965199"><ele>201.25</ele><time>2026-04-04T09:22:43Z</time></trkpt><trkpt lat="39.49018060352628" lon="8.71188756168363"><ele>201.5</ele><time>2026-04-04T09:22:44Z</time></trkpt><trkpt lat="39.490217586690605" lon="8.711695470913597"><ele>201.75</ele><time>2026-04-04T09:22:45Z</time></trkpt><trkpt lat="39.49020066804578" lon="8.711521604104798"><ele>202.0</ele><time>2026-04-04T09:22:46Z</time></trkpt><trkpt lat="39.49035865407475" lon="8.711340945221917"><ele>202.0</ele><time>2026-04-04T09:22:47Z</time></trkpt><trkpt lat="39.490425430362606" lon="8.711162835136841"><ele>202.0</ele><time>2026-04-04T09:22:48Z</time></trkpt><trkpt lat="39.49046612741717" lon="8.710964080740775"><ele>202.0</ele><time>2026-04-04T09:22:49Z</time></trkpt><trkpt lat="39.49049271097975" lon="8.710758806470439"><ele>202.0</ele><time>2026-04-04T09:22:50Z</time></trkpt><trkpt lat="39.49052334237271" lon="8.710552681739426"><ele>202.0</ele><time>2026-04-04T09:22:51Z</time></trkpt><trkpt lat="39.490564385001214" lon="8.710352971411698"><ele>202.0</ele><time>2026-04-04T09:22:52Z</time></trkpt><trkpt lat="39.49062188233742" lon="8.710167014917898"><ele>202.66666666666666</ele><time>2026-04-04T09:22:53Z</time></trkpt><trkpt lat="39.4906935158527" lon="8.709986103469165"><ele>203.33333333333331</ele><time>2026-04-04T09:22:54Z</time></trkpt><trkpt lat="39.490764347330504" lon="8.709811472068369"><ele>204.0</ele><time>2026-04-04T09:22:55Z</time></trkpt><trkpt lat="39.49083122121561" lon="8.709631903193634"><ele>204.0</ele><time>2026-04-04T09:22:56Z</time></trkpt><trkpt lat="39.49097155643863" lon="8.709256381739449"><ele>204.0</ele><time>2026-04-04T09:22:58Z</time></trkpt><trkpt lat="39.49104420886822" lon="8.709057019085453"><ele>204.0</ele><time>2026-04-04T09:22:59Z</time></trkpt><trkpt lat="39.49111752471116" lon="8.70884770522892"><ele>204.0</ele><time>2026-04-04T09:23:00Z</time></trkpt><trkpt lat="39.49119786846146" lon="8.708631091428733"><ele>204.0</ele><time>2026-04-04T09:23:01Z</time></trkpt><trkpt lat="39.4912803932258" lon="8.708409013619779"><ele>203.33333333333331</ele><time>2026-04-04T09:23:02Z</time></trkpt><trkpt lat="39.49136692294659" lon="8.708170888909786"><ele>202.66666666666666</ele><time>2026-04-04T09:23:03Z</time></trkpt><trkpt lat="39.491458796244686" lon="8.707924593746002"><ele>202.0</ele><time>2026-04-04T09:23:04Z</time></trkpt><trkpt lat="39.491556708742685" lon="8.707667790072172"><ele>202.0</ele><time>2026-04-04T09:23:05Z</time></trkpt><trkpt lat="39.49165382470673" lon="8.707409039811855"><ele>202.0</ele><time>2026-04-04T09:23:06Z</time></trkpt><trkpt lat="39.491745384708416" lon="8.707153032881207"><ele>202.0</ele><time>2026-04-04T09:23:07Z</time></trkpt><trkpt lat="39.491835631751876" lon="8.70690203720971"><ele>202.66666666666666</ele><time>2026-04-04T09:23:08Z</time></trkpt><trkpt lat="39.49192829369248" lon="8.706652595027782"><ele>203.33333333333331</ele><time>2026-04-04T09:23:09Z</time></trkpt><trkpt lat="39.49202154546453" lon="8.706399816539212"><ele>204.0</ele><time>2026-04-04T09:23:10Z</time></trkpt><trkpt lat="39.49211402450148" lon="8.706145658408476"><ele>203.33333333333331</ele><time>2026-04-04T09:23:11Z</time></trkpt><trkpt lat="39.492205552473884" lon="8.705886609813241"><ele>202.66666666666666</ele><time>2026-04-04T09:23:12Z</time></trkpt><trkpt lat="39.492300378416495" lon="8.705628148134707"><ele>202.0</ele><time>2026-04-04T09:23:13Z</time></trkpt><trkpt lat="39.49240099691243" lon="8.705369715026164"><ele>202.0</ele><time>2026-04-04T09:23:14Z</time></trkpt><trkpt lat="39.49250134115879" lon="8.705114462976953"><ele>202.0</ele><time>2026-04-04T09:23:15Z</time></trkpt><trkpt lat="39.492597570414" lon="8.704862392647565"><ele>202.0</ele><time>2026-04-04T09:23:16Z</time></trkpt><trkpt lat="39.49268940717152" lon="8.704607166667229"><ele>200.66666666666666</ele><time>2026-04-04T09:23:17Z</time></trkpt><trkpt lat="39.49278176336489" lon="8.70435238066343"><ele>199.33333333333331</ele><time>2026-04-04T09:23:18Z</time></trkpt><trkpt lat="39.492874634250235" lon="8.704098918594312"><ele>198.0</ele><time>2026-04-04T09:23:19Z</time></trkpt><trkpt lat="39.49296897644625" lon="8.703836442590097"><ele>195.5</ele><time>2026-04-04T09:23:20Z</time></trkpt><trkpt lat="39.49306464020395" lon="8.703572447952274"><ele>193.0</ele><time>2026-04-04T09:23:21Z</time></trkpt><trkpt lat="39.49317044763054" lon="8.703309508439714"><ele>193.0</ele><time>2026-04-04T09:23:22Z</time></trkpt><trkpt lat="39.49325598351814" lon="8.703046763411464"><ele>193.0</ele><time>2026-04-04T09:23:23Z</time></trkpt><trkpt lat="39.493353173038855" lon="8.702785068514785"><ele>193.0</ele><time>2026-04-04T09:23:24Z</time></trkpt><trkpt lat="39.49344608427228" lon="8.702521702995481"><ele>193.0</ele><time>2026-04-04T09:23:25Z</time></trkpt><trkpt lat="39.49353813996301" lon="8.702252888883676"><ele>193.0</ele><time>2026-04-04T09:23:26Z</time></trkpt><trkpt lat="39.49362259175505" lon="8.701979286160444"><ele>191.0</ele><time>2026-04-04T09:23:27Z</time></trkpt><trkpt lat="39.493692987115125" lon="8.70168825288912"><ele>189.0</ele><time>2026-04-04T09:23:28Z</time></trkpt><trkpt lat="39.493750914675125" lon="8.701389345580917"><ele>187.5</ele><time>2026-04-04T09:23:29Z</time></trkpt><trkpt lat="39.49380877398855" lon="8.701086803857805"><ele>186.0</ele><time>2026-04-04T09:23:30Z</time></trkpt><trkpt lat="39.49386795756383" lon="8.700783614191579"><ele>185.5</ele><time>2026-04-04T09:23:31Z</time></trkpt><trkpt lat="39.49392373727948" lon="8.70048235187866"><ele>185.0</ele><time>2026-04-04T09:23:32Z</time></trkpt><trkpt lat="39.493978940269606" lon="8.700181725865662"><ele>185.0</ele><time>2026-04-04T09:23:33Z</time></trkpt><trkpt lat="39.494036042311656" lon="8.69988136356632"><ele>185.0</ele><time>2026-04-04T09:23:34Z</time></trkpt><trkpt lat="39.49409419717289" lon="8.699585022428765"><ele>185.0</ele><time>2026-04-04T09:23:35Z</time></trkpt><trkpt lat="39.49415244265813" lon="8.699286746461837"><ele>185.0</ele><time>2026-04-04T09:23:36Z</time></trkpt><trkpt lat="39.49421133462591" lon="8.698986767963017"><ele>185.0</ele><time>2026-04-04T09:23:37Z</time></trkpt><trkpt lat="39.49427034104042" lon="8.698683868563014"><ele>185.0</ele><time>2026-04-04T09:23:38Z</time></trkpt><trkpt lat="39.49432945093716" lon="8.698380801150869"><ele>184.0</ele><time>2026-04-04T09:23:39Z</time></trkpt><trkpt lat="39.49438721870093" lon="8.698071569287185"><ele>183.0</ele><time>2026-04-04T09:23:40Z</time></trkpt><trkpt lat="39.49444445135044" lon="8.697760722764562"><ele>183.0</ele><time>2026-04-04T09:23:41Z</time></trkpt><trkpt lat="39.49450328999229" lon="8.697445400986629"><ele>183.0</ele><time>2026-04-04T09:23:42Z</time></trkpt><trkpt lat="39.49456447325246" lon="8.697129344168161"><ele>181.0</ele><time>2026-04-04T09:23:43Z</time></trkpt><trkpt lat="39.49462552317595" lon="8.696811640860737"><ele>179.0</ele><time>2026-04-04T09:23:44Z</time></trkpt><trkpt lat="39.49468665285898" lon="8.696494353472595"><ele>179.0</ele><time>2026-04-04T09:23:45Z</time></trkpt><trkpt lat="39.4947494434637" lon="8.696176839834237"><ele>179.0</ele><time>2026-04-04T09:23:46Z</time></trkpt><trkpt lat="39.49481016726007" lon="8.695864036589041"><ele>180.0</ele><time>2026-04-04T09:23:47Z</time></trkpt><trkpt lat="39.494871222993005" lon="8.695553276798188"><ele>181.0</ele><time>2026-04-04T09:23:48Z</time></trkpt><trkpt lat="39.49493250897736" lon="8.695239457643055"><ele>182.0</ele><time>2026-04-04T09:23:49Z</time></trkpt><trkpt lat="39.494992634188534" lon="8.694920578671029"><ele>183.0</ele><time>2026-04-04T09:23:50Z</time></trkpt><trkpt lat="39.495048570316456" lon="8.694604496021446"><ele>184.0</ele><time>2026-04-04T09:23:51Z</time></trkpt><trkpt lat="39.49510251456759" lon="8.694293877614012"><ele>185.0</ele><time>2026-04-04T09:23:52Z</time></trkpt><trkpt lat="39.495157156734805" lon="8.6939968906497"><ele>185.0</ele><time>2026-04-04T09:23:53Z</time></trkpt><trkpt lat="39.49521280293442" lon="8.693720060005889"><ele>185.0</ele><time>2026-04-04T09:23:54Z</time></trkpt><trkpt lat="39.49526537505336" lon="8.693460005410902"><ele>185.0</ele><time>2026-04-04T09:23:55Z</time></trkpt><trkpt lat="39.495314639519854" lon="8.693211700881745"><ele>185.0</ele><time>2026-04-04T09:23:56Z</time></trkpt><trkpt lat="39.49536863784966" lon="8.692975781026282"><ele>185.0</ele><time>2026-04-04T09:23:57Z</time></trkpt><trkpt lat="39.49544494314695" lon="8.69275461162841"><ele>185.0</ele><time>2026-04-04T09:23:58Z</time></trkpt><trkpt lat="39.49555153981389" lon="8.69255075064302"><ele>184.66666666666666</ele><time>2026-04-04T09:23:59Z</time></trkpt><trkpt lat="39.495675172323" lon="8.692352377752936"><ele>184.33333333333334</ele><time>2026-04-04T09:24:00Z</time></trkpt><trkpt lat="39.49581234913391" lon="8.692174336128856"><ele>184.0</ele><time>2026-04-04T09:24:01Z</time></trkpt><trkpt lat="39.49596638355621" lon="8.69202220983523"><ele>185.0</ele><time>2026-04-04T09:24:02Z</time></trkpt><trkpt lat="39.49613519807487" lon="8.69189691698779"><ele>186.0</ele><time>2026-04-04T09:24:03Z</time></trkpt><trkpt lat="39.49630697199436" lon="8.691796970872764"><ele>187.0</ele><time>2026-04-04T09:24:04Z</time></trkpt><trkpt lat="39.49647415668622" lon="8.691711331590051"><ele>185.0</ele><time>2026-04-04T09:24:05Z</time></trkpt><trkpt lat="39.49663126226845" lon="8.691627512280474"><ele>183.0</ele><time>2026-04-04T09:24:06Z</time></trkpt><trkpt lat="39.49677823673356" lon="8.691546832166722"><ele>181.0</ele><time>2026-04-04T09:24:07Z</time></trkpt><trkpt lat="39.49690961348152" lon="8.691456342346763"><ele>181.0</ele><time>2026-04-04T09:24:08Z</time></trkpt><trkpt lat="39.497021328786786" lon="8.691324736139649"><ele>181.0</ele><time>2026-04-04T09:24:09Z</time></trkpt><trkpt lat="39.497109842078736" lon="8.691151091859899"><ele>181.0</ele><time>2026-04-04T09:24:10Z</time></trkpt><trkpt lat="39.497178663341415" lon="8.690956732658998"><ele>180.0</ele><time>2026-04-04T09:24:11Z</time></trkpt><trkpt lat="39.49721445273868" lon="8.69074415380221"><ele>179.0</ele><time>2026-04-04T09:24:12Z</time></trkpt><trkpt lat="39.49721559122596" lon="8.690525993050906"><ele>178.0</ele><time>2026-04-04T09:24:13Z</time></trkpt><trkpt lat="39.497192032691586" lon="8.690316500440009"><ele>178.0</ele><time>2026-04-04T09:24:14Z</time></trkpt><trkpt lat="39.49716544212357" lon="8.689933170293354"><ele>178.0</ele><time>2026-04-04T09:24:16Z</time></trkpt><trkpt lat="39.49717891290132" lon="8.689760054246669"><ele>178.0</ele><time>2026-04-04T09:24:17Z</time></trkpt><trkpt lat="39.497215909118445" lon="8.689601397084765"><ele>178.0</ele><time>2026-04-04T09:24:18Z</time></trkpt><trkpt lat="39.49728831454829" lon="8.689457947186265"><ele>178.0</ele><time>2026-04-04T09:24:19Z</time></trkpt><trkpt lat="39.49749610730041" lon="8.689195316114438"><ele>178.0</ele><time>2026-04-04T09:24:21Z</time></trkpt><trkpt lat="39.49760907636617" lon="8.689081138376972"><ele>177.75</ele><time>2026-04-04T09:24:22Z</time></trkpt><trkpt lat="39.49772370257986" lon="8.68896524239883"><ele>177.5</ele><time>2026-04-04T09:24:23Z</time></trkpt><trkpt lat="39.49782768940999" lon="8.688843230448862"><ele>177.25</ele><time>2026-04-04T09:24:24Z</time></trkpt><trkpt lat="39.497900054308374" lon="8.688702162563171"><ele>177.0</ele><time>2026-04-04T09:24:25Z</time></trkpt><trkpt lat="39.497929627294226" lon="8.688543823856088"><ele>179.0</ele><time>2026-04-04T09:24:26Z</time></trkpt><trkpt lat="39.49791742312285" lon="8.688379739550646"><ele>181.0</ele><time>2026-04-04T09:24:27Z</time></trkpt><trkpt lat="39.49786967720932" lon="8.68822611516547"><ele>183.0</ele><time>2026-04-04T09:24:28Z</time></trkpt><trkpt lat="39.497821578879375" lon="8.688066722915426"><ele>185.0</ele><time>2026-04-04T09:24:29Z</time></trkpt><trkpt lat="39.49779972228209" lon="8.687897671979217"><ele>184.5</ele><time>2026-04-04T09:24:30Z</time></trkpt><trkpt lat="39.49782727012432" lon="8.687726905551825"><ele>184.0</ele><time>2026-04-04T09:24:31Z</time></trkpt><trkpt lat="39.497866999402035" lon="8.687546815168982"><ele>183.5</ele><time>2026-04-04T09:24:32Z</time></trkpt><trkpt lat="39.497958648220944" lon="8.68736755959463"><ele>183.0</ele><time>2026-04-04T09:24:33Z</time></trkpt><trkpt lat="39.49808079869433" lon="8.687155626734077"><ele>183.5</ele><time>2026-04-04T09:24:34Z</time></trkpt><trkpt lat="39.498227315051835" lon="8.686932208817211"><ele>184.0</ele><time>2026-04-04T09:24:35Z</time></trkpt><trkpt lat="39.49839813211468" lon="8.686697881193275"><ele>184.0</ele><time>2026-04-04T09:24:36Z</time></trkpt><trkpt lat="39.498550856577815" lon="8.68645688412371"><ele>184.0</ele><time>2026-04-04T09:24:37Z</time></trkpt><trkpt lat="39.498686662630156" lon="8.686212739544665"><ele>183.66666666666669</ele><time>2026-04-04T09:24:38Z</time></trkpt><trkpt lat="39.4987942319158" lon="8.685960481624862"><ele>183.33333333333334</ele><time>2026-04-04T09:24:39Z</time></trkpt><trkpt lat="39.498877677374026" lon="8.685704266943898"><ele>183.0</ele><time>2026-04-04T09:24:40Z</time></trkpt><trkpt lat="39.49893608756811" lon="8.685429356399302"><ele>183.0</ele><time>2026-04-04T09:24:41Z</time></trkpt><trkpt lat="39.49896950388118" lon="8.685124560850133"><ele>183.0</ele><time>2026-04-04T09:24:42Z</time></trkpt><trkpt lat="39.49898084425715" lon="8.684795942868407"><ele>183.0</ele><time>2026-04-04T09:24:43Z</time></trkpt><trkpt lat="39.4989679175522" lon="8.684446383253368"><ele>183.0</ele><time>2026-04-04T09:24:44Z</time></trkpt><trkpt lat="39.498945495096066" lon="8.684087480645813"><ele>184.0</ele><time>2026-04-04T09:24:45Z</time></trkpt><trkpt lat="39.49891781926312" lon="8.683716571344046"><ele>185.0</ele><time>2026-04-04T09:24:46Z</time></trkpt><trkpt lat="39.498889787004856" lon="8.683341521726891"><ele>185.0</ele><time>2026-04-04T09:24:47Z</time></trkpt><trkpt lat="39.49886245861737" lon="8.682960048182355"><ele>185.0</ele><time>2026-04-04T09:24:48Z</time></trkpt><trkpt lat="39.49883982477665" lon="8.682583518474623"><ele>185.0</ele><time>2026-04-04T09:24:49Z</time></trkpt><trkpt lat="39.498821004225064" lon="8.682209669553698"><ele>185.0</ele><time>2026-04-04T09:24:50Z</time></trkpt><trkpt lat="39.498800644722664" lon="8.681824993435445"><ele>186.0</ele><time>2026-04-04T09:24:51Z</time></trkpt><trkpt lat="39.49878143371587" lon="8.681441319691597"><ele>187.0</ele><time>2026-04-04T09:24:52Z</time></trkpt><trkpt lat="39.49876176246654" lon="8.681054633889753"><ele>191.5</ele><time>2026-04-04T09:24:53Z</time></trkpt><trkpt lat="39.49874105839137" lon="8.680678496551126"><ele>196.0</ele><time>2026-04-04T09:24:54Z</time></trkpt><trkpt lat="39.49872316194956" lon="8.680314764997167"><ele>197.0</ele><time>2026-04-04T09:24:55Z</time></trkpt><trkpt lat="39.49870601197415" lon="8.679956222938197"><ele>198.0</ele><time>2026-04-04T09:24:56Z</time></trkpt><trkpt lat="39.49868713524801" lon="8.679596263344283"><ele>198.5</ele><time>2026-04-04T09:24:57Z</time></trkpt><trkpt lat="39.498666371602646" lon="8.679231727002536"><ele>199.0</ele><time>2026-04-04T09:24:58Z</time></trkpt><trkpt lat="39.49864680788681" lon="8.67886385669428"><ele>198.5</ele><time>2026-04-04T09:24:59Z</time></trkpt><trkpt lat="39.49862908926564" lon="8.678505177959742"><ele>198.0</ele><time>2026-04-04T09:25:00Z</time></trkpt><trkpt lat="39.49861114781947" lon="8.678146931634311"><ele>198.0</ele><time>2026-04-04T09:25:01Z</time></trkpt><trkpt lat="39.498592014406235" lon="8.677786626482282"><ele>198.0</ele><time>2026-04-04T09:25:02Z</time></trkpt><trkpt lat="39.498572811421425" lon="8.677424798742836"><ele>196.5</ele><time>2026-04-04T09:25:03Z</time></trkpt><trkpt lat="39.49855326053273" lon="8.677057756268216"><ele>195.0</ele><time>2026-04-04T09:25:04Z</time></trkpt><trkpt lat="39.49853326237739" lon="8.676690942558507"><ele>195.0</ele><time>2026-04-04T09:25:05Z</time></trkpt><trkpt lat="39.4985137257765" lon="8.676333024146928"><ele>195.0</ele><time>2026-04-04T09:25:06Z</time></trkpt><trkpt lat="39.498492513571215" lon="8.675977488548945"><ele>195.0</ele><time>2026-04-04T09:25:07Z</time></trkpt><trkpt lat="39.498473662004905" lon="8.675631401052053"><ele>195.0</ele><time>2026-04-04T09:25:08Z</time></trkpt><trkpt lat="39.49845778775657" lon="8.67528974176772"><ele>194.0</ele><time>2026-04-04T09:25:09Z</time></trkpt><trkpt lat="39.498442944516086" lon="8.674953288647501"><ele>193.0</ele><time>2026-04-04T09:25:10Z</time></trkpt><trkpt lat="39.49842695955169" lon="8.674617546564596"><ele>192.5</ele><time>2026-04-04T09:25:11Z</time></trkpt><trkpt lat="39.4984096479288" lon="8.674285939926298"><ele>192.0</ele><time>2026-04-04T09:25:12Z</time></trkpt><trkpt lat="39.49839109305923" lon="8.673958505378742"><ele>192.0</ele><time>2026-04-04T09:25:13Z</time></trkpt><trkpt lat="39.498374186419206" lon="8.673635964377922"><ele>192.0</ele><time>2026-04-04T09:25:14Z</time></trkpt><trkpt lat="39.498357753584656" lon="8.673321685031437"><ele>190.5</ele><time>2026-04-04T09:25:15Z</time></trkpt><trkpt lat="39.498337250801" lon="8.673013882343888"><ele>189.0</ele><time>2026-04-04T09:25:16Z</time></trkpt><trkpt lat="39.49831793765807" lon="8.672713285218345"><ele>188.33333333333334</ele><time>2026-04-04T09:25:17Z</time></trkpt><trkpt lat="39.498300552661576" lon="8.672426552422438"><ele>187.66666666666669</ele><time>2026-04-04T09:25:18Z</time></trkpt><trkpt lat="39.49828427098967" lon="8.672152479960367"><ele>187.0</ele><time>2026-04-04T09:25:19Z</time></trkpt><trkpt lat="39.49826913875025" lon="8.671888361378603"><ele>186.0</ele><time>2026-04-04T09:25:20Z</time></trkpt><trkpt lat="39.49825407079579" lon="8.671632486789466"><ele>185.0</ele><time>2026-04-04T09:25:21Z</time></trkpt><trkpt lat="39.4982393831244" lon="8.671381214697618"><ele>184.0</ele><time>2026-04-04T09:25:22Z</time></trkpt><trkpt lat="39.49822518080669" lon="8.671130529911968"><ele>184.0</ele><time>2026-04-04T09:25:23Z</time></trkpt><trkpt lat="39.498211084200996" lon="8.670881172058518"><ele>184.0</ele><time>2026-04-04T09:25:24Z</time></trkpt><trkpt lat="39.49819727206277" lon="8.670634432347999"><ele>184.0</ele><time>2026-04-04T09:25:25Z</time></trkpt><trkpt lat="39.49818322641853" lon="8.670385266113373"><ele>184.33333333333334</ele><time>2026-04-04T09:25:26Z</time></trkpt><trkpt lat="39.498167784057586" lon="8.67014145056475"><ele>184.66666666666666</ele><time>2026-04-04T09:25:27Z</time></trkpt><trkpt lat="39.49814912471496" lon="8.669902941335398"><ele>185.0</ele><time>2026-04-04T09:25:28Z</time></trkpt><trkpt lat="39.49812295851478" lon="8.669667951039102"><ele>185.0</ele><time>2026-04-04T09:25:29Z</time></trkpt><trkpt lat="39.49807771578055" lon="8.669446686189465"><ele>185.0</ele><time>2026-04-04T09:25:30Z</time></trkpt><trkpt lat="39.498018236347946" lon="8.669243043407613"><ele>185.0</ele><time>2026-04-04T09:25:31Z</time></trkpt><trkpt lat="39.49795030222924" lon="8.669059187216401"><ele>185.0</ele><time>2026-04-04T09:25:32Z</time></trkpt><trkpt lat="39.49788734913976" lon="8.668886371717463"><ele>185.0</ele><time>2026-04-04T09:25:33Z</time></trkpt><trkpt lat="39.49783101319262" lon="8.668724837912455"><ele>185.0</ele><time>2026-04-04T09:25:34Z</time></trkpt><trkpt lat="39.49777734879735" lon="8.668569677162624"><ele>185.0</ele><time>2026-04-04T09:25:35Z</time></trkpt><trkpt lat="39.49772573953769" lon="8.668421876176646"><ele>185.0</ele><time>2026-04-04T09:25:36Z</time></trkpt><trkpt lat="39.49767597128781" lon="8.668278402230282"><ele>185.0</ele><time>2026-04-04T09:25:37Z</time></trkpt><trkpt lat="39.49762597773813" lon="8.668143130006927"><ele>185.0</ele><time>2026-04-04T09:25:38Z</time></trkpt><trkpt lat="39.49757557407529" lon="8.667999322554218"><ele>185.0</ele><time>2026-04-04T09:25:39Z</time></trkpt><trkpt lat="39.49752643269601" lon="8.667849636017154"><ele>185.25</ele><time>2026-04-04T09:25:40Z</time></trkpt><trkpt lat="39.49747382159197" lon="8.667695262511133"><ele>185.5</ele><time>2026-04-04T09:25:41Z</time></trkpt><trkpt lat="39.49741455337523" lon="8.667544012101438"><ele>185.75</ele><time>2026-04-04T09:25:42Z</time></trkpt><trkpt lat="39.49735480362616" lon="8.667391110585758"><ele>186.0</ele><time>2026-04-04T09:25:43Z</time></trkpt><trkpt lat="39.497300504407995" lon="8.667234567540032"><ele>186.0</ele><time>2026-04-04T09:25:44Z</time></trkpt><trkpt lat="39.49724838998553" lon="8.667077930779515"><ele>186.0</ele><time>2026-04-04T09:25:45Z</time></trkpt><trkpt lat="39.49719361523246" lon="8.666925373646917"><ele>186.0</ele><time>2026-04-04T09:25:46Z</time></trkpt><trkpt lat="39.49714035157496" lon="8.66677784415049"><ele>186.0</ele><time>2026-04-04T09:25:47Z</time></trkpt><trkpt lat="39.497090193801796" lon="8.666631788201594"><ele>185.25</ele><time>2026-04-04T09:25:48Z</time></trkpt><trkpt lat="39.49704275479878" lon="8.666488231150385"><ele>184.5</ele><time>2026-04-04T09:25:49Z</time></trkpt><trkpt lat="39.49699595304052" lon="8.666344841270885"><ele>183.75</ele><time>2026-04-04T09:25:50Z</time></trkpt><trkpt lat="39.49694679283365" lon="8.666205333765229"><ele>183.0</ele><time>2026-04-04T09:25:51Z</time></trkpt><trkpt lat="39.49689418391686" lon="8.66606569100361"><ele>182.5</ele><time>2026-04-04T09:25:52Z</time></trkpt><trkpt lat="39.496843646966006" lon="8.665924055156307"><ele>182.0</ele><time>2026-04-04T09:25:53Z</time></trkpt><trkpt lat="39.49679426985616" lon="8.665779627331581"><ele>181.5</ele><time>2026-04-04T09:25:54Z</time></trkpt><trkpt lat="39.49674338718414" lon="8.665634141476966"><ele>181.0</ele><time>2026-04-04T09:25:55Z</time></trkpt><trkpt lat="39.49669132753023" lon="8.665489331581686"><ele>181.0</ele><time>2026-04-04T09:25:56Z</time></trkpt><trkpt lat="39.49663818039623" lon="8.665342775931373"><ele>181.0</ele><time>2026-04-04T09:25:57Z</time></trkpt><trkpt lat="39.496584174755995" lon="8.665196315527691"><ele>181.0</ele><time>2026-04-04T09:25:58Z</time></trkpt><trkpt lat="39.496529857671206" lon="8.665047298514544"><ele>181.0</ele><time>2026-04-04T09:25:59Z</time></trkpt><trkpt lat="39.49647541931016" lon="8.664897742184825"><ele>180.75</ele><time>2026-04-04T09:26:00Z</time></trkpt><trkpt lat="39.49642219960273" lon="8.664748160901128"><ele>180.5</ele><time>2026-04-04T09:26:01Z</time></trkpt><trkpt lat="39.4963676365859" lon="8.664597584492952"><ele>180.25</ele><time>2026-04-04T09:26:02Z</time></trkpt><trkpt lat="39.496315358765536" lon="8.664451371920197"><ele>180.0</ele><time>2026-04-04T09:26:03Z</time></trkpt><trkpt lat="39.49626421349364" lon="8.664308342808523"><ele>180.5</ele><time>2026-04-04T09:26:04Z</time></trkpt><trkpt lat="39.49621635384109" lon="8.664166505989634"><ele>181.0</ele><time>2026-04-04T09:26:05Z</time></trkpt><trkpt lat="39.49616998343339" lon="8.664028750189804"><ele>181.5</ele><time>2026-04-04T09:26:06Z</time></trkpt><trkpt lat="39.496124380563664" lon="8.663893355094682"><ele>182.0</ele><time>2026-04-04T09:26:07Z</time></trkpt><trkpt lat="39.49608265965036" lon="8.66375740085525"><ele>182.0</ele><time>2026-04-04T09:26:08Z</time></trkpt><trkpt lat="39.49604762322664" lon="8.663620581103272"><ele>182.0</ele><time>2026-04-04T09:26:09Z</time></trkpt><trkpt lat="39.49601954432943" lon="8.663484273306194"><ele>182.0</ele><time>2026-04-04T09:26:10Z</time></trkpt><trkpt lat="39.49600297699554" lon="8.663346735147037"><ele>182.0</ele><time>2026-04-04T09:26:11Z</time></trkpt><trkpt lat="39.495996028176506" lon="8.663210561205554"><ele>182.0</ele><time>2026-04-04T09:26:12Z</time></trkpt><trkpt lat="39.49600085288789" lon="8.66307310300472"><ele>182.2</ele><time>2026-04-04T09:26:13Z</time></trkpt><trkpt lat="39.49601859272135" lon="8.662935853847635"><ele>182.39999999999998</ele><time>2026-04-04T09:26:14Z</time></trkpt><trkpt lat="39.496043512207166" lon="8.662800820683454"><ele>182.60000000000002</ele><time>2026-04-04T09:26:15Z</time></trkpt><trkpt lat="39.49607032014077" lon="8.66266966897685"><ele>182.8</ele><time>2026-04-04T09:26:16Z</time></trkpt><trkpt lat="39.49609777726692" lon="8.66254067728963"><ele>183.0</ele><time>2026-04-04T09:26:17Z</time></trkpt><trkpt lat="39.4961278332171" lon="8.662409359621305"><ele>183.0</ele><time>2026-04-04T09:26:18Z</time></trkpt><trkpt lat="39.496157774938915" lon="8.662276232948388"><ele>183.0</ele><time>2026-04-04T09:26:19Z</time></trkpt><trkpt lat="39.496183122549034" lon="8.662141461226307"><ele>183.0</ele><time>2026-04-04T09:26:20Z</time></trkpt><trkpt lat="39.49621159374438" lon="8.662004568906355"><ele>183.0</ele><time>2026-04-04T09:26:21Z</time></trkpt><trkpt lat="39.49623929834268" lon="8.661871760846912"><ele>183.0</ele><time>2026-04-04T09:26:22Z</time></trkpt><trkpt lat="39.49626658646494" lon="8.661742013252026"><ele>182.60000000000002</ele><time>2026-04-04T09:26:23Z</time></trkpt><trkpt lat="39.4962961625584" lon="8.661616012658751"><ele>182.20000000000002</ele><time>2026-04-04T09:26:24Z</time></trkpt><trkpt lat="39.496324763381196" lon="8.661488689724079"><ele>181.8</ele><time>2026-04-04T09:26:25Z</time></trkpt><trkpt lat="39.49635377001743" lon="8.66136032198063"><ele>181.4</ele><time>2026-04-04T09:26:26Z</time></trkpt><trkpt lat="39.49639091904266" lon="8.66123714199574"><ele>181.0</ele><time>2026-04-04T09:26:27Z</time></trkpt><trkpt lat="39.49644188916794" lon="8.66112186600892"><ele>180.75</ele><time>2026-04-04T09:26:28Z</time></trkpt><trkpt lat="39.496506500467454" lon="8.66101095988216"><ele>180.5</ele><time>2026-04-04T09:26:29Z</time></trkpt><trkpt lat="39.49658129612278" lon="8.660903014332705"><ele>180.25</ele><time>2026-04-04T09:26:30Z</time></trkpt><trkpt lat="39.496667122375165" lon="8.66080184061483"><ele>180.0</ele><time>2026-04-04T09:26:31Z</time></trkpt><trkpt lat="39.49676044739569" lon="8.660711933349258"><ele>180.0</ele><time>2026-04-04T09:26:32Z</time></trkpt><trkpt lat="39.496854830138325" lon="8.660631760174082"><ele>180.0</ele><time>2026-04-04T09:26:33Z</time></trkpt><trkpt lat="39.496950898276424" lon="8.660557683765719"><ele>180.0</ele><time>2026-04-04T09:26:34Z</time></trkpt><trkpt lat="39.497046323220026" lon="8.660490016421948"><ele>180.0</ele><time>2026-04-04T09:26:35Z</time></trkpt><trkpt lat="39.497142693587506" lon="8.660424334569052"><ele>180.0</ele><time>2026-04-04T09:26:36Z</time></trkpt><trkpt lat="39.49723616440587" lon="8.660357250206747"><ele>179.6</ele><time>2026-04-04T09:26:37Z</time></trkpt><trkpt lat="39.49732990055136" lon="8.660289383441464"><ele>179.2</ele><time>2026-04-04T09:26:38Z</time></trkpt><trkpt lat="39.49742393491567" lon="8.660219698531746"><ele>178.8</ele><time>2026-04-04T09:26:39Z</time></trkpt><trkpt lat="39.49751728383979" lon="8.66015203868573"><ele>178.4</ele><time>2026-04-04T09:26:40Z</time></trkpt><trkpt lat="39.49761182615387" lon="8.66008295289194"><ele>178.0</ele><time>2026-04-04T09:26:41Z</time></trkpt><trkpt lat="39.49770482037289" lon="8.660013905622595"><ele>178.0</ele><time>2026-04-04T09:26:42Z</time></trkpt><trkpt lat="39.497797672580454" lon="8.659944668247608"><ele>178.0</ele><time>2026-04-04T09:26:43Z</time></trkpt><trkpt lat="39.49789218152819" lon="8.659873177447446"><ele>178.0</ele><time>2026-04-04T09:26:44Z</time></trkpt><trkpt lat="39.49798822505669" lon="8.659797428296846"><ele>178.0</ele><time>2026-04-04T09:26:45Z</time></trkpt><trkpt lat="39.49808819723276" lon="8.659721041213805"><ele>178.0</ele><time>2026-04-04T09:26:46Z</time></trkpt><trkpt lat="39.498194656018185" lon="8.659647305325542"><ele>177.5</ele><time>2026-04-04T09:26:47Z</time></trkpt><trkpt lat="39.4983068349807" lon="8.659571502094277"><ele>177.0</ele><time>2026-04-04T09:26:48Z</time></trkpt><trkpt lat="39.49842148775049" lon="8.659490852450203"><ele>176.5</ele><time>2026-04-04T09:26:49Z</time></trkpt><trkpt lat="39.498540342388615" lon="8.659405445031105"><ele>176.0</ele><time>2026-04-04T09:26:50Z</time></trkpt><trkpt lat="39.49866082726232" lon="8.659317394834414"><ele>175.75</ele><time>2026-04-04T09:26:51Z</time></trkpt><trkpt lat="39.498778597462426" lon="8.659231904275295"><ele>175.5</ele><time>2026-04-04T09:26:52Z</time></trkpt><trkpt lat="39.49889600479522" lon="8.65914861829473"><ele>175.25</ele><time>2026-04-04T09:26:53Z</time></trkpt><trkpt lat="39.49901631421032" lon="8.65906247747172"><ele>175.0</ele><time>2026-04-04T09:26:54Z</time></trkpt><trkpt lat="39.49913400851026" lon="8.658975835439978"><ele>175.0</ele><time>2026-04-04T09:26:55Z</time></trkpt><trkpt lat="39.49924963104715" lon="8.658888781993195"><ele>175.0</ele><time>2026-04-04T09:26:56Z</time></trkpt><trkpt lat="39.49936447814664" lon="8.65880354085227"><ele>175.0</ele><time>2026-04-04T09:26:57Z</time></trkpt><trkpt lat="39.499474050709786" lon="8.658721316350459"><ele>175.0</ele><time>2026-04-04T09:26:58Z</time></trkpt><trkpt lat="39.49957092444536" lon="8.658648543077662"><ele>174.33333333333334</ele><time>2026-04-04T09:26:59Z</time></trkpt><trkpt lat="39.49964746881375" lon="8.658591056967252"><ele>173.66666666666669</ele><time>2026-04-04T09:27:00Z</time></trkpt><trkpt lat="39.499708072312565" lon="8.65854611619259"><ele>173.0</ele><time>2026-04-04T09:27:01Z</time></trkpt><trkpt lat="39.4997688119333" lon="8.658502380889487"><ele>172.33333333333334</ele><time>2026-04-04T09:27:03Z</time></trkpt><trkpt lat="39.49984659035428" lon="8.658443467158326"><ele>171.66666666666666</ele><time>2026-04-04T09:27:14Z</time></trkpt><trkpt lat="39.49991783900575" lon="8.658394282046846"><ele>171.0</ele><time>2026-04-04T09:27:15Z</time></trkpt><trkpt lat="39.500002342011214" lon="8.65833935162462"><ele>171.0</ele><time>2026-04-04T09:27:16Z</time></trkpt><trkpt lat="39.50010335174862" lon="8.658262451603516"><ele>171.0</ele><time>2026-04-04T09:27:17Z</time></trkpt><trkpt lat="39.500221221476444" lon="8.65817214270259"><ele>171.0</ele><time>2026-04-04T09:27:18Z</time></trkpt><trkpt lat="39.500345536467584" lon="8.658074835169478"><ele>171.0</ele><time>2026-04-04T09:27:19Z</time></trkpt><trkpt lat="39.50049538528959" lon="8.65797055980008"><ele>170.66666666666666</ele><time>2026-04-04T09:27:20Z</time></trkpt><trkpt lat="39.500648006546854" lon="8.657863265848869"><ele>170.33333333333331</ele><time>2026-04-04T09:27:21Z</time></trkpt><trkpt lat="39.500807260114854" lon="8.657749253184488"><ele>170.0</ele><time>2026-04-04T09:27:22Z</time></trkpt><trkpt lat="39.50097489635527" lon="8.657626979828613"><ele>170.0</ele><time>2026-04-04T09:27:23Z</time></trkpt><trkpt lat="39.501142221163725" lon="8.657504478116953"><ele>170.0</ele><time>2026-04-04T09:27:24Z</time></trkpt><trkpt lat="39.50130873236855" lon="8.657380347339297"><ele>170.0</ele><time>2026-04-04T09:27:25Z</time></trkpt><trkpt lat="39.50147470278657" lon="8.657255359320343"><ele>168.66666666666666</ele><time>2026-04-04T09:27:26Z</time></trkpt><trkpt lat="39.501643591771106" lon="8.657132929311402"><ele>167.33333333333334</ele><time>2026-04-04T09:27:27Z</time></trkpt><trkpt lat="39.501814291407435" lon="8.65701237103374"><ele>166.0</ele><time>2026-04-04T09:27:28Z</time></trkpt><trkpt lat="39.501984048595226" lon="8.656889612581393"><ele>165.0</ele><time>2026-04-04T09:27:29Z</time></trkpt><trkpt lat="39.50215393547775" lon="8.656764406819777"><ele>164.0</ele><time>2026-04-04T09:27:30Z</time></trkpt><trkpt lat="39.50232334411385" lon="8.656637712532188"><ele>163.0</ele><time>2026-04-04T09:27:31Z</time></trkpt><trkpt lat="39.50249516519789" lon="8.656511990939157"><ele>163.0</ele><time>2026-04-04T09:27:32Z</time></trkpt><trkpt lat="39.502668289297" lon="8.656388358937713"><ele>163.0</ele><time>2026-04-04T09:27:33Z</time></trkpt><trkpt lat="39.50284559542133" lon="8.656260546925909"><ele>163.0</ele><time>2026-04-04T09:27:34Z</time></trkpt><trkpt lat="39.50302553659613" lon="8.656129874219957"><ele>162.33333333333334</ele><time>2026-04-04T09:27:35Z</time></trkpt><trkpt lat="39.50321139498752" lon="8.65599669696731"><ele>161.66666666666666</ele><time>2026-04-04T09:27:36Z</time></trkpt><trkpt lat="39.50339789492074" lon="8.655863720452178"><ele>161.0</ele><time>2026-04-04T09:27:37Z</time></trkpt><trkpt lat="39.5035851092831" lon="8.655728631356084"><ele>160.66666666666666</ele><time>2026-04-04T09:27:38Z</time></trkpt><trkpt lat="39.50377092943536" lon="8.655590128545372"><ele>160.33333333333334</ele><time>2026-04-04T09:27:39Z</time></trkpt><trkpt lat="39.50395633331639" lon="8.655451466383093"><ele>160.0</ele><time>2026-04-04T09:27:40Z</time></trkpt><trkpt lat="39.50414177852863" lon="8.655316802005897"><ele>159.0</ele><time>2026-04-04T09:27:41Z</time></trkpt><trkpt lat="39.5043397042816" lon="8.655163711580455"><ele>158.0</ele><time>2026-04-04T09:27:42Z</time></trkpt><trkpt lat="39.504578173978416" lon="8.65500092084125"><ele>157.0</ele><time>2026-04-04T09:27:43Z</time></trkpt><trkpt lat="39.504781297824096" lon="8.6548533394521"><ele>156.0</ele><time>2026-04-04T09:27:44Z</time></trkpt><trkpt lat="39.50498099020767" lon="8.65470348692092"><ele>156.0</ele><time>2026-04-04T09:27:45Z</time></trkpt><trkpt lat="39.50518049313885" lon="8.654552099400407"><ele>156.0</ele><time>2026-04-04T09:27:46Z</time></trkpt><trkpt lat="39.50537993866127" lon="8.654403350863586"><ele>155.0</ele><time>2026-04-04T09:27:47Z</time></trkpt><trkpt lat="39.50558194609599" lon="8.65425773672803"><ele>154.0</ele><time>2026-04-04T09:27:48Z</time></trkpt><trkpt lat="39.50578369102529" lon="8.654113682865503"><ele>154.0</ele><time>2026-04-04T09:27:49Z</time></trkpt><trkpt lat="39.50598137543632" lon="8.6539684670967"><ele>154.0</ele><time>2026-04-04T09:27:50Z</time></trkpt><trkpt lat="39.50618116956003" lon="8.6538221463784"><ele>153.0</ele><time>2026-04-04T09:27:51Z</time></trkpt><trkpt lat="39.506380141334496" lon="8.65367483937206"><ele>152.0</ele><time>2026-04-04T09:27:52Z</time></trkpt><trkpt lat="39.50657697095765" lon="8.653530485210974"><ele>152.0</ele><time>2026-04-04T09:27:53Z</time></trkpt><trkpt lat="39.50677090650466" lon="8.653387017614476"><ele>152.0</ele><time>2026-04-04T09:27:54Z</time></trkpt><trkpt lat="39.506960367396935" lon="8.65324551828238"><ele>152.0</ele><time>2026-04-04T09:27:55Z</time></trkpt><trkpt lat="39.50713718225172" lon="8.653115018320237"><ele>151.66666666666666</ele><time>2026-04-04T09:27:56Z</time></trkpt><trkpt lat="39.50730642537122" lon="8.652988326538145"><ele>151.33333333333334</ele><time>2026-04-04T09:27:57Z</time></trkpt><trkpt lat="39.50746498791428" lon="8.652872966029772"><ele>151.0</ele><time>2026-04-04T09:27:58Z</time></trkpt><trkpt lat="39.50761507398473" lon="8.652763303045115"><ele>150.66666666666669</ele><time>2026-04-04T09:27:59Z</time></trkpt><trkpt lat="39.50776051916108" lon="8.652657669490885"><ele>150.33333333333334</ele><time>2026-04-04T09:28:00Z</time></trkpt><trkpt lat="39.507899037685284" lon="8.65255597793788"><ele>150.0</ele><time>2026-04-04T09:28:01Z</time></trkpt><trkpt lat="39.50802920505626" lon="8.6524608975917"><ele>149.0</ele><time>2026-04-04T09:28:02Z</time></trkpt><trkpt lat="39.50815366743592" lon="8.652369132702482"><ele>148.0</ele><time>2026-04-04T09:28:03Z</time></trkpt><trkpt lat="39.508275703504665" lon="8.652280558665945"><ele>147.0</ele><time>2026-04-04T09:28:04Z</time></trkpt><trkpt lat="39.50838856755738" lon="8.652199818052665"><ele>146.0</ele><time>2026-04-04T09:28:05Z</time></trkpt><trkpt lat="39.50849214256552" lon="8.652127749349402"><ele>146.0</ele><time>2026-04-04T09:28:06Z</time></trkpt><trkpt lat="39.50857876210817" lon="8.652058482502154"><ele>146.0</ele><time>2026-04-04T09:28:07Z</time></trkpt><trkpt lat="39.50864674170967" lon="8.651984142325638"><ele>146.0</ele><time>2026-04-04T09:28:08Z</time></trkpt><trkpt lat="39.5087171281739" lon="8.651954954116535"><ele>146.0</ele><time>2026-04-04T09:28:09Z</time></trkpt><trkpt lat="39.50867166456001" lon="8.651721116116967"><ele>146.2</ele><time>2026-04-04T09:28:11Z</time></trkpt><trkpt lat="39.50860959228806" lon="8.65162792177684"><ele>146.39999999999998</ele><time>2026-04-04T09:28:12Z</time></trkpt><trkpt lat="39.5085634257259" lon="8.651527452398907"><ele>146.6</ele><time>2026-04-04T09:28:13Z</time></trkpt><trkpt lat="39.508521571298516" lon="8.651400218362959"><ele>146.79999999999998</ele><time>2026-04-04T09:28:14Z</time></trkpt><trkpt lat="39.50846440075939" lon="8.651272231525"><ele>147.0</ele><time>2026-04-04T09:28:15Z</time></trkpt><trkpt lat="39.50838888590553" lon="8.651146428427078"><ele>147.25</ele><time>2026-04-04T09:28:16Z</time></trkpt><trkpt lat="39.508322444772446" lon="8.651002621311141"><ele>147.5</ele><time>2026-04-04T09:28:17Z</time></trkpt><trkpt lat="39.50826597502386" lon="8.650835334440828"><ele>147.75</ele><time>2026-04-04T09:28:18Z</time></trkpt><trkpt lat="39.50817999321199" lon="8.65068100027065"><ele>148.0</ele><time>2026-04-04T09:28:19Z</time></trkpt><trkpt lat="39.5081097239122" lon="8.650519769379716"><ele>148.0</ele><time>2026-04-04T09:28:20Z</time></trkpt><trkpt lat="39.508032219255526" lon="8.650351164520083"><ele>148.0</ele><time>2026-04-04T09:28:21Z</time></trkpt><trkpt lat="39.5079541679523" lon="8.650180523971928"><ele>148.0</ele><time>2026-04-04T09:28:22Z</time></trkpt><trkpt lat="39.507880765639676" lon="8.650015567752616"><ele>148.0</ele><time>2026-04-04T09:28:23Z</time></trkpt><trkpt lat="39.50781341157262" lon="8.649866159745116"><ele>148.0</ele><time>2026-04-04T09:28:24Z</time></trkpt><trkpt lat="39.50775878266233" lon="8.64973451625423"><ele>148.0</ele><time>2026-04-04T09:28:25Z</time></trkpt><trkpt lat="39.507738776126835" lon="8.649605867727763"><ele>148.0</ele><time>2026-04-04T09:28:26Z</time></trkpt><trkpt lat="39.50775579651363" lon="8.649480608469156"><ele>148.0</ele><time>2026-04-04T09:28:27Z</time></trkpt><trkpt lat="39.50781292678374" lon="8.649374470282883"><ele>148.0</ele><time>2026-04-04T09:28:28Z</time></trkpt><trkpt lat="39.50789844066734" lon="8.64926628234551"><ele>148.0</ele><time>2026-04-04T09:28:29Z</time></trkpt><trkpt lat="39.507976906988404" lon="8.64912123618615"><ele>148.0</ele><time>2026-04-04T09:28:30Z</time></trkpt><trkpt lat="39.5080529750427" lon="8.648952532439585"><ele>148.0</ele><time>2026-04-04T09:28:31Z</time></trkpt><trkpt lat="39.5081353288798" lon="8.648767146056159"><ele>147.33333333333334</ele><time>2026-04-04T09:28:32Z</time></trkpt><trkpt lat="39.50821786450601" lon="8.648567252090356"><ele>146.66666666666666</ele><time>2026-04-04T09:28:33Z</time></trkpt><trkpt lat="39.508294905939316" lon="8.64835980837707"><ele>146.0</ele><time>2026-04-04T09:28:34Z</time></trkpt><trkpt lat="39.50837392298255" lon="8.648146711757704"><ele>146.0</ele><time>2026-04-04T09:28:35Z</time></trkpt><trkpt lat="39.50845187260475" lon="8.647922732339449"><ele>146.0</ele><time>2026-04-04T09:28:36Z</time></trkpt><trkpt lat="39.508515126001484" lon="8.647684211169185"><ele>146.0</ele><time>2026-04-04T09:28:37Z</time></trkpt><trkpt lat="39.50856379596848" lon="8.647428154967095"><ele>145.66666666666666</ele><time>2026-04-04T09:28:38Z</time></trkpt><trkpt lat="39.50861808267594" lon="8.64716383375563"><ele>145.33333333333334</ele><time>2026-04-04T09:28:39Z</time></trkpt><trkpt lat="39.50867244373049" lon="8.646900308640378"><ele>145.0</ele><time>2026-04-04T09:28:40Z</time></trkpt><trkpt lat="39.508725093801495" lon="8.646648244148198"><ele>143.66666666666669</ele><time>2026-04-04T09:28:41Z</time></trkpt><trkpt lat="39.50877663514889" lon="8.646405822172278"><ele>142.33333333333334</ele><time>2026-04-04T09:28:42Z</time></trkpt><trkpt lat="39.508825277117815" lon="8.646170818428091"><ele>141.0</ele><time>2026-04-04T09:28:43Z</time></trkpt><trkpt lat="39.508860899689225" lon="8.645941321590389"><ele>140.66666666666666</ele><time>2026-04-04T09:28:44Z</time></trkpt><trkpt lat="39.50886040051846" lon="8.645715357694753"><ele>140.33333333333331</ele><time>2026-04-04T09:28:45Z</time></trkpt><trkpt lat="39.508827659754" lon="8.645480028830553"><ele>140.0</ele><time>2026-04-04T09:28:46Z</time></trkpt><trkpt lat="39.50877944300811" lon="8.6452296879793"><ele>140.33333333333331</ele><time>2026-04-04T09:28:47Z</time></trkpt><trkpt lat="39.508732015439705" lon="8.64496601043069"><ele>140.66666666666666</ele><time>2026-04-04T09:28:48Z</time></trkpt><trkpt lat="39.50868596204093" lon="8.644689315838766"><ele>141.0</ele><time>2026-04-04T09:28:49Z</time></trkpt><trkpt lat="39.50863829046915" lon="8.644403496755379"><ele>140.0</ele><time>2026-04-04T09:28:50Z</time></trkpt><trkpt lat="39.50858963651645" lon="8.644123353337726"><ele>139.0</ele><time>2026-04-04T09:28:51Z</time></trkpt><trkpt lat="39.508531206767714" lon="8.643831940471701"><ele>138.0</ele><time>2026-04-04T09:28:52Z</time></trkpt><trkpt lat="39.508456969589304" lon="8.643534820676987"><ele>137.0</ele><time>2026-04-04T09:28:53Z</time></trkpt><trkpt lat="39.50837509679114" lon="8.643235446412517"><ele>137.0</ele><time>2026-04-04T09:28:54Z</time></trkpt><trkpt lat="39.50829093045099" lon="8.642931753699724"><ele>137.0</ele><time>2026-04-04T09:28:55Z</time></trkpt><trkpt lat="39.50820709130883" lon="8.642622125998813"><ele>137.0</ele><time>2026-04-04T09:28:56Z</time></trkpt><trkpt lat="39.50812181053371" lon="8.642311269753405"><ele>137.0</ele><time>2026-04-04T09:28:57Z</time></trkpt><trkpt lat="39.50803360936294" lon="8.641997551465908"><ele>136.0</ele><time>2026-04-04T09:28:58Z</time></trkpt><trkpt lat="39.50794332368688" lon="8.641683999653077"><ele>135.0</ele><time>2026-04-04T09:28:59Z</time></trkpt><trkpt lat="39.50785352409072" lon="8.641373373678746"><ele>134.0</ele><time>2026-04-04T09:29:00Z</time></trkpt><trkpt lat="39.50776947267757" lon="8.641066689918675"><ele>133.0</ele><time>2026-04-04T09:29:01Z</time></trkpt><trkpt lat="39.50768791156501" lon="8.640759507293879"><ele>133.0</ele><time>2026-04-04T09:29:02Z</time></trkpt><trkpt lat="39.50760583534181" lon="8.64045794780527"><ele>133.0</ele><time>2026-04-04T09:29:03Z</time></trkpt><trkpt lat="39.507520573578766" lon="8.640162978222769"><ele>132.0</ele><time>2026-04-04T09:29:04Z</time></trkpt><trkpt lat="39.5074237705417" lon="8.639875238408655"><ele>131.0</ele><time>2026-04-04T09:29:05Z</time></trkpt><trkpt lat="39.507323179969745" lon="8.639580704802333"><ele>130.5</ele><time>2026-04-04T09:29:06Z</time></trkpt><trkpt lat="39.50719924837303" lon="8.639297471686284"><ele>130.0</ele><time>2026-04-04T09:29:07Z</time></trkpt><trkpt lat="39.50708227489522" lon="8.639019734265721"><ele>130.0</ele><time>2026-04-04T09:29:08Z</time></trkpt><trkpt lat="39.50696901848284" lon="8.63875107504521"><ele>130.0</ele><time>2026-04-04T09:29:09Z</time></trkpt><trkpt lat="39.50685377825058" lon="8.638502024255466"><ele>130.0</ele><time>2026-04-04T09:29:10Z</time></trkpt><trkpt lat="39.50677168946033" lon="8.6382390913967"><ele>130.0</ele><time>2026-04-04T09:29:11Z</time></trkpt><trkpt lat="39.50670732821853" lon="8.637966225316301"><ele>130.0</ele><time>2026-04-04T09:29:12Z</time></trkpt><trkpt lat="39.506644422251185" lon="8.637686876808766"><ele>130.0</ele><time>2026-04-04T09:29:13Z</time></trkpt><trkpt lat="39.50657710035791" lon="8.637402234854902"><ele>130.0</ele><time>2026-04-04T09:29:14Z</time></trkpt><trkpt lat="39.50650615296011" lon="8.637113540899497"><ele>131.0</ele><time>2026-04-04T09:29:15Z</time></trkpt><trkpt lat="39.50643615262769" lon="8.636820230351027"><ele>132.0</ele><time>2026-04-04T09:29:16Z</time></trkpt><trkpt lat="39.50636902728745" lon="8.636533749198948"><ele>132.0</ele><time>2026-04-04T09:29:17Z</time></trkpt><trkpt lat="39.50630218933913" lon="8.636264906838607"><ele>132.0</ele><time>2026-04-04T09:29:18Z</time></trkpt><trkpt lat="39.50622135288558" lon="8.636023937271862"><ele>132.0</ele><time>2026-04-04T09:29:19Z</time></trkpt><trkpt lat="39.50614408359176" lon="8.635777156431987"><ele>132.33333333333334</ele><time>2026-04-04T09:29:20Z</time></trkpt><trkpt lat="39.50605584757843" lon="8.635530364240969"><ele>132.66666666666669</ele><time>2026-04-04T09:29:21Z</time></trkpt><trkpt lat="39.50596605595903" lon="8.635306330811494"><ele>133.0</ele><time>2026-04-04T09:29:22Z</time></trkpt><trkpt lat="39.505686725688406" lon="8.635211608865552"><ele>133.0</ele><time>2026-04-04T09:29:23Z</time></trkpt><trkpt lat="39.5055679529169" lon="8.635030745422155"><ele>133.0</ele><time>2026-04-04T09:29:24Z</time></trkpt><trkpt lat="39.505466851272125" lon="8.634857910263197"><ele>133.0</ele><time>2026-04-04T09:29:25Z</time></trkpt><trkpt lat="39.50540655552233" lon="8.634674025789021"><ele>133.0</ele><time>2026-04-04T09:29:26Z</time></trkpt><trkpt lat="39.50538271206977" lon="8.634475856547962"><ele>133.0</ele><time>2026-04-04T09:29:27Z</time></trkpt><trkpt lat="39.50538582471293" lon="8.634259941295452"><ele>133.0</ele><time>2026-04-04T09:29:28Z</time></trkpt><trkpt lat="39.505414433268015" lon="8.634032657468476"><ele>133.0</ele><time>2026-04-04T09:29:29Z</time></trkpt><trkpt lat="39.505447546707046" lon="8.633790291014481"><ele>133.0</ele><time>2026-04-04T09:29:30Z</time></trkpt><trkpt lat="39.50547815554425" lon="8.633537020553073"><ele>133.0</ele><time>2026-04-04T09:29:31Z</time></trkpt><trkpt lat="39.50551068814455" lon="8.633276432787161"><ele>133.66666666666669</ele><time>2026-04-04T09:29:32Z</time></trkpt><trkpt lat="39.50554658677626" lon="8.633013618752914"><ele>134.33333333333334</ele><time>2026-04-04T09:29:33Z</time></trkpt><trkpt lat="39.50558911518884" lon="8.632751884462392"><ele>135.0</ele><time>2026-04-04T09:29:34Z</time></trkpt><trkpt lat="39.505654598656804" lon="8.63249349430488"><ele>135.0</ele><time>2026-04-04T09:29:35Z</time></trkpt><trkpt lat="39.50574748550152" lon="8.632236718448262"><ele>135.0</ele><time>2026-04-04T09:29:36Z</time></trkpt><trkpt lat="39.50583136815944" lon="8.631971298092678"><ele>135.0</ele><time>2026-04-04T09:29:37Z</time></trkpt><trkpt lat="39.50591370785297" lon="8.631702159940541"><ele>135.33333333333334</ele><time>2026-04-04T09:29:38Z</time></trkpt><trkpt lat="39.50598965792799" lon="8.63143403236388"><ele>135.66666666666669</ele><time>2026-04-04T09:29:39Z</time></trkpt><trkpt lat="39.50604674336125" lon="8.631165027344354"><ele>136.0</ele><time>2026-04-04T09:29:40Z</time></trkpt><trkpt lat="39.506084812468956" lon="8.630896235393577"><ele>136.66666666666669</ele><time>2026-04-04T09:29:41Z</time></trkpt><trkpt lat="39.50612214373378" lon="8.63063025926088"><ele>137.33333333333334</ele><time>2026-04-04T09:29:42Z</time></trkpt><trkpt lat="39.50615501709832" lon="8.630363636096604"><ele>138.0</ele><time>2026-04-04T09:29:43Z</time></trkpt><trkpt lat="39.50616457159832" lon="8.630087642250137"><ele>138.0</ele><time>2026-04-04T09:29:44Z</time></trkpt><trkpt lat="39.506140721134834" lon="8.629800092535898"><ele>138.0</ele><time>2026-04-04T09:29:45Z</time></trkpt><trkpt lat="39.506089787209994" lon="8.629501068159803"><ele>137.0</ele><time>2026-04-04T09:29:46Z</time></trkpt><trkpt lat="39.506036134594034" lon="8.62921022839783"><ele>136.0</ele><time>2026-04-04T09:29:47Z</time></trkpt><trkpt lat="39.50597903912132" lon="8.628924341014647"><ele>136.0</ele><time>2026-04-04T09:29:48Z</time></trkpt><trkpt lat="39.505924898538176" lon="8.628643787133905"><ele>136.0</ele><time>2026-04-04T09:29:49Z</time></trkpt><trkpt lat="39.50587631127087" lon="8.628359217670555"><ele>136.0</ele><time>2026-04-04T09:29:50Z</time></trkpt><trkpt lat="39.50583153082208" lon="8.628078980346586"><ele>136.0</ele><time>2026-04-04T09:29:51Z</time></trkpt><trkpt lat="39.50578223519609" lon="8.627805831210624"><ele>136.0</ele><time>2026-04-04T09:29:52Z</time></trkpt><trkpt lat="39.50573012910781" lon="8.62753533709161"><ele>136.0</ele><time>2026-04-04T09:29:53Z</time></trkpt><trkpt lat="39.505678235560175" lon="8.627271107024766"><ele>136.0</ele><time>2026-04-04T09:29:54Z</time></trkpt><trkpt lat="39.505627046069336" lon="8.627012060768015"><ele>136.0</ele><time>2026-04-04T09:29:55Z</time></trkpt><trkpt lat="39.505573745044344" lon="8.626750682335276"><ele>136.0</ele><time>2026-04-04T09:29:56Z</time></trkpt><trkpt lat="39.50551917855427" lon="8.626490128204443"><ele>136.66666666666669</ele><time>2026-04-04T09:29:57Z</time></trkpt><trkpt lat="39.50546436332192" lon="8.626230111715193"><ele>137.33333333333334</ele><time>2026-04-04T09:29:58Z</time></trkpt><trkpt lat="39.50541445155383" lon="8.626000001230691"><ele>138.0</ele><time>2026-04-04T09:29:59Z</time></trkpt><trkpt lat="39.50536248811472" lon="8.625752835336419"><ele>138.5</ele><time>2026-04-04T09:30:00Z</time></trkpt><trkpt lat="39.505259846851345" lon="8.625258794076789"><ele>139.0</ele><time>2026-04-04T09:30:02Z</time></trkpt><trkpt lat="39.505208303820524" lon="8.625015133058735"><ele>139.0</ele><time>2026-04-04T09:30:03Z</time></trkpt><trkpt lat="39.50515401025463" lon="8.624763463817606"><ele>139.0</ele><time>2026-04-04T09:30:04Z</time></trkpt><trkpt lat="39.50509746647602" lon="8.624509005333913"><ele>139.0</ele><time>2026-04-04T09:30:05Z</time></trkpt><trkpt lat="39.50504117083493" lon="8.624248895156548"><ele>139.0</ele><time>2026-04-04T09:30:06Z</time></trkpt><trkpt lat="39.50498479793376" lon="8.6239838628429"><ele>139.0</ele><time>2026-04-04T09:30:07Z</time></trkpt><trkpt lat="39.50493190202012" lon="8.623717084152307"><ele>139.0</ele><time>2026-04-04T09:30:08Z</time></trkpt><trkpt lat="39.504881773439955" lon="8.623449435025421"><ele>139.33333333333334</ele><time>2026-04-04T09:30:09Z</time></trkpt><trkpt lat="39.5048323515513" lon="8.623182768363971"><ele>139.66666666666666</ele><time>2026-04-04T09:30:10Z</time></trkpt><trkpt lat="39.504769899257674" lon="8.622902789219166"><ele>140.0</ele><time>2026-04-04T09:30:11Z</time></trkpt><trkpt lat="39.504713685161164" lon="8.62262530854804"><ele>140.33333333333331</ele><time>2026-04-04T09:30:12Z</time></trkpt><trkpt lat="39.504653104680514" lon="8.622346076928983"><ele>140.66666666666666</ele><time>2026-04-04T09:30:13Z</time></trkpt><trkpt lat="39.50459821056336" lon="8.622069499118755"><ele>141.0</ele><time>2026-04-04T09:30:14Z</time></trkpt><trkpt lat="39.50454718292107" lon="8.62179152626732"><ele>142.0</ele><time>2026-04-04T09:30:15Z</time></trkpt><trkpt lat="39.504495822487044" lon="8.621514135436993"><ele>143.0</ele><time>2026-04-04T09:30:16Z</time></trkpt><trkpt lat="39.504449397468605" lon="8.621232315316087"><ele>144.0</ele><time>2026-04-04T09:30:17Z</time></trkpt><trkpt lat="39.5044306651117" lon="8.620944601550839"><ele>144.0</ele><time>2026-04-04T09:30:18Z</time></trkpt><trkpt lat="39.504453034059324" lon="8.620661495700924"><ele>144.0</ele><time>2026-04-04T09:30:19Z</time></trkpt><trkpt lat="39.50451862802677" lon="8.62038161972469"><ele>144.0</ele><time>2026-04-04T09:30:20Z</time></trkpt><trkpt lat="39.50467350281192" lon="8.61980346386458"><ele>151.5</ele><time>2026-04-04T09:30:22Z</time></trkpt><trkpt lat="39.50473621255215" lon="8.619508627896685"><ele>159.0</ele><time>2026-04-04T09:30:23Z</time></trkpt><trkpt lat="39.50479835725129" lon="8.619226168158914"><ele>159.0</ele><time>2026-04-04T09:30:24Z</time></trkpt><trkpt lat="39.50487047696604" lon="8.618960295379914"><ele>159.0</ele><time>2026-04-04T09:30:25Z</time></trkpt><trkpt lat="39.5049677970311" lon="8.618705282123559"><ele>159.0</ele><time>2026-04-04T09:30:26Z</time></trkpt><trkpt lat="39.50507711548838" lon="8.618472356733475"><ele>158.0</ele><time>2026-04-04T09:30:27Z</time></trkpt><trkpt lat="39.50521406945071" lon="8.618306817241816"><ele>157.0</ele><time>2026-04-04T09:30:28Z</time></trkpt><trkpt lat="39.505344651225485" lon="8.618169640217967"><ele>156.0</ele><time>2026-04-04T09:30:29Z</time></trkpt><trkpt lat="39.505495539298295" lon="8.618067588968128"><ele>159.33333333333334</ele><time>2026-04-04T09:30:30Z</time></trkpt><trkpt lat="39.50566913973068" lon="8.617999456647716"><ele>162.66666666666669</ele><time>2026-04-04T09:30:31Z</time></trkpt><trkpt lat="39.50585751294799" lon="8.617979432568227"><ele>166.0</ele><time>2026-04-04T09:30:32Z</time></trkpt><trkpt lat="39.506075636094934" lon="8.617991487112713"><ele>166.66666666666669</ele><time>2026-04-04T09:30:33Z</time></trkpt><trkpt lat="39.5062729861214" lon="8.618028579968799"><ele>167.33333333333334</ele><time>2026-04-04T09:30:34Z</time></trkpt><trkpt lat="39.506457732531125" lon="8.618042925901667"><ele>168.0</ele><time>2026-04-04T09:30:35Z</time></trkpt><trkpt lat="39.50663813115172" lon="8.618026061180576"><ele>168.0</ele><time>2026-04-04T09:30:36Z</time></trkpt><trkpt lat="39.50681922338339" lon="8.617974619658996"><ele>168.0</ele><time>2026-04-04T09:30:37Z</time></trkpt><trkpt lat="39.50699676023665" lon="8.617883628386718"><ele>168.0</ele><time>2026-04-04T09:30:38Z</time></trkpt><trkpt lat="39.50717134391815" lon="8.617758957892867"><ele>167.66666666666666</ele><time>2026-04-04T09:30:39Z</time></trkpt><trkpt lat="39.507337558492694" lon="8.617611324224695"><ele>167.33333333333331</ele><time>2026-04-04T09:30:40Z</time></trkpt><trkpt lat="39.507503347129706" lon="8.617464025667763"><ele>167.0</ele><time>2026-04-04T09:30:41Z</time></trkpt><trkpt lat="39.507670909135726" lon="8.6173248904705"><ele>167.0</ele><time>2026-04-04T09:30:42Z</time></trkpt><trkpt lat="39.507838069008116" lon="8.617184735507797"><ele>167.0</ele><time>2026-04-04T09:30:43Z</time></trkpt><trkpt lat="39.50800272998558" lon="8.617034237019428"><ele>167.0</ele><time>2026-04-04T09:30:44Z</time></trkpt><trkpt lat="39.50815571998929" lon="8.616858698861169"><ele>167.33333333333331</ele><time>2026-04-04T09:30:45Z</time></trkpt><trkpt lat="39.50830191626055" lon="8.616659082973499"><ele>167.66666666666666</ele><time>2026-04-04T09:30:46Z</time></trkpt><trkpt lat="39.508448828832876" lon="8.616460678669057"><ele>168.0</ele><time>2026-04-04T09:30:47Z</time></trkpt><trkpt lat="39.50859802997382" lon="8.616267649028948"><ele>166.66666666666666</ele><time>2026-04-04T09:30:48Z</time></trkpt><trkpt lat="39.508746458501975" lon="8.616074980164113"><ele>165.33333333333331</ele><time>2026-04-04T09:30:49Z</time></trkpt><trkpt lat="39.5088944210577" lon="8.615881045204013"><ele>164.0</ele><time>2026-04-04T09:30:50Z</time></trkpt><trkpt lat="39.509042555513666" lon="8.615691145980422"><ele>164.0</ele><time>2026-04-04T09:30:51Z</time></trkpt><trkpt lat="39.50919212496852" lon="8.61550834357669"><ele>164.0</ele><time>2026-04-04T09:30:52Z</time></trkpt><trkpt lat="39.509330499031655" lon="8.61533603549937"><ele>164.0</ele><time>2026-04-04T09:30:53Z</time></trkpt><trkpt lat="39.5094592366822" lon="8.61516769451451"><ele>168.33333333333331</ele><time>2026-04-04T09:30:54Z</time></trkpt><trkpt lat="39.50957709618782" lon="8.615012363307175"><ele>172.66666666666666</ele><time>2026-04-04T09:30:55Z</time></trkpt><trkpt lat="39.50966811577865" lon="8.614852035585091"><ele>177.0</ele><time>2026-04-04T09:30:56Z</time></trkpt><trkpt lat="39.50972326623087" lon="8.614668394636434"><ele>178.0</ele><time>2026-04-04T09:30:57Z</time></trkpt><trkpt lat="39.50974792832844" lon="8.61444940219503"><ele>179.0</ele><time>2026-04-04T09:30:58Z</time></trkpt><trkpt lat="39.50975916522046" lon="8.6142195712581"><ele>180.0</ele><time>2026-04-04T09:30:59Z</time></trkpt><trkpt lat="39.50978588359247" lon="8.61399942349181"><ele>180.0</ele><time>2026-04-04T09:31:00Z</time></trkpt><trkpt lat="39.50982927264575" lon="8.613798899137862"><ele>180.0</ele><time>2026-04-04T09:31:01Z</time></trkpt><trkpt lat="39.50989957244179" lon="8.613618026574454"><ele>180.0</ele><time>2026-04-04T09:31:02Z</time></trkpt><trkpt lat="39.51001175882158" lon="8.613467666255456"><ele>177.0</ele><time>2026-04-04T09:31:03Z</time></trkpt><trkpt lat="39.51014450361433" lon="8.613343909063369"><ele>174.0</ele><time>2026-04-04T09:31:04Z</time></trkpt><trkpt lat="39.51029930086187" lon="8.613247280685105"><ele>171.0</ele><time>2026-04-04T09:31:05Z</time></trkpt><trkpt lat="39.510464546103925" lon="8.613166622352743"><ele>177.33333333333334</ele><time>2026-04-04T09:31:06Z</time></trkpt><trkpt lat="39.510624543918006" lon="8.613090066384446"><ele>183.66666666666669</ele><time>2026-04-04T09:31:07Z</time></trkpt><trkpt lat="39.51077974308742" lon="8.613007992129475"><ele>190.0</ele><time>2026-04-04T09:31:08Z</time></trkpt><trkpt lat="39.51097215679895" lon="8.613025620843231"><ele>190.0</ele><time>2026-04-04T09:31:09Z</time></trkpt><trkpt lat="39.51115841602384" lon="8.613003440353861"><ele>190.0</ele><time>2026-04-04T09:31:10Z</time></trkpt><trkpt lat="39.511348324203105" lon="8.612956631194777"><ele>190.0</ele><time>2026-04-04T09:31:11Z</time></trkpt><trkpt lat="39.51153472667561" lon="8.612867689313052"><ele>188.33333333333334</ele><time>2026-04-04T09:31:12Z</time></trkpt><trkpt lat="39.51172160042173" lon="8.612751303421884"><ele>186.66666666666666</ele><time>2026-04-04T09:31:13Z</time></trkpt><trkpt lat="39.51190393775992" lon="8.61264547425693"><ele>185.0</ele><time>2026-04-04T09:31:14Z</time></trkpt><trkpt lat="39.5120898240265" lon="8.61254907841268"><ele>189.33333333333331</ele><time>2026-04-04T09:31:15Z</time></trkpt><trkpt lat="39.51227649045449" lon="8.612455772967492"><ele>193.66666666666666</ele><time>2026-04-04T09:31:16Z</time></trkpt><trkpt lat="39.51245744971608" lon="8.612370192131985"><ele>198.0</ele><time>2026-04-04T09:31:17Z</time></trkpt><trkpt lat="39.512625307343725" lon="8.612295150898365"><ele>198.0</ele><time>2026-04-04T09:31:18Z</time></trkpt><trkpt lat="39.51277427603989" lon="8.612218806729892"><ele>198.0</ele><time>2026-04-04T09:31:19Z</time></trkpt><trkpt lat="39.51288607502698" lon="8.612106026463865"><ele>198.0</ele><time>2026-04-04T09:31:20Z</time></trkpt><trkpt lat="39.512971583563406" lon="8.611950606736661"><ele>198.0</ele><time>2026-04-04T09:31:21Z</time></trkpt><trkpt lat="39.513012645370125" lon="8.611757911324531"><ele>198.33333333333331</ele><time>2026-04-04T09:31:22Z</time></trkpt><trkpt lat="39.513011410503594" lon="8.611561220119839"><ele>198.66666666666666</ele><time>2026-04-04T09:31:23Z</time></trkpt><trkpt lat="39.51296790935715" lon="8.61135386469748"><ele>199.0</ele><time>2026-04-04T09:31:24Z</time></trkpt><trkpt lat="39.512991423953004" lon="8.611146794338943"><ele>198.0</ele><time>2026-04-04T09:31:25Z</time></trkpt><trkpt lat="39.513030494281814" lon="8.610928683608542"><ele>197.0</ele><time>2026-04-04T09:31:26Z</time></trkpt><trkpt lat="39.513059496059846" lon="8.610713931955774"><ele>196.0</ele><time>2026-04-04T09:31:27Z</time></trkpt><trkpt lat="39.51311553398653" lon="8.610535345634421"><ele>196.0</ele><time>2026-04-04T09:31:28Z</time></trkpt><trkpt lat="39.513199191040464" lon="8.610384136840533"><ele>196.0</ele><time>2026-04-04T09:31:29Z</time></trkpt><trkpt lat="39.513310809281755" lon="8.610259662646067"><ele>196.0</ele><time>2026-04-04T09:31:30Z</time></trkpt><trkpt lat="39.51345732953619" lon="8.610171058204456"><ele>196.0</ele><time>2026-04-04T09:31:31Z</time></trkpt><trkpt lat="39.513625773972905" lon="8.610126248123526"><ele>196.0</ele><time>2026-04-04T09:31:32Z</time></trkpt><trkpt lat="39.513807774322544" lon="8.610129415321744"><ele>196.0</ele><time>2026-04-04T09:31:33Z</time></trkpt><trkpt lat="39.51399710879448" lon="8.610149754717044"><ele>196.0</ele><time>2026-04-04T09:31:34Z</time></trkpt><trkpt lat="39.51418339688351" lon="8.610160609784986"><ele>196.0</ele><time>2026-04-04T09:31:35Z</time></trkpt><trkpt lat="39.514364301395524" lon="8.610161201969444"><ele>196.0</ele><time>2026-04-04T09:31:36Z</time></trkpt><trkpt lat="39.51454160648354" lon="8.610155257501495"><ele>198.0</ele><time>2026-04-04T09:31:37Z</time></trkpt><trkpt lat="39.5147059609317" lon="8.610124186590166"><ele>200.0</ele><time>2026-04-04T09:31:38Z</time></trkpt><trkpt lat="39.514845413988866" lon="8.610043827470061"><ele>202.0</ele><time>2026-04-04T09:31:39Z</time></trkpt><trkpt lat="39.51496869898951" lon="8.609906111450618"><ele>202.0</ele><time>2026-04-04T09:31:40Z</time></trkpt><trkpt lat="39.515062588949846" lon="8.609714154273389"><ele>202.0</ele><time>2026-04-04T09:31:41Z</time></trkpt><trkpt lat="39.5151359277851" lon="8.609485978486923"><ele>202.0</ele><time>2026-04-04T09:31:42Z</time></trkpt><trkpt lat="39.515227501566685" lon="8.609264403238942"><ele>203.0</ele><time>2026-04-04T09:31:43Z</time></trkpt><trkpt lat="39.51532742028317" lon="8.609039594339054"><ele>204.0</ele><time>2026-04-04T09:31:44Z</time></trkpt><trkpt lat="39.51543106988245" lon="8.608819114817734"><ele>205.0</ele><time>2026-04-04T09:31:45Z</time></trkpt><trkpt lat="39.51554331538798" lon="8.60860447699375"><ele>205.0</ele><time>2026-04-04T09:31:46Z</time></trkpt><trkpt lat="39.51566766272096" lon="8.60840263519436"><ele>205.0</ele><time>2026-04-04T09:31:47Z</time></trkpt><trkpt lat="39.51579818617037" lon="8.608201472674853"><ele>205.0</ele><time>2026-04-04T09:31:48Z</time></trkpt><trkpt lat="39.51591660331396" lon="8.607992376694467"><ele>204.66666666666666</ele><time>2026-04-04T09:31:49Z</time></trkpt><trkpt lat="39.51600709840264" lon="8.607766050068923"><ele>204.33333333333331</ele><time>2026-04-04T09:31:50Z</time></trkpt><trkpt lat="39.51608297303014" lon="8.60754978070803"><ele>204.0</ele><time>2026-04-04T09:31:51Z</time></trkpt><trkpt lat="39.51615900481237" lon="8.60734678482019"><ele>204.0</ele><time>2026-04-04T09:31:52Z</time></trkpt><trkpt lat="39.51620303467816" lon="8.607151163338655"><ele>204.0</ele><time>2026-04-04T09:31:53Z</time></trkpt><trkpt lat="39.51619071946662" lon="8.606962098897792"><ele>204.0</ele><time>2026-04-04T09:31:54Z</time></trkpt><trkpt lat="39.516122383680305" lon="8.606777764266736"><ele>204.66666666666669</ele><time>2026-04-04T09:31:55Z</time></trkpt><trkpt lat="39.51600566747951" lon="8.606606201589729"><ele>205.33333333333334</ele><time>2026-04-04T09:31:56Z</time></trkpt><trkpt lat="39.51588965249881" lon="8.606433550269122"><ele>206.0</ele><time>2026-04-04T09:31:57Z</time></trkpt><trkpt lat="39.51580995520031" lon="8.606255919687142"><ele>208.0</ele><time>2026-04-04T09:31:58Z</time></trkpt><trkpt lat="39.515810565447985" lon="8.60606661659197"><ele>210.0</ele><time>2026-04-04T09:31:59Z</time></trkpt><trkpt lat="39.51582025631768" lon="8.605869844468424"><ele>212.0</ele><time>2026-04-04T09:32:00Z</time></trkpt><trkpt lat="39.515823046162915" lon="8.605651326846568"><ele>212.0</ele><time>2026-04-04T09:32:01Z</time></trkpt><trkpt lat="39.515837501257174" lon="8.605421388056566"><ele>212.0</ele><time>2026-04-04T09:32:02Z</time></trkpt><trkpt lat="39.51584567338762" lon="8.60518380138446"><ele>212.0</ele><time>2026-04-04T09:32:03Z</time></trkpt><trkpt lat="39.51585300493821" lon="8.604937229364307"><ele>212.66666666666669</ele><time>2026-04-04T09:32:04Z</time></trkpt><trkpt lat="39.51585286757859" lon="8.60469105253186"><ele>213.33333333333331</ele><time>2026-04-04T09:32:05Z</time></trkpt><trkpt lat="39.51582372877856" lon="8.604449451256933"><ele>214.0</ele><time>2026-04-04T09:32:06Z</time></trkpt><trkpt lat="39.515782167183865" lon="8.60421839064295"><ele>215.66666666666666</ele><time>2026-04-04T09:32:07Z</time></trkpt><trkpt lat="39.5157581276269" lon="8.604000811540626"><ele>217.33333333333331</ele><time>2026-04-04T09:32:08Z</time></trkpt><trkpt lat="39.51576529889654" lon="8.603769757180036"><ele>219.0</ele><time>2026-04-04T09:32:09Z</time></trkpt><trkpt lat="39.51579833001227" lon="8.60353354735485"><ele>219.66666666666669</ele><time>2026-04-04T09:32:10Z</time></trkpt><trkpt lat="39.515820142744126" lon="8.603302953659805"><ele>220.33333333333334</ele><time>2026-04-04T09:32:11Z</time></trkpt><trkpt lat="39.515792595722914" lon="8.603073762748913"><ele>221.0</ele><time>2026-04-04T09:32:12Z</time></trkpt><trkpt lat="39.5157295411037" lon="8.602839076245338"><ele>222.66666666666669</ele><time>2026-04-04T09:32:13Z</time></trkpt><trkpt lat="39.515715246485186" lon="8.602595399664137"><ele>224.33333333333331</ele><time>2026-04-04T09:32:14Z</time></trkpt><trkpt lat="39.51569923319273" lon="8.602364717731017"><ele>226.0</ele><time>2026-04-04T09:32:15Z</time></trkpt><trkpt lat="39.51568764412897" lon="8.602159586976875"><ele>224.33333333333331</ele><time>2026-04-04T09:32:16Z</time></trkpt><trkpt lat="39.51563655601993" lon="8.601977756984118"><ele>222.66666666666669</ele><time>2026-04-04T09:32:17Z</time></trkpt><trkpt lat="39.515532436419306" lon="8.601826906985243"><ele>221.0</ele><time>2026-04-04T09:32:18Z</time></trkpt><trkpt lat="39.51539147750248" lon="8.601710913702089"><ele>221.0</ele><time>2026-04-04T09:32:19Z</time></trkpt><trkpt lat="39.51525906413616" lon="8.601596521784803"><ele>221.0</ele><time>2026-04-04T09:32:20Z</time></trkpt><trkpt lat="39.51517761873634" lon="8.601456548042094"><ele>221.0</ele><time>2026-04-04T09:32:21Z</time></trkpt><trkpt lat="39.515142806798075" lon="8.601282859229766"><ele>221.0</ele><time>2026-04-04T09:32:22Z</time></trkpt><trkpt lat="39.51509037621826" lon="8.601080809377418"><ele>222.25</ele><time>2026-04-04T09:32:23Z</time></trkpt><trkpt lat="39.515107463790805" lon="8.600896378210175"><ele>223.5</ele><time>2026-04-04T09:32:24Z</time></trkpt><trkpt lat="39.51516881385734" lon="8.600749088851295"><ele>224.75</ele><time>2026-04-04T09:32:25Z</time></trkpt><trkpt lat="39.51527555963875" lon="8.600632737349427"><ele>226.0</ele><time>2026-04-04T09:32:26Z</time></trkpt><trkpt lat="39.51541020295289" lon="8.600510243329364"><ele>226.66666666666666</ele><time>2026-04-04T09:32:27Z</time></trkpt><trkpt lat="39.51555595208394" lon="8.600384522705694"><ele>227.33333333333331</ele><time>2026-04-04T09:32:28Z</time></trkpt><trkpt lat="39.51570952015508" lon="8.600266775239492"><ele>228.0</ele><time>2026-04-04T09:32:29Z</time></trkpt><trkpt lat="39.51585955684111" lon="8.600154138224655"><ele>228.0</ele><time>2026-04-04T09:32:30Z</time></trkpt><trkpt lat="39.515996660430915" lon="8.600027254485237"><ele>228.0</ele><time>2026-04-04T09:32:31Z</time></trkpt><trkpt lat="39.51610072870142" lon="8.599878494836593"><ele>228.0</ele><time>2026-04-04T09:32:32Z</time></trkpt><trkpt lat="39.5161743819743" lon="8.59969215944263"><ele>225.66666666666669</ele><time>2026-04-04T09:32:33Z</time></trkpt><trkpt lat="39.516228992890596" lon="8.599499482513743"><ele>223.33333333333334</ele><time>2026-04-04T09:32:34Z</time></trkpt><trkpt lat="39.51628963077475" lon="8.599322150800496"><ele>221.0</ele><time>2026-04-04T09:32:35Z</time></trkpt><trkpt lat="39.516389296221796" lon="8.599174130011853"><ele>223.25</ele><time>2026-04-04T09:32:36Z</time></trkpt><trkpt lat="39.51650852319599" lon="8.599054559846548"><ele>225.5</ele><time>2026-04-04T09:32:37Z</time></trkpt><trkpt lat="39.51660498514447" lon="8.598924740237416"><ele>227.75</ele><time>2026-04-04T09:32:38Z</time></trkpt><trkpt lat="39.51667170664697" lon="8.598756951956227"><ele>230.0</ele><time>2026-04-04T09:32:39Z</time></trkpt><trkpt lat="39.51670298305143" lon="8.59856423974666"><ele>230.0</ele><time>2026-04-04T09:32:40Z</time></trkpt><trkpt lat="39.51670288971993" lon="8.59836662130302"><ele>230.0</ele><time>2026-04-04T09:32:41Z</time></trkpt><trkpt lat="39.516700438395965" lon="8.598177164796342"><ele>230.0</ele><time>2026-04-04T09:32:42Z</time></trkpt><trkpt lat="39.516740222129606" lon="8.598004783672948"><ele>230.0</ele><time>2026-04-04T09:32:43Z</time></trkpt><trkpt lat="39.51682831482743" lon="8.597871801489154"><ele>230.5</ele><time>2026-04-04T09:32:44Z</time></trkpt><trkpt lat="39.51694051107355" lon="8.597777333345068"><ele>231.0</ele><time>2026-04-04T09:32:45Z</time></trkpt><trkpt lat="39.517072469548246" lon="8.597703275361848"><ele>231.5</ele><time>2026-04-04T09:32:46Z</time></trkpt><trkpt lat="39.51720468889922" lon="8.597630443621336"><ele>232.0</ele><time>2026-04-04T09:32:47Z</time></trkpt><trkpt lat="39.517328641236745" lon="8.597520492465952"><ele>232.0</ele><time>2026-04-04T09:32:48Z</time></trkpt><trkpt lat="39.51742816804823" lon="8.59740244426447"><ele>232.0</ele><time>2026-04-04T09:32:49Z</time></trkpt><trkpt lat="39.51754431555866" lon="8.59732393366052"><ele>232.0</ele><time>2026-04-04T09:32:50Z</time></trkpt><trkpt lat="39.51766124319414" lon="8.597300643083505"><ele>232.0</ele><time>2026-04-04T09:32:51Z</time></trkpt><trkpt lat="39.51777121683973" lon="8.59732187463021"><ele>232.0</ele><time>2026-04-04T09:32:52Z</time></trkpt><trkpt lat="39.51787732686741" lon="8.597388213534348"><ele>232.0</ele><time>2026-04-04T09:32:53Z</time></trkpt><trkpt lat="39.51797542893956" lon="8.597490704878192"><ele>232.0</ele><time>2026-04-04T09:32:54Z</time></trkpt><trkpt lat="39.51805113719088" lon="8.597624881594857"><ele>232.0</ele><time>2026-04-04T09:32:55Z</time></trkpt><trkpt lat="39.51812898482679" lon="8.59775952936332"><ele>234.75</ele><time>2026-04-04T09:32:56Z</time></trkpt><trkpt lat="39.51822570905065" lon="8.597881879445495"><ele>237.5</ele><time>2026-04-04T09:32:57Z</time></trkpt><trkpt lat="39.518338330710336" lon="8.597982082348729"><ele>240.25</ele><time>2026-04-04T09:32:58Z</time></trkpt><trkpt lat="39.51845560700867" lon="8.598069432309348"><ele>243.0</ele><time>2026-04-04T09:32:59Z</time></trkpt><trkpt lat="39.518570637380364" lon="8.598154474685842"><ele>243.0</ele><time>2026-04-04T09:33:00Z</time></trkpt><trkpt lat="39.51868212805173" lon="8.59823912944338"><ele>243.0</ele><time>2026-04-04T09:33:01Z</time></trkpt><trkpt lat="39.51879065334043" lon="8.598322273659347"><ele>243.0</ele><time>2026-04-04T09:33:02Z</time></trkpt><trkpt lat="39.518898145596914" lon="8.598405227800844"><ele>243.0</ele><time>2026-04-04T09:33:03Z</time></trkpt><trkpt lat="39.519005259082675" lon="8.59848858958119"><ele>241.5</ele><time>2026-04-04T09:33:04Z</time></trkpt><trkpt lat="39.519111140404526" lon="8.598571250621548"><ele>240.0</ele><time>2026-04-04T09:33:05Z</time></trkpt><trkpt lat="39.519218405980936" lon="8.598651781891228"><ele>238.5</ele><time>2026-04-04T09:33:06Z</time></trkpt><trkpt lat="39.519326082636724" lon="8.598727831622865"><ele>237.0</ele><time>2026-04-04T09:33:07Z</time></trkpt><trkpt lat="39.519436043363505" lon="8.598796516101757"><ele>242.25</ele><time>2026-04-04T09:33:08Z</time></trkpt><trkpt lat="39.51955293144295" lon="8.598849134283792"><ele>247.5</ele><time>2026-04-04T09:33:09Z</time></trkpt><trkpt lat="39.519677448931056" lon="8.598879111766971"><ele>252.75</ele><time>2026-04-04T09:33:10Z</time></trkpt><trkpt lat="39.519807832900085" lon="8.598869189731793"><ele>258.0</ele><time>2026-04-04T09:33:11Z</time></trkpt><trkpt lat="39.51994251753949" lon="8.598860139537402"><ele>259.0</ele><time>2026-04-04T09:33:12Z</time></trkpt><trkpt lat="39.520076003323595" lon="8.598847636141588"><ele>260.0</ele><time>2026-04-04T09:33:13Z</time></trkpt><trkpt lat="39.52021149848978" lon="8.598837096511748"><ele>261.0</ele><time>2026-04-04T09:33:14Z</time></trkpt><trkpt lat="39.52034476953546" lon="8.598830577374269"><ele>262.0</ele><time>2026-04-04T09:33:15Z</time></trkpt><trkpt lat="39.52047310195784" lon="8.598825552352864"><ele>262.0</ele><time>2026-04-04T09:33:16Z</time></trkpt><trkpt lat="39.52058896898673" lon="8.598819553034682"><ele>262.0</ele><time>2026-04-04T09:33:17Z</time></trkpt><trkpt lat="39.5206962090646" lon="8.598812373817497"><ele>262.0</ele><time>2026-04-04T09:33:18Z</time></trkpt><trkpt lat="39.520794970478335" lon="8.598812035271681"><ele>262.0</ele><time>2026-04-04T09:33:19Z</time></trkpt><trkpt lat="39.52088993242296" lon="8.598822963582618"><ele>262.0</ele><time>2026-04-04T09:33:20Z</time></trkpt><trkpt lat="39.520984688874194" lon="8.598851044271143"><ele>262.0</ele><time>2026-04-04T09:33:21Z</time></trkpt><trkpt lat="39.521080765913005" lon="8.59889352806463"><ele>262.0</ele><time>2026-04-04T09:33:22Z</time></trkpt><trkpt lat="39.52118008638818" lon="8.598942480681504"><ele>262.0</ele><time>2026-04-04T09:33:23Z</time></trkpt><trkpt lat="39.52128375551264" lon="8.598991945913712"><ele>262.0</ele><time>2026-04-04T09:33:24Z</time></trkpt><trkpt lat="39.5213930397196" lon="8.59903828359657"><ele>262.0</ele><time>2026-04-04T09:33:25Z</time></trkpt><trkpt lat="39.52150366678396" lon="8.599074020405483"><ele>261.6</ele><time>2026-04-04T09:33:26Z</time></trkpt><trkpt lat="39.521612902525575" lon="8.599100127382263"><ele>261.2</ele><time>2026-04-04T09:33:27Z</time></trkpt><trkpt lat="39.521718083892424" lon="8.599132609969246"><ele>260.8</ele><time>2026-04-04T09:33:28Z</time></trkpt><trkpt lat="39.52181634413434" lon="8.599160588560073"><ele>260.4</ele><time>2026-04-04T09:33:29Z</time></trkpt><trkpt lat="39.52191025841708" lon="8.599160415463533"><ele>260.0</ele><time>2026-04-04T09:33:30Z</time></trkpt><trkpt lat="39.52200018723794" lon="8.59912084068981"><ele>260.2</ele><time>2026-04-04T09:33:31Z</time></trkpt><trkpt lat="39.52207085008792" lon="8.599043163428023"><ele>260.4</ele><time>2026-04-04T09:33:32Z</time></trkpt><trkpt lat="39.52212813666299" lon="8.598949513551668"><ele>260.6</ele><time>2026-04-04T09:33:33Z</time></trkpt><trkpt lat="39.52219572518184" lon="8.598881962999846"><ele>260.8</ele><time>2026-04-04T09:33:34Z</time></trkpt><trkpt lat="39.52228010790292" lon="8.598839474678625"><ele>261.0</ele><time>2026-04-04T09:33:35Z</time></trkpt><trkpt lat="39.522373747043844" lon="8.598816270751827"><ele>261.0</ele><time>2026-04-04T09:33:36Z</time></trkpt><trkpt lat="39.52246551589554" lon="8.59880977838919"><ele>261.0</ele><time>2026-04-04T09:33:37Z</time></trkpt><trkpt lat="39.52255705751088" lon="8.59880562893447"><ele>261.0</ele><time>2026-04-04T09:33:38Z</time></trkpt><trkpt lat="39.52265107408759" lon="8.598804820185018"><ele>261.0</ele><time>2026-04-04T09:33:39Z</time></trkpt><trkpt lat="39.522740850146526" lon="8.598798319875527"><ele>261.0</ele><time>2026-04-04T09:33:40Z</time></trkpt><trkpt lat="39.52283171644505" lon="8.598884713309145"><ele>262.8</ele><time>2026-04-04T09:33:41Z</time></trkpt><trkpt lat="39.52291049016203" lon="8.598973138857891"><ele>264.6</ele><time>2026-04-04T09:33:42Z</time></trkpt><trkpt lat="39.52298715574133" lon="8.599068008136557"><ele>266.4</ele><time>2026-04-04T09:33:43Z</time></trkpt><trkpt lat="39.523073602921194" lon="8.599146726927913"><ele>268.2</ele><time>2026-04-04T09:33:44Z</time></trkpt><trkpt lat="39.523158941797476" lon="8.599208886211754"><ele>270.0</ele><time>2026-04-04T09:33:45Z</time></trkpt><trkpt lat="39.523246380304315" lon="8.59926220577576"><ele>270.0</ele><time>2026-04-04T09:33:46Z</time></trkpt><trkpt lat="39.523337758878874" lon="8.599308019358245"><ele>270.0</ele><time>2026-04-04T09:33:47Z</time></trkpt><trkpt lat="39.52342762030169" lon="8.599348896873707"><ele>270.0</ele><time>2026-04-04T09:33:48Z</time></trkpt><trkpt lat="39.52351921266003" lon="8.599374532878077"><ele>270.0</ele><time>2026-04-04T09:33:49Z</time></trkpt><trkpt lat="39.52361452559684" lon="8.599383363638344"><ele>270.0</ele><time>2026-04-04T09:33:50Z</time></trkpt><trkpt lat="39.5237119604106" lon="8.599387643658142"><ele>271.1666666666667</ele><time>2026-04-04T09:33:51Z</time></trkpt><trkpt lat="39.523806326772835" lon="8.599393016379505"><ele>272.3333333333333</ele><time>2026-04-04T09:33:52Z</time></trkpt><trkpt lat="39.52390125789721" lon="8.599400827337432"><ele>273.5</ele><time>2026-04-04T09:33:53Z</time></trkpt><trkpt lat="39.523990150333766" lon="8.599406449650573"><ele>274.66666666666663</ele><time>2026-04-04T09:33:54Z</time></trkpt><trkpt lat="39.524071100300596" lon="8.599413304027099"><ele>275.8333333333333</ele><time>2026-04-04T09:33:55Z</time></trkpt><trkpt lat="39.52415547748941" lon="8.599418065047571"><ele>277.0</ele><time>2026-04-04T09:33:56Z</time></trkpt><trkpt lat="39.524243350732924" lon="8.599426107441111"><ele>277.0</ele><time>2026-04-04T09:33:57Z</time></trkpt><trkpt lat="39.524334472106894" lon="8.59943446388183"><ele>277.0</ele><time>2026-04-04T09:33:58Z</time></trkpt><trkpt lat="39.524429008366354" lon="8.59944493554602"><ele>277.0</ele><time>2026-04-04T09:33:59Z</time></trkpt><trkpt lat="39.52452754982123" lon="8.599458033570574"><ele>277.0</ele><time>2026-04-04T09:34:00Z</time></trkpt><trkpt lat="39.52462675120548" lon="8.599495817420346"><ele>277.0</ele><time>2026-04-04T09:34:01Z</time></trkpt><trkpt lat="39.52470948372366" lon="8.599576522711978"><ele>279.0</ele><time>2026-04-04T09:34:02Z</time></trkpt><trkpt lat="39.524777850931294" lon="8.599696061114283"><ele>281.0</ele><time>2026-04-04T09:34:03Z</time></trkpt><trkpt lat="39.524859125857624" lon="8.599828543701573"><ele>283.0</ele><time>2026-04-04T09:34:04Z</time></trkpt><trkpt lat="39.52495428852923" lon="8.59995745659464"><ele>285.0</ele><time>2026-04-04T09:34:05Z</time></trkpt><trkpt lat="39.52505503138049" lon="8.600075097668354"><ele>285.0</ele><time>2026-04-04T09:34:06Z</time></trkpt><trkpt lat="39.52515156286596" lon="8.600177711459338"><ele>285.0</ele><time>2026-04-04T09:34:07Z</time></trkpt><trkpt lat="39.52522218237772" lon="8.600264226478853"><ele>285.0</ele><time>2026-04-04T09:34:08Z</time></trkpt><trkpt lat="39.525245421385506" lon="8.60041018110821"><ele>285.0</ele><time>2026-04-04T09:34:10Z</time></trkpt><trkpt lat="39.52524977165813" lon="8.600515654104303"><ele>285.0</ele><time>2026-04-04T09:34:11Z</time></trkpt><trkpt lat="39.525269175400496" lon="8.600633900171596"><ele>287.8</ele><time>2026-04-04T09:34:12Z</time></trkpt><trkpt lat="39.525316940674266" lon="8.600748491447924"><ele>290.6</ele><time>2026-04-04T09:34:13Z</time></trkpt><trkpt lat="39.52539603079107" lon="8.600859996552447"><ele>293.4</ele><time>2026-04-04T09:34:14Z</time></trkpt><trkpt lat="39.5254811837314" lon="8.600950006146917"><ele>296.2</ele><time>2026-04-04T09:34:15Z</time></trkpt><trkpt lat="39.525577181009574" lon="8.60101329819018"><ele>299.0</ele><time>2026-04-04T09:34:16Z</time></trkpt><trkpt lat="39.52567105865678" lon="8.601079432915038"><ele>299.33333333333337</ele><time>2026-04-04T09:34:17Z</time></trkpt><trkpt lat="39.525756624470525" lon="8.601149275818624"><ele>299.6666666666667</ele><time>2026-04-04T09:34:18Z</time></trkpt><trkpt lat="39.525832871802216" lon="8.601224382215701"><ele>300.0</ele><time>2026-04-04T09:34:19Z</time></trkpt><trkpt lat="39.52589289111159" lon="8.60130029340189"><ele>300.3333333333333</ele><time>2026-04-04T09:34:20Z</time></trkpt><trkpt lat="39.52594578062761" lon="8.601367161674585"><ele>300.66666666666663</ele><time>2026-04-04T09:34:21Z</time></trkpt><trkpt lat="39.52599506661159" lon="8.601422764195059"><ele>301.0</ele><time>2026-04-04T09:34:22Z</time></trkpt><trkpt lat="39.526079274467605" lon="8.601536644773033"><ele>302.3333333333333</ele><time>2026-04-04T09:34:24Z</time></trkpt><trkpt lat="39.52611809438862" lon="8.601605416818835"><ele>303.66666666666663</ele><time>2026-04-04T09:34:25Z</time></trkpt><trkpt lat="39.52614524752071" lon="8.601694825221596"><ele>305.0</ele><time>2026-04-04T09:34:26Z</time></trkpt><trkpt lat="39.52614611440591" lon="8.60180856814202"><ele>306.3333333333333</ele><time>2026-04-04T09:34:27Z</time></trkpt><trkpt lat="39.526160052940746" lon="8.601916073472802"><ele>307.6666666666667</ele><time>2026-04-04T09:34:28Z</time></trkpt><trkpt lat="39.526183817079286" lon="8.602003650275355"><ele>309.0</ele><time>2026-04-04T09:34:29Z</time></trkpt><trkpt lat="39.526225171162864" lon="8.602143667696996"><ele>309.0</ele><time>2026-04-04T09:34:31Z</time></trkpt><trkpt lat="39.52626583183668" lon="8.602261864106207"><ele>309.0</ele><time>2026-04-04T09:34:33Z</time></trkpt><trkpt lat="39.52631418342485" lon="8.602409839657177"><ele>309.0</ele><time>2026-04-04T09:34:35Z</time></trkpt><trkpt lat="39.52633435340023" lon="8.602492418659484"><ele>309.0</ele><time>2026-04-04T09:34:36Z</time></trkpt><trkpt lat="39.52634959326635" lon="8.602590284088205"><ele>309.0</ele><time>2026-04-04T09:34:37Z</time></trkpt><trkpt lat="39.52634825578003" lon="8.602702737165426"><ele>309.0</ele><time>2026-04-04T09:34:38Z</time></trkpt><trkpt lat="39.526327291171704" lon="8.6028206847717"><ele>309.0</ele><time>2026-04-04T09:34:39Z</time></trkpt><trkpt lat="39.52628688858943" lon="8.602935074219783"><ele>309.0</ele><time>2026-04-04T09:34:40Z</time></trkpt><trkpt lat="39.526239104716666" lon="8.603048545790925"><ele>309.0</ele><time>2026-04-04T09:34:41Z</time></trkpt><trkpt lat="39.52619274637553" lon="8.603167368950906"><ele>309.0</ele><time>2026-04-04T09:34:42Z</time></trkpt><trkpt lat="39.52614722181456" lon="8.603289134573702"><ele>312.25</ele><time>2026-04-04T09:34:43Z</time></trkpt><trkpt lat="39.526098831345905" lon="8.603417928445323"><ele>315.5</ele><time>2026-04-04T09:34:44Z</time></trkpt><trkpt lat="39.5260471165003" lon="8.603559371193871"><ele>318.75</ele><time>2026-04-04T09:34:45Z</time></trkpt><trkpt lat="39.5259888715332" lon="8.603719478027964"><ele>322.0</ele><time>2026-04-04T09:34:46Z</time></trkpt><trkpt lat="39.525935705445" lon="8.603858331708611"><ele>322.0</ele><time>2026-04-04T09:34:47Z</time></trkpt><trkpt lat="39.5258817859544" lon="8.603994515964073"><ele>322.0</ele><time>2026-04-04T09:34:48Z</time></trkpt><trkpt lat="39.525832638982955" lon="8.60413549585792"><ele>322.0</ele><time>2026-04-04T09:34:49Z</time></trkpt><trkpt lat="39.52576657762059" lon="8.60426631609375"><ele>322.0</ele><time>2026-04-04T09:34:50Z</time></trkpt><trkpt lat="39.525715804216766" lon="8.604402389673247"><ele>322.20000000000005</ele><time>2026-04-04T09:34:51Z</time></trkpt><trkpt lat="39.52568074198826" lon="8.60454380121485"><ele>322.4</ele><time>2026-04-04T09:34:52Z</time></trkpt><trkpt lat="39.52562905781133" lon="8.60467033085628"><ele>322.6</ele><time>2026-04-04T09:34:53Z</time></trkpt><trkpt lat="39.52558235631683" lon="8.604792057956292"><ele>322.79999999999995</ele><time>2026-04-04T09:34:54Z</time></trkpt><trkpt lat="39.525540332476886" lon="8.604902813784626"><ele>323.0</ele><time>2026-04-04T09:34:55Z</time></trkpt><trkpt lat="39.525503730255195" lon="8.60500676999489"><ele>323.00000000000006</ele><time>2026-04-04T09:34:56Z</time></trkpt><trkpt lat="39.525457006547235" lon="8.60509048726595"><ele>323.0</ele><time>2026-04-04T09:34:57Z</time></trkpt><trkpt lat="39.52544155358791" lon="8.60517653531921"><ele>323.0</ele><time>2026-04-04T09:34:58Z</time></trkpt><trkpt lat="39.52540065255829" lon="8.60524772696396"><ele>323.0</ele><time>2026-04-04T09:35:00Z</time></trkpt><trkpt lat="39.52537701293571" lon="8.60532383756008"><ele>323.0</ele><time>2026-04-04T09:35:02Z</time></trkpt><trkpt lat="39.525392776284974" lon="8.605418891290974"><ele>323.00000000000006</ele><time>2026-04-04T09:35:03Z</time></trkpt><trkpt lat="39.525394438025025" lon="8.605513808611509"><ele>323.0</ele><time>2026-04-04T09:35:04Z</time></trkpt><trkpt lat="39.52553300174216" lon="8.605614542655214"><ele>324.75</ele><time>2026-04-04T09:35:05Z</time></trkpt><trkpt lat="39.52560413677195" lon="8.605715668323326"><ele>326.5</ele><time>2026-04-04T09:35:06Z</time></trkpt><trkpt lat="39.52570343863323" lon="8.605803329111039"><ele>328.25</ele><time>2026-04-04T09:35:07Z</time></trkpt><trkpt lat="39.52581377947923" lon="8.605871016121814"><ele>330.0</ele><time>2026-04-04T09:35:08Z</time></trkpt><trkpt lat="39.525933482174246" lon="8.60591166317252"><ele>330.0</ele><time>2026-04-04T09:35:09Z</time></trkpt><trkpt lat="39.526056748262576" lon="8.605927672071507"><ele>330.0</ele><time>2026-04-04T09:35:10Z</time></trkpt><trkpt lat="39.526177607754775" lon="8.605930617854451"><ele>330.0</ele><time>2026-04-04T09:35:11Z</time></trkpt><trkpt lat="39.526287964922695" lon="8.605907650104086"><ele>330.0</ele><time>2026-04-04T09:35:12Z</time></trkpt><trkpt lat="39.52638257695217" lon="8.60583798152464"><ele>329.8</ele><time>2026-04-04T09:35:13Z</time></trkpt><trkpt lat="39.526454011775236" lon="8.605736891391105"><ele>329.6</ele><time>2026-04-04T09:35:14Z</time></trkpt><trkpt lat="39.52650901567802" lon="8.605631437445709"><ele>329.4</ele><time>2026-04-04T09:35:15Z</time></trkpt><trkpt lat="39.52657752591165" lon="8.605520907047692"><ele>329.2</ele><time>2026-04-04T09:35:16Z</time></trkpt><trkpt lat="39.52664654155092" lon="8.605411445148972"><ele>329.0</ele><time>2026-04-04T09:35:17Z</time></trkpt><trkpt lat="39.52671926553229" lon="8.60529669888109"><ele>328.0</ele><time>2026-04-04T09:35:18Z</time></trkpt><trkpt lat="39.52679245272663" lon="8.605180117807729"><ele>327.0</ele><time>2026-04-04T09:35:19Z</time></trkpt><trkpt lat="39.52686351231584" lon="8.605064620674604"><ele>326.0</ele><time>2026-04-04T09:35:20Z</time></trkpt><trkpt lat="39.52693081691329" lon="8.604959758531317"><ele>325.0</ele><time>2026-04-04T09:35:21Z</time></trkpt><trkpt lat="39.526989524504565" lon="8.604874929081694"><ele>324.0</ele><time>2026-04-04T09:35:22Z</time></trkpt><trkpt lat="39.52704957313281" lon="8.604813393452218"><ele>325.5</ele><time>2026-04-04T09:35:23Z</time></trkpt><trkpt lat="39.527112146341466" lon="8.604790557694857"><ele>327.0</ele><time>2026-04-04T09:35:24Z</time></trkpt><trkpt lat="39.52724107566391" lon="8.604846150834991"><ele>328.5</ele><time>2026-04-04T09:35:26Z</time></trkpt><trkpt lat="39.52730598534668" lon="8.604888559450433"><ele>330.0</ele><time>2026-04-04T09:35:27Z</time></trkpt><trkpt lat="39.52736542179554" lon="8.60492356577017"><ele>331.5</ele><time>2026-04-04T09:35:28Z</time></trkpt><trkpt lat="39.52745306322503" lon="8.604974091330138"><ele>333.0</ele><time>2026-04-04T09:35:30Z</time></trkpt><trkpt lat="39.527517446875194" lon="8.60501007903409"><ele>333.0</ele><time>2026-04-04T09:35:33Z</time></trkpt><trkpt lat="39.52762158186691" lon="8.605041780319768"><ele>333.0</ele><time>2026-04-04T09:35:59Z</time></trkpt><trkpt lat="39.527685953659955" lon="8.604994562017872"><ele>333.0</ele><time>2026-04-04T09:36:00Z</time></trkpt><trkpt lat="39.52775004097957" lon="8.604907179732397"><ele>333.0</ele><time>2026-04-04T09:36:01Z</time></trkpt><trkpt lat="39.527815624814394" lon="8.604825073966271"><ele>333.0</ele><time>2026-04-04T09:36:02Z</time></trkpt><trkpt lat="39.52787911188658" lon="8.6047433588069"><ele>332.8333333333333</ele><time>2026-04-04T09:36:03Z</time></trkpt><trkpt lat="39.527944697152485" lon="8.604666276333193"><ele>332.6666666666667</ele><time>2026-04-04T09:36:04Z</time></trkpt><trkpt lat="39.52800807684715" lon="8.604589220766233"><ele>332.5</ele><time>2026-04-04T09:36:05Z</time></trkpt><trkpt lat="39.52806350720082" lon="8.60452711584848"><ele>332.33333333333337</ele><time>2026-04-04T09:36:06Z</time></trkpt><trkpt lat="39.52812366167867" lon="8.604493131097783"><ele>332.1666666666667</ele><time>2026-04-04T09:36:07Z</time></trkpt><trkpt lat="39.5282438960905" lon="8.60447872856367"><ele>332.0</ele><time>2026-04-04T09:36:09Z</time></trkpt><trkpt lat="39.52836382545209" lon="8.604458392191036"><ele>332.0</ele><time>2026-04-04T09:36:11Z</time></trkpt><trkpt lat="39.52846364156909" lon="8.604356651292717"><ele>332.0</ele><time>2026-04-04T09:36:13Z</time></trkpt><trkpt lat="39.528507216739285" lon="8.604293178006449"><ele>332.0</ele><time>2026-04-04T09:36:14Z</time></trkpt><trkpt lat="39.52854782402801" lon="8.604227721309547"><ele>332.0</ele><time>2026-04-04T09:36:15Z</time></trkpt><trkpt lat="39.52861814341103" lon="8.60409898566657"><ele>332.0</ele><time>2026-04-04T09:36:17Z</time></trkpt><trkpt lat="39.528671125965424" lon="8.603979903709165"><ele>332.0</ele><time>2026-04-04T09:36:19Z</time></trkpt><trkpt lat="39.528724090438836" lon="8.603876987426423"><ele>332.0</ele><time>2026-04-04T09:36:21Z</time></trkpt><trkpt lat="39.52876189571947" lon="8.603800688912866"><ele>332.0</ele><time>2026-04-04T09:36:23Z</time></trkpt><trkpt lat="39.52880439074645" lon="8.603696979933545"><ele>332.0</ele><time>2026-04-04T09:36:25Z</time></trkpt><trkpt lat="39.52883925917888" lon="8.603626551634402"><ele>332.0</ele><time>2026-04-04T09:36:26Z</time></trkpt><trkpt lat="39.5288838255214" lon="8.60355124363417"><ele>332.0</ele><time>2026-04-04T09:36:27Z</time></trkpt><trkpt lat="39.52893089754452" lon="8.603466145783326"><ele>335.0</ele><time>2026-04-04T09:36:28Z</time></trkpt><trkpt lat="39.528982643436336" lon="8.603371808166546"><ele>338.0</ele><time>2026-04-04T09:36:29Z</time></trkpt><trkpt lat="39.52903858788908" lon="8.603271563432427"><ele>341.0</ele><time>2026-04-04T09:36:30Z</time></trkpt><trkpt lat="39.529095445347885" lon="8.603164588564303"><ele>344.0</ele><time>2026-04-04T09:36:31Z</time></trkpt><trkpt lat="39.52914910791384" lon="8.603064495220366"><ele>347.0</ele><time>2026-04-04T09:36:32Z</time></trkpt><trkpt lat="39.52919355320972" lon="8.602956308630427"><ele>347.0</ele><time>2026-04-04T09:36:33Z</time></trkpt><trkpt lat="39.52922112236053" lon="8.602836042333575"><ele>347.0</ele><time>2026-04-04T09:36:34Z</time></trkpt><trkpt lat="39.52923586482092" lon="8.602708221141544"><ele>347.0</ele><time>2026-04-04T09:36:35Z</time></trkpt><trkpt lat="39.52924901403521" lon="8.602575405936607"><ele>347.0</ele><time>2026-04-04T09:36:36Z</time></trkpt><trkpt lat="39.52926699320485" lon="8.602442746960365"><ele>347.0</ele><time>2026-04-04T09:36:37Z</time></trkpt><trkpt lat="39.52929804781873" lon="8.602308771344816"><ele>346.40000000000003</ele><time>2026-04-04T09:36:38Z</time></trkpt><trkpt lat="39.529341407478064" lon="8.602184635158414"><ele>345.8</ele><time>2026-04-04T09:36:39Z</time></trkpt><trkpt lat="39.52939029821245" lon="8.602056519749766"><ele>345.2</ele><time>2026-04-04T09:36:40Z</time></trkpt><trkpt lat="39.5294444074828" lon="8.60193220264285"><ele>344.6</ele><time>2026-04-04T09:36:41Z</time></trkpt><trkpt lat="39.529504607351825" lon="8.601812512023432"><ele>344.0</ele><time>2026-04-04T09:36:42Z</time></trkpt><trkpt lat="39.529569832999066" lon="8.601697123735967"><ele>348.2</ele><time>2026-04-04T09:36:43Z</time></trkpt><trkpt lat="39.529637635986326" lon="8.601587210740734"><ele>352.4</ele><time>2026-04-04T09:36:44Z</time></trkpt><trkpt lat="39.5297085792547" lon="8.60148055576077"><ele>356.6</ele><time>2026-04-04T09:36:45Z</time></trkpt><trkpt lat="39.5297857898547" lon="8.60138245490648"><ele>360.8</ele><time>2026-04-04T09:36:46Z</time></trkpt><trkpt lat="39.52986790295302" lon="8.60129483935929"><ele>365.0</ele><time>2026-04-04T09:36:47Z</time></trkpt><trkpt lat="39.5299545880255" lon="8.601216143932326"><ele>365.33333333333337</ele><time>2026-04-04T09:36:48Z</time></trkpt><trkpt lat="39.53003950618191" lon="8.601149168150638"><ele>365.6666666666667</ele><time>2026-04-04T09:36:49Z</time></trkpt><trkpt lat="39.5301179219408" lon="8.60109398893609"><ele>366.0</ele><time>2026-04-04T09:36:50Z</time></trkpt><trkpt lat="39.53019649808593" lon="8.601059390934935"><ele>366.3333333333333</ele><time>2026-04-04T09:36:51Z</time></trkpt><trkpt lat="39.53027777590838" lon="8.601039557418352"><ele>366.66666666666663</ele><time>2026-04-04T09:36:52Z</time></trkpt><trkpt lat="39.53036184936203" lon="8.60102806724628"><ele>367.0</ele><time>2026-04-04T09:36:53Z</time></trkpt><trkpt lat="39.530447545669155" lon="8.601015157881728"><ele>367.0</ele><time>2026-04-04T09:36:54Z</time></trkpt><trkpt lat="39.53053565193921" lon="8.601006742739258"><ele>367.0</ele><time>2026-04-04T09:36:55Z</time></trkpt><trkpt lat="39.53062972539876" lon="8.60099423342493"><ele>367.0</ele><time>2026-04-04T09:36:56Z</time></trkpt><trkpt lat="39.530725901121954" lon="8.60097775910501"><ele>367.0</ele><time>2026-04-04T09:36:57Z</time></trkpt><trkpt lat="39.530829073766576" lon="8.600960001516523"><ele>367.0</ele><time>2026-04-04T09:36:58Z</time></trkpt><trkpt lat="39.53093770631062" lon="8.600942286067568"><ele>367.0</ele><time>2026-04-04T09:36:59Z</time></trkpt><trkpt lat="39.53105121619151" lon="8.600915042190804"><ele>367.0</ele><time>2026-04-04T09:37:00Z</time></trkpt><trkpt lat="39.531170454130475" lon="8.600877882314313"><ele>367.0</ele><time>2026-04-04T09:37:01Z</time></trkpt><trkpt lat="39.531290535618865" lon="8.600834676390702"><ele>367.0</ele><time>2026-04-04T09:37:02Z</time></trkpt><trkpt lat="39.531409882311365" lon="8.6007979775719"><ele>370.75</ele><time>2026-04-04T09:37:03Z</time></trkpt><trkpt lat="39.531527600128015" lon="8.600769129925295"><ele>374.5</ele><time>2026-04-04T09:37:04Z</time></trkpt><trkpt lat="39.531640589430246" lon="8.600739616766116"><ele>378.25</ele><time>2026-04-04T09:37:05Z</time></trkpt><trkpt lat="39.531752882071785" lon="8.600713689027769"><ele>382.0</ele><time>2026-04-04T09:37:06Z</time></trkpt><trkpt lat="39.53186177731383" lon="8.600693651182057"><ele>382.0</ele><time>2026-04-04T09:37:07Z</time></trkpt><trkpt lat="39.53196951289235" lon="8.600672214002493"><ele>382.0</ele><time>2026-04-04T09:37:08Z</time></trkpt><trkpt lat="39.532078353519644" lon="8.600653609975668"><ele>382.0</ele><time>2026-04-04T09:37:09Z</time></trkpt><trkpt lat="39.532190025282205" lon="8.600650223820926"><ele>382.0</ele><time>2026-04-04T09:37:10Z</time></trkpt><trkpt lat="39.532305175133494" lon="8.600674930051643"><ele>382.0</ele><time>2026-04-04T09:37:11Z</time></trkpt><trkpt lat="39.532430139354794" lon="8.60072980036102"><ele>383.0</ele><time>2026-04-04T09:37:12Z</time></trkpt><trkpt lat="39.532556367138696" lon="8.600777732233109"><ele>384.0</ele><time>2026-04-04T09:37:13Z</time></trkpt><trkpt lat="39.532682568089996" lon="8.600836698654053"><ele>385.0</ele><time>2026-04-04T09:37:14Z</time></trkpt><trkpt lat="39.532814405290665" lon="8.600870301440295"><ele>386.0</ele><time>2026-04-04T09:37:15Z</time></trkpt><trkpt lat="39.53294869960586" lon="8.600890488447552"><ele>386.0</ele><time>2026-04-04T09:37:16Z</time></trkpt><trkpt lat="39.533081902287265" lon="8.60091831887895"><ele>386.0</ele><time>2026-04-04T09:37:17Z</time></trkpt><trkpt lat="39.533213758353924" lon="8.60096095563993"><ele>386.0</ele><time>2026-04-04T09:37:18Z</time></trkpt><trkpt lat="39.53335493928461" lon="8.601034450510172"><ele>386.0</ele><time>2026-04-04T09:37:19Z</time></trkpt><trkpt lat="39.53351322494562" lon="8.601117714582761"><ele>394.0</ele><time>2026-04-04T09:37:20Z</time></trkpt><trkpt lat="39.53368040102958" lon="8.601211859207211"><ele>402.0</ele><time>2026-04-04T09:37:21Z</time></trkpt><trkpt lat="39.53383511135255" lon="8.601318308478849"><ele>410.0</ele><time>2026-04-04T09:37:22Z</time></trkpt><trkpt lat="39.53399038083486" lon="8.601421382420465"><ele>410.0</ele><time>2026-04-04T09:37:23Z</time></trkpt><trkpt lat="39.53415289189294" lon="8.601515420027651"><ele>410.0</ele><time>2026-04-04T09:37:24Z</time></trkpt><trkpt lat="39.53430959390348" lon="8.601603948018676"><ele>410.0</ele><time>2026-04-04T09:37:25Z</time></trkpt><trkpt lat="39.534465941797514" lon="8.601696372803307"><ele>413.0</ele><time>2026-04-04T09:37:26Z</time></trkpt><trkpt lat="39.53461885007211" lon="8.601804440552849"><ele>416.0</ele><time>2026-04-04T09:37:27Z</time></trkpt><trkpt lat="39.53476324962192" lon="8.60194191388084"><ele>419.0</ele><time>2026-04-04T09:37:28Z</time></trkpt><trkpt lat="39.53489625429839" lon="8.602095262514545"><ele>419.0</ele><time>2026-04-04T09:37:29Z</time></trkpt><trkpt lat="39.53502041905493" lon="8.6022534771783"><ele>419.0</ele><time>2026-04-04T09:37:30Z</time></trkpt><trkpt lat="39.53513771864426" lon="8.602404163141411"><ele>419.0</ele><time>2026-04-04T09:37:31Z</time></trkpt><trkpt lat="39.53525620080563" lon="8.602534073625787"><ele>415.3333333333333</ele><time>2026-04-04T09:37:32Z</time></trkpt><trkpt lat="39.53539669706814" lon="8.602603126969772"><ele>411.66666666666663</ele><time>2026-04-04T09:37:33Z</time></trkpt><trkpt lat="39.535548817283036" lon="8.602616311058528"><ele>408.0</ele><time>2026-04-04T09:37:34Z</time></trkpt><trkpt lat="39.535700873436106" lon="8.602643849226018"><ele>408.0</ele><time>2026-04-04T09:37:35Z</time></trkpt><trkpt lat="39.53597812467704" lon="8.60280734514993"><ele>408.0</ele><time>2026-04-04T09:37:37Z</time></trkpt><trkpt lat="39.53611737480733" lon="8.602895775988163"><ele>414.5</ele><time>2026-04-04T09:37:38Z</time></trkpt><trkpt lat="39.536257985937056" lon="8.602980873028061"><ele>421.0</ele><time>2026-04-04T09:37:39Z</time></trkpt><trkpt lat="39.536381428566706" lon="8.603060200174594"><ele>427.5</ele><time>2026-04-04T09:37:40Z</time></trkpt><trkpt lat="39.53650663312228" lon="8.603108684375538"><ele>434.0</ele><time>2026-04-04T09:37:41Z</time></trkpt><trkpt lat="39.53664930358677" lon="8.603110125431161"><ele>434.0</ele><time>2026-04-04T09:37:42Z</time></trkpt><trkpt lat="39.53679907762977" lon="8.603051177559804"><ele>434.0</ele><time>2026-04-04T09:37:43Z</time></trkpt><trkpt lat="39.536940999764774" lon="8.602946558265769"><ele>434.0</ele><time>2026-04-04T09:37:44Z</time></trkpt><trkpt lat="39.53708687501623" lon="8.602831495346676"><ele>431.0</ele><time>2026-04-04T09:37:45Z</time></trkpt><trkpt lat="39.537244642310874" lon="8.602747235537578"><ele>428.0</ele><time>2026-04-04T09:37:46Z</time></trkpt><trkpt lat="39.537418795715006" lon="8.602688288167904"><ele>425.0</ele><time>2026-04-04T09:37:47Z</time></trkpt><trkpt lat="39.53759335931993" lon="8.602628792208437"><ele>425.0</ele><time>2026-04-04T09:37:48Z</time></trkpt><trkpt lat="39.537763899709745" lon="8.60254150908542"><ele>425.0</ele><time>2026-04-04T09:37:49Z</time></trkpt><trkpt lat="39.53793297976209" lon="8.602438760401869"><ele>425.0</ele><time>2026-04-04T09:37:50Z</time></trkpt><trkpt lat="39.53810307741087" lon="8.602353142361977"><ele>431.3333333333333</ele><time>2026-04-04T09:37:51Z</time></trkpt><trkpt lat="39.53827233174061" lon="8.602286686482923"><ele>437.66666666666663</ele><time>2026-04-04T09:37:52Z</time></trkpt><trkpt lat="39.538443064891624" lon="8.602232028181632"><ele>444.0</ele><time>2026-04-04T09:37:53Z</time></trkpt><trkpt lat="39.53861892211876" lon="8.602206581726533"><ele>447.0</ele><time>2026-04-04T09:37:54Z</time></trkpt><trkpt lat="39.538794783814694" lon="8.602197370590872"><ele>450.0</ele><time>2026-04-04T09:37:55Z</time></trkpt><trkpt lat="39.53896424315216" lon="8.602178590858049"><ele>453.0</ele><time>2026-04-04T09:37:56Z</time></trkpt><trkpt lat="39.53913168271557" lon="8.602145624070872"><ele>453.0</ele><time>2026-04-04T09:37:57Z</time></trkpt><trkpt lat="39.5392962254279" lon="8.602094345084947"><ele>453.0</ele><time>2026-04-04T09:37:58Z</time></trkpt><trkpt lat="39.539458389593136" lon="8.602005946091737"><ele>453.0</ele><time>2026-04-04T09:37:59Z</time></trkpt><trkpt lat="39.53962099410618" lon="8.601916294386676"><ele>446.33333333333337</ele><time>2026-04-04T09:38:00Z</time></trkpt><trkpt lat="39.53979490996344" lon="8.601857405536025"><ele>439.6666666666667</ele><time>2026-04-04T09:38:01Z</time></trkpt><trkpt lat="39.53998292904802" lon="8.601829118038266"><ele>433.0</ele><time>2026-04-04T09:38:02Z</time></trkpt><trkpt lat="39.540169673643106" lon="8.601795193609886"><ele>433.0</ele><time>2026-04-04T09:38:03Z</time></trkpt><trkpt lat="39.54035072509591" lon="8.601746316673845"><ele>433.0</ele><time>2026-04-04T09:38:04Z</time></trkpt><trkpt lat="39.54052653397184" lon="8.60169548078881"><ele>433.0</ele><time>2026-04-04T09:38:05Z</time></trkpt><trkpt lat="39.54069722438789" lon="8.601651944422677"><ele>435.6666666666667</ele><time>2026-04-04T09:38:06Z</time></trkpt><trkpt lat="39.54087490406213" lon="8.601674122218338"><ele>438.33333333333337</ele><time>2026-04-04T09:38:07Z</time></trkpt><trkpt lat="39.541053590412496" lon="8.601715978308462"><ele>441.0</ele><time>2026-04-04T09:38:08Z</time></trkpt><trkpt lat="39.541240261210675" lon="8.601756894648377"><ele>443.0</ele><time>2026-04-04T09:38:09Z</time></trkpt><trkpt lat="39.541427324693174" lon="8.601830697160503"><ele>445.0</ele><time>2026-04-04T09:38:10Z</time></trkpt><trkpt lat="39.54161635092375" lon="8.601903811091836"><ele>447.0</ele><time>2026-04-04T09:38:11Z</time></trkpt><trkpt lat="39.54180671493739" lon="8.601980528644203"><ele>453.0</ele><time>2026-04-04T09:38:12Z</time></trkpt><trkpt lat="39.5419989416067" lon="8.602047664995656"><ele>459.0</ele><time>2026-04-04T09:38:13Z</time></trkpt><trkpt lat="39.54219199896724" lon="8.602100182265907"><ele>465.0</ele><time>2026-04-04T09:38:14Z</time></trkpt><trkpt lat="39.542382583873156" lon="8.602131922738986"><ele>465.33333333333337</ele><time>2026-04-04T09:38:15Z</time></trkpt><trkpt lat="39.542568618128435" lon="8.602151854165506"><ele>465.6666666666667</ele><time>2026-04-04T09:38:16Z</time></trkpt><trkpt lat="39.542752242963104" lon="8.6021578341265"><ele>466.0</ele><time>2026-04-04T09:38:17Z</time></trkpt><trkpt lat="39.54292192259825" lon="8.602142080033886"><ele>465.25</ele><time>2026-04-04T09:38:18Z</time></trkpt><trkpt lat="39.54307227266014" lon="8.602114316926652"><ele>464.5</ele><time>2026-04-04T09:38:19Z</time></trkpt><trkpt lat="39.54320223654129" lon="8.602088473445896"><ele>463.75</ele><time>2026-04-04T09:38:20Z</time></trkpt><trkpt lat="39.543319761505415" lon="8.60204928622193"><ele>463.0</ele><time>2026-04-04T09:38:21Z</time></trkpt><trkpt lat="39.54342402047396" lon="8.601971498916518"><ele>463.0</ele><time>2026-04-04T09:38:22Z</time></trkpt><trkpt lat="39.54351067078121" lon="8.601859858940387"><ele>463.0</ele><time>2026-04-04T09:38:23Z</time></trkpt><trkpt lat="39.543568425595325" lon="8.601712183709598"><ele>463.0</ele><time>2026-04-04T09:38:24Z</time></trkpt><trkpt lat="39.543613910780685" lon="8.601539187367573"><ele>463.0</ele><time>2026-04-04T09:38:25Z</time></trkpt><trkpt lat="39.54366436028755" lon="8.60138362001008"><ele>457.5</ele><time>2026-04-04T09:38:26Z</time></trkpt><trkpt lat="39.5437381964607" lon="8.601251286311156"><ele>452.0</ele><time>2026-04-04T09:38:27Z</time></trkpt><trkpt lat="39.543837690736936" lon="8.601189206565133"><ele>446.5</ele><time>2026-04-04T09:38:28Z</time></trkpt><trkpt lat="39.54395864307552" lon="8.601184594731809"><ele>441.0</ele><time>2026-04-04T09:38:29Z</time></trkpt><trkpt lat="39.544084012983596" lon="8.601237380873194"><ele>441.0</ele><time>2026-04-04T09:38:30Z</time></trkpt><trkpt lat="39.54421725790131" lon="8.60126663970731"><ele>441.0</ele><time>2026-04-04T09:38:31Z</time></trkpt><trkpt lat="39.544327624273066" lon="8.601201530665303"><ele>441.0</ele><time>2026-04-04T09:38:32Z</time></trkpt><trkpt lat="39.544415625099816" lon="8.601094423612329"><ele>441.0</ele><time>2026-04-04T09:38:33Z</time></trkpt><trkpt lat="39.54446261552743" lon="8.60095748246232"><ele>445.25</ele><time>2026-04-04T09:38:34Z</time></trkpt><trkpt lat="39.54446096998934" lon="8.600792343261823"><ele>449.5</ele><time>2026-04-04T09:38:35Z</time></trkpt><trkpt lat="39.54443647458145" lon="8.600615025228471"><ele>453.75</ele><time>2026-04-04T09:38:36Z</time></trkpt><trkpt lat="39.54442659071959" lon="8.60043543801623"><ele>458.0</ele><time>2026-04-04T09:38:37Z</time></trkpt><trkpt lat="39.5444263235225" lon="8.60025791100482"><ele>460.5</ele><time>2026-04-04T09:38:38Z</time></trkpt><trkpt lat="39.54442809482603" lon="8.600083905000366"><ele>463.0</ele><time>2026-04-04T09:38:39Z</time></trkpt><trkpt lat="39.544427194649934" lon="8.59991155013991"><ele>465.5</ele><time>2026-04-04T09:38:40Z</time></trkpt><trkpt lat="39.54443764504018" lon="8.599742609486036"><ele>468.0</ele><time>2026-04-04T09:38:41Z</time></trkpt><trkpt lat="39.54445864768774" lon="8.599562545341387"><ele>469.25</ele><time>2026-04-04T09:38:42Z</time></trkpt><trkpt lat="39.544486478681776" lon="8.599377037325459"><ele>470.5</ele><time>2026-04-04T09:38:43Z</time></trkpt><trkpt lat="39.54451538761355" lon="8.599195139521527"><ele>471.75</ele><time>2026-04-04T09:38:44Z</time></trkpt><trkpt lat="39.544546950183175" lon="8.599018068961565"><ele>473.0</ele><time>2026-04-04T09:38:45Z</time></trkpt><trkpt lat="39.54460608091091" lon="8.598852726407545"><ele>468.75</ele><time>2026-04-04T09:38:46Z</time></trkpt><trkpt lat="39.54468438960823" lon="8.598721568279261"><ele>464.5</ele><time>2026-04-04T09:38:47Z</time></trkpt><trkpt lat="39.544794039842984" lon="8.598642454485915"><ele>460.25</ele><time>2026-04-04T09:38:48Z</time></trkpt><trkpt lat="39.54491380650996" lon="8.598584025360333"><ele>456.0</ele><time>2026-04-04T09:38:49Z</time></trkpt><trkpt lat="39.54503899201211" lon="8.598601269519115"><ele>450.0</ele><time>2026-04-04T09:38:50Z</time></trkpt><trkpt lat="39.54516400518057" lon="8.59867760561986"><ele>444.0</ele><time>2026-04-04T09:38:51Z</time></trkpt><trkpt lat="39.54528776451763" lon="8.598763353319049"><ele>438.0</ele><time>2026-04-04T09:38:52Z</time></trkpt><trkpt lat="39.54540748845844" lon="8.598789432094323"><ele>432.0</ele><time>2026-04-04T09:38:53Z</time></trkpt><trkpt lat="39.54552190109385" lon="8.598750267439202"><ele>431.5</ele><time>2026-04-04T09:38:54Z</time></trkpt><trkpt lat="39.54563707727938" lon="8.598646586542394"><ele>431.0</ele><time>2026-04-04T09:38:55Z</time></trkpt><trkpt lat="39.54574463491843" lon="8.59852181007344"><ele>430.5</ele><time>2026-04-04T09:38:56Z</time></trkpt><trkpt lat="39.545839930236006" lon="8.598403374839307"><ele>430.0</ele><time>2026-04-04T09:38:57Z</time></trkpt><trkpt lat="39.54589908822833" lon="8.59826019958828"><ele>430.0</ele><time>2026-04-04T09:38:58Z</time></trkpt><trkpt lat="39.545907262628965" lon="8.598085809726095"><ele>430.0</ele><time>2026-04-04T09:38:59Z</time></trkpt><trkpt lat="39.545892863073604" lon="8.597903633477559"><ele>430.0</ele><time>2026-04-04T09:39:00Z</time></trkpt><trkpt lat="39.54588217916031" lon="8.597729542358149"><ele>430.0</ele><time>2026-04-04T09:39:01Z</time></trkpt><trkpt lat="39.54588034616671" lon="8.597566179257903"><ele>432.25</ele><time>2026-04-04T09:39:02Z</time></trkpt><trkpt lat="39.54588571860532" lon="8.597416529613586"><ele>434.5</ele><time>2026-04-04T09:39:03Z</time></trkpt><trkpt lat="39.545916460665595" lon="8.597282446801712"><ele>436.75</ele><time>2026-04-04T09:39:04Z</time></trkpt><trkpt lat="39.54599320771935" lon="8.597174887007027"><ele>439.0</ele><time>2026-04-04T09:39:05Z</time></trkpt><trkpt lat="39.54610175091448" lon="8.597111500056755"><ele>431.5</ele><time>2026-04-04T09:39:06Z</time></trkpt><trkpt lat="39.546240004569114" lon="8.597107782149417"><ele>424.0</ele><time>2026-04-04T09:39:07Z</time></trkpt><trkpt lat="39.54637266289912" lon="8.597096350569487"><ele>416.5</ele><time>2026-04-04T09:39:08Z</time></trkpt><trkpt lat="39.54650907342638" lon="8.597071968244311"><ele>409.0</ele><time>2026-04-04T09:39:09Z</time></trkpt><trkpt lat="39.54664921185638" lon="8.597036978835753"><ele>415.5</ele><time>2026-04-04T09:39:10Z</time></trkpt><trkpt lat="39.546783611819265" lon="8.596976145222104"><ele>422.0</ele><time>2026-04-04T09:39:11Z</time></trkpt><trkpt lat="39.54689134665081" lon="8.59686156183359"><ele>428.5</ele><time>2026-04-04T09:39:12Z</time></trkpt><trkpt lat="39.54696842989737" lon="8.596713201507576"><ele>435.0</ele><time>2026-04-04T09:39:13Z</time></trkpt><trkpt lat="39.54703426449746" lon="8.59657523620658"><ele>430.25</ele><time>2026-04-04T09:39:14Z</time></trkpt><trkpt lat="39.54714056896794" lon="8.596504750879719"><ele>425.5</ele><time>2026-04-04T09:39:15Z</time></trkpt><trkpt lat="39.547270591532424" lon="8.596498144361789"><ele>420.75</ele><time>2026-04-04T09:39:16Z</time></trkpt><trkpt lat="39.54739502186311" lon="8.596555247079136"><ele>416.0</ele><time>2026-04-04T09:39:17Z</time></trkpt><trkpt lat="39.54751996926348" lon="8.596632281750175"><ele>416.0</ele><time>2026-04-04T09:39:18Z</time></trkpt><trkpt lat="39.54765097224676" lon="8.596682460355002"><ele>416.0</ele><time>2026-04-04T09:39:19Z</time></trkpt><trkpt lat="39.5477802492137" lon="8.596710692528417"><ele>416.0</ele><time>2026-04-04T09:39:20Z</time></trkpt><trkpt lat="39.54790208181935" lon="8.596679237141958"><ele>416.0</ele><time>2026-04-04T09:39:21Z</time></trkpt><trkpt lat="39.54801829447579" lon="8.596584110244416"><ele>417.3333333333333</ele><time>2026-04-04T09:39:22Z</time></trkpt><trkpt lat="39.548132579317915" lon="8.596448369386282"><ele>418.66666666666663</ele><time>2026-04-04T09:39:23Z</time></trkpt><trkpt lat="39.54823761302649" lon="8.596297095587639"><ele>420.0</ele><time>2026-04-04T09:39:24Z</time></trkpt><trkpt lat="39.548320955382074" lon="8.596119250703339"><ele>420.0</ele><time>2026-04-04T09:39:25Z</time></trkpt><trkpt lat="39.548391359020464" lon="8.595932087992743"><ele>420.0</ele><time>2026-04-04T09:39:26Z</time></trkpt><trkpt lat="39.5484794445584" lon="8.595761716497316"><ele>420.0</ele><time>2026-04-04T09:39:27Z</time></trkpt><trkpt lat="39.54859992801358" lon="8.595622681105901"><ele>417.66666666666663</ele><time>2026-04-04T09:39:28Z</time></trkpt><trkpt lat="39.54874498247453" lon="8.59552108457055"><ele>415.3333333333333</ele><time>2026-04-04T09:39:29Z</time></trkpt><trkpt lat="39.54888843034911" lon="8.595423292502376"><ele>413.0</ele><time>2026-04-04T09:39:30Z</time></trkpt><trkpt lat="39.54903562923179" lon="8.595317687106661"><ele>413.0</ele><time>2026-04-04T09:39:31Z</time></trkpt><trkpt lat="39.54917632407762" lon="8.59521687388859"><ele>413.0</ele><time>2026-04-04T09:39:32Z</time></trkpt><trkpt lat="39.549311655718355" lon="8.595112855163183"><ele>413.0</ele><time>2026-04-04T09:39:33Z</time></trkpt><trkpt lat="39.549438950112744" lon="8.59499282043921"><ele>402.3333333333333</ele><time>2026-04-04T09:39:34Z</time></trkpt><trkpt lat="39.54955730632552" lon="8.594853009676344"><ele>391.66666666666663</ele><time>2026-04-04T09:39:35Z</time></trkpt><trkpt lat="39.54967130275776" lon="8.59469835698231"><ele>381.0</ele><time>2026-04-04T09:39:36Z</time></trkpt><trkpt lat="39.5497968742389" lon="8.594555685285156"><ele>390.33333333333337</ele><time>2026-04-04T09:39:37Z</time></trkpt><trkpt lat="39.54993399216748" lon="8.594439874294778"><ele>399.6666666666667</ele><time>2026-04-04T09:39:38Z</time></trkpt><trkpt lat="39.55007329025924" lon="8.594330715656676"><ele>409.0</ele><time>2026-04-04T09:39:39Z</time></trkpt><trkpt lat="39.55020626198049" lon="8.594219140850411"><ele>409.0</ele><time>2026-04-04T09:39:40Z</time></trkpt><trkpt lat="39.550341186124186" lon="8.594103221658846"><ele>409.0</ele><time>2026-04-04T09:39:41Z</time></trkpt><trkpt lat="39.55046678261114" lon="8.593990556368349"><ele>409.0</ele><time>2026-04-04T09:39:42Z</time></trkpt><trkpt lat="39.55057322575491" lon="8.59386591250043"><ele>404.75</ele><time>2026-04-04T09:39:43Z</time></trkpt><trkpt lat="39.55065378997959" lon="8.593716702071214"><ele>400.5</ele><time>2026-04-04T09:39:44Z</time></trkpt><trkpt lat="39.55070978865651" lon="8.593556229745671"><ele>396.25</ele><time>2026-04-04T09:39:45Z</time></trkpt><trkpt lat="39.550738901129705" lon="8.593384476407177"><ele>392.0</ele><time>2026-04-04T09:39:46Z</time></trkpt><trkpt lat="39.55074345031818" lon="8.593201341393156"><ele>392.0</ele><time>2026-04-04T09:39:47Z</time></trkpt><trkpt lat="39.550731185989314" lon="8.593005913628309"><ele>392.0</ele><time>2026-04-04T09:39:48Z</time></trkpt><trkpt lat="39.55072440870138" lon="8.592809426673588"><ele>392.0</ele><time>2026-04-04T09:39:49Z</time></trkpt><trkpt lat="39.55072072656822" lon="8.592608596157296"><ele>392.66666666666663</ele><time>2026-04-04T09:39:50Z</time></trkpt><trkpt lat="39.55071071222008" lon="8.59240978188292"><ele>393.33333333333337</ele><time>2026-04-04T09:39:51Z</time></trkpt><trkpt lat="39.55067381040008" lon="8.592221770239103"><ele>394.0</ele><time>2026-04-04T09:39:52Z</time></trkpt><trkpt lat="39.550609731097424" lon="8.592037290492405"><ele>389.6666666666667</ele><time>2026-04-04T09:39:53Z</time></trkpt><trkpt lat="39.55051731561366" lon="8.591863021528729"><ele>385.33333333333337</ele><time>2026-04-04T09:39:54Z</time></trkpt><trkpt lat="39.55041916205657" lon="8.591695453674326"><ele>381.0</ele><time>2026-04-04T09:39:55Z</time></trkpt><trkpt lat="39.550328672801115" lon="8.591520469300288"><ele>385.0</ele><time>2026-04-04T09:39:56Z</time></trkpt><trkpt lat="39.55020607138561" lon="8.59137756510792"><ele>389.0</ele><time>2026-04-04T09:39:57Z</time></trkpt><trkpt lat="39.55008681333485" lon="8.591238503055493"><ele>393.0</ele><time>2026-04-04T09:39:58Z</time></trkpt><trkpt lat="39.54997033948431" lon="8.5911009664662"><ele>393.0</ele><time>2026-04-04T09:39:59Z</time></trkpt><trkpt lat="39.54985195943492" lon="8.590982326340596"><ele>393.0</ele><time>2026-04-04T09:40:00Z</time></trkpt><trkpt lat="39.5497485783633" lon="8.59087775893626"><ele>393.0</ele><time>2026-04-04T09:40:01Z</time></trkpt><trkpt lat="39.54966041309472" lon="8.590772240258026"><ele>393.0</ele><time>2026-04-04T09:40:02Z</time></trkpt><trkpt lat="39.54960050738961" lon="8.590645471471712"><ele>393.0</ele><time>2026-04-04T09:40:03Z</time></trkpt><trkpt lat="39.54959110607907" lon="8.590499377965243"><ele>393.0</ele><time>2026-04-04T09:40:04Z</time></trkpt><trkpt lat="39.54958834744275" lon="8.590340835715976"><ele>393.0</ele><time>2026-04-04T09:40:05Z</time></trkpt><trkpt lat="39.5495851008107" lon="8.59018314970221"><ele>393.0</ele><time>2026-04-04T09:40:06Z</time></trkpt><trkpt lat="39.549611851805466" lon="8.59003355507081"><ele>392.5</ele><time>2026-04-04T09:40:07Z</time></trkpt><trkpt lat="39.54966851778212" lon="8.589912360185497"><ele>392.0</ele><time>2026-04-04T09:40:08Z</time></trkpt><trkpt lat="39.549773242337146" lon="8.589843674369503"><ele>391.5</ele><time>2026-04-04T09:40:09Z</time></trkpt><trkpt lat="39.54988875028002" lon="8.589800629535974"><ele>391.0</ele><time>2026-04-04T09:40:10Z</time></trkpt><trkpt lat="39.54999900678546" lon="8.58975118753704"><ele>391.0</ele><time>2026-04-04T09:40:11Z</time></trkpt><trkpt lat="39.55008496892729" lon="8.58963786337478"><ele>391.0</ele><time>2026-04-04T09:40:12Z</time></trkpt><trkpt lat="39.550141725460506" lon="8.589484597231975"><ele>391.0</ele><time>2026-04-04T09:40:13Z</time></trkpt><trkpt lat="39.550183070258726" lon="8.589318013521144"><ele>391.0</ele><time>2026-04-04T09:40:14Z</time></trkpt><trkpt lat="39.550236902029134" lon="8.589171156973846"><ele>389.75</ele><time>2026-04-04T09:40:15Z</time></trkpt><trkpt lat="39.55033608100809" lon="8.58907362684183"><ele>388.5</ele><time>2026-04-04T09:40:16Z</time></trkpt><trkpt lat="39.55046436947767" lon="8.589018557145025"><ele>387.25</ele><time>2026-04-04T09:40:17Z</time></trkpt><trkpt lat="39.55060041489913" lon="8.589019614853541"><ele>386.0</ele><time>2026-04-04T09:40:18Z</time></trkpt><trkpt lat="39.5507459852445" lon="8.589035163124862"><ele>386.0</ele><time>2026-04-04T09:40:19Z</time></trkpt><trkpt lat="39.55088901067694" lon="8.589029323226438"><ele>386.0</ele><time>2026-04-04T09:40:20Z</time></trkpt><trkpt lat="39.551040297765944" lon="8.589023846075275"><ele>386.0</ele><time>2026-04-04T09:40:21Z</time></trkpt><trkpt lat="39.551186004473216" lon="8.58899059085079"><ele>386.0</ele><time>2026-04-04T09:40:22Z</time></trkpt><trkpt lat="39.55132572345102" lon="8.588916996933737"><ele>384.5</ele><time>2026-04-04T09:40:23Z</time></trkpt><trkpt lat="39.55144042662803" lon="8.58881689470375"><ele>383.0</ele><time>2026-04-04T09:40:24Z</time></trkpt><trkpt lat="39.55152202009338" lon="8.58868731392895"><ele>381.5</ele><time>2026-04-04T09:40:25Z</time></trkpt><trkpt lat="39.551561250302065" lon="8.588524178296352"><ele>380.0</ele><time>2026-04-04T09:40:26Z</time></trkpt><trkpt lat="39.55157363052405" lon="8.588339048391482"><ele>380.0</ele><time>2026-04-04T09:40:27Z</time></trkpt><trkpt lat="39.55156623732783" lon="8.588162648963777"><ele>380.0</ele><time>2026-04-04T09:40:28Z</time></trkpt><trkpt lat="39.55152894122251" lon="8.588003618452872"><ele>380.0</ele><time>2026-04-04T09:40:29Z</time></trkpt><trkpt lat="39.551448590167105" lon="8.587870889859898"><ele>380.0</ele><time>2026-04-04T09:40:30Z</time></trkpt><trkpt lat="39.5513409985591" lon="8.58774590818314"><ele>376.75</ele><time>2026-04-04T09:40:31Z</time></trkpt><trkpt lat="39.55122574258375" lon="8.587633866523753"><ele>373.5</ele><time>2026-04-04T09:40:32Z</time></trkpt><trkpt lat="39.551113719809244" lon="8.587524412643402"><ele>370.25</ele><time>2026-04-04T09:40:33Z</time></trkpt><trkpt lat="39.5510080267254" lon="8.587415942846524"><ele>367.0</ele><time>2026-04-04T09:40:34Z</time></trkpt><trkpt lat="39.55091526406573" lon="8.587312556820779"><ele>374.40000000000003</ele><time>2026-04-04T09:40:35Z</time></trkpt><trkpt lat="39.55084181169436" lon="8.587205150618214"><ele>381.8</ele><time>2026-04-04T09:40:36Z</time></trkpt><trkpt lat="39.550793933338014" lon="8.587087612518062"><ele>389.2</ele><time>2026-04-04T09:40:37Z</time></trkpt><trkpt lat="39.55081318405167" lon="8.586952968053593"><ele>396.6</ele><time>2026-04-04T09:40:38Z</time></trkpt><trkpt lat="39.5508864117926" lon="8.586847157914578"><ele>404.0</ele><time>2026-04-04T09:40:39Z</time></trkpt><trkpt lat="39.550979435838734" lon="8.58675624370663"><ele>404.0</ele><time>2026-04-04T09:40:40Z</time></trkpt><trkpt lat="39.55107462137313" lon="8.58665657982913"><ele>404.0</ele><time>2026-04-04T09:40:41Z</time></trkpt><trkpt lat="39.5511442953832" lon="8.586512540940259"><ele>404.0</ele><time>2026-04-04T09:40:42Z</time></trkpt><trkpt lat="39.551197937031" lon="8.586332953637662"><ele>404.0</ele><time>2026-04-04T09:40:43Z</time></trkpt><trkpt lat="39.55123306443947" lon="8.586141640900122"><ele>396.0</ele><time>2026-04-04T09:40:44Z</time></trkpt><trkpt lat="39.55126448930489" lon="8.585952878517089"><ele>388.0</ele><time>2026-04-04T09:40:45Z</time></trkpt><trkpt lat="39.55128649444345" lon="8.58576670086558"><ele>380.0</ele><time>2026-04-04T09:40:46Z</time></trkpt><trkpt lat="39.55129648524201" lon="8.58558607889144"><ele>372.0</ele><time>2026-04-04T09:40:47Z</time></trkpt><trkpt lat="39.55130364855501" lon="8.585412168972654"><ele>372.25</ele><time>2026-04-04T09:40:48Z</time></trkpt><trkpt lat="39.55130795574041" lon="8.585244335585124"><ele>372.5</ele><time>2026-04-04T09:40:49Z</time></trkpt><trkpt lat="39.55130335717299" lon="8.585081760934147"><ele>372.75</ele><time>2026-04-04T09:40:50Z</time></trkpt><trkpt lat="39.55128761264882" lon="8.584915418549496"><ele>373.0</ele><time>2026-04-04T09:40:51Z</time></trkpt><trkpt lat="39.55124302925889" lon="8.584749152916647"><ele>379.0</ele><time>2026-04-04T09:40:52Z</time></trkpt><trkpt lat="39.55117824777685" lon="8.58458573899798"><ele>385.0</ele><time>2026-04-04T09:40:53Z</time></trkpt><trkpt lat="39.55110700999563" lon="8.584423026983325"><ele>391.0</ele><time>2026-04-04T09:40:54Z</time></trkpt><trkpt lat="39.55101624379922" lon="8.584267162466267"><ele>397.0</ele><time>2026-04-04T09:40:55Z</time></trkpt><trkpt lat="39.55091220744341" lon="8.584103970973608"><ele>397.0</ele><time>2026-04-04T09:40:56Z</time></trkpt><trkpt lat="39.55078518374598" lon="8.583980537902551"><ele>397.0</ele><time>2026-04-04T09:40:57Z</time></trkpt><trkpt lat="39.550668419529686" lon="8.583865206408412"><ele>397.0</ele><time>2026-04-04T09:40:58Z</time></trkpt><trkpt lat="39.55059805105998" lon="8.583733463917667"><ele>397.0</ele><time>2026-04-04T09:40:59Z</time></trkpt><trkpt lat="39.550561726079685" lon="8.583583790792442"><ele>395.0</ele><time>2026-04-04T09:41:00Z</time></trkpt><trkpt lat="39.55053032459482" lon="8.5834267204463"><ele>393.0</ele><time>2026-04-04T09:41:01Z</time></trkpt><trkpt lat="39.550537019271275" lon="8.583276657087085"><ele>391.0</ele><time>2026-04-04T09:41:02Z</time></trkpt><trkpt lat="39.550590796713344" lon="8.583153169258372"><ele>389.0</ele><time>2026-04-04T09:41:03Z</time></trkpt><trkpt lat="39.55067803991445" lon="8.583065660227227"><ele>389.0</ele><time>2026-04-04T09:41:04Z</time></trkpt><trkpt lat="39.55079066978832" lon="8.583039348844949"><ele>389.0</ele><time>2026-04-04T09:41:05Z</time></trkpt><trkpt lat="39.55091105705942" lon="8.583052217363534"><ele>389.0</ele><time>2026-04-04T09:41:06Z</time></trkpt><trkpt lat="39.55105303497691" lon="8.583095050630227"><ele>389.0</ele><time>2026-04-04T09:41:07Z</time></trkpt><trkpt lat="39.5511919235486" lon="8.583113864356998"><ele>386.25</ele><time>2026-04-04T09:41:08Z</time></trkpt><trkpt lat="39.55133687775152" lon="8.583116275710864"><ele>383.5</ele><time>2026-04-04T09:41:09Z</time></trkpt><trkpt lat="39.55148099963842" lon="8.583101484105843"><ele>380.75</ele><time>2026-04-04T09:41:10Z</time></trkpt><trkpt lat="39.551625649966965" lon="8.583085719255545"><ele>378.0</ele><time>2026-04-04T09:41:11Z</time></trkpt><trkpt lat="39.55176528132054" lon="8.5830854975541"><ele>378.0</ele><time>2026-04-04T09:41:12Z</time></trkpt><trkpt lat="39.55189772394201" lon="8.583115768169337"><ele>378.0</ele><time>2026-04-04T09:41:13Z</time></trkpt><trkpt lat="39.5520202259519" lon="8.583158682898082"><ele>378.0</ele><time>2026-04-04T09:41:14Z</time></trkpt><trkpt lat="39.55214031700628" lon="8.583180666585362"><ele>378.0</ele><time>2026-04-04T09:41:15Z</time></trkpt><trkpt lat="39.5522499399554" lon="8.583170027063714"><ele>376.4</ele><time>2026-04-04T09:41:16Z</time></trkpt><trkpt lat="39.552352266250885" lon="8.58313515513371"><ele>374.79999999999995</ele><time>2026-04-04T09:41:17Z</time></trkpt><trkpt lat="39.55244865408256" lon="8.58309532860013"><ele>373.2</ele><time>2026-04-04T09:41:18Z</time></trkpt><trkpt lat="39.55254163558305" lon="8.583062377318118"><ele>371.6</ele><time>2026-04-04T09:41:19Z</time></trkpt><trkpt lat="39.55263210770158" lon="8.58303000877822"><ele>370.0</ele><time>2026-04-04T09:41:20Z</time></trkpt><trkpt lat="39.55271761117383" lon="8.582997645241173"><ele>369.99999999999994</ele><time>2026-04-04T09:41:21Z</time></trkpt><trkpt lat="39.552795382250395" lon="8.582966087316722"><ele>370.0</ele><time>2026-04-04T09:41:22Z</time></trkpt><trkpt lat="39.5528607703778" lon="8.58292751877095"><ele>370.0</ele><time>2026-04-04T09:41:23Z</time></trkpt><trkpt lat="39.55291638043076" lon="8.582869169587106"><ele>370.0</ele><time>2026-04-04T09:41:24Z</time></trkpt><trkpt lat="39.552956850714665" lon="8.582799773079044"><ele>370.0</ele><time>2026-04-04T09:41:25Z</time></trkpt><trkpt lat="39.5529870781091" lon="8.582717507287823"><ele>369.99999999999994</ele><time>2026-04-04T09:41:26Z</time></trkpt><trkpt lat="39.553004275751476" lon="8.582628298551176"><ele>370.0</ele><time>2026-04-04T09:41:27Z</time></trkpt><trkpt lat="39.553005832839986" lon="8.582537155854599"><ele>369.57142857142856</ele><time>2026-04-04T09:41:28Z</time></trkpt><trkpt lat="39.5529907215167" lon="8.582444176501012"><ele>369.1428571428571</ele><time>2026-04-04T09:41:29Z</time></trkpt><trkpt lat="39.552972543063824" lon="8.58234967371218"><ele>368.71428571428567</ele><time>2026-04-04T09:41:30Z</time></trkpt><trkpt lat="39.552953392195356" lon="8.582255373442159"><ele>368.2857142857143</ele><time>2026-04-04T09:41:31Z</time></trkpt><trkpt lat="39.55293731392508" lon="8.58216543381468"><ele>367.8571428571429</ele><time>2026-04-04T09:41:32Z</time></trkpt><trkpt lat="39.55292330654569" lon="8.582079617831768"><ele>367.4285714285714</ele><time>2026-04-04T09:41:33Z</time></trkpt><trkpt lat="39.55290834892555" lon="8.581998031961513"><ele>367.0</ele><time>2026-04-04T09:41:34Z</time></trkpt><trkpt lat="39.55287712927522" lon="8.581835666971896"><ele>366.16666666666663</ele><time>2026-04-04T09:41:36Z</time></trkpt><trkpt lat="39.552864403066955" lon="8.581740784445136"><ele>365.3333333333333</ele><time>2026-04-04T09:41:37Z</time></trkpt><trkpt lat="39.55285235642431" lon="8.581640054097493"><ele>364.5</ele><time>2026-04-04T09:41:38Z</time></trkpt><trkpt lat="39.55284497832726" lon="8.581530513477638"><ele>363.6666666666667</ele><time>2026-04-04T09:41:39Z</time></trkpt><trkpt lat="39.55284873630433" lon="8.581414043476773"><ele>362.83333333333337</ele><time>2026-04-04T09:41:40Z</time></trkpt><trkpt lat="39.552860018874185" lon="8.581291093431618"><ele>362.0</ele><time>2026-04-04T09:41:41Z</time></trkpt><trkpt lat="39.55288259487541" lon="8.581163721304357"><ele>362.0</ele><time>2026-04-04T09:41:42Z</time></trkpt><trkpt lat="39.55290601772865" lon="8.5810426923914"><ele>362.0</ele><time>2026-04-04T09:41:43Z</time></trkpt><trkpt lat="39.552932119921024" lon="8.58092034680451"><ele>362.0</ele><time>2026-04-04T09:41:44Z</time></trkpt><trkpt lat="39.552957258802515" lon="8.580788832589505"><ele>362.0</ele><time>2026-04-04T09:41:45Z</time></trkpt><trkpt lat="39.55297906865446" lon="8.580650387185448"><ele>362.0</ele><time>2026-04-04T09:41:46Z</time></trkpt><trkpt lat="39.5530026006457" lon="8.580507274804214"><ele>362.0</ele><time>2026-04-04T09:41:47Z</time></trkpt><trkpt lat="39.55301452263118" lon="8.580361700000958"><ele>362.0</ele><time>2026-04-04T09:41:48Z</time></trkpt><trkpt lat="39.5529971967266" lon="8.580212857150423"><ele>362.0</ele><time>2026-04-04T09:41:49Z</time></trkpt><trkpt lat="39.55298071548311" lon="8.580072525572513"><ele>362.0</ele><time>2026-04-04T09:41:50Z</time></trkpt><trkpt lat="39.55291513039309" lon="8.579951432675719"><ele>369.5</ele><time>2026-04-04T09:41:51Z</time></trkpt><trkpt lat="39.552841001886904" lon="8.57983968669275"><ele>377.0</ele><time>2026-04-04T09:41:52Z</time></trkpt><trkpt lat="39.552757616845874" lon="8.579733811515935"><ele>384.5</ele><time>2026-04-04T09:41:53Z</time></trkpt><trkpt lat="39.552669529790556" lon="8.579630135006262"><ele>392.0</ele><time>2026-04-04T09:41:54Z</time></trkpt><trkpt lat="39.55257669666721" lon="8.579525676573502"><ele>385.75</ele><time>2026-04-04T09:41:55Z</time></trkpt><trkpt lat="39.55248130427128" lon="8.579418506194031"><ele>379.5</ele><time>2026-04-04T09:41:56Z</time></trkpt><trkpt lat="39.552385796067746" lon="8.57931141459348"><ele>373.25</ele><time>2026-04-04T09:41:57Z</time></trkpt><trkpt lat="39.55229451271634" lon="8.579201265531001"><ele>367.0</ele><time>2026-04-04T09:41:58Z</time></trkpt><trkpt lat="39.55220138308722" lon="8.579090277178214"><ele>367.0</ele><time>2026-04-04T09:41:59Z</time></trkpt><trkpt lat="39.55212154450125" lon="8.578961055366637"><ele>367.0</ele><time>2026-04-04T09:42:00Z</time></trkpt><trkpt lat="39.55205954236887" lon="8.578816826897752"><ele>367.0</ele><time>2026-04-04T09:42:01Z</time></trkpt><trkpt lat="39.55199308408372" lon="8.57868274690608"><ele>367.0</ele><time>2026-04-04T09:42:02Z</time></trkpt><trkpt lat="39.55193262989084" lon="8.578559296293719"><ele>370.8</ele><time>2026-04-04T09:42:03Z</time></trkpt><trkpt lat="39.551877509982866" lon="8.578446738531559"><ele>374.6</ele><time>2026-04-04T09:42:04Z</time></trkpt><trkpt lat="39.55183008954083" lon="8.578343961254724"><ele>378.40000000000003</ele><time>2026-04-04T09:42:05Z</time></trkpt><trkpt lat="39.551839862994534" lon="8.578222476386367"><ele>382.20000000000005</ele><time>2026-04-04T09:42:06Z</time></trkpt><trkpt lat="39.551883852235584" lon="8.578112447456325"><ele>386.0</ele><time>2026-04-04T09:42:07Z</time></trkpt><trkpt lat="39.55196718336436" lon="8.57803287718046"><ele>379.25</ele><time>2026-04-04T09:42:08Z</time></trkpt><trkpt lat="39.5520662002439" lon="8.57797568374263"><ele>372.5</ele><time>2026-04-04T09:42:09Z</time></trkpt><trkpt lat="39.55217217432275" lon="8.577933657898821"><ele>365.75</ele><time>2026-04-04T09:42:10Z</time></trkpt><trkpt lat="39.552293254475394" lon="8.577910327392107"><ele>359.0</ele><time>2026-04-04T09:42:11Z</time></trkpt><trkpt lat="39.55242369771389" lon="8.5778951061936"><ele>359.0</ele><time>2026-04-04T09:42:12Z</time></trkpt><trkpt lat="39.55255517692125" lon="8.577863693583302"><ele>359.0</ele><time>2026-04-04T09:42:13Z</time></trkpt><trkpt lat="39.552678443010876" lon="8.577820166907587"><ele>359.0</ele><time>2026-04-04T09:42:14Z</time></trkpt><trkpt lat="39.55279805977516" lon="8.577785388809874"><ele>359.0</ele><time>2026-04-04T09:42:15Z</time></trkpt><trkpt lat="39.55290769377429" lon="8.57775066905672"><ele>358.0</ele><time>2026-04-04T09:42:16Z</time></trkpt><trkpt lat="39.553007754219635" lon="8.577687048049453"><ele>357.0</ele><time>2026-04-04T09:42:17Z</time></trkpt><trkpt lat="39.553089203753586" lon="8.577585775330196"><ele>356.0</ele><time>2026-04-04T09:42:18Z</time></trkpt><trkpt lat="39.55313503898408" lon="8.577455723544183"><ele>355.0</ele><time>2026-04-04T09:42:19Z</time></trkpt><trkpt lat="39.55314349341974" lon="8.577304823496734"><ele>355.0</ele><time>2026-04-04T09:42:20Z</time></trkpt><trkpt lat="39.55311580077688" lon="8.5771394548576"><ele>355.0</ele><time>2026-04-04T09:42:21Z</time></trkpt><trkpt lat="39.55309572822541" lon="8.576973909613402"><ele>355.0</ele><time>2026-04-04T09:42:22Z</time></trkpt><trkpt lat="39.55306497967801" lon="8.576794306809152"><ele>355.0</ele><time>2026-04-04T09:42:23Z</time></trkpt><trkpt lat="39.553042870764486" lon="8.576604801618487"><ele>353.66666666666663</ele><time>2026-04-04T09:42:24Z</time></trkpt><trkpt lat="39.553005877699086" lon="8.576417344134889"><ele>352.3333333333333</ele><time>2026-04-04T09:42:25Z</time></trkpt><trkpt lat="39.55295447997248" lon="8.57623157740149"><ele>351.0</ele><time>2026-04-04T09:42:26Z</time></trkpt><trkpt lat="39.552918227044316" lon="8.576040557918429"><ele>350.5</ele><time>2026-04-04T09:42:27Z</time></trkpt><trkpt lat="39.552876645446766" lon="8.575859524309875"><ele>350.0</ele><time>2026-04-04T09:42:28Z</time></trkpt><trkpt lat="39.55285701565519" lon="8.57568831320401"><ele>349.5</ele><time>2026-04-04T09:42:29Z</time></trkpt><trkpt lat="39.55282042864112" lon="8.575539073805972"><ele>349.0</ele><time>2026-04-04T09:42:30Z</time></trkpt><trkpt lat="39.55283570074596" lon="8.575390945843026"><ele>354.25</ele><time>2026-04-04T09:42:31Z</time></trkpt><trkpt lat="39.55288635706529" lon="8.575262678640138"><ele>359.5</ele><time>2026-04-04T09:42:32Z</time></trkpt><trkpt lat="39.55297083373649" lon="8.575170826937155"><ele>364.75</ele><time>2026-04-04T09:42:33Z</time></trkpt><trkpt lat="39.55308441977313" lon="8.575110949529769"><ele>370.0</ele><time>2026-04-04T09:42:34Z</time></trkpt><trkpt lat="39.55318918703849" lon="8.57503096299536"><ele>370.0</ele><time>2026-04-04T09:42:35Z</time></trkpt><trkpt lat="39.553309576776876" lon="8.574989135948094"><ele>370.0</ele><time>2026-04-04T09:42:36Z</time></trkpt><trkpt lat="39.55343379738195" lon="8.575003922421958"><ele>370.0</ele><time>2026-04-04T09:42:37Z</time></trkpt><trkpt lat="39.55355074121919" lon="8.575070079257031"><ele>370.0</ele><time>2026-04-04T09:42:38Z</time></trkpt><trkpt lat="39.553662816598795" lon="8.575147329051475"><ele>369.0</ele><time>2026-04-04T09:42:39Z</time></trkpt><trkpt lat="39.55377617817997" lon="8.575225075854554"><ele>368.0</ele><time>2026-04-04T09:42:40Z</time></trkpt><trkpt lat="39.55388389961824" lon="8.575284456787145"><ele>367.0</ele><time>2026-04-04T09:42:41Z</time></trkpt><trkpt lat="39.55398047749268" lon="8.575286627703157"><ele>366.0</ele><time>2026-04-04T09:42:42Z</time></trkpt><trkpt lat="39.55407293065559" lon="8.575220992855087"><ele>365.0</ele><time>2026-04-04T09:42:43Z</time></trkpt><trkpt lat="39.55416244562324" lon="8.575114607737268"><ele>365.0</ele><time>2026-04-04T09:42:44Z</time></trkpt><trkpt lat="39.55424976663351" lon="8.57500556928843"><ele>365.0</ele><time>2026-04-04T09:42:45Z</time></trkpt><trkpt lat="39.5543482130925" lon="8.574898094966253"><ele>365.0</ele><time>2026-04-04T09:42:46Z</time></trkpt><trkpt lat="39.55446422696071" lon="8.574821650335528"><ele>365.0</ele><time>2026-04-04T09:42:47Z</time></trkpt><trkpt lat="39.554585613395865" lon="8.574790202733574"><ele>362.5</ele><time>2026-04-04T09:42:48Z</time></trkpt><trkpt lat="39.55471095649445" lon="8.57479708712443"><ele>360.0</ele><time>2026-04-04T09:42:49Z</time></trkpt><trkpt lat="39.55483211310304" lon="8.574842269399408"><ele>357.5</ele><time>2026-04-04T09:42:50Z</time></trkpt><trkpt lat="39.55494312230346" lon="8.574909452976328"><ele>355.0</ele><time>2026-04-04T09:42:51Z</time></trkpt><trkpt lat="39.55504752160152" lon="8.574949899022402"><ele>355.0</ele><time>2026-04-04T09:42:52Z</time></trkpt><trkpt lat="39.55515098409573" lon="8.574946064914691"><ele>355.0</ele><time>2026-04-04T09:42:53Z</time></trkpt><trkpt lat="39.55524772268753" lon="8.57488767172012"><ele>355.0</ele><time>2026-04-04T09:42:54Z</time></trkpt><trkpt lat="39.55533661288888" lon="8.574795892596311"><ele>355.0</ele><time>2026-04-04T09:42:55Z</time></trkpt><trkpt lat="39.555418386043094" lon="8.574692159296394"><ele>355.0</ele><time>2026-04-04T09:42:56Z</time></trkpt><trkpt lat="39.55547379257453" lon="8.574554826253864"><ele>354.75</ele><time>2026-04-04T09:42:57Z</time></trkpt><trkpt lat="39.55550476655965" lon="8.574398373934859"><ele>354.5</ele><time>2026-04-04T09:42:58Z</time></trkpt><trkpt lat="39.555517871100136" lon="8.574234598887498"><ele>354.25</ele><time>2026-04-04T09:42:59Z</time></trkpt><trkpt lat="39.55552949263354" lon="8.57406796700875"><ele>354.0</ele><time>2026-04-04T09:43:00Z</time></trkpt><trkpt lat="39.55556872965532" lon="8.573907833651724"><ele>354.0</ele><time>2026-04-04T09:43:01Z</time></trkpt><trkpt lat="39.55563851564677" lon="8.573760960186743"><ele>354.0</ele><time>2026-04-04T09:43:02Z</time></trkpt><trkpt lat="39.555719429791665" lon="8.573620502284237"><ele>354.0</ele><time>2026-04-04T09:43:03Z</time></trkpt><trkpt lat="39.55579773579074" lon="8.573472564271672"><ele>354.0</ele><time>2026-04-04T09:43:04Z</time></trkpt><trkpt lat="39.55587317538283" lon="8.573323556730156"><ele>356.0</ele><time>2026-04-04T09:43:05Z</time></trkpt><trkpt lat="39.55594028610404" lon="8.573170052658856"><ele>358.0</ele><time>2026-04-04T09:43:06Z</time></trkpt><trkpt lat="39.55597594832706" lon="8.573001867594988"><ele>360.0</ele><time>2026-04-04T09:43:07Z</time></trkpt><trkpt lat="39.55599611269542" lon="8.572829630547071"><ele>362.0</ele><time>2026-04-04T09:43:08Z</time></trkpt><trkpt lat="39.55601182660619" lon="8.572667144843445"><ele>363.20000000000005</ele><time>2026-04-04T09:43:09Z</time></trkpt><trkpt lat="39.55602776854448" lon="8.572513399572426"><ele>364.4</ele><time>2026-04-04T09:43:10Z</time></trkpt><trkpt lat="39.556041584563566" lon="8.572367216807153"><ele>365.6</ele><time>2026-04-04T09:43:11Z</time></trkpt><trkpt lat="39.55605429794634" lon="8.572227019247816"><ele>366.79999999999995</ele><time>2026-04-04T09:43:12Z</time></trkpt><trkpt lat="39.55606656029447" lon="8.572095083325793"><ele>368.0</ele><time>2026-04-04T09:43:13Z</time></trkpt><trkpt lat="39.556073979217025" lon="8.57199384246138"><ele>368.83333333333337</ele><time>2026-04-04T09:43:14Z</time></trkpt><trkpt lat="39.55610299353589" lon="8.571828843741523"><ele>369.6666666666667</ele><time>2026-04-04T09:43:16Z</time></trkpt><trkpt lat="39.55613109708429" lon="8.571733156005374"><ele>370.5</ele><time>2026-04-04T09:43:17Z</time></trkpt><trkpt lat="39.55616044135358" lon="8.571641429598971"><ele>371.3333333333333</ele><time>2026-04-04T09:43:18Z</time></trkpt><trkpt lat="39.556199911613646" lon="8.57155146820988"><ele>372.16666666666663</ele><time>2026-04-04T09:43:19Z</time></trkpt><trkpt lat="39.55624321966629" lon="8.571460830823648"><ele>373.0</ele><time>2026-04-04T09:43:20Z</time></trkpt><trkpt lat="39.55628708444647" lon="8.571362766996375"><ele>371.0</ele><time>2026-04-04T09:43:21Z</time></trkpt><trkpt lat="39.55635093551314" lon="8.571280732191653"><ele>369.0</ele><time>2026-04-04T09:43:22Z</time></trkpt><trkpt lat="39.55642722192023" lon="8.571227377008094"><ele>367.0</ele><time>2026-04-04T09:43:23Z</time></trkpt><trkpt lat="39.556513356465054" lon="8.571215990495796"><ele>365.0</ele><time>2026-04-04T09:43:24Z</time></trkpt><trkpt lat="39.556591642338155" lon="8.571242049233726"><ele>363.0</ele><time>2026-04-04T09:43:25Z</time></trkpt><trkpt lat="39.55665770832094" lon="8.571297699403376"><ele>361.0</ele><time>2026-04-04T09:43:26Z</time></trkpt><trkpt lat="39.55671314405327" lon="8.571371466867886"><ele>361.0</ele><time>2026-04-04T09:43:27Z</time></trkpt><trkpt lat="39.55677488356668" lon="8.57141442236822"><ele>361.0</ele><time>2026-04-04T09:43:28Z</time></trkpt><trkpt lat="39.556855676684926" lon="8.571427618607022"><ele>361.0</ele><time>2026-04-04T09:43:29Z</time></trkpt><trkpt lat="39.556939121150656" lon="8.571396493999938"><ele>361.0</ele><time>2026-04-04T09:43:30Z</time></trkpt><trkpt lat="39.55701011777962" lon="8.571333618207778"><ele>361.0</ele><time>2026-04-04T09:43:31Z</time></trkpt><trkpt lat="39.55706801442246" lon="8.571251968849452"><ele>361.0</ele><time>2026-04-04T09:43:32Z</time></trkpt><trkpt lat="39.55711227608079" lon="8.571159812067718"><ele>362.3333333333333</ele><time>2026-04-04T09:43:33Z</time></trkpt><trkpt lat="39.5571391054672" lon="8.571061858607354"><ele>363.66666666666663</ele><time>2026-04-04T09:43:34Z</time></trkpt><trkpt lat="39.55714797472559" lon="8.5709652378986"><ele>365.0</ele><time>2026-04-04T09:43:35Z</time></trkpt><trkpt lat="39.557147225697356" lon="8.570873938774103"><ele>366.3333333333333</ele><time>2026-04-04T09:43:36Z</time></trkpt><trkpt lat="39.55714036919841" lon="8.570789227310888"><ele>367.6666666666667</ele><time>2026-04-04T09:43:37Z</time></trkpt><trkpt lat="39.55713246445153" lon="8.570637734727079"><ele>369.0</ele><time>2026-04-04T09:43:39Z</time></trkpt><trkpt lat="39.55713285453352" lon="8.570524753120376"><ele>369.0</ele><time>2026-04-04T09:43:41Z</time></trkpt><trkpt lat="39.55712165169864" lon="8.570410622927579"><ele>369.0</ele><time>2026-04-04T09:43:44Z</time></trkpt><trkpt lat="39.55696782376232" lon="8.570378843395252"><ele>369.0</ele><time>2026-04-04T09:43:50Z</time></trkpt><trkpt lat="39.55689755734147" lon="8.570383269018846"><ele>369.0</ele><time>2026-04-04T09:43:54Z</time></trkpt><trkpt lat="39.556883997174864" lon="8.570541693100413"><ele>369.0</ele><time>2026-04-04T09:50:04Z</time></trkpt><trkpt lat="39.55682194528448" lon="8.570446223660783"><ele>369.0</ele><time>2026-04-04T09:56:32Z</time></trkpt><trkpt lat="39.556910508513184" lon="8.570412956326424"><ele>369.0</ele><time>2026-04-04T09:57:07Z</time></trkpt><trkpt lat="39.5569772928614" lon="8.57038858306192"><ele>369.0</ele><time>2026-04-04T09:57:09Z</time></trkpt><trkpt lat="39.557042572858606" lon="8.570373418812549"><ele>369.0</ele><time>2026-04-04T09:57:13Z</time></trkpt><trkpt lat="39.55712678458969" lon="8.570364833058088"><ele>369.0</ele><time>2026-04-04T09:57:32Z</time></trkpt><trkpt lat="39.557187846395465" lon="8.570286482397579"><ele>369.0</ele><time>2026-04-04T09:57:34Z</time></trkpt><trkpt lat="39.5572041866149" lon="8.57014711992646"><ele>370.1666666666667</ele><time>2026-04-04T09:57:36Z</time></trkpt><trkpt lat="39.55725456520825" lon="8.57000521503087"><ele>371.3333333333333</ele><time>2026-04-04T09:57:38Z</time></trkpt><trkpt lat="39.55727715991866" lon="8.569924779929988"><ele>372.5</ele><time>2026-04-04T09:57:39Z</time></trkpt><trkpt lat="39.55729952977532" lon="8.569838317002455"><ele>373.66666666666663</ele><time>2026-04-04T09:57:40Z</time></trkpt><trkpt lat="39.55732280619981" lon="8.569738232056418"><ele>374.8333333333333</ele><time>2026-04-04T09:57:41Z</time></trkpt><trkpt lat="39.55734055442042" lon="8.569629679909573"><ele>376.0</ele><time>2026-04-04T09:57:42Z</time></trkpt><trkpt lat="39.55735640644332" lon="8.569515852319922"><ele>376.0</ele><time>2026-04-04T09:57:43Z</time></trkpt><trkpt lat="39.55735264234918" lon="8.569397390132362"><ele>376.0</ele><time>2026-04-04T09:57:44Z</time></trkpt><trkpt lat="39.55736238788813" lon="8.569289153120398"><ele>376.0</ele><time>2026-04-04T09:57:45Z</time></trkpt><trkpt lat="39.557368119810164" lon="8.56918640162869"><ele>376.0</ele><time>2026-04-04T09:57:46Z</time></trkpt><trkpt lat="39.55737168062666" lon="8.569093777918003"><ele>376.0</ele><time>2026-04-04T09:57:47Z</time></trkpt><trkpt lat="39.55739943485614" lon="8.569011882071806"><ele>376.0</ele><time>2026-04-04T09:57:48Z</time></trkpt><trkpt lat="39.557411601199554" lon="8.568857173969098"><ele>376.0</ele><time>2026-04-04T09:57:50Z</time></trkpt><trkpt lat="39.55742137323336" lon="8.568712547906632"><ele>376.0</ele><time>2026-04-04T09:57:52Z</time></trkpt><trkpt lat="39.55744047695222" lon="8.568561380362178"><ele>376.0</ele><time>2026-04-04T09:57:54Z</time></trkpt><trkpt lat="39.557471725057674" lon="8.568401914692053"><ele>376.0</ele><time>2026-04-04T09:57:56Z</time></trkpt><trkpt lat="39.55749077894261" lon="8.56831866909657"><ele>376.0</ele><time>2026-04-04T09:57:57Z</time></trkpt><trkpt lat="39.55751089936635" lon="8.568232982447627"><ele>374.8333333333333</ele><time>2026-04-04T09:57:58Z</time></trkpt><trkpt lat="39.55753242948166" lon="8.568145769852794"><ele>373.66666666666663</ele><time>2026-04-04T09:57:59Z</time></trkpt><trkpt lat="39.55755614059349" lon="8.568051858541995"><ele>372.5</ele><time>2026-04-04T09:58:00Z</time></trkpt><trkpt lat="39.55758265352881" lon="8.567949655445972"><ele>371.3333333333333</ele><time>2026-04-04T09:58:01Z</time></trkpt><trkpt lat="39.55761111190105" lon="8.567839953025045"><ele>370.1666666666667</ele><time>2026-04-04T09:58:02Z</time></trkpt><trkpt lat="39.557644764655876" lon="8.567729619025572"><ele>369.0</ele><time>2026-04-04T09:58:03Z</time></trkpt><trkpt lat="39.55768418114663" lon="8.567618194702387"><ele>370.6</ele><time>2026-04-04T09:58:04Z</time></trkpt><trkpt lat="39.55773078980979" lon="8.56750892165813"><ele>372.2</ele><time>2026-04-04T09:58:05Z</time></trkpt><trkpt lat="39.55777100579721" lon="8.56739061458011"><ele>373.8</ele><time>2026-04-04T09:58:06Z</time></trkpt><trkpt lat="39.55783033095767" lon="8.567289107135538"><ele>375.40000000000003</ele><time>2026-04-04T09:58:07Z</time></trkpt><trkpt lat="39.55789927394875" lon="8.567211022091103"><ele>377.0</ele><time>2026-04-04T09:58:08Z</time></trkpt><trkpt lat="39.5579699398858" lon="8.56713093601192"><ele>377.0</ele><time>2026-04-04T09:58:09Z</time></trkpt><trkpt lat="39.55803701668289" lon="8.567034892726433"><ele>377.0</ele><time>2026-04-04T09:58:10Z</time></trkpt><trkpt lat="39.55811949175244" lon="8.56696072436302"><ele>377.0</ele><time>2026-04-04T09:58:11Z</time></trkpt><trkpt lat="39.55820170721809" lon="8.566879613965094"><ele>377.0</ele><time>2026-04-04T09:58:12Z</time></trkpt><trkpt lat="39.55828448684179" lon="8.566800101039748"><ele>377.0</ele><time>2026-04-04T09:58:13Z</time></trkpt><trkpt lat="39.55836610300886" lon="8.566721915557087"><ele>375.0</ele><time>2026-04-04T09:58:14Z</time></trkpt><trkpt lat="39.5584471425554" lon="8.566646498753958"><ele>373.0</ele><time>2026-04-04T09:58:15Z</time></trkpt><trkpt lat="39.55852685004324" lon="8.566573914263504"><ele>371.0</ele><time>2026-04-04T09:58:16Z</time></trkpt><trkpt lat="39.558606263673624" lon="8.566501625907327"><ele>369.0</ele><time>2026-04-04T09:58:17Z</time></trkpt><trkpt lat="39.55869346646343" lon="8.566437632670555"><ele>367.0</ele><time>2026-04-04T09:58:18Z</time></trkpt><trkpt lat="39.55878768837594" lon="8.566390783410768"><ele>367.0</ele><time>2026-04-04T09:58:19Z</time></trkpt><trkpt lat="39.55888638397458" lon="8.566365000987306"><ele>367.0</ele><time>2026-04-04T09:58:20Z</time></trkpt><trkpt lat="39.55898770607307" lon="8.566351922050417"><ele>367.0</ele><time>2026-04-04T09:58:21Z</time></trkpt><trkpt lat="39.55908984781302" lon="8.566332257025294"><ele>367.0</ele><time>2026-04-04T09:58:22Z</time></trkpt><trkpt lat="39.559190851969376" lon="8.566310409757625"><ele>367.0</ele><time>2026-04-04T09:58:23Z</time></trkpt><trkpt lat="39.5592892582512" lon="8.566277274642237"><ele>367.0</ele><time>2026-04-04T09:58:24Z</time></trkpt><trkpt lat="39.55938552780093" lon="8.566242540369995"><ele>367.0</ele><time>2026-04-04T09:58:25Z</time></trkpt><trkpt lat="39.559468858412124" lon="8.566203781037075"><ele>367.0</ele><time>2026-04-04T09:58:26Z</time></trkpt><trkpt lat="39.559532329011574" lon="8.566169397628919"><ele>367.0</ele><time>2026-04-04T09:58:27Z</time></trkpt><trkpt lat="39.559588097599345" lon="8.566131097678873"><ele>367.0</ele><time>2026-04-04T09:58:29Z</time></trkpt><trkpt lat="39.559663147018405" lon="8.566075536124774"><ele>367.0</ele><time>2026-04-04T09:58:49Z</time></trkpt><trkpt lat="39.55978078326169" lon="8.565978161226814"><ele>364.6</ele><time>2026-04-04T09:58:51Z</time></trkpt><trkpt lat="39.559845654084704" lon="8.565922480507899"><ele>362.20000000000005</ele><time>2026-04-04T09:58:52Z</time></trkpt><trkpt lat="39.55992357658227" lon="8.565848581156159"><ele>359.8</ele><time>2026-04-04T09:58:53Z</time></trkpt><trkpt lat="39.5600151665379" lon="8.565763362323622"><ele>357.4</ele><time>2026-04-04T09:58:54Z</time></trkpt><trkpt lat="39.560101252529336" lon="8.56567863937258"><ele>355.0</ele><time>2026-04-04T09:58:55Z</time></trkpt><trkpt lat="39.56019443805788" lon="8.565585011560254"><ele>355.0</ele><time>2026-04-04T09:58:56Z</time></trkpt><trkpt lat="39.56029105979493" lon="8.565484517689747"><ele>355.0</ele><time>2026-04-04T09:58:57Z</time></trkpt><trkpt lat="39.56038557867619" lon="8.565367657900918"><ele>355.0</ele><time>2026-04-04T09:58:58Z</time></trkpt><trkpt lat="39.56047897513003" lon="8.565240824894403"><ele>355.0</ele><time>2026-04-04T09:58:59Z</time></trkpt><trkpt lat="39.5605660684651" lon="8.565102521358693"><ele>354.25</ele><time>2026-04-04T09:59:00Z</time></trkpt><trkpt lat="39.56065492450588" lon="8.56496522143751"><ele>353.5</ele><time>2026-04-04T09:59:01Z</time></trkpt><trkpt lat="39.56074652848448" lon="8.564836599392844"><ele>352.75</ele><time>2026-04-04T09:59:02Z</time></trkpt><trkpt lat="39.56084135806952" lon="8.564720751437598"><ele>352.0</ele><time>2026-04-04T09:59:03Z</time></trkpt><trkpt lat="39.5609370762396" lon="8.564615201688603"><ele>351.6</ele><time>2026-04-04T09:59:04Z</time></trkpt><trkpt lat="39.5610310081182" lon="8.564519513178482"><ele>351.20000000000005</ele><time>2026-04-04T09:59:05Z</time></trkpt><trkpt lat="39.56112190713878" lon="8.564434120602538"><ele>350.8</ele><time>2026-04-04T09:59:06Z</time></trkpt><trkpt lat="39.56121568328858" lon="8.564359699039889"><ele>350.4</ele><time>2026-04-04T09:59:07Z</time></trkpt><trkpt lat="39.561304586304246" lon="8.56429312253679"><ele>350.0</ele><time>2026-04-04T09:59:08Z</time></trkpt><trkpt lat="39.56138105244437" lon="8.564229009833758"><ele>350.0</ele><time>2026-04-04T09:59:09Z</time></trkpt><trkpt lat="39.5614413679412" lon="8.564178465398019"><ele>350.0</ele><time>2026-04-04T09:59:10Z</time></trkpt><trkpt lat="39.561519150866104" lon="8.564112748612699"><ele>350.0</ele><time>2026-04-04T09:59:12Z</time></trkpt><trkpt lat="39.56159127237687" lon="8.564032906691505"><ele>350.0</ele><time>2026-04-04T09:59:14Z</time></trkpt><trkpt lat="39.56165921630339" lon="8.563932899755411"><ele>350.0</ele><time>2026-04-04T09:59:16Z</time></trkpt><trkpt lat="39.56170176706593" lon="8.563843858790003"><ele>350.0</ele><time>2026-04-04T09:59:18Z</time></trkpt><trkpt lat="39.561720930937696" lon="8.563754309859196"><ele>350.0</ele><time>2026-04-04T09:59:21Z</time></trkpt><trkpt lat="39.561723328221795" lon="8.563667578557682"><ele>350.0</ele><time>2026-04-04T09:59:25Z</time></trkpt><trkpt lat="39.5617104178203" lon="8.563767980613699"><ele>350.0</ele><time>2026-04-04T09:59:31Z</time></trkpt><trkpt lat="39.56167325882647" lon="8.563884571515768"><ele>350.0</ele><time>2026-04-04T09:59:34Z</time></trkpt><trkpt lat="39.56152445826572" lon="8.563782823829364"><ele>350.0</ele><time>2026-04-04T09:59:35Z</time></trkpt><trkpt lat="39.56147186152993" lon="8.563843280640478"><ele>350.0</ele><time>2026-04-04T09:59:36Z</time></trkpt><trkpt lat="39.56140790559254" lon="8.563894938062674"><ele>350.0</ele><time>2026-04-04T09:59:37Z</time></trkpt><trkpt lat="39.56134198431897" lon="8.563909549798076"><ele>350.0</ele><time>2026-04-04T09:59:38Z</time></trkpt><trkpt lat="39.561260255010225" lon="8.56396272252452"><ele>350.0</ele><time>2026-04-04T09:59:39Z</time></trkpt><trkpt lat="39.56121769027044" lon="8.563879921985142"><ele>350.0</ele><time>2026-04-04T09:59:40Z</time></trkpt><trkpt lat="39.561276623513784" lon="8.563783833561398"><ele>350.0</ele><time>2026-04-04T09:59:41Z</time></trkpt><trkpt lat="39.56119961151595" lon="8.563784662318803"><ele>351.0</ele><time>2026-04-04T09:59:42Z</time></trkpt><trkpt lat="39.5611350725216" lon="8.563790961130724"><ele>352.0</ele><time>2026-04-04T09:59:43Z</time></trkpt><trkpt lat="39.560908570616974" lon="8.56462349198067"><ele>352.0</ele><time>2026-04-04T09:59:44Z</time></trkpt><trkpt lat="39.56080164798652" lon="8.564756378029383"><ele>352.0</ele><time>2026-04-04T09:59:45Z</time></trkpt><trkpt lat="39.56068877775736" lon="8.564912387133468"><ele>352.0</ele><time>2026-04-04T09:59:46Z</time></trkpt><trkpt lat="39.56057726096791" lon="8.565079751534475"><ele>352.0</ele><time>2026-04-04T09:59:47Z</time></trkpt><trkpt lat="39.56047399955259" lon="8.565241475608003"><ele>352.0</ele><time>2026-04-04T09:59:48Z</time></trkpt><trkpt lat="39.5603726447991" lon="8.5653898948556"><ele>352.0</ele><time>2026-04-04T09:59:49Z</time></trkpt><trkpt lat="39.56026379276322" lon="8.565519347271643"><ele>352.75</ele><time>2026-04-04T09:59:50Z</time></trkpt><trkpt lat="39.560148803686204" lon="8.565634943680076"><ele>353.5</ele><time>2026-04-04T09:59:51Z</time></trkpt><trkpt lat="39.5600148950076" lon="8.565723023490962"><ele>354.25</ele><time>2026-04-04T09:59:52Z</time></trkpt><trkpt lat="39.5598981834463" lon="8.56583441526162"><ele>355.0</ele><time>2026-04-04T09:59:53Z</time></trkpt><trkpt lat="39.559790698090495" lon="8.565961998867179"><ele>355.0</ele><time>2026-04-04T09:59:54Z</time></trkpt><trkpt lat="39.55965727369981" lon="8.566039869509158"><ele>355.0</ele><time>2026-04-04T09:59:55Z</time></trkpt><trkpt lat="39.559530167004" lon="8.56612646998335"><ele>355.0</ele><time>2026-04-04T09:59:56Z</time></trkpt><trkpt lat="39.559402315300005" lon="8.566199228611206"><ele>355.0</ele><time>2026-04-04T09:59:57Z</time></trkpt><trkpt lat="39.559267926244274" lon="8.566248856357586"><ele>358.0</ele><time>2026-04-04T09:59:58Z</time></trkpt><trkpt lat="39.55913451383404" lon="8.56628368433248"><ele>361.0</ele><time>2026-04-04T09:59:59Z</time></trkpt><trkpt lat="39.55899669899649" lon="8.566327910539242"><ele>364.0</ele><time>2026-04-04T10:00:00Z</time></trkpt><trkpt lat="39.55885934734489" lon="8.566357023456085"><ele>367.0</ele><time>2026-04-04T10:00:01Z</time></trkpt><trkpt lat="39.55873844998492" lon="8.566379771606337"><ele>366.5</ele><time>2026-04-04T10:00:02Z</time></trkpt><trkpt lat="39.55862857667132" lon="8.566443957031142"><ele>366.0</ele><time>2026-04-04T10:00:03Z</time></trkpt><trkpt lat="39.558526308299086" lon="8.566539497283511"><ele>365.5</ele><time>2026-04-04T10:00:04Z</time></trkpt><trkpt lat="39.5584270147982" lon="8.566630761328494"><ele>365.0</ele><time>2026-04-04T10:00:05Z</time></trkpt><trkpt lat="39.558325067798386" lon="8.566728215639253"><ele>365.0</ele><time>2026-04-04T10:00:06Z</time></trkpt><trkpt lat="39.55822095688915" lon="8.566830288499284"><ele>365.0</ele><time>2026-04-04T10:00:07Z</time></trkpt><trkpt lat="39.55811465718759" lon="8.566932264250097"><ele>365.0</ele><time>2026-04-04T10:00:08Z</time></trkpt><trkpt lat="39.55800565900161" lon="8.567026818227495"><ele>365.0</ele><time>2026-04-04T10:00:09Z</time></trkpt><trkpt lat="39.55790637619131" lon="8.567124157770161"><ele>363.25</ele><time>2026-04-04T10:00:10Z</time></trkpt><trkpt lat="39.55782202909945" lon="8.56724069072233"><ele>361.5</ele><time>2026-04-04T10:00:11Z</time></trkpt><trkpt lat="39.55775339771207" lon="8.56738311479225"><ele>359.75</ele><time>2026-04-04T10:00:12Z</time></trkpt><trkpt lat="39.55768734617665" lon="8.567517101861728"><ele>358.0</ele><time>2026-04-04T10:00:13Z</time></trkpt><trkpt lat="39.557630159124564" lon="8.567665510156154"><ele>358.0</ele><time>2026-04-04T10:00:14Z</time></trkpt><trkpt lat="39.55758156471411" lon="8.567824018317783"><ele>358.0</ele><time>2026-04-04T10:00:15Z</time></trkpt><trkpt lat="39.5575414065404" lon="8.567983946466098"><ele>358.0</ele><time>2026-04-04T10:00:16Z</time></trkpt><trkpt lat="39.5574972791485" lon="8.568163902256947"><ele>358.0</ele><time>2026-04-04T10:00:17Z</time></trkpt><trkpt lat="39.557446430789106" lon="8.568336978093956"><ele>360.75</ele><time>2026-04-04T10:00:18Z</time></trkpt><trkpt lat="39.557410069894544" lon="8.568515278202108"><ele>363.5</ele><time>2026-04-04T10:00:19Z</time></trkpt><trkpt lat="39.55738530705767" lon="8.568699200618973"><ele>366.25</ele><time>2026-04-04T10:00:20Z</time></trkpt><trkpt lat="39.55737049951614" lon="8.568880120082506"><ele>369.0</ele><time>2026-04-04T10:00:21Z</time></trkpt><trkpt lat="39.55735790673417" lon="8.56905784560511"><ele>370.75</ele><time>2026-04-04T10:00:22Z</time></trkpt><trkpt lat="39.5573459128409" lon="8.569227844431772"><ele>372.5</ele><time>2026-04-04T10:00:23Z</time></trkpt><trkpt lat="39.55733175782439" lon="8.569386916894072"><ele>374.25</ele><time>2026-04-04T10:00:24Z</time></trkpt><trkpt lat="39.55731430045946" lon="8.569532013277497"><ele>376.0</ele><time>2026-04-04T10:00:25Z</time></trkpt><trkpt lat="39.557293162132815" lon="8.56966362507789"><ele>376.0</ele><time>2026-04-04T10:00:26Z</time></trkpt><trkpt lat="39.55727322882219" lon="8.569783705572032"><ele>376.0</ele><time>2026-04-04T10:00:27Z</time></trkpt><trkpt lat="39.55725003319581" lon="8.569890882061499"><ele>376.0</ele><time>2026-04-04T10:00:28Z</time></trkpt><trkpt lat="39.55721618631625" lon="8.569981969952451"><ele>376.0</ele><time>2026-04-04T10:00:29Z</time></trkpt><trkpt lat="39.55717598610518" lon="8.570058434560293"><ele>376.0</ele><time>2026-04-04T10:00:30Z</time></trkpt><trkpt lat="39.55712699728926" lon="8.570114321686297"><ele>376.0</ele><time>2026-04-04T10:00:31Z</time></trkpt><trkpt lat="39.55701407932079" lon="8.570138862265072"><ele>375.4</ele><time>2026-04-04T10:00:33Z</time></trkpt><trkpt lat="39.55694325336163" lon="8.570112335954558"><ele>374.8</ele><time>2026-04-04T10:00:34Z</time></trkpt><trkpt lat="39.556896264340956" lon="8.570026494867532"><ele>374.2</ele><time>2026-04-04T10:00:35Z</time></trkpt><trkpt lat="39.55682943327096" lon="8.569941427823528"><ele>373.59999999999997</ele><time>2026-04-04T10:00:36Z</time></trkpt><trkpt lat="39.556753855129074" lon="8.569843380531307"><ele>373.0</ele><time>2026-04-04T10:00:37Z</time></trkpt><trkpt lat="39.55668495055942" lon="8.569725945180712"><ele>373.0</ele><time>2026-04-04T10:00:38Z</time></trkpt><trkpt lat="39.55661538346471" lon="8.569594259242038"><ele>373.0</ele><time>2026-04-04T10:00:39Z</time></trkpt><trkpt lat="39.556573063550374" lon="8.56949678480015"><ele>373.0</ele><time>2026-04-04T10:00:40Z</time></trkpt><trkpt lat="39.55646976430435" lon="8.56939143221592"><ele>373.0</ele><time>2026-04-04T10:00:41Z</time></trkpt><trkpt lat="39.55640259304488" lon="8.56925915539823"><ele>373.4</ele><time>2026-04-04T10:00:42Z</time></trkpt><trkpt lat="39.556345967367584" lon="8.569133146211776"><ele>373.79999999999995</ele><time>2026-04-04T10:00:43Z</time></trkpt><trkpt lat="39.55629221625525" lon="8.569011113636458"><ele>374.2</ele><time>2026-04-04T10:00:44Z</time></trkpt><trkpt lat="39.55623833577" lon="8.568889945519754"><ele>374.6</ele><time>2026-04-04T10:00:45Z</time></trkpt><trkpt lat="39.55618455414859" lon="8.568792862862022"><ele>375.0</ele><time>2026-04-04T10:00:46Z</time></trkpt><trkpt lat="39.556112287356676" lon="8.56873496492936"><ele>375.0</ele><time>2026-04-04T10:00:47Z</time></trkpt><trkpt lat="39.55602770767375" lon="8.568734661012828"><ele>375.0</ele><time>2026-04-04T10:00:48Z</time></trkpt><trkpt lat="39.555943301954116" lon="8.568743879590906"><ele>375.0</ele><time>2026-04-04T10:00:49Z</time></trkpt><trkpt lat="39.555860488798885" lon="8.568814727036466"><ele>375.0</ele><time>2026-04-04T10:00:50Z</time></trkpt><trkpt lat="39.55581967759854" lon="8.568973395674384"><ele>375.0</ele><time>2026-04-04T10:00:51Z</time></trkpt><trkpt lat="39.555791102383736" lon="8.569120115452591"><ele>375.0</ele><time>2026-04-04T10:00:52Z</time></trkpt><trkpt lat="39.55577187091508" lon="8.569261491451016"><ele>375.0</ele><time>2026-04-04T10:00:53Z</time></trkpt><trkpt lat="39.55572982974245" lon="8.569375383035768"><ele>375.0</ele><time>2026-04-04T10:00:54Z</time></trkpt><trkpt lat="39.55569958084622" lon="8.569495472652813"><ele>375.0</ele><time>2026-04-04T10:00:55Z</time></trkpt><trkpt lat="39.555615612039084" lon="8.56955693116682"><ele>375.0</ele><time>2026-04-04T10:00:56Z</time></trkpt><trkpt lat="39.55555001885398" lon="8.569626628998185"><ele>374.8</ele><time>2026-04-04T10:00:57Z</time></trkpt><trkpt lat="39.55549155940283" lon="8.569682447075996"><ele>374.6</ele><time>2026-04-04T10:00:58Z</time></trkpt><trkpt lat="39.55540867784875" lon="8.569757053415302"><ele>374.4</ele><time>2026-04-04T10:01:00Z</time></trkpt><trkpt lat="39.5553443294243" lon="8.56970696374181"><ele>374.2</ele><time>2026-04-04T10:01:45Z</time></trkpt><trkpt lat="39.55525539766239" lon="8.569553516034906"><ele>374.0</ele><time>2026-04-04T10:01:47Z</time></trkpt><trkpt lat="39.55519662903551" lon="8.569466980113708"><ele>374.0</ele><time>2026-04-04T10:01:48Z</time></trkpt><trkpt lat="39.55513948632171" lon="8.569384299321452"><ele>374.0</ele><time>2026-04-04T10:01:49Z</time></trkpt><trkpt lat="39.5550882309101" lon="8.569310107459465"><ele>374.0</ele><time>2026-04-04T10:01:50Z</time></trkpt><trkpt lat="39.55504361908398" lon="8.569245391405271"><ele>374.0</ele><time>2026-04-04T10:01:51Z</time></trkpt><trkpt lat="39.55500109844031" lon="8.569183708918372"><ele>374.0</ele><time>2026-04-04T10:01:52Z</time></trkpt><trkpt lat="39.55492452261468" lon="8.569072624327958"><ele>374.0</ele><time>2026-04-04T10:01:54Z</time></trkpt><trkpt lat="39.55483887406943" lon="8.568976278614556"><ele>374.0</ele><time>2026-04-04T10:01:56Z</time></trkpt><trkpt lat="39.55480801420715" lon="8.568901256226763"><ele>374.0</ele><time>2026-04-04T10:01:57Z</time></trkpt><trkpt lat="39.55472468821804" lon="8.56877500012975"><ele>374.0</ele><time>2026-04-04T10:01:59Z</time></trkpt><trkpt lat="39.55468118792278" lon="8.568707074313846"><ele>374.0</ele><time>2026-04-04T10:02:00Z</time></trkpt><trkpt lat="39.554636881844786" lon="8.568637890265716"><ele>374.0</ele><time>2026-04-04T10:02:01Z</time></trkpt><trkpt lat="39.55459567430049" lon="8.568572117698256"><ele>374.0</ele><time>2026-04-04T10:02:02Z</time></trkpt><trkpt lat="39.55450656257047" lon="8.568447361686063"><ele>373.83333333333337</ele><time>2026-04-04T10:02:04Z</time></trkpt><trkpt lat="39.55447120174315" lon="8.568367553343323"><ele>373.6666666666667</ele><time>2026-04-04T10:02:05Z</time></trkpt><trkpt lat="39.55444576431092" lon="8.568283536847327"><ele>373.5</ele><time>2026-04-04T10:02:06Z</time></trkpt><trkpt lat="39.55443268432648" lon="8.56820126765627"><ele>373.3333333333333</ele><time>2026-04-04T10:02:07Z</time></trkpt><trkpt lat="39.55442837064652" lon="8.568046053770502"><ele>373.16666666666663</ele><time>2026-04-04T10:02:09Z</time></trkpt><trkpt lat="39.55444518211357" lon="8.567926841087363"><ele>373.0</ele><time>2026-04-04T10:02:11Z</time></trkpt><trkpt lat="39.55446493004844" lon="8.56783632660273"><ele>372.8333333333333</ele><time>2026-04-04T10:02:14Z</time></trkpt><trkpt lat="39.55448662062783" lon="8.567734978941496"><ele>372.66666666666663</ele><time>2026-04-04T10:02:32Z</time></trkpt><trkpt lat="39.554513147731654" lon="8.567654623699205"><ele>372.5</ele><time>2026-04-04T10:02:35Z</time></trkpt><trkpt lat="39.55454768479922" lon="8.567525651333831"><ele>372.3333333333333</ele><time>2026-04-04T10:02:42Z</time></trkpt><trkpt lat="39.554578089840525" lon="8.567415847944728"><ele>372.1666666666667</ele><time>2026-04-04T10:02:44Z</time></trkpt><trkpt lat="39.554591348082376" lon="8.5673085106472"><ele>372.0</ele><time>2026-04-04T10:02:46Z</time></trkpt><trkpt lat="39.55459172206638" lon="8.567210087408682"><ele>368.8333333333333</ele><time>2026-04-04T10:02:48Z</time></trkpt><trkpt lat="39.554592232153645" lon="8.567107974738486"><ele>365.6666666666667</ele><time>2026-04-04T10:02:51Z</time></trkpt><trkpt lat="39.55458819363178" lon="8.56700127094036"><ele>362.5</ele><time>2026-04-04T10:02:55Z</time></trkpt><trkpt lat="39.55456596751868" lon="8.566905321907873"><ele>359.33333333333337</ele><time>2026-04-04T10:02:58Z</time></trkpt><trkpt lat="39.554553848272754" lon="8.56680487657686"><ele>356.1666666666667</ele><time>2026-04-04T10:03:01Z</time></trkpt><trkpt lat="39.55454523796752" lon="8.566710465140465"><ele>353.0</ele><time>2026-04-04T10:03:05Z</time></trkpt><trkpt lat="39.554540948987835" lon="8.566796796398425"><ele>353.0</ele><time>2026-04-04T10:04:50Z</time></trkpt><trkpt lat="39.55456352780023" lon="8.566876266460905"><ele>353.0</ele><time>2026-04-04T10:04:51Z</time></trkpt><trkpt lat="39.554578764290085" lon="8.566965838018845"><ele>353.0</ele><time>2026-04-04T10:04:52Z</time></trkpt><trkpt lat="39.55458651798822" lon="8.56706108202846"><ele>353.0</ele><time>2026-04-04T10:04:53Z</time></trkpt><trkpt lat="39.55455909681548" lon="8.567179194303332"><ele>353.0</ele><time>2026-04-04T10:04:54Z</time></trkpt><trkpt lat="39.55455558827014" lon="8.567323673748938"><ele>353.0</ele><time>2026-04-04T10:04:55Z</time></trkpt><trkpt lat="39.55453660494645" lon="8.567446665520682"><ele>356.1666666666667</ele><time>2026-04-04T10:04:56Z</time></trkpt><trkpt lat="39.554514405784616" lon="8.567544677820313"><ele>359.33333333333337</ele><time>2026-04-04T10:04:57Z</time></trkpt><trkpt lat="39.554492872813874" lon="8.56763655325639"><ele>362.5</ele><time>2026-04-04T10:04:58Z</time></trkpt><trkpt lat="39.55447144441363" lon="8.567725027938632"><ele>365.6666666666667</ele><time>2026-04-04T10:04:59Z</time></trkpt><trkpt lat="39.554447688277676" lon="8.567816768258657"><ele>368.8333333333333</ele><time>2026-04-04T10:05:00Z</time></trkpt><trkpt lat="39.55442807673327" lon="8.567896484091511"><ele>372.0</ele><time>2026-04-04T10:05:01Z</time></trkpt><trkpt lat="39.554420460467114" lon="8.568026207200363"><ele>372.1666666666667</ele><time>2026-04-04T10:05:03Z</time></trkpt><trkpt lat="39.554402845865475" lon="8.568186244150322"><ele>372.3333333333333</ele><time>2026-04-04T10:05:05Z</time></trkpt><trkpt lat="39.55440788237924" lon="8.568282755819041"><ele>372.5</ele><time>2026-04-04T10:05:06Z</time></trkpt><trkpt lat="39.55443523729912" lon="8.56837992033606"><ele>372.66666666666663</ele><time>2026-04-04T10:05:07Z</time></trkpt><trkpt lat="39.55447490885882" lon="8.568469904387571"><ele>372.8333333333333</ele><time>2026-04-04T10:05:08Z</time></trkpt><trkpt lat="39.5545268803789" lon="8.568554433831387"><ele>373.0</ele><time>2026-04-04T10:05:09Z</time></trkpt><trkpt lat="39.55458005635572" lon="8.568639904160221"><ele>373.2</ele><time>2026-04-04T10:05:10Z</time></trkpt><trkpt lat="39.55464013023643" lon="8.568727208669252"><ele>373.4</ele><time>2026-04-04T10:05:11Z</time></trkpt><trkpt lat="39.55470235966659" lon="8.568816231122764"><ele>373.59999999999997</ele><time>2026-04-04T10:05:12Z</time></trkpt><trkpt lat="39.55476456341897" lon="8.568905355865882"><ele>373.79999999999995</ele><time>2026-04-04T10:05:13Z</time></trkpt><trkpt lat="39.554828055699474" lon="8.568992375026117"><ele>374.0</ele><time>2026-04-04T10:05:14Z</time></trkpt><trkpt lat="39.554890178297356" lon="8.569077340236392"><ele>374.0</ele><time>2026-04-04T10:05:15Z</time></trkpt><trkpt lat="39.55494677756612" lon="8.569160432781876"><ele>374.0</ele><time>2026-04-04T10:05:16Z</time></trkpt><trkpt lat="39.55499615344343" lon="8.569239492092496"><ele>374.0</ele><time>2026-04-04T10:05:17Z</time></trkpt><trkpt lat="39.555046769528154" lon="8.569310700499882"><ele>374.0</ele><time>2026-04-04T10:05:18Z</time></trkpt><trkpt lat="39.55508746904092" lon="8.569374441647083"><ele>374.0</ele><time>2026-04-04T10:05:19Z</time></trkpt><trkpt lat="39.555162890938725" lon="8.569494810898158"><ele>374.0</ele><time>2026-04-04T10:05:21Z</time></trkpt><trkpt lat="39.55523712365361" lon="8.569616237742226"><ele>374.0</ele><time>2026-04-04T10:05:23Z</time></trkpt><trkpt lat="39.555311201525036" lon="8.569733924905146"><ele>374.0</ele><time>2026-04-04T10:05:25Z</time></trkpt><trkpt lat="39.55538965082995" lon="8.569818049872591"><ele>374.0</ele><time>2026-04-04T10:05:27Z</time></trkpt><trkpt lat="39.5554870810768" lon="8.569751900793795"><ele>374.0</ele><time>2026-04-04T10:05:28Z</time></trkpt><trkpt lat="39.55554501773669" lon="8.569699660109166"><ele>374.0</ele><time>2026-04-04T10:05:29Z</time></trkpt><trkpt lat="39.55560022190715" lon="8.569642344048876"><ele>374.0</ele><time>2026-04-04T10:05:30Z</time></trkpt><trkpt lat="39.55565367966179" lon="8.569574621190426"><ele>374.0</ele><time>2026-04-04T10:05:31Z</time></trkpt><trkpt lat="39.555709384889006" lon="8.569501207001796"><ele>374.0</ele><time>2026-04-04T10:05:32Z</time></trkpt><trkpt lat="39.55574913850924" lon="8.569410289344818"><ele>374.0</ele><time>2026-04-04T10:05:33Z</time></trkpt><trkpt lat="39.55578412464812" lon="8.56931295794017"><ele>374.0</ele><time>2026-04-04T10:05:34Z</time></trkpt><trkpt lat="39.555808264905124" lon="8.569216060154524"><ele>374.0</ele><time>2026-04-04T10:05:35Z</time></trkpt><trkpt lat="39.55583317154599" lon="8.569118686750988"><ele>374.1428571428571</ele><time>2026-04-04T10:05:36Z</time></trkpt><trkpt lat="39.5558548604521" lon="8.56902977368054"><ele>374.28571428571433</ele><time>2026-04-04T10:05:37Z</time></trkpt><trkpt lat="39.555885446441124" lon="8.56895382782494"><ele>374.42857142857144</ele><time>2026-04-04T10:05:38Z</time></trkpt><trkpt lat="39.55593033428992" lon="8.568877872831685"><ele>374.57142857142856</ele><time>2026-04-04T10:05:39Z</time></trkpt><trkpt lat="39.555979979014296" lon="8.56880713321806"><ele>374.71428571428567</ele><time>2026-04-04T10:05:40Z</time></trkpt><trkpt lat="39.55605673472404" lon="8.568778155387566"><ele>374.8571428571429</ele><time>2026-04-04T10:05:41Z</time></trkpt><trkpt lat="39.556131541962074" lon="8.568819998838052"><ele>375.0</ele><time>2026-04-04T10:05:42Z</time></trkpt><trkpt lat="39.556193832360485" lon="8.568859570491007"><ele>374.1666666666667</ele><time>2026-04-04T10:05:43Z</time></trkpt><trkpt lat="39.55624737068441" lon="8.568933157972005"><ele>373.3333333333333</ele><time>2026-04-04T10:05:44Z</time></trkpt><trkpt lat="39.55629136567279" lon="8.569015882692929"><ele>372.5</ele><time>2026-04-04T10:05:45Z</time></trkpt><trkpt lat="39.556335030325414" lon="8.569108140007673"><ele>371.66666666666663</ele><time>2026-04-04T10:05:46Z</time></trkpt><trkpt lat="39.55637682050247" lon="8.569204144465415"><ele>370.8333333333333</ele><time>2026-04-04T10:05:47Z</time></trkpt><trkpt lat="39.556421918141446" lon="8.569299163827909"><ele>370.0</ele><time>2026-04-04T10:05:48Z</time></trkpt><trkpt lat="39.556471959740165" lon="8.569394617800851"><ele>370.0</ele><time>2026-04-04T10:05:49Z</time></trkpt><trkpt lat="39.55652153273858" lon="8.569485415760742"><ele>370.0</ele><time>2026-04-04T10:05:50Z</time></trkpt><trkpt lat="39.55657435322074" lon="8.569573591772544"><ele>370.0</ele><time>2026-04-04T10:05:51Z</time></trkpt><trkpt lat="39.5566247482668" lon="8.569661781297748"><ele>370.0</ele><time>2026-04-04T10:05:52Z</time></trkpt><trkpt lat="39.556665505064586" lon="8.569746942319098"><ele>370.0</ele><time>2026-04-04T10:05:53Z</time></trkpt><trkpt lat="39.55670844963714" lon="8.569831361729028"><ele>370.0</ele><time>2026-04-04T10:05:54Z</time></trkpt><trkpt lat="39.556755249196875" lon="8.569909374062805"><ele>369.85714285714283</ele><time>2026-04-04T10:05:55Z</time></trkpt><trkpt lat="39.55680532259246" lon="8.569982614775551"><ele>369.7142857142857</ele><time>2026-04-04T10:05:56Z</time></trkpt><trkpt lat="39.55685743596048" lon="8.570050097527307"><ele>369.57142857142856</ele><time>2026-04-04T10:05:57Z</time></trkpt><trkpt lat="39.55691273281041" lon="8.570112065462725"><ele>369.42857142857144</ele><time>2026-04-04T10:05:58Z</time></trkpt><trkpt lat="39.55696369716116" lon="8.570176095807435"><ele>369.2857142857143</ele><time>2026-04-04T10:05:59Z</time></trkpt><trkpt lat="39.557008896971496" lon="8.570242711562335"><ele>369.1428571428571</ele><time>2026-04-04T10:06:00Z</time></trkpt><trkpt lat="39.55705029046004" lon="8.570306242018495"><ele>369.0</ele><time>2026-04-04T10:06:01Z</time></trkpt><trkpt lat="39.55708508346334" lon="8.57038994797334"><ele>370.4</ele><time>2026-04-04T10:06:03Z</time></trkpt><trkpt lat="39.55722210412689" lon="8.570257461286571"><ele>371.79999999999995</ele><time>2026-04-04T10:06:05Z</time></trkpt><trkpt lat="39.557229452056696" lon="8.570168719322032"><ele>373.20000000000005</ele><time>2026-04-04T10:06:06Z</time></trkpt><trkpt lat="39.557232615783605" lon="8.570063703222871"><ele>374.6</ele><time>2026-04-04T10:06:07Z</time></trkpt><trkpt lat="39.557257647668656" lon="8.569943450564082"><ele>376.0</ele><time>2026-04-04T10:06:08Z</time></trkpt><trkpt lat="39.557292470239325" lon="8.56981517656423"><ele>376.0</ele><time>2026-04-04T10:06:09Z</time></trkpt><trkpt lat="39.55732137944235" lon="8.569688314426402"><ele>376.0</ele><time>2026-04-04T10:06:10Z</time></trkpt><trkpt lat="39.55734844928451" lon="8.56954998084951"><ele>376.0</ele><time>2026-04-04T10:06:11Z</time></trkpt><trkpt lat="39.55736603687717" lon="8.56940307473374"><ele>376.0</ele><time>2026-04-04T10:06:12Z</time></trkpt><trkpt lat="39.557377983196616" lon="8.569243674662228"><ele>376.0</ele><time>2026-04-04T10:06:13Z</time></trkpt><trkpt lat="39.557383125119465" lon="8.569087279529246"><ele>376.0</ele><time>2026-04-04T10:06:14Z</time></trkpt><trkpt lat="39.55739273696292" lon="8.568927622054115"><ele>376.0</ele><time>2026-04-04T10:06:15Z</time></trkpt><trkpt lat="39.55740519508449" lon="8.568770823367373"><ele>376.0</ele><time>2026-04-04T10:06:16Z</time></trkpt><trkpt lat="39.557426496524194" lon="8.568614408592474"><ele>374.25</ele><time>2026-04-04T10:06:17Z</time></trkpt><trkpt lat="39.55745498746865" lon="8.568456954812806"><ele>372.5</ele><time>2026-04-04T10:06:18Z</time></trkpt><trkpt lat="39.55748713921475" lon="8.568298126290479"><ele>370.75</ele><time>2026-04-04T10:06:19Z</time></trkpt><trkpt lat="39.55752114029039" lon="8.568136115842366"><ele>369.0</ele><time>2026-04-04T10:06:20Z</time></trkpt><trkpt lat="39.55756117055687" lon="8.567974915766381"><ele>366.25</ele><time>2026-04-04T10:06:21Z</time></trkpt><trkpt lat="39.55760535570998" lon="8.567810607842599"><ele>363.5</ele><time>2026-04-04T10:06:22Z</time></trkpt><trkpt lat="39.5576590121767" lon="8.567645179654123"><ele>360.75</ele><time>2026-04-04T10:06:23Z</time></trkpt><trkpt lat="39.55772544988522" lon="8.567487080726753"><ele>358.0</ele><time>2026-04-04T10:06:24Z</time></trkpt><trkpt lat="39.557806598789256" lon="8.567336766341505"><ele>360.3333333333333</ele><time>2026-04-04T10:06:25Z</time></trkpt><trkpt lat="39.557890419046736" lon="8.567206245594358"><ele>362.6666666666667</ele><time>2026-04-04T10:06:26Z</time></trkpt><trkpt lat="39.55799552462275" lon="8.567090009369466"><ele>365.0</ele><time>2026-04-04T10:06:27Z</time></trkpt><trkpt lat="39.558221218455316" lon="8.566883536782075"><ele>365.0</ele><time>2026-04-04T10:06:29Z</time></trkpt><trkpt lat="39.558324718042236" lon="8.566777394189526"><ele>365.0</ele><time>2026-04-04T10:06:30Z</time></trkpt><trkpt lat="39.55842014023402" lon="8.56668360870735"><ele>365.0</ele><time>2026-04-04T10:06:31Z</time></trkpt><trkpt lat="39.55851951953126" lon="8.566600806772302"><ele>365.0</ele><time>2026-04-04T10:06:32Z</time></trkpt><trkpt lat="39.55861433071236" lon="8.56651382487844"><ele>365.5</ele><time>2026-04-04T10:06:33Z</time></trkpt><trkpt lat="39.55871478983697" lon="8.566437574682586"><ele>366.0</ele><time>2026-04-04T10:06:34Z</time></trkpt><trkpt lat="39.558830060287995" lon="8.566387183403585"><ele>366.5</ele><time>2026-04-04T10:06:35Z</time></trkpt><trkpt lat="39.55895806670196" lon="8.566365462138567"><ele>367.0</ele><time>2026-04-04T10:06:36Z</time></trkpt><trkpt lat="39.55908711560837" lon="8.566346997457567"><ele>367.0</ele><time>2026-04-04T10:06:37Z</time></trkpt><trkpt lat="39.55921777138354" lon="8.566319011765195"><ele>367.0</ele><time>2026-04-04T10:06:38Z</time></trkpt><trkpt lat="39.55933942756537" lon="8.566280238323571"><ele>367.0</ele><time>2026-04-04T10:06:39Z</time></trkpt><trkpt lat="39.55945475132221" lon="8.566228824656068"><ele>367.0</ele><time>2026-04-04T10:06:40Z</time></trkpt><trkpt lat="39.55956571850936" lon="8.566161203132486"><ele>364.0</ele><time>2026-04-04T10:06:41Z</time></trkpt><trkpt lat="39.559678715800004" lon="8.566076368885273"><ele>361.0</ele><time>2026-04-04T10:06:42Z</time></trkpt><trkpt lat="39.55979086829067" lon="8.565983264945702"><ele>358.0</ele><time>2026-04-04T10:06:43Z</time></trkpt><trkpt lat="39.55989773747344" lon="8.565884359548486"><ele>355.0</ele><time>2026-04-04T10:06:44Z</time></trkpt><trkpt lat="39.56000170684154" lon="8.565784105275835"><ele>355.0</ele><time>2026-04-04T10:06:45Z</time></trkpt><trkpt lat="39.56010504369923" lon="8.565682885178102"><ele>355.0</ele><time>2026-04-04T10:06:46Z</time></trkpt><trkpt lat="39.56020730291008" lon="8.565579841202487"><ele>355.0</ele><time>2026-04-04T10:06:47Z</time></trkpt><trkpt lat="39.56030449674957" lon="8.565470664037832"><ele>355.0</ele><time>2026-04-04T10:06:48Z</time></trkpt><trkpt lat="39.56039363172194" lon="8.565355637536154"><ele>354.25</ele><time>2026-04-04T10:06:49Z</time></trkpt><trkpt lat="39.560476838248064" lon="8.565239531205327"><ele>353.5</ele><time>2026-04-04T10:06:50Z</time></trkpt><trkpt lat="39.560553702808306" lon="8.565122022868396"><ele>352.75</ele><time>2026-04-04T10:06:51Z</time></trkpt><trkpt lat="39.56062884864856" lon="8.565002562366404"><ele>352.0</ele><time>2026-04-04T10:06:52Z</time></trkpt><trkpt lat="39.56070505991864" lon="8.564887266346757"><ele>352.0</ele><time>2026-04-04T10:06:53Z</time></trkpt><trkpt lat="39.56078847656283" lon="8.564779887920627"><ele>352.0</ele><time>2026-04-04T10:06:54Z</time></trkpt><trkpt lat="39.560877285765855" lon="8.56467521021614"><ele>352.0</ele><time>2026-04-04T10:06:55Z</time></trkpt><trkpt lat="39.56097094378868" lon="8.564573252059473"><ele>352.0</ele><time>2026-04-04T10:06:56Z</time></trkpt><trkpt lat="39.561070128019544" lon="8.56447466206801"><ele>351.5</ele><time>2026-04-04T10:06:57Z</time></trkpt><trkpt lat="39.56117514011503" lon="8.564381657357304"><ele>351.0</ele><time>2026-04-04T10:06:58Z</time></trkpt><trkpt lat="39.56128566317201" lon="8.564297117448856"><ele>350.5</ele><time>2026-04-04T10:06:59Z</time></trkpt><trkpt lat="39.56139868214428" lon="8.564214971707887"><ele>350.0</ele><time>2026-04-04T10:07:00Z</time></trkpt><trkpt lat="39.56150341040739" lon="8.564117548389026"><ele>350.0</ele><time>2026-04-04T10:07:01Z</time></trkpt><trkpt lat="39.56159796199802" lon="8.564004830427871"><ele>350.0</ele><time>2026-04-04T10:07:02Z</time></trkpt><trkpt lat="39.561670368444034" lon="8.563870793722641"><ele>350.0</ele><time>2026-04-04T10:07:03Z</time></trkpt><trkpt lat="39.561712285472424" lon="8.5637184969335"><ele>350.0</ele><time>2026-04-04T10:07:04Z</time></trkpt><trkpt lat="39.561718555280784" lon="8.563550358861203"><ele>348.25</ele><time>2026-04-04T10:07:05Z</time></trkpt><trkpt lat="39.56170237013631" lon="8.563382177525089"><ele>346.5</ele><time>2026-04-04T10:07:06Z</time></trkpt><trkpt lat="39.56170414519876" lon="8.563208407150844"><ele>344.75</ele><time>2026-04-04T10:07:07Z</time></trkpt><trkpt lat="39.56167814315976" lon="8.563041121959301"><ele>343.0</ele><time>2026-04-04T10:07:08Z</time></trkpt><trkpt lat="39.56168570904031" lon="8.562881711169418"><ele>340.25</ele><time>2026-04-04T10:07:09Z</time></trkpt><trkpt lat="39.56172183904382" lon="8.562732856119359"><ele>337.5</ele><time>2026-04-04T10:07:10Z</time></trkpt><trkpt lat="39.56179336542239" lon="8.562605305198346"><ele>334.75</ele><time>2026-04-04T10:07:11Z</time></trkpt><trkpt lat="39.56188858934944" lon="8.562496480722409"><ele>332.0</ele><time>2026-04-04T10:07:12Z</time></trkpt><trkpt lat="39.56199010708637" lon="8.562384241862015"><ele>331.25</ele><time>2026-04-04T10:07:13Z</time></trkpt><trkpt lat="39.56209660828587" lon="8.562272180461477"><ele>330.5</ele><time>2026-04-04T10:07:14Z</time></trkpt><trkpt lat="39.562208102327126" lon="8.562159004103373"><ele>329.75</ele><time>2026-04-04T10:07:15Z</time></trkpt><trkpt lat="39.5623186804611" lon="8.562045545563546"><ele>329.0</ele><time>2026-04-04T10:07:16Z</time></trkpt><trkpt lat="39.562430055588244" lon="8.561932926131078"><ele>329.0</ele><time>2026-04-04T10:07:17Z</time></trkpt><trkpt lat="39.562546115072955" lon="8.561829849489047"><ele>329.0</ele><time>2026-04-04T10:07:18Z</time></trkpt><trkpt lat="39.56266944923697" lon="8.561736625864103"><ele>329.0</ele><time>2026-04-04T10:07:19Z</time></trkpt><trkpt lat="39.56279565871057" lon="8.561648430722244"><ele>329.0</ele><time>2026-04-04T10:07:20Z</time></trkpt><trkpt lat="39.562922484451484" lon="8.561558014504197"><ele>330.25</ele><time>2026-04-04T10:07:21Z</time></trkpt><trkpt lat="39.56305079263122" lon="8.561469177093901"><ele>331.5</ele><time>2026-04-04T10:07:22Z</time></trkpt><trkpt lat="39.56317664529277" lon="8.561385581294589"><ele>332.75</ele><time>2026-04-04T10:07:23Z</time></trkpt><trkpt lat="39.563304541880086" lon="8.561299677835912"><ele>334.0</ele><time>2026-04-04T10:07:24Z</time></trkpt><trkpt lat="39.56342874007153" lon="8.561210715275577"><ele>330.25</ele><time>2026-04-04T10:07:25Z</time></trkpt><trkpt lat="39.563550143022454" lon="8.561123073381406"><ele>326.5</ele><time>2026-04-04T10:07:26Z</time></trkpt><trkpt lat="39.56367136881026" lon="8.561048487665527"><ele>322.75</ele><time>2026-04-04T10:07:27Z</time></trkpt><trkpt lat="39.56379689399761" lon="8.561007817732547"><ele>319.0</ele><time>2026-04-04T10:07:28Z</time></trkpt><trkpt lat="39.563923264546574" lon="8.56099768712218"><ele>318.0</ele><time>2026-04-04T10:07:29Z</time></trkpt><trkpt lat="39.56404599362391" lon="8.561020294858373"><ele>317.0</ele><time>2026-04-04T10:07:30Z</time></trkpt><trkpt lat="39.56416709093856" lon="8.56107068892163"><ele>316.0</ele><time>2026-04-04T10:07:31Z</time></trkpt><trkpt lat="39.564281658918595" lon="8.561158531523882"><ele>315.0</ele><time>2026-04-04T10:07:32Z</time></trkpt><trkpt lat="39.56438193222862" lon="8.561275019836529"><ele>312.0</ele><time>2026-04-04T10:07:33Z</time></trkpt><trkpt lat="39.56445962596773" lon="8.561412879796029"><ele>309.0</ele><time>2026-04-04T10:07:34Z</time></trkpt><trkpt lat="39.564511261934804" lon="8.561571584911144"><ele>306.0</ele><time>2026-04-04T10:07:35Z</time></trkpt><trkpt lat="39.56455078764632" lon="8.561730944973204"><ele>303.0</ele><time>2026-04-04T10:07:36Z</time></trkpt><trkpt lat="39.564593253352065" lon="8.5618985852885"><ele>306.25</ele><time>2026-04-04T10:07:37Z</time></trkpt><trkpt lat="39.56464736568587" lon="8.562056556780169"><ele>309.5</ele><time>2026-04-04T10:07:38Z</time></trkpt><trkpt lat="39.56471320974718" lon="8.562215760954269"><ele>312.75</ele><time>2026-04-04T10:07:39Z</time></trkpt><trkpt lat="39.56479313654752" lon="8.562367103675237"><ele>316.0</ele><time>2026-04-04T10:07:40Z</time></trkpt><trkpt lat="39.564873182025" lon="8.562511721610091"><ele>316.0</ele><time>2026-04-04T10:07:41Z</time></trkpt><trkpt lat="39.564950303947455" lon="8.562654869095445"><ele>316.0</ele><time>2026-04-04T10:07:42Z</time></trkpt><trkpt lat="39.56502938113676" lon="8.562791535251574"><ele>316.0</ele><time>2026-04-04T10:07:43Z</time></trkpt><trkpt lat="39.565096590644174" lon="8.562929406502471"><ele>316.0</ele><time>2026-04-04T10:07:44Z</time></trkpt><trkpt lat="39.5651448293582" lon="8.563065684091907"><ele>317.16666666666663</ele><time>2026-04-04T10:07:45Z</time></trkpt><trkpt lat="39.56520099975888" lon="8.563177104481316"><ele>318.3333333333333</ele><time>2026-04-04T10:07:46Z</time></trkpt><trkpt lat="39.56526199919052" lon="8.563260580314216"><ele>319.5</ele><time>2026-04-04T10:07:47Z</time></trkpt><trkpt lat="39.565337466027856" lon="8.563298293356024"><ele>320.6666666666667</ele><time>2026-04-04T10:07:48Z</time></trkpt><trkpt lat="39.56540708928145" lon="8.563270589973264"><ele>321.83333333333337</ele><time>2026-04-04T10:07:49Z</time></trkpt><trkpt lat="39.56545369565824" lon="8.563196296605533"><ele>323.0</ele><time>2026-04-04T10:07:50Z</time></trkpt><trkpt lat="39.56547162015482" lon="8.563079722746053"><ele>323.0</ele><time>2026-04-04T10:07:51Z</time></trkpt><trkpt lat="39.56544166325715" lon="8.562951359198069"><ele>323.0</ele><time>2026-04-04T10:07:52Z</time></trkpt><trkpt lat="39.565406965296866" lon="8.562813830495182"><ele>323.0</ele><time>2026-04-04T10:07:53Z</time></trkpt><trkpt lat="39.56539438036773" lon="8.562679667962524"><ele>323.0</ele><time>2026-04-04T10:07:54Z</time></trkpt><trkpt lat="39.56540881642347" lon="8.562533432306473"><ele>323.0</ele><time>2026-04-04T10:07:55Z</time></trkpt><trkpt lat="39.56545947847467" lon="8.562377980430703"><ele>321.25</ele><time>2026-04-04T10:07:56Z</time></trkpt><trkpt lat="39.56553333502055" lon="8.562240537873834"><ele>319.5</ele><time>2026-04-04T10:07:57Z</time></trkpt><trkpt lat="39.56561009689322" lon="8.562090895742354"><ele>317.75</ele><time>2026-04-04T10:07:58Z</time></trkpt><trkpt lat="39.565681468228924" lon="8.561928502293052"><ele>316.0</ele><time>2026-04-04T10:07:59Z</time></trkpt><trkpt lat="39.565753404905244" lon="8.561763596844903"><ele>312.5</ele><time>2026-04-04T10:08:00Z</time></trkpt><trkpt lat="39.56582806796359" lon="8.561601717022034"><ele>309.0</ele><time>2026-04-04T10:08:01Z</time></trkpt><trkpt lat="39.565915533806326" lon="8.561449815641092"><ele>305.5</ele><time>2026-04-04T10:08:02Z</time></trkpt><trkpt lat="39.56602603870222" lon="8.56132912238742"><ele>302.0</ele><time>2026-04-04T10:08:03Z</time></trkpt><trkpt lat="39.566156851327854" lon="8.561250279414553"><ele>299.75</ele><time>2026-04-04T10:08:04Z</time></trkpt><trkpt lat="39.56628751816846" lon="8.561167966567764"><ele>297.5</ele><time>2026-04-04T10:08:05Z</time></trkpt><trkpt lat="39.56641582234915" lon="8.561087250591685"><ele>295.25</ele><time>2026-04-04T10:08:06Z</time></trkpt><trkpt lat="39.5665464760658" lon="8.561012215602524"><ele>293.0</ele><time>2026-04-04T10:08:07Z</time></trkpt><trkpt lat="39.566676481665354" lon="8.560956028715497"><ele>293.0</ele><time>2026-04-04T10:08:08Z</time></trkpt><trkpt lat="39.56680851254233" lon="8.560936029837826"><ele>293.0</ele><time>2026-04-04T10:08:09Z</time></trkpt><trkpt lat="39.56694009916516" lon="8.560930258243872"><ele>293.0</ele><time>2026-04-04T10:08:10Z</time></trkpt><trkpt lat="39.567071606901266" lon="8.56089799005796"><ele>293.0</ele><time>2026-04-04T10:08:11Z</time></trkpt><trkpt lat="39.56720720735945" lon="8.560839288168086"><ele>294.0</ele><time>2026-04-04T10:08:12Z</time></trkpt><trkpt lat="39.567344899761096" lon="8.560767802660658"><ele>295.0</ele><time>2026-04-04T10:08:13Z</time></trkpt><trkpt lat="39.567476878570204" lon="8.560699354082955"><ele>296.0</ele><time>2026-04-04T10:08:14Z</time></trkpt><trkpt lat="39.567604427723886" lon="8.56062815056494"><ele>297.0</ele><time>2026-04-04T10:08:15Z</time></trkpt><trkpt lat="39.56771758602059" lon="8.560541333722421"><ele>297.0</ele><time>2026-04-04T10:08:16Z</time></trkpt><trkpt lat="39.5677972795768" lon="8.560417617418135"><ele>297.0</ele><time>2026-04-04T10:08:17Z</time></trkpt><trkpt lat="39.56782826005401" lon="8.560268159072727"><ele>297.0</ele><time>2026-04-04T10:08:18Z</time></trkpt><trkpt lat="39.56782307959647" lon="8.560103074480717"><ele>297.0</ele><time>2026-04-04T10:08:19Z</time></trkpt><trkpt lat="39.56782818376074" lon="8.559931247085654"><ele>296.0</ele><time>2026-04-04T10:08:20Z</time></trkpt><trkpt lat="39.56786924676889" lon="8.559766386858819"><ele>295.0</ele><time>2026-04-04T10:08:21Z</time></trkpt><trkpt lat="39.56794117439036" lon="8.559605308180842"><ele>294.0</ele><time>2026-04-04T10:08:22Z</time></trkpt><trkpt lat="39.56801959832207" lon="8.559439988390162"><ele>293.0</ele><time>2026-04-04T10:08:23Z</time></trkpt><trkpt lat="39.56809872576547" lon="8.559270037924087"><ele>289.6666666666667</ele><time>2026-04-04T10:08:24Z</time></trkpt><trkpt lat="39.56817872976816" lon="8.559096480831524"><ele>286.3333333333333</ele><time>2026-04-04T10:08:25Z</time></trkpt><trkpt lat="39.56825931741935" lon="8.558926316898672"><ele>283.0</ele><time>2026-04-04T10:08:26Z</time></trkpt><trkpt lat="39.568337909066564" lon="8.5587626205394"><ele>283.5</ele><time>2026-04-04T10:08:27Z</time></trkpt><trkpt lat="39.56841510527377" lon="8.558616598307236"><ele>284.0</ele><time>2026-04-04T10:08:28Z</time></trkpt><trkpt lat="39.56850398477388" lon="8.55849406564984"><ele>284.5</ele><time>2026-04-04T10:08:29Z</time></trkpt><trkpt lat="39.56860866044697" lon="8.558399705452995"><ele>285.0</ele><time>2026-04-04T10:08:30Z</time></trkpt><trkpt lat="39.568720248737435" lon="8.55834346327981"><ele>285.0</ele><time>2026-04-04T10:08:31Z</time></trkpt><trkpt lat="39.56882350000942" lon="8.558282299967422"><ele>285.0</ele><time>2026-04-04T10:08:32Z</time></trkpt><trkpt lat="39.56890189842985" lon="8.55817813597159"><ele>285.0</ele><time>2026-04-04T10:08:33Z</time></trkpt><trkpt lat="39.56893445225242" lon="8.558031222916645"><ele>285.0</ele><time>2026-04-04T10:08:34Z</time></trkpt><trkpt lat="39.56894653296409" lon="8.557854429478391"><ele>282.75</ele><time>2026-04-04T10:08:35Z</time></trkpt><trkpt lat="39.568970563397485" lon="8.557677684395557"><ele>280.5</ele><time>2026-04-04T10:08:36Z</time></trkpt><trkpt lat="39.568998581817" lon="8.557490655233282"><ele>278.25</ele><time>2026-04-04T10:08:37Z</time></trkpt><trkpt lat="39.56902225930534" lon="8.557301599819432"><ele>276.0</ele><time>2026-04-04T10:08:38Z</time></trkpt><trkpt lat="39.56903774153616" lon="8.55711644597781"><ele>274.5</ele><time>2026-04-04T10:08:39Z</time></trkpt><trkpt lat="39.569044615243634" lon="8.556932061591061"><ele>273.0</ele><time>2026-04-04T10:08:40Z</time></trkpt><trkpt lat="39.56904695853273" lon="8.556745433186018"><ele>271.5</ele><time>2026-04-04T10:08:41Z</time></trkpt><trkpt lat="39.56906355514461" lon="8.55654805450335"><ele>270.0</ele><time>2026-04-04T10:08:42Z</time></trkpt><trkpt lat="39.5690502473079" lon="8.55634639387485"><ele>269.0</ele><time>2026-04-04T10:08:43Z</time></trkpt><trkpt lat="39.56905832445688" lon="8.556138922909698"><ele>268.0</ele><time>2026-04-04T10:08:44Z</time></trkpt><trkpt lat="39.56906252259623" lon="8.55592890072123"><ele>267.0</ele><time>2026-04-04T10:08:45Z</time></trkpt><trkpt lat="39.56906292713239" lon="8.555722515957758"><ele>267.0</ele><time>2026-04-04T10:08:46Z</time></trkpt><trkpt lat="39.56906575096241" lon="8.555522889641942"><ele>267.0</ele><time>2026-04-04T10:08:47Z</time></trkpt><trkpt lat="39.569068456498634" lon="8.555325602225428"><ele>267.0</ele><time>2026-04-04T10:08:48Z</time></trkpt><trkpt lat="39.56907257583577" lon="8.55513201188975"><ele>265.75</ele><time>2026-04-04T10:08:49Z</time></trkpt><trkpt lat="39.56907510517341" lon="8.554943189996154"><ele>264.5</ele><time>2026-04-04T10:08:50Z</time></trkpt><trkpt lat="39.5690940006797" lon="8.554756712124448"><ele>263.25</ele><time>2026-04-04T10:08:51Z</time></trkpt><trkpt lat="39.569097278242026" lon="8.554577331191663"><ele>262.0</ele><time>2026-04-04T10:08:52Z</time></trkpt><trkpt lat="39.56911202894637" lon="8.554410211110113"><ele>260.75</ele><time>2026-04-04T10:08:53Z</time></trkpt><trkpt lat="39.569139583584175" lon="8.55424942368808"><ele>259.5</ele><time>2026-04-04T10:08:54Z</time></trkpt><trkpt lat="39.56920848020868" lon="8.55409360380676"><ele>258.25</ele><time>2026-04-04T10:08:55Z</time></trkpt><trkpt lat="39.569302900374595" lon="8.553953617322488"><ele>257.0</ele><time>2026-04-04T10:08:56Z</time></trkpt><trkpt lat="39.56941676872171" lon="8.553835232571597"><ele>256.33333333333337</ele><time>2026-04-04T10:08:57Z</time></trkpt><trkpt lat="39.56954383802037" lon="8.553738826413612"><ele>255.66666666666669</ele><time>2026-04-04T10:08:58Z</time></trkpt><trkpt lat="39.56967352234" lon="8.55363978231191"><ele>255.0</ele><time>2026-04-04T10:08:59Z</time></trkpt><trkpt lat="39.56980632932581" lon="8.553530018301167"><ele>255.0</ele><time>2026-04-04T10:09:00Z</time></trkpt><trkpt lat="39.56994360849946" lon="8.553419319905407"><ele>255.0</ele><time>2026-04-04T10:09:01Z</time></trkpt><trkpt lat="39.570079495070416" lon="8.553312535198316"><ele>255.0</ele><time>2026-04-04T10:09:02Z</time></trkpt><trkpt lat="39.57020903308067" lon="8.553208603508983"><ele>255.0</ele><time>2026-04-04T10:09:03Z</time></trkpt><trkpt lat="39.57032637222884" lon="8.55310975138561"><ele>255.0</ele><time>2026-04-04T10:09:04Z</time></trkpt><trkpt lat="39.57041908465335" lon="8.553001198198432"><ele>255.0</ele><time>2026-04-04T10:09:05Z</time></trkpt><trkpt lat="39.57047006754503" lon="8.552877035409681"><ele>255.0</ele><time>2026-04-04T10:09:06Z</time></trkpt><trkpt lat="39.57049106504194" lon="8.552745480551371"><ele>256.25</ele><time>2026-04-04T10:09:07Z</time></trkpt><trkpt lat="39.57042799892098" lon="8.552608817491729"><ele>257.5</ele><time>2026-04-04T10:09:08Z</time></trkpt><trkpt lat="39.570367704883736" lon="8.552478180748379"><ele>258.75</ele><time>2026-04-04T10:09:09Z</time></trkpt><trkpt lat="39.570284029230436" lon="8.552347614199082"><ele>260.0</ele><time>2026-04-04T10:09:10Z</time></trkpt><trkpt lat="39.57020739585415" lon="8.552220632158795"><ele>256.25</ele><time>2026-04-04T10:09:11Z</time></trkpt><trkpt lat="39.57014254877924" lon="8.552083195159298"><ele>252.5</ele><time>2026-04-04T10:09:12Z</time></trkpt><trkpt lat="39.57008481932999" lon="8.551930993097653"><ele>248.75</ele><time>2026-04-04T10:09:13Z</time></trkpt><trkpt lat="39.57007203066228" lon="8.55175220234798"><ele>245.0</ele><time>2026-04-04T10:09:14Z</time></trkpt><trkpt lat="39.57008711023592" lon="8.551569966558892"><ele>244.33333333333334</ele><time>2026-04-04T10:09:15Z</time></trkpt><trkpt lat="39.57012952502143" lon="8.551388513209018"><ele>243.66666666666669</ele><time>2026-04-04T10:09:16Z</time></trkpt><trkpt lat="39.5702020113071" lon="8.551214887230696"><ele>243.0</ele><time>2026-04-04T10:09:17Z</time></trkpt><trkpt lat="39.5702876737006" lon="8.551045403677623"><ele>247.33333333333331</ele><time>2026-04-04T10:09:18Z</time></trkpt><trkpt lat="39.57037342468878" lon="8.550882717088077"><ele>251.66666666666666</ele><time>2026-04-04T10:09:19Z</time></trkpt><trkpt lat="39.570460236770735" lon="8.550715541453512"><ele>256.0</ele><time>2026-04-04T10:09:20Z</time></trkpt><trkpt lat="39.570547365970576" lon="8.55054416290219"><ele>252.66666666666666</ele><time>2026-04-04T10:09:21Z</time></trkpt><trkpt lat="39.5706274578924" lon="8.550363953413449"><ele>249.33333333333331</ele><time>2026-04-04T10:09:22Z</time></trkpt><trkpt lat="39.57068296710096" lon="8.55016965089834"><ele>246.0</ele><time>2026-04-04T10:09:23Z</time></trkpt><trkpt lat="39.570714703310614" lon="8.549961956729785"><ele>246.0</ele><time>2026-04-04T10:09:24Z</time></trkpt><trkpt lat="39.57075011735861" lon="8.549758583875208"><ele>246.0</ele><time>2026-04-04T10:09:25Z</time></trkpt><trkpt lat="39.5708103066847" lon="8.549566562372723"><ele>246.0</ele><time>2026-04-04T10:09:26Z</time></trkpt><trkpt lat="39.57089646632518" lon="8.549379328208303"><ele>243.0</ele><time>2026-04-04T10:09:27Z</time></trkpt><trkpt lat="39.57099626799151" lon="8.549202836672215"><ele>240.0</ele><time>2026-04-04T10:09:28Z</time></trkpt><trkpt lat="39.5711154342111" lon="8.549038302420408"><ele>237.0</ele><time>2026-04-04T10:09:29Z</time></trkpt><trkpt lat="39.57124919873781" lon="8.548887397239163"><ele>237.66666666666669</ele><time>2026-04-04T10:09:30Z</time></trkpt><trkpt lat="39.57138321496682" lon="8.548730273055689"><ele>238.33333333333334</ele><time>2026-04-04T10:09:31Z</time></trkpt><trkpt lat="39.57151730648819" lon="8.54857986783045"><ele>239.0</ele><time>2026-04-04T10:09:32Z</time></trkpt><trkpt lat="39.57164458143885" lon="8.548437505597112"><ele>239.0</ele><time>2026-04-04T10:09:33Z</time></trkpt><trkpt lat="39.571759838536735" lon="8.548316644072976"><ele>239.0</ele><time>2026-04-04T10:09:34Z</time></trkpt><trkpt lat="39.57187977295248" lon="8.548239199583744"><ele>239.0</ele><time>2026-04-04T10:09:35Z</time></trkpt><trkpt lat="39.572016972817686" lon="8.548216319876161"><ele>239.0</ele><time>2026-04-04T10:09:36Z</time></trkpt><trkpt lat="39.57216812961659" lon="8.548233975514872"><ele>239.33333333333334</ele><time>2026-04-04T10:09:37Z</time></trkpt><trkpt lat="39.572328316705516" lon="8.548243088578715"><ele>239.66666666666669</ele><time>2026-04-04T10:09:38Z</time></trkpt><trkpt lat="39.57249142820038" lon="8.548243109188725"><ele>240.0</ele><time>2026-04-04T10:09:39Z</time></trkpt><trkpt lat="39.57266140837271" lon="8.548246004738175"><ele>240.0</ele><time>2026-04-04T10:09:40Z</time></trkpt><trkpt lat="39.57283071567652" lon="8.548250870280388"><ele>240.0</ele><time>2026-04-04T10:09:41Z</time></trkpt><trkpt lat="39.573000209299984" lon="8.548257379066134"><ele>240.0</ele><time>2026-04-04T10:09:42Z</time></trkpt><trkpt lat="39.57316548826888" lon="8.54826241986242"><ele>239.5</ele><time>2026-04-04T10:09:43Z</time></trkpt><trkpt lat="39.57331843601951" lon="8.548274026670752"><ele>239.0</ele><time>2026-04-04T10:09:44Z</time></trkpt><trkpt lat="39.573448340816036" lon="8.548325760332165"><ele>238.5</ele><time>2026-04-04T10:09:45Z</time></trkpt><trkpt lat="39.57356203882225" lon="8.548432321681158"><ele>238.0</ele><time>2026-04-04T10:09:46Z</time></trkpt><trkpt lat="39.573658636483415" lon="8.54857397532435"><ele>238.0</ele><time>2026-04-04T10:09:47Z</time></trkpt><trkpt lat="39.573758672953986" lon="8.548719920471203"><ele>238.0</ele><time>2026-04-04T10:09:48Z</time></trkpt><trkpt lat="39.57386839639409" lon="8.54885909629163"><ele>238.0</ele><time>2026-04-04T10:09:49Z</time></trkpt><trkpt lat="39.573987314661466" lon="8.548999911476532"><ele>238.0</ele><time>2026-04-04T10:09:50Z</time></trkpt><trkpt lat="39.574110823831575" lon="8.549144197870783"><ele>238.0</ele><time>2026-04-04T10:09:51Z</time></trkpt><trkpt lat="39.57422998790802" lon="8.549292347217419"><ele>238.0</ele><time>2026-04-04T10:09:52Z</time></trkpt><trkpt lat="39.57435212601039" lon="8.54944229052714"><ele>237.66666666666666</ele><time>2026-04-04T10:09:53Z</time></trkpt><trkpt lat="39.574472314623016" lon="8.549586490316846"><ele>237.33333333333331</ele><time>2026-04-04T10:09:54Z</time></trkpt><trkpt lat="39.574601175404204" lon="8.549722596383658"><ele>237.0</ele><time>2026-04-04T10:09:55Z</time></trkpt><trkpt lat="39.57474751301046" lon="8.549820077812603"><ele>237.0</ele><time>2026-04-04T10:09:56Z</time></trkpt><trkpt lat="39.574900616648655" lon="8.549896407396725"><ele>237.0</ele><time>2026-04-04T10:09:57Z</time></trkpt><trkpt lat="39.575053266393034" lon="8.549962349296964"><ele>237.0</ele><time>2026-04-04T10:09:58Z</time></trkpt><trkpt lat="39.575202852538595" lon="8.550008404078538"><ele>237.0</ele><time>2026-04-04T10:09:59Z</time></trkpt><trkpt lat="39.57535128329287" lon="8.550031474623179"><ele>237.0</ele><time>2026-04-04T10:10:00Z</time></trkpt><trkpt lat="39.5754984433665" lon="8.550042384954242"><ele>237.0</ele><time>2026-04-04T10:10:01Z</time></trkpt><trkpt lat="39.57564557905829" lon="8.550049436098934"><ele>237.0</ele><time>2026-04-04T10:10:02Z</time></trkpt><trkpt lat="39.575793140056405" lon="8.550057365942651"><ele>236.33333333333331</ele><time>2026-04-04T10:10:03Z</time></trkpt><trkpt lat="39.57594408854744" lon="8.550065582309426"><ele>235.66666666666666</ele><time>2026-04-04T10:10:04Z</time></trkpt><trkpt lat="39.576096870022454" lon="8.550073003260868"><ele>235.0</ele><time>2026-04-04T10:10:05Z</time></trkpt><trkpt lat="39.57624878602059" lon="8.55008193350243"><ele>234.5</ele><time>2026-04-04T10:10:06Z</time></trkpt><trkpt lat="39.57639036814148" lon="8.550088969866211"><ele>234.0</ele><time>2026-04-04T10:10:07Z</time></trkpt><trkpt lat="39.576524251238" lon="8.550094941419916"><ele>233.5</ele><time>2026-04-04T10:10:08Z</time></trkpt><trkpt lat="39.576649455766066" lon="8.550106124072741"><ele>233.0</ele><time>2026-04-04T10:10:09Z</time></trkpt><trkpt lat="39.57677465024091" lon="8.55012950868502"><ele>233.0</ele><time>2026-04-04T10:10:10Z</time></trkpt><trkpt lat="39.576893493401265" lon="8.550171428715664"><ele>233.0</ele><time>2026-04-04T10:10:11Z</time></trkpt><trkpt lat="39.577006289103174" lon="8.550231785497838"><ele>233.0</ele><time>2026-04-04T10:10:12Z</time></trkpt><trkpt lat="39.5771163084952" lon="8.550290971237143"><ele>233.0</ele><time>2026-04-04T10:10:13Z</time></trkpt><trkpt lat="39.57722313644799" lon="8.550340730188994"><ele>232.0</ele><time>2026-04-04T10:10:14Z</time></trkpt><trkpt lat="39.577328691508924" lon="8.550342559822498"><ele>231.0</ele><time>2026-04-04T10:10:15Z</time></trkpt><trkpt lat="39.577432237044576" lon="8.550286035274649"><ele>230.0</ele><time>2026-04-04T10:10:16Z</time></trkpt><trkpt lat="39.57753893058327" lon="8.550208301691844"><ele>229.0</ele><time>2026-04-04T10:10:17Z</time></trkpt><trkpt lat="39.577652080429196" lon="8.550161911560954"><ele>229.0</ele><time>2026-04-04T10:10:18Z</time></trkpt><trkpt lat="39.57777817732227" lon="8.550143683323249"><ele>229.0</ele><time>2026-04-04T10:10:19Z</time></trkpt><trkpt lat="39.577912320820865" lon="8.550145832104109"><ele>229.0</ele><time>2026-04-04T10:10:20Z</time></trkpt><trkpt lat="39.57805600365855" lon="8.55014925027694"><ele>229.0</ele><time>2026-04-04T10:10:21Z</time></trkpt><trkpt lat="39.578205989998864" lon="8.550149847627704"><ele>228.66666666666666</ele><time>2026-04-04T10:10:22Z</time></trkpt><trkpt lat="39.578359147637244" lon="8.550157582319267"><ele>228.33333333333331</ele><time>2026-04-04T10:10:23Z</time></trkpt><trkpt lat="39.578515583116385" lon="8.550173716651456"><ele>228.0</ele><time>2026-04-04T10:10:24Z</time></trkpt><trkpt lat="39.57866951478363" lon="8.550188481571377"><ele>227.5</ele><time>2026-04-04T10:10:25Z</time></trkpt><trkpt lat="39.57881965471279" lon="8.550202166557604"><ele>227.0</ele><time>2026-04-04T10:10:26Z</time></trkpt><trkpt lat="39.578961516898055" lon="8.550201085002334"><ele>226.5</ele><time>2026-04-04T10:10:27Z</time></trkpt><trkpt lat="39.579091366079666" lon="8.55015397774764"><ele>226.0</ele><time>2026-04-04T10:10:28Z</time></trkpt><trkpt lat="39.57920037350401" lon="8.550042646638877"><ele>226.0</ele><time>2026-04-04T10:10:29Z</time></trkpt><trkpt lat="39.579296113487885" lon="8.549903212533131"><ele>226.0</ele><time>2026-04-04T10:10:30Z</time></trkpt><trkpt lat="39.57937447556011" lon="8.549747917592757"><ele>226.0</ele><time>2026-04-04T10:10:31Z</time></trkpt><trkpt lat="39.579428097870114" lon="8.549578327522326"><ele>226.0</ele><time>2026-04-04T10:10:32Z</time></trkpt><trkpt lat="39.57946283989148" lon="8.549397752550234"><ele>224.75</ele><time>2026-04-04T10:10:33Z</time></trkpt><trkpt lat="39.57948695055134" lon="8.54922382341361"><ele>223.5</ele><time>2026-04-04T10:10:34Z</time></trkpt><trkpt lat="39.57951323562424" lon="8.549059064572134"><ele>222.25</ele><time>2026-04-04T10:10:35Z</time></trkpt><trkpt lat="39.57953864949217" lon="8.548897561720727"><ele>221.0</ele><time>2026-04-04T10:10:36Z</time></trkpt><trkpt lat="39.57957313689014" lon="8.548744978414723"><ele>219.0</ele><time>2026-04-04T10:10:37Z</time></trkpt><trkpt lat="39.579626116909296" lon="8.548604186530522"><ele>217.0</ele><time>2026-04-04T10:10:38Z</time></trkpt><trkpt lat="39.57969755764009" lon="8.548479081945581"><ele>215.0</ele><time>2026-04-04T10:10:39Z</time></trkpt><trkpt lat="39.57977986273921" lon="8.548365749503716"><ele>213.0</ele><time>2026-04-04T10:10:40Z</time></trkpt><trkpt lat="39.57985840592119" lon="8.548251722065418"><ele>213.0</ele><time>2026-04-04T10:10:41Z</time></trkpt><trkpt lat="39.579922821098485" lon="8.548134529494138"><ele>213.0</ele><time>2026-04-04T10:10:42Z</time></trkpt><trkpt lat="39.579968999884855" lon="8.54802215331509"><ele>213.0</ele><time>2026-04-04T10:10:43Z</time></trkpt><trkpt lat="39.580005213984535" lon="8.547917213828095"><ele>213.0</ele><time>2026-04-04T10:10:44Z</time></trkpt><trkpt lat="39.58001858353917" lon="8.547811370506532"><ele>213.0</ele><time>2026-04-04T10:10:45Z</time></trkpt><trkpt lat="39.57999588241175" lon="8.547714322600623"><ele>215.60000000000002</ele><time>2026-04-04T10:10:46Z</time></trkpt><trkpt lat="39.57997715251716" lon="8.547631472246776"><ele>218.20000000000002</ele><time>2026-04-04T10:10:47Z</time></trkpt><trkpt lat="39.57988771983963" lon="8.547499864055997"><ele>220.8</ele><time>2026-04-04T10:10:49Z</time></trkpt><trkpt lat="39.57981740456731" lon="8.547431567429193"><ele>223.4</ele><time>2026-04-04T10:10:50Z</time></trkpt><trkpt lat="39.579715021348825" lon="8.547354861748772"><ele>226.0</ele><time>2026-04-04T10:10:51Z</time></trkpt><trkpt lat="39.57960343962741" lon="8.547268445923338"><ele>226.5</ele><time>2026-04-04T10:10:52Z</time></trkpt><trkpt lat="39.57948332257627" lon="8.54717475170052"><ele>227.0</ele><time>2026-04-04T10:10:53Z</time></trkpt><trkpt lat="39.579376874278" lon="8.547090528956236"><ele>227.5</ele><time>2026-04-04T10:10:54Z</time></trkpt><trkpt lat="39.57928260094031" lon="8.546989603243045"><ele>228.0</ele><time>2026-04-04T10:10:55Z</time></trkpt><trkpt lat="39.579205338842826" lon="8.546862468040855"><ele>228.0</ele><time>2026-04-04T10:10:56Z</time></trkpt><trkpt lat="39.579128602646406" lon="8.54672014342613"><ele>228.0</ele><time>2026-04-04T10:10:57Z</time></trkpt><trkpt lat="39.57903611951981" lon="8.546589182320792"><ele>228.0</ele><time>2026-04-04T10:10:58Z</time></trkpt><trkpt lat="39.57893229672009" lon="8.546472325571937"><ele>228.0</ele><time>2026-04-04T10:10:59Z</time></trkpt><trkpt lat="39.578834752355725" lon="8.546367344233408"><ele>228.0</ele><time>2026-04-04T10:11:00Z</time></trkpt><trkpt lat="39.5787615066184" lon="8.546275404812132"><ele>228.0</ele><time>2026-04-04T10:11:01Z</time></trkpt><trkpt lat="39.57870524816276" lon="8.546179487818973"><ele>228.0</ele><time>2026-04-04T10:11:02Z</time></trkpt><trkpt lat="39.57869801781427" lon="8.546057303791313"><ele>228.0</ele><time>2026-04-04T10:11:03Z</time></trkpt><trkpt lat="39.5787338211546" lon="8.545928661434235"><ele>228.0</ele><time>2026-04-04T10:11:04Z</time></trkpt><trkpt lat="39.578806295093266" lon="8.545803709468663"><ele>230.75</ele><time>2026-04-04T10:11:05Z</time></trkpt><trkpt lat="39.57887852049614" lon="8.54567006662449"><ele>233.5</ele><time>2026-04-04T10:11:06Z</time></trkpt><trkpt lat="39.578960864717914" lon="8.545533985726129"><ele>236.25</ele><time>2026-04-04T10:11:07Z</time></trkpt><trkpt lat="39.57906572052293" lon="8.545409862441396"><ele>239.0</ele><time>2026-04-04T10:11:08Z</time></trkpt><trkpt lat="39.57919232159793" lon="8.545305671340204"><ele>239.66666666666669</ele><time>2026-04-04T10:11:09Z</time></trkpt><trkpt lat="39.579330883286204" lon="8.54521363837655"><ele>240.33333333333331</ele><time>2026-04-04T10:11:10Z</time></trkpt><trkpt lat="39.57947138615333" lon="8.545125591166078"><ele>241.0</ele><time>2026-04-04T10:11:11Z</time></trkpt><trkpt lat="39.57960857071833" lon="8.545046945466744"><ele>242.5</ele><time>2026-04-04T10:11:12Z</time></trkpt><trkpt lat="39.57975231363072" lon="8.544985530831696"><ele>244.0</ele><time>2026-04-04T10:11:13Z</time></trkpt><trkpt lat="39.57990141190497" lon="8.544945769584091"><ele>245.5</ele><time>2026-04-04T10:11:14Z</time></trkpt><trkpt lat="39.58004366615391" lon="8.54491012865411"><ele>247.0</ele><time>2026-04-04T10:11:15Z</time></trkpt><trkpt lat="39.5801834761895" lon="8.544865328495078"><ele>247.0</ele><time>2026-04-04T10:11:16Z</time></trkpt><trkpt lat="39.58031933302134" lon="8.544814029984712"><ele>247.0</ele><time>2026-04-04T10:11:17Z</time></trkpt><trkpt lat="39.580454206775954" lon="8.544759385334181"><ele>247.0</ele><time>2026-04-04T10:11:18Z</time></trkpt><trkpt lat="39.58058260815394" lon="8.54469227303705"><ele>247.0</ele><time>2026-04-04T10:11:19Z</time></trkpt><trkpt lat="39.580704953433425" lon="8.544582867572394"><ele>247.33333333333331</ele><time>2026-04-04T10:11:20Z</time></trkpt><trkpt lat="39.58081484077005" lon="8.54443957420953"><ele>247.66666666666669</ele><time>2026-04-04T10:11:21Z</time></trkpt><trkpt lat="39.58091054220065" lon="8.544270859508192"><ele>248.0</ele><time>2026-04-04T10:11:22Z</time></trkpt><trkpt lat="39.58099901120752" lon="8.544081886901461"><ele>248.0</ele><time>2026-04-04T10:11:23Z</time></trkpt><trkpt lat="39.58106773472414" lon="8.54389424481266"><ele>248.0</ele><time>2026-04-04T10:11:24Z</time></trkpt><trkpt lat="39.58111394749337" lon="8.543688711889263"><ele>248.0</ele><time>2026-04-04T10:11:25Z</time></trkpt><trkpt lat="39.58114226985922" lon="8.543477935015918"><ele>247.5</ele><time>2026-04-04T10:11:26Z</time></trkpt><trkpt lat="39.58116792314791" lon="8.54327868732225"><ele>247.0</ele><time>2026-04-04T10:11:27Z</time></trkpt><trkpt lat="39.581190628384725" lon="8.543089285416924"><ele>246.5</ele><time>2026-04-04T10:11:28Z</time></trkpt><trkpt lat="39.58121514969914" lon="8.542917145111549"><ele>246.0</ele><time>2026-04-04T10:11:29Z</time></trkpt><trkpt lat="39.581248317816986" lon="8.5427713267879"><ele>247.75</ele><time>2026-04-04T10:11:30Z</time></trkpt><trkpt lat="39.58133039260797" lon="8.542649469861411"><ele>249.5</ele><time>2026-04-04T10:11:31Z</time></trkpt><trkpt lat="39.58143671570522" lon="8.542564469730708"><ele>251.25</ele><time>2026-04-04T10:11:32Z</time></trkpt><trkpt lat="39.581515645658506" lon="8.542461752771972"><ele>253.0</ele><time>2026-04-04T10:11:33Z</time></trkpt><trkpt lat="39.581560021276246" lon="8.54234054168059"><ele>253.0</ele><time>2026-04-04T10:11:34Z</time></trkpt><trkpt lat="39.581567682741834" lon="8.542208662071966"><ele>253.0</ele><time>2026-04-04T10:11:35Z</time></trkpt><trkpt lat="39.58151214361611" lon="8.542075599311731"><ele>253.0</ele><time>2026-04-04T10:11:36Z</time></trkpt><trkpt lat="39.58141023403811" lon="8.541948191737422"><ele>253.0</ele><time>2026-04-04T10:11:37Z</time></trkpt><trkpt lat="39.58130573031125" lon="8.54182516552866"><ele>253.25</ele><time>2026-04-04T10:11:38Z</time></trkpt><trkpt lat="39.581200430816025" lon="8.541702556832657"><ele>253.5</ele><time>2026-04-04T10:11:39Z</time></trkpt><trkpt lat="39.581153858828955" lon="8.541541693832535"><ele>253.75</ele><time>2026-04-04T10:11:40Z</time></trkpt><trkpt lat="39.58110453296224" lon="8.541377738502161"><ele>254.0</ele><time>2026-04-04T10:11:41Z</time></trkpt><trkpt lat="39.58106797196861" lon="8.541207166005698"><ele>254.0</ele><time>2026-04-04T10:11:42Z</time></trkpt><trkpt lat="39.58103626382749" lon="8.541028988391991"><ele>254.0</ele><time>2026-04-04T10:11:43Z</time></trkpt><trkpt lat="39.58101154103656" lon="8.540844675985284"><ele>254.0</ele><time>2026-04-04T10:11:44Z</time></trkpt><trkpt lat="39.58099657426547" lon="8.540652179911287"><ele>254.0</ele><time>2026-04-04T10:11:45Z</time></trkpt><trkpt lat="39.58099502294553" lon="8.540460878548927"><ele>255.5</ele><time>2026-04-04T10:11:46Z</time></trkpt><trkpt lat="39.58099943001347" lon="8.540265156440546"><ele>257.0</ele><time>2026-04-04T10:11:47Z</time></trkpt><trkpt lat="39.58101090150233" lon="8.540072972209343"><ele>258.5</ele><time>2026-04-04T10:11:48Z</time></trkpt><trkpt lat="39.581018454046834" lon="8.539880172438208"><ele>260.0</ele><time>2026-04-04T10:11:49Z</time></trkpt><trkpt lat="39.581025154603836" lon="8.539689409484067"><ele>260.33333333333337</ele><time>2026-04-04T10:11:50Z</time></trkpt><trkpt lat="39.581034541233045" lon="8.539498481568431"><ele>260.6666666666667</ele><time>2026-04-04T10:11:51Z</time></trkpt><trkpt lat="39.58104986611479" lon="8.539305616529157"><ele>261.0</ele><time>2026-04-04T10:11:52Z</time></trkpt><trkpt lat="39.58107264719196" lon="8.539106027341598"><ele>261.0</ele><time>2026-04-04T10:11:53Z</time></trkpt><trkpt lat="39.5810940703445" lon="8.538903953405343"><ele>261.0</ele><time>2026-04-04T10:11:54Z</time></trkpt><trkpt lat="39.58111567041005" lon="8.538701656448794"><ele>261.0</ele><time>2026-04-04T10:11:55Z</time></trkpt><trkpt lat="39.58111935142955" lon="8.538496511158069"><ele>262.0</ele><time>2026-04-04T10:11:56Z</time></trkpt><trkpt lat="39.581136135836054" lon="8.538296638196845"><ele>263.0</ele><time>2026-04-04T10:11:57Z</time></trkpt><trkpt lat="39.58114056027973" lon="8.538100896454269"><ele>264.0</ele><time>2026-04-04T10:11:58Z</time></trkpt><trkpt lat="39.581127714280484" lon="8.537903572863135"><ele>266.0</ele><time>2026-04-04T10:11:59Z</time></trkpt><trkpt lat="39.581110564020754" lon="8.53770437728533"><ele>268.0</ele><time>2026-04-04T10:12:00Z</time></trkpt><trkpt lat="39.581096274814115" lon="8.537503373548814"><ele>270.0</ele><time>2026-04-04T10:12:01Z</time></trkpt><trkpt lat="39.58108571268835" lon="8.537307228285638"><ele>270.0</ele><time>2026-04-04T10:12:02Z</time></trkpt><trkpt lat="39.581079012081666" lon="8.537119896703729"><ele>270.0</ele><time>2026-04-04T10:12:03Z</time></trkpt><trkpt lat="39.58106970771643" lon="8.536949066889237"><ele>270.0</ele><time>2026-04-04T10:12:04Z</time></trkpt><trkpt lat="39.58105762874303" lon="8.53678843263905"><ele>270.0</ele><time>2026-04-04T10:12:05Z</time></trkpt><trkpt lat="39.581044970481265" lon="8.536628173004331"><ele>271.0</ele><time>2026-04-04T10:12:06Z</time></trkpt><trkpt lat="39.58103851974233" lon="8.536455298160922"><ele>272.0</ele><time>2026-04-04T10:12:07Z</time></trkpt><trkpt lat="39.5810203223005" lon="8.53627579141498"><ele>273.0</ele><time>2026-04-04T10:12:08Z</time></trkpt><trkpt lat="39.5809952145949" lon="8.536103534509824"><ele>274.0</ele><time>2026-04-04T10:12:09Z</time></trkpt><trkpt lat="39.580967197043464" lon="8.535954548369181"><ele>275.2</ele><time>2026-04-04T10:12:10Z</time></trkpt><trkpt lat="39.58096755819356" lon="8.535824409508663"><ele>276.4</ele><time>2026-04-04T10:12:11Z</time></trkpt><trkpt lat="39.581021800084216" lon="8.535715776384345"><ele>277.6</ele><time>2026-04-04T10:12:12Z</time></trkpt><trkpt lat="39.58111338436241" lon="8.535617566912192"><ele>278.8</ele><time>2026-04-04T10:12:13Z</time></trkpt><trkpt lat="39.581199594036356" lon="8.535498526525293"><ele>280.0</ele><time>2026-04-04T10:12:14Z</time></trkpt><trkpt lat="39.58127601797118" lon="8.535362324305021"><ele>284.2</ele><time>2026-04-04T10:12:15Z</time></trkpt><trkpt lat="39.58134501140247" lon="8.535230789731461"><ele>288.4</ele><time>2026-04-04T10:12:16Z</time></trkpt><trkpt lat="39.581394193072825" lon="8.535114315079888"><ele>292.6</ele><time>2026-04-04T10:12:17Z</time></trkpt><trkpt lat="39.581433010530326" lon="8.535009552660997"><ele>296.8</ele><time>2026-04-04T10:12:18Z</time></trkpt><trkpt lat="39.581412350614315" lon="8.534894308965185"><ele>301.0</ele><time>2026-04-04T10:12:19Z</time></trkpt><trkpt lat="39.58129430855166" lon="8.534810663261423"><ele>301.0</ele><time>2026-04-04T10:12:20Z</time></trkpt><trkpt lat="39.581215110389785" lon="8.534713225511238"><ele>301.0</ele><time>2026-04-04T10:12:21Z</time></trkpt><trkpt lat="39.581132446569356" lon="8.5346008026509"><ele>301.0</ele><time>2026-04-04T10:12:22Z</time></trkpt><trkpt lat="39.58111576120848" lon="8.534422384253167"><ele>301.0</ele><time>2026-04-04T10:12:23Z</time></trkpt><trkpt lat="39.581114684443385" lon="8.534224796399757"><ele>302.66666666666663</ele><time>2026-04-04T10:12:24Z</time></trkpt><trkpt lat="39.581136628262506" lon="8.5340132681902"><ele>304.3333333333333</ele><time>2026-04-04T10:12:25Z</time></trkpt><trkpt lat="39.58119601257952" lon="8.533816811530064"><ele>306.0</ele><time>2026-04-04T10:12:26Z</time></trkpt><trkpt lat="39.58120565854105" lon="8.533626370055803"><ele>306.0</ele><time>2026-04-04T10:12:27Z</time></trkpt><trkpt lat="39.58118721205892" lon="8.533461604687732"><ele>306.0</ele><time>2026-04-04T10:12:28Z</time></trkpt><trkpt lat="39.581223459671314" lon="8.533303805759175"><ele>306.0</ele><time>2026-04-04T10:12:29Z</time></trkpt><trkpt lat="39.581262098541885" lon="8.533131156468025"><ele>306.0</ele><time>2026-04-04T10:12:30Z</time></trkpt><trkpt lat="39.581320503955425" lon="8.532959996141406"><ele>304.0</ele><time>2026-04-04T10:12:31Z</time></trkpt><trkpt lat="39.58137354468742" lon="8.532788838250733"><ele>302.0</ele><time>2026-04-04T10:12:32Z</time></trkpt><trkpt lat="39.581436400192764" lon="8.532644887108447"><ele>300.0</ele><time>2026-04-04T10:12:33Z</time></trkpt><trkpt lat="39.581520112503426" lon="8.532540186404095"><ele>298.0</ele><time>2026-04-04T10:12:34Z</time></trkpt><trkpt lat="39.58163259499878" lon="8.532511642319326"><ele>298.0</ele><time>2026-04-04T10:12:35Z</time></trkpt><trkpt lat="39.58173237054438" lon="8.532562860393895"><ele>298.0</ele><time>2026-04-04T10:12:36Z</time></trkpt><trkpt lat="39.58182368171878" lon="8.532631770350855"><ele>298.0</ele><time>2026-04-04T10:12:37Z</time></trkpt><trkpt lat="39.58187685748069" lon="8.532775624391649"><ele>298.0</ele><time>2026-04-04T10:12:38Z</time></trkpt><trkpt lat="39.58193074809812" lon="8.532930393624921"><ele>298.0</ele><time>2026-04-04T10:12:39Z</time></trkpt><trkpt lat="39.58196006682874" lon="8.533106427055255"><ele>298.0</ele><time>2026-04-04T10:12:40Z</time></trkpt><trkpt lat="39.58200486640222" lon="8.533271666487321"><ele>298.0</ele><time>2026-04-04T10:12:41Z</time></trkpt><trkpt lat="39.58206692490635" lon="8.533425241168995"><ele>298.0</ele><time>2026-04-04T10:12:42Z</time></trkpt><trkpt lat="39.5821608201075" lon="8.53355041026711"><ele>298.0</ele><time>2026-04-04T10:12:43Z</time></trkpt><trkpt lat="39.582266640107655" lon="8.533660456591663"><ele>298.0</ele><time>2026-04-04T10:12:44Z</time></trkpt><trkpt lat="39.582347924973746" lon="8.533769022126622"><ele>298.0</ele><time>2026-04-04T10:12:45Z</time></trkpt><trkpt lat="39.58240921466478" lon="8.533887195182752"><ele>298.0</ele><time>2026-04-04T10:12:46Z</time></trkpt><trkpt lat="39.582450248035904" lon="8.534007652749285"><ele>299.4</ele><time>2026-04-04T10:12:47Z</time></trkpt><trkpt lat="39.58249416540619" lon="8.53411817568453"><ele>300.8</ele><time>2026-04-04T10:12:48Z</time></trkpt><trkpt lat="39.58256243952834" lon="8.534192087770101"><ele>302.2</ele><time>2026-04-04T10:12:49Z</time></trkpt><trkpt lat="39.58264696193972" lon="8.534231501349435"><ele>303.6</ele><time>2026-04-04T10:12:50Z</time></trkpt><trkpt lat="39.58273731479527" lon="8.534217282610614"><ele>305.0</ele><time>2026-04-04T10:12:51Z</time></trkpt><trkpt lat="39.58281883269797" lon="8.534150234524443"><ele>305.75</ele><time>2026-04-04T10:12:52Z</time></trkpt><trkpt lat="39.58288624965642" lon="8.53405925913858"><ele>306.5</ele><time>2026-04-04T10:12:53Z</time></trkpt><trkpt lat="39.5829253262315" lon="8.53392831449834"><ele>307.25</ele><time>2026-04-04T10:12:54Z</time></trkpt><trkpt lat="39.58294776590357" lon="8.533766272012585"><ele>308.0</ele><time>2026-04-04T10:12:55Z</time></trkpt><trkpt lat="39.582989129360875" lon="8.533581343547171"><ele>308.0</ele><time>2026-04-04T10:12:56Z</time></trkpt><trkpt lat="39.58300431399648" lon="8.533379987777485"><ele>308.0</ele><time>2026-04-04T10:12:57Z</time></trkpt><trkpt lat="39.583053079384364" lon="8.533209231720107"><ele>308.0</ele><time>2026-04-04T10:12:58Z</time></trkpt><trkpt lat="39.583112763338995" lon="8.533062114439904"><ele>308.0</ele><time>2026-04-04T10:12:59Z</time></trkpt><trkpt lat="39.58321996024914" lon="8.53297449212523"><ele>304.25</ele><time>2026-04-04T10:13:00Z</time></trkpt><trkpt lat="39.583307121565504" lon="8.53285491904316"><ele>300.5</ele><time>2026-04-04T10:13:01Z</time></trkpt><trkpt lat="39.58340237209502" lon="8.532730779523945"><ele>296.75</ele><time>2026-04-04T10:13:02Z</time></trkpt><trkpt lat="39.5834787921482" lon="8.532567688702464"><ele>293.0</ele><time>2026-04-04T10:13:03Z</time></trkpt><trkpt lat="39.58354881729225" lon="8.532416945000213"><ele>293.0</ele><time>2026-04-04T10:13:04Z</time></trkpt><trkpt lat="39.583623090604114" lon="8.532288544848576"><ele>293.0</ele><time>2026-04-04T10:13:05Z</time></trkpt><trkpt lat="39.58371827314457" lon="8.532192465992438"><ele>293.0</ele><time>2026-04-04T10:13:06Z</time></trkpt><trkpt lat="39.583846097261976" lon="8.532124723216981"><ele>293.0</ele><time>2026-04-04T10:13:07Z</time></trkpt><trkpt lat="39.58399883078763" lon="8.532094794017716"><ele>292.33333333333337</ele><time>2026-04-04T10:13:08Z</time></trkpt><trkpt lat="39.584158595077746" lon="8.5320719554586"><ele>291.6666666666667</ele><time>2026-04-04T10:13:09Z</time></trkpt><trkpt lat="39.584302420147914" lon="8.53202214321894"><ele>291.0</ele><time>2026-04-04T10:13:10Z</time></trkpt><trkpt lat="39.584436188900725" lon="8.531915696158189"><ele>295.3333333333333</ele><time>2026-04-04T10:13:11Z</time></trkpt><trkpt lat="39.58455705864747" lon="8.531763140644784"><ele>299.66666666666663</ele><time>2026-04-04T10:13:12Z</time></trkpt><trkpt lat="39.58467041533944" lon="8.53161094457033"><ele>304.0</ele><time>2026-04-04T10:13:13Z</time></trkpt><trkpt lat="39.58479898852279" lon="8.531498885309574"><ele>304.0</ele><time>2026-04-04T10:13:14Z</time></trkpt><trkpt lat="39.58493827382755" lon="8.531421659282847"><ele>304.0</ele><time>2026-04-04T10:13:15Z</time></trkpt><trkpt lat="39.58507612783621" lon="8.531342117571134"><ele>304.0</ele><time>2026-04-04T10:13:16Z</time></trkpt><trkpt lat="39.585200433891735" lon="8.53128341606398"><ele>304.0</ele><time>2026-04-04T10:13:17Z</time></trkpt><trkpt lat="39.58531605893752" lon="8.53125572678654"><ele>304.75</ele><time>2026-04-04T10:13:18Z</time></trkpt><trkpt lat="39.585431218654506" lon="8.531236653149277"><ele>305.5</ele><time>2026-04-04T10:13:19Z</time></trkpt><trkpt lat="39.58555204821737" lon="8.531212140233386"><ele>306.25</ele><time>2026-04-04T10:13:20Z</time></trkpt><trkpt lat="39.585679845273724" lon="8.531181273879955"><ele>307.0</ele><time>2026-04-04T10:13:21Z</time></trkpt><trkpt lat="39.58580588856108" lon="8.53113615505975"><ele>304.25</ele><time>2026-04-04T10:13:22Z</time></trkpt><trkpt lat="39.585925289770415" lon="8.531080003636903"><ele>301.5</ele><time>2026-04-04T10:13:23Z</time></trkpt><trkpt lat="39.58603885519252" lon="8.53102792917442"><ele>298.75</ele><time>2026-04-04T10:13:24Z</time></trkpt><trkpt lat="39.58615399492266" lon="8.530989990788914"><ele>296.0</ele><time>2026-04-04T10:13:25Z</time></trkpt><trkpt lat="39.58627180217636" lon="8.530974602119347"><ele>294.5</ele><time>2026-04-04T10:13:26Z</time></trkpt><trkpt lat="39.58639413719055" lon="8.530992689202293"><ele>293.0</ele><time>2026-04-04T10:13:27Z</time></trkpt><trkpt lat="39.586524229915035" lon="8.531025211922442"><ele>291.5</ele><time>2026-04-04T10:13:28Z</time></trkpt><trkpt lat="39.586658686700716" lon="8.53105905728989"><ele>290.0</ele><time>2026-04-04T10:13:29Z</time></trkpt><trkpt lat="39.58679570451484" lon="8.531090094456795"><ele>290.0</ele><time>2026-04-04T10:13:30Z</time></trkpt><trkpt lat="39.58693489012149" lon="8.53111944434599"><ele>290.0</ele><time>2026-04-04T10:13:31Z</time></trkpt><trkpt lat="39.587073903518146" lon="8.531151801122038"><ele>290.0</ele><time>2026-04-04T10:13:32Z</time></trkpt><trkpt lat="39.587212276123616" lon="8.531184259501527"><ele>290.0</ele><time>2026-04-04T10:13:33Z</time></trkpt><trkpt lat="39.5873491373298" lon="8.531215362502687"><ele>292.25</ele><time>2026-04-04T10:13:34Z</time></trkpt><trkpt lat="39.587477132530566" lon="8.531259394654045"><ele>294.5</ele><time>2026-04-04T10:13:35Z</time></trkpt><trkpt lat="39.58758958476129" lon="8.531332379930507"><ele>296.75</ele><time>2026-04-04T10:13:36Z</time></trkpt><trkpt lat="39.58768358106037" lon="8.531435061107887"><ele>299.0</ele><time>2026-04-04T10:13:37Z</time></trkpt><trkpt lat="39.58777458583385" lon="8.531547441900072"><ele>298.25</ele><time>2026-04-04T10:13:38Z</time></trkpt><trkpt lat="39.587869246835766" lon="8.531661295910004"><ele>297.5</ele><time>2026-04-04T10:13:39Z</time></trkpt><trkpt lat="39.58795453437204" lon="8.531789779438299"><ele>296.75</ele><time>2026-04-04T10:13:40Z</time></trkpt><trkpt lat="39.58802186636802" lon="8.531928517925104"><ele>296.0</ele><time>2026-04-04T10:13:41Z</time></trkpt><trkpt lat="39.588077315879396" lon="8.53204807112246"><ele>296.0</ele><time>2026-04-04T10:13:42Z</time></trkpt><trkpt lat="39.5881462142069" lon="8.53212388072066"><ele>296.0</ele><time>2026-04-04T10:13:43Z</time></trkpt><trkpt lat="39.58823452351737" lon="8.532142475503042"><ele>296.0</ele><time>2026-04-04T10:13:44Z</time></trkpt><trkpt lat="39.588321949715954" lon="8.532115760078636"><ele>296.0</ele><time>2026-04-04T10:13:45Z</time></trkpt><trkpt lat="39.58839539084842" lon="8.532031519219641"><ele>296.0</ele><time>2026-04-04T10:13:46Z</time></trkpt><trkpt lat="39.58843983165282" lon="8.531901843294609"><ele>296.0</ele><time>2026-04-04T10:13:47Z</time></trkpt><trkpt lat="39.58846589960497" lon="8.531750136374258"><ele>296.0</ele><time>2026-04-04T10:13:48Z</time></trkpt><trkpt lat="39.588508860363596" lon="8.531601827475598"><ele>296.0</ele><time>2026-04-04T10:13:49Z</time></trkpt><trkpt lat="39.58858267733126" lon="8.53146734807616"><ele>296.0</ele><time>2026-04-04T10:13:50Z</time></trkpt><trkpt lat="39.5886712559654" lon="8.531338802532572"><ele>299.25</ele><time>2026-04-04T10:13:51Z</time></trkpt><trkpt lat="39.58876317044944" lon="8.531197982605429"><ele>302.5</ele><time>2026-04-04T10:13:52Z</time></trkpt><trkpt lat="39.58884865039846" lon="8.531042059056919"><ele>305.75</ele><time>2026-04-04T10:13:53Z</time></trkpt><trkpt lat="39.58891067299327" lon="8.530862156677378"><ele>309.0</ele><time>2026-04-04T10:13:54Z</time></trkpt><trkpt lat="39.58894943104588" lon="8.530660748341022"><ele>309.0</ele><time>2026-04-04T10:13:55Z</time></trkpt><trkpt lat="39.58897287377635" lon="8.53046143719111"><ele>309.0</ele><time>2026-04-04T10:13:56Z</time></trkpt><trkpt lat="39.58899781237998" lon="8.530270278276632"><ele>309.0</ele><time>2026-04-04T10:13:57Z</time></trkpt><trkpt lat="39.58902787871077" lon="8.530092411284885"><ele>309.0</ele><time>2026-04-04T10:13:58Z</time></trkpt><trkpt lat="39.58908285005644" lon="8.529944845512407"><ele>308.59999999999997</ele><time>2026-04-04T10:13:59Z</time></trkpt><trkpt lat="39.5891154696755" lon="8.52980893521773"><ele>308.2</ele><time>2026-04-04T10:14:00Z</time></trkpt><trkpt lat="39.58918415591305" lon="8.529715846898327"><ele>307.79999999999995</ele><time>2026-04-04T10:14:01Z</time></trkpt><trkpt lat="39.58926617758652" lon="8.52965794959438"><ele>307.4</ele><time>2026-04-04T10:14:02Z</time></trkpt><trkpt lat="39.58937075320225" lon="8.529606166907572"><ele>307.0</ele><time>2026-04-04T10:14:03Z</time></trkpt><trkpt lat="39.589486847772356" lon="8.529531579247342"><ele>307.25</ele><time>2026-04-04T10:14:04Z</time></trkpt><trkpt lat="39.5896146407926" lon="8.529447954177796"><ele>307.5</ele><time>2026-04-04T10:14:05Z</time></trkpt><trkpt lat="39.5897478027126" lon="8.529361082123346"><ele>307.75</ele><time>2026-04-04T10:14:06Z</time></trkpt><trkpt lat="39.58987788010487" lon="8.529268588696066"><ele>308.0</ele><time>2026-04-04T10:14:07Z</time></trkpt><trkpt lat="39.59000315278432" lon="8.529178638564398"><ele>308.0</ele><time>2026-04-04T10:14:08Z</time></trkpt><trkpt lat="39.59012411353948" lon="8.529101141734888"><ele>308.0</ele><time>2026-04-04T10:14:09Z</time></trkpt><trkpt lat="39.590238618175356" lon="8.529036698407683"><ele>308.0</ele><time>2026-04-04T10:14:10Z</time></trkpt><trkpt lat="39.5903429801873" lon="8.528979244624528"><ele>308.0</ele><time>2026-04-04T10:14:11Z</time></trkpt><trkpt lat="39.5904464845374" lon="8.528928159068158"><ele>309.25</ele><time>2026-04-04T10:14:12Z</time></trkpt><trkpt lat="39.5905563275377" lon="8.5288869841061"><ele>310.5</ele><time>2026-04-04T10:14:13Z</time></trkpt><trkpt lat="39.59066885326457" lon="8.528874302363501"><ele>311.75</ele><time>2026-04-04T10:14:14Z</time></trkpt><trkpt lat="39.590775005546575" lon="8.52890320998174"><ele>313.0</ele><time>2026-04-04T10:14:15Z</time></trkpt><trkpt lat="39.59088554343383" lon="8.5289598214654"><ele>313.0</ele><time>2026-04-04T10:14:16Z</time></trkpt><trkpt lat="39.591011067909186" lon="8.528992357934412"><ele>313.0</ele><time>2026-04-04T10:14:17Z</time></trkpt><trkpt lat="39.59114458133286" lon="8.528992639959618"><ele>313.0</ele><time>2026-04-04T10:14:18Z</time></trkpt><trkpt lat="39.59128577915138" lon="8.52897391752497"><ele>313.0</ele><time>2026-04-04T10:14:19Z</time></trkpt><trkpt lat="39.59142558487001" lon="8.528951512225534"><ele>311.5</ele><time>2026-04-04T10:14:20Z</time></trkpt><trkpt lat="39.59155843425344" lon="8.528930044076178"><ele>310.0</ele><time>2026-04-04T10:14:21Z</time></trkpt><trkpt lat="39.591689847037074" lon="8.528907565955533"><ele>308.5</ele><time>2026-04-04T10:14:22Z</time></trkpt><trkpt lat="39.591821233517784" lon="8.528887618573068"><ele>307.0</ele><time>2026-04-04T10:14:23Z</time></trkpt><trkpt lat="39.591952505717664" lon="8.52886892400729"><ele>306.25</ele><time>2026-04-04T10:14:24Z</time></trkpt><trkpt lat="39.59208248311421" lon="8.528848287259706"><ele>305.5</ele><time>2026-04-04T10:14:25Z</time></trkpt><trkpt lat="39.592211087027565" lon="8.52882662014168"><ele>304.75</ele><time>2026-04-04T10:14:26Z</time></trkpt><trkpt lat="39.59233436869016" lon="8.52881130438934"><ele>304.0</ele><time>2026-04-04T10:14:27Z</time></trkpt><trkpt lat="39.59245121414914" lon="8.528832806764516"><ele>304.0</ele><time>2026-04-04T10:14:28Z</time></trkpt><trkpt lat="39.59255196445784" lon="8.528891713400178"><ele>304.0</ele><time>2026-04-04T10:14:29Z</time></trkpt><trkpt lat="39.592632242314245" lon="8.528988559332262"><ele>304.0</ele><time>2026-04-04T10:14:30Z</time></trkpt><trkpt lat="39.59269945915423" lon="8.52909697909935"><ele>304.0</ele><time>2026-04-04T10:14:31Z</time></trkpt><trkpt lat="39.59277238142289" lon="8.529205641257818"><ele>304.0</ele><time>2026-04-04T10:14:32Z</time></trkpt><trkpt lat="39.59284635638312" lon="8.529321460974446"><ele>300.25</ele><time>2026-04-04T10:14:33Z</time></trkpt><trkpt lat="39.592917052657675" lon="8.529443932858035"><ele>296.5</ele><time>2026-04-04T10:14:34Z</time></trkpt><trkpt lat="39.59298333518374" lon="8.529568339466442"><ele>292.75</ele><time>2026-04-04T10:14:35Z</time></trkpt><trkpt lat="39.59304214205989" lon="8.529694257027531"><ele>289.0</ele><time>2026-04-04T10:14:36Z</time></trkpt><trkpt lat="39.59307721353528" lon="8.52982883056355"><ele>289.0</ele><time>2026-04-04T10:14:37Z</time></trkpt><trkpt lat="39.59308224563588" lon="8.529966435245454"><ele>289.0</ele><time>2026-04-04T10:14:38Z</time></trkpt><trkpt lat="39.59307657496555" lon="8.530115848581314"><ele>289.0</ele><time>2026-04-04T10:14:39Z</time></trkpt><trkpt lat="39.59309712586156" lon="8.530248398986991"><ele>289.0</ele><time>2026-04-04T10:14:40Z</time></trkpt><trkpt lat="39.59312952936102" lon="8.530385848768569"><ele>289.0</ele><time>2026-04-04T10:14:41Z</time></trkpt><trkpt lat="39.59318995149121" lon="8.530511798715905"><ele>291.0</ele><time>2026-04-04T10:14:42Z</time></trkpt><trkpt lat="39.593269120430946" lon="8.530613877190877"><ele>293.0</ele><time>2026-04-04T10:14:43Z</time></trkpt><trkpt lat="39.593339723366405" lon="8.530720902347547"><ele>295.0</ele><time>2026-04-04T10:14:44Z</time></trkpt><trkpt lat="39.59339179731423" lon="8.5308496996488"><ele>297.0</ele><time>2026-04-04T10:14:45Z</time></trkpt><trkpt lat="39.59343294744295" lon="8.530994778418744"><ele>297.0</ele><time>2026-04-04T10:14:46Z</time></trkpt><trkpt lat="39.59346219353628" lon="8.531143173820015"><ele>297.0</ele><time>2026-04-04T10:14:47Z</time></trkpt><trkpt lat="39.5934941658423" lon="8.531294585668338"><ele>297.0</ele><time>2026-04-04T10:14:48Z</time></trkpt><trkpt lat="39.593525295179276" lon="8.531446254988747"><ele>297.0</ele><time>2026-04-04T10:14:49Z</time></trkpt><trkpt lat="39.59356960748638" lon="8.5315940754207"><ele>298.0</ele><time>2026-04-04T10:14:50Z</time></trkpt><trkpt lat="39.59362738941529" lon="8.531736011902433"><ele>299.0</ele><time>2026-04-04T10:14:51Z</time></trkpt><trkpt lat="39.593688743213626" lon="8.53187544602298"><ele>300.0</ele><time>2026-04-04T10:14:52Z</time></trkpt><trkpt lat="39.59375069605312" lon="8.532018964373615"><ele>301.0</ele><time>2026-04-04T10:14:53Z</time></trkpt><trkpt lat="39.59381236442982" lon="8.532156961433172"><ele>301.0</ele><time>2026-04-04T10:14:54Z</time></trkpt><trkpt lat="39.59387181179387" lon="8.532286197124092"><ele>301.0</ele><time>2026-04-04T10:14:55Z</time></trkpt><trkpt lat="39.59393212192885" lon="8.532403784021074"><ele>301.0</ele><time>2026-04-04T10:14:56Z</time></trkpt><trkpt lat="39.594003775802705" lon="8.532488240896289"><ele>301.0</ele><time>2026-04-04T10:14:57Z</time></trkpt><trkpt lat="39.5940953922338" lon="8.532521625729844"><ele>301.0</ele><time>2026-04-04T10:14:58Z</time></trkpt><trkpt lat="39.59419047020215" lon="8.532479808656442"><ele>301.0</ele><time>2026-04-04T10:14:59Z</time></trkpt><trkpt lat="39.59427698624708" lon="8.53238683783629"><ele>301.0</ele><time>2026-04-04T10:15:00Z</time></trkpt><trkpt lat="39.5943507299388" lon="8.532250223647345"><ele>301.0</ele><time>2026-04-04T10:15:01Z</time></trkpt><trkpt lat="39.59442590707019" lon="8.532111717394542"><ele>301.0</ele><time>2026-04-04T10:15:02Z</time></trkpt><trkpt lat="39.594510125663696" lon="8.531965239766498"><ele>302.5</ele><time>2026-04-04T10:15:03Z</time></trkpt><trkpt lat="39.59460063531033" lon="8.531815449851441"><ele>304.0</ele><time>2026-04-04T10:15:04Z</time></trkpt><trkpt lat="39.594696520976775" lon="8.531671177415957"><ele>305.5</ele><time>2026-04-04T10:15:05Z</time></trkpt><trkpt lat="39.59478916754777" lon="8.531526857671915"><ele>307.0</ele><time>2026-04-04T10:15:06Z</time></trkpt><trkpt lat="39.594876091639186" lon="8.531382098454598"><ele>307.0</ele><time>2026-04-04T10:15:07Z</time></trkpt><trkpt lat="39.594986711680505" lon="8.531270922282584"><ele>307.0</ele><time>2026-04-04T10:15:08Z</time></trkpt><trkpt lat="39.59511507761629" lon="8.531183656545476"><ele>307.0</ele><time>2026-04-04T10:15:09Z</time></trkpt><trkpt lat="39.5952386052423" lon="8.531096281880615"><ele>307.0</ele><time>2026-04-04T10:15:10Z</time></trkpt><trkpt lat="39.59537174768779" lon="8.531038506499328"><ele>305.0</ele><time>2026-04-04T10:15:11Z</time></trkpt><trkpt lat="39.59550892690323" lon="8.530990012849697"><ele>303.0</ele><time>2026-04-04T10:15:12Z</time></trkpt><trkpt lat="39.595647344016186" lon="8.530937377245758"><ele>301.0</ele><time>2026-04-04T10:15:13Z</time></trkpt><trkpt lat="39.595779358658795" lon="8.530884241371181"><ele>299.0</ele><time>2026-04-04T10:15:14Z</time></trkpt><trkpt lat="39.59590275245682" lon="8.53085584353002"><ele>299.0</ele><time>2026-04-04T10:15:15Z</time></trkpt><trkpt lat="39.5960202292602" lon="8.530859321444657"><ele>299.0</ele><time>2026-04-04T10:15:16Z</time></trkpt><trkpt lat="39.59612511241939" lon="8.53090433560121"><ele>299.0</ele><time>2026-04-04T10:15:17Z</time></trkpt><trkpt lat="39.59621129484156" lon="8.530982665310193"><ele>299.0</ele><time>2026-04-04T10:15:18Z</time></trkpt><trkpt lat="39.596304478155126" lon="8.531059363305655"><ele>299.0</ele><time>2026-04-04T10:15:19Z</time></trkpt><trkpt lat="39.596410232015565" lon="8.531127209785945"><ele>297.25</ele><time>2026-04-04T10:15:20Z</time></trkpt><trkpt lat="39.59651703909331" lon="8.531199956458583"><ele>295.5</ele><time>2026-04-04T10:15:21Z</time></trkpt><trkpt lat="39.596617856998215" lon="8.531293748800408"><ele>293.75</ele><time>2026-04-04T10:15:22Z</time></trkpt><trkpt lat="39.59670467969278" lon="8.531415298652929"><ele>292.0</ele><time>2026-04-04T10:15:23Z</time></trkpt><trkpt lat="39.596777385311846" lon="8.53155665683159"><ele>292.5</ele><time>2026-04-04T10:15:24Z</time></trkpt><trkpt lat="39.59685301087626" lon="8.531698197193826"><ele>293.0</ele><time>2026-04-04T10:15:25Z</time></trkpt><trkpt lat="39.59694097474434" lon="8.531820629296638"><ele>293.5</ele><time>2026-04-04T10:15:26Z</time></trkpt><trkpt lat="39.597042573869906" lon="8.53192727624277"><ele>294.0</ele><time>2026-04-04T10:15:27Z</time></trkpt><trkpt lat="39.59714790491142" lon="8.532029379478242"><ele>297.25</ele><time>2026-04-04T10:15:28Z</time></trkpt><trkpt lat="39.597241065979645" lon="8.532144496815611"><ele>300.5</ele><time>2026-04-04T10:15:29Z</time></trkpt><trkpt lat="39.59731528176564" lon="8.532275523915311"><ele>303.75</ele><time>2026-04-04T10:15:30Z</time></trkpt><trkpt lat="39.59739209480158" lon="8.532369847680432"><ele>307.0</ele><time>2026-04-04T10:15:31Z</time></trkpt><trkpt lat="39.59746989006325" lon="8.532448699940025"><ele>307.0</ele><time>2026-04-04T10:15:32Z</time></trkpt><trkpt lat="39.5974804811902" lon="8.532642318461534"><ele>307.0</ele><time>2026-04-04T10:15:33Z</time></trkpt><trkpt lat="39.59755915602486" lon="8.5327132386472"><ele>307.0</ele><time>2026-04-04T10:15:34Z</time></trkpt><trkpt lat="39.59764983839077" lon="8.532729620852034"><ele>307.0</ele><time>2026-04-04T10:15:35Z</time></trkpt><trkpt lat="39.59774199746785" lon="8.532694159304313"><ele>307.0</ele><time>2026-04-04T10:15:36Z</time></trkpt><trkpt lat="39.5978224433762" lon="8.532614706687362"><ele>309.5</ele><time>2026-04-04T10:15:37Z</time></trkpt><trkpt lat="39.59789825356921" lon="8.532507228299153"><ele>312.0</ele><time>2026-04-04T10:15:38Z</time></trkpt><trkpt lat="39.59797969728932" lon="8.532399964349903"><ele>314.5</ele><time>2026-04-04T10:15:39Z</time></trkpt><trkpt lat="39.59806847457203" lon="8.532286848667649"><ele>317.0</ele><time>2026-04-04T10:15:40Z</time></trkpt><trkpt lat="39.59816008987429" lon="8.53216689027078"><ele>313.25</ele><time>2026-04-04T10:15:41Z</time></trkpt><trkpt lat="39.59825543206367" lon="8.532046586026732"><ele>309.5</ele><time>2026-04-04T10:15:42Z</time></trkpt><trkpt lat="39.59835320656443" lon="8.531938986388807"><ele>305.75</ele><time>2026-04-04T10:15:43Z</time></trkpt><trkpt lat="39.59845480021738" lon="8.531862047670806"><ele>302.0</ele><time>2026-04-04T10:15:44Z</time></trkpt><trkpt lat="39.59857025227677" lon="8.531822691395284"><ele>303.0</ele><time>2026-04-04T10:15:45Z</time></trkpt><trkpt lat="39.59869565498589" lon="8.531787251543145"><ele>304.0</ele><time>2026-04-04T10:15:46Z</time></trkpt><trkpt lat="39.59882322886258" lon="8.531742419715274"><ele>305.0</ele><time>2026-04-04T10:15:47Z</time></trkpt><trkpt lat="39.59895687104768" lon="8.53169372286589"><ele>306.0</ele><time>2026-04-04T10:15:48Z</time></trkpt><trkpt lat="39.5990976528962" lon="8.531650779110313"><ele>306.0</ele><time>2026-04-04T10:15:49Z</time></trkpt><trkpt lat="39.599231740797244" lon="8.531611972268024"><ele>306.0</ele><time>2026-04-04T10:15:50Z</time></trkpt><trkpt lat="39.59936023459541" lon="8.53157482590847"><ele>306.0</ele><time>2026-04-04T10:15:51Z</time></trkpt><trkpt lat="39.599485235572" lon="8.531534016786802"><ele>306.0</ele><time>2026-04-04T10:15:52Z</time></trkpt><trkpt lat="39.59959723592871" lon="8.531472049611388"><ele>306.0</ele><time>2026-04-04T10:15:53Z</time></trkpt><trkpt lat="39.59968493120836" lon="8.53137240398645"><ele>306.0</ele><time>2026-04-04T10:15:54Z</time></trkpt><trkpt lat="39.599741195611074" lon="8.531224680479875"><ele>306.0</ele><time>2026-04-04T10:15:55Z</time></trkpt><trkpt lat="39.59977622289076" lon="8.531057068798805"><ele>306.0</ele><time>2026-04-04T10:15:56Z</time></trkpt><trkpt lat="39.59981508269963" lon="8.530885883805741"><ele>306.0</ele><time>2026-04-04T10:15:57Z</time></trkpt><trkpt lat="39.59986116406254" lon="8.530711441458047"><ele>306.0</ele><time>2026-04-04T10:15:58Z</time></trkpt><trkpt lat="39.59991218255721" lon="8.530534539104595"><ele>306.0</ele><time>2026-04-04T10:15:59Z</time></trkpt><trkpt lat="39.599964524226735" lon="8.530356294503013"><ele>306.0</ele><time>2026-04-04T10:16:00Z</time></trkpt><trkpt lat="39.600013045952295" lon="8.53017474562443"><ele>304.75</ele><time>2026-04-04T10:16:01Z</time></trkpt><trkpt lat="39.60005979180396" lon="8.529992053695448"><ele>303.5</ele><time>2026-04-04T10:16:02Z</time></trkpt><trkpt lat="39.60010511679217" lon="8.52980582520075"><ele>302.25</ele><time>2026-04-04T10:16:03Z</time></trkpt><trkpt lat="39.60015047747" lon="8.529622010545621"><ele>301.0</ele><time>2026-04-04T10:16:04Z</time></trkpt><trkpt lat="39.60019422396426" lon="8.529443191439832"><ele>300.5</ele><time>2026-04-04T10:16:05Z</time></trkpt><trkpt lat="39.60022996394018" lon="8.529271661427162"><ele>300.0</ele><time>2026-04-04T10:16:06Z</time></trkpt><trkpt lat="39.60025927766339" lon="8.529111564181692"><ele>299.5</ele><time>2026-04-04T10:16:07Z</time></trkpt><trkpt lat="39.600292730229135" lon="8.528963301724525"><ele>299.0</ele><time>2026-04-04T10:16:08Z</time></trkpt><trkpt lat="39.60034287471062" lon="8.528837746955872"><ele>300.5</ele><time>2026-04-04T10:16:09Z</time></trkpt><trkpt lat="39.60041580054499" lon="8.528736931769854"><ele>302.0</ele><time>2026-04-04T10:16:10Z</time></trkpt><trkpt lat="39.60050748487016" lon="8.52866316148617"><ele>303.5</ele><time>2026-04-04T10:16:11Z</time></trkpt><trkpt lat="39.60061406622519" lon="8.528597026283093"><ele>305.0</ele><time>2026-04-04T10:16:12Z</time></trkpt><trkpt lat="39.60072493323097" lon="8.52853276857196"><ele>305.0</ele><time>2026-04-04T10:16:13Z</time></trkpt><trkpt lat="39.6008393144822" lon="8.528456807632818"><ele>305.0</ele><time>2026-04-04T10:16:14Z</time></trkpt><trkpt lat="39.600953773259114" lon="8.528363317936511"><ele>305.0</ele><time>2026-04-04T10:16:15Z</time></trkpt><trkpt lat="39.60106485874713" lon="8.528251458886814"><ele>305.0</ele><time>2026-04-04T10:16:16Z</time></trkpt><trkpt lat="39.60116461913154" lon="8.528127490984813"><ele>305.5</ele><time>2026-04-04T10:16:17Z</time></trkpt><trkpt lat="39.60126042391482" lon="8.527998766153756"><ele>306.0</ele><time>2026-04-04T10:16:18Z</time></trkpt><trkpt lat="39.60134170909329" lon="8.527853542024154"><ele>306.5</ele><time>2026-04-04T10:16:19Z</time></trkpt><trkpt lat="39.601402042030635" lon="8.527689854684697"><ele>307.0</ele><time>2026-04-04T10:16:20Z</time></trkpt><trkpt lat="39.601452220709824" lon="8.52752385968514"><ele>307.0</ele><time>2026-04-04T10:16:21Z</time></trkpt><trkpt lat="39.601509996594096" lon="8.527364102984599"><ele>307.0</ele><time>2026-04-04T10:16:22Z</time></trkpt><trkpt lat="39.601571890994826" lon="8.527214000405957"><ele>307.0</ele><time>2026-04-04T10:16:23Z</time></trkpt><trkpt lat="39.60164699694112" lon="8.527087608386939"><ele>307.0</ele><time>2026-04-04T10:16:24Z</time></trkpt><trkpt lat="39.601751885740555" lon="8.527011189998777"><ele>305.5</ele><time>2026-04-04T10:16:25Z</time></trkpt><trkpt lat="39.601876599844736" lon="8.526960135356802"><ele>304.0</ele><time>2026-04-04T10:16:26Z</time></trkpt><trkpt lat="39.602000004382795" lon="8.526894133054684"><ele>302.5</ele><time>2026-04-04T10:16:27Z</time></trkpt><trkpt lat="39.60213187069996" lon="8.52682260827897"><ele>301.0</ele><time>2026-04-04T10:16:28Z</time></trkpt><trkpt lat="39.60226702006998" lon="8.52674666714278"><ele>301.0</ele><time>2026-04-04T10:16:29Z</time></trkpt><trkpt lat="39.60240446828917" lon="8.526664706759384"><ele>301.0</ele><time>2026-04-04T10:16:30Z</time></trkpt><trkpt lat="39.602539640050665" lon="8.526585653351129"><ele>301.0</ele><time>2026-04-04T10:16:31Z</time></trkpt><trkpt lat="39.60266900569386" lon="8.526514570562366"><ele>301.0</ele><time>2026-04-04T10:16:32Z</time></trkpt><trkpt lat="39.60279629780749" lon="8.526457838657562"><ele>301.25</ele><time>2026-04-04T10:16:33Z</time></trkpt><trkpt lat="39.60292738157645" lon="8.52644904286495"><ele>301.5</ele><time>2026-04-04T10:16:34Z</time></trkpt><trkpt lat="39.60305984112575" lon="8.526478433067277"><ele>301.75</ele><time>2026-04-04T10:16:35Z</time></trkpt><trkpt lat="39.60319219945136" lon="8.526518673296714"><ele>302.0</ele><time>2026-04-04T10:16:36Z</time></trkpt><trkpt lat="39.6033264382958" lon="8.5265623607879"><ele>302.0</ele><time>2026-04-04T10:16:37Z</time></trkpt><trkpt lat="39.603447382842155" lon="8.526630059819379"><ele>302.0</ele><time>2026-04-04T10:16:38Z</time></trkpt><trkpt lat="39.603549557931395" lon="8.526707635041648"><ele>302.0</ele><time>2026-04-04T10:16:39Z</time></trkpt><trkpt lat="39.603636256358534" lon="8.526757667759945"><ele>302.0</ele><time>2026-04-04T10:16:40Z</time></trkpt><trkpt lat="39.60371912126397" lon="8.526755994237895"><ele>302.0</ele><time>2026-04-04T10:16:41Z</time></trkpt><trkpt lat="39.60378419417502" lon="8.526692448971334"><ele>301.6</ele><time>2026-04-04T10:16:42Z</time></trkpt><trkpt lat="39.60381205024134" lon="8.526570436810246"><ele>301.2</ele><time>2026-04-04T10:16:43Z</time></trkpt><trkpt lat="39.603810181087454" lon="8.526437469251466"><ele>300.8</ele><time>2026-04-04T10:16:44Z</time></trkpt><trkpt lat="39.60379990700407" lon="8.526296052300175"><ele>300.4</ele><time>2026-04-04T10:16:45Z</time></trkpt><trkpt lat="39.603771347582445" lon="8.526147695153991"><ele>300.0</ele><time>2026-04-04T10:16:46Z</time></trkpt><trkpt lat="39.60379527949241" lon="8.52598517397657"><ele>300.0</ele><time>2026-04-04T10:16:47Z</time></trkpt><trkpt lat="39.60383221316373" lon="8.525818734034022"><ele>300.0</ele><time>2026-04-04T10:16:48Z</time></trkpt><trkpt lat="39.60387052263916" lon="8.52564685745979"><ele>300.0</ele><time>2026-04-04T10:16:49Z</time></trkpt><trkpt lat="39.603926956378" lon="8.525485646876607"><ele>300.0</ele><time>2026-04-04T10:16:50Z</time></trkpt><trkpt lat="39.603969502858604" lon="8.525327531016147"><ele>297.25</ele><time>2026-04-04T10:16:51Z</time></trkpt><trkpt lat="39.60405480553905" lon="8.525201585919628"><ele>294.5</ele><time>2026-04-04T10:16:52Z</time></trkpt><trkpt lat="39.60415930409065" lon="8.525099970946657"><ele>291.75</ele><time>2026-04-04T10:16:53Z</time></trkpt><trkpt lat="39.604272669307655" lon="8.525013201284198"><ele>289.0</ele><time>2026-04-04T10:16:54Z</time></trkpt><trkpt lat="39.60437484529651" lon="8.524905107752963"><ele>289.0</ele><time>2026-04-04T10:16:55Z</time></trkpt><trkpt lat="39.60444157355568" lon="8.524779739704892"><ele>289.0</ele><time>2026-04-04T10:16:56Z</time></trkpt><trkpt lat="39.604457049345406" lon="8.524630247836607"><ele>289.0</ele><time>2026-04-04T10:16:57Z</time></trkpt><trkpt lat="39.60443290615108" lon="8.524476774368855"><ele>289.0</ele><time>2026-04-04T10:16:58Z</time></trkpt><trkpt lat="39.604431881758885" lon="8.524312134639423"><ele>288.75</ele><time>2026-04-04T10:16:59Z</time></trkpt><trkpt lat="39.60442250079158" lon="8.524147490349328"><ele>288.5</ele><time>2026-04-04T10:17:00Z</time></trkpt><trkpt lat="39.60446082335283" lon="8.523987785157392"><ele>288.25</ele><time>2026-04-04T10:17:01Z</time></trkpt><trkpt lat="39.60451664560324" lon="8.52384712576481"><ele>288.0</ele><time>2026-04-04T10:17:02Z</time></trkpt><trkpt lat="39.60457904723268" lon="8.52370670093584"><ele>288.0</ele><time>2026-04-04T10:17:03Z</time></trkpt><trkpt lat="39.60466493700429" lon="8.523587275720187"><ele>288.0</ele><time>2026-04-04T10:17:04Z</time></trkpt><trkpt lat="39.60475905914866" lon="8.523471239382769"><ele>288.0</ele><time>2026-04-04T10:17:05Z</time></trkpt><trkpt lat="39.60485660228761" lon="8.523353297395296"><ele>288.0</ele><time>2026-04-04T10:17:06Z</time></trkpt><trkpt lat="39.6049567715947" lon="8.52323174662851"><ele>288.0</ele><time>2026-04-04T10:17:07Z</time></trkpt><trkpt lat="39.60505897556124" lon="8.52310637860535"><ele>288.0</ele><time>2026-04-04T10:17:08Z</time></trkpt><trkpt lat="39.605162626139226" lon="8.522982512216231"><ele>288.0</ele><time>2026-04-04T10:17:09Z</time></trkpt><trkpt lat="39.605265734942186" lon="8.522860601694653"><ele>288.0</ele><time>2026-04-04T10:17:10Z</time></trkpt><trkpt lat="39.60536154326945" lon="8.522743487918286"><ele>285.25</ele><time>2026-04-04T10:17:11Z</time></trkpt><trkpt lat="39.60546018347156" lon="8.522660288681783"><ele>282.5</ele><time>2026-04-04T10:17:12Z</time></trkpt><trkpt lat="39.605577573074115" lon="8.52264403758537"><ele>279.75</ele><time>2026-04-04T10:17:13Z</time></trkpt><trkpt lat="39.60570322357903" lon="8.522658577573289"><ele>277.0</ele><time>2026-04-04T10:17:14Z</time></trkpt><trkpt lat="39.605831169167274" lon="8.522661702132256"><ele>277.0</ele><time>2026-04-04T10:17:15Z</time></trkpt><trkpt lat="39.60596244816441" lon="8.522659650354734"><ele>277.0</ele><time>2026-04-04T10:17:16Z</time></trkpt><trkpt lat="39.60609629299188" lon="8.522654266277065"><ele>277.0</ele><time>2026-04-04T10:17:17Z</time></trkpt><trkpt lat="39.60622074062653" lon="8.522636515222613"><ele>277.0</ele><time>2026-04-04T10:17:18Z</time></trkpt><trkpt lat="39.606330611231556" lon="8.522582248099049"><ele>277.5</ele><time>2026-04-04T10:17:19Z</time></trkpt><trkpt lat="39.606411102804636" lon="8.522483536959028"><ele>278.0</ele><time>2026-04-04T10:17:20Z</time></trkpt><trkpt lat="39.60645812810599" lon="8.522347474690969"><ele>278.5</ele><time>2026-04-04T10:17:21Z</time></trkpt><trkpt lat="39.60649242973641" lon="8.522192769236888"><ele>279.0</ele><time>2026-04-04T10:17:22Z</time></trkpt><trkpt lat="39.60650911617423" lon="8.522030928457182"><ele>279.0</ele><time>2026-04-04T10:17:23Z</time></trkpt><trkpt lat="39.60652589822819" lon="8.521876175608723"><ele>279.0</ele><time>2026-04-04T10:17:24Z</time></trkpt><trkpt lat="39.60655303632385" lon="8.521734508584018"><ele>279.0</ele><time>2026-04-04T10:17:25Z</time></trkpt><trkpt lat="39.60660802929762" lon="8.521599799711183"><ele>279.0</ele><time>2026-04-04T10:17:26Z</time></trkpt><trkpt lat="39.60670320269931" lon="8.521488440507953"><ele>279.0</ele><time>2026-04-04T10:17:27Z</time></trkpt><trkpt lat="39.606804138861776" lon="8.521377395914719"><ele>279.0</ele><time>2026-04-04T10:17:28Z</time></trkpt><trkpt lat="39.606919359081914" lon="8.5212823666882"><ele>279.0</ele><time>2026-04-04T10:17:29Z</time></trkpt><trkpt lat="39.607041127928504" lon="8.521196780823393"><ele>279.0</ele><time>2026-04-04T10:17:30Z</time></trkpt><trkpt lat="39.60716855337611" lon="8.52111280559006"><ele>277.25</ele><time>2026-04-04T10:17:31Z</time></trkpt><trkpt lat="39.607299453265476" lon="8.521033439878375"><ele>275.5</ele><time>2026-04-04T10:17:32Z</time></trkpt><trkpt lat="39.6074332495174" lon="8.520971900158715"><ele>273.75</ele><time>2026-04-04T10:17:33Z</time></trkpt><trkpt lat="39.60757080652198" lon="8.520926717227475"><ele>272.0</ele><time>2026-04-04T10:17:34Z</time></trkpt><trkpt lat="39.60770434542292" lon="8.520893567614648"><ele>271.25</ele><time>2026-04-04T10:17:35Z</time></trkpt><trkpt lat="39.60783468416173" lon="8.520876661995498"><ele>270.5</ele><time>2026-04-04T10:17:36Z</time></trkpt><trkpt lat="39.607962053728805" lon="8.52088635838153"><ele>269.75</ele><time>2026-04-04T10:17:37Z</time></trkpt><trkpt lat="39.60808347427441" lon="8.520930099685401"><ele>269.0</ele><time>2026-04-04T10:17:38Z</time></trkpt><trkpt lat="39.608197502735116" lon="8.521001873451409"><ele>269.0</ele><time>2026-04-04T10:17:39Z</time></trkpt><trkpt lat="39.60831150643745" lon="8.52108213226013"><ele>269.0</ele><time>2026-04-04T10:17:40Z</time></trkpt><trkpt lat="39.60842652327371" lon="8.521164670676045"><ele>269.0</ele><time>2026-04-04T10:17:41Z</time></trkpt><trkpt lat="39.60854163759077" lon="8.521253041887526"><ele>269.0</ele><time>2026-04-04T10:17:42Z</time></trkpt><trkpt lat="39.60865106562482" lon="8.521359690070677"><ele>270.0</ele><time>2026-04-04T10:17:43Z</time></trkpt><trkpt lat="39.608753359016916" lon="8.521486200530985"><ele>271.0</ele><time>2026-04-04T10:17:44Z</time></trkpt><trkpt lat="39.60885159604125" lon="8.5216219605015"><ele>272.0</ele><time>2026-04-04T10:17:45Z</time></trkpt><trkpt lat="39.60895060142362" lon="8.521755234210616"><ele>273.0</ele><time>2026-04-04T10:17:46Z</time></trkpt><trkpt lat="39.60905255022319" lon="8.521885873812595"><ele>273.0</ele><time>2026-04-04T10:17:47Z</time></trkpt><trkpt lat="39.60915178708608" lon="8.522014824268377"><ele>273.0</ele><time>2026-04-04T10:17:48Z</time></trkpt><trkpt lat="39.60924652766752" lon="8.522132615349644"><ele>273.0</ele><time>2026-04-04T10:17:49Z</time></trkpt><trkpt lat="39.60935062637478" lon="8.522215503283004"><ele>273.0</ele><time>2026-04-04T10:17:50Z</time></trkpt><trkpt lat="39.60945968732666" lon="8.522243032424084"><ele>274.5</ele><time>2026-04-04T10:17:51Z</time></trkpt><trkpt lat="39.6095626451799" lon="8.522207939225083"><ele>276.0</ele><time>2026-04-04T10:17:52Z</time></trkpt><trkpt lat="39.60964563600205" lon="8.522116536020963"><ele>277.5</ele><time>2026-04-04T10:17:53Z</time></trkpt><trkpt lat="39.60969919781843" lon="8.521974656248403"><ele>279.0</ele><time>2026-04-04T10:17:54Z</time></trkpt><trkpt lat="39.60973907483833" lon="8.521822877265528"><ele>279.0</ele><time>2026-04-04T10:17:55Z</time></trkpt><trkpt lat="39.60981275503007" lon="8.521702836898104"><ele>279.0</ele><time>2026-04-04T10:17:56Z</time></trkpt><trkpt lat="39.60991506091533" lon="8.521596975206865"><ele>279.0</ele><time>2026-04-04T10:17:57Z</time></trkpt><trkpt lat="39.61003952884987" lon="8.521494188342075"><ele>279.0</ele><time>2026-04-04T10:17:58Z</time></trkpt><trkpt lat="39.61015810681492" lon="8.521380490222423"><ele>279.0</ele><time>2026-04-04T10:17:59Z</time></trkpt><trkpt lat="39.610276730644344" lon="8.521274489789691"><ele>279.0</ele><time>2026-04-04T10:18:00Z</time></trkpt><trkpt lat="39.61038639203122" lon="8.521179100929885"><ele>279.0</ele><time>2026-04-04T10:18:01Z</time></trkpt><trkpt lat="39.610474376410664" lon="8.521085747795913"><ele>279.0</ele><time>2026-04-04T10:18:02Z</time></trkpt><trkpt lat="39.61053170107157" lon="8.52097874699677"><ele>280.5</ele><time>2026-04-04T10:18:03Z</time></trkpt><trkpt lat="39.610561237776636" lon="8.52086129924734"><ele>282.0</ele><time>2026-04-04T10:18:04Z</time></trkpt><trkpt lat="39.61049357284765" lon="8.520723848932107"><ele>283.5</ele><time>2026-04-04T10:18:05Z</time></trkpt><trkpt lat="39.61043662084896" lon="8.520560878764325"><ele>285.0</ele><time>2026-04-04T10:18:06Z</time></trkpt><trkpt lat="39.610367351429616" lon="8.520393967404285"><ele>280.3333333333333</ele><time>2026-04-04T10:18:07Z</time></trkpt><trkpt lat="39.61028897296149" lon="8.520205106699093"><ele>275.66666666666663</ele><time>2026-04-04T10:18:08Z</time></trkpt><trkpt lat="39.6102019123864" lon="8.519995324770598"><ele>271.0</ele><time>2026-04-04T10:18:09Z</time></trkpt><trkpt lat="39.61010971961299" lon="8.51976378220588"><ele>274.0</ele><time>2026-04-04T10:18:10Z</time></trkpt><trkpt lat="39.61001240542739" lon="8.519513690205207"><ele>277.0</ele><time>2026-04-04T10:18:11Z</time></trkpt><trkpt lat="39.60993449723452" lon="8.51928688615963"><ele>280.0</ele><time>2026-04-04T10:18:12Z</time></trkpt><trkpt lat="39.60986637084778" lon="8.519075064712338"><ele>280.0</ele><time>2026-04-04T10:18:13Z</time></trkpt><trkpt lat="39.60980858824914" lon="8.518876595065795"><ele>280.0</ele><time>2026-04-04T10:18:14Z</time></trkpt><trkpt lat="39.609762535280396" lon="8.518693913491349"><ele>280.0</ele><time>2026-04-04T10:18:15Z</time></trkpt><trkpt lat="39.60973504156733" lon="8.518522523618417"><ele>280.0</ele><time>2026-04-04T10:18:16Z</time></trkpt><trkpt lat="39.6097260275191" lon="8.518344256357707"><ele>280.0</ele><time>2026-04-04T10:18:17Z</time></trkpt><trkpt lat="39.60976348085909" lon="8.5181472087231"><ele>280.0</ele><time>2026-04-04T10:18:18Z</time></trkpt><trkpt lat="39.60981248549739" lon="8.51794546904232"><ele>280.0</ele><time>2026-04-04T10:18:19Z</time></trkpt><trkpt lat="39.60987532762399" lon="8.517745604121995"><ele>280.0</ele><time>2026-04-04T10:18:20Z</time></trkpt><trkpt lat="39.60995404695298" lon="8.517562163390755"><ele>280.0</ele><time>2026-04-04T10:18:21Z</time></trkpt><trkpt lat="39.61004364742925" lon="8.517397274198132"><ele>280.0</ele><time>2026-04-04T10:18:22Z</time></trkpt><trkpt lat="39.61011911961785" lon="8.517230159364209"><ele>279.66666666666663</ele><time>2026-04-04T10:18:23Z</time></trkpt><trkpt lat="39.61016812147613" lon="8.517036525488548"><ele>279.3333333333333</ele><time>2026-04-04T10:18:24Z</time></trkpt><trkpt lat="39.61019866863416" lon="8.51682748039306"><ele>279.0</ele><time>2026-04-04T10:18:25Z</time></trkpt><trkpt lat="39.61022390889093" lon="8.51662071691236"><ele>279.0</ele><time>2026-04-04T10:18:26Z</time></trkpt><trkpt lat="39.61024845232268" lon="8.516424546417396"><ele>279.0</ele><time>2026-04-04T10:18:27Z</time></trkpt><trkpt lat="39.61026114345891" lon="8.516241676316067"><ele>279.0</ele><time>2026-04-04T10:18:28Z</time></trkpt><trkpt lat="39.61024507985718" lon="8.516070753304138"><ele>279.0</ele><time>2026-04-04T10:18:29Z</time></trkpt><trkpt lat="39.610211195461076" lon="8.515907196650145"><ele>280.5</ele><time>2026-04-04T10:18:30Z</time></trkpt><trkpt lat="39.61012104317127" lon="8.515765946772117"><ele>282.0</ele><time>2026-04-04T10:18:31Z</time></trkpt><trkpt lat="39.609995366027" lon="8.515725907790177"><ele>283.5</ele><time>2026-04-04T10:18:32Z</time></trkpt><trkpt lat="39.60987360119103" lon="8.515697791829314"><ele>285.0</ele><time>2026-04-04T10:18:33Z</time></trkpt><trkpt lat="39.609733032422795" lon="8.515637124629924"><ele>285.0</ele><time>2026-04-04T10:18:34Z</time></trkpt><trkpt lat="39.60957065047513" lon="8.51558404830946"><ele>285.0</ele><time>2026-04-04T10:18:35Z</time></trkpt><trkpt lat="39.609396932847446" lon="8.51552991218944"><ele>285.0</ele><time>2026-04-04T10:18:36Z</time></trkpt><trkpt lat="39.60921621231257" lon="8.515475478285513"><ele>283.6666666666667</ele><time>2026-04-04T10:18:37Z</time></trkpt><trkpt lat="39.609040455317874" lon="8.515422539392521"><ele>282.33333333333337</ele><time>2026-04-04T10:18:38Z</time></trkpt><trkpt lat="39.60887302860068" lon="8.51537210970459"><ele>281.0</ele><time>2026-04-04T10:18:39Z</time></trkpt><trkpt lat="39.608712985657284" lon="8.515323903962"><ele>283.0</ele><time>2026-04-04T10:18:40Z</time></trkpt><trkpt lat="39.60856075381416" lon="8.51527805104462"><ele>285.0</ele><time>2026-04-04T10:18:41Z</time></trkpt><trkpt lat="39.60841137780833" lon="8.515232611363176"><ele>287.0</ele><time>2026-04-04T10:18:42Z</time></trkpt><trkpt lat="39.60826679677492" lon="8.515207338208217"><ele>287.0</ele><time>2026-04-04T10:18:43Z</time></trkpt><trkpt lat="39.608135687405905" lon="8.515124845812315"><ele>287.0</ele><time>2026-04-04T10:18:44Z</time></trkpt><trkpt lat="39.607977558548356" lon="8.515044056720452"><ele>287.0</ele><time>2026-04-04T10:18:45Z</time></trkpt><trkpt lat="39.60782756322158" lon="8.514967423088143"><ele>285.33333333333337</ele><time>2026-04-04T10:18:46Z</time></trkpt><trkpt lat="39.60767102752499" lon="8.514883274800113"><ele>283.6666666666667</ele><time>2026-04-04T10:18:47Z</time></trkpt><trkpt lat="39.60751384317239" lon="8.514798929457832"><ele>282.0</ele><time>2026-04-04T10:18:48Z</time></trkpt><trkpt lat="39.607358969512326" lon="8.514712902368869"><ele>282.0</ele><time>2026-04-04T10:18:49Z</time></trkpt><trkpt lat="39.60721567855864" lon="8.514632561705733"><ele>282.0</ele><time>2026-04-04T10:18:50Z</time></trkpt><trkpt lat="39.60708166514803" lon="8.51455487676165"><ele>282.0</ele><time>2026-04-04T10:18:51Z</time></trkpt><trkpt lat="39.60695675984319" lon="8.514477106961715"><ele>282.0</ele><time>2026-04-04T10:18:52Z</time></trkpt><trkpt lat="39.60684865362394" lon="8.51439794170303"><ele>281.25</ele><time>2026-04-04T10:18:53Z</time></trkpt><trkpt lat="39.60674880880026" lon="8.51431247431242"><ele>280.5</ele><time>2026-04-04T10:18:54Z</time></trkpt><trkpt lat="39.606645902457785" lon="8.51423405822178"><ele>279.75</ele><time>2026-04-04T10:18:55Z</time></trkpt><trkpt lat="39.60657798746917" lon="8.51409128378353"><ele>279.0</ele><time>2026-04-04T10:18:56Z</time></trkpt><trkpt lat="39.60653885865337" lon="8.513919939675137"><ele>280.0</ele><time>2026-04-04T10:18:57Z</time></trkpt><trkpt lat="39.606534994922164" lon="8.513737502415816"><ele>281.0</ele><time>2026-04-04T10:18:58Z</time></trkpt><trkpt lat="39.606558348373916" lon="8.51354585696066"><ele>282.0</ele><time>2026-04-04T10:18:59Z</time></trkpt><trkpt lat="39.606595864026716" lon="8.513354284113701"><ele>283.0</ele><time>2026-04-04T10:19:00Z</time></trkpt><trkpt lat="39.606647323748504" lon="8.513167455500497"><ele>283.0</ele><time>2026-04-04T10:19:01Z</time></trkpt><trkpt lat="39.606712642303464" lon="8.512988768093562"><ele>283.0</ele><time>2026-04-04T10:19:02Z</time></trkpt><trkpt lat="39.6067703586093" lon="8.51280282226042"><ele>283.0</ele><time>2026-04-04T10:19:03Z</time></trkpt><trkpt lat="39.60680939905063" lon="8.51260678732016"><ele>282.66666666666663</ele><time>2026-04-04T10:19:04Z</time></trkpt><trkpt lat="39.6068239290813" lon="8.512415490677498"><ele>282.3333333333333</ele><time>2026-04-04T10:19:05Z</time></trkpt><trkpt lat="39.60680288845635" lon="8.512217230781724"><ele>282.0</ele><time>2026-04-04T10:19:06Z</time></trkpt><trkpt lat="39.606721882959214" lon="8.5120347505316"><ele>282.0</ele><time>2026-04-04T10:19:07Z</time></trkpt><trkpt lat="39.606635435692695" lon="8.511860895406267"><ele>282.0</ele><time>2026-04-04T10:19:08Z</time></trkpt><trkpt lat="39.60656237207708" lon="8.511679694408558"><ele>282.0</ele><time>2026-04-04T10:19:09Z</time></trkpt><trkpt lat="39.6065219559431" lon="8.511487053168203"><ele>282.0</ele><time>2026-04-04T10:19:10Z</time></trkpt><trkpt lat="39.60649155693522" lon="8.511283793856103"><ele>282.0</ele><time>2026-04-04T10:19:11Z</time></trkpt><trkpt lat="39.60644168228957" lon="8.511084453414448"><ele>282.0</ele><time>2026-04-04T10:19:12Z</time></trkpt><trkpt lat="39.60637016532817" lon="8.510891241439353"><ele>284.3333333333333</ele><time>2026-04-04T10:19:13Z</time></trkpt><trkpt lat="39.606298674050386" lon="8.510699793288454"><ele>286.66666666666663</ele><time>2026-04-04T10:19:14Z</time></trkpt><trkpt lat="39.60623894487083" lon="8.510517169789361"><ele>289.0</ele><time>2026-04-04T10:19:15Z</time></trkpt><trkpt lat="39.60618470055722" lon="8.51033470254407"><ele>289.5</ele><time>2026-04-04T10:19:16Z</time></trkpt><trkpt lat="39.60614307674342" lon="8.510147279479389"><ele>290.0</ele><time>2026-04-04T10:19:17Z</time></trkpt><trkpt lat="39.6061320144912" lon="8.509957599584846"><ele>290.5</ele><time>2026-04-04T10:19:18Z</time></trkpt><trkpt lat="39.60616323483531" lon="8.50976515604102"><ele>291.0</ele><time>2026-04-04T10:19:19Z</time></trkpt><trkpt lat="39.606226379300445" lon="8.509590572439173"><ele>290.0</ele><time>2026-04-04T10:19:20Z</time></trkpt><trkpt lat="39.6063194000248" lon="8.50943730562009"><ele>289.0</ele><time>2026-04-04T10:19:21Z</time></trkpt><trkpt lat="39.606436783710436" lon="8.509291567651807"><ele>288.0</ele><time>2026-04-04T10:19:22Z</time></trkpt><trkpt lat="39.60654626968055" lon="8.509147122023164"><ele>288.0</ele><time>2026-04-04T10:19:23Z</time></trkpt><trkpt lat="39.60664733766614" lon="8.509001682815034"><ele>288.0</ele><time>2026-04-04T10:19:24Z</time></trkpt><trkpt lat="39.606747443464585" lon="8.508850255954771"><ele>288.0</ele><time>2026-04-04T10:19:25Z</time></trkpt><trkpt lat="39.60685302501902" lon="8.508700378926363"><ele>287.6666666666667</ele><time>2026-04-04T10:19:26Z</time></trkpt><trkpt lat="39.60696171286934" lon="8.50855423211526"><ele>287.33333333333337</ele><time>2026-04-04T10:19:27Z</time></trkpt><trkpt lat="39.60706706549751" lon="8.508405503576807"><ele>287.0</ele><time>2026-04-04T10:19:28Z</time></trkpt><trkpt lat="39.60716838204083" lon="8.50825298045136"><ele>287.0</ele><time>2026-04-04T10:19:29Z</time></trkpt><trkpt lat="39.607271259273894" lon="8.508100536307118"><ele>287.0</ele><time>2026-04-04T10:19:30Z</time></trkpt><trkpt lat="39.607374385489614" lon="8.507950314851232"><ele>287.0</ele><time>2026-04-04T10:19:31Z</time></trkpt><trkpt lat="39.607477526442345" lon="8.507803880555247"><ele>284.0</ele><time>2026-04-04T10:19:32Z</time></trkpt><trkpt lat="39.60757414325652" lon="8.507662607804429"><ele>281.0</ele><time>2026-04-04T10:19:33Z</time></trkpt><trkpt lat="39.60766817843684" lon="8.50752807088303"><ele>278.0</ele><time>2026-04-04T10:19:34Z</time></trkpt><trkpt lat="39.60776169230557" lon="8.507401614929826"><ele>275.0</ele><time>2026-04-04T10:19:35Z</time></trkpt><trkpt lat="39.60785311934579" lon="8.50728541597388"><ele>275.0</ele><time>2026-04-04T10:19:36Z</time></trkpt><trkpt lat="39.607951494298575" lon="8.507203119247308"><ele>275.0</ele><time>2026-04-04T10:19:37Z</time></trkpt><trkpt lat="39.608061018889224" lon="8.50716631917569"><ele>275.0</ele><time>2026-04-04T10:19:38Z</time></trkpt><trkpt lat="39.60817769159518" lon="8.5071749640274"><ele>275.0</ele><time>2026-04-04T10:19:39Z</time></trkpt><trkpt lat="39.60830231486942" lon="8.507218680705646"><ele>275.0</ele><time>2026-04-04T10:19:40Z</time></trkpt><trkpt lat="39.60843719979544" lon="8.507268406991077"><ele>275.0</ele><time>2026-04-04T10:19:41Z</time></trkpt><trkpt lat="39.60857055533421" lon="8.507309400918624"><ele>275.0</ele><time>2026-04-04T10:19:42Z</time></trkpt><trkpt lat="39.60868962757227" lon="8.507325269022605"><ele>275.0</ele><time>2026-04-04T10:19:43Z</time></trkpt><trkpt lat="39.60879946259508" lon="8.50728770994629"><ele>274.75</ele><time>2026-04-04T10:19:44Z</time></trkpt><trkpt lat="39.60889361142366" lon="8.507201833785787"><ele>274.5</ele><time>2026-04-04T10:19:45Z</time></trkpt><trkpt lat="39.60896064338564" lon="8.507075826625481"><ele>274.25</ele><time>2026-04-04T10:19:46Z</time></trkpt><trkpt lat="39.608991205501" lon="8.506911199525002"><ele>274.0</ele><time>2026-04-04T10:19:47Z</time></trkpt><trkpt lat="39.608988230734646" lon="8.50672240280073"><ele>273.0</ele><time>2026-04-04T10:19:48Z</time></trkpt><trkpt lat="39.60898630222847" lon="8.506532504239237"><ele>272.0</ele><time>2026-04-04T10:19:49Z</time></trkpt><trkpt lat="39.60900711218619" lon="8.506346578406443"><ele>271.0</ele><time>2026-04-04T10:19:50Z</time></trkpt><trkpt lat="39.60905596948514" lon="8.50616270194268"><ele>270.0</ele><time>2026-04-04T10:19:51Z</time></trkpt><trkpt lat="39.60911764549031" lon="8.505991629750914"><ele>269.0</ele><time>2026-04-04T10:19:52Z</time></trkpt><trkpt lat="39.609201552814646" lon="8.505841916963933"><ele>268.0</ele><time>2026-04-04T10:19:53Z</time></trkpt><trkpt lat="39.60930012217647" lon="8.505708338924734"><ele>267.0</ele><time>2026-04-04T10:19:54Z</time></trkpt><trkpt lat="39.609417304449856" lon="8.50560262165681"><ele>266.0</ele><time>2026-04-04T10:19:55Z</time></trkpt><trkpt lat="39.60954785563536" lon="8.505513983149582"><ele>266.0</ele><time>2026-04-04T10:19:56Z</time></trkpt><trkpt lat="39.60969048837021" lon="8.505435243007065"><ele>266.0</ele><time>2026-04-04T10:19:57Z</time></trkpt><trkpt lat="39.609846024803915" lon="8.505368233090092"><ele>266.0</ele><time>2026-04-04T10:19:58Z</time></trkpt><trkpt lat="39.610002538047965" lon="8.505301947192965"><ele>261.0</ele><time>2026-04-04T10:19:59Z</time></trkpt><trkpt lat="39.61015735325146" lon="8.505229359573518"><ele>256.0</ele><time>2026-04-04T10:20:00Z</time></trkpt><trkpt lat="39.610309241842586" lon="8.505152188338686"><ele>251.0</ele><time>2026-04-04T10:20:01Z</time></trkpt><trkpt lat="39.61045763160005" lon="8.505074792328257"><ele>251.0</ele><time>2026-04-04T10:20:02Z</time></trkpt><trkpt lat="39.61060636142967" lon="8.505004876203245"><ele>251.0</ele><time>2026-04-04T10:20:03Z</time></trkpt><trkpt lat="39.61075053395372" lon="8.504940217012912"><ele>251.0</ele><time>2026-04-04T10:20:04Z</time></trkpt><trkpt lat="39.61088945130528" lon="8.50485942287973"><ele>251.0</ele><time>2026-04-04T10:20:05Z</time></trkpt><trkpt lat="39.61102116456457" lon="8.5047556934627"><ele>251.0</ele><time>2026-04-04T10:20:06Z</time></trkpt><trkpt lat="39.61114601441284" lon="8.504632959371536"><ele>251.0</ele><time>2026-04-04T10:20:07Z</time></trkpt><trkpt lat="39.61126468429585" lon="8.504505711426045"><ele>249.0</ele><time>2026-04-04T10:20:08Z</time></trkpt><trkpt lat="39.611368302057166" lon="8.50437680232444"><ele>247.0</ele><time>2026-04-04T10:20:09Z</time></trkpt><trkpt lat="39.611445995693266" lon="8.504225810622208"><ele>245.0</ele><time>2026-04-04T10:20:10Z</time></trkpt><trkpt lat="39.61146940341971" lon="8.504048215266687"><ele>243.0</ele><time>2026-04-04T10:20:11Z</time></trkpt><trkpt lat="39.611441519783064" lon="8.503861358287997"><ele>241.0</ele><time>2026-04-04T10:20:12Z</time></trkpt><trkpt lat="39.611371734560905" lon="8.503675146344198"><ele>239.0</ele><time>2026-04-04T10:20:13Z</time></trkpt><trkpt lat="39.611306403532886" lon="8.503497768530547"><ele>237.0</ele><time>2026-04-04T10:20:14Z</time></trkpt><trkpt lat="39.61128170872973" lon="8.503295661151181"><ele>237.0</ele><time>2026-04-04T10:20:15Z</time></trkpt><trkpt lat="39.611306750086875" lon="8.503100543460103"><ele>237.0</ele><time>2026-04-04T10:20:16Z</time></trkpt><trkpt lat="39.61136388422562" lon="8.502918057642654"><ele>237.0</ele><time>2026-04-04T10:20:17Z</time></trkpt><trkpt lat="39.611454836348166" lon="8.502753342246683"><ele>234.66666666666669</ele><time>2026-04-04T10:20:18Z</time></trkpt><trkpt lat="39.61155812616385" lon="8.502599763558031"><ele>232.33333333333334</ele><time>2026-04-04T10:20:19Z</time></trkpt><trkpt lat="39.61167113572866" lon="8.5024533442883"><ele>230.0</ele><time>2026-04-04T10:20:20Z</time></trkpt><trkpt lat="39.61179418154261" lon="8.502327064912194"><ele>230.0</ele><time>2026-04-04T10:20:21Z</time></trkpt><trkpt lat="39.611932559953814" lon="8.502235966181368"><ele>230.0</ele><time>2026-04-04T10:20:22Z</time></trkpt><trkpt lat="39.612075534301795" lon="8.502174177308428"><ele>230.0</ele><time>2026-04-04T10:20:23Z</time></trkpt><trkpt lat="39.61221486064327" lon="8.502116684547"><ele>231.0</ele><time>2026-04-04T10:20:24Z</time></trkpt><trkpt lat="39.61233963910909" lon="8.502075223058307"><ele>232.0</ele><time>2026-04-04T10:20:25Z</time></trkpt><trkpt lat="39.61246368644754" lon="8.50206320803829"><ele>233.0</ele><time>2026-04-04T10:20:26Z</time></trkpt><trkpt lat="39.612577492377895" lon="8.502074538871653"><ele>234.0</ele><time>2026-04-04T10:20:27Z</time></trkpt><trkpt lat="39.6126678644" lon="8.502093326528659"><ele>234.0</ele><time>2026-04-04T10:20:28Z</time></trkpt><trkpt lat="39.612745189636065" lon="8.502102644518851"><ele>234.0</ele><time>2026-04-04T10:20:29Z</time></trkpt><trkpt lat="39.61282026506191" lon="8.502094836729652"><ele>234.0</ele><time>2026-04-04T10:20:30Z</time></trkpt><trkpt lat="39.61288782695707" lon="8.502056464254792"><ele>234.0</ele><time>2026-04-04T10:20:31Z</time></trkpt><trkpt lat="39.6129307362229" lon="8.50196906491305"><ele>234.0</ele><time>2026-04-04T10:20:32Z</time></trkpt><trkpt lat="39.61292436925047" lon="8.50185158603245"><ele>234.0</ele><time>2026-04-04T10:20:33Z</time></trkpt><trkpt lat="39.61287109694809" lon="8.501752823161985"><ele>231.25</ele><time>2026-04-04T10:20:34Z</time></trkpt><trkpt lat="39.61277846792843" lon="8.501663760785018"><ele>228.5</ele><time>2026-04-04T10:20:35Z</time></trkpt><trkpt lat="39.61267940848915" lon="8.501549441043837"><ele>225.75</ele><time>2026-04-04T10:20:36Z</time></trkpt><trkpt lat="39.61255777756256" lon="8.501426333526581"><ele>223.0</ele><time>2026-04-04T10:20:37Z</time></trkpt><trkpt lat="39.612440684893556" lon="8.501301950128706"><ele>223.75</ele><time>2026-04-04T10:20:38Z</time></trkpt><trkpt lat="39.612328120897146" lon="8.501180986526368"><ele>224.5</ele><time>2026-04-04T10:20:39Z</time></trkpt><trkpt lat="39.61222353181376" lon="8.501063559350868"><ele>225.25</ele><time>2026-04-04T10:20:40Z</time></trkpt><trkpt lat="39.61213236573771" lon="8.500941736987203"><ele>226.0</ele><time>2026-04-04T10:20:41Z</time></trkpt><trkpt lat="39.612068761960145" lon="8.500805512594917"><ele>226.0</ele><time>2026-04-04T10:20:42Z</time></trkpt><trkpt lat="39.61203129664889" lon="8.500649199048285"><ele>226.0</ele><time>2026-04-04T10:20:43Z</time></trkpt><trkpt lat="39.612011793776745" lon="8.500472959747537"><ele>226.0</ele><time>2026-04-04T10:20:44Z</time></trkpt><trkpt lat="39.61199387106676" lon="8.500275279942308"><ele>226.0</ele><time>2026-04-04T10:20:45Z</time></trkpt><trkpt lat="39.611974948688406" lon="8.500079990368523"><ele>220.0</ele><time>2026-04-04T10:20:46Z</time></trkpt><trkpt lat="39.61193938670558" lon="8.499889808397565"><ele>214.0</ele><time>2026-04-04T10:20:47Z</time></trkpt><trkpt lat="39.61192011044793" lon="8.499706925007546"><ele>208.0</ele><time>2026-04-04T10:20:48Z</time></trkpt><trkpt lat="39.61193591620843" lon="8.499547513023073"><ele>202.0</ele><time>2026-04-04T10:20:49Z</time></trkpt><trkpt lat="39.611969671153304" lon="8.499423678475098"><ele>203.6</ele><time>2026-04-04T10:20:50Z</time></trkpt><trkpt lat="39.61203957618473" lon="8.499329788224836"><ele>205.2</ele><time>2026-04-04T10:20:51Z</time></trkpt><trkpt lat="39.6121283173032" lon="8.499261395715541"><ele>206.8</ele><time>2026-04-04T10:20:52Z</time></trkpt><trkpt lat="39.61221796826068" lon="8.499182939739486"><ele>208.4</ele><time>2026-04-04T10:20:53Z</time></trkpt><trkpt lat="39.61231403216792" lon="8.49910930737323"><ele>210.0</ele><time>2026-04-04T10:20:54Z</time></trkpt><trkpt lat="39.61239589735431" lon="8.498992914316078"><ele>210.0</ele><time>2026-04-04T10:20:55Z</time></trkpt><trkpt lat="39.61242067160599" lon="8.498835527188442"><ele>210.0</ele><time>2026-04-04T10:20:56Z</time></trkpt><trkpt lat="39.6124102206896" lon="8.498666050222463"><ele>210.0</ele><time>2026-04-04T10:20:57Z</time></trkpt><trkpt lat="39.61234862548562" lon="8.498490418282325"><ele>210.0</ele><time>2026-04-04T10:20:58Z</time></trkpt><trkpt lat="39.61229616423108" lon="8.498334287930392"><ele>208.5</ele><time>2026-04-04T10:20:59Z</time></trkpt><trkpt lat="39.61224069009191" lon="8.498173368852239"><ele>207.0</ele><time>2026-04-04T10:21:00Z</time></trkpt><trkpt lat="39.612182978743085" lon="8.498014665400808"><ele>205.5</ele><time>2026-04-04T10:21:01Z</time></trkpt><trkpt lat="39.61212990467138" lon="8.497860454341936"><ele>204.0</ele><time>2026-04-04T10:21:02Z</time></trkpt><trkpt lat="39.61209038993239" lon="8.497705713425526"><ele>203.75</ele><time>2026-04-04T10:21:03Z</time></trkpt><trkpt lat="39.61207390569693" lon="8.497548448314916"><ele>203.5</ele><time>2026-04-04T10:21:04Z</time></trkpt><trkpt lat="39.612076899567995" lon="8.49738755616856"><ele>203.25</ele><time>2026-04-04T10:21:05Z</time></trkpt><trkpt lat="39.61210385614683" lon="8.497221079903712"><ele>203.0</ele><time>2026-04-04T10:21:06Z</time></trkpt><trkpt lat="39.61215983330944" lon="8.497059288866811"><ele>199.75</ele><time>2026-04-04T10:21:07Z</time></trkpt><trkpt lat="39.61223645729024" lon="8.496906716958005"><ele>196.5</ele><time>2026-04-04T10:21:08Z</time></trkpt><trkpt lat="39.61230670066927" lon="8.496734714911714"><ele>193.25</ele><time>2026-04-04T10:21:09Z</time></trkpt><trkpt lat="39.6123938970653" lon="8.496575713630877"><ele>190.0</ele><time>2026-04-04T10:21:10Z</time></trkpt><trkpt lat="39.61247610504339" lon="8.496413887664303"><ele>190.0</ele><time>2026-04-04T10:21:11Z</time></trkpt><trkpt lat="39.612547775604696" lon="8.49625331347595"><ele>190.0</ele><time>2026-04-04T10:21:12Z</time></trkpt><trkpt lat="39.61258041976467" lon="8.496080282494832"><ele>190.0</ele><time>2026-04-04T10:21:13Z</time></trkpt><trkpt lat="39.61259259588372" lon="8.495894406895156"><ele>190.0</ele><time>2026-04-04T10:21:14Z</time></trkpt><trkpt lat="39.61252052807442" lon="8.49571961998856"><ele>188.66666666666669</ele><time>2026-04-04T10:21:15Z</time></trkpt><trkpt lat="39.612445895309435" lon="8.495536424928233"><ele>187.33333333333334</ele><time>2026-04-04T10:21:16Z</time></trkpt><trkpt lat="39.612361116740715" lon="8.495359302910439"><ele>186.0</ele><time>2026-04-04T10:21:17Z</time></trkpt><trkpt lat="39.612292783170936" lon="8.495179960145364"><ele>186.0</ele><time>2026-04-04T10:21:18Z</time></trkpt><trkpt lat="39.612247687267896" lon="8.494996768790985"><ele>186.0</ele><time>2026-04-04T10:21:19Z</time></trkpt><trkpt lat="39.61221127686116" lon="8.494817252031442"><ele>186.0</ele><time>2026-04-04T10:21:20Z</time></trkpt><trkpt lat="39.61218132946884" lon="8.494650087077572"><ele>186.0</ele><time>2026-04-04T10:21:21Z</time></trkpt><trkpt lat="39.612178437116086" lon="8.49450362409933"><ele>183.0</ele><time>2026-04-04T10:21:22Z</time></trkpt><trkpt lat="39.61219668647211" lon="8.494333164366912"><ele>180.0</ele><time>2026-04-04T10:21:23Z</time></trkpt><trkpt lat="39.61226041388647" lon="8.494158858120734"><ele>177.0</ele><time>2026-04-04T10:21:24Z</time></trkpt><trkpt lat="39.61231862330629" lon="8.494000955186442"><ele>174.0</ele><time>2026-04-04T10:21:25Z</time></trkpt><trkpt lat="39.612409626680375" lon="8.49387106605558"><ele>174.0</ele><time>2026-04-04T10:21:26Z</time></trkpt><trkpt lat="39.612534505373844" lon="8.493767978303945"><ele>174.0</ele><time>2026-04-04T10:21:27Z</time></trkpt><trkpt lat="39.61267616118278" lon="8.493702611875339"><ele>174.0</ele><time>2026-04-04T10:21:28Z</time></trkpt><trkpt lat="39.61281682903816" lon="8.493648877655138"><ele>174.0</ele><time>2026-04-04T10:21:29Z</time></trkpt><trkpt lat="39.61293205927579" lon="8.493584618466087"><ele>169.75</ele><time>2026-04-04T10:21:30Z</time></trkpt><trkpt lat="39.6130600588413" lon="8.493549555067313"><ele>165.5</ele><time>2026-04-04T10:21:31Z</time></trkpt><trkpt lat="39.613197973943365" lon="8.493547794602582"><ele>161.25</ele><time>2026-04-04T10:21:32Z</time></trkpt><trkpt lat="39.613343748244404" lon="8.493559558438202"><ele>157.0</ele><time>2026-04-04T10:21:33Z</time></trkpt><trkpt lat="39.61349769416094" lon="8.493571016360821"><ele>157.0</ele><time>2026-04-04T10:21:34Z</time></trkpt><trkpt lat="39.613653979663454" lon="8.493582921947608"><ele>157.0</ele><time>2026-04-04T10:21:35Z</time></trkpt><trkpt lat="39.61381480232954" lon="8.493597653679826"><ele>157.0</ele><time>2026-04-04T10:21:36Z</time></trkpt><trkpt lat="39.61396946976747" lon="8.493620882093548"><ele>155.5</ele><time>2026-04-04T10:21:37Z</time></trkpt><trkpt lat="39.614108719430924" lon="8.49367604798224"><ele>154.0</ele><time>2026-04-04T10:21:38Z</time></trkpt><trkpt lat="39.61423535527737" lon="8.493736209266991"><ele>152.5</ele><time>2026-04-04T10:21:39Z</time></trkpt><trkpt lat="39.61437309961126" lon="8.49373895581494"><ele>151.0</ele><time>2026-04-04T10:21:40Z</time></trkpt><trkpt lat="39.61452507546162" lon="8.493690507021071"><ele>149.66666666666669</ele><time>2026-04-04T10:21:41Z</time></trkpt><trkpt lat="39.61467438255535" lon="8.493621952816792"><ele>148.33333333333334</ele><time>2026-04-04T10:21:42Z</time></trkpt><trkpt lat="39.61482001263849" lon="8.493554982078447"><ele>147.0</ele><time>2026-04-04T10:21:43Z</time></trkpt><trkpt lat="39.61496647302809" lon="8.49350076479534"><ele>147.0</ele><time>2026-04-04T10:21:44Z</time></trkpt><trkpt lat="39.615110197005386" lon="8.493444919486599"><ele>147.0</ele><time>2026-04-04T10:21:45Z</time></trkpt><trkpt lat="39.61523962217526" lon="8.493356297708509"><ele>147.0</ele><time>2026-04-04T10:21:46Z</time></trkpt><trkpt lat="39.61534909501292" lon="8.493228871428547"><ele>147.0</ele><time>2026-04-04T10:21:47Z</time></trkpt><trkpt lat="39.61542739976505" lon="8.493070108036333"><ele>144.5</ele><time>2026-04-04T10:21:48Z</time></trkpt><trkpt lat="39.61547692682027" lon="8.492890253097524"><ele>142.0</ele><time>2026-04-04T10:21:49Z</time></trkpt><trkpt lat="39.61549497181391" lon="8.492706029355151"><ele>139.5</ele><time>2026-04-04T10:21:50Z</time></trkpt><trkpt lat="39.61550165251722" lon="8.492516872147467"><ele>137.0</ele><time>2026-04-04T10:21:51Z</time></trkpt><trkpt lat="39.615514387974414" lon="8.492324293900989"><ele>137.0</ele><time>2026-04-04T10:21:52Z</time></trkpt><trkpt lat="39.615529131561225" lon="8.492126594667207"><ele>137.0</ele><time>2026-04-04T10:21:53Z</time></trkpt><trkpt lat="39.61553709708414" lon="8.49192282253515"><ele>137.0</ele><time>2026-04-04T10:21:54Z</time></trkpt><trkpt lat="39.61554382735061" lon="8.491716092208973"><ele>135.66666666666666</ele><time>2026-04-04T10:21:55Z</time></trkpt><trkpt lat="39.61555645012284" lon="8.49151261640997"><ele>134.33333333333334</ele><time>2026-04-04T10:21:56Z</time></trkpt><trkpt lat="39.615599138579825" lon="8.49130213019513"><ele>133.0</ele><time>2026-04-04T10:21:57Z</time></trkpt><trkpt lat="39.61561934317687" lon="8.491095059568282"><ele>132.66666666666669</ele><time>2026-04-04T10:21:58Z</time></trkpt><trkpt lat="39.615658640478195" lon="8.49089539636813"><ele>132.33333333333334</ele><time>2026-04-04T10:21:59Z</time></trkpt><trkpt lat="39.61570046701014" lon="8.49069495864692"><ele>132.0</ele><time>2026-04-04T10:22:00Z</time></trkpt><trkpt lat="39.615741620075084" lon="8.490491265194898"><ele>131.33333333333334</ele><time>2026-04-04T10:22:01Z</time></trkpt><trkpt lat="39.61578161733382" lon="8.490287652397962"><ele>130.66666666666669</ele><time>2026-04-04T10:22:02Z</time></trkpt><trkpt lat="39.61582230705749" lon="8.490082451506455"><ele>130.0</ele><time>2026-04-04T10:22:03Z</time></trkpt><trkpt lat="39.61588010510689" lon="8.48988897451235"><ele>130.0</ele><time>2026-04-04T10:22:04Z</time></trkpt><trkpt lat="39.615919759346134" lon="8.489704468967856"><ele>130.0</ele><time>2026-04-04T10:22:05Z</time></trkpt><trkpt lat="39.6160146170971" lon="8.489553757927748"><ele>130.0</ele><time>2026-04-04T10:22:06Z</time></trkpt><trkpt lat="39.616113775583855" lon="8.489410929950205"><ele>130.0</ele><time>2026-04-04T10:22:07Z</time></trkpt><trkpt lat="39.616218878743155" lon="8.489257062892442"><ele>128.33333333333334</ele><time>2026-04-04T10:22:08Z</time></trkpt><trkpt lat="39.61632666154279" lon="8.48909927345203"><ele>126.66666666666666</ele><time>2026-04-04T10:22:09Z</time></trkpt><trkpt lat="39.6164269830316" lon="8.48892404376621"><ele>125.0</ele><time>2026-04-04T10:22:10Z</time></trkpt><trkpt lat="39.61653883048615" lon="8.48876100778856"><ele>125.0</ele><time>2026-04-04T10:22:11Z</time></trkpt><trkpt lat="39.61665249456402" lon="8.488599526726869"><ele>125.0</ele><time>2026-04-04T10:22:12Z</time></trkpt><trkpt lat="39.616767673384146" lon="8.488436411053469"><ele>125.0</ele><time>2026-04-04T10:22:13Z</time></trkpt><trkpt lat="39.61688159155157" lon="8.488274393739525"><ele>122.66666666666666</ele><time>2026-04-04T10:22:14Z</time></trkpt><trkpt lat="39.61699293004217" lon="8.48811813552411"><ele>120.33333333333334</ele><time>2026-04-04T10:22:15Z</time></trkpt><trkpt lat="39.617102228733735" lon="8.487962691470024"><ele>118.0</ele><time>2026-04-04T10:22:16Z</time></trkpt><trkpt lat="39.61720910971107" lon="8.487802377717525"><ele>118.0</ele><time>2026-04-04T10:22:17Z</time></trkpt><trkpt lat="39.61731425719389" lon="8.487644264292095"><ele>118.0</ele><time>2026-04-04T10:22:18Z</time></trkpt><trkpt lat="39.61741848771144" lon="8.487488840809684"><ele>118.0</ele><time>2026-04-04T10:22:19Z</time></trkpt><trkpt lat="39.61752358461845" lon="8.487337277278835"><ele>118.0</ele><time>2026-04-04T10:22:20Z</time></trkpt><trkpt lat="39.61762840355571" lon="8.487185897878193"><ele>118.0</ele><time>2026-04-04T10:22:21Z</time></trkpt><trkpt lat="39.61772972525821" lon="8.487040409024022"><ele>118.0</ele><time>2026-04-04T10:22:22Z</time></trkpt><trkpt lat="39.617826449682624" lon="8.486897832976258"><ele>117.75</ele><time>2026-04-04T10:22:23Z</time></trkpt><trkpt lat="39.617919639241244" lon="8.48676369546198"><ele>117.5</ele><time>2026-04-04T10:22:24Z</time></trkpt><trkpt lat="39.61800817036972" lon="8.486638412608157"><ele>117.25</ele><time>2026-04-04T10:22:25Z</time></trkpt><trkpt lat="39.618094594503425" lon="8.486519643228126"><ele>117.0</ele><time>2026-04-04T10:22:26Z</time></trkpt><trkpt lat="39.618176304789195" lon="8.486407801974325"><ele>117.0</ele><time>2026-04-04T10:22:27Z</time></trkpt><trkpt lat="39.61825781139669" lon="8.486321630793952"><ele>116.99999999999999</ele><time>2026-04-04T10:22:28Z</time></trkpt><trkpt lat="39.61834929641537" lon="8.486245442108219"><ele>116.99999999999999</ele><time>2026-04-04T10:22:29Z</time></trkpt><trkpt lat="39.618442941246116" lon="8.486172644725768"><ele>117.0</ele><time>2026-04-04T10:22:30Z</time></trkpt><trkpt lat="39.61852461988027" lon="8.486075445579202"><ele>117.0</ele><time>2026-04-04T10:22:31Z</time></trkpt><trkpt lat="39.618586674643936" lon="8.485946740260983"><ele>117.25</ele><time>2026-04-04T10:22:32Z</time></trkpt><trkpt lat="39.61863818559984" lon="8.48579475713495"><ele>117.5</ele><time>2026-04-04T10:22:33Z</time></trkpt><trkpt lat="39.61866349446091" lon="8.48562386398423"><ele>117.75</ele><time>2026-04-04T10:22:34Z</time></trkpt><trkpt lat="39.61867015552865" lon="8.48545602043254"><ele>118.0</ele><time>2026-04-04T10:22:35Z</time></trkpt><trkpt lat="39.61864106393611" lon="8.48528160873665"><ele>118.0</ele><time>2026-04-04T10:22:36Z</time></trkpt><trkpt lat="39.61859845958923" lon="8.485096340718767"><ele>118.0</ele><time>2026-04-04T10:22:37Z</time></trkpt><trkpt lat="39.618556436563146" lon="8.484896624957877"><ele>118.0</ele><time>2026-04-04T10:22:38Z</time></trkpt><trkpt lat="39.61851258554787" lon="8.48469383510263"><ele>116.66666666666667</ele><time>2026-04-04T10:22:39Z</time></trkpt><trkpt lat="39.6184667362695" lon="8.484483670744856"><ele>115.33333333333334</ele><time>2026-04-04T10:22:40Z</time></trkpt><trkpt lat="39.61841868421106" lon="8.48426340850367"><ele>114.0</ele><time>2026-04-04T10:22:41Z</time></trkpt><trkpt lat="39.61836625297053" lon="8.484039529312128"><ele>114.0</ele><time>2026-04-04T10:22:42Z</time></trkpt><trkpt lat="39.61831468353502" lon="8.483823620490497"><ele>114.0</ele><time>2026-04-04T10:22:43Z</time></trkpt><trkpt lat="39.61827050914537" lon="8.483613569808831"><ele>114.0</ele><time>2026-04-04T10:22:44Z</time></trkpt><trkpt lat="39.61824096076984" lon="8.483408762510026"><ele>112.66666666666666</ele><time>2026-04-04T10:22:45Z</time></trkpt><trkpt lat="39.618232362281766" lon="8.48320909424781"><ele>111.33333333333333</ele><time>2026-04-04T10:22:46Z</time></trkpt><trkpt lat="39.61822466698038" lon="8.482997907353559"><ele>110.0</ele><time>2026-04-04T10:22:47Z</time></trkpt><trkpt lat="39.618249565611805" lon="8.482778950137174"><ele>108.66666666666666</ele><time>2026-04-04T10:22:48Z</time></trkpt><trkpt lat="39.61826889440566" lon="8.482549856590825"><ele>107.33333333333334</ele><time>2026-04-04T10:22:49Z</time></trkpt><trkpt lat="39.61828511153404" lon="8.482314442853339"><ele>106.0</ele><time>2026-04-04T10:22:50Z</time></trkpt><trkpt lat="39.61831821096097" lon="8.482077071738933"><ele>105.0</ele><time>2026-04-04T10:22:51Z</time></trkpt><trkpt lat="39.618337878811886" lon="8.481837477048032"><ele>104.0</ele><time>2026-04-04T10:22:52Z</time></trkpt><trkpt lat="39.61835796787437" lon="8.481591861361293"><ele>103.0</ele><time>2026-04-04T10:22:53Z</time></trkpt><trkpt lat="39.618378234131605" lon="8.48134407627836"><ele>102.66666666666667</ele><time>2026-04-04T10:22:54Z</time></trkpt><trkpt lat="39.61838260414683" lon="8.481091743250117"><ele>102.33333333333334</ele><time>2026-04-04T10:22:55Z</time></trkpt><trkpt lat="39.618406209595726" lon="8.480838978467093"><ele>102.0</ele><time>2026-04-04T10:22:56Z</time></trkpt><trkpt lat="39.618425438768746" lon="8.480593962807314"><ele>101.33333333333334</ele><time>2026-04-04T10:22:57Z</time></trkpt><trkpt lat="39.61844024550933" lon="8.480367324220339"><ele>100.66666666666667</ele><time>2026-04-04T10:22:58Z</time></trkpt><trkpt lat="39.61845419733855" lon="8.480161345416539"><ele>100.0</ele><time>2026-04-04T10:22:59Z</time></trkpt><trkpt lat="39.61846775742491" lon="8.479980508195473"><ele>100.00000000000001</ele><time>2026-04-04T10:23:00Z</time></trkpt><trkpt lat="39.61847894698164" lon="8.479845329210633"><ele>100.0</ele><time>2026-04-04T10:23:01Z</time></trkpt><trkpt lat="39.618500368566544" lon="8.479756267583285"><ele>100.0</ele><time>2026-04-04T10:23:02Z</time></trkpt><trkpt lat="39.618578800392804" lon="8.479722472183736"><ele>100.0</ele><time>2026-04-04T10:23:04Z</time></trkpt><trkpt lat="39.61864305262084" lon="8.479746727075797"><ele>100.00000000000001</ele><time>2026-04-04T10:23:05Z</time></trkpt><trkpt lat="39.61871672779024" lon="8.479777020893545"><ele>100.0</ele><time>2026-04-04T10:23:06Z</time></trkpt><trkpt lat="39.61880149587957" lon="8.47980323126134"><ele>100.2</ele><time>2026-04-04T10:23:07Z</time></trkpt><trkpt lat="39.61889411136379" lon="8.479829362263715"><ele>100.4</ele><time>2026-04-04T10:23:08Z</time></trkpt><trkpt lat="39.61898146332966" lon="8.479851704998081"><ele>100.6</ele><time>2026-04-04T10:23:09Z</time></trkpt><trkpt lat="39.61906493323823" lon="8.479869439024062"><ele>100.8</ele><time>2026-04-04T10:23:10Z</time></trkpt><trkpt lat="39.61915913187332" lon="8.479890288728077"><ele>101.0</ele><time>2026-04-04T10:23:11Z</time></trkpt><trkpt lat="39.61925969161973" lon="8.479915818644988"><ele>101.0</ele><time>2026-04-04T10:23:12Z</time></trkpt><trkpt lat="39.619361982023264" lon="8.479943172903527"><ele>101.0</ele><time>2026-04-04T10:23:13Z</time></trkpt><trkpt lat="39.6194685855077" lon="8.479970718621116"><ele>101.0</ele><time>2026-04-04T10:23:14Z</time></trkpt><trkpt lat="39.61957935727301" lon="8.479996612498615"><ele>101.0</ele><time>2026-04-04T10:23:15Z</time></trkpt><trkpt lat="39.619683355081506" lon="8.480023041278464"><ele>101.0</ele><time>2026-04-04T10:23:16Z</time></trkpt><trkpt lat="39.6197892019055" lon="8.480052816122829"><ele>100.0</ele><time>2026-04-04T10:23:17Z</time></trkpt><trkpt lat="39.61990158876541" lon="8.480086727746805"><ele>99.0</ele><time>2026-04-04T10:23:18Z</time></trkpt><trkpt lat="39.62001975223388" lon="8.480120302830823"><ele>98.0</ele><time>2026-04-04T10:23:19Z</time></trkpt><trkpt lat="39.620144461556514" lon="8.480149852548792"><ele>97.0</ele><time>2026-04-04T10:23:20Z</time></trkpt><trkpt lat="39.62027066087737" lon="8.480182619388064"><ele>95.0</ele><time>2026-04-04T10:23:21Z</time></trkpt><trkpt lat="39.620394377884104" lon="8.480213971421309"><ele>93.0</ele><time>2026-04-04T10:23:22Z</time></trkpt><trkpt lat="39.62051175596854" lon="8.480212741324701"><ele>91.0</ele><time>2026-04-04T10:23:23Z</time></trkpt><trkpt lat="39.620623921420055" lon="8.480172099759464"><ele>89.0</ele><time>2026-04-04T10:23:24Z</time></trkpt><trkpt lat="39.620730396841815" lon="8.48009651848386"><ele>89.0</ele><time>2026-04-04T10:23:25Z</time></trkpt><trkpt lat="39.62083775722045" lon="8.480000005002195"><ele>89.0</ele><time>2026-04-04T10:23:26Z</time></trkpt><trkpt lat="39.620952457967775" lon="8.479902007367523"><ele>89.0</ele><time>2026-04-04T10:23:27Z</time></trkpt><trkpt lat="39.62107481719663" lon="8.479808254169148"><ele>89.0</ele><time>2026-04-04T10:23:28Z</time></trkpt><trkpt lat="39.62119986739918" lon="8.479709337207202"><ele>88.25</ele><time>2026-04-04T10:23:29Z</time></trkpt><trkpt lat="39.6213241850026" lon="8.479609810683245"><ele>87.5</ele><time>2026-04-04T10:23:30Z</time></trkpt><trkpt lat="39.621446158987766" lon="8.479515304811043"><ele>86.75</ele><time>2026-04-04T10:23:31Z</time></trkpt><trkpt lat="39.62157011309079" lon="8.47942201115302"><ele>86.0</ele><time>2026-04-04T10:23:32Z</time></trkpt><trkpt lat="39.62169043026998" lon="8.479326979032871"><ele>85.75</ele><time>2026-04-04T10:23:33Z</time></trkpt><trkpt lat="39.621809927105794" lon="8.479233835438093"><ele>85.5</ele><time>2026-04-04T10:23:34Z</time></trkpt><trkpt lat="39.62192996970377" lon="8.479138963220741"><ele>85.25</ele><time>2026-04-04T10:23:35Z</time></trkpt><trkpt lat="39.62205269605913" lon="8.479046628552503"><ele>85.0</ele><time>2026-04-04T10:23:36Z</time></trkpt><trkpt lat="39.62217920455309" lon="8.478950895900981"><ele>85.5</ele><time>2026-04-04T10:23:37Z</time></trkpt><trkpt lat="39.62230565950284" lon="8.478852926661611"><ele>86.0</ele><time>2026-04-04T10:23:38Z</time></trkpt><trkpt lat="39.62242965957353" lon="8.478744179147029"><ele>86.5</ele><time>2026-04-04T10:23:39Z</time></trkpt><trkpt lat="39.62254950506938" lon="8.478621627569437"><ele>87.0</ele><time>2026-04-04T10:23:40Z</time></trkpt><trkpt lat="39.62265936045116" lon="8.478488274020357"><ele>86.75</ele><time>2026-04-04T10:23:41Z</time></trkpt><trkpt lat="39.622766631206886" lon="8.478355187982572"><ele>86.5</ele><time>2026-04-04T10:23:42Z</time></trkpt><trkpt lat="39.622875439183275" lon="8.478222643726832"><ele>86.25</ele><time>2026-04-04T10:23:43Z</time></trkpt><trkpt lat="39.622982342736606" lon="8.478087736329645"><ele>86.0</ele><time>2026-04-04T10:23:44Z</time></trkpt><trkpt lat="39.62307486913526" lon="8.477937651446606"><ele>85.0</ele><time>2026-04-04T10:23:45Z</time></trkpt><trkpt lat="39.623154857067995" lon="8.477777921249086"><ele>84.0</ele><time>2026-04-04T10:23:46Z</time></trkpt><trkpt lat="39.623221178988445" lon="8.477611231196432"><ele>83.0</ele><time>2026-04-04T10:23:47Z</time></trkpt><trkpt lat="39.623283061785116" lon="8.477444924383576"><ele>82.0</ele><time>2026-04-04T10:23:48Z</time></trkpt><trkpt lat="39.62335943341563" lon="8.477295940430354"><ele>82.0</ele><time>2026-04-04T10:23:49Z</time></trkpt><trkpt lat="39.62345857810899" lon="8.477176573911587"><ele>82.0</ele><time>2026-04-04T10:23:50Z</time></trkpt><trkpt lat="39.62357871105502" lon="8.477088944102702"><ele>82.0</ele><time>2026-04-04T10:23:51Z</time></trkpt><trkpt lat="39.62371290111663" lon="8.477053054531764"><ele>82.0</ele><time>2026-04-04T10:23:52Z</time></trkpt><trkpt lat="39.62384632766223" lon="8.477031616354484"><ele>80.5</ele><time>2026-04-04T10:23:53Z</time></trkpt><trkpt lat="39.62397824514482" lon="8.477005537230662"><ele>79.0</ele><time>2026-04-04T10:23:54Z</time></trkpt><trkpt lat="39.62409851097785" lon="8.476964614613593"><ele>77.5</ele><time>2026-04-04T10:23:55Z</time></trkpt><trkpt lat="39.62420086454984" lon="8.476906411429033"><ele>76.0</ele><time>2026-04-04T10:23:56Z</time></trkpt><trkpt lat="39.624289829791806" lon="8.476822825806693"><ele>76.0</ele><time>2026-04-04T10:23:57Z</time></trkpt><trkpt lat="39.62434898164733" lon="8.47670165656788"><ele>76.0</ele><time>2026-04-04T10:23:58Z</time></trkpt><trkpt lat="39.62437475694556" lon="8.476559225973245"><ele>76.0</ele><time>2026-04-04T10:23:59Z</time></trkpt><trkpt lat="39.62436729680662" lon="8.476410083848753"><ele>76.0</ele><time>2026-04-04T10:24:00Z</time></trkpt><trkpt lat="39.624317539934154" lon="8.47627940943059"><ele>76.39999999999999</ele><time>2026-04-04T10:24:01Z</time></trkpt><trkpt lat="39.624256736183995" lon="8.476170597739722"><ele>76.8</ele><time>2026-04-04T10:24:02Z</time></trkpt><trkpt lat="39.62423669727292" lon="8.476058085891612"><ele>77.19999999999999</ele><time>2026-04-04T10:24:03Z</time></trkpt><trkpt lat="39.62426908392517" lon="8.475937132350278"><ele>77.6</ele><time>2026-04-04T10:24:04Z</time></trkpt><trkpt lat="39.62430938463938" lon="8.475806811760082"><ele>78.0</ele><time>2026-04-04T10:24:05Z</time></trkpt><trkpt lat="39.62435199309533" lon="8.47568181671351"><ele>78.0</ele><time>2026-04-04T10:24:06Z</time></trkpt><trkpt lat="39.624420954067055" lon="8.475584021832471"><ele>78.0</ele><time>2026-04-04T10:24:07Z</time></trkpt><trkpt lat="39.62451521507092" lon="8.475502474809016"><ele>78.0</ele><time>2026-04-04T10:24:08Z</time></trkpt><trkpt lat="39.624617633042995" lon="8.475424441998918"><ele>78.0</ele><time>2026-04-04T10:24:09Z</time></trkpt><trkpt lat="39.62471475644033" lon="8.475328722996"><ele>82.5</ele><time>2026-04-04T10:24:10Z</time></trkpt><trkpt lat="39.624790486240016" lon="8.475206386823434"><ele>87.0</ele><time>2026-04-04T10:24:11Z</time></trkpt><trkpt lat="39.62482931309208" lon="8.475054589869101"><ele>91.5</ele><time>2026-04-04T10:24:12Z</time></trkpt><trkpt lat="39.62483806686011" lon="8.474886900709986"><ele>96.0</ele><time>2026-04-04T10:24:13Z</time></trkpt><trkpt lat="39.62486809420746" lon="8.474729304902171"><ele>94.8</ele><time>2026-04-04T10:24:14Z</time></trkpt><trkpt lat="39.6249414405906" lon="8.474599100656853"><ele>93.6</ele><time>2026-04-04T10:24:15Z</time></trkpt><trkpt lat="39.62503506916976" lon="8.47449153328185"><ele>92.4</ele><time>2026-04-04T10:24:16Z</time></trkpt><trkpt lat="39.625129111655085" lon="8.474437853162414"><ele>91.2</ele><time>2026-04-04T10:24:17Z</time></trkpt><trkpt lat="39.6252187783332" lon="8.474446682690225"><ele>90.0</ele><time>2026-04-04T10:24:18Z</time></trkpt><trkpt lat="39.62528325522333" lon="8.474520419893274"><ele>91.0</ele><time>2026-04-04T10:24:19Z</time></trkpt><trkpt lat="39.62532737811333" lon="8.474641096244548"><ele>92.0</ele><time>2026-04-04T10:24:20Z</time></trkpt><trkpt lat="39.625374396527846" lon="8.47477284108319"><ele>93.0</ele><time>2026-04-04T10:24:21Z</time></trkpt><trkpt lat="39.62545635230144" lon="8.474914195076668"><ele>94.0</ele><time>2026-04-04T10:24:22Z</time></trkpt><trkpt lat="39.62556692565516" lon="8.47503437860859"><ele>94.0</ele><time>2026-04-04T10:24:23Z</time></trkpt><trkpt lat="39.62570395746189" lon="8.475106929756112"><ele>94.0</ele><time>2026-04-04T10:24:24Z</time></trkpt><trkpt lat="39.62585519212838" lon="8.475168296038415"><ele>94.0</ele><time>2026-04-04T10:24:25Z</time></trkpt><trkpt lat="39.625999657014354" lon="8.475244812597134"><ele>94.0</ele><time>2026-04-04T10:24:26Z</time></trkpt><trkpt lat="39.62613860033891" lon="8.47535193198355"><ele>94.0</ele><time>2026-04-04T10:24:27Z</time></trkpt><trkpt lat="39.62626737849745" lon="8.475482519316557"><ele>94.0</ele><time>2026-04-04T10:24:28Z</time></trkpt><trkpt lat="39.62640017167646" lon="8.475607293210059"><ele>96.0</ele><time>2026-04-04T10:24:29Z</time></trkpt><trkpt lat="39.626551820494136" lon="8.475700230764309"><ele>98.0</ele><time>2026-04-04T10:24:30Z</time></trkpt><trkpt lat="39.62671574660747" lon="8.475759425159476"><ele>100.0</ele><time>2026-04-04T10:24:31Z</time></trkpt><trkpt lat="39.62688165583444" lon="8.47581692890555"><ele>95.33333333333334</ele><time>2026-04-04T10:24:32Z</time></trkpt><trkpt lat="39.62704340174838" lon="8.475873251776811"><ele>90.66666666666667</ele><time>2026-04-04T10:24:33Z</time></trkpt><trkpt lat="39.62720254574565" lon="8.475899904617599"><ele>86.0</ele><time>2026-04-04T10:24:34Z</time></trkpt><trkpt lat="39.62736792447169" lon="8.475926016168035"><ele>86.0</ele><time>2026-04-04T10:24:35Z</time></trkpt><trkpt lat="39.627506240172025" lon="8.476002042800484"><ele>86.0</ele><time>2026-04-04T10:24:36Z</time></trkpt><trkpt lat="39.62763115498825" lon="8.476130716141453"><ele>86.0</ele><time>2026-04-04T10:24:37Z</time></trkpt><trkpt lat="39.62776214616058" lon="8.476243726416218"><ele>89.66666666666667</ele><time>2026-04-04T10:24:38Z</time></trkpt><trkpt lat="39.627902858407275" lon="8.476354251387695"><ele>93.33333333333334</ele><time>2026-04-04T10:24:39Z</time></trkpt><trkpt lat="39.62803984124226" lon="8.476457010601916"><ele>97.0</ele><time>2026-04-04T10:24:40Z</time></trkpt><trkpt lat="39.628172613769664" lon="8.476552595294079"><ele>97.0</ele><time>2026-04-04T10:24:41Z</time></trkpt><trkpt lat="39.62830613532679" lon="8.47662571142462"><ele>97.0</ele><time>2026-04-04T10:24:42Z</time></trkpt><trkpt lat="39.628447506378585" lon="8.476666179448006"><ele>97.0</ele><time>2026-04-04T10:24:43Z</time></trkpt><trkpt lat="39.62858716974093" lon="8.476700737427073"><ele>97.0</ele><time>2026-04-04T10:24:44Z</time></trkpt><trkpt lat="39.628724333317855" lon="8.476696902843377"><ele>96.75</ele><time>2026-04-04T10:24:45Z</time></trkpt><trkpt lat="39.628861906081276" lon="8.476650297394569"><ele>96.5</ele><time>2026-04-04T10:24:46Z</time></trkpt><trkpt lat="39.62899086142137" lon="8.47656557724773"><ele>96.25</ele><time>2026-04-04T10:24:47Z</time></trkpt><trkpt lat="39.62909925951735" lon="8.476487239587525"><ele>96.0</ele><time>2026-04-04T10:24:48Z</time></trkpt><trkpt lat="39.62921877165769" lon="8.476443175062863"><ele>96.0</ele><time>2026-04-04T10:24:49Z</time></trkpt><trkpt lat="39.629328367352194" lon="8.476453047950926"><ele>96.0</ele><time>2026-04-04T10:24:50Z</time></trkpt><trkpt lat="39.629415830817976" lon="8.476502776719508"><ele>96.0</ele><time>2026-04-04T10:24:51Z</time></trkpt><trkpt lat="39.62948919794707" lon="8.476607744405843"><ele>96.0</ele><time>2026-04-04T10:24:52Z</time></trkpt><trkpt lat="39.62955991766328" lon="8.476740583833553"><ele>96.0</ele><time>2026-04-04T10:24:53Z</time></trkpt><trkpt lat="39.62965887232708" lon="8.476854056555954"><ele>97.33333333333334</ele><time>2026-04-04T10:24:54Z</time></trkpt><trkpt lat="39.62978129414628" lon="8.476954460727617"><ele>98.66666666666667</ele><time>2026-04-04T10:24:55Z</time></trkpt><trkpt lat="39.62991584809127" lon="8.477059246687523"><ele>100.0</ele><time>2026-04-04T10:24:56Z</time></trkpt><trkpt lat="39.630044304322595" lon="8.477166709319453"><ele>100.0</ele><time>2026-04-04T10:24:57Z</time></trkpt><trkpt lat="39.63017363255461" lon="8.477279131492853"><ele>100.0</ele><time>2026-04-04T10:24:58Z</time></trkpt><trkpt lat="39.63024880492955" lon="8.47737183279753"><ele>100.0</ele><time>2026-04-04T10:24:59Z</time></trkpt><trkpt lat="39.63035365745696" lon="8.477502467501767"><ele>100.0</ele><time>2026-04-04T10:25:00Z</time></trkpt><trkpt lat="39.63045053916961" lon="8.477648724240646"><ele>101.33333333333334</ele><time>2026-04-04T10:25:01Z</time></trkpt><trkpt lat="39.63054284624338" lon="8.477806133525073"><ele>102.66666666666666</ele><time>2026-04-04T10:25:02Z</time></trkpt><trkpt lat="39.630641016965065" lon="8.47796276130201"><ele>104.0</ele><time>2026-04-04T10:25:03Z</time></trkpt><trkpt lat="39.63074283818974" lon="8.478117102392039"><ele>104.0</ele><time>2026-04-04T10:25:04Z</time></trkpt><trkpt lat="39.630844394596814" lon="8.478267711621845"><ele>104.0</ele><time>2026-04-04T10:25:05Z</time></trkpt><trkpt lat="39.63095207753303" lon="8.47840975326392"><ele>104.0</ele><time>2026-04-04T10:25:06Z</time></trkpt><trkpt lat="39.63108505575923" lon="8.478518573676656"><ele>108.0</ele><time>2026-04-04T10:25:07Z</time></trkpt><trkpt lat="39.63123553963417" lon="8.478604623134688"><ele>112.0</ele><time>2026-04-04T10:25:08Z</time></trkpt><trkpt lat="39.63137940911538" lon="8.478694028152278"><ele>116.0</ele><time>2026-04-04T10:25:09Z</time></trkpt><trkpt lat="39.631515131564015" lon="8.478791326510215"><ele>116.0</ele><time>2026-04-04T10:25:10Z</time></trkpt><trkpt lat="39.631641391704946" lon="8.478874134671972"><ele>116.0</ele><time>2026-04-04T10:25:11Z</time></trkpt><trkpt lat="39.631761339459956" lon="8.478933672610449"><ele>116.0</ele><time>2026-04-04T10:25:12Z</time></trkpt><trkpt lat="39.63187274166936" lon="8.478944619613644"><ele>116.0</ele><time>2026-04-04T10:25:13Z</time></trkpt><trkpt lat="39.63196864226922" lon="8.478896632078792"><ele>121.0</ele><time>2026-04-04T10:25:14Z</time></trkpt><trkpt lat="39.632059436043406" lon="8.478791681127946"><ele>126.0</ele><time>2026-04-04T10:25:15Z</time></trkpt><trkpt lat="39.63213680788252" lon="8.47864467627971"><ele>131.0</ele><time>2026-04-04T10:25:16Z</time></trkpt><trkpt lat="39.63219401523288" lon="8.478468653499089"><ele>136.0</ele><time>2026-04-04T10:25:17Z</time></trkpt><trkpt lat="39.63225372602784" lon="8.478291570704355"><ele>136.0</ele><time>2026-04-04T10:25:18Z</time></trkpt><trkpt lat="39.632319021334155" lon="8.478122712641682"><ele>136.0</ele><time>2026-04-04T10:25:19Z</time></trkpt><trkpt lat="39.6323893278781" lon="8.477956333465675"><ele>136.0</ele><time>2026-04-04T10:25:20Z</time></trkpt><trkpt lat="39.63245493280531" lon="8.477789231541832"><ele>136.0</ele><time>2026-04-04T10:25:21Z</time></trkpt><trkpt lat="39.632522119084" lon="8.477630000375587"><ele>135.0</ele><time>2026-04-04T10:25:22Z</time></trkpt><trkpt lat="39.632616131118354" lon="8.477477420667281"><ele>134.0</ele><time>2026-04-04T10:25:23Z</time></trkpt><trkpt lat="39.63272776581979" lon="8.477357195419147"><ele>133.0</ele><time>2026-04-04T10:25:24Z</time></trkpt><trkpt lat="39.63280600893736" lon="8.477224968676397"><ele>132.0</ele><time>2026-04-04T10:25:25Z</time></trkpt><trkpt lat="39.63289966045574" lon="8.477098572564692"><ele>134.25</ele><time>2026-04-04T10:25:26Z</time></trkpt><trkpt lat="39.63299395899919" lon="8.476971211341993"><ele>136.5</ele><time>2026-04-04T10:25:27Z</time></trkpt><trkpt lat="39.63309273711166" lon="8.476848480938465"><ele>138.75</ele><time>2026-04-04T10:25:28Z</time></trkpt><trkpt lat="39.63319987135817" lon="8.47673522308965"><ele>141.0</ele><time>2026-04-04T10:25:29Z</time></trkpt><trkpt lat="39.63331374117513" lon="8.476639670103523"><ele>141.0</ele><time>2026-04-04T10:25:30Z</time></trkpt><trkpt lat="39.633430677237875" lon="8.476566523524163"><ele>141.0</ele><time>2026-04-04T10:25:31Z</time></trkpt><trkpt lat="39.633552343161256" lon="8.476528420672013"><ele>141.0</ele><time>2026-04-04T10:25:32Z</time></trkpt><trkpt lat="39.633677403357545" lon="8.476525625854663"><ele>141.0</ele><time>2026-04-04T10:25:33Z</time></trkpt><trkpt lat="39.63379614635194" lon="8.476564705193713"><ele>140.0</ele><time>2026-04-04T10:25:34Z</time></trkpt><trkpt lat="39.63390127622813" lon="8.476653779331345"><ele>139.0</ele><time>2026-04-04T10:25:35Z</time></trkpt><trkpt lat="39.63399028777385" lon="8.476776226391628"><ele>138.0</ele><time>2026-04-04T10:25:36Z</time></trkpt><trkpt lat="39.6340560039691" lon="8.476923536665893"><ele>137.0</ele><time>2026-04-04T10:25:37Z</time></trkpt><trkpt lat="39.634095948526216" lon="8.477083757714702"><ele>138.25</ele><time>2026-04-04T10:25:38Z</time></trkpt><trkpt lat="39.63411270942201" lon="8.477251982705729"><ele>139.5</ele><time>2026-04-04T10:25:39Z</time></trkpt><trkpt lat="39.63413001524047" lon="8.477421065236467"><ele>140.75</ele><time>2026-04-04T10:25:40Z</time></trkpt><trkpt lat="39.63415340439004" lon="8.477590542010578"><ele>142.0</ele><time>2026-04-04T10:25:41Z</time></trkpt><trkpt lat="39.63418328373104" lon="8.477762558866356"><ele>143.0</ele><time>2026-04-04T10:25:42Z</time></trkpt><trkpt lat="39.634216200582536" lon="8.477935324287044"><ele>144.0</ele><time>2026-04-04T10:25:43Z</time></trkpt><trkpt lat="39.634244737202636" lon="8.47811434927634"><ele>145.0</ele><time>2026-04-04T10:25:44Z</time></trkpt><trkpt lat="39.63426805776941" lon="8.47829628417845"><ele>146.0</ele><time>2026-04-04T10:25:45Z</time></trkpt><trkpt lat="39.63429526903293" lon="8.478478536050575"><ele>146.0</ele><time>2026-04-04T10:25:46Z</time></trkpt><trkpt lat="39.63432978338491" lon="8.478660946137405"><ele>146.0</ele><time>2026-04-04T10:25:47Z</time></trkpt><trkpt lat="39.63436767214295" lon="8.478837286036397"><ele>146.0</ele><time>2026-04-04T10:25:48Z</time></trkpt><trkpt lat="39.634424006396664" lon="8.479006009635297"><ele>146.0</ele><time>2026-04-04T10:25:49Z</time></trkpt><trkpt lat="39.63450542250773" lon="8.479160983196353"><ele>146.25</ele><time>2026-04-04T10:25:50Z</time></trkpt><trkpt lat="39.6346121973667" lon="8.479298355830316"><ele>146.5</ele><time>2026-04-04T10:25:51Z</time></trkpt><trkpt lat="39.63473038040393" lon="8.47940599015247"><ele>146.75</ele><time>2026-04-04T10:25:52Z</time></trkpt><trkpt lat="39.63485901519575" lon="8.479502177029993"><ele>147.0</ele><time>2026-04-04T10:25:53Z</time></trkpt><trkpt lat="39.63499609076154" lon="8.479563767358366"><ele>147.0</ele><time>2026-04-04T10:25:54Z</time></trkpt><trkpt lat="39.6351394608018" lon="8.479565392045249"><ele>147.0</ele><time>2026-04-04T10:25:55Z</time></trkpt><trkpt lat="39.63528857645051" lon="8.479533398511899"><ele>147.0</ele><time>2026-04-04T10:25:56Z</time></trkpt><trkpt lat="39.63544038981922" lon="8.47947223592366"><ele>147.33333333333334</ele><time>2026-04-04T10:25:57Z</time></trkpt><trkpt lat="39.63559028101434" lon="8.479400264014282"><ele>147.66666666666669</ele><time>2026-04-04T10:25:58Z</time></trkpt><trkpt lat="39.63573938799172" lon="8.479322641824316"><ele>148.0</ele><time>2026-04-04T10:25:59Z</time></trkpt><trkpt lat="39.635881399365715" lon="8.479226945036872"><ele>148.0</ele><time>2026-04-04T10:26:00Z</time></trkpt><trkpt lat="39.63600811816164" lon="8.479100523102552"><ele>148.0</ele><time>2026-04-04T10:26:01Z</time></trkpt><trkpt lat="39.636118946484835" lon="8.478945330111161"><ele>148.0</ele><time>2026-04-04T10:26:02Z</time></trkpt><trkpt lat="39.63620424331554" lon="8.47876150039156"><ele>150.33333333333334</ele><time>2026-04-04T10:26:03Z</time></trkpt><trkpt lat="39.6362874450403" lon="8.478579588925564"><ele>152.66666666666666</ele><time>2026-04-04T10:26:04Z</time></trkpt><trkpt lat="39.636380399139995" lon="8.478402847972635"><ele>155.0</ele><time>2026-04-04T10:26:05Z</time></trkpt><trkpt lat="39.63648129977949" lon="8.478236816573098"><ele>155.0</ele><time>2026-04-04T10:26:06Z</time></trkpt><trkpt lat="39.63659546144705" lon="8.478080267575358"><ele>155.0</ele><time>2026-04-04T10:26:07Z</time></trkpt><trkpt lat="39.636720306346795" lon="8.477944074693065"><ele>155.0</ele><time>2026-04-04T10:26:08Z</time></trkpt><trkpt lat="39.6368577900923" lon="8.477822230440959"><ele>154.33333333333331</ele><time>2026-04-04T10:26:09Z</time></trkpt><trkpt lat="39.63699675627968" lon="8.477709776074423"><ele>153.66666666666666</ele><time>2026-04-04T10:26:10Z</time></trkpt><trkpt lat="39.637141835869265" lon="8.47759718099977"><ele>153.0</ele><time>2026-04-04T10:26:11Z</time></trkpt><trkpt lat="39.63728805556079" lon="8.477483860074168"><ele>153.0</ele><time>2026-04-04T10:26:12Z</time></trkpt><trkpt lat="39.63743379740548" lon="8.477367793202045"><ele>153.0</ele><time>2026-04-04T10:26:13Z</time></trkpt><trkpt lat="39.6375796412742" lon="8.477245332195066"><ele>153.0</ele><time>2026-04-04T10:26:14Z</time></trkpt><trkpt lat="39.63772780571642" lon="8.477119674465364"><ele>152.33333333333334</ele><time>2026-04-04T10:26:15Z</time></trkpt><trkpt lat="39.63787665791073" lon="8.476994410340014"><ele>151.66666666666669</ele><time>2026-04-04T10:26:16Z</time></trkpt><trkpt lat="39.63802676048869" lon="8.47686590777287"><ele>151.0</ele><time>2026-04-04T10:26:17Z</time></trkpt><trkpt lat="39.63817684008453" lon="8.47673865656439"><ele>151.0</ele><time>2026-04-04T10:26:18Z</time></trkpt><trkpt lat="39.63832397748571" lon="8.476621232537392"><ele>151.0</ele><time>2026-04-04T10:26:19Z</time></trkpt><trkpt lat="39.63847401448065" lon="8.476525207899481"><ele>151.0</ele><time>2026-04-04T10:26:20Z</time></trkpt><trkpt lat="39.63863072061147" lon="8.476471677531627"><ele>150.33333333333334</ele><time>2026-04-04T10:26:21Z</time></trkpt><trkpt lat="39.63879164363782" lon="8.476471089024033"><ele>149.66666666666666</ele><time>2026-04-04T10:26:22Z</time></trkpt><trkpt lat="39.63894628891258" lon="8.476491132235449"><ele>149.0</ele><time>2026-04-04T10:26:23Z</time></trkpt><trkpt lat="39.63909935044059" lon="8.476498533913356"><ele>149.0</ele><time>2026-04-04T10:26:24Z</time></trkpt><trkpt lat="39.63924503391871" lon="8.476466899675977"><ele>149.0</ele><time>2026-04-04T10:26:25Z</time></trkpt><trkpt lat="39.6393813470333" lon="8.476385074125018"><ele>149.0</ele><time>2026-04-04T10:26:26Z</time></trkpt><trkpt lat="39.6395011536167" lon="8.476254833492584"><ele>148.66666666666666</ele><time>2026-04-04T10:26:27Z</time></trkpt><trkpt lat="39.63960376750307" lon="8.476094644837037"><ele>148.33333333333334</ele><time>2026-04-04T10:26:28Z</time></trkpt><trkpt lat="39.639695167497024" lon="8.475920494434067"><ele>148.0</ele><time>2026-04-04T10:26:29Z</time></trkpt><trkpt lat="39.639787405011226" lon="8.475745646821427"><ele>148.0</ele><time>2026-04-04T10:26:30Z</time></trkpt><trkpt lat="39.63988054165509" lon="8.475573501634148"><ele>148.0</ele><time>2026-04-04T10:26:31Z</time></trkpt><trkpt lat="39.63997752862278" lon="8.475408739765967"><ele>148.0</ele><time>2026-04-04T10:26:32Z</time></trkpt><trkpt lat="39.64007265912563" lon="8.475253043779386"><ele>147.0</ele><time>2026-04-04T10:26:33Z</time></trkpt><trkpt lat="39.64016517829727" lon="8.475099989909927"><ele>146.0</ele><time>2026-04-04T10:26:34Z</time></trkpt><trkpt lat="39.640256971876745" lon="8.47494742526818"><ele>145.0</ele><time>2026-04-04T10:26:35Z</time></trkpt><trkpt lat="39.64034883907788" lon="8.474798563599581"><ele>144.0</ele><time>2026-04-04T10:26:36Z</time></trkpt><trkpt lat="39.640445960171455" lon="8.474664026324769"><ele>142.5</ele><time>2026-04-04T10:26:37Z</time></trkpt><trkpt lat="39.64055948297666" lon="8.474548457539699"><ele>141.0</ele><time>2026-04-04T10:26:38Z</time></trkpt><trkpt lat="39.64068704988649" lon="8.474463005171227"><ele>139.5</ele><time>2026-04-04T10:26:39Z</time></trkpt><trkpt lat="39.64082254998336" lon="8.474409607116296"><ele>138.0</ele><time>2026-04-04T10:26:40Z</time></trkpt><trkpt lat="39.640962142868986" lon="8.474383330186877"><ele>138.0</ele><time>2026-04-04T10:26:41Z</time></trkpt><trkpt lat="39.641111007378804" lon="8.474373920935825"><ele>138.0</ele><time>2026-04-04T10:26:42Z</time></trkpt><trkpt lat="39.64126435629795" lon="8.474385342490008"><ele>138.0</ele><time>2026-04-04T10:26:43Z</time></trkpt><trkpt lat="39.64142105698042" lon="8.474409589072991"><ele>138.33333333333334</ele><time>2026-04-04T10:26:44Z</time></trkpt><trkpt lat="39.64158320701249" lon="8.474422200201696"><ele>138.66666666666669</ele><time>2026-04-04T10:26:45Z</time></trkpt><trkpt lat="39.641749784656355" lon="8.474430997288582"><ele>139.0</ele><time>2026-04-04T10:26:46Z</time></trkpt><trkpt lat="39.64191207139423" lon="8.47443973824367"><ele>137.33333333333334</ele><time>2026-04-04T10:26:47Z</time></trkpt><trkpt lat="39.642075173957565" lon="8.474448896901281"><ele>135.66666666666666</ele><time>2026-04-04T10:26:48Z</time></trkpt><trkpt lat="39.64223510122128" lon="8.474452218558973"><ele>134.0</ele><time>2026-04-04T10:26:49Z</time></trkpt><trkpt lat="39.64239181244496" lon="8.474431891959464"><ele>134.0</ele><time>2026-04-04T10:26:50Z</time></trkpt><trkpt lat="39.642546867432515" lon="8.47436557166522"><ele>134.0</ele><time>2026-04-04T10:26:51Z</time></trkpt><trkpt lat="39.64269672343081" lon="8.474291888631702"><ele>134.0</ele><time>2026-04-04T10:26:52Z</time></trkpt><trkpt lat="39.64284897428998" lon="8.474236228126712"><ele>132.33333333333331</ele><time>2026-04-04T10:26:53Z</time></trkpt><trkpt lat="39.64300414513428" lon="8.474230295070594"><ele>130.66666666666666</ele><time>2026-04-04T10:26:54Z</time></trkpt><trkpt lat="39.64315165962092" lon="8.474276339162342"><ele>129.0</ele><time>2026-04-04T10:26:55Z</time></trkpt><trkpt lat="39.64330067524806" lon="8.474334069196468"><ele>129.0</ele><time>2026-04-04T10:26:56Z</time></trkpt><trkpt lat="39.643445992892374" lon="8.474381135967798"><ele>129.0</ele><time>2026-04-04T10:26:57Z</time></trkpt><trkpt lat="39.64359188113306" lon="8.474383005246736"><ele>129.0</ele><time>2026-04-04T10:26:58Z</time></trkpt><trkpt lat="39.643724977233326" lon="8.474309428699742"><ele>129.0</ele><time>2026-04-04T10:26:59Z</time></trkpt><trkpt lat="39.643849674165416" lon="8.474205858189158"><ele>126.25</ele><time>2026-04-04T10:27:00Z</time></trkpt><trkpt lat="39.643974037626855" lon="8.474111749289614"><ele>123.5</ele><time>2026-04-04T10:27:01Z</time></trkpt><trkpt lat="39.64410919834412" lon="8.474052441010071"><ele>120.75</ele><time>2026-04-04T10:27:02Z</time></trkpt><trkpt lat="39.644250353931916" lon="8.474034081599644"><ele>118.0</ele><time>2026-04-04T10:27:03Z</time></trkpt><trkpt lat="39.64438949879043" lon="8.474066631307121"><ele>117.75</ele><time>2026-04-04T10:27:04Z</time></trkpt><trkpt lat="39.64450826828601" lon="8.474158719566606"><ele>117.5</ele><time>2026-04-04T10:27:05Z</time></trkpt><trkpt lat="39.64460748375519" lon="8.474283371547893"><ele>117.25</ele><time>2026-04-04T10:27:06Z</time></trkpt><trkpt lat="39.644718904376504" lon="8.474395566259782"><ele>117.0</ele><time>2026-04-04T10:27:07Z</time></trkpt><trkpt lat="39.644863836897635" lon="8.4744633045687"><ele>117.0</ele><time>2026-04-04T10:27:08Z</time></trkpt><trkpt lat="39.645033058320294" lon="8.474489007906449"><ele>117.0</ele><time>2026-04-04T10:27:09Z</time></trkpt><trkpt lat="39.645202761853746" lon="8.47451352405361"><ele>117.0</ele><time>2026-04-04T10:27:10Z</time></trkpt><trkpt lat="39.64536869714749" lon="8.474547337144125"><ele>115.66666666666666</ele><time>2026-04-04T10:27:11Z</time></trkpt><trkpt lat="39.64553038118413" lon="8.474588814556121"><ele>114.33333333333333</ele><time>2026-04-04T10:27:12Z</time></trkpt><trkpt lat="39.64568859315706" lon="8.474621433131015"><ele>113.0</ele><time>2026-04-04T10:27:13Z</time></trkpt><trkpt lat="39.645847123387334" lon="8.474651299619309"><ele>109.5</ele><time>2026-04-04T10:27:14Z</time></trkpt><trkpt lat="39.64599738855714" lon="8.474684777414378"><ele>106.0</ele><time>2026-04-04T10:27:15Z</time></trkpt><trkpt lat="39.64614263511721" lon="8.47472677009403"><ele>102.5</ele><time>2026-04-04T10:27:16Z</time></trkpt><trkpt lat="39.646278060807276" lon="8.474790431902914"><ele>99.0</ele><time>2026-04-04T10:27:17Z</time></trkpt><trkpt lat="39.64639017686322" lon="8.474899858363287"><ele>98.66666666666666</ele><time>2026-04-04T10:27:18Z</time></trkpt><trkpt lat="39.64648323894051" lon="8.475046232282175"><ele>98.33333333333333</ele><time>2026-04-04T10:27:19Z</time></trkpt><trkpt lat="39.64656370468034" lon="8.475214709698108"><ele>98.0</ele><time>2026-04-04T10:27:20Z</time></trkpt><trkpt lat="39.64664450019951" lon="8.475386269823792"><ele>97.25</ele><time>2026-04-04T10:27:21Z</time></trkpt><trkpt lat="39.6467279132479" lon="8.475553047124723"><ele>96.5</ele><time>2026-04-04T10:27:22Z</time></trkpt><trkpt lat="39.64681273011128" lon="8.475713510366107"><ele>95.75</ele><time>2026-04-04T10:27:23Z</time></trkpt><trkpt lat="39.64689672274877" lon="8.475863862189364"><ele>95.0</ele><time>2026-04-04T10:27:24Z</time></trkpt><trkpt lat="39.6469804227516" lon="8.47600496587006"><ele>94.5</ele><time>2026-04-04T10:27:25Z</time></trkpt><trkpt lat="39.64707232926718" lon="8.476114185612595"><ele>94.0</ele><time>2026-04-04T10:27:26Z</time></trkpt><trkpt lat="39.64718882524738" lon="8.476173385601738"><ele>93.5</ele><time>2026-04-04T10:27:27Z</time></trkpt><trkpt lat="39.647324012515746" lon="8.476182582453756"><ele>93.0</ele><time>2026-04-04T10:27:28Z</time></trkpt><trkpt lat="39.647462375627995" lon="8.476143897853188"><ele>93.0</ele><time>2026-04-04T10:27:29Z</time></trkpt><trkpt lat="39.64760909415834" lon="8.476116723985745"><ele>93.0</ele><time>2026-04-04T10:27:30Z</time></trkpt><trkpt lat="39.64775501415587" lon="8.476085974388148"><ele>93.0</ele><time>2026-04-04T10:27:31Z</time></trkpt><trkpt lat="39.64789900703413" lon="8.476061508384596"><ele>93.0</ele><time>2026-04-04T10:27:32Z</time></trkpt><trkpt lat="39.64804624818245" lon="8.476045374393948"><ele>95.75</ele><time>2026-04-04T10:27:33Z</time></trkpt><trkpt lat="39.64818718350743" lon="8.476021710399568"><ele>98.5</ele><time>2026-04-04T10:27:34Z</time></trkpt><trkpt lat="39.64832921526903" lon="8.476001699671443"><ele>101.25</ele><time>2026-04-04T10:27:35Z</time></trkpt><trkpt lat="39.648467824158146" lon="8.475976786571511"><ele>104.0</ele><time>2026-04-04T10:27:36Z</time></trkpt><trkpt lat="39.648605468422986" lon="8.475927580359764"><ele>109.75</ele><time>2026-04-04T10:27:37Z</time></trkpt><trkpt lat="39.64872849289136" lon="8.475848186482281"><ele>115.5</ele><time>2026-04-04T10:27:38Z</time></trkpt><trkpt lat="39.64882485724461" lon="8.475739658961503"><ele>121.25</ele><time>2026-04-04T10:27:39Z</time></trkpt><trkpt lat="39.64889305802844" lon="8.475600582591255"><ele>127.0</ele><time>2026-04-04T10:27:40Z</time></trkpt><trkpt lat="39.64891939946337" lon="8.475445772275423"><ele>124.39999999999999</ele><time>2026-04-04T10:27:41Z</time></trkpt><trkpt lat="39.64894547480519" lon="8.475283764565091"><ele>121.79999999999998</ele><time>2026-04-04T10:27:42Z</time></trkpt><trkpt lat="39.64897059664967" lon="8.475143322668746"><ele>119.2</ele><time>2026-04-04T10:27:43Z</time></trkpt><trkpt lat="39.64900243927308" lon="8.47504296833317"><ele>116.6</ele><time>2026-04-04T10:27:44Z</time></trkpt><trkpt lat="39.649044038517" lon="8.474980103364034"><ele>114.0</ele><time>2026-04-04T10:27:45Z</time></trkpt><trkpt lat="39.64909933747805" lon="8.474933346289161"><ele>114.0</ele><time>2026-04-04T10:27:46Z</time></trkpt><trkpt lat="39.649222243023274" lon="8.474885316540195"><ele>114.0</ele><time>2026-04-04T10:27:47Z</time></trkpt><trkpt lat="39.649320654055906" lon="8.474886653766058"><ele>114.0</ele><time>2026-04-04T10:27:48Z</time></trkpt><trkpt lat="39.64942391171361" lon="8.474925652118074"><ele>114.0</ele><time>2026-04-04T10:27:49Z</time></trkpt><trkpt lat="39.64954145099589" lon="8.474947340225182"><ele>115.75</ele><time>2026-04-04T10:27:50Z</time></trkpt><trkpt lat="39.64965759431229" lon="8.47499364674476"><ele>117.5</ele><time>2026-04-04T10:27:51Z</time></trkpt><trkpt lat="39.6497771176096" lon="8.475036164894453"><ele>119.25</ele><time>2026-04-04T10:27:52Z</time></trkpt><trkpt lat="39.64989612636679" lon="8.475083943973647"><ele>121.0</ele><time>2026-04-04T10:27:53Z</time></trkpt><trkpt lat="39.65002499091155" lon="8.475129947067193"><ele>121.0</ele><time>2026-04-04T10:27:54Z</time></trkpt><trkpt lat="39.6501569090327" lon="8.475174292677156"><ele>121.0</ele><time>2026-04-04T10:27:55Z</time></trkpt><trkpt lat="39.65029448155461" lon="8.475207674891818"><ele>121.0</ele><time>2026-04-04T10:27:56Z</time></trkpt><trkpt lat="39.65043476074079" lon="8.475203313563306"><ele>121.0</ele><time>2026-04-04T10:27:57Z</time></trkpt><trkpt lat="39.650571863394916" lon="8.475152697736187"><ele>123.0</ele><time>2026-04-04T10:27:58Z</time></trkpt><trkpt lat="39.65070457984154" lon="8.475061660708592"><ele>125.0</ele><time>2026-04-04T10:27:59Z</time></trkpt><trkpt lat="39.6508362292341" lon="8.474968068553355"><ele>127.0</ele><time>2026-04-04T10:28:00Z</time></trkpt><trkpt lat="39.650964901282556" lon="8.47489068693238"><ele>129.0</ele><time>2026-04-04T10:28:01Z</time></trkpt><trkpt lat="39.65108630316756" lon="8.474829629368196"><ele>129.75</ele><time>2026-04-04T10:28:02Z</time></trkpt><trkpt lat="39.651203778030975" lon="8.474802716597797"><ele>130.5</ele><time>2026-04-04T10:28:03Z</time></trkpt><trkpt lat="39.651326657970905" lon="8.47481274886532"><ele>131.25</ele><time>2026-04-04T10:28:04Z</time></trkpt><trkpt lat="39.65143425749623" lon="8.474873903145502"><ele>132.0</ele><time>2026-04-04T10:28:05Z</time></trkpt><trkpt lat="39.651504884885526" lon="8.474998065812962"><ele>132.0</ele><time>2026-04-04T10:28:06Z</time></trkpt><trkpt lat="39.651527019855955" lon="8.475136541683527"><ele>132.0</ele><time>2026-04-04T10:28:07Z</time></trkpt><trkpt lat="39.65153382640502" lon="8.475280135911273"><ele>132.0</ele><time>2026-04-04T10:28:08Z</time></trkpt><trkpt lat="39.651480604066435" lon="8.475431870241998"><ele>132.0</ele><time>2026-04-04T10:28:09Z</time></trkpt><trkpt lat="39.65142630592661" lon="8.475569243967543"><ele>131.5</ele><time>2026-04-04T10:28:10Z</time></trkpt><trkpt lat="39.65136439585031" lon="8.475716183742028"><ele>131.0</ele><time>2026-04-04T10:28:11Z</time></trkpt><trkpt lat="39.65131033468474" lon="8.475879104785175"><ele>130.5</ele><time>2026-04-04T10:28:12Z</time></trkpt><trkpt lat="39.65126373616394" lon="8.476055325394091"><ele>130.0</ele><time>2026-04-04T10:28:13Z</time></trkpt><trkpt lat="39.65123880880581" lon="8.476243363840267"><ele>130.5</ele><time>2026-04-04T10:28:14Z</time></trkpt><trkpt lat="39.651239640952255" lon="8.476438000577653"><ele>131.0</ele><time>2026-04-04T10:28:15Z</time></trkpt><trkpt lat="39.65124655270967" lon="8.476628601931733"><ele>131.5</ele><time>2026-04-04T10:28:16Z</time></trkpt><trkpt lat="39.65124418854629" lon="8.476811289292131"><ele>132.0</ele><time>2026-04-04T10:28:17Z</time></trkpt><trkpt lat="39.65123839273201" lon="8.47698258183035"><ele>134.25</ele><time>2026-04-04T10:28:18Z</time></trkpt><trkpt lat="39.65124399214462" lon="8.47714424122346"><ele>136.5</ele><time>2026-04-04T10:28:19Z</time></trkpt><trkpt lat="39.65126790575128" lon="8.477298662481063"><ele>138.75</ele><time>2026-04-04T10:28:20Z</time></trkpt><trkpt lat="39.65131873880146" lon="8.47743253804615"><ele>141.0</ele><time>2026-04-04T10:28:21Z</time></trkpt><trkpt lat="39.651402719252516" lon="8.477527786042216"><ele>141.0</ele><time>2026-04-04T10:28:22Z</time></trkpt><trkpt lat="39.65151324577938" lon="8.477583576693144"><ele>141.0</ele><time>2026-04-04T10:28:23Z</time></trkpt><trkpt lat="39.65163572554165" lon="8.477603348149767"><ele>141.0</ele><time>2026-04-04T10:28:24Z</time></trkpt><trkpt lat="39.651749814854476" lon="8.477570010807117"><ele>141.0</ele><time>2026-04-04T10:28:25Z</time></trkpt><trkpt lat="39.65184435900694" lon="8.477484819143983"><ele>141.0</ele><time>2026-04-04T10:28:26Z</time></trkpt><trkpt lat="39.651905052548976" lon="8.477339894620268"><ele>141.0</ele><time>2026-04-04T10:28:27Z</time></trkpt><trkpt lat="39.6519295459824" lon="8.477168149908751"><ele>141.0</ele><time>2026-04-04T10:28:28Z</time></trkpt><trkpt lat="39.651954805699496" lon="8.47699431596733"><ele>141.0</ele><time>2026-04-04T10:28:29Z</time></trkpt><trkpt lat="39.6520021747556" lon="8.476854698800693"><ele>141.0</ele><time>2026-04-04T10:28:30Z</time></trkpt><trkpt lat="39.652072686338144" lon="8.476723338039251"><ele>141.0</ele><time>2026-04-04T10:28:31Z</time></trkpt><trkpt lat="39.652145683709264" lon="8.47657852672501"><ele>141.0</ele><time>2026-04-04T10:28:32Z</time></trkpt><trkpt lat="39.652260629013966" lon="8.476491351457579"><ele>141.0</ele><time>2026-04-04T10:28:33Z</time></trkpt><trkpt lat="39.65237345126732" lon="8.47642221306192"><ele>141.0</ele><time>2026-04-04T10:28:34Z</time></trkpt><trkpt lat="39.65248941850782" lon="8.476388579170626"><ele>141.0</ele><time>2026-04-04T10:28:35Z</time></trkpt><trkpt lat="39.65261069651309" lon="8.47641354186347"><ele>141.0</ele><time>2026-04-04T10:28:36Z</time></trkpt><trkpt lat="39.652721973582814" lon="8.476488154961164"><ele>141.0</ele><time>2026-04-04T10:28:37Z</time></trkpt><trkpt lat="39.652824099318856" lon="8.47659526789799"><ele>141.0</ele><time>2026-04-04T10:28:38Z</time></trkpt><trkpt lat="39.65292280346844" lon="8.47672862095666"><ele>141.0</ele><time>2026-04-04T10:28:39Z</time></trkpt><trkpt lat="39.65302318592458" lon="8.47686210795997"><ele>141.0</ele><time>2026-04-04T10:28:40Z</time></trkpt><trkpt lat="39.65311644996241" lon="8.476990538439956"><ele>141.0</ele><time>2026-04-04T10:28:41Z</time></trkpt><trkpt lat="39.65320153629306" lon="8.47712063191567"><ele>141.0</ele><time>2026-04-04T10:28:42Z</time></trkpt><trkpt lat="39.653263686906755" lon="8.47726989815762"><ele>141.0</ele><time>2026-04-04T10:28:43Z</time></trkpt><trkpt lat="39.653292842197594" lon="8.477436206659698"><ele>141.0</ele><time>2026-04-04T10:28:44Z</time></trkpt><trkpt lat="39.653308813772476" lon="8.47760463168098"><ele>141.0</ele><time>2026-04-04T10:28:45Z</time></trkpt><trkpt lat="39.65332886584437" lon="8.477766612618074"><ele>141.0</ele><time>2026-04-04T10:28:46Z</time></trkpt><trkpt lat="39.65335749098177" lon="8.477911838663365"><ele>141.0</ele><time>2026-04-04T10:28:47Z</time></trkpt><trkpt lat="39.65340442292695" lon="8.478043198001611"><ele>141.0</ele><time>2026-04-04T10:28:48Z</time></trkpt><trkpt lat="39.65348241614227" lon="8.47816107666756"><ele>141.0</ele><time>2026-04-04T10:28:49Z</time></trkpt><trkpt lat="39.65359507504277" lon="8.478246019812932"><ele>143.5</ele><time>2026-04-04T10:28:50Z</time></trkpt><trkpt lat="39.65372406180437" lon="8.478286469657"><ele>146.0</ele><time>2026-04-04T10:28:51Z</time></trkpt><trkpt lat="39.65383964885341" lon="8.478273602285263"><ele>148.5</ele><time>2026-04-04T10:28:52Z</time></trkpt><trkpt lat="39.65394683139638" lon="8.478198216421536"><ele>151.0</ele><time>2026-04-04T10:28:53Z</time></trkpt><trkpt lat="39.65403682344905" lon="8.478070160447315"><ele>147.33333333333334</ele><time>2026-04-04T10:28:54Z</time></trkpt><trkpt lat="39.65411565035608" lon="8.477912736074522"><ele>143.66666666666666</ele><time>2026-04-04T10:28:55Z</time></trkpt><trkpt lat="39.65416211794731" lon="8.477727344394319"><ele>140.0</ele><time>2026-04-04T10:28:56Z</time></trkpt><trkpt lat="39.65418878702992" lon="8.47752630679488"><ele>140.0</ele><time>2026-04-04T10:28:57Z</time></trkpt><trkpt lat="39.65421337992389" lon="8.477324045526691"><ele>140.0</ele><time>2026-04-04T10:28:58Z</time></trkpt><trkpt lat="39.654240014954546" lon="8.477125325774914"><ele>140.0</ele><time>2026-04-04T10:28:59Z</time></trkpt><trkpt lat="39.654267516891366" lon="8.476935163226683"><ele>140.75</ele><time>2026-04-04T10:29:00Z</time></trkpt><trkpt lat="39.65431671371909" lon="8.476763980107558"><ele>141.5</ele><time>2026-04-04T10:29:01Z</time></trkpt><trkpt lat="39.65435285412313" lon="8.476589777487389"><ele>142.25</ele><time>2026-04-04T10:29:02Z</time></trkpt><trkpt lat="39.65442100362439" lon="8.476413533977036"><ele>143.0</ele><time>2026-04-04T10:29:03Z</time></trkpt><trkpt lat="39.65450279695685" lon="8.476236528477365"><ele>143.0</ele><time>2026-04-04T10:29:04Z</time></trkpt><trkpt lat="39.654583485328686" lon="8.476050411640646"><ele>143.0</ele><time>2026-04-04T10:29:05Z</time></trkpt><trkpt lat="39.654666681113945" lon="8.475873707138355"><ele>143.0</ele><time>2026-04-04T10:29:06Z</time></trkpt><trkpt lat="39.654750314898614" lon="8.47571394569676"><ele>143.0</ele><time>2026-04-04T10:29:07Z</time></trkpt><trkpt lat="39.65484838998051" lon="8.475592737150375"><ele>143.0</ele><time>2026-04-04T10:29:08Z</time></trkpt><trkpt lat="39.6549752670214" lon="8.47550447182166"><ele>143.0</ele><time>2026-04-04T10:29:09Z</time></trkpt><trkpt lat="39.65511784150568" lon="8.4754458133571"><ele>143.0</ele><time>2026-04-04T10:29:10Z</time></trkpt><trkpt lat="39.65525612611828" lon="8.47537029557817"><ele>141.75</ele><time>2026-04-04T10:29:11Z</time></trkpt><trkpt lat="39.65537534130863" lon="8.475320331494496"><ele>140.5</ele><time>2026-04-04T10:29:12Z</time></trkpt><trkpt lat="39.65550585348281" lon="8.475309640039331"><ele>139.25</ele><time>2026-04-04T10:29:13Z</time></trkpt><trkpt lat="39.655625763029974" lon="8.475383772083001"><ele>138.0</ele><time>2026-04-04T10:29:14Z</time></trkpt><trkpt lat="39.65572393360676" lon="8.475453886526315"><ele>138.0</ele><time>2026-04-04T10:29:15Z</time></trkpt><trkpt lat="39.655789305500534" lon="8.475602979192574"><ele>138.0</ele><time>2026-04-04T10:29:16Z</time></trkpt><trkpt lat="39.65585345343102" lon="8.475773343896948"><ele>138.0</ele><time>2026-04-04T10:29:17Z</time></trkpt><trkpt lat="39.65591718521216" lon="8.475944969356425"><ele>138.0</ele><time>2026-04-04T10:29:18Z</time></trkpt><trkpt lat="39.655977448762094" lon="8.476119657106263"><ele>139.25</ele><time>2026-04-04T10:29:19Z</time></trkpt><trkpt lat="39.656041444008416" lon="8.476280287415461"><ele>140.5</ele><time>2026-04-04T10:29:20Z</time></trkpt><trkpt lat="39.65612148691787" lon="8.4764095956178"><ele>141.75</ele><time>2026-04-04T10:29:21Z</time></trkpt><trkpt lat="39.65622367950262" lon="8.476506051799937"><ele>143.0</ele><time>2026-04-04T10:29:22Z</time></trkpt><trkpt lat="39.656350673650266" lon="8.476549220700667"><ele>143.0</ele><time>2026-04-04T10:29:23Z</time></trkpt><trkpt lat="39.65648606367409" lon="8.476553910247725"><ele>143.0</ele><time>2026-04-04T10:29:24Z</time></trkpt><trkpt lat="39.656621126229055" lon="8.476498376226292"><ele>143.0</ele><time>2026-04-04T10:29:25Z</time></trkpt><trkpt lat="39.65675227836875" lon="8.476391092591"><ele>143.0</ele><time>2026-04-04T10:29:26Z</time></trkpt><trkpt lat="39.656877303680155" lon="8.476250675942245"><ele>140.66666666666666</ele><time>2026-04-04T10:29:27Z</time></trkpt><trkpt lat="39.657007629597665" lon="8.476125333646975"><ele>138.33333333333334</ele><time>2026-04-04T10:29:28Z</time></trkpt><trkpt lat="39.65714664708126" lon="8.47601558062549"><ele>136.0</ele><time>2026-04-04T10:29:29Z</time></trkpt><trkpt lat="39.65729425648946" lon="8.475922176866558"><ele>136.0</ele><time>2026-04-04T10:29:30Z</time></trkpt><trkpt lat="39.65744836712213" lon="8.475834177365138"><ele>136.0</ele><time>2026-04-04T10:29:31Z</time></trkpt><trkpt lat="39.657609147165154" lon="8.475751168768731"><ele>136.0</ele><time>2026-04-04T10:29:32Z</time></trkpt><trkpt lat="39.65776775967094" lon="8.475672890731131"><ele>132.33333333333334</ele><time>2026-04-04T10:29:33Z</time></trkpt><trkpt lat="39.65792881399206" lon="8.475595192017794"><ele>128.66666666666666</ele><time>2026-04-04T10:29:34Z</time></trkpt><trkpt lat="39.65809472353044" lon="8.475517836810885"><ele>125.0</ele><time>2026-04-04T10:29:35Z</time></trkpt><trkpt lat="39.658270080337346" lon="8.47543671038279"><ele>125.0</ele><time>2026-04-04T10:29:36Z</time></trkpt><trkpt lat="39.65844632425294" lon="8.475358069232135"><ele>125.0</ele><time>2026-04-04T10:29:37Z</time></trkpt><trkpt lat="39.658629762135156" lon="8.475275800624539"><ele>125.0</ele><time>2026-04-04T10:29:38Z</time></trkpt><trkpt lat="39.658810949697035" lon="8.475185974617261"><ele>124.0</ele><time>2026-04-04T10:29:39Z</time></trkpt><trkpt lat="39.65899764082856" lon="8.475094701201511"><ele>123.0</ele><time>2026-04-04T10:29:40Z</time></trkpt><trkpt lat="39.65919068043772" lon="8.475004779061537"><ele>122.0</ele><time>2026-04-04T10:29:41Z</time></trkpt><trkpt lat="39.65938570219374" lon="8.474915914087761"><ele>122.66666666666666</ele><time>2026-04-04T10:29:42Z</time></trkpt><trkpt lat="39.65958355826141" lon="8.474823905808975"><ele>123.33333333333334</ele><time>2026-04-04T10:29:43Z</time></trkpt><trkpt lat="39.65978079126629" lon="8.474725553610625"><ele>124.0</ele><time>2026-04-04T10:29:44Z</time></trkpt><trkpt lat="39.65997756992323" lon="8.47462125260818"><ele>123.33333333333334</ele><time>2026-04-04T10:29:45Z</time></trkpt><trkpt lat="39.66017392689488" lon="8.474523588909795"><ele>122.66666666666666</ele><time>2026-04-04T10:29:46Z</time></trkpt><trkpt lat="39.66037341195336" lon="8.474427666343187"><ele>122.0</ele><time>2026-04-04T10:29:47Z</time></trkpt><trkpt lat="39.66057151547819" lon="8.474337310885842"><ele>122.0</ele><time>2026-04-04T10:29:48Z</time></trkpt><trkpt lat="39.66076837989016" lon="8.474247807549158"><ele>122.0</ele><time>2026-04-04T10:29:49Z</time></trkpt><trkpt lat="39.660965652054585" lon="8.474155300660485"><ele>122.0</ele><time>2026-04-04T10:29:50Z</time></trkpt><trkpt lat="39.66116005395792" lon="8.474061563849142"><ele>124.0</ele><time>2026-04-04T10:29:51Z</time></trkpt><trkpt lat="39.66135116233112" lon="8.473967589020411"><ele>126.0</ele><time>2026-04-04T10:29:52Z</time></trkpt><trkpt lat="39.661542165692126" lon="8.473874497786152"><ele>128.0</ele><time>2026-04-04T10:29:53Z</time></trkpt><trkpt lat="39.66173392243262" lon="8.47378276833507"><ele>130.66666666666666</ele><time>2026-04-04T10:29:54Z</time></trkpt><trkpt lat="39.66192525058848" lon="8.473695334769069"><ele>133.33333333333334</ele><time>2026-04-04T10:29:55Z</time></trkpt><trkpt lat="39.662117071906565" lon="8.473611499993622"><ele>136.0</ele><time>2026-04-04T10:29:56Z</time></trkpt><trkpt lat="39.66230809695966" lon="8.473522889496554"><ele>136.0</ele><time>2026-04-04T10:29:57Z</time></trkpt><trkpt lat="39.66249608209207" lon="8.473426050444333"><ele>136.0</ele><time>2026-04-04T10:29:58Z</time></trkpt><trkpt lat="39.66268453132558" lon="8.473338268678033"><ele>136.0</ele><time>2026-04-04T10:29:59Z</time></trkpt><trkpt lat="39.66287478306515" lon="8.473277830221205"><ele>133.66666666666669</ele><time>2026-04-04T10:30:00Z</time></trkpt><trkpt lat="39.66305685288518" lon="8.473221145500046"><ele>131.33333333333334</ele><time>2026-04-04T10:30:01Z</time></trkpt><trkpt lat="39.66323643805885" lon="8.473179975256038"><ele>129.0</ele><time>2026-04-04T10:30:02Z</time></trkpt><trkpt lat="39.66341463357027" lon="8.47313409411321"><ele>129.0</ele><time>2026-04-04T10:30:03Z</time></trkpt><trkpt lat="39.66358720876452" lon="8.473090527846722"><ele>129.0</ele><time>2026-04-04T10:30:04Z</time></trkpt><trkpt lat="39.663756575912224" lon="8.473045383794334"><ele>129.0</ele><time>2026-04-04T10:30:05Z</time></trkpt><trkpt lat="39.663907127929264" lon="8.472981380974609"><ele>125.5</ele><time>2026-04-04T10:30:06Z</time></trkpt><trkpt lat="39.66402325345597" lon="8.472883862020714"><ele>122.0</ele><time>2026-04-04T10:30:07Z</time></trkpt><trkpt lat="39.66409807172262" lon="8.472756755016192"><ele>118.5</ele><time>2026-04-04T10:30:08Z</time></trkpt><trkpt lat="39.664140437716696" lon="8.472603224795686"><ele>115.0</ele><time>2026-04-04T10:30:09Z</time></trkpt><trkpt lat="39.6641352848516" lon="8.472429672376807"><ele>115.0</ele><time>2026-04-04T10:30:10Z</time></trkpt><trkpt lat="39.6641010735726" lon="8.472252660556233"><ele>115.0</ele><time>2026-04-04T10:30:11Z</time></trkpt><trkpt lat="39.664050748134066" lon="8.472077202509448"><ele>115.0</ele><time>2026-04-04T10:30:12Z</time></trkpt><trkpt lat="39.664036099517176" lon="8.47189507752878"><ele>115.0</ele><time>2026-04-04T10:30:13Z</time></trkpt><trkpt lat="39.66404604598146" lon="8.471728330129473"><ele>114.5</ele><time>2026-04-04T10:30:14Z</time></trkpt><trkpt lat="39.66408158652766" lon="8.47156295707961"><ele>114.0</ele><time>2026-04-04T10:30:15Z</time></trkpt><trkpt lat="39.664114250262784" lon="8.471378516367194"><ele>113.5</ele><time>2026-04-04T10:30:16Z</time></trkpt><trkpt lat="39.664169553668955" lon="8.471201657372433"><ele>113.0</ele><time>2026-04-04T10:30:17Z</time></trkpt><trkpt lat="39.6642094470143" lon="8.471030291534026"><ele>112.5</ele><time>2026-04-04T10:30:18Z</time></trkpt><trkpt lat="39.66420857242048" lon="8.470862992993206"><ele>112.0</ele><time>2026-04-04T10:30:19Z</time></trkpt><trkpt lat="39.66418551383226" lon="8.470691830344665"><ele>111.5</ele><time>2026-04-04T10:30:20Z</time></trkpt><trkpt lat="39.664125719768215" lon="8.470524576253501"><ele>111.0</ele><time>2026-04-04T10:30:21Z</time></trkpt><trkpt lat="39.66406759569991" lon="8.470351153171242"><ele>110.0</ele><time>2026-04-04T10:30:22Z</time></trkpt><trkpt lat="39.664028932508664" lon="8.470183094746954"><ele>109.0</ele><time>2026-04-04T10:30:23Z</time></trkpt><trkpt lat="39.66402038165211" lon="8.470009850251033"><ele>108.0</ele><time>2026-04-04T10:30:24Z</time></trkpt><trkpt lat="39.664025470792524" lon="8.469828530566701"><ele>107.0</ele><time>2026-04-04T10:30:25Z</time></trkpt><trkpt lat="39.66408329657693" lon="8.469651416157248"><ele>106.66666666666666</ele><time>2026-04-04T10:30:26Z</time></trkpt><trkpt lat="39.66417649954244" lon="8.4694910983055"><ele>106.33333333333334</ele><time>2026-04-04T10:30:27Z</time></trkpt><trkpt lat="39.664266218385876" lon="8.469309038041374"><ele>106.0</ele><time>2026-04-04T10:30:28Z</time></trkpt><trkpt lat="39.66436465053021" lon="8.469144386478666"><ele>99.33333333333334</ele><time>2026-04-04T10:30:29Z</time></trkpt><trkpt lat="39.66446804202023" lon="8.46897388082268"><ele>92.66666666666667</ele><time>2026-04-04T10:30:30Z</time></trkpt><trkpt lat="39.664572944200415" lon="8.46880380624212"><ele>86.0</ele><time>2026-04-04T10:30:31Z</time></trkpt><trkpt lat="39.66467652542739" lon="8.468597525674692"><ele>86.0</ele><time>2026-04-04T10:30:32Z</time></trkpt><trkpt lat="39.664781826265475" lon="8.46841326678601"><ele>86.0</ele><time>2026-04-04T10:30:33Z</time></trkpt><trkpt lat="39.6648908048381" lon="8.468239478718107"><ele>86.0</ele><time>2026-04-04T10:30:34Z</time></trkpt><trkpt lat="39.665007698963954" lon="8.468088235239412"><ele>86.0</ele><time>2026-04-04T10:30:35Z</time></trkpt><trkpt lat="39.66513391274843" lon="8.467961923683319"><ele>86.0</ele><time>2026-04-04T10:30:36Z</time></trkpt><trkpt lat="39.665256336201764" lon="8.467834518014433"><ele>86.0</ele><time>2026-04-04T10:30:37Z</time></trkpt><trkpt lat="39.66537421473341" lon="8.467699601552479"><ele>82.0</ele><time>2026-04-04T10:30:38Z</time></trkpt><trkpt lat="39.66548850733598" lon="8.467550599464515"><ele>78.0</ele><time>2026-04-04T10:30:39Z</time></trkpt><trkpt lat="39.66560265266706" lon="8.467388442086774"><ele>74.0</ele><time>2026-04-04T10:30:40Z</time></trkpt><trkpt lat="39.66571445438743" lon="8.467220953288011"><ele>78.0</ele><time>2026-04-04T10:30:41Z</time></trkpt><trkpt lat="39.66582848142663" lon="8.467056086681348"><ele>82.0</ele><time>2026-04-04T10:30:42Z</time></trkpt><trkpt lat="39.66594479359779" lon="8.466893101155902"><ele>86.0</ele><time>2026-04-04T10:30:43Z</time></trkpt><trkpt lat="39.666059105381464" lon="8.466729416832463"><ele>83.0</ele><time>2026-04-04T10:30:44Z</time></trkpt><trkpt lat="39.6661760699911" lon="8.466565995406093"><ele>80.0</ele><time>2026-04-04T10:30:45Z</time></trkpt><trkpt lat="39.666292014221455" lon="8.466405939686695"><ele>77.0</ele><time>2026-04-04T10:30:46Z</time></trkpt><trkpt lat="39.66640575543069" lon="8.466246870948174"><ele>77.0</ele><time>2026-04-04T10:30:47Z</time></trkpt><trkpt lat="39.66651865961549" lon="8.466087242016167"><ele>77.0</ele><time>2026-04-04T10:30:48Z</time></trkpt><trkpt lat="39.66662853728814" lon="8.465922516844834"><ele>77.0</ele><time>2026-04-04T10:30:49Z</time></trkpt><trkpt lat="39.66673505494622" lon="8.465754020933113"><ele>77.0</ele><time>2026-04-04T10:30:50Z</time></trkpt><trkpt lat="39.66684357073294" lon="8.465590658305743"><ele>77.0</ele><time>2026-04-04T10:30:51Z</time></trkpt><trkpt lat="39.66695406060812" lon="8.465431006674047"><ele>77.0</ele><time>2026-04-04T10:30:52Z</time></trkpt><trkpt lat="39.66706756186267" lon="8.46527126673262"><ele>68.33333333333334</ele><time>2026-04-04T10:30:53Z</time></trkpt><trkpt lat="39.66717970498211" lon="8.465114474858497"><ele>59.66666666666667</ele><time>2026-04-04T10:30:54Z</time></trkpt><trkpt lat="39.667289316319945" lon="8.464956707373885"><ele>51.0</ele><time>2026-04-04T10:30:55Z</time></trkpt><trkpt lat="39.66738678212887" lon="8.464806726752867"><ele>51.0</ele><time>2026-04-04T10:30:56Z</time></trkpt><trkpt lat="39.667460629051206" lon="8.464653988811182"><ele>51.0</ele><time>2026-04-04T10:30:57Z</time></trkpt><trkpt lat="39.66750440368611" lon="8.46448570011514"><ele>51.0</ele><time>2026-04-04T10:30:58Z</time></trkpt><trkpt lat="39.6675189198501" lon="8.464295393183413"><ele>51.0</ele><time>2026-04-04T10:30:59Z</time></trkpt><trkpt lat="39.667517011974624" lon="8.464091481306928"><ele>51.33333333333333</ele><time>2026-04-04T10:31:00Z</time></trkpt><trkpt lat="39.66749990464102" lon="8.463877068909005"><ele>51.666666666666664</ele><time>2026-04-04T10:31:01Z</time></trkpt><trkpt lat="39.66747255660856" lon="8.463655121214813"><ele>52.0</ele><time>2026-04-04T10:31:02Z</time></trkpt><trkpt lat="39.667441438274174" lon="8.463429009767037"><ele>52.0</ele><time>2026-04-04T10:31:03Z</time></trkpt><trkpt lat="39.66743218737392" lon="8.463204678785026"><ele>52.0</ele><time>2026-04-04T10:31:04Z</time></trkpt><trkpt lat="39.66741343316157" lon="8.462987197125068"><ele>52.0</ele><time>2026-04-04T10:31:05Z</time></trkpt><trkpt lat="39.66739476835239" lon="8.462770751995514"><ele>51.666666666666664</ele><time>2026-04-04T10:31:06Z</time></trkpt><trkpt lat="39.667376341692155" lon="8.462557487189244"><ele>51.33333333333333</ele><time>2026-04-04T10:31:07Z</time></trkpt><trkpt lat="39.6673420167963" lon="8.462349068331696"><ele>51.0</ele><time>2026-04-04T10:31:08Z</time></trkpt><trkpt lat="39.667339331331085" lon="8.462136379160475"><ele>50.0</ele><time>2026-04-04T10:31:09Z</time></trkpt><trkpt lat="39.66732061341887" lon="8.46192918656269"><ele>49.0</ele><time>2026-04-04T10:31:10Z</time></trkpt><trkpt lat="39.66731236300307" lon="8.461725872623566"><ele>48.0</ele><time>2026-04-04T10:31:11Z</time></trkpt><trkpt lat="39.66732782416173" lon="8.461543538568636"><ele>48.0</ele><time>2026-04-04T10:31:12Z</time></trkpt><trkpt lat="39.66735707644535" lon="8.4613603615192"><ele>48.0</ele><time>2026-04-04T10:31:13Z</time></trkpt><trkpt lat="39.66742491223308" lon="8.461188962660081"><ele>48.0</ele><time>2026-04-04T10:31:14Z</time></trkpt><trkpt lat="39.66752288409696" lon="8.461044847307019"><ele>48.0</ele><time>2026-04-04T10:31:15Z</time></trkpt><trkpt lat="39.66761407833334" lon="8.460910937129034"><ele>43.5</ele><time>2026-04-04T10:31:16Z</time></trkpt><trkpt lat="39.66771509411006" lon="8.460830261887638"><ele>39.0</ele><time>2026-04-04T10:31:17Z</time></trkpt><trkpt lat="39.667822100793934" lon="8.460805234315707"><ele>34.5</ele><time>2026-04-04T10:31:18Z</time></trkpt><trkpt lat="39.66793246772407" lon="8.460840182419117"><ele>30.0</ele><time>2026-04-04T10:31:19Z</time></trkpt><trkpt lat="39.66803651039012" lon="8.460923524903317"><ele>32.25</ele><time>2026-04-04T10:31:20Z</time></trkpt><trkpt lat="39.66813959205117" lon="8.461046294223674"><ele>34.5</ele><time>2026-04-04T10:31:21Z</time></trkpt><trkpt lat="39.66824871234328" lon="8.461160345604178"><ele>36.75</ele><time>2026-04-04T10:31:22Z</time></trkpt><trkpt lat="39.66836182141113" lon="8.461270299169895"><ele>39.0</ele><time>2026-04-04T10:31:23Z</time></trkpt><trkpt lat="39.668475623550364" lon="8.461378895933983"><ele>39.0</ele><time>2026-04-04T10:31:24Z</time></trkpt><trkpt lat="39.66858651187484" lon="8.461494736043585"><ele>39.0</ele><time>2026-04-04T10:31:25Z</time></trkpt><trkpt lat="39.66867422883805" lon="8.46163443733416"><ele>39.0</ele><time>2026-04-04T10:31:26Z</time></trkpt><trkpt lat="39.66873809561659" lon="8.46179250219792"><ele>39.0</ele><time>2026-04-04T10:31:27Z</time></trkpt><trkpt lat="39.668774371168965" lon="8.461963298306891"><ele>34.0</ele><time>2026-04-04T10:31:28Z</time></trkpt><trkpt lat="39.668783108879964" lon="8.462139545698077"><ele>29.0</ele><time>2026-04-04T10:31:29Z</time></trkpt><trkpt lat="39.66877561328226" lon="8.462318324288733"><ele>24.0</ele><time>2026-04-04T10:31:30Z</time></trkpt><trkpt lat="39.668753966923624" lon="8.46249942903684"><ele>19.0</ele><time>2026-04-04T10:31:31Z</time></trkpt><trkpt lat="39.66873026293206" lon="8.462686882684814"><ele>19.0</ele><time>2026-04-04T10:31:32Z</time></trkpt><trkpt lat="39.66870235909516" lon="8.462871973725143"><ele>19.0</ele><time>2026-04-04T10:31:33Z</time></trkpt><trkpt lat="39.66866721906103" lon="8.463063333944387"><ele>19.0</ele><time>2026-04-04T10:31:34Z</time></trkpt><trkpt lat="39.668629124270986" lon="8.463254967686552"><ele>19.0</ele><time>2026-04-04T10:31:35Z</time></trkpt><trkpt lat="39.6685836549923" lon="8.463448197678503"><ele>21.666666666666664</ele><time>2026-04-04T10:31:36Z</time></trkpt><trkpt lat="39.66853590211674" lon="8.463640539069514"><ele>24.333333333333332</ele><time>2026-04-04T10:31:37Z</time></trkpt><trkpt lat="39.668492056014465" lon="8.46383618280797"><ele>27.0</ele><time>2026-04-04T10:31:38Z</time></trkpt><trkpt lat="39.66845218585859" lon="8.464033806861874"><ele>27.0</ele><time>2026-04-04T10:31:39Z</time></trkpt><trkpt lat="39.66841100584718" lon="8.464231925323858"><ele>27.0</ele><time>2026-04-04T10:31:40Z</time></trkpt><trkpt lat="39.668364737501655" lon="8.464427407423445"><ele>27.0</ele><time>2026-04-04T10:31:41Z</time></trkpt><trkpt lat="39.668319587391984" lon="8.464615458821854"><ele>26.25</ele><time>2026-04-04T10:31:42Z</time></trkpt><trkpt lat="39.66828251588459" lon="8.464791814940062"><ele>25.5</ele><time>2026-04-04T10:31:43Z</time></trkpt><trkpt lat="39.66827748866736" lon="8.4649737731972"><ele>24.75</ele><time>2026-04-04T10:31:44Z</time></trkpt><trkpt lat="39.668311515882706" lon="8.465138738415247"><ele>24.0</ele><time>2026-04-04T10:31:45Z</time></trkpt><trkpt lat="39.66835307682913" lon="8.465267927597072"><ele>24.0</ele><time>2026-04-04T10:31:46Z</time></trkpt><trkpt lat="39.668437276993316" lon="8.465362017687106"><ele>24.0</ele><time>2026-04-04T10:31:47Z</time></trkpt><trkpt lat="39.668545298239096" lon="8.465428616963624"><ele>24.0</ele><time>2026-04-04T10:31:48Z</time></trkpt><trkpt lat="39.668657806549476" lon="8.465472216276286"><ele>24.0</ele><time>2026-04-04T10:31:49Z</time></trkpt><trkpt lat="39.66877781633835" lon="8.465467692935212"><ele>24.25</ele><time>2026-04-04T10:31:50Z</time></trkpt><trkpt lat="39.66888446597712" lon="8.46542085206671"><ele>24.5</ele><time>2026-04-04T10:31:51Z</time></trkpt><trkpt lat="39.668978885687494" lon="8.46533655862862"><ele>24.75</ele><time>2026-04-04T10:31:52Z</time></trkpt><trkpt lat="39.66907258908922" lon="8.465249329919626"><ele>25.0</ele><time>2026-04-04T10:31:53Z</time></trkpt><trkpt lat="39.66916531779895" lon="8.465160353687768"><ele>25.0</ele><time>2026-04-04T10:31:54Z</time></trkpt><trkpt lat="39.669257740150165" lon="8.465074111062808"><ele>25.0</ele><time>2026-04-04T10:31:55Z</time></trkpt><trkpt lat="39.669352002334776" lon="8.46499133183585"><ele>25.0</ele><time>2026-04-04T10:31:56Z</time></trkpt><trkpt lat="39.66944773181937" lon="8.464911944146795"><ele>25.0</ele><time>2026-04-04T10:31:57Z</time></trkpt><trkpt lat="39.66954581644349" lon="8.464834358962065"><ele>26.5</ele><time>2026-04-04T10:31:58Z</time></trkpt><trkpt lat="39.66964987681107" lon="8.464756942366915"><ele>28.0</ele><time>2026-04-04T10:31:59Z</time></trkpt><trkpt lat="39.66975764246449" lon="8.464666539107977"><ele>29.5</ele><time>2026-04-04T10:32:00Z</time></trkpt><trkpt lat="39.66986857591895" lon="8.464572076215203"><ele>31.0</ele><time>2026-04-04T10:32:01Z</time></trkpt><trkpt lat="39.66998838268377" lon="8.464489463529354"><ele>31.0</ele><time>2026-04-04T10:32:02Z</time></trkpt><trkpt lat="39.670119577114534" lon="8.46442234340493"><ele>31.0</ele><time>2026-04-04T10:32:03Z</time></trkpt><trkpt lat="39.67025932954918" lon="8.464366279111209"><ele>31.0</ele><time>2026-04-04T10:32:04Z</time></trkpt><trkpt lat="39.67040555090081" lon="8.464311344016428"><ele>31.0</ele><time>2026-04-04T10:32:05Z</time></trkpt><trkpt lat="39.67055350012736" lon="8.46425283466621"><ele>33.66666666666667</ele><time>2026-04-04T10:32:06Z</time></trkpt><trkpt lat="39.67070173690462" lon="8.46419106196097"><ele>36.333333333333336</ele><time>2026-04-04T10:32:07Z</time></trkpt><trkpt lat="39.67085230132293" lon="8.464133625353048"><ele>39.0</ele><time>2026-04-04T10:32:08Z</time></trkpt><trkpt lat="39.67099856242848" lon="8.46408644186883"><ele>39.5</ele><time>2026-04-04T10:32:09Z</time></trkpt><trkpt lat="39.671130486525" lon="8.464076057879037"><ele>40.0</ele><time>2026-04-04T10:32:10Z</time></trkpt><trkpt lat="39.671253455355036" lon="8.464122358582843"><ele>40.5</ele><time>2026-04-04T10:32:11Z</time></trkpt><trkpt lat="39.67137043921234" lon="8.464209354262083"><ele>41.0</ele><time>2026-04-04T10:32:12Z</time></trkpt><trkpt lat="39.67148396038462" lon="8.464327094652514"><ele>41.0</ele><time>2026-04-04T10:32:13Z</time></trkpt><trkpt lat="39.67160965629706" lon="8.464442725361014"><ele>41.0</ele><time>2026-04-04T10:32:14Z</time></trkpt><trkpt lat="39.67174184872167" lon="8.464552695631017"><ele>41.0</ele><time>2026-04-04T10:32:15Z</time></trkpt><trkpt lat="39.671876294974325" lon="8.464670814765707"><ele>43.666666666666664</ele><time>2026-04-04T10:32:16Z</time></trkpt><trkpt lat="39.67201483676751" lon="8.464791286614494"><ele>46.33333333333333</ele><time>2026-04-04T10:32:17Z</time></trkpt><trkpt lat="39.67215373353483" lon="8.464909475811814"><ele>49.0</ele><time>2026-04-04T10:32:18Z</time></trkpt><trkpt lat="39.672292027801305" lon="8.465028206681694"><ele>49.0</ele><time>2026-04-04T10:32:19Z</time></trkpt><trkpt lat="39.67242932664926" lon="8.465129150338628"><ele>49.0</ele><time>2026-04-04T10:32:20Z</time></trkpt><trkpt lat="39.672588115184126" lon="8.465177998830354"><ele>49.0</ele><time>2026-04-04T10:32:21Z</time></trkpt><trkpt lat="39.67275506289985" lon="8.465177505430917"><ele>50.666666666666664</ele><time>2026-04-04T10:32:22Z</time></trkpt><trkpt lat="39.672918537791006" lon="8.465119027550973"><ele>52.33333333333333</ele><time>2026-04-04T10:32:23Z</time></trkpt><trkpt lat="39.67306739965018" lon="8.465008185777863"><ele>54.0</ele><time>2026-04-04T10:32:24Z</time></trkpt><trkpt lat="39.673191807272424" lon="8.464838452203495"><ele>54.0</ele><time>2026-04-04T10:32:25Z</time></trkpt><trkpt lat="39.67330776896474" lon="8.464658263746223"><ele>54.0</ele><time>2026-04-04T10:32:26Z</time></trkpt><trkpt lat="39.67342186562915" lon="8.464487941038396"><ele>54.0</ele><time>2026-04-04T10:32:27Z</time></trkpt><trkpt lat="39.673535811372574" lon="8.464322662187026"><ele>56.66666666666667</ele><time>2026-04-04T10:32:28Z</time></trkpt><trkpt lat="39.67365199714826" lon="8.464167414206596"><ele>59.333333333333336</ele><time>2026-04-04T10:32:29Z</time></trkpt><trkpt lat="39.673773778474214" lon="8.464030023388368"><ele>62.0</ele><time>2026-04-04T10:32:30Z</time></trkpt><trkpt lat="39.67390628213762" lon="8.463934390846038"><ele>62.0</ele><time>2026-04-04T10:32:31Z</time></trkpt><trkpt lat="39.674054294042364" lon="8.463892876944024"><ele>62.0</ele><time>2026-04-04T10:32:32Z</time></trkpt><trkpt lat="39.67420622979867" lon="8.463868631665912"><ele>62.0</ele><time>2026-04-04T10:32:33Z</time></trkpt><trkpt lat="39.67436092553321" lon="8.4638859464829"><ele>62.66666666666667</ele><time>2026-04-04T10:32:34Z</time></trkpt><trkpt lat="39.67451742977002" lon="8.463918236371397"><ele>63.33333333333333</ele><time>2026-04-04T10:32:35Z</time></trkpt><trkpt lat="39.674672196756944" lon="8.463967554235012"><ele>64.0</ele><time>2026-04-04T10:32:36Z</time></trkpt><trkpt lat="39.67482656296423" lon="8.464005773637938"><ele>64.0</ele><time>2026-04-04T10:32:37Z</time></trkpt><trkpt lat="39.67498103423527" lon="8.464039554555006"><ele>64.0</ele><time>2026-04-04T10:32:38Z</time></trkpt><trkpt lat="39.67513383144444" lon="8.464071646522283"><ele>64.0</ele><time>2026-04-04T10:32:39Z</time></trkpt><trkpt lat="39.675288501570186" lon="8.464099971364416"><ele>63.0</ele><time>2026-04-04T10:32:40Z</time></trkpt><trkpt lat="39.67544338610031" lon="8.464119603656753"><ele>62.0</ele><time>2026-04-04T10:32:41Z</time></trkpt><trkpt lat="39.67559779321287" lon="8.464129117828875"><ele>61.0</ele><time>2026-04-04T10:32:42Z</time></trkpt><trkpt lat="39.67575091661982" lon="8.464132334570323"><ele>61.0</ele><time>2026-04-04T10:32:43Z</time></trkpt><trkpt lat="39.67590557979583" lon="8.46414075899276"><ele>61.0</ele><time>2026-04-04T10:32:44Z</time></trkpt><trkpt lat="39.67605380350283" lon="8.464143053255423"><ele>61.0</ele><time>2026-04-04T10:32:45Z</time></trkpt><trkpt lat="39.67620465845526" lon="8.464150974206003"><ele>59.33333333333333</ele><time>2026-04-04T10:32:46Z</time></trkpt><trkpt lat="39.676356245750455" lon="8.464162026989873"><ele>57.66666666666667</ele><time>2026-04-04T10:32:47Z</time></trkpt><trkpt lat="39.67651071444874" lon="8.464169685673133"><ele>56.0</ele><time>2026-04-04T10:32:48Z</time></trkpt><trkpt lat="39.67666194413772" lon="8.46417891421095"><ele>56.0</ele><time>2026-04-04T10:32:49Z</time></trkpt><trkpt lat="39.676812874791864" lon="8.464185891003964"><ele>56.0</ele><time>2026-04-04T10:32:50Z</time></trkpt><trkpt lat="39.676959195806084" lon="8.464198113392193"><ele>56.0</ele><time>2026-04-04T10:32:51Z</time></trkpt><trkpt lat="39.677097521740066" lon="8.464208874487754"><ele>56.0</ele><time>2026-04-04T10:32:52Z</time></trkpt><trkpt lat="39.67722887388865" lon="8.464213061495956"><ele>55.0</ele><time>2026-04-04T10:32:53Z</time></trkpt><trkpt lat="39.67735239292999" lon="8.464217640819138"><ele>54.0</ele><time>2026-04-04T10:32:54Z</time></trkpt><trkpt lat="39.67746857330124" lon="8.464236733448102"><ele>53.0</ele><time>2026-04-04T10:32:55Z</time></trkpt><trkpt lat="39.677573464643984" lon="8.464282566925394"><ele>52.0</ele><time>2026-04-04T10:32:56Z</time></trkpt><trkpt lat="39.67766467523433" lon="8.464358162707404"><ele>52.0</ele><time>2026-04-04T10:32:57Z</time></trkpt><trkpt lat="39.67774417421323" lon="8.464444453904509"><ele>52.0</ele><time>2026-04-04T10:32:58Z</time></trkpt><trkpt lat="39.67781705787927" lon="8.464530523767396"><ele>52.0</ele><time>2026-04-04T10:32:59Z</time></trkpt><trkpt lat="39.67788486214586" lon="8.464611431223174"><ele>52.0</ele><time>2026-04-04T10:33:00Z</time></trkpt><trkpt lat="39.67795190575926" lon="8.464690777683268"><ele>52.0</ele><time>2026-04-04T10:33:01Z</time></trkpt><trkpt lat="39.67802446500408" lon="8.464772201691222"><ele>52.6</ele><time>2026-04-04T10:33:02Z</time></trkpt><trkpt lat="39.67810468706383" lon="8.46485277337344"><ele>53.2</ele><time>2026-04-04T10:33:03Z</time></trkpt><trkpt lat="39.67818866574698" lon="8.464928714772181"><ele>53.8</ele><time>2026-04-04T10:33:04Z</time></trkpt><trkpt lat="39.6782885824432" lon="8.464976609516563"><ele>54.4</ele><time>2026-04-04T10:33:05Z</time></trkpt><trkpt lat="39.678399950737486" lon="8.464973489021775"><ele>55.0</ele><time>2026-04-04T10:33:06Z</time></trkpt><trkpt lat="39.67850738689052" lon="8.464921974835713"><ele>56.5</ele><time>2026-04-04T10:33:07Z</time></trkpt><trkpt lat="39.67860635450594" lon="8.464845221268037"><ele>58.0</ele><time>2026-04-04T10:33:08Z</time></trkpt><trkpt lat="39.67870450227977" lon="8.464766762122624"><ele>59.5</ele><time>2026-04-04T10:33:09Z</time></trkpt><trkpt lat="39.678812494145525" lon="8.464697833174858"><ele>61.0</ele><time>2026-04-04T10:33:10Z</time></trkpt><trkpt lat="39.67893176226929" lon="8.464653650420805"><ele>61.0</ele><time>2026-04-04T10:33:11Z</time></trkpt><trkpt lat="39.679057873610844" lon="8.464624660056913"><ele>61.0</ele><time>2026-04-04T10:33:12Z</time></trkpt><trkpt lat="39.67918389815559" lon="8.464600804425325"><ele>61.0</ele><time>2026-04-04T10:33:13Z</time></trkpt><trkpt lat="39.67930891984376" lon="8.464564257152224"><ele>61.0</ele><time>2026-04-04T10:33:14Z</time></trkpt><trkpt lat="39.679426606722814" lon="8.46451078289477"><ele>60.599999999999994</ele><time>2026-04-04T10:33:15Z</time></trkpt><trkpt lat="39.67954341070766" lon="8.464465486296671"><ele>60.199999999999996</ele><time>2026-04-04T10:33:16Z</time></trkpt><trkpt lat="39.67965569678664" lon="8.464449467790477"><ele>59.800000000000004</ele><time>2026-04-04T10:33:17Z</time></trkpt><trkpt lat="39.67973749485712" lon="8.464470611991311"><ele>59.400000000000006</ele><time>2026-04-04T10:33:18Z</time></trkpt><trkpt lat="39.67979695980933" lon="8.464545111095333"><ele>59.0</ele><time>2026-04-04T10:33:19Z</time></trkpt><trkpt lat="39.67985001440873" lon="8.464655450504852"><ele>59.0</ele><time>2026-04-04T10:33:20Z</time></trkpt><trkpt lat="39.67991545906549" lon="8.464773467358798"><ele>59.0</ele><time>2026-04-04T10:33:21Z</time></trkpt><trkpt lat="39.67999745379542" lon="8.464910164253425"><ele>59.0</ele><time>2026-04-04T10:33:22Z</time></trkpt><trkpt lat="39.68007814490705" lon="8.465056297448765"><ele>59.0</ele><time>2026-04-04T10:33:23Z</time></trkpt><trkpt lat="39.68017613750301" lon="8.465164594513917"><ele>57.5</ele><time>2026-04-04T10:33:24Z</time></trkpt><trkpt lat="39.680288938516064" lon="8.4652077150486"><ele>56.0</ele><time>2026-04-04T10:33:25Z</time></trkpt><trkpt lat="39.68041697332432" lon="8.46522869907716"><ele>54.5</ele><time>2026-04-04T10:33:26Z</time></trkpt><trkpt lat="39.68055779391621" lon="8.46526638621717"><ele>53.0</ele><time>2026-04-04T10:33:27Z</time></trkpt><trkpt lat="39.680688607353794" lon="8.46536115228287"><ele>53.0</ele><time>2026-04-04T10:33:28Z</time></trkpt><trkpt lat="39.680823033804536" lon="8.465437660683689"><ele>53.0</ele><time>2026-04-04T10:33:29Z</time></trkpt><trkpt lat="39.680970697234216" lon="8.465459105911556"><ele>53.0</ele><time>2026-04-04T10:33:30Z</time></trkpt><trkpt lat="39.68112584963826" lon="8.46541399034339"><ele>54.5</ele><time>2026-04-04T10:33:31Z</time></trkpt><trkpt lat="39.68126480964963" lon="8.465344588691673"><ele>56.0</ele><time>2026-04-04T10:33:32Z</time></trkpt><trkpt lat="39.68138878085041" lon="8.465283644052487"><ele>57.5</ele><time>2026-04-04T10:33:33Z</time></trkpt><trkpt lat="39.68150989100585" lon="8.465208820879973"><ele>59.0</ele><time>2026-04-04T10:33:34Z</time></trkpt><trkpt lat="39.68163855893157" lon="8.465142670300827"><ele>59.0</ele><time>2026-04-04T10:33:35Z</time></trkpt><trkpt lat="39.6817782072149" lon="8.465115992677001"><ele>59.0</ele><time>2026-04-04T10:33:36Z</time></trkpt><trkpt lat="39.68193128494959" lon="8.465127145187873"><ele>59.0</ele><time>2026-04-04T10:33:37Z</time></trkpt><trkpt lat="39.682077427347245" lon="8.465137253822087"><ele>59.0</ele><time>2026-04-04T10:33:38Z</time></trkpt><trkpt lat="39.682217723637386" lon="8.46517304210122"><ele>58.75</ele><time>2026-04-04T10:33:39Z</time></trkpt><trkpt lat="39.68234454482131" lon="8.46524897957082"><ele>58.5</ele><time>2026-04-04T10:33:40Z</time></trkpt><trkpt lat="39.682459025400995" lon="8.46535655040416"><ele>58.25</ele><time>2026-04-04T10:33:41Z</time></trkpt><trkpt lat="39.68255328124695" lon="8.465487220386374"><ele>58.0</ele><time>2026-04-04T10:33:42Z</time></trkpt><trkpt lat="39.682633646473604" lon="8.465600667788973"><ele>59.2</ele><time>2026-04-04T10:33:43Z</time></trkpt><trkpt lat="39.68270842099993" lon="8.465665743013147"><ele>60.4</ele><time>2026-04-04T10:33:44Z</time></trkpt><trkpt lat="39.68277291318462" lon="8.4656714044019"><ele>61.60000000000001</ele><time>2026-04-04T10:33:45Z</time></trkpt><trkpt lat="39.68285329103737" lon="8.465645186813974"><ele>62.800000000000004</ele><time>2026-04-04T10:33:46Z</time></trkpt><trkpt lat="39.682945821868195" lon="8.465585096107178"><ele>64.0</ele><time>2026-04-04T10:33:47Z</time></trkpt><trkpt lat="39.68305588279634" lon="8.465540702362668"><ele>64.0</ele><time>2026-04-04T10:33:48Z</time></trkpt><trkpt lat="39.68317023260338" lon="8.46550022933402"><ele>64.0</ele><time>2026-04-04T10:33:49Z</time></trkpt><trkpt lat="39.68326936487668" lon="8.46547637237009"><ele>64.0</ele><time>2026-04-04T10:33:50Z</time></trkpt><trkpt lat="39.68335849368627" lon="8.46550523814434"><ele>64.0</ele><time>2026-04-04T10:33:51Z</time></trkpt><trkpt lat="39.683426895103466" lon="8.465594247895611"><ele>64.0</ele><time>2026-04-04T10:33:52Z</time></trkpt><trkpt lat="39.68346558333721" lon="8.46572157293985"><ele>64.0</ele><time>2026-04-04T10:33:53Z</time></trkpt><trkpt lat="39.68350884896003" lon="8.46584329579037"><ele>64.0</ele><time>2026-04-04T10:33:54Z</time></trkpt><trkpt lat="39.683590803404186" lon="8.465901772916567"><ele>64.0</ele><time>2026-04-04T10:33:55Z</time></trkpt><trkpt lat="39.68369462678852" lon="8.465917656301372"><ele>64.0</ele><time>2026-04-04T10:33:56Z</time></trkpt><trkpt lat="39.6838114435145" lon="8.465895380837136"><ele>64.0</ele><time>2026-04-04T10:33:57Z</time></trkpt><trkpt lat="39.68392702315677" lon="8.465878064836735"><ele>66.5</ele><time>2026-04-04T10:33:58Z</time></trkpt><trkpt lat="39.684044031823085" lon="8.465876102700232"><ele>69.0</ele><time>2026-04-04T10:33:59Z</time></trkpt><trkpt lat="39.684162056434786" lon="8.465882606091618"><ele>71.5</ele><time>2026-04-04T10:34:00Z</time></trkpt><trkpt lat="39.68428062440737" lon="8.465906376671816"><ele>74.0</ele><time>2026-04-04T10:34:01Z</time></trkpt><trkpt lat="39.684398887632796" lon="8.465936496672214"><ele>76.0</ele><time>2026-04-04T10:34:02Z</time></trkpt><trkpt lat="39.68453023826602" lon="8.465974992004886"><ele>78.0</ele><time>2026-04-04T10:34:03Z</time></trkpt><trkpt lat="39.68465442322446" lon="8.466030179698619"><ele>80.0</ele><time>2026-04-04T10:34:04Z</time></trkpt><trkpt lat="39.68478831244957" lon="8.466108618347755"><ele>82.0</ele><time>2026-04-04T10:34:05Z</time></trkpt><trkpt lat="39.68493016789323" lon="8.466207026666218"><ele>82.0</ele><time>2026-04-04T10:34:06Z</time></trkpt><trkpt lat="39.685077020014056" lon="8.46630647225745"><ele>82.0</ele><time>2026-04-04T10:34:07Z</time></trkpt><trkpt lat="39.68521194932684" lon="8.466398712476053"><ele>82.0</ele><time>2026-04-04T10:34:08Z</time></trkpt><trkpt lat="39.68532174464122" lon="8.46649816733019"><ele>83.25</ele><time>2026-04-04T10:34:09Z</time></trkpt><trkpt lat="39.68540842067165" lon="8.466631583190468"><ele>84.5</ele><time>2026-04-04T10:34:10Z</time></trkpt><trkpt lat="39.6854738087177" lon="8.466796231979904"><ele>85.75</ele><time>2026-04-04T10:34:11Z</time></trkpt><trkpt lat="39.68557115751738" lon="8.466912113683549"><ele>87.0</ele><time>2026-04-04T10:34:12Z</time></trkpt><trkpt lat="39.685703221293515" lon="8.46699756959658"><ele>87.0</ele><time>2026-04-04T10:34:13Z</time></trkpt><trkpt lat="39.685867181389774" lon="8.46705865310955"><ele>87.0</ele><time>2026-04-04T10:34:14Z</time></trkpt><trkpt lat="39.68599580319297" lon="8.46715326694956"><ele>87.0</ele><time>2026-04-04T10:34:15Z</time></trkpt><trkpt lat="39.68610136354025" lon="8.467277609844746"><ele>89.0</ele><time>2026-04-04T10:34:16Z</time></trkpt><trkpt lat="39.68617498946385" lon="8.467441679790548"><ele>91.0</ele><time>2026-04-04T10:34:17Z</time></trkpt><trkpt lat="39.686225082054136" lon="8.467633318189582"><ele>93.0</ele><time>2026-04-04T10:34:18Z</time></trkpt><trkpt lat="39.68626047031315" lon="8.467832606142013"><ele>93.0</ele><time>2026-04-04T10:34:19Z</time></trkpt><trkpt lat="39.68630008256441" lon="8.468024838052088"><ele>93.0</ele><time>2026-04-04T10:34:20Z</time></trkpt><trkpt lat="39.68633899014035" lon="8.468218436856247"><ele>93.0</ele><time>2026-04-04T10:34:21Z</time></trkpt><trkpt lat="39.68637556200259" lon="8.468406771909459"><ele>93.0</ele><time>2026-04-04T10:34:22Z</time></trkpt><trkpt lat="39.686408728355445" lon="8.46858568262376"><ele>93.0</ele><time>2026-04-04T10:34:23Z</time></trkpt><trkpt lat="39.686444339051306" lon="8.468756388974361"><ele>93.0</ele><time>2026-04-04T10:34:24Z</time></trkpt><trkpt lat="39.686494768007535" lon="8.468917070554086"><ele>93.0</ele><time>2026-04-04T10:34:25Z</time></trkpt><trkpt lat="39.68657283820577" lon="8.469063088363582"><ele>93.25</ele><time>2026-04-04T10:34:26Z</time></trkpt><trkpt lat="39.686675759618" lon="8.469183230979938"><ele>93.5</ele><time>2026-04-04T10:34:27Z</time></trkpt><trkpt lat="39.68679858382135" lon="8.469275824908701"><ele>93.75</ele><time>2026-04-04T10:34:28Z</time></trkpt><trkpt lat="39.68690829569598" lon="8.469383602945154"><ele>94.0</ele><time>2026-04-04T10:34:29Z</time></trkpt><trkpt lat="39.68701607757807" lon="8.469509249492358"><ele>92.0</ele><time>2026-04-04T10:34:30Z</time></trkpt><trkpt lat="39.68712165278399" lon="8.469647559808893"><ele>90.0</ele><time>2026-04-04T10:34:31Z</time></trkpt><trkpt lat="39.68722530448109" lon="8.469793740687667"><ele>88.0</ele><time>2026-04-04T10:34:32Z</time></trkpt><trkpt lat="39.687324746147716" lon="8.469951885323988"><ele>88.0</ele><time>2026-04-04T10:34:33Z</time></trkpt><trkpt lat="39.687417723079996" lon="8.470115719889824"><ele>88.0</ele><time>2026-04-04T10:34:34Z</time></trkpt><trkpt lat="39.687509242945" lon="8.470273134399852"><ele>88.0</ele><time>2026-04-04T10:34:35Z</time></trkpt><trkpt lat="39.687601010796506" lon="8.470421190776479"><ele>88.75</ele><time>2026-04-04T10:34:36Z</time></trkpt><trkpt lat="39.687680510052424" lon="8.470566927735426"><ele>89.5</ele><time>2026-04-04T10:34:37Z</time></trkpt><trkpt lat="39.68774085696995" lon="8.470721996791998"><ele>90.25</ele><time>2026-04-04T10:34:38Z</time></trkpt><trkpt lat="39.68777221239472" lon="8.470883328622948"><ele>91.0</ele><time>2026-04-04T10:34:39Z</time></trkpt><trkpt lat="39.68776058334784" lon="8.471046811110487"><ele>91.0</ele><time>2026-04-04T10:34:40Z</time></trkpt><trkpt lat="39.68771802785427" lon="8.47119667383725"><ele>91.0</ele><time>2026-04-04T10:34:41Z</time></trkpt><trkpt lat="39.687649511624656" lon="8.47133964805658"><ele>91.0</ele><time>2026-04-04T10:34:42Z</time></trkpt><trkpt lat="39.687589485419245" lon="8.471487016709478"><ele>91.0</ele><time>2026-04-04T10:34:43Z</time></trkpt><trkpt lat="39.687524287736245" lon="8.47162981875235"><ele>88.5</ele><time>2026-04-04T10:34:44Z</time></trkpt><trkpt lat="39.687443166934" lon="8.471755290276654"><ele>86.0</ele><time>2026-04-04T10:34:45Z</time></trkpt><trkpt lat="39.687330342031885" lon="8.47179482760232"><ele>83.5</ele><time>2026-04-04T10:34:46Z</time></trkpt><trkpt lat="39.68722104068374" lon="8.471798445439395"><ele>81.0</ele><time>2026-04-04T10:34:47Z</time></trkpt><trkpt lat="39.68710985636105" lon="8.471807355818171"><ele>81.0</ele><time>2026-04-04T10:34:48Z</time></trkpt><trkpt lat="39.68700623155254" lon="8.4718828986297"><ele>81.0</ele><time>2026-04-04T10:34:49Z</time></trkpt><trkpt lat="39.686935647643466" lon="8.472003255524417"><ele>81.0</ele><time>2026-04-04T10:34:50Z</time></trkpt><trkpt lat="39.68689550677069" lon="8.472162586454504"><ele>81.0</ele><time>2026-04-04T10:34:51Z</time></trkpt><trkpt lat="39.686878500886046" lon="8.472319184035925"><ele>81.0</ele><time>2026-04-04T10:34:52Z</time></trkpt><trkpt lat="39.68688884862439" lon="8.472448312614523"><ele>81.0</ele><time>2026-04-04T10:34:53Z</time></trkpt><trkpt lat="39.686945922409045" lon="8.472549414821758"><ele>81.0</ele><time>2026-04-04T10:34:54Z</time></trkpt><trkpt lat="39.687031210643475" lon="8.4726068093694"><ele>81.0</ele><time>2026-04-04T10:34:55Z</time></trkpt><trkpt lat="39.68713879636137" lon="8.472609299187575"><ele>81.0</ele><time>2026-04-04T10:34:56Z</time></trkpt><trkpt lat="39.68725127863519" lon="8.47256438838268"><ele>81.0</ele><time>2026-04-04T10:34:57Z</time></trkpt><trkpt lat="39.68738440143503" lon="8.472500690487175"><ele>81.0</ele><time>2026-04-04T10:34:58Z</time></trkpt><trkpt lat="39.68751951770898" lon="8.472445675712752"><ele>81.0</ele><time>2026-04-04T10:34:59Z</time></trkpt><trkpt lat="39.68766109950401" lon="8.47238396894939"><ele>81.0</ele><time>2026-04-04T10:35:00Z</time></trkpt><trkpt lat="39.6877991391623" lon="8.472305027341445"><ele>79.33333333333333</ele><time>2026-04-04T10:35:01Z</time></trkpt><trkpt lat="39.6879428507845" lon="8.472213683058856"><ele>77.66666666666666</ele><time>2026-04-04T10:35:02Z</time></trkpt><trkpt lat="39.68808687495871" lon="8.472112433173844"><ele>76.0</ele><time>2026-04-04T10:35:03Z</time></trkpt><trkpt lat="39.68824807922314" lon="8.47200504518265"><ele>76.0</ele><time>2026-04-04T10:35:04Z</time></trkpt><trkpt lat="39.68841626346657" lon="8.471925189942155"><ele>76.0</ele><time>2026-04-04T10:35:05Z</time></trkpt><trkpt lat="39.688577103815604" lon="8.47186627765175"><ele>76.0</ele><time>2026-04-04T10:35:06Z</time></trkpt><trkpt lat="39.688732098065344" lon="8.471806174115645"><ele>77.25</ele><time>2026-04-04T10:35:07Z</time></trkpt><trkpt lat="39.68886442576152" lon="8.47175577604053"><ele>78.5</ele><time>2026-04-04T10:35:08Z</time></trkpt><trkpt lat="39.68898246126842" lon="8.47173933622044"><ele>79.75</ele><time>2026-04-04T10:35:09Z</time></trkpt><trkpt lat="39.689092822852864" lon="8.47177617084329"><ele>81.0</ele><time>2026-04-04T10:35:10Z</time></trkpt><trkpt lat="39.68919531584809" lon="8.471830678574497"><ele>81.0</ele><time>2026-04-04T10:35:11Z</time></trkpt><trkpt lat="39.68930445932123" lon="8.471838009194451"><ele>81.0</ele><time>2026-04-04T10:35:12Z</time></trkpt><trkpt lat="39.68941500843598" lon="8.471781837161293"><ele>81.0</ele><time>2026-04-04T10:35:13Z</time></trkpt><trkpt lat="39.68952198141385" lon="8.471662014649988"><ele>81.0</ele><time>2026-04-04T10:35:14Z</time></trkpt><trkpt lat="39.68962767299003" lon="8.471519481642012"><ele>81.66666666666667</ele><time>2026-04-04T10:35:15Z</time></trkpt><trkpt lat="39.68972546466509" lon="8.47134674236979"><ele>82.33333333333334</ele><time>2026-04-04T10:35:16Z</time></trkpt><trkpt lat="39.68980382563228" lon="8.471152610654276"><ele>83.0</ele><time>2026-04-04T10:35:17Z</time></trkpt><trkpt lat="39.6899084830729" lon="8.470974486634619"><ele>83.0</ele><time>2026-04-04T10:35:18Z</time></trkpt><trkpt lat="39.690036587169885" lon="8.470813593273979"><ele>83.0</ele><time>2026-04-04T10:35:19Z</time></trkpt><trkpt lat="39.69016987659251" lon="8.470657934525631"><ele>83.0</ele><time>2026-04-04T10:35:20Z</time></trkpt><trkpt lat="39.69030315149093" lon="8.470505762726589"><ele>82.66666666666667</ele><time>2026-04-04T10:35:21Z</time></trkpt><trkpt lat="39.69044489047582" lon="8.470372917917762"><ele>82.33333333333333</ele><time>2026-04-04T10:35:22Z</time></trkpt><trkpt lat="39.690602627156444" lon="8.47026471691149"><ele>82.0</ele><time>2026-04-04T10:35:23Z</time></trkpt><trkpt lat="39.69076317975023" lon="8.470170637624683"><ele>82.0</ele><time>2026-04-04T10:35:24Z</time></trkpt><trkpt lat="39.69091689120271" lon="8.470088598389564"><ele>82.0</ele><time>2026-04-04T10:35:25Z</time></trkpt><trkpt lat="39.69106563762114" lon="8.47000150701552"><ele>82.0</ele><time>2026-04-04T10:35:26Z</time></trkpt><trkpt lat="39.691190378270434" lon="8.469886155001861"><ele>81.5</ele><time>2026-04-04T10:35:27Z</time></trkpt><trkpt lat="39.69129880435429" lon="8.469766334074798"><ele>81.0</ele><time>2026-04-04T10:35:28Z</time></trkpt><trkpt lat="39.69140054809104" lon="8.469654425790868"><ele>80.5</ele><time>2026-04-04T10:35:29Z</time></trkpt><trkpt lat="39.69149558646959" lon="8.469562705918877"><ele>80.0</ele><time>2026-04-04T10:35:30Z</time></trkpt><trkpt lat="39.69160038031044" lon="8.469544154588066"><ele>80.0</ele><time>2026-04-04T10:35:31Z</time></trkpt><trkpt lat="39.69168114688637" lon="8.469585008855203"><ele>80.0</ele><time>2026-04-04T10:35:32Z</time></trkpt><trkpt lat="39.6916746910785" lon="8.469750170291913"><ele>80.0</ele><time>2026-04-04T10:35:34Z</time></trkpt><trkpt lat="39.691592833946395" lon="8.469844656691727"><ele>80.0</ele><time>2026-04-04T10:35:35Z</time></trkpt><trkpt lat="39.69150726725705" lon="8.46995371427602"><ele>80.0</ele><time>2026-04-04T10:35:36Z</time></trkpt><trkpt lat="39.69145853149152" lon="8.470089873730238"><ele>78.25</ele><time>2026-04-04T10:35:37Z</time></trkpt><trkpt lat="39.69143099602423" lon="8.470256601410558"><ele>76.5</ele><time>2026-04-04T10:35:38Z</time></trkpt><trkpt lat="39.69142272857852" lon="8.470406227392314"><ele>74.75</ele><time>2026-04-04T10:35:39Z</time></trkpt><trkpt lat="39.691457151732" lon="8.470544512431895"><ele>73.0</ele><time>2026-04-04T10:35:40Z</time></trkpt><trkpt lat="39.6915342176462" lon="8.470648266192162"><ele>72.5</ele><time>2026-04-04T10:35:41Z</time></trkpt><trkpt lat="39.69164611835907" lon="8.470729208241547"><ele>72.0</ele><time>2026-04-04T10:35:42Z</time></trkpt><trkpt lat="39.69177556699909" lon="8.470781173545353"><ele>71.5</ele><time>2026-04-04T10:35:43Z</time></trkpt><trkpt lat="39.691890139640606" lon="8.470860535496644"><ele>71.0</ele><time>2026-04-04T10:35:44Z</time></trkpt><trkpt lat="39.69198852147298" lon="8.470981938808936"><ele>69.75</ele><time>2026-04-04T10:35:45Z</time></trkpt><trkpt lat="39.69205355463646" lon="8.471137884805364"><ele>68.5</ele><time>2026-04-04T10:35:46Z</time></trkpt><trkpt lat="39.69208311714042" lon="8.47131376771196"><ele>67.25</ele><time>2026-04-04T10:35:47Z</time></trkpt><trkpt lat="39.692115449220815" lon="8.471498638341377"><ele>66.0</ele><time>2026-04-04T10:35:48Z</time></trkpt><trkpt lat="39.69215830818676" lon="8.471677028408768"><ele>66.0</ele><time>2026-04-04T10:35:49Z</time></trkpt><trkpt lat="39.692224408559" lon="8.471854743362334"><ele>66.0</ele><time>2026-04-04T10:35:50Z</time></trkpt><trkpt lat="39.692314944746684" lon="8.472024809714508"><ele>66.0</ele><time>2026-04-04T10:35:51Z</time></trkpt><trkpt lat="39.69241302682052" lon="8.472196232887061"><ele>64.66666666666667</ele><time>2026-04-04T10:35:52Z</time></trkpt><trkpt lat="39.69250663447819" lon="8.472383264305437"><ele>63.333333333333336</ele><time>2026-04-04T10:35:53Z</time></trkpt><trkpt lat="39.69260106984582" lon="8.47257243185665"><ele>62.0</ele><time>2026-04-04T10:35:54Z</time></trkpt><trkpt lat="39.692699400924475" lon="8.472764984620563"><ele>61.333333333333336</ele><time>2026-04-04T10:35:55Z</time></trkpt><trkpt lat="39.69280112450312" lon="8.47295658408349"><ele>60.66666666666667</ele><time>2026-04-04T10:35:56Z</time></trkpt><trkpt lat="39.69290470744718" lon="8.47314546825487"><ele>60.0</ele><time>2026-04-04T10:35:57Z</time></trkpt><trkpt lat="39.69301033992026" lon="8.473332685188556"><ele>60.0</ele><time>2026-04-04T10:35:58Z</time></trkpt><trkpt lat="39.69312161632837" lon="8.4735143407086"><ele>60.0</ele><time>2026-04-04T10:35:59Z</time></trkpt><trkpt lat="39.69324255317932" lon="8.473681193582417"><ele>60.0</ele><time>2026-04-04T10:36:00Z</time></trkpt><trkpt lat="39.69336912892366" lon="8.473841463349327"><ele>60.0</ele><time>2026-04-04T10:36:01Z</time></trkpt><trkpt lat="39.69349571258035" lon="8.474002475165682"><ele>60.0</ele><time>2026-04-04T10:36:02Z</time></trkpt><trkpt lat="39.69361947613644" lon="8.474165064320896"><ele>60.0</ele><time>2026-04-04T10:36:03Z</time></trkpt><trkpt lat="39.69373573240464" lon="8.474330642284341"><ele>59.0</ele><time>2026-04-04T10:36:04Z</time></trkpt><trkpt lat="39.693833684740994" lon="8.47450462485754"><ele>58.0</ele><time>2026-04-04T10:36:05Z</time></trkpt><trkpt lat="39.69392569782943" lon="8.474673356128017"><ele>57.0</ele><time>2026-04-04T10:36:06Z</time></trkpt><trkpt lat="39.69401889785599" lon="8.47483592988041"><ele>55.66666666666667</ele><time>2026-04-04T10:36:07Z</time></trkpt><trkpt lat="39.694140186381404" lon="8.47498641423909"><ele>54.333333333333336</ele><time>2026-04-04T10:36:08Z</time></trkpt><trkpt lat="39.69426692872634" lon="8.475120159947359"><ele>53.0</ele><time>2026-04-04T10:36:09Z</time></trkpt><trkpt lat="39.69441212095196" lon="8.475240611072932"><ele>51.333333333333336</ele><time>2026-04-04T10:36:10Z</time></trkpt><trkpt lat="39.694561378280135" lon="8.475359053219758"><ele>49.66666666666667</ele><time>2026-04-04T10:36:11Z</time></trkpt><trkpt lat="39.69470005844533" lon="8.475505231760781"><ele>48.0</ele><time>2026-04-04T10:36:12Z</time></trkpt><trkpt lat="39.69484219925324" lon="8.475681078682184"><ele>46.666666666666664</ele><time>2026-04-04T10:36:13Z</time></trkpt><trkpt lat="39.69499423521725" lon="8.475865168145225"><ele>45.33333333333333</ele><time>2026-04-04T10:36:14Z</time></trkpt><trkpt lat="39.69516153575343" lon="8.476062933330685"><ele>44.0</ele><time>2026-04-04T10:36:15Z</time></trkpt><trkpt lat="39.69531597164617" lon="8.476249791179136"><ele>45.33333333333333</ele><time>2026-04-04T10:36:16Z</time></trkpt><trkpt lat="39.69545076809377" lon="8.476423533190793"><ele>46.666666666666664</ele><time>2026-04-04T10:36:17Z</time></trkpt><trkpt lat="39.69557620487727" lon="8.476583845772026"><ele>48.0</ele><time>2026-04-04T10:36:18Z</time></trkpt><trkpt lat="39.69569477480466" lon="8.476729624120575"><ele>48.0</ele><time>2026-04-04T10:36:19Z</time></trkpt><trkpt lat="39.695808548855574" lon="8.47684872092823"><ele>48.0</ele><time>2026-04-04T10:36:20Z</time></trkpt><trkpt lat="39.695927208125184" lon="8.476918280660568"><ele>48.0</ele><time>2026-04-04T10:36:21Z</time></trkpt><trkpt lat="39.69606787382359" lon="8.476913814057681"><ele>48.0</ele><time>2026-04-04T10:36:22Z</time></trkpt><trkpt lat="39.69623302566714" lon="8.476849541609555"><ele>48.25</ele><time>2026-04-04T10:36:23Z</time></trkpt><trkpt lat="39.69640012750107" lon="8.476802183241162"><ele>48.5</ele><time>2026-04-04T10:36:24Z</time></trkpt><trkpt lat="39.69654780741501" lon="8.476802369289427"><ele>48.75</ele><time>2026-04-04T10:36:25Z</time></trkpt><trkpt lat="39.69665116638278" lon="8.476879143811935"><ele>49.0</ele><time>2026-04-04T10:36:26Z</time></trkpt><trkpt lat="39.696707286739674" lon="8.477025297285893"><ele>51.25</ele><time>2026-04-04T10:36:27Z</time></trkpt><trkpt lat="39.69681623707054" lon="8.477103123650888"><ele>53.5</ele><time>2026-04-04T10:36:28Z</time></trkpt><trkpt lat="39.696925640187764" lon="8.477236615854107"><ele>55.75</ele><time>2026-04-04T10:36:29Z</time></trkpt><trkpt lat="39.697080757622004" lon="8.477308690079258"><ele>58.0</ele><time>2026-04-04T10:36:30Z</time></trkpt><trkpt lat="39.697263670312694" lon="8.477316889550822"><ele>58.666666666666664</ele><time>2026-04-04T10:36:31Z</time></trkpt><trkpt lat="39.697467078452206" lon="8.477275263501232"><ele>59.33333333333333</ele><time>2026-04-04T10:36:32Z</time></trkpt><trkpt lat="39.69765986188709" lon="8.477225597659992"><ele>60.0</ele><time>2026-04-04T10:36:33Z</time></trkpt><trkpt lat="39.69783336346188" lon="8.4771878067451"><ele>58.33333333333333</ele><time>2026-04-04T10:36:34Z</time></trkpt><trkpt lat="39.69799571138148" lon="8.477163105304248"><ele>56.666666666666664</ele><time>2026-04-04T10:36:35Z</time></trkpt><trkpt lat="39.69814626772765" lon="8.47716433813037"><ele>55.0</ele><time>2026-04-04T10:36:36Z</time></trkpt><trkpt lat="39.698280126234565" lon="8.477192812209685"><ele>55.0</ele><time>2026-04-04T10:36:37Z</time></trkpt><trkpt lat="39.698389260075416" lon="8.477247336778996"><ele>55.0</ele><time>2026-04-04T10:36:38Z</time></trkpt><trkpt lat="39.698453358875604" lon="8.477372815573192"><ele>55.0</ele><time>2026-04-04T10:36:39Z</time></trkpt><trkpt lat="39.698544242854574" lon="8.47749208895181"><ele>55.0</ele><time>2026-04-04T10:36:40Z</time></trkpt><trkpt lat="39.69862181539399" lon="8.47764230792223"><ele>54.75</ele><time>2026-04-04T10:36:41Z</time></trkpt><trkpt lat="39.698728610186556" lon="8.477773486738709"><ele>54.5</ele><time>2026-04-04T10:36:42Z</time></trkpt><trkpt lat="39.69883523000702" lon="8.477857901300245"><ele>54.25</ele><time>2026-04-04T10:36:43Z</time></trkpt><trkpt lat="39.69893916267198" lon="8.477873682253952"><ele>54.0</ele><time>2026-04-04T10:36:44Z</time></trkpt><trkpt lat="39.69903420560373" lon="8.477814617727525"><ele>54.0</ele><time>2026-04-04T10:36:45Z</time></trkpt><trkpt lat="39.699123150506814" lon="8.47771032693208"><ele>54.0</ele><time>2026-04-04T10:36:46Z</time></trkpt><trkpt lat="39.69923236606184" lon="8.477618289762738"><ele>54.0</ele><time>2026-04-04T10:36:47Z</time></trkpt><trkpt lat="39.69936045721791" lon="8.477593692949252"><ele>54.0</ele><time>2026-04-04T10:36:48Z</time></trkpt><trkpt lat="39.69950559047106" lon="8.477618089843212"><ele>54.33333333333333</ele><time>2026-04-04T10:36:49Z</time></trkpt><trkpt lat="39.699662267964484" lon="8.477642733893415"><ele>54.666666666666664</ele><time>2026-04-04T10:36:50Z</time></trkpt><trkpt lat="39.69982603930272" lon="8.477638762077442"><ele>55.0</ele><time>2026-04-04T10:36:51Z</time></trkpt><trkpt lat="39.6999839461659" lon="8.477583273063262"><ele>55.0</ele><time>2026-04-04T10:36:52Z</time></trkpt><trkpt lat="39.700109035357485" lon="8.477475771896351"><ele>55.0</ele><time>2026-04-04T10:36:53Z</time></trkpt><trkpt lat="39.700232282857" lon="8.477427009580063"><ele>55.0</ele><time>2026-04-04T10:36:54Z</time></trkpt><trkpt lat="39.70036501409792" lon="8.47742078511502"><ele>55.0</ele><time>2026-04-04T10:36:55Z</time></trkpt><trkpt lat="39.700505829116835" lon="8.477416474817865"><ele>54.0</ele><time>2026-04-04T10:36:56Z</time></trkpt><trkpt lat="39.70064135106236" lon="8.477417858734524"><ele>53.0</ele><time>2026-04-04T10:36:57Z</time></trkpt><trkpt lat="39.700751117397566" lon="8.477456418181392"><ele>52.0</ele><time>2026-04-04T10:36:58Z</time></trkpt><trkpt lat="39.7008352042643" lon="8.477555912151809"><ele>51.0</ele><time>2026-04-04T10:36:59Z</time></trkpt><trkpt lat="39.70089852837058" lon="8.47769389076562"><ele>51.0</ele><time>2026-04-04T10:37:00Z</time></trkpt><trkpt lat="39.700955545794926" lon="8.47785738811287"><ele>51.0</ele><time>2026-04-04T10:37:01Z</time></trkpt><trkpt lat="39.70101294858276" lon="8.478032281821326"><ele>51.0</ele><time>2026-04-04T10:37:02Z</time></trkpt><trkpt lat="39.701073909940085" lon="8.478215020862123"><ele>51.0</ele><time>2026-04-04T10:37:03Z</time></trkpt><trkpt lat="39.70112999187263" lon="8.478408662548375"><ele>51.0</ele><time>2026-04-04T10:37:04Z</time></trkpt><trkpt lat="39.70117919360378" lon="8.47861164714351"><ele>51.0</ele><time>2026-04-04T10:37:05Z</time></trkpt><trkpt lat="39.70122849400556" lon="8.478818338529043"><ele>51.0</ele><time>2026-04-04T10:37:06Z</time></trkpt><trkpt lat="39.7012819305741" lon="8.479022613681474"><ele>51.0</ele><time>2026-04-04T10:37:07Z</time></trkpt><trkpt lat="39.70133843244781" lon="8.479222998138395"><ele>51.0</ele><time>2026-04-04T10:37:08Z</time></trkpt><trkpt lat="39.70138940008761" lon="8.479409520788703"><ele>51.0</ele><time>2026-04-04T10:37:09Z</time></trkpt><trkpt lat="39.701439724961396" lon="8.479570634078202"><ele>50.75</ele><time>2026-04-04T10:37:10Z</time></trkpt><trkpt lat="39.701525343973685" lon="8.47969547236973"><ele>50.5</ele><time>2026-04-04T10:37:11Z</time></trkpt><trkpt lat="39.70165255780546" lon="8.479797157134126"><ele>50.25</ele><time>2026-04-04T10:37:12Z</time></trkpt><trkpt lat="39.70179300871753" lon="8.47989019899738"><ele>50.0</ele><time>2026-04-04T10:37:13Z</time></trkpt><trkpt lat="39.70194098526743" lon="8.479981328688895"><ele>50.0</ele><time>2026-04-04T10:37:14Z</time></trkpt><trkpt lat="39.70209364323489" lon="8.480063107707725"><ele>50.0</ele><time>2026-04-04T10:37:15Z</time></trkpt><trkpt lat="39.70225708363716" lon="8.480121448614266"><ele>50.0</ele><time>2026-04-04T10:37:16Z</time></trkpt><trkpt lat="39.70242445915156" lon="8.480153793607291"><ele>50.0</ele><time>2026-04-04T10:37:17Z</time></trkpt><trkpt lat="39.702593061218394" lon="8.480177083630071"><ele>50.0</ele><time>2026-04-04T10:37:18Z</time></trkpt><trkpt lat="39.70275459494258" lon="8.480195825901145"><ele>50.0</ele><time>2026-04-04T10:37:19Z</time></trkpt><trkpt lat="39.70290873147664" lon="8.480202104582228"><ele>50.0</ele><time>2026-04-04T10:37:20Z</time></trkpt><trkpt lat="39.70304945890968" lon="8.480191575208632"><ele>50.0</ele><time>2026-04-04T10:37:21Z</time></trkpt><trkpt lat="39.70317318754429" lon="8.4801959069128"><ele>50.0</ele><time>2026-04-04T10:37:22Z</time></trkpt><trkpt lat="39.703278120871516" lon="8.480250948306312"><ele>50.0</ele><time>2026-04-04T10:37:23Z</time></trkpt><trkpt lat="39.703350230958726" lon="8.480367483195922"><ele>49.75</ele><time>2026-04-04T10:37:24Z</time></trkpt><trkpt lat="39.70342601410909" lon="8.480506066621112"><ele>49.5</ele><time>2026-04-04T10:37:25Z</time></trkpt><trkpt lat="39.70349400091569" lon="8.48066632105115"><ele>49.25</ele><time>2026-04-04T10:37:26Z</time></trkpt><trkpt lat="39.703577796653" lon="8.480828759949764"><ele>49.0</ele><time>2026-04-04T10:37:27Z</time></trkpt><trkpt lat="39.70365215048531" lon="8.48100059664659"><ele>49.0</ele><time>2026-04-04T10:37:28Z</time></trkpt><trkpt lat="39.70369096129459" lon="8.481185548396908"><ele>49.0</ele><time>2026-04-04T10:37:29Z</time></trkpt><trkpt lat="39.70371799441498" lon="8.481357965376125"><ele>49.0</ele><time>2026-04-04T10:37:30Z</time></trkpt><trkpt lat="39.70376695960727" lon="8.481496637469927"><ele>49.0</ele><time>2026-04-04T10:37:31Z</time></trkpt><trkpt lat="39.70385186421512" lon="8.481576626264932"><ele>46.0</ele><time>2026-04-04T10:37:32Z</time></trkpt><trkpt lat="39.70396122951718" lon="8.48159148728278"><ele>43.0</ele><time>2026-04-04T10:37:33Z</time></trkpt><trkpt lat="39.7040785411629" lon="8.481531017228422"><ele>40.0</ele><time>2026-04-04T10:37:34Z</time></trkpt><trkpt lat="39.70418252881154" lon="8.48143157127657"><ele>37.0</ele><time>2026-04-04T10:37:35Z</time></trkpt><trkpt lat="39.704263070736744" lon="8.481297468877054"><ele>36.25</ele><time>2026-04-04T10:37:36Z</time></trkpt><trkpt lat="39.70437106957765" lon="8.481219669113822"><ele>35.5</ele><time>2026-04-04T10:37:37Z</time></trkpt><trkpt lat="39.704494283589554" lon="8.481209094434165"><ele>34.75</ele><time>2026-04-04T10:37:38Z</time></trkpt><trkpt lat="39.70461558164143" lon="8.48124537719627"><ele>34.0</ele><time>2026-04-04T10:37:39Z</time></trkpt><trkpt lat="39.70471383200711" lon="8.481364801349443"><ele>34.0</ele><time>2026-04-04T10:37:40Z</time></trkpt><trkpt lat="39.704834809507304" lon="8.481466296784848"><ele>34.0</ele><time>2026-04-04T10:37:41Z</time></trkpt><trkpt lat="39.70496312625991" lon="8.481566836069613"><ele>34.0</ele><time>2026-04-04T10:37:42Z</time></trkpt><trkpt lat="39.70510749385444" lon="8.481647540964845"><ele>33.5</ele><time>2026-04-04T10:37:43Z</time></trkpt><trkpt lat="39.70524945472486" lon="8.481689801971969"><ele>33.0</ele><time>2026-04-04T10:37:44Z</time></trkpt><trkpt lat="39.70539803522845" lon="8.481672617634624"><ele>32.5</ele><time>2026-04-04T10:37:45Z</time></trkpt><trkpt lat="39.70554344888754" lon="8.481616769425083"><ele>32.0</ele><time>2026-04-04T10:37:46Z</time></trkpt><trkpt lat="39.705696288684166" lon="8.481546580525249"><ele>32.0</ele><time>2026-04-04T10:37:47Z</time></trkpt><trkpt lat="39.705840308697496" lon="8.48147220515115"><ele>32.0</ele><time>2026-04-04T10:37:48Z</time></trkpt><trkpt lat="39.705953527388424" lon="8.481394628185448"><ele>32.0</ele><time>2026-04-04T10:37:49Z</time></trkpt><trkpt lat="39.70602607133594" lon="8.48129784811289"><ele>32.0</ele><time>2026-04-04T10:37:50Z</time></trkpt><trkpt lat="39.706049714249296" lon="8.481172104626475"><ele>32.33333333333333</ele><time>2026-04-04T10:37:51Z</time></trkpt><trkpt lat="39.7060428327438" lon="8.481027113407364"><ele>32.666666666666664</ele><time>2026-04-04T10:37:52Z</time></trkpt><trkpt lat="39.70608920967895" lon="8.480930054599432"><ele>33.0</ele><time>2026-04-04T10:37:53Z</time></trkpt><trkpt lat="39.70614557959356" lon="8.480876402366802"><ele>33.333333333333336</ele><time>2026-04-04T10:37:54Z</time></trkpt><trkpt lat="39.70622209319373" lon="8.480907547418019"><ele>33.66666666666667</ele><time>2026-04-04T10:37:55Z</time></trkpt><trkpt lat="39.70627881035955" lon="8.480995481388394"><ele>34.0</ele><time>2026-04-04T10:37:56Z</time></trkpt><trkpt lat="39.70631511884502" lon="8.481141447382788"><ele>32.0</ele><time>2026-04-04T10:37:57Z</time></trkpt><trkpt lat="39.70635092022472" lon="8.481271956207099"><ele>30.0</ele><time>2026-04-04T10:37:58Z</time></trkpt><trkpt lat="39.706431617264144" lon="8.481376004689118"><ele>28.0</ele><time>2026-04-04T10:37:59Z</time></trkpt><trkpt lat="39.70655806582216" lon="8.481429274610377"><ele>26.0</ele><time>2026-04-04T10:38:00Z</time></trkpt><trkpt lat="39.70670751492441" lon="8.481441209484124"><ele>26.0</ele><time>2026-04-04T10:38:01Z</time></trkpt><trkpt lat="39.70685699605705" lon="8.48143772279107"><ele>26.0</ele><time>2026-04-04T10:38:02Z</time></trkpt><trkpt lat="39.70700273275065" lon="8.48146157167161"><ele>26.0</ele><time>2026-04-04T10:38:03Z</time></trkpt><trkpt lat="39.70713632346168" lon="8.481515528733684"><ele>26.0</ele><time>2026-04-04T10:38:04Z</time></trkpt><trkpt lat="39.70725543529684" lon="8.481605241954698"><ele>25.0</ele><time>2026-04-04T10:38:05Z</time></trkpt><trkpt lat="39.70736433504804" lon="8.481734220641219"><ele>24.0</ele><time>2026-04-04T10:38:06Z</time></trkpt><trkpt lat="39.7074763213689" lon="8.481883247352597"><ele>23.0</ele><time>2026-04-04T10:38:07Z</time></trkpt><trkpt lat="39.707592028087674" lon="8.48202467018071"><ele>22.666666666666668</ele><time>2026-04-04T10:38:08Z</time></trkpt><trkpt lat="39.70771695368006" lon="8.482180486460313"><ele>22.333333333333332</ele><time>2026-04-04T10:38:09Z</time></trkpt><trkpt lat="39.70784288825178" lon="8.482335972129317"><ele>22.0</ele><time>2026-04-04T10:38:10Z</time></trkpt><trkpt lat="39.70796120760848" lon="8.48249294107999"><ele>21.75</ele><time>2026-04-04T10:38:11Z</time></trkpt><trkpt lat="39.708069139908886" lon="8.482640004787523"><ele>21.5</ele><time>2026-04-04T10:38:12Z</time></trkpt><trkpt lat="39.708172860530546" lon="8.482764222668488"><ele>21.25</ele><time>2026-04-04T10:38:13Z</time></trkpt><trkpt lat="39.70827634868517" lon="8.482847640007227"><ele>21.0</ele><time>2026-04-04T10:38:14Z</time></trkpt><trkpt lat="39.70838241438521" lon="8.48287137526518"><ele>21.0</ele><time>2026-04-04T10:38:15Z</time></trkpt><trkpt lat="39.70848965974302" lon="8.482831087237198"><ele>21.0</ele><time>2026-04-04T10:38:16Z</time></trkpt><trkpt lat="39.708599329517114" lon="8.48273126889687"><ele>21.0</ele><time>2026-04-04T10:38:17Z</time></trkpt><trkpt lat="39.708725898394604" lon="8.4826115696532"><ele>21.0</ele><time>2026-04-04T10:38:18Z</time></trkpt><trkpt lat="39.70886616346003" lon="8.482505928488015"><ele>22.333333333333336</ele><time>2026-04-04T10:38:19Z</time></trkpt><trkpt lat="39.709024609081524" lon="8.482404751894325"><ele>23.666666666666668</ele><time>2026-04-04T10:38:20Z</time></trkpt><trkpt lat="39.709182029200385" lon="8.482301105208844"><ele>25.0</ele><time>2026-04-04T10:38:21Z</time></trkpt><trkpt lat="39.70933059600751" lon="8.482199993619872"><ele>23.0</ele><time>2026-04-04T10:38:22Z</time></trkpt><trkpt lat="39.709479114055846" lon="8.482102425332572"><ele>21.0</ele><time>2026-04-04T10:38:23Z</time></trkpt><trkpt lat="39.709630723957375" lon="8.482011359730391"><ele>19.0</ele><time>2026-04-04T10:38:24Z</time></trkpt><trkpt lat="39.70978257584641" lon="8.481938522098085"><ele>19.0</ele><time>2026-04-04T10:38:25Z</time></trkpt><trkpt lat="39.709940909420226" lon="8.481889292775287"><ele>19.0</ele><time>2026-04-04T10:38:26Z</time></trkpt><trkpt lat="39.71009729897091" lon="8.481872542795148"><ele>19.0</ele><time>2026-04-04T10:38:27Z</time></trkpt><trkpt lat="39.71024608930764" lon="8.4818881292032"><ele>18.5</ele><time>2026-04-04T10:38:28Z</time></trkpt><trkpt lat="39.71038438378136" lon="8.481932358094996"><ele>18.0</ele><time>2026-04-04T10:38:29Z</time></trkpt><trkpt lat="39.71051835232559" lon="8.48201322483842"><ele>17.5</ele><time>2026-04-04T10:38:30Z</time></trkpt><trkpt lat="39.71065126958605" lon="8.482099544358453"><ele>17.0</ele><time>2026-04-04T10:38:31Z</time></trkpt><trkpt lat="39.7107889564761" lon="8.482176922262443"><ele>16.0</ele><time>2026-04-04T10:38:32Z</time></trkpt><trkpt lat="39.71092165703958" lon="8.482252926592361"><ele>15.0</ele><time>2026-04-04T10:38:33Z</time></trkpt><trkpt lat="39.71103586756054" lon="8.482340237248088"><ele>14.0</ele><time>2026-04-04T10:38:34Z</time></trkpt><trkpt lat="39.71112474711446" lon="8.482464372347346"><ele>13.0</ele><time>2026-04-04T10:38:35Z</time></trkpt><trkpt lat="39.711181628440436" lon="8.482608138152022"><ele>13.0</ele><time>2026-04-04T10:38:36Z</time></trkpt><trkpt lat="39.71123422849147" lon="8.482756078882048"><ele>13.0</ele><time>2026-04-04T10:38:37Z</time></trkpt><trkpt lat="39.711303531656824" lon="8.482899499068322"><ele>13.0</ele><time>2026-04-04T10:38:38Z</time></trkpt><trkpt lat="39.711385407072825" lon="8.483045013661654"><ele>13.0</ele><time>2026-04-04T10:38:39Z</time></trkpt><trkpt lat="39.71146567732415" lon="8.483193705703581"><ele>13.75</ele><time>2026-04-04T10:38:40Z</time></trkpt><trkpt lat="39.71154142162239" lon="8.483342034962906"><ele>14.5</ele><time>2026-04-04T10:38:41Z</time></trkpt><trkpt lat="39.71161390490766" lon="8.48348555453837"><ele>15.25</ele><time>2026-04-04T10:38:42Z</time></trkpt><trkpt lat="39.71168431107451" lon="8.483626746611924"><ele>16.0</ele><time>2026-04-04T10:38:43Z</time></trkpt><trkpt lat="39.71175267415782" lon="8.483765857786821"><ele>16.5</ele><time>2026-04-04T10:38:44Z</time></trkpt><trkpt lat="39.71181672543186" lon="8.48390181115238"><ele>17.0</ele><time>2026-04-04T10:38:45Z</time></trkpt><trkpt lat="39.71185890298944" lon="8.484034866884167"><ele>17.5</ele><time>2026-04-04T10:38:46Z</time></trkpt><trkpt lat="39.71185127630346" lon="8.484172859777846"><ele>18.0</ele><time>2026-04-04T10:38:47Z</time></trkpt><trkpt lat="39.71181254992711" lon="8.484308358880183"><ele>18.0</ele><time>2026-04-04T10:38:48Z</time></trkpt><trkpt lat="39.71177345593742" lon="8.484456369097453"><ele>18.0</ele><time>2026-04-04T10:38:49Z</time></trkpt><trkpt lat="39.711742462152344" lon="8.484604528515062"><ele>18.0</ele><time>2026-04-04T10:38:50Z</time></trkpt><trkpt lat="39.71173192491008" lon="8.484730387808193"><ele>18.0</ele><time>2026-04-04T10:38:51Z</time></trkpt><trkpt lat="39.711755494067184" lon="8.484824766826298"><ele>18.0</ele><time>2026-04-04T10:38:52Z</time></trkpt><trkpt lat="39.711826957610754" lon="8.484904672418594"><ele>17.5</ele><time>2026-04-04T10:38:53Z</time></trkpt><trkpt lat="39.71192591457784" lon="8.484990445366073"><ele>17.0</ele><time>2026-04-04T10:38:54Z</time></trkpt><trkpt lat="39.712027758563885" lon="8.485054489571777"><ele>16.5</ele><time>2026-04-04T10:38:55Z</time></trkpt><trkpt lat="39.71211868959028" lon="8.485129557429833"><ele>16.0</ele><time>2026-04-04T10:38:56Z</time></trkpt><trkpt lat="39.712211641249134" lon="8.485209528129534"><ele>16.0</ele><time>2026-04-04T10:38:57Z</time></trkpt><trkpt lat="39.71230190551109" lon="8.48528970037783"><ele>16.0</ele><time>2026-04-04T10:38:58Z</time></trkpt><trkpt lat="39.712388579177905" lon="8.485363192874363"><ele>16.0</ele><time>2026-04-04T10:38:59Z</time></trkpt><trkpt lat="39.71247158292609" lon="8.485427690652278"><ele>16.0</ele><time>2026-04-04T10:39:00Z</time></trkpt><trkpt lat="39.7125429642472" lon="8.485490847627691"><ele>16.0</ele><time>2026-04-04T10:39:01Z</time></trkpt><trkpt lat="39.71260727753287" lon="8.485550068669943"><ele>14.999999999999998</ele><time>2026-04-04T10:39:02Z</time></trkpt><trkpt lat="39.71266941552283" lon="8.485606857725045"><ele>14.0</ele><time>2026-04-04T10:39:03Z</time></trkpt><trkpt lat="39.71273966634427" lon="8.48567139925462"><ele>13.0</ele><time>2026-04-04T10:39:04Z</time></trkpt><trkpt lat="39.71280542707835" lon="8.485729691782169"><ele>12.0</ele><time>2026-04-04T10:39:05Z</time></trkpt><trkpt lat="39.712887414918605" lon="8.485769153773004"><ele>11.0</ele><time>2026-04-04T10:39:07Z</time></trkpt><trkpt lat="39.712949210197976" lon="8.485801136878246"><ele>10.0</ele><time>2026-04-04T10:39:12Z</time></trkpt><trkpt lat="39.71300069666184" lon="8.48587956077886"><ele>10.0</ele><time>2026-04-04T10:39:14Z</time></trkpt><trkpt lat="39.713092964230995" lon="8.48595950346503"><ele>10.0</ele><time>2026-04-04T10:39:16Z</time></trkpt><trkpt lat="39.71318892093264" lon="8.48602445637218"><ele>10.0</ele><time>2026-04-04T10:39:18Z</time></trkpt><trkpt lat="39.71328406854159" lon="8.4860952352166"><ele>10.0</ele><time>2026-04-04T10:39:20Z</time></trkpt><trkpt lat="39.713375140179494" lon="8.486179233146412"><ele>10.0</ele><time>2026-04-04T10:39:22Z</time></trkpt><trkpt lat="39.713459288521676" lon="8.486251769526879"><ele>9.666666666666668</ele><time>2026-04-04T10:39:24Z</time></trkpt><trkpt lat="39.7135433004593" lon="8.486313077568038"><ele>9.333333333333334</ele><time>2026-04-04T10:39:26Z</time></trkpt><trkpt lat="39.71358841283736" lon="8.486402614369016"><ele>9.0</ele><time>2026-04-04T10:39:29Z</time></trkpt><trkpt lat="39.71365120487811" lon="8.48644260193223"><ele>8.666666666666666</ele><time>2026-04-04T10:40:13Z</time></trkpt><trkpt lat="39.71371173045994" lon="8.486497180501955"><ele>8.333333333333332</ele><time>2026-04-04T10:40:14Z</time></trkpt><trkpt lat="39.71379526189554" lon="8.486577185010141"><ele>8.0</ele><time>2026-04-04T10:40:15Z</time></trkpt><trkpt lat="39.71387574080927" lon="8.48668030027369"><ele>6.666666666666666</ele><time>2026-04-04T10:40:16Z</time></trkpt><trkpt lat="39.713962779017976" lon="8.486809818213192"><ele>5.333333333333333</ele><time>2026-04-04T10:40:17Z</time></trkpt><trkpt lat="39.714059782985125" lon="8.486954702479471"><ele>4.0</ele><time>2026-04-04T10:40:18Z</time></trkpt><trkpt lat="39.71417234775967" lon="8.487121463088606"><ele>3.0</ele><time>2026-04-04T10:40:19Z</time></trkpt><trkpt lat="39.71428810126894" lon="8.487291540099719"><ele>2.0</ele><time>2026-04-04T10:40:20Z</time></trkpt><trkpt lat="39.7144149347659" lon="8.48747453141918"><ele>1.0</ele><time>2026-04-04T10:40:21Z</time></trkpt><trkpt lat="39.71454628401659" lon="8.487673271814126"><ele>1.0</ele><time>2026-04-04T10:40:22Z</time></trkpt><trkpt lat="39.71467298633741" lon="8.487868940382233"><ele>1.0</ele><time>2026-04-04T10:40:23Z</time></trkpt><trkpt lat="39.7148010223522" lon="8.488062124386879"><ele>1.0</ele><time>2026-04-04T10:40:24Z</time></trkpt><trkpt lat="39.71490700930694" lon="8.488271496791638"><ele>1.0</ele><time>2026-04-04T10:40:25Z</time></trkpt><trkpt lat="39.71500621292723" lon="8.488475194710182"><ele>1.0</ele><time>2026-04-04T10:40:26Z</time></trkpt><trkpt lat="39.715053807704614" lon="8.488700570839015"><ele>1.0</ele><time>2026-04-04T10:40:27Z</time></trkpt><trkpt lat="39.71509453210667" lon="8.488917473315523"><ele>1.3333333333333333</ele><time>2026-04-04T10:40:28Z</time></trkpt><trkpt lat="39.715083113524024" lon="8.489150460912455"><ele>1.6666666666666665</ele><time>2026-04-04T10:40:29Z</time></trkpt><trkpt lat="39.71505472640197" lon="8.489390516981057"><ele>2.0</ele><time>2026-04-04T10:40:30Z</time></trkpt><trkpt lat="39.715016417799305" lon="8.489652348304555"><ele>2.0</ele><time>2026-04-04T10:40:31Z</time></trkpt><trkpt lat="39.714958433581494" lon="8.489929671789941"><ele>2.0</ele><time>2026-04-04T10:40:32Z</time></trkpt><trkpt lat="39.71490422448755" lon="8.49021475263862"><ele>2.0</ele><time>2026-04-04T10:40:33Z</time></trkpt><trkpt lat="39.71484947028999" lon="8.490497441325665"><ele>1.6666666666666665</ele><time>2026-04-04T10:40:34Z</time></trkpt><trkpt lat="39.714796831731135" lon="8.490771195245038"><ele>1.3333333333333333</ele><time>2026-04-04T10:40:35Z</time></trkpt><trkpt lat="39.71474678156093" lon="8.491042923351035"><ele>1.0</ele><time>2026-04-04T10:40:36Z</time></trkpt><trkpt lat="39.714688948415265" lon="8.491311685718127"><ele>0.6666666666666666</ele><time>2026-04-04T10:40:37Z</time></trkpt><trkpt lat="39.71460448963298" lon="8.491567970547546"><ele>0.3333333333333333</ele><time>2026-04-04T10:40:38Z</time></trkpt><trkpt lat="39.71449410718845" lon="8.491814154627848"><ele>0.0</ele><time>2026-04-04T10:40:39Z</time></trkpt><trkpt lat="39.71437177132856" lon="8.49205041531948"><ele>2.3333333333333335</ele><time>2026-04-04T10:40:40Z</time></trkpt><trkpt lat="39.714250945854126" lon="8.49227289802841"><ele>4.666666666666667</ele><time>2026-04-04T10:40:41Z</time></trkpt><trkpt lat="39.71413750625288" lon="8.492482969820761"><ele>7.0</ele><time>2026-04-04T10:40:42Z</time></trkpt><trkpt lat="39.71403277692278" lon="8.492687514739718"><ele>7.0</ele><time>2026-04-04T10:40:43Z</time></trkpt><trkpt lat="39.713938934850056" lon="8.492884306981422"><ele>7.0</ele><time>2026-04-04T10:40:44Z</time></trkpt><trkpt lat="39.71384868635268" lon="8.493075312992355"><ele>7.0</ele><time>2026-04-04T10:40:45Z</time></trkpt><trkpt lat="39.71376398166612" lon="8.49326669156423"><ele>6.333333333333334</ele><time>2026-04-04T10:40:46Z</time></trkpt><trkpt lat="39.713687840232296" lon="8.493455231577004"><ele>5.666666666666667</ele><time>2026-04-04T10:40:47Z</time></trkpt><trkpt lat="39.71362318988851" lon="8.493634565787566"><ele>5.0</ele><time>2026-04-04T10:40:48Z</time></trkpt><trkpt lat="39.71355693303657" lon="8.493816434314352"><ele>5.0</ele><time>2026-04-04T10:40:49Z</time></trkpt><trkpt lat="39.71348675703547" lon="8.4939943784039"><ele>5.0</ele><time>2026-04-04T10:40:50Z</time></trkpt><trkpt lat="39.71341455816993" lon="8.494168268922394"><ele>5.0</ele><time>2026-04-04T10:40:51Z</time></trkpt><trkpt lat="39.71334478894624" lon="8.494346167965253"><ele>5.0</ele><time>2026-04-04T10:40:52Z</time></trkpt><trkpt lat="39.71328053225236" lon="8.49452333724044"><ele>5.0</ele><time>2026-04-04T10:40:53Z</time></trkpt><trkpt lat="39.71321300831191" lon="8.494702787658342"><ele>5.0</ele><time>2026-04-04T10:40:54Z</time></trkpt><trkpt lat="39.713142653609275" lon="8.494882343766944"><ele>4.25</ele><time>2026-04-04T10:40:55Z</time></trkpt><trkpt lat="39.713076035794195" lon="8.495052919958402"><ele>3.5</ele><time>2026-04-04T10:40:56Z</time></trkpt><trkpt lat="39.71301930679487" lon="8.495202724078707"><ele>2.75</ele><time>2026-04-04T10:40:57Z</time></trkpt><trkpt lat="39.71296913975635" lon="8.495335397894081"><ele>2.0</ele><time>2026-04-04T10:40:58Z</time></trkpt><trkpt lat="39.71292223624188" lon="8.49545443702842"><ele>2.0</ele><time>2026-04-04T10:40:59Z</time></trkpt><trkpt lat="39.71288424399438" lon="8.495553507293582"><ele>2.0</ele><time>2026-04-04T10:41:00Z</time></trkpt><trkpt lat="39.71285227465161" lon="8.495627764004679"><ele>2.0</ele><time>2026-04-04T10:41:01Z</time></trkpt><trkpt lat="39.71279372286447" lon="8.49575825288872"><ele>2.0</ele><time>2026-04-04T10:41:03Z</time></trkpt><trkpt lat="39.712740404936596" lon="8.495882708940266"><ele>2.0</ele><time>2026-04-04T10:41:05Z</time></trkpt><trkpt lat="39.71267897535656" lon="8.495976166115785"><ele>2.2</ele><time>2026-04-04T10:41:07Z</time></trkpt><trkpt lat="39.71263125722068" lon="8.496051677060155"><ele>2.4000000000000004</ele><time>2026-04-04T10:41:09Z</time></trkpt><trkpt lat="39.712710613873355" lon="8.496167457895378"><ele>2.5999999999999996</ele><time>2026-04-04T10:41:10Z</time></trkpt><trkpt lat="39.71282028334828" lon="8.496254711316654"><ele>2.8</ele><time>2026-04-04T10:41:12Z</time></trkpt><trkpt lat="39.71289200995736" lon="8.496269627561109"><ele>3.0</ele><time>2026-04-04T10:41:13Z</time></trkpt><trkpt lat="39.7129705517475" lon="8.496270293980439"><ele>3.0</ele><time>2026-04-04T10:41:14Z</time></trkpt><trkpt lat="39.71305032266268" lon="8.496261469298"><ele>3.0</ele><time>2026-04-04T10:41:15Z</time></trkpt><trkpt lat="39.713132102309324" lon="8.496249346622221"><ele>3.0</ele><time>2026-04-04T10:41:16Z</time></trkpt><trkpt lat="39.713217512932225" lon="8.496243867258588"><ele>3.0</ele><time>2026-04-04T10:41:17Z</time></trkpt><trkpt lat="39.71330655503439" lon="8.496254907346762"><ele>3.0</ele><time>2026-04-04T10:41:18Z</time></trkpt><trkpt lat="39.71339188387673" lon="8.496285676291459"><ele>3.0</ele><time>2026-04-04T10:41:19Z</time></trkpt><trkpt lat="39.713472973696256" lon="8.496324974365663"><ele>3.0</ele><time>2026-04-04T10:41:20Z</time></trkpt><trkpt lat="39.71355324594217" lon="8.49637063287387"><ele>3.0</ele><time>2026-04-04T10:41:21Z</time></trkpt><trkpt lat="39.71363016624377" lon="8.496419793006865"><ele>3.0</ele><time>2026-04-04T10:41:22Z</time></trkpt><trkpt lat="39.71370271608137" lon="8.496474456074333"><ele>3.0</ele><time>2026-04-04T10:41:23Z</time></trkpt><trkpt lat="39.713770479232124" lon="8.496536937075312"><ele>3.0</ele><time>2026-04-04T10:41:24Z</time></trkpt><trkpt lat="39.7138283867081" lon="8.496612897862693"><ele>3.0</ele><time>2026-04-04T10:41:25Z</time></trkpt><trkpt lat="39.71386950324023" lon="8.496711829338558"><ele>2.6666666666666665</ele><time>2026-04-04T10:41:26Z</time></trkpt><trkpt lat="39.713887735884555" lon="8.496820406519992"><ele>2.3333333333333335</ele><time>2026-04-04T10:41:27Z</time></trkpt><trkpt lat="39.71389378617624" lon="8.496920449197763"><ele>2.0</ele><time>2026-04-04T10:41:28Z</time></trkpt><trkpt lat="39.71389205252255" lon="8.497011372004703"><ele>1.6666666666666665</ele><time>2026-04-04T10:41:29Z</time></trkpt><trkpt lat="39.7138882594172" lon="8.497100177172062"><ele>1.3333333333333333</ele><time>2026-04-04T10:41:30Z</time></trkpt><trkpt lat="39.713880765856366" lon="8.497192679205346"><ele>1.0</ele><time>2026-04-04T10:41:31Z</time></trkpt><trkpt lat="39.71387271120279" lon="8.497292788233764"><ele>1.0</ele><time>2026-04-04T10:41:32Z</time></trkpt><trkpt lat="39.713858603577165" lon="8.497404871351742"><ele>1.0</ele><time>2026-04-04T10:41:33Z</time></trkpt><trkpt lat="39.71384304943213" lon="8.497517753651023"><ele>1.0</ele><time>2026-04-04T10:41:34Z</time></trkpt><trkpt lat="39.71383162854274" lon="8.497644119383478"><ele>1.0</ele><time>2026-04-04T10:41:35Z</time></trkpt><trkpt lat="39.7138249109712" lon="8.497777008101536"><ele>1.0</ele><time>2026-04-04T10:41:36Z</time></trkpt><trkpt lat="39.71382254307384" lon="8.497917031913602"><ele>1.0</ele><time>2026-04-04T10:41:37Z</time></trkpt><trkpt lat="39.71382467982691" lon="8.498062143816298"><ele>1.0</ele><time>2026-04-04T10:41:38Z</time></trkpt><trkpt lat="39.7138343307861" lon="8.498206464164799"><ele>1.0</ele><time>2026-04-04T10:41:39Z</time></trkpt><trkpt lat="39.713839711977" lon="8.498342434895505"><ele>1.0</ele><time>2026-04-04T10:41:40Z</time></trkpt><trkpt lat="39.71383816507129" lon="8.498474796818366"><ele>1.0</ele><time>2026-04-04T10:41:41Z</time></trkpt><trkpt lat="39.71382598159847" lon="8.498599166157462"><ele>1.0</ele><time>2026-04-04T10:41:42Z</time></trkpt><trkpt lat="39.713787537305194" lon="8.498712842323384"><ele>1.0</ele><time>2026-04-04T10:41:43Z</time></trkpt><trkpt lat="39.71376394030636" lon="8.498832974324413"><ele>1.0</ele><time>2026-04-04T10:41:44Z</time></trkpt><trkpt lat="39.71371674729352" lon="8.498949983987464"><ele>1.0</ele><time>2026-04-04T10:41:45Z</time></trkpt><trkpt lat="39.71367082882771" lon="8.499069298263155"><ele>1.0</ele><time>2026-04-04T10:41:46Z</time></trkpt><trkpt lat="39.71362363132897" lon="8.49918904347494"><ele>1.0</ele><time>2026-04-04T10:41:47Z</time></trkpt><trkpt lat="39.71357343802371" lon="8.499309055552335"><ele>1.0</ele><time>2026-04-04T10:41:48Z</time></trkpt><trkpt lat="39.713518995589226" lon="8.499425211404485"><ele>1.0</ele><time>2026-04-04T10:41:49Z</time></trkpt><trkpt lat="39.7134575438188" lon="8.499538200897073"><ele>1.0</ele><time>2026-04-04T10:41:50Z</time></trkpt><trkpt lat="39.71339158582723" lon="8.4996484991892"><ele>1.0</ele><time>2026-04-04T10:41:51Z</time></trkpt><trkpt lat="39.71332185428088" lon="8.499757906592663"><ele>1.6</ele><time>2026-04-04T10:41:52Z</time></trkpt><trkpt lat="39.71325465322379" lon="8.499868729099136"><ele>2.2</ele><time>2026-04-04T10:41:53Z</time></trkpt><trkpt lat="39.713186802241744" lon="8.499981900394655"><ele>2.8000000000000003</ele><time>2026-04-04T10:41:54Z</time></trkpt><trkpt lat="39.713116135659824" lon="8.500094782928032"><ele>3.4000000000000004</ele><time>2026-04-04T10:41:55Z</time></trkpt><trkpt lat="39.71304702160849" lon="8.500210014261814"><ele>4.0</ele><time>2026-04-04T10:41:56Z</time></trkpt><trkpt lat="39.71297768544844" lon="8.500328314585971"><ele>3.5</ele><time>2026-04-04T10:41:57Z</time></trkpt><trkpt lat="39.712904752031626" lon="8.500443158494074"><ele>3.0</ele><time>2026-04-04T10:41:58Z</time></trkpt><trkpt lat="39.712837042886534" lon="8.500564789562658"><ele>2.5</ele><time>2026-04-04T10:41:59Z</time></trkpt><trkpt lat="39.712775382328424" lon="8.500695449131369"><ele>2.0</ele><time>2026-04-04T10:42:00Z</time></trkpt><trkpt lat="39.71271464232409" lon="8.500828068774206"><ele>2.0</ele><time>2026-04-04T10:42:01Z</time></trkpt><trkpt lat="39.71265404851554" lon="8.500960736974521"><ele>2.0</ele><time>2026-04-04T10:42:02Z</time></trkpt><trkpt lat="39.71258884140917" lon="8.501090937052531"><ele>2.0</ele><time>2026-04-04T10:42:03Z</time></trkpt><trkpt lat="39.71253174504344" lon="8.501221999903121"><ele>2.0</ele><time>2026-04-04T10:42:04Z</time></trkpt><trkpt lat="39.712499579951675" lon="8.501357190092603"><ele>2.1666666666666665</ele><time>2026-04-04T10:42:05Z</time></trkpt><trkpt lat="39.71248338178922" lon="8.501484691274529"><ele>2.333333333333333</ele><time>2026-04-04T10:42:06Z</time></trkpt><trkpt lat="39.71247455295656" lon="8.501593137898267"><ele>2.5</ele><time>2026-04-04T10:42:07Z</time></trkpt><trkpt lat="39.71246600417388" lon="8.50168885540592"><ele>2.6666666666666665</ele><time>2026-04-04T10:42:08Z</time></trkpt><trkpt lat="39.71246069211848" lon="8.501817836357688"><ele>2.8333333333333335</ele><time>2026-04-04T10:42:10Z</time></trkpt><trkpt lat="39.71246437846473" lon="8.50190527999122"><ele>3.0</ele><time>2026-04-04T10:42:14Z</time></trkpt><trkpt lat="39.71252125270677" lon="8.501981843730666"><ele>3.0</ele><time>2026-04-04T10:42:19Z</time></trkpt><trkpt lat="39.71258174159832" lon="8.502022927997134"><ele>3.0</ele><time>2026-04-04T10:42:21Z</time></trkpt><trkpt lat="39.71264100999036" lon="8.502077071497228"><ele>3.0</ele><time>2026-04-04T10:42:23Z</time></trkpt><trkpt lat="39.712698789479425" lon="8.502126854872902"><ele>3.0</ele><time>2026-04-04T10:42:26Z</time></trkpt><trkpt lat="39.71277638983189" lon="8.502176685077512"><ele>3.0</ele><time>2026-04-04T10:45:52Z</time></trkpt><trkpt lat="39.712893843121606" lon="8.502245108779304"><ele>3.0</ele><time>2026-04-04T10:45:54Z</time></trkpt><trkpt lat="39.712973768939285" lon="8.502293376564388"><ele>2.6</ele><time>2026-04-04T10:45:55Z</time></trkpt><trkpt lat="39.713052681343896" lon="8.502346447614332"><ele>2.1999999999999997</ele><time>2026-04-04T10:45:56Z</time></trkpt><trkpt lat="39.713145521108714" lon="8.502409117505024"><ele>1.8</ele><time>2026-04-04T10:45:57Z</time></trkpt><trkpt lat="39.71324406927793" lon="8.502474592613263"><ele>1.4</ele><time>2026-04-04T10:45:58Z</time></trkpt><trkpt lat="39.713349923774615" lon="8.502544428192197"><ele>1.0</ele><time>2026-04-04T10:45:59Z</time></trkpt><trkpt lat="39.71345153423378" lon="8.50261177608595"><ele>1.0</ele><time>2026-04-04T10:46:00Z</time></trkpt><trkpt lat="39.71355483768355" lon="8.50267505112037"><ele>1.0</ele><time>2026-04-04T10:46:01Z</time></trkpt><trkpt lat="39.713644995138424" lon="8.502732081277927"><ele>1.0</ele><time>2026-04-04T10:46:02Z</time></trkpt><trkpt lat="39.713723671335664" lon="8.502782857118527"><ele>1.0</ele><time>2026-04-04T10:46:03Z</time></trkpt><trkpt lat="39.71379742318282" lon="8.502828830499228"><ele>1.0</ele><time>2026-04-04T10:46:04Z</time></trkpt><trkpt lat="39.71386643452961" lon="8.502871502410292"><ele>0.9999999999999999</ele><time>2026-04-04T10:46:05Z</time></trkpt><trkpt lat="39.71393814524076" lon="8.502918438454495"><ele>1.0</ele><time>2026-04-04T10:46:06Z</time></trkpt><trkpt lat="39.714008367807516" lon="8.502966894854534"><ele>1.0</ele><time>2026-04-04T10:46:07Z</time></trkpt><trkpt lat="39.714075688110164" lon="8.503011529904288"><ele>1.0</ele><time>2026-04-04T10:46:08Z</time></trkpt><trkpt lat="39.714146258545284" lon="8.503054722718344"><ele>0.9999999999999999</ele><time>2026-04-04T10:46:09Z</time></trkpt><trkpt lat="39.71421470277312" lon="8.50309612861372"><ele>1.0</ele><time>2026-04-04T10:46:10Z</time></trkpt><trkpt lat="39.71428437825266" lon="8.50313967875523"><ele>1.0</ele><time>2026-04-04T10:46:11Z</time></trkpt><trkpt lat="39.714356276521464" lon="8.503187303264715"><ele>1.0</ele><time>2026-04-04T10:46:12Z</time></trkpt><trkpt lat="39.71443420512766" lon="8.503246073076665"><ele>1.0</ele><time>2026-04-04T10:46:13Z</time></trkpt><trkpt lat="39.714524257528545" lon="8.503305935931868"><ele>1.0</ele><time>2026-04-04T10:46:14Z</time></trkpt><trkpt lat="39.714616411155205" lon="8.50336796097326"><ele>1.0</ele><time>2026-04-04T10:46:15Z</time></trkpt><trkpt lat="39.714709232646136" lon="8.503429846409784"><ele>0.8</ele><time>2026-04-04T10:46:16Z</time></trkpt><trkpt lat="39.714801525740526" lon="8.503489971161722"><ele>0.6000000000000001</ele><time>2026-04-04T10:46:17Z</time></trkpt><trkpt lat="39.7148962322689" lon="8.503552323300902"><ele>0.4</ele><time>2026-04-04T10:46:18Z</time></trkpt><trkpt lat="39.714991007272474" lon="8.503612963143219"><ele>0.2</ele><time>2026-04-04T10:46:19Z</time></trkpt><trkpt lat="39.715083858116984" lon="8.503672516444604"><ele>0.0</ele><time>2026-04-04T10:46:20Z</time></trkpt><trkpt lat="39.715173951617665" lon="8.503731151635048"><ele>0.0</ele><time>2026-04-04T10:46:21Z</time></trkpt><trkpt lat="39.715259005179554" lon="8.503786503417706"><ele>0.0</ele><time>2026-04-04T10:46:22Z</time></trkpt><trkpt lat="39.71534559312428" lon="8.503843233022138"><ele>0.0</ele><time>2026-04-04T10:46:23Z</time></trkpt><trkpt lat="39.715437099487104" lon="8.503905084868284"><ele>0.0</ele><time>2026-04-04T10:46:24Z</time></trkpt><trkpt lat="39.71553159896253" lon="8.503969239715131"><ele>0.0</ele><time>2026-04-04T10:46:25Z</time></trkpt><trkpt lat="39.715628498199514" lon="8.504032494115208"><ele>0.0</ele><time>2026-04-04T10:46:26Z</time></trkpt><trkpt lat="39.71572656628335" lon="8.504095240797442"><ele>0.0</ele><time>2026-04-04T10:46:27Z</time></trkpt><trkpt lat="39.715823463575596" lon="8.504161970433332"><ele>0.0</ele><time>2026-04-04T10:46:28Z</time></trkpt><trkpt lat="39.71591766069101" lon="8.504227235536582"><ele>0.0</ele><time>2026-04-04T10:46:29Z</time></trkpt><trkpt lat="39.71601525010867" lon="8.504288150342576"><ele>0.0</ele><time>2026-04-04T10:46:30Z</time></trkpt><trkpt lat="39.71611862154926" lon="8.504355636512981"><ele>0.0</ele><time>2026-04-04T10:46:31Z</time></trkpt><trkpt lat="39.716225499518636" lon="8.504427308380727"><ele>0.0</ele><time>2026-04-04T10:46:32Z</time></trkpt><trkpt lat="39.71633684112052" lon="8.504498262367463"><ele>0.0</ele><time>2026-04-04T10:46:33Z</time></trkpt><trkpt lat="39.71644541856663" lon="8.504567920279891"><ele>0.0</ele><time>2026-04-04T10:46:34Z</time></trkpt><trkpt lat="39.71655390655408" lon="8.504638472822805"><ele>0.0</ele><time>2026-04-04T10:46:35Z</time></trkpt><trkpt lat="39.7166623456938" lon="8.504710126347424"><ele>0.0</ele><time>2026-04-04T10:46:36Z</time></trkpt><trkpt lat="39.71677128690755" lon="8.504783340288165"><ele>0.0</ele><time>2026-04-04T10:46:37Z</time></trkpt><trkpt lat="39.71687866300552" lon="8.504854273795644"><ele>0.0</ele><time>2026-04-04T10:46:38Z</time></trkpt><trkpt lat="39.71698171923082" lon="8.504922033848516"><ele>0.0</ele><time>2026-04-04T10:46:39Z</time></trkpt><trkpt lat="39.71707829410956" lon="8.504982649925473"><ele>0.0</ele><time>2026-04-04T10:46:40Z</time></trkpt><trkpt lat="39.717170349073726" lon="8.50504203478445"><ele>0.0</ele><time>2026-04-04T10:46:41Z</time></trkpt><trkpt lat="39.717265673027036" lon="8.505105498345257"><ele>0.0</ele><time>2026-04-04T10:46:42Z</time></trkpt><trkpt lat="39.71736515572792" lon="8.5051734565204"><ele>0.0</ele><time>2026-04-04T10:46:43Z</time></trkpt><trkpt lat="39.717464695552444" lon="8.505238575847006"><ele>0.0</ele><time>2026-04-04T10:46:44Z</time></trkpt><trkpt lat="39.71756399845526" lon="8.505301524741075"><ele>0.0</ele><time>2026-04-04T10:46:45Z</time></trkpt><trkpt lat="39.71765951573732" lon="8.505362797441165"><ele>0.0</ele><time>2026-04-04T10:46:46Z</time></trkpt><trkpt lat="39.71774809460946" lon="8.505421295036285"><ele>0.0</ele><time>2026-04-04T10:46:47Z</time></trkpt><trkpt lat="39.71783201000177" lon="8.50547714198347"><ele>0.0</ele><time>2026-04-04T10:46:48Z</time></trkpt><trkpt lat="39.71791145178047" lon="8.505530440622989"><ele>0.0</ele><time>2026-04-04T10:46:49Z</time></trkpt><trkpt lat="39.717995973726765" lon="8.50558652261954"><ele>0.0</ele><time>2026-04-04T10:46:50Z</time></trkpt><trkpt lat="39.71808329535196" lon="8.505644501340292"><ele>0.0</ele><time>2026-04-04T10:46:51Z</time></trkpt><trkpt lat="39.71817950700377" lon="8.50570474114273"><ele>0.0</ele><time>2026-04-04T10:46:52Z</time></trkpt><trkpt lat="39.71828085562982" lon="8.50576643611759"><ele>0.0</ele><time>2026-04-04T10:46:53Z</time></trkpt><trkpt lat="39.71836046479087" lon="8.505824864747781"><ele>0.0</ele><time>2026-04-04T10:46:54Z</time></trkpt><trkpt lat="39.718463640385416" lon="8.505892859127037"><ele>0.0</ele><time>2026-04-04T10:46:55Z</time></trkpt><trkpt lat="39.718566769912705" lon="8.505964573322721"><ele>0.0</ele><time>2026-04-04T10:46:56Z</time></trkpt><trkpt lat="39.71866985890502" lon="8.506035155284488"><ele>0.0</ele><time>2026-04-04T10:46:57Z</time></trkpt><trkpt lat="39.7187714537429" lon="8.506101605142886"><ele>0.0</ele><time>2026-04-04T10:46:58Z</time></trkpt><trkpt lat="39.718867254596425" lon="8.506160473099595"><ele>0.0</ele><time>2026-04-04T10:46:59Z</time></trkpt><trkpt lat="39.718953953100666" lon="8.506220726938107"><ele>0.0</ele><time>2026-04-04T10:47:00Z</time></trkpt><trkpt lat="39.719033971031536" lon="8.506278325538801"><ele>0.0</ele><time>2026-04-04T10:47:01Z</time></trkpt><trkpt lat="39.71911036174975" lon="8.506330595192289"><ele>0.0</ele><time>2026-04-04T10:47:02Z</time></trkpt><trkpt lat="39.719191288950654" lon="8.506380463081204"><ele>0.0</ele><time>2026-04-04T10:47:03Z</time></trkpt><trkpt lat="39.71927801504815" lon="8.506438333954783"><ele>0.0</ele><time>2026-04-04T10:47:04Z</time></trkpt><trkpt lat="39.71936754529733" lon="8.506497799184272"><ele>0.0</ele><time>2026-04-04T10:47:05Z</time></trkpt><trkpt lat="39.71945855566413" lon="8.506555246360207"><ele>0.0</ele><time>2026-04-04T10:47:06Z</time></trkpt><trkpt lat="39.719544441686594" lon="8.506607020139578"><ele>0.0</ele><time>2026-04-04T10:47:07Z</time></trkpt><trkpt lat="39.71961128635315" lon="8.506648666665814"><ele>0.2</ele><time>2026-04-04T10:47:08Z</time></trkpt><trkpt lat="39.71970955587662" lon="8.506714966986886"><ele>0.4</ele><time>2026-04-04T10:47:10Z</time></trkpt><trkpt lat="39.71978583175755" lon="8.506764793425253"><ele>0.6000000000000001</ele><time>2026-04-04T10:47:12Z</time></trkpt><trkpt lat="39.71986134070175" lon="8.506814259296261"><ele>0.8</ele><time>2026-04-04T10:47:14Z</time></trkpt><trkpt lat="39.71985984977296" lon="8.50692501302926"><ele>1.0</ele><time>2026-04-04T10:47:16Z</time></trkpt><trkpt lat="39.71990636362631" lon="8.507018537496023"><ele>1.3333333333333333</ele><time>2026-04-04T10:47:18Z</time></trkpt><trkpt lat="39.71993779694444" lon="8.507115456602552"><ele>1.6666666666666665</ele><time>2026-04-04T10:47:20Z</time></trkpt><trkpt lat="39.720003832504055" lon="8.507209908602402"><ele>2.0</ele><time>2026-04-04T10:47:22Z</time></trkpt><trkpt lat="39.72009210630617" lon="8.507307115455317"><ele>2.3333333333333335</ele><time>2026-04-04T10:47:24Z</time></trkpt><trkpt lat="39.720134360231945" lon="8.507371337225907"><ele>2.6666666666666665</ele><time>2026-04-04T10:47:25Z</time></trkpt><trkpt lat="39.72018168086323" lon="8.507437831143797"><ele>3.0</ele><time>2026-04-04T10:47:26Z</time></trkpt><trkpt lat="39.720226203495415" lon="8.507513569357462"><ele>3.0</ele><time>2026-04-04T10:47:27Z</time></trkpt><trkpt lat="39.72026793980674" lon="8.507596134953445"><ele>3.0</ele><time>2026-04-04T10:47:28Z</time></trkpt><trkpt lat="39.72031059593512" lon="8.507676698619694"><ele>3.0</ele><time>2026-04-04T10:47:29Z</time></trkpt><trkpt lat="39.720354180890574" lon="8.507757225276045"><ele>3.0</ele><time>2026-04-04T10:47:30Z</time></trkpt><trkpt lat="39.72040034139614" lon="8.50783891414428"><ele>3.0</ele><time>2026-04-04T10:47:31Z</time></trkpt><trkpt lat="39.72044197851025" lon="8.507922313767192"><ele>3.0</ele><time>2026-04-04T10:47:32Z</time></trkpt><trkpt lat="39.720480561183784" lon="8.508000889803558"><ele>3.0</ele><time>2026-04-04T10:47:33Z</time></trkpt><trkpt lat="39.720513340001304" lon="8.508072074558536"><ele>3.0</ele><time>2026-04-04T10:47:34Z</time></trkpt><trkpt lat="39.72054628987577" lon="8.508147979443967"><ele>3.0</ele><time>2026-04-04T10:47:35Z</time></trkpt><trkpt lat="39.72057610260175" lon="8.508220801378846"><ele>3.0</ele><time>2026-04-04T10:47:36Z</time></trkpt><trkpt lat="39.72063486009049" lon="8.508360485689163"><ele>3.0</ele><time>2026-04-04T10:47:38Z</time></trkpt><trkpt lat="39.720682724383806" lon="8.508502074978919"><ele>3.0</ele><time>2026-04-04T10:47:40Z</time></trkpt><trkpt lat="39.720708161118885" lon="8.508577895477659"><ele>2.9999999999999996</ele><time>2026-04-04T10:47:41Z</time></trkpt><trkpt lat="39.72073632142876" lon="8.50865676542964"><ele>3.0</ele><time>2026-04-04T10:47:42Z</time></trkpt><trkpt lat="39.72076372483364" lon="8.50873526841715"><ele>3.0</ele><time>2026-04-04T10:47:43Z</time></trkpt><trkpt lat="39.72079048927259" lon="8.508814834788492"><ele>3.0</ele><time>2026-04-04T10:47:44Z</time></trkpt><trkpt lat="39.72081741207701" lon="8.50889473991099"><ele>3.0</ele><time>2026-04-04T10:47:45Z</time></trkpt><trkpt lat="39.72083952091994" lon="8.50898174086456"><ele>2.9999999999999996</ele><time>2026-04-04T10:47:46Z</time></trkpt><trkpt lat="39.72086149848684" lon="8.509069001787205"><ele>3.0</ele><time>2026-04-04T10:47:47Z</time></trkpt><trkpt lat="39.720878508041714" lon="8.509155350941562"><ele>3.0</ele><time>2026-04-04T10:47:48Z</time></trkpt><trkpt lat="39.720898062433186" lon="8.50924712524168"><ele>3.0</ele><time>2026-04-04T10:47:49Z</time></trkpt><trkpt lat="39.720917757626694" lon="8.509335895487295"><ele>3.0</ele><time>2026-04-04T10:47:50Z</time></trkpt><trkpt lat="39.720930851720524" lon="8.50941863948276"><ele>3.0</ele><time>2026-04-04T10:47:51Z</time></trkpt><trkpt lat="39.72095541789174" lon="8.509573788454048"><ele>3.0</ele><time>2026-04-04T10:47:53Z</time></trkpt><trkpt lat="39.72097916996431" lon="8.50971554122428"><ele>3.0</ele><time>2026-04-04T10:47:55Z</time></trkpt><trkpt lat="39.72101134947434" lon="8.509868520062728"><ele>3.2</ele><time>2026-04-04T10:47:57Z</time></trkpt><trkpt lat="39.72105807898713" lon="8.510011720996154"><ele>3.4</ele><time>2026-04-04T10:47:59Z</time></trkpt><trkpt lat="39.721081298770024" lon="8.510167354951964"><ele>3.6000000000000005</ele><time>2026-04-04T10:48:01Z</time></trkpt><trkpt lat="39.72108899614026" lon="8.510260114828545"><ele>3.8000000000000003</ele><time>2026-04-04T10:48:02Z</time></trkpt><trkpt lat="39.721094495903955" lon="8.510353343295582"><ele>4.0</ele><time>2026-04-04T10:48:03Z</time></trkpt><trkpt lat="39.72110494171572" lon="8.510443344862924"><ele>4.166666666666666</ele><time>2026-04-04T10:48:04Z</time></trkpt><trkpt lat="39.72111455311075" lon="8.510530311585995"><ele>4.333333333333333</ele><time>2026-04-04T10:48:05Z</time></trkpt><trkpt lat="39.72112759153028" lon="8.510616221220978"><ele>4.5</ele><time>2026-04-04T10:48:06Z</time></trkpt><trkpt lat="39.721142633517346" lon="8.510751687439656"><ele>4.666666666666667</ele><time>2026-04-04T10:48:08Z</time></trkpt><trkpt lat="39.72116270929586" lon="8.510839430745609"><ele>4.833333333333334</ele><time>2026-04-04T10:48:10Z</time></trkpt><trkpt lat="39.72118577248336" lon="8.510938912282782"><ele>5.0</ele><time>2026-04-04T10:57:15Z</time></trkpt><trkpt lat="39.72120913337368" lon="8.511067414620209"><ele>5.0</ele><time>2026-04-04T10:57:17Z</time></trkpt><trkpt lat="39.721227264044686" lon="8.511146367357295"><ele>5.0</ele><time>2026-04-04T10:57:18Z</time></trkpt><trkpt lat="39.72124012715192" lon="8.511231466412912"><ele>5.0</ele><time>2026-04-04T10:57:19Z</time></trkpt><trkpt lat="39.721252683767275" lon="8.51132949196811"><ele>5.0</ele><time>2026-04-04T10:57:20Z</time></trkpt><trkpt lat="39.72127023346649" lon="8.511432364464147"><ele>5.0</ele><time>2026-04-04T10:57:21Z</time></trkpt><trkpt lat="39.72128846109899" lon="8.511532178525602"><ele>5.0</ele><time>2026-04-04T10:57:22Z</time></trkpt><trkpt lat="39.72130459691942" lon="8.511641201192516"><ele>5.0</ele><time>2026-04-04T10:57:23Z</time></trkpt><trkpt lat="39.721321438067314" lon="8.511753285602333"><ele>5.0</ele><time>2026-04-04T10:57:24Z</time></trkpt><trkpt lat="39.72133976263818" lon="8.511859921055226"><ele>5.0</ele><time>2026-04-04T10:57:25Z</time></trkpt><trkpt lat="39.721358774441256" lon="8.511958372257013"><ele>5.0</ele><time>2026-04-04T10:57:26Z</time></trkpt><trkpt lat="39.721374040130975" lon="8.5120606934642"><ele>5.0</ele><time>2026-04-04T10:57:27Z</time></trkpt><trkpt lat="39.72138741730027" lon="8.512167175022704"><ele>5.0</ele><time>2026-04-04T10:57:28Z</time></trkpt><trkpt lat="39.72140253976209" lon="8.5122777856907"><ele>5.0</ele><time>2026-04-04T10:57:29Z</time></trkpt><trkpt lat="39.721421574759944" lon="8.512389110881283"><ele>5.0</ele><time>2026-04-04T10:57:30Z</time></trkpt><trkpt lat="39.721440389131686" lon="8.51250284862815"><ele>5.0</ele><time>2026-04-04T10:57:31Z</time></trkpt><trkpt lat="39.721459235040044" lon="8.512632762139956"><ele>5.0</ele><time>2026-04-04T10:57:32Z</time></trkpt><trkpt lat="39.72147885366393" lon="8.512754443002358"><ele>5.0</ele><time>2026-04-04T10:57:33Z</time></trkpt><trkpt lat="39.72150149504645" lon="8.512886935572833"><ele>5.8</ele><time>2026-04-04T10:57:34Z</time></trkpt><trkpt lat="39.72152128318969" lon="8.513013359459853"><ele>6.6</ele><time>2026-04-04T10:57:35Z</time></trkpt><trkpt lat="39.7215440960633" lon="8.513145607873547"><ele>7.4</ele><time>2026-04-04T10:57:36Z</time></trkpt><trkpt lat="39.72156674511179" lon="8.513282734177839"><ele>8.2</ele><time>2026-04-04T10:57:37Z</time></trkpt><trkpt lat="39.72158784619704" lon="8.513424494458542"><ele>9.0</ele><time>2026-04-04T10:57:38Z</time></trkpt><trkpt lat="39.721606522851204" lon="8.513572531699275"><ele>9.0</ele><time>2026-04-04T10:57:39Z</time></trkpt><trkpt lat="39.721618360058315" lon="8.513727458075758"><ele>9.0</ele><time>2026-04-04T10:57:40Z</time></trkpt><trkpt lat="39.72162227145125" lon="8.513891299069451"><ele>9.0</ele><time>2026-04-04T10:57:41Z</time></trkpt><trkpt lat="39.72162077973173" lon="8.514063445325194"><ele>9.0</ele><time>2026-04-04T10:57:42Z</time></trkpt><trkpt lat="39.72161815934555" lon="8.514231391203596"><ele>9.0</ele><time>2026-04-04T10:57:43Z</time></trkpt><trkpt lat="39.72161916399619" lon="8.514407460171183"><ele>9.0</ele><time>2026-04-04T10:57:44Z</time></trkpt><trkpt lat="39.72162046841832" lon="8.514591525223738"><ele>9.0</ele><time>2026-04-04T10:57:45Z</time></trkpt><trkpt lat="39.721618275888645" lon="8.51478118374686"><ele>9.0</ele><time>2026-04-04T10:57:46Z</time></trkpt><trkpt lat="39.72161960189675" lon="8.514974432820066"><ele>8.0</ele><time>2026-04-04T10:57:47Z</time></trkpt><trkpt lat="39.72162020993594" lon="8.515169506015583"><ele>7.0</ele><time>2026-04-04T10:57:48Z</time></trkpt><trkpt lat="39.72162156326681" lon="8.515367332270156"><ele>6.0</ele><time>2026-04-04T10:57:49Z</time></trkpt><trkpt lat="39.72162210588909" lon="8.515564212121172"><ele>5.0</ele><time>2026-04-04T10:57:50Z</time></trkpt><trkpt lat="39.721622328666925" lon="8.515762094584337"><ele>4.0</ele><time>2026-04-04T10:57:51Z</time></trkpt><trkpt lat="39.721622417726685" lon="8.515960806435674"><ele>3.0</ele><time>2026-04-04T10:57:52Z</time></trkpt><trkpt lat="39.721622828984096" lon="8.516162419937121"><ele>2.3333333333333335</ele><time>2026-04-04T10:57:53Z</time></trkpt><trkpt lat="39.72162289346823" lon="8.516364073491705"><ele>1.6666666666666665</ele><time>2026-04-04T10:57:54Z</time></trkpt><trkpt lat="39.72162316585106" lon="8.516568790030654"><ele>1.0</ele><time>2026-04-04T10:57:55Z</time></trkpt><trkpt lat="39.721622869686115" lon="8.516771431008857"><ele>1.0</ele><time>2026-04-04T10:57:56Z</time></trkpt><trkpt lat="39.72162266252694" lon="8.516981539358639"><ele>1.0</ele><time>2026-04-04T10:57:57Z</time></trkpt><trkpt lat="39.72162423369275" lon="8.517194371669014"><ele>1.0</ele><time>2026-04-04T10:57:58Z</time></trkpt><trkpt lat="39.72161624021723" lon="8.517412878335097"><ele>1.3333333333333333</ele><time>2026-04-04T10:57:59Z</time></trkpt><trkpt lat="39.7216208389185" lon="8.517633057831773"><ele>1.6666666666666665</ele><time>2026-04-04T10:58:00Z</time></trkpt><trkpt lat="39.72162374254583" lon="8.517860551183704"><ele>2.0</ele><time>2026-04-04T10:58:01Z</time></trkpt><trkpt lat="39.72162481010683" lon="8.518090524959648"><ele>2.0</ele><time>2026-04-04T10:58:02Z</time></trkpt><trkpt lat="39.72162135904341" lon="8.518322081533796"><ele>2.0</ele><time>2026-04-04T10:58:03Z</time></trkpt><trkpt lat="39.721620819759885" lon="8.518557383561614"><ele>2.0</ele><time>2026-04-04T10:58:04Z</time></trkpt><trkpt lat="39.72162128976791" lon="8.518796831225213"><ele>2.0</ele><time>2026-04-04T10:58:05Z</time></trkpt><trkpt lat="39.721622672897624" lon="8.519039767920363"><ele>2.0</ele><time>2026-04-04T10:58:06Z</time></trkpt><trkpt lat="39.72162452786744" lon="8.51928626269416"><ele>2.0</ele><time>2026-04-04T10:58:07Z</time></trkpt><trkpt lat="39.72162654532442" lon="8.51953592564279"><ele>2.333333333333333</ele><time>2026-04-04T10:58:08Z</time></trkpt><trkpt lat="39.72162891726256" lon="8.519784324381455"><ele>2.6666666666666665</ele><time>2026-04-04T10:58:09Z</time></trkpt><trkpt lat="39.721629793297" lon="8.520035963512003"><ele>3.0</ele><time>2026-04-04T10:58:10Z</time></trkpt><trkpt lat="39.72162994775636" lon="8.5202899396161"><ele>3.0</ele><time>2026-04-04T10:58:11Z</time></trkpt><trkpt lat="39.721629128047724" lon="8.520544719379991"><ele>3.0</ele><time>2026-04-04T10:58:12Z</time></trkpt><trkpt lat="39.721628763777005" lon="8.520802163085266"><ele>3.0</ele><time>2026-04-04T10:58:13Z</time></trkpt><trkpt lat="39.72162746485903" lon="8.521060270789372"><ele>3.0</ele><time>2026-04-04T10:58:14Z</time></trkpt><trkpt lat="39.72163041078953" lon="8.521321638611338"><ele>3.0</ele><time>2026-04-04T10:58:15Z</time></trkpt><trkpt lat="39.72163360775376" lon="8.521584177565321"><ele>3.0</ele><time>2026-04-04T10:58:16Z</time></trkpt><trkpt lat="39.72163495260316" lon="8.521845589224428"><ele>3.0</ele><time>2026-04-04T10:58:17Z</time></trkpt><trkpt lat="39.72163541462678" lon="8.522106238126227"><ele>3.0</ele><time>2026-04-04T10:58:18Z</time></trkpt><trkpt lat="39.72163716205234" lon="8.522371341329784"><ele>3.0</ele><time>2026-04-04T10:58:19Z</time></trkpt><trkpt lat="39.72164003327098" lon="8.522635834615064"><ele>3.0</ele><time>2026-04-04T10:58:20Z</time></trkpt><trkpt lat="39.721637358053215" lon="8.522905269574649"><ele>3.0</ele><time>2026-04-04T10:58:21Z</time></trkpt><trkpt lat="39.72163641028309" lon="8.523167312945972"><ele>3.0</ele><time>2026-04-04T10:58:22Z</time></trkpt><trkpt lat="39.72163731123917" lon="8.523431956986828"><ele>3.0</ele><time>2026-04-04T10:58:23Z</time></trkpt><trkpt lat="39.721641482524795" lon="8.523693382388824"><ele>3.0</ele><time>2026-04-04T10:58:24Z</time></trkpt><trkpt lat="39.72165206804681" lon="8.52395178689063"><ele>3.0</ele><time>2026-04-04T10:58:25Z</time></trkpt><trkpt lat="39.72165870362693" lon="8.524213410938039"><ele>3.0</ele><time>2026-04-04T10:58:26Z</time></trkpt><trkpt lat="39.72165763671107" lon="8.524472578400605"><ele>3.0</ele><time>2026-04-04T10:58:27Z</time></trkpt><trkpt lat="39.72165456704099" lon="8.524733966327222"><ele>3.0</ele><time>2026-04-04T10:58:28Z</time></trkpt><trkpt lat="39.721654445880596" lon="8.524996035133787"><ele>3.0</ele><time>2026-04-04T10:58:29Z</time></trkpt><trkpt lat="39.72165630638275" lon="8.525262326204702"><ele>3.0</ele><time>2026-04-04T10:58:30Z</time></trkpt><trkpt lat="39.72165852509033" lon="8.525526294331158"><ele>3.0</ele><time>2026-04-04T10:58:31Z</time></trkpt><trkpt lat="39.721660265149886" lon="8.525792751412698"><ele>3.0</ele><time>2026-04-04T10:58:32Z</time></trkpt><trkpt lat="39.72166190316197" lon="8.526061752235467"><ele>3.0</ele><time>2026-04-04T10:58:33Z</time></trkpt><trkpt lat="39.72166358146705" lon="8.526328559882485"><ele>3.0</ele><time>2026-04-04T10:58:34Z</time></trkpt><trkpt lat="39.721666848960425" lon="8.526599674869116"><ele>3.0</ele><time>2026-04-04T10:58:35Z</time></trkpt><trkpt lat="39.72166803962212" lon="8.52686976800841"><ele>3.0</ele><time>2026-04-04T10:58:36Z</time></trkpt><trkpt lat="39.72166868276352" lon="8.52714049422542"><ele>3.0</ele><time>2026-04-04T10:58:37Z</time></trkpt><trkpt lat="39.72166960345151" lon="8.527412024001258"><ele>3.0</ele><time>2026-04-04T10:58:38Z</time></trkpt><trkpt lat="39.72167063984071" lon="8.527682795795437"><ele>3.0</ele><time>2026-04-04T10:58:39Z</time></trkpt><trkpt lat="39.721671963139364" lon="8.527953885497322"><ele>3.0</ele><time>2026-04-04T10:58:40Z</time></trkpt><trkpt lat="39.721673071166094" lon="8.528225889423187"><ele>3.333333333333333</ele><time>2026-04-04T10:58:41Z</time></trkpt><trkpt lat="39.72167365398489" lon="8.528499106873928"><ele>3.6666666666666665</ele><time>2026-04-04T10:58:42Z</time></trkpt><trkpt lat="39.721674683183004" lon="8.528765967730115"><ele>4.0</ele><time>2026-04-04T10:58:43Z</time></trkpt><trkpt lat="39.721675624893265" lon="8.529032494766714"><ele>4.666666666666666</ele><time>2026-04-04T10:58:44Z</time></trkpt><trkpt lat="39.72167467160319" lon="8.529296056772498"><ele>5.333333333333333</ele><time>2026-04-04T10:58:45Z</time></trkpt><trkpt lat="39.721673822143416" lon="8.529560311143774"><ele>6.0</ele><time>2026-04-04T10:58:46Z</time></trkpt><trkpt lat="39.72167286567447" lon="8.52982334033978"><ele>6.0</ele><time>2026-04-04T10:58:47Z</time></trkpt><trkpt lat="39.72167406538319" lon="8.530086178675534"><ele>6.0</ele><time>2026-04-04T10:58:48Z</time></trkpt><trkpt lat="39.7216759485032" lon="8.530349852391113"><ele>6.0</ele><time>2026-04-04T10:58:49Z</time></trkpt><trkpt lat="39.721677554380925" lon="8.530615679166745"><ele>6.0</ele><time>2026-04-04T10:58:50Z</time></trkpt><trkpt lat="39.721678464704716" lon="8.53087543519361"><ele>6.0</ele><time>2026-04-04T10:58:51Z</time></trkpt><trkpt lat="39.721679387934486" lon="8.531134898499795"><ele>6.0</ele><time>2026-04-04T10:58:52Z</time></trkpt><trkpt lat="39.721678709149735" lon="8.531393591151495"><ele>6.0</ele><time>2026-04-04T10:58:53Z</time></trkpt><trkpt lat="39.721679578042334" lon="8.531651542206754"><ele>6.0</ele><time>2026-04-04T10:58:54Z</time></trkpt><trkpt lat="39.72167909357253" lon="8.531909588542112"><ele>6.0</ele><time>2026-04-04T10:58:55Z</time></trkpt><trkpt lat="39.72168392280955" lon="8.532162050809431"><ele>6.0</ele><time>2026-04-04T10:58:56Z</time></trkpt><trkpt lat="39.72168397076887" lon="8.53239642193887"><ele>6.0</ele><time>2026-04-04T10:58:57Z</time></trkpt><trkpt lat="39.72168658600133" lon="8.53260835457317"><ele>6.0</ele><time>2026-04-04T10:58:58Z</time></trkpt><trkpt lat="39.721683221046995" lon="8.532794140009791"><ele>5.8</ele><time>2026-04-04T10:58:59Z</time></trkpt><trkpt lat="39.72168074272186" lon="8.532955086260346"><ele>5.6</ele><time>2026-04-04T10:59:00Z</time></trkpt><trkpt lat="39.72168297438884" lon="8.533091349816358"><ele>5.4</ele><time>2026-04-04T10:59:01Z</time></trkpt><trkpt lat="39.721694282640165" lon="8.533202917535156"><ele>5.2</ele><time>2026-04-04T10:59:02Z</time></trkpt><trkpt lat="39.72168808585937" lon="8.533339171093996"><ele>5.0</ele><time>2026-04-04T10:59:04Z</time></trkpt><trkpt lat="39.72189193667689" lon="8.533365122946586"><ele>4.75</ele><time>2026-04-04T10:59:06Z</time></trkpt><trkpt lat="39.72200977273905" lon="8.533368753427217"><ele>4.5</ele><time>2026-04-04T10:59:07Z</time></trkpt><trkpt lat="39.72215013333214" lon="8.533343657640746"><ele>4.25</ele><time>2026-04-04T10:59:08Z</time></trkpt><trkpt lat="39.72229468288953" lon="8.533327764787447"><ele>4.0</ele><time>2026-04-04T10:59:09Z</time></trkpt><trkpt lat="39.72244778650426" lon="8.533323308474644"><ele>4.0</ele><time>2026-04-04T10:59:10Z</time></trkpt><trkpt lat="39.72261200258342" lon="8.533321198707895"><ele>4.0</ele><time>2026-04-04T10:59:11Z</time></trkpt><trkpt lat="39.72277713815063" lon="8.533320279459874"><ele>4.0</ele><time>2026-04-04T10:59:12Z</time></trkpt><trkpt lat="39.72293944002336" lon="8.533318264088921"><ele>4.333333333333333</ele><time>2026-04-04T10:59:13Z</time></trkpt><trkpt lat="39.72310805570478" lon="8.53331914911157"><ele>4.666666666666667</ele><time>2026-04-04T10:59:14Z</time></trkpt><trkpt lat="39.723279294241" lon="8.533319779367043"><ele>5.0</ele><time>2026-04-04T10:59:15Z</time></trkpt><trkpt lat="39.72345577470239" lon="8.53331966587537"><ele>5.333333333333334</ele><time>2026-04-04T10:59:16Z</time></trkpt><trkpt lat="39.72363494570065" lon="8.533314096615083"><ele>5.666666666666667</ele><time>2026-04-04T10:59:17Z</time></trkpt><trkpt lat="39.723818490434496" lon="8.533306298457067"><ele>6.0</ele><time>2026-04-04T10:59:18Z</time></trkpt><trkpt lat="39.724002502614724" lon="8.533302518416521"><ele>6.0</ele><time>2026-04-04T10:59:19Z</time></trkpt><trkpt lat="39.72419377132268" lon="8.533302719931827"><ele>6.0</ele><time>2026-04-04T10:59:20Z</time></trkpt><trkpt lat="39.72438551391869" lon="8.533303417911329"><ele>6.0</ele><time>2026-04-04T10:59:21Z</time></trkpt><trkpt lat="39.72458084109472" lon="8.533303320458373"><ele>6.0</ele><time>2026-04-04T10:59:22Z</time></trkpt><trkpt lat="39.724772993383546" lon="8.533303518867239"><ele>6.0</ele><time>2026-04-04T10:59:23Z</time></trkpt><trkpt lat="39.72496463112513" lon="8.53330032327747"><ele>6.0</ele><time>2026-04-04T10:59:24Z</time></trkpt><trkpt lat="39.725155530339265" lon="8.533297512455126"><ele>6.333333333333334</ele><time>2026-04-04T10:59:25Z</time></trkpt><trkpt lat="39.72535049460911" lon="8.533296681150018"><ele>6.666666666666667</ele><time>2026-04-04T10:59:26Z</time></trkpt><trkpt lat="39.72554925657109" lon="8.533294364621813"><ele>7.0</ele><time>2026-04-04T10:59:27Z</time></trkpt><trkpt lat="39.725748023919984" lon="8.533290270913126"><ele>7.0</ele><time>2026-04-04T10:59:28Z</time></trkpt><trkpt lat="39.72594809653679" lon="8.533284639945885"><ele>7.0</ele><time>2026-04-04T10:59:29Z</time></trkpt><trkpt lat="39.72614806944392" lon="8.533282483920123"><ele>7.0</ele><time>2026-04-04T10:59:30Z</time></trkpt><trkpt lat="39.726355790258175" lon="8.53328458769901"><ele>6.333333333333334</ele><time>2026-04-04T10:59:31Z</time></trkpt><trkpt lat="39.72656249198837" lon="8.533286271382336"><ele>5.666666666666667</ele><time>2026-04-04T10:59:32Z</time></trkpt><trkpt lat="39.72677192963329" lon="8.533285922526993"><ele>5.0</ele><time>2026-04-04T10:59:33Z</time></trkpt><trkpt lat="39.7269842040493" lon="8.5332840738919"><ele>4.666666666666667</ele><time>2026-04-04T10:59:34Z</time></trkpt><trkpt lat="39.72719769220087" lon="8.53328152533917"><ele>4.333333333333333</ele><time>2026-04-04T10:59:35Z</time></trkpt><trkpt lat="39.72741219133874" lon="8.533277105024467"><ele>4.0</ele><time>2026-04-04T10:59:36Z</time></trkpt><trkpt lat="39.727618015614105" lon="8.533276019442063"><ele>5.0</ele><time>2026-04-04T10:59:37Z</time></trkpt><trkpt lat="39.727815710461634" lon="8.53327597613619"><ele>6.0</ele><time>2026-04-04T10:59:38Z</time></trkpt><trkpt lat="39.72800255633683" lon="8.533276009273235"><ele>7.0</ele><time>2026-04-04T10:59:39Z</time></trkpt><trkpt lat="39.728174518643186" lon="8.533273951405642"><ele>7.0</ele><time>2026-04-04T10:59:40Z</time></trkpt><trkpt lat="39.72833398439906" lon="8.53327212987584"><ele>7.0</ele><time>2026-04-04T10:59:41Z</time></trkpt><trkpt lat="39.72847746487155" lon="8.533273551236388"><ele>7.0</ele><time>2026-04-04T10:59:42Z</time></trkpt><trkpt lat="39.72860528895299" lon="8.533272834510097"><ele>7.0</ele><time>2026-04-04T10:59:43Z</time></trkpt><trkpt lat="39.72871980240117" lon="8.5332769773413"><ele>6.8</ele><time>2026-04-04T10:59:44Z</time></trkpt><trkpt lat="39.72882146569605" lon="8.53328303080771"><ele>6.6</ele><time>2026-04-04T10:59:45Z</time></trkpt><trkpt lat="39.728918300213586" lon="8.53329842077144"><ele>6.3999999999999995</ele><time>2026-04-04T10:59:46Z</time></trkpt><trkpt lat="39.72900436665439" lon="8.533352211949824"><ele>6.199999999999999</ele><time>2026-04-04T10:59:47Z</time></trkpt><trkpt lat="39.72906534547405" lon="8.533437774849963"><ele>6.0</ele><time>2026-04-04T10:59:48Z</time></trkpt><trkpt lat="39.729093077703375" lon="8.533546054035149"><ele>6.0</ele><time>2026-04-04T10:59:49Z</time></trkpt><trkpt lat="39.72909262931285" lon="8.533690701125042"><ele>6.0</ele><time>2026-04-04T10:59:50Z</time></trkpt><trkpt lat="39.729083371123394" lon="8.533861497486031"><ele>6.0</ele><time>2026-04-04T10:59:51Z</time></trkpt><trkpt lat="39.72907983249663" lon="8.534045543210837"><ele>6.0</ele><time>2026-04-04T10:59:52Z</time></trkpt><trkpt lat="39.729081477686044" lon="8.534242548590413"><ele>6.0</ele><time>2026-04-04T10:59:53Z</time></trkpt><trkpt lat="39.7290840668996" lon="8.53463598457494"><ele>6.0</ele><time>2026-04-04T10:59:55Z</time></trkpt><trkpt lat="39.7290864811536" lon="8.534832534543755"><ele>6.0</ele><time>2026-04-04T10:59:56Z</time></trkpt><trkpt lat="39.729088813781196" lon="8.535031436388689"><ele>6.0</ele><time>2026-04-04T10:59:57Z</time></trkpt><trkpt lat="39.72908943829499" lon="8.535231565687592"><ele>6.0</ele><time>2026-04-04T10:59:58Z</time></trkpt><trkpt lat="39.72908835419588" lon="8.535431585327746"><ele>5.333333333333333</ele><time>2026-04-04T10:59:59Z</time></trkpt><trkpt lat="39.729088294521645" lon="8.535640300890384"><ele>4.666666666666666</ele><time>2026-04-04T11:00:00Z</time></trkpt><trkpt lat="39.72908911889794" lon="8.535855340695326"><ele>4.0</ele><time>2026-04-04T11:00:01Z</time></trkpt><trkpt lat="39.72909115640255" lon="8.536077268774763"><ele>4.333333333333333</ele><time>2026-04-04T11:00:02Z</time></trkpt><trkpt lat="39.72909339028884" lon="8.536302314993886"><ele>4.666666666666667</ele><time>2026-04-04T11:00:03Z</time></trkpt><trkpt lat="39.72909681705852" lon="8.536528337530491"><ele>5.0</ele><time>2026-04-04T11:00:04Z</time></trkpt><trkpt lat="39.72909991945045" lon="8.53675629011271"><ele>5.0</ele><time>2026-04-04T11:00:05Z</time></trkpt><trkpt lat="39.72910350919492" lon="8.536985574169629"><ele>5.0</ele><time>2026-04-04T11:00:06Z</time></trkpt><trkpt lat="39.72910725303956" lon="8.537223981023226"><ele>5.0</ele><time>2026-04-04T11:00:07Z</time></trkpt><trkpt lat="39.72910984609729" lon="8.537467673768033"><ele>5.333333333333334</ele><time>2026-04-04T11:00:08Z</time></trkpt><trkpt lat="39.72910888699107" lon="8.537713321925423"><ele>5.666666666666667</ele><time>2026-04-04T11:00:09Z</time></trkpt><trkpt lat="39.729106006886745" lon="8.537966405555743"><ele>6.0</ele><time>2026-04-04T11:00:10Z</time></trkpt><trkpt lat="39.7291033140149" lon="8.538223024976451"><ele>6.0</ele><time>2026-04-04T11:00:11Z</time></trkpt><trkpt lat="39.729102433216916" lon="8.538484712518196"><ele>6.0</ele><time>2026-04-04T11:00:12Z</time></trkpt><trkpt lat="39.72910484660627" lon="8.53874931537388"><ele>6.0</ele><time>2026-04-04T11:00:13Z</time></trkpt><trkpt lat="39.72910967579393" lon="8.539011814743674"><ele>6.333333333333334</ele><time>2026-04-04T11:00:14Z</time></trkpt><trkpt lat="39.72911550341432" lon="8.539272005595453"><ele>6.666666666666667</ele><time>2026-04-04T11:00:15Z</time></trkpt><trkpt lat="39.72911631603089" lon="8.539533683989006"><ele>7.0</ele><time>2026-04-04T11:00:16Z</time></trkpt><trkpt lat="39.72911600486081" lon="8.539797768826947"><ele>7.0</ele><time>2026-04-04T11:00:17Z</time></trkpt><trkpt lat="39.72911449954993" lon="8.54006197701071"><ele>7.0</ele><time>2026-04-04T11:00:18Z</time></trkpt><trkpt lat="39.7291137682431" lon="8.540333959581737"><ele>7.0</ele><time>2026-04-04T11:00:19Z</time></trkpt><trkpt lat="39.7291148678743" lon="8.540604292224732"><ele>6.666666666666667</ele><time>2026-04-04T11:00:20Z</time></trkpt><trkpt lat="39.729119612371655" lon="8.54087419600586"><ele>6.333333333333334</ele><time>2026-04-04T11:00:21Z</time></trkpt><trkpt lat="39.729123725112636" lon="8.541142852011657"><ele>6.0</ele><time>2026-04-04T11:00:22Z</time></trkpt><trkpt lat="39.72912769065285" lon="8.541409339453079"><ele>6.0</ele><time>2026-04-04T11:00:23Z</time></trkpt><trkpt lat="39.72912547950374" lon="8.541678295791213"><ele>6.0</ele><time>2026-04-04T11:00:24Z</time></trkpt><trkpt lat="39.72912538783634" lon="8.541948401172087"><ele>6.0</ele><time>2026-04-04T11:00:25Z</time></trkpt><trkpt lat="39.729126191553505" lon="8.54221970183525"><ele>6.333333333333334</ele><time>2026-04-04T11:00:26Z</time></trkpt><trkpt lat="39.729132307284296" lon="8.542490374265736"><ele>6.666666666666667</ele><time>2026-04-04T11:00:27Z</time></trkpt><trkpt lat="39.72913731692699" lon="8.542744972945023"><ele>7.0</ele><time>2026-04-04T11:00:28Z</time></trkpt><trkpt lat="39.72913767356692" lon="8.543022331834148"><ele>7.0</ele><time>2026-04-04T11:00:29Z</time></trkpt><trkpt lat="39.729135522190795" lon="8.543283737374106"><ele>7.0</ele><time>2026-04-04T11:00:30Z</time></trkpt><trkpt lat="39.72913342822676" lon="8.543549304744092"><ele>7.0</ele><time>2026-04-04T11:00:31Z</time></trkpt><trkpt lat="39.729133581722785" lon="8.543809838177797"><ele>7.0</ele><time>2026-04-04T11:00:32Z</time></trkpt><trkpt lat="39.72913725755346" lon="8.544077948395852"><ele>7.0</ele><time>2026-04-04T11:00:33Z</time></trkpt><trkpt lat="39.72914039421524" lon="8.544342738733464"><ele>7.0</ele><time>2026-04-04T11:00:34Z</time></trkpt><trkpt lat="39.72914279680685" lon="8.54461099028525"><ele>7.333333333333334</ele><time>2026-04-04T11:00:35Z</time></trkpt><trkpt lat="39.729144415761816" lon="8.544881500730407"><ele>7.666666666666666</ele><time>2026-04-04T11:00:36Z</time></trkpt><trkpt lat="39.72914505962986" lon="8.545153969125163"><ele>8.0</ele><time>2026-04-04T11:00:37Z</time></trkpt><trkpt lat="39.72914424175912" lon="8.545426321261292"><ele>8.0</ele><time>2026-04-04T11:00:38Z</time></trkpt><trkpt lat="39.72914468730989" lon="8.545701558706185"><ele>8.0</ele><time>2026-04-04T11:00:39Z</time></trkpt><trkpt lat="39.72914384280631" lon="8.545973508167306"><ele>8.0</ele><time>2026-04-04T11:00:40Z</time></trkpt><trkpt lat="39.72914369243959" lon="8.54624701002047"><ele>7.333333333333333</ele><time>2026-04-04T11:00:41Z</time></trkpt><trkpt lat="39.729144048887065" lon="8.546520813787351"><ele>6.666666666666666</ele><time>2026-04-04T11:00:42Z</time></trkpt><trkpt lat="39.72914600793734" lon="8.546792989771426"><ele>6.0</ele><time>2026-04-04T11:00:43Z</time></trkpt><trkpt lat="39.72914992015883" lon="8.54706287987944"><ele>5.666666666666667</ele><time>2026-04-04T11:00:44Z</time></trkpt><trkpt lat="39.72915264748281" lon="8.547336237106267"><ele>5.333333333333334</ele><time>2026-04-04T11:00:45Z</time></trkpt><trkpt lat="39.729152580414606" lon="8.547606575034287"><ele>5.0</ele><time>2026-04-04T11:00:46Z</time></trkpt><trkpt lat="39.72915247528349" lon="8.547878256692515"><ele>4.333333333333334</ele><time>2026-04-04T11:00:47Z</time></trkpt><trkpt lat="39.72915459358838" lon="8.548151802806421"><ele>3.666666666666667</ele><time>2026-04-04T11:00:48Z</time></trkpt><trkpt lat="39.72915701478078" lon="8.54842438869687"><ele>3.0</ele><time>2026-04-04T11:00:49Z</time></trkpt><trkpt lat="39.72915867289752" lon="8.54869801684446"><ele>2.6666666666666665</ele><time>2026-04-04T11:00:50Z</time></trkpt><trkpt lat="39.72915986075098" lon="8.548969748323286"><ele>2.333333333333333</ele><time>2026-04-04T11:00:51Z</time></trkpt><trkpt lat="39.729161749002984" lon="8.549241162707492"><ele>2.0</ele><time>2026-04-04T11:00:52Z</time></trkpt><trkpt lat="39.72916397962405" lon="8.549513865180076"><ele>2.6666666666666665</ele><time>2026-04-04T11:00:53Z</time></trkpt><trkpt lat="39.72916622709259" lon="8.54978794379771"><ele>3.333333333333333</ele><time>2026-04-04T11:00:54Z</time></trkpt><trkpt lat="39.72916744574205" lon="8.550062965281825"><ele>4.0</ele><time>2026-04-04T11:00:55Z</time></trkpt><trkpt lat="39.72916869455028" lon="8.55033600346641"><ele>4.333333333333333</ele><time>2026-04-04T11:00:56Z</time></trkpt><trkpt lat="39.72916928915329" lon="8.550603065803006"><ele>4.666666666666667</ele><time>2026-04-04T11:00:57Z</time></trkpt><trkpt lat="39.729174485306686" lon="8.550868803166757"><ele>5.0</ele><time>2026-04-04T11:00:58Z</time></trkpt><trkpt lat="39.72917788256771" lon="8.551131420702085"><ele>5.0</ele><time>2026-04-04T11:00:59Z</time></trkpt><trkpt lat="39.7291793379599" lon="8.55145048397385"><ele>5.0</ele><time>2026-04-04T11:01:00Z</time></trkpt><trkpt lat="39.72917919757086" lon="8.55173359642892"><ele>5.0</ele><time>2026-04-04T11:01:01Z</time></trkpt><trkpt lat="39.72918053055318" lon="8.552018468429413"><ele>5.0</ele><time>2026-04-04T11:01:02Z</time></trkpt><trkpt lat="39.729181436106515" lon="8.552302092051875"><ele>5.0</ele><time>2026-04-04T11:01:03Z</time></trkpt><trkpt lat="39.72918313545113" lon="8.55258531452652"><ele>5.0</ele><time>2026-04-04T11:01:04Z</time></trkpt><trkpt lat="39.72918481985181" lon="8.552866496995229"><ele>5.0</ele><time>2026-04-04T11:01:05Z</time></trkpt><trkpt lat="39.72918593796653" lon="8.553145707535988"><ele>5.0</ele><time>2026-04-04T11:01:06Z</time></trkpt><trkpt lat="39.72918643971723" lon="8.553427164744976"><ele>5.333333333333334</ele><time>2026-04-04T11:01:07Z</time></trkpt><trkpt lat="39.729188292137835" lon="8.553707503065095"><ele>5.666666666666667</ele><time>2026-04-04T11:01:08Z</time></trkpt><trkpt lat="39.72918962292078" lon="8.553983198119198"><ele>6.0</ele><time>2026-04-04T11:01:09Z</time></trkpt><trkpt lat="39.72919329797842" lon="8.554257673769731"><ele>6.0</ele><time>2026-04-04T11:01:10Z</time></trkpt><trkpt lat="39.729196821706665" lon="8.554526360510883"><ele>6.0</ele><time>2026-04-04T11:01:11Z</time></trkpt><trkpt lat="39.729196189131876" lon="8.554796391126368"><ele>6.0</ele><time>2026-04-04T11:01:12Z</time></trkpt><trkpt lat="39.729193685554584" lon="8.555071932002623"><ele>6.333333333333334</ele><time>2026-04-04T11:01:13Z</time></trkpt><trkpt lat="39.72919088536338" lon="8.555348174036055"><ele>6.666666666666667</ele><time>2026-04-04T11:01:14Z</time></trkpt><trkpt lat="39.72918942849536" lon="8.555626772050223"><ele>7.0</ele><time>2026-04-04T11:01:15Z</time></trkpt><trkpt lat="39.72919315530083" lon="8.555908282519885"><ele>7.333333333333334</ele><time>2026-04-04T11:01:16Z</time></trkpt><trkpt lat="39.7291971373635" lon="8.55619425075363"><ele>7.666666666666666</ele><time>2026-04-04T11:01:17Z</time></trkpt><trkpt lat="39.72920090748022" lon="8.556482511102882"><ele>8.0</ele><time>2026-04-04T11:01:18Z</time></trkpt><trkpt lat="39.72920396339271" lon="8.556769769754284"><ele>8.666666666666666</ele><time>2026-04-04T11:01:19Z</time></trkpt><trkpt lat="39.72920749553964" lon="8.557055460176214"><ele>9.333333333333334</ele><time>2026-04-04T11:01:20Z</time></trkpt><trkpt lat="39.72921033181714" lon="8.55734232573283"><ele>10.0</ele><time>2026-04-04T11:01:21Z</time></trkpt><trkpt lat="39.72920957261721" lon="8.557638329726855"><ele>9.666666666666668</ele><time>2026-04-04T11:01:22Z</time></trkpt><trkpt lat="39.729209578450885" lon="8.557923590305151"><ele>9.333333333333334</ele><time>2026-04-04T11:01:23Z</time></trkpt><trkpt lat="39.72921509580933" lon="8.558210281966646"><ele>9.0</ele><time>2026-04-04T11:01:24Z</time></trkpt><trkpt lat="39.72921730200597" lon="8.55848916267958"><ele>9.0</ele><time>2026-04-04T11:01:25Z</time></trkpt><trkpt lat="39.72922315985823" lon="8.558767185402898"><ele>9.0</ele><time>2026-04-04T11:01:26Z</time></trkpt><trkpt lat="39.72922608311516" lon="8.559025616453235"><ele>9.0</ele><time>2026-04-04T11:01:27Z</time></trkpt><trkpt lat="39.729225821708184" lon="8.559279867597589"><ele>9.0</ele><time>2026-04-04T11:01:28Z</time></trkpt><trkpt lat="39.72922396322042" lon="8.559522640367394"><ele>9.0</ele><time>2026-04-04T11:01:29Z</time></trkpt><trkpt lat="39.729224110989804" lon="8.559762675957439"><ele>9.0</ele><time>2026-04-04T11:01:30Z</time></trkpt><trkpt lat="39.72922677738293" lon="8.559993974753288"><ele>9.333333333333334</ele><time>2026-04-04T11:01:31Z</time></trkpt><trkpt lat="39.729230239381145" lon="8.560223929266549"><ele>9.666666666666668</ele><time>2026-04-04T11:01:32Z</time></trkpt><trkpt lat="39.72923417136343" lon="8.560450550540875"><ele>10.0</ele><time>2026-04-04T11:01:33Z</time></trkpt><trkpt lat="39.72924206050999" lon="8.560669268236458"><ele>10.0</ele><time>2026-04-04T11:01:34Z</time></trkpt><trkpt lat="39.72924636877624" lon="8.560875828270476"><ele>10.0</ele><time>2026-04-04T11:01:35Z</time></trkpt><trkpt lat="39.729246880153404" lon="8.561075641490897"><ele>10.0</ele><time>2026-04-04T11:01:36Z</time></trkpt><trkpt lat="39.72924136884063" lon="8.561269107201435"><ele>10.0</ele><time>2026-04-04T11:01:37Z</time></trkpt><trkpt lat="39.7292345512973" lon="8.561465109067655"><ele>10.0</ele><time>2026-04-04T11:01:38Z</time></trkpt><trkpt lat="39.72923299834682" lon="8.561668296913608"><ele>10.0</ele><time>2026-04-04T11:01:39Z</time></trkpt><trkpt lat="39.729236145241885" lon="8.56187589026999"><ele>11.0</ele><time>2026-04-04T11:01:40Z</time></trkpt><trkpt lat="39.72923995451241" lon="8.562087770540352"><ele>12.0</ele><time>2026-04-04T11:01:41Z</time></trkpt><trkpt lat="39.729240743737996" lon="8.562301388623558"><ele>13.0</ele><time>2026-04-04T11:01:42Z</time></trkpt><trkpt lat="39.729241206842566" lon="8.562522976437664"><ele>13.0</ele><time>2026-04-04T11:01:43Z</time></trkpt><trkpt lat="39.729242194343584" lon="8.562748026080413"><ele>13.0</ele><time>2026-04-04T11:01:44Z</time></trkpt><trkpt lat="39.729241548603945" lon="8.562975092898624"><ele>13.0</ele><time>2026-04-04T11:01:45Z</time></trkpt><trkpt lat="39.72924094618775" lon="8.563208369605192"><ele>12.666666666666666</ele><time>2026-04-04T11:01:46Z</time></trkpt><trkpt lat="39.729240372219174" lon="8.5634476160758"><ele>12.333333333333332</ele><time>2026-04-04T11:01:47Z</time></trkpt><trkpt lat="39.729242050368526" lon="8.563684804950592"><ele>12.0</ele><time>2026-04-04T11:01:48Z</time></trkpt><trkpt lat="39.72924258124265" lon="8.563933964700743"><ele>11.0</ele><time>2026-04-04T11:01:49Z</time></trkpt><trkpt lat="39.72924376439302" lon="8.5641776621346"><ele>10.0</ele><time>2026-04-04T11:01:50Z</time></trkpt><trkpt lat="39.72924315654613" lon="8.564426733702446"><ele>9.0</ele><time>2026-04-04T11:01:51Z</time></trkpt><trkpt lat="39.72924326525923" lon="8.564680584728926"><ele>8.666666666666666</ele><time>2026-04-04T11:01:52Z</time></trkpt><trkpt lat="39.72924366802201" lon="8.564935916083812"><ele>8.333333333333332</ele><time>2026-04-04T11:01:53Z</time></trkpt><trkpt lat="39.729244452478305" lon="8.565192638497798"><ele>8.0</ele><time>2026-04-04T11:01:54Z</time></trkpt><trkpt lat="39.72924515660589" lon="8.565452584860061"><ele>8.0</ele><time>2026-04-04T11:01:55Z</time></trkpt><trkpt lat="39.72924885342558" lon="8.565712824167258"><ele>8.0</ele><time>2026-04-04T11:01:56Z</time></trkpt><trkpt lat="39.72925178907692" lon="8.565977187663538"><ele>8.0</ele><time>2026-04-04T11:01:57Z</time></trkpt><trkpt lat="39.729253081682764" lon="8.56623813434704"><ele>8.0</ele><time>2026-04-04T11:01:58Z</time></trkpt><trkpt lat="39.72925395310905" lon="8.56650135427387"><ele>8.0</ele><time>2026-04-04T11:01:59Z</time></trkpt><trkpt lat="39.7292543060576" lon="8.566764906050304"><ele>8.0</ele><time>2026-04-04T11:02:00Z</time></trkpt><trkpt lat="39.72925464145101" lon="8.567024630707477"><ele>7.333333333333333</ele><time>2026-04-04T11:02:01Z</time></trkpt><trkpt lat="39.72925612517584" lon="8.567286019074734"><ele>6.666666666666666</ele><time>2026-04-04T11:02:02Z</time></trkpt><trkpt lat="39.72925878648823" lon="8.56755305697085"><ele>6.0</ele><time>2026-04-04T11:02:03Z</time></trkpt><trkpt lat="39.729260367191785" lon="8.56782087647361"><ele>6.0</ele><time>2026-04-04T11:02:04Z</time></trkpt><trkpt lat="39.72926007476715" lon="8.56808751348507"><ele>6.0</ele><time>2026-04-04T11:02:05Z</time></trkpt><trkpt lat="39.7292602700733" lon="8.568356213997466"><ele>6.0</ele><time>2026-04-04T11:02:06Z</time></trkpt><trkpt lat="39.72926026299649" lon="8.568625333931193"><ele>6.333333333333334</ele><time>2026-04-04T11:02:07Z</time></trkpt><trkpt lat="39.72926108106326" lon="8.56889554956524"><ele>6.666666666666667</ele><time>2026-04-04T11:02:08Z</time></trkpt><trkpt lat="39.72926554488977" lon="8.569168197451773"><ele>7.0</ele><time>2026-04-04T11:02:09Z</time></trkpt><trkpt lat="39.7292692081349" lon="8.569441805991941"><ele>6.666666666666667</ele><time>2026-04-04T11:02:10Z</time></trkpt><trkpt lat="39.72927255131186" lon="8.569717415917511"><ele>6.333333333333334</ele><time>2026-04-04T11:02:11Z</time></trkpt><trkpt lat="39.729273290394005" lon="8.569989995659583"><ele>6.0</ele><time>2026-04-04T11:02:12Z</time></trkpt><trkpt lat="39.729274023643754" lon="8.570268456792366"><ele>6.333333333333334</ele><time>2026-04-04T11:02:13Z</time></trkpt><trkpt lat="39.72927589562788" lon="8.570548518717048"><ele>6.666666666666667</ele><time>2026-04-04T11:02:14Z</time></trkpt><trkpt lat="39.729276323203976" lon="8.570827130643417"><ele>7.0</ele><time>2026-04-04T11:02:15Z</time></trkpt><trkpt lat="39.72927802071197" lon="8.57110545594466"><ele>7.333333333333334</ele><time>2026-04-04T11:02:16Z</time></trkpt><trkpt lat="39.729280067864266" lon="8.571384867509982"><ele>7.666666666666666</ele><time>2026-04-04T11:02:17Z</time></trkpt><trkpt lat="39.72928154566334" lon="8.571662910509112"><ele>8.0</ele><time>2026-04-04T11:02:18Z</time></trkpt><trkpt lat="39.72928367594937" lon="8.571947423583314"><ele>8.0</ele><time>2026-04-04T11:02:19Z</time></trkpt><trkpt lat="39.72928439357574" lon="8.572232546701658"><ele>8.0</ele><time>2026-04-04T11:02:20Z</time></trkpt><trkpt lat="39.729283372617566" lon="8.572516211908743"><ele>8.0</ele><time>2026-04-04T11:02:21.001Z</time></trkpt><trkpt lat="39.72928264082518" lon="8.57280283923093"><ele>8.666666666666666</ele><time>2026-04-04T11:02:22Z</time></trkpt><trkpt lat="39.72928305442351" lon="8.573086014546547"><ele>9.333333333333334</ele><time>2026-04-04T11:02:23Z</time></trkpt><trkpt lat="39.72928760849492" lon="8.573358015686983"><ele>10.0</ele><time>2026-04-04T11:02:24Z</time></trkpt><trkpt lat="39.72928749181826" lon="8.57364996139156"><ele>10.333333333333334</ele><time>2026-04-04T11:02:25Z</time></trkpt><trkpt lat="39.72928938218562" lon="8.573931297923115"><ele>10.666666666666666</ele><time>2026-04-04T11:02:26Z</time></trkpt><trkpt lat="39.72929228571974" lon="8.574217791784493"><ele>11.0</ele><time>2026-04-04T11:02:27Z</time></trkpt><trkpt lat="39.72929532468081" lon="8.574496997401859"><ele>10.666666666666666</ele><time>2026-04-04T11:02:28Z</time></trkpt><trkpt lat="39.729299632359826" lon="8.574779063542113"><ele>10.333333333333334</ele><time>2026-04-04T11:02:29Z</time></trkpt><trkpt lat="39.72929771977683" lon="8.575058888826216"><ele>10.0</ele><time>2026-04-04T11:02:30Z</time></trkpt><trkpt lat="39.729296669412705" lon="8.57533723412904"><ele>9.333333333333334</ele><time>2026-04-04T11:02:31Z</time></trkpt><trkpt lat="39.72929736394669" lon="8.575617108582199"><ele>8.666666666666666</ele><time>2026-04-04T11:02:32Z</time></trkpt><trkpt lat="39.72929914858448" lon="8.575894296862906"><ele>8.0</ele><time>2026-04-04T11:02:33Z</time></trkpt><trkpt lat="39.729300824678695" lon="8.576173630429956"><ele>9.0</ele><time>2026-04-04T11:02:34Z</time></trkpt><trkpt lat="39.72930219052985" lon="8.576456813131356"><ele>10.0</ele><time>2026-04-04T11:02:35Z</time></trkpt><trkpt lat="39.729304839863616" lon="8.576739213798856"><ele>11.0</ele><time>2026-04-04T11:02:36Z</time></trkpt><trkpt lat="39.72930830723488" lon="8.577021220959816"><ele>11.0</ele><time>2026-04-04T11:02:37Z</time></trkpt><trkpt lat="39.72931096354916" lon="8.577309899894145"><ele>11.0</ele><time>2026-04-04T11:02:38Z</time></trkpt><trkpt lat="39.729311109570695" lon="8.577597231296853"><ele>11.0</ele><time>2026-04-04T11:02:39Z</time></trkpt><trkpt lat="39.729310164358225" lon="8.577884974872909"><ele>10.666666666666666</ele><time>2026-04-04T11:02:40Z</time></trkpt><trkpt lat="39.72931098301143" lon="8.578173771966922"><ele>10.333333333333334</ele><time>2026-04-04T11:02:41Z</time></trkpt><trkpt lat="39.72931175893122" lon="8.578464369694633"><ele>10.0</ele><time>2026-04-04T11:02:42Z</time></trkpt><trkpt lat="39.729313059521225" lon="8.578755676305464"><ele>10.0</ele><time>2026-04-04T11:02:43Z</time></trkpt><trkpt lat="39.72931692443833" lon="8.579047154117006"><ele>10.0</ele><time>2026-04-04T11:02:44Z</time></trkpt><trkpt lat="39.729319818309705" lon="8.579335180592553"><ele>10.0</ele><time>2026-04-04T11:02:45Z</time></trkpt><trkpt lat="39.729322048149896" lon="8.57962534320584"><ele>10.666666666666668</ele><time>2026-04-04T11:02:46Z</time></trkpt><trkpt lat="39.72932198373979" lon="8.579917633574052"><ele>11.333333333333334</ele><time>2026-04-04T11:02:47Z</time></trkpt><trkpt lat="39.72932259242575" lon="8.580199154434007"><ele>12.0</ele><time>2026-04-04T11:02:48Z</time></trkpt><trkpt lat="39.72932072980647" lon="8.58046351551323"><ele>12.0</ele><time>2026-04-04T11:02:49Z</time></trkpt><trkpt lat="39.729321603432616" lon="8.580716671049451"><ele>12.0</ele><time>2026-04-04T11:02:50Z</time></trkpt><trkpt lat="39.72932146543146" lon="8.58095625074529"><ele>12.0</ele><time>2026-04-04T11:02:51Z</time></trkpt><trkpt lat="39.7293196452598" lon="8.581187818352072"><ele>11.333333333333334</ele><time>2026-04-04T11:02:52Z</time></trkpt><trkpt lat="39.72931840385966" lon="8.58140698420474"><ele>10.666666666666668</ele><time>2026-04-04T11:02:53Z</time></trkpt><trkpt lat="39.729319598868905" lon="8.581625376192521"><ele>10.0</ele><time>2026-04-04T11:02:54Z</time></trkpt><trkpt lat="39.72932332458464" lon="8.58183344407287"><ele>10.0</ele><time>2026-04-04T11:02:55Z</time></trkpt><trkpt lat="39.72932617030677" lon="8.582022484493516"><ele>10.0</ele><time>2026-04-04T11:02:56Z</time></trkpt><trkpt lat="39.72932671576273" lon="8.5821900828547"><ele>10.0</ele><time>2026-04-04T11:02:57Z</time></trkpt><trkpt lat="39.72932221804514" lon="8.582327200487962"><ele>10.0</ele><time>2026-04-04T11:02:58Z</time></trkpt><trkpt lat="39.72931028325494" lon="8.582439944147726"><ele>10.0</ele><time>2026-04-04T11:02:59Z</time></trkpt><trkpt lat="39.729279781022484" lon="8.582527674123291"><ele>10.0</ele><time>2026-04-04T11:03:00Z</time></trkpt><trkpt lat="39.72916099750511" lon="8.582648971450077"><ele>10.0</ele><time>2026-04-04T11:03:02Z</time></trkpt><trkpt lat="39.72906507989865" lon="8.58266439695355"><ele>10.0</ele><time>2026-04-04T11:03:03Z</time></trkpt><trkpt lat="39.728938162737535" lon="8.582659791156834"><ele>10.0</ele><time>2026-04-04T11:03:04Z</time></trkpt><trkpt lat="39.72880011190386" lon="8.582652330533417"><ele>10.5</ele><time>2026-04-04T11:03:05Z</time></trkpt><trkpt lat="39.72847598269594" lon="8.58267786683262"><ele>11.0</ele><time>2026-04-04T11:03:07Z</time></trkpt><trkpt lat="39.728307042824895" lon="8.5826919859065"><ele>11.0</ele><time>2026-04-04T11:03:08Z</time></trkpt><trkpt lat="39.72814701451521" lon="8.58270024161271"><ele>11.0</ele><time>2026-04-04T11:03:09Z</time></trkpt><trkpt lat="39.727983760893125" lon="8.582701847019829"><ele>11.0</ele><time>2026-04-04T11:03:10Z</time></trkpt><trkpt lat="39.727817750114724" lon="8.5827032305708"><ele>11.0</ele><time>2026-04-04T11:03:11Z</time></trkpt><trkpt lat="39.72764536235034" lon="8.582704502177695"><ele>11.0</ele><time>2026-04-04T11:03:12Z</time></trkpt><trkpt lat="39.72746900376692" lon="8.582703418662774"><ele>11.0</ele><time>2026-04-04T11:03:13Z</time></trkpt><trkpt lat="39.727289450001166" lon="8.582702100461464"><ele>11.0</ele><time>2026-04-04T11:03:14Z</time></trkpt><trkpt lat="39.72710384224829" lon="8.582706258894108"><ele>11.0</ele><time>2026-04-04T11:03:15Z</time></trkpt><trkpt lat="39.72691413792418" lon="8.582711568923282"><ele>11.0</ele><time>2026-04-04T11:03:16Z</time></trkpt><trkpt lat="39.726720052611" lon="8.582713583949978"><ele>11.0</ele><time>2026-04-04T11:03:17Z</time></trkpt><trkpt lat="39.72651963538527" lon="8.582712965076931"><ele>11.0</ele><time>2026-04-04T11:03:18Z</time></trkpt><trkpt lat="39.72631759697488" lon="8.582714095491994"><ele>11.0</ele><time>2026-04-04T11:03:19Z</time></trkpt><trkpt lat="39.726110771602016" lon="8.582718325066741"><ele>11.0</ele><time>2026-04-04T11:03:20Z</time></trkpt><trkpt lat="39.725902439247356" lon="8.582721580476983"><ele>11.0</ele><time>2026-04-04T11:03:21Z</time></trkpt><trkpt lat="39.72569477490311" lon="8.582723976821175"><ele>11.0</ele><time>2026-04-04T11:03:22Z</time></trkpt><trkpt lat="39.72548835338805" lon="8.582720370055956"><ele>11.0</ele><time>2026-04-04T11:03:23Z</time></trkpt><trkpt lat="39.72528072526123" lon="8.582722549837923"><ele>11.0</ele><time>2026-04-04T11:03:24Z</time></trkpt><trkpt lat="39.72507065888886" lon="8.582722945566024"><ele>11.0</ele><time>2026-04-04T11:03:25Z</time></trkpt><trkpt lat="39.724859535495774" lon="8.582722230446365"><ele>11.0</ele><time>2026-04-04T11:03:26Z</time></trkpt><trkpt lat="39.724647219845465" lon="8.582725214017348"><ele>11.0</ele><time>2026-04-04T11:03:27Z</time></trkpt><trkpt lat="39.72443099976164" lon="8.582730566425578"><ele>11.0</ele><time>2026-04-04T11:03:28Z</time></trkpt><trkpt lat="39.72421681280517" lon="8.582734131060613"><ele>11.333333333333332</ele><time>2026-04-04T11:03:29Z</time></trkpt><trkpt lat="39.723997874773204" lon="8.58273369756748"><ele>11.666666666666666</ele><time>2026-04-04T11:03:30Z</time></trkpt><trkpt lat="39.72377527209471" lon="8.582733136060092"><ele>12.0</ele><time>2026-04-04T11:03:31Z</time></trkpt><trkpt lat="39.723548482535435" lon="8.582736819013741"><ele>12.0</ele><time>2026-04-04T11:03:32Z</time></trkpt><trkpt lat="39.723321044979194" lon="8.582740060956748"><ele>12.0</ele><time>2026-04-04T11:03:33Z</time></trkpt><trkpt lat="39.723096488919296" lon="8.582741971465085"><ele>12.0</ele><time>2026-04-04T11:03:34Z</time></trkpt><trkpt lat="39.722875050594425" lon="8.582744009571673"><ele>12.0</ele><time>2026-04-04T11:03:35Z</time></trkpt><trkpt lat="39.72265495299652" lon="8.582744864706925"><ele>12.0</ele><time>2026-04-04T11:03:36Z</time></trkpt><trkpt lat="39.72243476825559" lon="8.582745810925712"><ele>12.0</ele><time>2026-04-04T11:03:37Z</time></trkpt><trkpt lat="39.72221455404433" lon="8.582748884284952"><ele>12.0</ele><time>2026-04-04T11:03:38Z</time></trkpt><trkpt lat="39.72199025089773" lon="8.582729429204727"><ele>12.0</ele><time>2026-04-04T11:03:39Z</time></trkpt><trkpt lat="39.72176287787489" lon="8.5827311315972"><ele>12.0</ele><time>2026-04-04T11:03:40Z</time></trkpt><trkpt lat="39.721532232436715" lon="8.582732992553254"><ele>12.0</ele><time>2026-04-04T11:03:41Z</time></trkpt><trkpt lat="39.7213102960307" lon="8.582756217899254"><ele>12.0</ele><time>2026-04-04T11:03:42Z</time></trkpt><trkpt lat="39.721082335699435" lon="8.582756499552262"><ele>12.0</ele><time>2026-04-04T11:03:43Z</time></trkpt><trkpt lat="39.72085550213732" lon="8.582757947809478"><ele>11.666666666666666</ele><time>2026-04-04T11:03:44Z</time></trkpt><trkpt lat="39.720630007618254" lon="8.582759104781546"><ele>11.333333333333332</ele><time>2026-04-04T11:03:45Z</time></trkpt><trkpt lat="39.720409134739114" lon="8.582759187881582"><ele>11.0</ele><time>2026-04-04T11:03:46Z</time></trkpt><trkpt lat="39.720197688591504" lon="8.58275889891484"><ele>10.666666666666666</ele><time>2026-04-04T11:03:47Z</time></trkpt><trkpt lat="39.71998837828116" lon="8.582760320865379"><ele>10.333333333333334</ele><time>2026-04-04T11:03:48Z</time></trkpt><trkpt lat="39.71978647603017" lon="8.582765889482024"><ele>10.0</ele><time>2026-04-04T11:03:49Z</time></trkpt><trkpt lat="39.71958960477551" lon="8.582770808539768"><ele>10.666666666666668</ele><time>2026-04-04T11:03:50Z</time></trkpt><trkpt lat="39.71939832489857" lon="8.582772113171831"><ele>11.333333333333334</ele><time>2026-04-04T11:03:51Z</time></trkpt><trkpt lat="39.71921069724666" lon="8.582768307191532"><ele>12.0</ele><time>2026-04-04T11:03:52Z</time></trkpt><trkpt lat="39.71902853664375" lon="8.58276679614405"><ele>12.0</ele><time>2026-04-04T11:03:53Z</time></trkpt><trkpt lat="39.718850269895505" lon="8.582770575630533"><ele>12.0</ele><time>2026-04-04T11:03:54Z</time></trkpt><trkpt lat="39.71867767537039" lon="8.582770295258928"><ele>12.0</ele><time>2026-04-04T11:03:55Z</time></trkpt><trkpt lat="39.71852946997148" lon="8.582771565150109"><ele>12.0</ele><time>2026-04-04T11:03:56Z</time></trkpt><trkpt lat="39.71842000866175" lon="8.582770428909345"><ele>12.0</ele><time>2026-04-04T11:03:57Z</time></trkpt><trkpt lat="39.7183391424532" lon="8.582768646385055"><ele>12.0</ele><time>2026-04-04T11:03:58Z</time></trkpt><trkpt lat="39.71826949975439" lon="8.582755249081234"><ele>12.0</ele><time>2026-04-04T11:04:00Z</time></trkpt><trkpt lat="39.71822695821404" lon="8.582919729376428"><ele>12.0</ele><time>2026-04-04T11:04:03Z</time></trkpt><trkpt lat="39.71823941594815" lon="8.583028866600761"><ele>11.5</ele><time>2026-04-04T11:04:04Z</time></trkpt><trkpt lat="39.718248662630884" lon="8.583160575441601"><ele>11.0</ele><time>2026-04-04T11:04:05Z</time></trkpt><trkpt lat="39.71824795664749" lon="8.583323243799333"><ele>10.5</ele><time>2026-04-04T11:04:06Z</time></trkpt><trkpt lat="39.71825277940397" lon="8.583477609911721"><ele>10.0</ele><time>2026-04-04T11:04:07Z</time></trkpt><trkpt lat="39.71825492500518" lon="8.583652774294253"><ele>10.333333333333334</ele><time>2026-04-04T11:04:08Z</time></trkpt><trkpt lat="39.7182553305065" lon="8.583839675169909"><ele>10.666666666666666</ele><time>2026-04-04T11:04:09Z</time></trkpt><trkpt lat="39.71825499857981" lon="8.584036791511696"><ele>11.0</ele><time>2026-04-04T11:04:10Z</time></trkpt><trkpt lat="39.718254167956" lon="8.584239972741257"><ele>11.0</ele><time>2026-04-04T11:04:11Z</time></trkpt><trkpt lat="39.71825404090234" lon="8.584439801660796"><ele>11.0</ele><time>2026-04-04T11:04:12Z</time></trkpt><trkpt lat="39.718255781710404" lon="8.584644494681921"><ele>11.0</ele><time>2026-04-04T11:04:13Z</time></trkpt><trkpt lat="39.718258913683606" lon="8.584848584920739"><ele>10.75</ele><time>2026-04-04T11:04:14Z</time></trkpt><trkpt lat="39.718260865964524" lon="8.58503521578796"><ele>10.5</ele><time>2026-04-04T11:04:15Z</time></trkpt><trkpt lat="39.71826471007454" lon="8.585223528097183"><ele>10.25</ele><time>2026-04-04T11:04:16Z</time></trkpt><trkpt lat="39.718265933785574" lon="8.58539790678238"><ele>10.0</ele><time>2026-04-04T11:04:17Z</time></trkpt><trkpt lat="39.71825729384568" lon="8.585563597566708"><ele>10.0</ele><time>2026-04-04T11:04:18Z</time></trkpt><trkpt lat="39.718231952083194" lon="8.5857147451233"><ele>10.0</ele><time>2026-04-04T11:04:19Z</time></trkpt><trkpt lat="39.71818421211665" lon="8.585852098298712"><ele>10.0</ele><time>2026-04-04T11:04:20Z</time></trkpt><trkpt lat="39.718147753229005" lon="8.585984832408016"><ele>10.0</ele><time>2026-04-04T11:04:21Z</time></trkpt><trkpt lat="39.718125942987655" lon="8.586105003684146"><ele>10.0</ele><time>2026-04-04T11:04:22Z</time></trkpt><trkpt lat="39.717872032401814" lon="8.586149287744982"><ele>10.0</ele><time>2026-04-04T11:04:23Z</time></trkpt><trkpt lat="39.71771921623887" lon="8.586193015562143"><ele>10.0</ele><time>2026-04-04T11:04:24Z</time></trkpt><trkpt lat="39.717555017449335" lon="8.586195398579607"><ele>10.0</ele><time>2026-04-04T11:04:25Z</time></trkpt><trkpt lat="39.71738559098724" lon="8.586196137791442"><ele>10.0</ele><time>2026-04-04T11:04:26Z</time></trkpt><trkpt lat="39.7172003428836" lon="8.58619868706718"><ele>10.0</ele><time>2026-04-04T11:04:27Z</time></trkpt><trkpt lat="39.717020903905286" lon="8.586204496945705"><ele>10.0</ele><time>2026-04-04T11:04:28Z</time></trkpt><trkpt lat="39.71684214216893" lon="8.58620518022012"><ele>9.666666666666668</ele><time>2026-04-04T11:04:29Z</time></trkpt><trkpt lat="39.716658365854904" lon="8.586219197247651"><ele>9.333333333333334</ele><time>2026-04-04T11:04:30Z</time></trkpt><trkpt lat="39.71646729295565" lon="8.586257712681626"><ele>9.0</ele><time>2026-04-04T11:04:31Z</time></trkpt><trkpt lat="39.71627184807447" lon="8.586320734369316"><ele>9.0</ele><time>2026-04-04T11:04:32Z</time></trkpt><trkpt lat="39.7160766322399" lon="8.58641369893917"><ele>9.0</ele><time>2026-04-04T11:04:33Z</time></trkpt><trkpt lat="39.71589061547417" lon="8.586539838955094"><ele>9.0</ele><time>2026-04-04T11:04:34Z</time></trkpt><trkpt lat="39.71572255911353" lon="8.586703679460904"><ele>10.0</ele><time>2026-04-04T11:04:35Z</time></trkpt><trkpt lat="39.71557528011334" lon="8.586888299943062"><ele>11.0</ele><time>2026-04-04T11:04:36Z</time></trkpt><trkpt lat="39.71544233953127" lon="8.587094011021"><ele>12.0</ele><time>2026-04-04T11:04:37Z</time></trkpt><trkpt lat="39.71532695685269" lon="8.587322824692883"><ele>11.333333333333334</ele><time>2026-04-04T11:04:38Z</time></trkpt><trkpt lat="39.715213361650754" lon="8.587551401308081"><ele>10.666666666666668</ele><time>2026-04-04T11:04:39Z</time></trkpt><trkpt lat="39.71509492030213" lon="8.587776384986855"><ele>10.0</ele><time>2026-04-04T11:04:40Z</time></trkpt><trkpt lat="39.71497586359714" lon="8.588002304612608"><ele>9.666666666666668</ele><time>2026-04-04T11:04:41Z</time></trkpt><trkpt lat="39.71486247854738" lon="8.588222986032191"><ele>9.333333333333334</ele><time>2026-04-04T11:04:42Z</time></trkpt><trkpt lat="39.71475338852327" lon="8.588442582964973"><ele>9.0</ele><time>2026-04-04T11:04:43Z</time></trkpt><trkpt lat="39.71464134293066" lon="8.588662794469359"><ele>8.666666666666666</ele><time>2026-04-04T11:04:44Z</time></trkpt><trkpt lat="39.714527324079455" lon="8.58888182682668"><ele>8.333333333333332</ele><time>2026-04-04T11:04:45Z</time></trkpt><trkpt lat="39.71441303513529" lon="8.58909889553478"><ele>8.0</ele><time>2026-04-04T11:04:46Z</time></trkpt><trkpt lat="39.714298702274704" lon="8.58931584367197"><ele>8.0</ele><time>2026-04-04T11:04:47Z</time></trkpt><trkpt lat="39.71418424933674" lon="8.589532702275653"><ele>8.0</ele><time>2026-04-04T11:04:48Z</time></trkpt><trkpt lat="39.71407148830095" lon="8.589747711960465"><ele>8.0</ele><time>2026-04-04T11:04:49Z</time></trkpt><trkpt lat="39.71396035998792" lon="8.589957184538921"><ele>8.0</ele><time>2026-04-04T11:04:50Z</time></trkpt><trkpt lat="39.71385485849023" lon="8.590161554798247"><ele>8.0</ele><time>2026-04-04T11:04:51Z</time></trkpt><trkpt lat="39.713754077959415" lon="8.590360252878824"><ele>8.0</ele><time>2026-04-04T11:04:52Z</time></trkpt><trkpt lat="39.71365278590419" lon="8.59056130722652"><ele>8.0</ele><time>2026-04-04T11:04:53Z</time></trkpt><trkpt lat="39.71354985442335" lon="8.59076558541235"><ele>8.0</ele><time>2026-04-04T11:04:54Z</time></trkpt><trkpt lat="39.7134481758413" lon="8.590968656050993"><ele>8.0</ele><time>2026-04-04T11:04:55Z</time></trkpt><trkpt lat="39.71334350190455" lon="8.591178934289028"><ele>8.0</ele><time>2026-04-04T11:04:56Z</time></trkpt><trkpt lat="39.71323751593284" lon="8.591389007362855"><ele>8.0</ele><time>2026-04-04T11:04:57Z</time></trkpt><trkpt lat="39.71312825178172" lon="8.59160091276938"><ele>8.0</ele><time>2026-04-04T11:04:58Z</time></trkpt><trkpt lat="39.71301796205627" lon="8.59181410961318"><ele>8.0</ele><time>2026-04-04T11:04:59Z</time></trkpt><trkpt lat="39.712908908776285" lon="8.592031295864803"><ele>8.0</ele><time>2026-04-04T11:05:00Z</time></trkpt><trkpt lat="39.71280188399342" lon="8.592250545725305"><ele>8.0</ele><time>2026-04-04T11:05:01Z</time></trkpt><trkpt lat="39.71269690914224" lon="8.592474164220357"><ele>7.666666666666666</ele><time>2026-04-04T11:05:02Z</time></trkpt><trkpt lat="39.71259367103105" lon="8.592701611832815"><ele>7.333333333333334</ele><time>2026-04-04T11:05:03Z</time></trkpt><trkpt lat="39.7124930042765" lon="8.592930037975032"><ele>7.0</ele><time>2026-04-04T11:05:04Z</time></trkpt><trkpt lat="39.71239615123323" lon="8.593165475409192"><ele>7.0</ele><time>2026-04-04T11:05:05Z</time></trkpt><trkpt lat="39.71230835733504" lon="8.593410152711655"><ele>7.0</ele><time>2026-04-04T11:05:06Z</time></trkpt><trkpt lat="39.712232311000115" lon="8.59366089792429"><ele>7.0</ele><time>2026-04-04T11:05:07Z</time></trkpt><trkpt lat="39.712169588283984" lon="8.593922786485258"><ele>7.333333333333334</ele><time>2026-04-04T11:05:08Z</time></trkpt><trkpt lat="39.712120113181726" lon="8.59419448620885"><ele>7.666666666666666</ele><time>2026-04-04T11:05:09Z</time></trkpt><trkpt lat="39.71207302946222" lon="8.594465869363798"><ele>8.0</ele><time>2026-04-04T11:05:10Z</time></trkpt><trkpt lat="39.71202455021037" lon="8.594748101634151"><ele>8.0</ele><time>2026-04-04T11:05:11Z</time></trkpt><trkpt lat="39.71197020388941" lon="8.595037084261474"><ele>8.0</ele><time>2026-04-04T11:05:12Z</time></trkpt><trkpt lat="39.711915424540514" lon="8.59532511867411"><ele>8.333333333333332</ele><time>2026-04-04T11:05:13Z</time></trkpt><trkpt lat="39.71186452689878" lon="8.595614630265537"><ele>8.666666666666666</ele><time>2026-04-04T11:05:14Z</time></trkpt><trkpt lat="39.71181831834866" lon="8.595894986865707"><ele>9.0</ele><time>2026-04-04T11:05:15Z</time></trkpt><trkpt lat="39.711776229359295" lon="8.59616408741298"><ele>9.0</ele><time>2026-04-04T11:05:16Z</time></trkpt><trkpt lat="39.71172826672546" lon="8.596454188603277"><ele>9.0</ele><time>2026-04-04T11:05:17Z</time></trkpt><trkpt lat="39.711696439911776" lon="8.596656436430862"><ele>9.0</ele><time>2026-04-04T11:05:18Z</time></trkpt><trkpt lat="39.711651701224156" lon="8.596921184167728"><ele>9.0</ele><time>2026-04-04T11:05:19Z</time></trkpt><trkpt lat="39.71161471684664" lon="8.597186827519911"><ele>9.0</ele><time>2026-04-04T11:05:20Z</time></trkpt><trkpt lat="39.71159437118113" lon="8.59745848440255"><ele>9.0</ele><time>2026-04-04T11:05:21Z</time></trkpt><trkpt lat="39.71159707256704" lon="8.597734248580808"><ele>9.333333333333334</ele><time>2026-04-04T11:05:22Z</time></trkpt><trkpt lat="39.71161992336914" lon="8.598017005927414"><ele>9.666666666666668</ele><time>2026-04-04T11:05:23Z</time></trkpt><trkpt lat="39.711652982010264" lon="8.59830103462141"><ele>10.0</ele><time>2026-04-04T11:05:24Z</time></trkpt><trkpt lat="39.71169301485355" lon="8.598579702145386"><ele>9.666666666666668</ele><time>2026-04-04T11:05:25Z</time></trkpt><trkpt lat="39.71173712054391" lon="8.598845879289263"><ele>9.333333333333334</ele><time>2026-04-04T11:05:26Z</time></trkpt><trkpt lat="39.71177945196091" lon="8.599103517051908"><ele>9.0</ele><time>2026-04-04T11:05:27Z</time></trkpt><trkpt lat="39.71181310949491" lon="8.599355747868996"><ele>8.333333333333334</ele><time>2026-04-04T11:05:28Z</time></trkpt><trkpt lat="39.71182164198461" lon="8.59960692560711"><ele>7.666666666666667</ele><time>2026-04-04T11:05:29Z</time></trkpt><trkpt lat="39.7117746609855" lon="8.599845877736364"><ele>7.0</ele><time>2026-04-04T11:05:30Z</time></trkpt><trkpt lat="39.71174933343454" lon="8.600095528484253"><ele>6.666666666666667</ele><time>2026-04-04T11:05:31Z</time></trkpt><trkpt lat="39.71169003231629" lon="8.600344035347629"><ele>6.333333333333334</ele><time>2026-04-04T11:05:32Z</time></trkpt><trkpt lat="39.71164249030278" lon="8.600600704098339"><ele>6.0</ele><time>2026-04-04T11:05:33Z</time></trkpt><trkpt lat="39.711600161774655" lon="8.600865184284606"><ele>6.0</ele><time>2026-04-04T11:05:34Z</time></trkpt><trkpt lat="39.711557628787894" lon="8.601129669039754"><ele>6.0</ele><time>2026-04-04T11:05:35Z</time></trkpt><trkpt lat="39.711511070437" lon="8.601396493248368"><ele>6.0</ele><time>2026-04-04T11:05:36Z</time></trkpt><trkpt lat="39.71145919965172" lon="8.601663476840173"><ele>7.0</ele><time>2026-04-04T11:05:37Z</time></trkpt><trkpt lat="39.711410547926626" lon="8.601931858713641"><ele>8.0</ele><time>2026-04-04T11:05:38Z</time></trkpt><trkpt lat="39.71135928980469" lon="8.602195211663222"><ele>9.0</ele><time>2026-04-04T11:05:39Z</time></trkpt><trkpt lat="39.711307914756226" lon="8.602448718368347"><ele>9.666666666666666</ele><time>2026-04-04T11:05:40Z</time></trkpt><trkpt lat="39.71125754878145" lon="8.602703610350956"><ele>10.333333333333332</ele><time>2026-04-04T11:05:41Z</time></trkpt><trkpt lat="39.71121134451784" lon="8.602956683937762"><ele>11.0</ele><time>2026-04-04T11:05:42Z</time></trkpt><trkpt lat="39.71116299779591" lon="8.603208844411954"><ele>9.666666666666666</ele><time>2026-04-04T11:05:43Z</time></trkpt><trkpt lat="39.71111139205944" lon="8.603458225139134"><ele>8.333333333333334</ele><time>2026-04-04T11:05:44Z</time></trkpt><trkpt lat="39.711064640066766" lon="8.60370462489086"><ele>7.0</ele><time>2026-04-04T11:05:45Z</time></trkpt><trkpt lat="39.711017564405545" lon="8.603948781954987"><ele>7.0</ele><time>2026-04-04T11:05:46Z</time></trkpt><trkpt lat="39.710968046398925" lon="8.604196454444955"><ele>7.0</ele><time>2026-04-04T11:05:47Z</time></trkpt><trkpt lat="39.710919967404486" lon="8.604454672845584"><ele>7.0</ele><time>2026-04-04T11:05:48Z</time></trkpt><trkpt lat="39.710875647434285" lon="8.604718518511914"><ele>6.666666666666667</ele><time>2026-04-04T11:05:49Z</time></trkpt><trkpt lat="39.71083810868386" lon="8.604991226117333"><ele>6.333333333333334</ele><time>2026-04-04T11:05:50Z</time></trkpt><trkpt lat="39.71080685966679" lon="8.605269965543528"><ele>6.0</ele><time>2026-04-04T11:05:51Z</time></trkpt><trkpt lat="39.710779327353016" lon="8.605550056699727"><ele>6.0</ele><time>2026-04-04T11:05:52Z</time></trkpt><trkpt lat="39.71076496251917" lon="8.605835611795728"><ele>6.0</ele><time>2026-04-04T11:05:53Z</time></trkpt><trkpt lat="39.710764770377104" lon="8.606120943756348"><ele>6.0</ele><time>2026-04-04T11:05:54Z</time></trkpt><trkpt lat="39.71078458458145" lon="8.60640533151677"><ele>6.333333333333334</ele><time>2026-04-04T11:05:55Z</time></trkpt><trkpt lat="39.71080840696251" lon="8.606689812228657"><ele>6.666666666666667</ele><time>2026-04-04T11:05:56Z</time></trkpt><trkpt lat="39.71082045694619" lon="8.606975869346934"><ele>7.0</ele><time>2026-04-04T11:05:57Z</time></trkpt><trkpt lat="39.71080951618783" lon="8.60726465528773"><ele>7.0</ele><time>2026-04-04T11:05:58Z</time></trkpt><trkpt lat="39.71078546036851" lon="8.607551900814132"><ele>7.0</ele><time>2026-04-04T11:05:59Z</time></trkpt><trkpt lat="39.710733185207154" lon="8.607834939011125"><ele>7.0</ele><time>2026-04-04T11:06:00Z</time></trkpt><trkpt lat="39.71066790137814" lon="8.608110024259446"><ele>7.333333333333334</ele><time>2026-04-04T11:06:01Z</time></trkpt><trkpt lat="39.71061060965274" lon="8.608387343188596"><ele>7.666666666666666</ele><time>2026-04-04T11:06:02Z</time></trkpt><trkpt lat="39.71057984415758" lon="8.608672091386183"><ele>8.0</ele><time>2026-04-04T11:06:03Z</time></trkpt><trkpt lat="39.71057331204234" lon="8.608963796137221"><ele>8.0</ele><time>2026-04-04T11:06:04Z</time></trkpt><trkpt lat="39.710587688178364" lon="8.609254097352935"><ele>8.0</ele><time>2026-04-04T11:06:05Z</time></trkpt><trkpt lat="39.71063817515076" lon="8.60953497798538"><ele>8.0</ele><time>2026-04-04T11:06:06Z</time></trkpt><trkpt lat="39.7107162659125" lon="8.6098094015324"><ele>8.0</ele><time>2026-04-04T11:06:07Z</time></trkpt><trkpt lat="39.710817118920964" lon="8.610071898359035"><ele>8.0</ele><time>2026-04-04T11:06:08Z</time></trkpt><trkpt lat="39.710936751956446" lon="8.610316158639943"><ele>8.0</ele><time>2026-04-04T11:06:09Z</time></trkpt><trkpt lat="39.711054891863114" lon="8.610539889019108"><ele>8.0</ele><time>2026-04-04T11:06:10Z</time></trkpt><trkpt lat="39.711158045398996" lon="8.610753788764653"><ele>8.0</ele><time>2026-04-04T11:06:11Z</time></trkpt><trkpt lat="39.71123688178196" lon="8.610974332879413"><ele>8.0</ele><time>2026-04-04T11:06:12Z</time></trkpt><trkpt lat="39.711288588613854" lon="8.611203489309133"><ele>8.0</ele><time>2026-04-04T11:06:13Z</time></trkpt><trkpt lat="39.711322130287485" lon="8.611444153870604"><ele>8.0</ele><time>2026-04-04T11:06:14Z</time></trkpt><trkpt lat="39.71135340142922" lon="8.611697630418451"><ele>8.0</ele><time>2026-04-04T11:06:15Z</time></trkpt><trkpt lat="39.7113643974512" lon="8.611954861520717"><ele>8.0</ele><time>2026-04-04T11:06:16Z</time></trkpt><trkpt lat="39.71136660348158" lon="8.612221635633333"><ele>8.0</ele><time>2026-04-04T11:06:17Z</time></trkpt><trkpt lat="39.71136920536609" lon="8.612494206489211"><ele>8.0</ele><time>2026-04-04T11:06:18Z</time></trkpt><trkpt lat="39.71137556963114" lon="8.612777197856442"><ele>7.5</ele><time>2026-04-04T11:06:19Z</time></trkpt><trkpt lat="39.711385251022655" lon="8.613067416483112"><ele>7.0</ele><time>2026-04-04T11:06:20Z</time></trkpt><trkpt lat="39.71139459885078" lon="8.613363573318962"><ele>7.0</ele><time>2026-04-04T11:06:21Z</time></trkpt><trkpt lat="39.711403762510756" lon="8.613654331332892"><ele>7.0</ele><time>2026-04-04T11:06:22Z</time></trkpt><trkpt lat="39.71141332874404" lon="8.613941986492597"><ele>7.0</ele><time>2026-04-04T11:06:23Z</time></trkpt><trkpt lat="39.71142125145185" lon="8.614224458583381"><ele>7.666666666666667</ele><time>2026-04-04T11:06:24Z</time></trkpt><trkpt lat="39.711428659923264" lon="8.614501239920939"><ele>8.333333333333334</ele><time>2026-04-04T11:06:25Z</time></trkpt><trkpt lat="39.71144015617053" lon="8.614772484343542"><ele>9.0</ele><time>2026-04-04T11:06:26Z</time></trkpt><trkpt lat="39.711452349040506" lon="8.6150402045588"><ele>9.0</ele><time>2026-04-04T11:06:27Z</time></trkpt><trkpt lat="39.7114628216117" lon="8.615302704605146"><ele>9.0</ele><time>2026-04-04T11:06:28Z</time></trkpt><trkpt lat="39.711471582634104" lon="8.615564092041131"><ele>9.0</ele><time>2026-04-04T11:06:29Z</time></trkpt><trkpt lat="39.71147559110534" lon="8.615822079283431"><ele>9.0</ele><time>2026-04-04T11:06:30Z</time></trkpt><trkpt lat="39.711465295512255" lon="8.616076865937464"><ele>9.0</ele><time>2026-04-04T11:06:31Z</time></trkpt><trkpt lat="39.71143699609228" lon="8.616327067159697"><ele>9.0</ele><time>2026-04-04T11:06:32Z</time></trkpt><trkpt lat="39.71140325917308" lon="8.616572534963645"><ele>9.0</ele><time>2026-04-04T11:06:33Z</time></trkpt><trkpt lat="39.7113717250379" lon="8.616812346953093"><ele>9.0</ele><time>2026-04-04T11:06:34Z</time></trkpt><trkpt lat="39.71134790555948" lon="8.617039263346538"><ele>9.0</ele><time>2026-04-04T11:06:35Z</time></trkpt><trkpt lat="39.71133174571163" lon="8.617258173587416"><ele>9.0</ele><time>2026-04-04T11:06:36Z</time></trkpt><trkpt lat="39.711329141371905" lon="8.617476086658572"><ele>9.0</ele><time>2026-04-04T11:06:37Z</time></trkpt><trkpt lat="39.711344640844146" lon="8.617701115812144"><ele>9.0</ele><time>2026-04-04T11:06:38Z</time></trkpt><trkpt lat="39.71136832681645" lon="8.617930781300734"><ele>9.333333333333334</ele><time>2026-04-04T11:06:39Z</time></trkpt><trkpt lat="39.7114014720113" lon="8.618165576895993"><ele>9.666666666666668</ele><time>2026-04-04T11:06:40Z</time></trkpt><trkpt lat="39.71143666832531" lon="8.618402036202378"><ele>10.0</ele><time>2026-04-04T11:06:41Z</time></trkpt><trkpt lat="39.71147111735382" lon="8.618645806753346"><ele>10.333333333333334</ele><time>2026-04-04T11:06:42Z</time></trkpt><trkpt lat="39.71150241850858" lon="8.618889363212192"><ele>10.666666666666666</ele><time>2026-04-04T11:06:43Z</time></trkpt><trkpt lat="39.71152924647973" lon="8.61913758943698"><ele>11.0</ele><time>2026-04-04T11:06:44Z</time></trkpt><trkpt lat="39.71155198427491" lon="8.61938963946404"><ele>10.666666666666666</ele><time>2026-04-04T11:06:45Z</time></trkpt><trkpt lat="39.7115698998088" lon="8.619645744947722"><ele>10.333333333333334</ele><time>2026-04-04T11:06:46Z</time></trkpt><trkpt lat="39.711581902384914" lon="8.61990536751415"><ele>10.0</ele><time>2026-04-04T11:06:47Z</time></trkpt><trkpt lat="39.711589700328126" lon="8.620164993741923"><ele>9.666666666666668</ele><time>2026-04-04T11:06:48Z</time></trkpt><trkpt lat="39.71159855259266" lon="8.620430745578796"><ele>9.333333333333334</ele><time>2026-04-04T11:06:49Z</time></trkpt><trkpt lat="39.71160896826205" lon="8.62069566858671"><ele>9.0</ele><time>2026-04-04T11:06:50Z</time></trkpt><trkpt lat="39.71161934801336" lon="8.620965393671298"><ele>8.666666666666666</ele><time>2026-04-04T11:06:51Z</time></trkpt><trkpt lat="39.71163261785945" lon="8.621236859199174"><ele>8.333333333333332</ele><time>2026-04-04T11:06:52Z</time></trkpt><trkpt lat="39.71164996169047" lon="8.621501841506337"><ele>8.0</ele><time>2026-04-04T11:06:53Z</time></trkpt><trkpt lat="39.71168233271044" lon="8.621776037257922"><ele>7.666666666666666</ele><time>2026-04-04T11:06:54Z</time></trkpt><trkpt lat="39.71173924487944" lon="8.622043668953916"><ele>7.333333333333334</ele><time>2026-04-04T11:06:55Z</time></trkpt><trkpt lat="39.71180972176073" lon="8.622311961828048"><ele>7.0</ele><time>2026-04-04T11:06:56Z</time></trkpt><trkpt lat="39.711880127053966" lon="8.622576799560184"><ele>7.666666666666667</ele><time>2026-04-04T11:06:57Z</time></trkpt><trkpt lat="39.71195060139916" lon="8.622844304074972"><ele>8.333333333333334</ele><time>2026-04-04T11:06:58Z</time></trkpt><trkpt lat="39.712020787036785" lon="8.62310843821522"><ele>9.0</ele><time>2026-04-04T11:06:59Z</time></trkpt><trkpt lat="39.71208988989064" lon="8.623370177795733"><ele>9.0</ele><time>2026-04-04T11:07:00Z</time></trkpt><trkpt lat="39.712158770091236" lon="8.623631453532687"><ele>9.0</ele><time>2026-04-04T11:07:01Z</time></trkpt><trkpt lat="39.71222707618447" lon="8.623888028802444"><ele>9.0</ele><time>2026-04-04T11:07:02Z</time></trkpt><trkpt lat="39.71229101215276" lon="8.624137801965011"><ele>9.333333333333334</ele><time>2026-04-04T11:07:03Z</time></trkpt><trkpt lat="39.71235651078021" lon="8.624368300819118"><ele>9.666666666666668</ele><time>2026-04-04T11:07:04Z</time></trkpt><trkpt lat="39.71242005434962" lon="8.624594086429541"><ele>10.0</ele><time>2026-04-04T11:07:05Z</time></trkpt><trkpt lat="39.712486590222746" lon="8.624812512333316"><ele>10.0</ele><time>2026-04-04T11:07:06Z</time></trkpt><trkpt lat="39.712560204088035" lon="8.625024505068527"><ele>10.0</ele><time>2026-04-04T11:07:07Z</time></trkpt><trkpt lat="39.71263831522643" lon="8.62523238627247"><ele>10.0</ele><time>2026-04-04T11:07:08Z</time></trkpt><trkpt lat="39.71271556613841" lon="8.625431666712032"><ele>9.666666666666668</ele><time>2026-04-04T11:07:09Z</time></trkpt><trkpt lat="39.71278989017651" lon="8.625628011314827"><ele>9.333333333333334</ele><time>2026-04-04T11:07:10Z</time></trkpt><trkpt lat="39.7128633447747" lon="8.625816029188147"><ele>9.0</ele><time>2026-04-04T11:07:11Z</time></trkpt><trkpt lat="39.712935268746634" lon="8.625996525430503"><ele>8.666666666666666</ele><time>2026-04-04T11:07:12Z</time></trkpt><trkpt lat="39.71300380117921" lon="8.626175523832915"><ele>8.333333333333332</ele><time>2026-04-04T11:07:13Z</time></trkpt><trkpt lat="39.71306596926317" lon="8.626360056624213"><ele>8.0</ele><time>2026-04-04T11:07:14Z</time></trkpt><trkpt lat="39.71311995418555" lon="8.626551301523035"><ele>8.0</ele><time>2026-04-04T11:07:15Z</time></trkpt><trkpt lat="39.7131679692324" lon="8.626748180427208"><ele>8.0</ele><time>2026-04-04T11:07:16Z</time></trkpt><trkpt lat="39.713216719526685" lon="8.626947118592472"><ele>8.0</ele><time>2026-04-04T11:07:17Z</time></trkpt><trkpt lat="39.7132700522688" lon="8.627143483200237"><ele>8.0</ele><time>2026-04-04T11:07:18Z</time></trkpt><trkpt lat="39.713323164341055" lon="8.627339638743413"><ele>8.0</ele><time>2026-04-04T11:07:19Z</time></trkpt><trkpt lat="39.713373730035414" lon="8.627526532025648"><ele>8.0</ele><time>2026-04-04T11:07:20Z</time></trkpt><trkpt lat="39.71341966929998" lon="8.627697892389868"><ele>8.200000000000001</ele><time>2026-04-04T11:07:21Z</time></trkpt><trkpt lat="39.713456995218834" lon="8.62784275152001"><ele>8.4</ele><time>2026-04-04T11:07:22Z</time></trkpt><trkpt lat="39.71348040253189" lon="8.627966422532973"><ele>8.600000000000001</ele><time>2026-04-04T11:07:23Z</time></trkpt><trkpt lat="39.71347887561748" lon="8.62807165510459"><ele>8.8</ele><time>2026-04-04T11:07:24Z</time></trkpt><trkpt lat="39.713445838268086" lon="8.628160421040793"><ele>9.0</ele><time>2026-04-04T11:07:25Z</time></trkpt><trkpt lat="39.71337943755979" lon="8.628245103317301"><ele>9.0</ele><time>2026-04-04T11:07:26Z</time></trkpt><trkpt lat="39.713291492477346" lon="8.62834091895297"><ele>9.0</ele><time>2026-04-04T11:07:27Z</time></trkpt><trkpt lat="39.71320353102922" lon="8.62844835948982"><ele>9.0</ele><time>2026-04-04T11:07:28Z</time></trkpt><trkpt lat="39.713105706333145" lon="8.628576214425262"><ele>9.0</ele><time>2026-04-04T11:07:29Z</time></trkpt><trkpt lat="39.71300366991834" lon="8.628721839307856"><ele>9.0</ele><time>2026-04-04T11:07:30Z</time></trkpt><trkpt lat="39.71289688328424" lon="8.6288768578654"><ele>9.0</ele><time>2026-04-04T11:07:31Z</time></trkpt><trkpt lat="39.712784263177156" lon="8.629041369064199"><ele>9.0</ele><time>2026-04-04T11:07:32Z</time></trkpt><trkpt lat="39.712668083958846" lon="8.629212773405118"><ele>9.0</ele><time>2026-04-04T11:07:33Z</time></trkpt><trkpt lat="39.712543900166715" lon="8.629391135548213"><ele>9.0</ele><time>2026-04-04T11:07:34Z</time></trkpt><trkpt lat="39.71242074947106" lon="8.629560681373283"><ele>9.0</ele><time>2026-04-04T11:07:35Z</time></trkpt><trkpt lat="39.71229583831181" lon="8.629729813876956"><ele>9.0</ele><time>2026-04-04T11:07:36Z</time></trkpt><trkpt lat="39.712172184024816" lon="8.629900490664438"><ele>9.0</ele><time>2026-04-04T11:07:37Z</time></trkpt><trkpt lat="39.71204681169427" lon="8.630079464150764"><ele>9.0</ele><time>2026-04-04T11:07:38Z</time></trkpt><trkpt lat="39.71192151121503" lon="8.630262710362027"><ele>9.666666666666666</ele><time>2026-04-04T11:07:39Z</time></trkpt><trkpt lat="39.71179277532967" lon="8.630448843961716"><ele>10.333333333333332</ele><time>2026-04-04T11:07:40Z</time></trkpt><trkpt lat="39.711661846496675" lon="8.630637262001615"><ele>11.0</ele><time>2026-04-04T11:07:41Z</time></trkpt><trkpt lat="39.71152936832228" lon="8.630826493078873"><ele>11.0</ele><time>2026-04-04T11:07:42Z</time></trkpt><trkpt lat="39.71139543146211" lon="8.631018518545968"><ele>11.0</ele><time>2026-04-04T11:07:43Z</time></trkpt><trkpt lat="39.71126052007019" lon="8.631209942872882"><ele>11.0</ele><time>2026-04-04T11:07:44Z</time></trkpt><trkpt lat="39.7111227825972" lon="8.631404312528392"><ele>10.666666666666666</ele><time>2026-04-04T11:07:45Z</time></trkpt><trkpt lat="39.71098406284015" lon="8.631599430036125"><ele>10.333333333333334</ele><time>2026-04-04T11:07:46Z</time></trkpt><trkpt lat="39.71084447876024" lon="8.631796029063548"><ele>10.0</ele><time>2026-04-04T11:07:47Z</time></trkpt><trkpt lat="39.71070576250512" lon="8.631993874611686"><ele>9.0</ele><time>2026-04-04T11:07:48Z</time></trkpt><trkpt lat="39.7105710556272" lon="8.632184802222683"><ele>8.0</ele><time>2026-04-04T11:07:49Z</time></trkpt><trkpt lat="39.71044672682735" lon="8.632362345946177"><ele>7.0</ele><time>2026-04-04T11:07:50Z</time></trkpt><trkpt lat="39.710331032257955" lon="8.632528299035602"><ele>7.333333333333334</ele><time>2026-04-04T11:07:51Z</time></trkpt><trkpt lat="39.71021494032403" lon="8.632693340670913"><ele>7.666666666666666</ele><time>2026-04-04T11:07:52Z</time></trkpt><trkpt lat="39.710102119740235" lon="8.632855383312613"><ele>8.0</ele><time>2026-04-04T11:07:53Z</time></trkpt><trkpt lat="39.7099862891185" lon="8.63302056710658"><ele>8.0</ele><time>2026-04-04T11:07:54Z</time></trkpt><trkpt lat="39.70986864572736" lon="8.633186289782406"><ele>8.0</ele><time>2026-04-04T11:07:55Z</time></trkpt><trkpt lat="39.70974858768814" lon="8.633354194249772"><ele>8.0</ele><time>2026-04-04T11:07:56Z</time></trkpt><trkpt lat="39.70962491197566" lon="8.633527011558595"><ele>8.333333333333332</ele><time>2026-04-04T11:07:57Z</time></trkpt><trkpt lat="39.70950541876824" lon="8.633697582878625"><ele>8.666666666666666</ele><time>2026-04-04T11:07:58Z</time></trkpt><trkpt lat="39.70938961893577" lon="8.633867334827057"><ele>9.0</ele><time>2026-04-04T11:07:59Z</time></trkpt><trkpt lat="39.7092761606265" lon="8.634035843813267"><ele>9.0</ele><time>2026-04-04T11:08:00Z</time></trkpt><trkpt lat="39.70916323691116" lon="8.634207606055538"><ele>9.0</ele><time>2026-04-04T11:08:01Z</time></trkpt><trkpt lat="39.70905664879005" lon="8.634380878684507"><ele>9.0</ele><time>2026-04-04T11:08:02Z</time></trkpt><trkpt lat="39.70895868659114" lon="8.63456087318917"><ele>9.666666666666666</ele><time>2026-04-04T11:08:03Z</time></trkpt><trkpt lat="39.70887102042878" lon="8.634749562723442"><ele>10.333333333333332</ele><time>2026-04-04T11:08:04Z</time></trkpt><trkpt lat="39.70879597609283" lon="8.634941997885148"><ele>11.0</ele><time>2026-04-04T11:08:05Z</time></trkpt><trkpt lat="39.70873260298486" lon="8.635138342387211"><ele>11.0</ele><time>2026-04-04T11:08:06Z</time></trkpt><trkpt lat="39.70867321356348" lon="8.63534402108157"><ele>11.0</ele><time>2026-04-04T11:08:07Z</time></trkpt><trkpt lat="39.708621494646316" lon="8.635554087148853"><ele>11.0</ele><time>2026-04-04T11:08:08Z</time></trkpt><trkpt lat="39.70858147876516" lon="8.635769360142929"><ele>10.666666666666666</ele><time>2026-04-04T11:08:09Z</time></trkpt><trkpt lat="39.70855156174627" lon="8.635989150922255"><ele>10.333333333333334</ele><time>2026-04-04T11:08:10Z</time></trkpt><trkpt lat="39.70853125160253" lon="8.636208555339932"><ele>10.0</ele><time>2026-04-04T11:08:11Z</time></trkpt><trkpt lat="39.708520096658056" lon="8.636416240482847"><ele>10.5</ele><time>2026-04-04T11:08:12Z</time></trkpt><trkpt lat="39.70850639470703" lon="8.636617623306636"><ele>11.0</ele><time>2026-04-04T11:08:13Z</time></trkpt><trkpt lat="39.70848995653723" lon="8.636804212972118"><ele>11.5</ele><time>2026-04-04T11:08:14Z</time></trkpt><trkpt lat="39.70847017534494" lon="8.6369821749936"><ele>12.0</ele><time>2026-04-04T11:08:15Z</time></trkpt><trkpt lat="39.708445680446225" lon="8.637143113093858"><ele>12.0</ele><time>2026-04-04T11:08:16Z</time></trkpt><trkpt lat="39.70840173806839" lon="8.63727262963967"><ele>12.0</ele><time>2026-04-04T11:08:17Z</time></trkpt><trkpt lat="39.708341982570914" lon="8.637384766221741"><ele>12.0</ele><time>2026-04-04T11:08:18Z</time></trkpt><trkpt lat="39.70827364641945" lon="8.63747913020361"><ele>12.0</ele><time>2026-04-04T11:08:19Z</time></trkpt><trkpt lat="39.70818598223999" lon="8.637567073354344"><ele>12.0</ele><time>2026-04-04T11:08:20Z</time></trkpt><trkpt lat="39.70806818604614" lon="8.637633636037517"><ele>12.0</ele><time>2026-04-04T11:08:21Z</time></trkpt><trkpt lat="39.70795673435755" lon="8.637737381325358"><ele>12.0</ele><time>2026-04-04T11:08:22Z</time></trkpt><trkpt lat="39.707790479166306" lon="8.637765081730688"><ele>12.0</ele><time>2026-04-04T11:08:23Z</time></trkpt><trkpt lat="39.70763931235477" lon="8.637841398141699"><ele>11.666666666666666</ele><time>2026-04-04T11:08:24Z</time></trkpt><trkpt lat="39.70748028554644" lon="8.63791521441933"><ele>11.333333333333332</ele><time>2026-04-04T11:08:25Z</time></trkpt><trkpt lat="39.707313921091405" lon="8.637982248560355"><ele>11.0</ele><time>2026-04-04T11:08:26Z</time></trkpt><trkpt lat="39.70714001730701" lon="8.638052635450077"><ele>11.0</ele><time>2026-04-04T11:08:27Z</time></trkpt><trkpt lat="39.70697049817883" lon="8.638127556526962"><ele>11.0</ele><time>2026-04-04T11:08:28Z</time></trkpt><trkpt lat="39.70679783968332" lon="8.638202926725667"><ele>11.0</ele><time>2026-04-04T11:08:29Z</time></trkpt><trkpt lat="39.7066191474248" lon="8.638271990097348"><ele>11.0</ele><time>2026-04-04T11:08:30Z</time></trkpt><trkpt lat="39.706434614198" lon="8.63833989648762"><ele>11.0</ele><time>2026-04-04T11:08:31Z</time></trkpt><trkpt lat="39.706249772706926" lon="8.63841144081576"><ele>11.0</ele><time>2026-04-04T11:08:32Z</time></trkpt><trkpt lat="39.70605939156129" lon="8.638483564720161"><ele>10.666666666666666</ele><time>2026-04-04T11:08:33Z</time></trkpt><trkpt lat="39.7058688820845" lon="8.638554835641113"><ele>10.333333333333334</ele><time>2026-04-04T11:08:34Z</time></trkpt><trkpt lat="39.70567539820043" lon="8.638629281710452"><ele>10.0</ele><time>2026-04-04T11:08:35Z</time></trkpt><trkpt lat="39.705478996436035" lon="8.638704097971612"><ele>10.0</ele><time>2026-04-04T11:08:36Z</time></trkpt><trkpt lat="39.70527940558385" lon="8.638777137185615"><ele>10.0</ele><time>2026-04-04T11:08:37Z</time></trkpt><trkpt lat="39.705084045514326" lon="8.638847824693647"><ele>10.0</ele><time>2026-04-04T11:08:38Z</time></trkpt><trkpt lat="39.70488430109872" lon="8.638922189196666"><ele>10.666666666666668</ele><time>2026-04-04T11:08:39Z</time></trkpt><trkpt lat="39.70468321413244" lon="8.63899873005011"><ele>11.333333333333334</ele><time>2026-04-04T11:08:40Z</time></trkpt><trkpt lat="39.7044815050401" lon="8.63907520271662"><ele>12.0</ele><time>2026-04-04T11:08:41Z</time></trkpt><trkpt lat="39.70427626607653" lon="8.63915372964959"><ele>12.0</ele><time>2026-04-04T11:08:42Z</time></trkpt><trkpt lat="39.70407209144442" lon="8.639228725359562"><ele>12.0</ele><time>2026-04-04T11:08:43Z</time></trkpt><trkpt lat="39.703867500219125" lon="8.63930432506716"><ele>12.0</ele><time>2026-04-04T11:08:44Z</time></trkpt><trkpt lat="39.70366847991732" lon="8.63937728965757"><ele>12.333333333333332</ele><time>2026-04-04T11:08:45Z</time></trkpt><trkpt lat="39.70346718949652" lon="8.639443982654853"><ele>12.666666666666666</ele><time>2026-04-04T11:08:46Z</time></trkpt><trkpt lat="39.70327260870138" lon="8.639513715679428"><ele>13.0</ele><time>2026-04-04T11:08:47Z</time></trkpt><trkpt lat="39.70307740107918" lon="8.639584062559424"><ele>13.0</ele><time>2026-04-04T11:08:48Z</time></trkpt><trkpt lat="39.70287508673019" lon="8.639658476398392"><ele>13.0</ele><time>2026-04-04T11:08:49Z</time></trkpt><trkpt lat="39.702667943319284" lon="8.639738115867097"><ele>13.0</ele><time>2026-04-04T11:08:50Z</time></trkpt><trkpt lat="39.70244578462823" lon="8.639837237609855"><ele>13.0</ele><time>2026-04-04T11:08:51Z</time></trkpt><trkpt lat="39.702238699538555" lon="8.639924673848851"><ele>13.0</ele><time>2026-04-04T11:08:52Z</time></trkpt><trkpt lat="39.70204728937951" lon="8.640000051545536"><ele>13.0</ele><time>2026-04-04T11:08:53Z</time></trkpt><trkpt lat="39.7018536969812" lon="8.640068525639354"><ele>13.0</ele><time>2026-04-04T11:08:54Z</time></trkpt><trkpt lat="39.70165631501738" lon="8.640137254914274"><ele>13.0</ele><time>2026-04-04T11:08:55Z</time></trkpt><trkpt lat="39.7014976503479" lon="8.640200794025239"><ele>13.0</ele><time>2026-04-04T11:08:56Z</time></trkpt><trkpt lat="39.701313738272816" lon="8.640264443641843"><ele>13.333333333333332</ele><time>2026-04-04T11:08:57Z</time></trkpt><trkpt lat="39.70112918475526" lon="8.640331191206393"><ele>13.666666666666668</ele><time>2026-04-04T11:08:58Z</time></trkpt><trkpt lat="39.700944055483575" lon="8.640399290587178"><ele>14.0</ele><time>2026-04-04T11:08:59Z</time></trkpt><trkpt lat="39.700758346022084" lon="8.64046830812333"><ele>14.0</ele><time>2026-04-04T11:09:00Z</time></trkpt><trkpt lat="39.70056716058081" lon="8.640537321873548"><ele>14.0</ele><time>2026-04-04T11:09:01Z</time></trkpt><trkpt lat="39.700369808164005" lon="8.640607935544653"><ele>14.0</ele><time>2026-04-04T11:09:02Z</time></trkpt><trkpt lat="39.70016692907545" lon="8.640681445227845"><ele>13.666666666666668</ele><time>2026-04-04T11:09:03Z</time></trkpt><trkpt lat="39.69996037389564" lon="8.640752700270413"><ele>13.333333333333332</ele><time>2026-04-04T11:09:04Z</time></trkpt><trkpt lat="39.699751591591074" lon="8.640828031908674"><ele>13.0</ele><time>2026-04-04T11:09:05Z</time></trkpt><trkpt lat="39.69954179991492" lon="8.640906148303008"><ele>13.0</ele><time>2026-04-04T11:09:06Z</time></trkpt><trkpt lat="39.6993294049945" lon="8.64098464567455"><ele>13.0</ele><time>2026-04-04T11:09:07Z</time></trkpt><trkpt lat="39.69911638088792" lon="8.641060986485718"><ele>13.0</ele><time>2026-04-04T11:09:08Z</time></trkpt><trkpt lat="39.698898175241034" lon="8.641130833413161"><ele>13.0</ele><time>2026-04-04T11:09:09Z</time></trkpt><trkpt lat="39.698681831321885" lon="8.64120755623798"><ele>13.0</ele><time>2026-04-04T11:09:10Z</time></trkpt><trkpt lat="39.69846152558504" lon="8.641284776943394"><ele>14.0</ele><time>2026-04-04T11:09:11Z</time></trkpt><trkpt lat="39.69824192809459" lon="8.641362450494574"><ele>15.0</ele><time>2026-04-04T11:09:12Z</time></trkpt><trkpt lat="39.69802143497749" lon="8.641444651359482"><ele>15.0</ele><time>2026-04-04T11:09:13Z</time></trkpt><trkpt lat="39.6978037370549" lon="8.641526903949744"><ele>15.0</ele><time>2026-04-04T11:09:14Z</time></trkpt><trkpt lat="39.697584080370234" lon="8.641607454854958"><ele>14.5</ele><time>2026-04-04T11:09:15Z</time></trkpt><trkpt lat="39.69735924551933" lon="8.641687210124676"><ele>14.0</ele><time>2026-04-04T11:09:16Z</time></trkpt><trkpt lat="39.69713036794513" lon="8.641766867894763"><ele>14.0</ele><time>2026-04-04T11:09:17Z</time></trkpt><trkpt lat="39.69690174161692" lon="8.641855917539749"><ele>14.0</ele><time>2026-04-04T11:09:18Z</time></trkpt><trkpt lat="39.69667490874752" lon="8.641936048959506"><ele>14.5</ele><time>2026-04-04T11:09:19Z</time></trkpt><trkpt lat="39.69645055685657" lon="8.64201677978956"><ele>15.0</ele><time>2026-04-04T11:09:20Z</time></trkpt><trkpt lat="39.696217128579626" lon="8.642099842855401"><ele>15.0</ele><time>2026-04-04T11:09:21Z</time></trkpt><trkpt lat="39.69598941176442" lon="8.64217641672721"><ele>15.0</ele><time>2026-04-04T11:09:22Z</time></trkpt><trkpt lat="39.6957649600261" lon="8.642255953298907"><ele>15.0</ele><time>2026-04-04T11:09:23Z</time></trkpt><trkpt lat="39.69554081155152" lon="8.642338480017093"><ele>15.0</ele><time>2026-04-04T11:09:24Z</time></trkpt><trkpt lat="39.69531325075503" lon="8.642420078752297"><ele>15.0</ele><time>2026-04-04T11:09:25Z</time></trkpt><trkpt lat="39.69509384109201" lon="8.642501762052985"><ele>15.0</ele><time>2026-04-04T11:09:26Z</time></trkpt><trkpt lat="39.69486760722012" lon="8.642586586769585"><ele>15.0</ele><time>2026-04-04T11:09:27Z</time></trkpt><trkpt lat="39.69464303379839" lon="8.642662984738848"><ele>15.0</ele><time>2026-04-04T11:09:28Z</time></trkpt><trkpt lat="39.69441854758938" lon="8.642745016275207"><ele>15.0</ele><time>2026-04-04T11:09:29Z</time></trkpt><trkpt lat="39.69419801588356" lon="8.642826951313916"><ele>15.0</ele><time>2026-04-04T11:09:30Z</time></trkpt><trkpt lat="39.69397451169395" lon="8.642906046629916"><ele>15.0</ele><time>2026-04-04T11:09:31Z</time></trkpt><trkpt lat="39.69375069986077" lon="8.642979777832501"><ele>15.0</ele><time>2026-04-04T11:09:32Z</time></trkpt><trkpt lat="39.69352732076228" lon="8.643059931999277"><ele>15.0</ele><time>2026-04-04T11:09:33Z</time></trkpt><trkpt lat="39.693307214143445" lon="8.643139596990617"><ele>15.0</ele><time>2026-04-04T11:09:34Z</time></trkpt><trkpt lat="39.6930823611245" lon="8.643216812389282"><ele>15.0</ele><time>2026-04-04T11:09:35Z</time></trkpt><trkpt lat="39.69286183704492" lon="8.643294541518113"><ele>15.0</ele><time>2026-04-04T11:09:36Z</time></trkpt><trkpt lat="39.69263523804316" lon="8.643375113568405"><ele>15.0</ele><time>2026-04-04T11:09:37Z</time></trkpt><trkpt lat="39.69241412334722" lon="8.643451134183728"><ele>15.0</ele><time>2026-04-04T11:09:38Z</time></trkpt><trkpt lat="39.692193115139375" lon="8.643532668389366"><ele>15.0</ele><time>2026-04-04T11:09:39Z</time></trkpt><trkpt lat="39.69197616553884" lon="8.643609957364514"><ele>15.0</ele><time>2026-04-04T11:09:40Z</time></trkpt><trkpt lat="39.69175801898636" lon="8.643687678899207"><ele>14.5</ele><time>2026-04-04T11:09:41Z</time></trkpt><trkpt lat="39.69153709748872" lon="8.643761606980675"><ele>14.0</ele><time>2026-04-04T11:09:42Z</time></trkpt><trkpt lat="39.69131901046116" lon="8.643839502586603"><ele>14.0</ele><time>2026-04-04T11:09:43Z</time></trkpt><trkpt lat="39.69110743400734" lon="8.64391968135061"><ele>14.0</ele><time>2026-04-04T11:09:44Z</time></trkpt><trkpt lat="39.69089342604722" lon="8.643996523387573"><ele>14.0</ele><time>2026-04-04T11:09:45Z</time></trkpt><trkpt lat="39.69068188251875" lon="8.644069934109396"><ele>14.666666666666668</ele><time>2026-04-04T11:09:46Z</time></trkpt><trkpt lat="39.69046832647967" lon="8.644148296230242"><ele>15.333333333333332</ele><time>2026-04-04T11:09:47Z</time></trkpt><trkpt lat="39.690260478981585" lon="8.644226244474028"><ele>16.0</ele><time>2026-04-04T11:09:48Z</time></trkpt><trkpt lat="39.690059304572934" lon="8.644296944638217"><ele>16.0</ele><time>2026-04-04T11:09:49Z</time></trkpt><trkpt lat="39.68986352071705" lon="8.644366258631832"><ele>16.0</ele><time>2026-04-04T11:09:50Z</time></trkpt><trkpt lat="39.68967378733678" lon="8.644436361848767"><ele>16.0</ele><time>2026-04-04T11:09:51Z</time></trkpt><trkpt lat="39.68948954806527" lon="8.644500287633505"><ele>15.666666666666666</ele><time>2026-04-04T11:09:52Z</time></trkpt><trkpt lat="39.68930729347242" lon="8.644563587118286"><ele>15.333333333333332</ele><time>2026-04-04T11:09:53Z</time></trkpt><trkpt lat="39.68913219489985" lon="8.644624588009682"><ele>15.0</ele><time>2026-04-04T11:09:54Z</time></trkpt><trkpt lat="39.688961216692356" lon="8.64468490942739"><ele>15.0</ele><time>2026-04-04T11:09:55Z</time></trkpt><trkpt lat="39.68879569569677" lon="8.644744946271665"><ele>15.0</ele><time>2026-04-04T11:09:56Z</time></trkpt><trkpt lat="39.68863212317413" lon="8.6448035541639"><ele>15.0</ele><time>2026-04-04T11:09:57Z</time></trkpt><trkpt lat="39.688473446820296" lon="8.644861586015043"><ele>15.0</ele><time>2026-04-04T11:09:58Z</time></trkpt><trkpt lat="39.68832004830793" lon="8.6449190878677"><ele>15.0</ele><time>2026-04-04T11:09:59Z</time></trkpt><trkpt lat="39.68816213365075" lon="8.644972420083748"><ele>15.0</ele><time>2026-04-04T11:10:00Z</time></trkpt><trkpt lat="39.688012938672586" lon="8.645027232371103"><ele>15.0</ele><time>2026-04-04T11:10:01Z</time></trkpt><trkpt lat="39.6878653264983" lon="8.645079467932117"><ele>15.0</ele><time>2026-04-04T11:10:02Z</time></trkpt><trkpt lat="39.68771823380738" lon="8.645122154118571"><ele>15.0</ele><time>2026-04-04T11:10:03Z</time></trkpt><trkpt lat="39.68757082594014" lon="8.645148645842212"><ele>15.0</ele><time>2026-04-04T11:10:04Z</time></trkpt><trkpt lat="39.6874251507288" lon="8.64514472363619"><ele>15.0</ele><time>2026-04-04T11:10:05Z</time></trkpt><trkpt lat="39.687282511655994" lon="8.645130213922062"><ele>15.0</ele><time>2026-04-04T11:10:06Z</time></trkpt><trkpt lat="39.68714641883713" lon="8.645104274106137"><ele>15.0</ele><time>2026-04-04T11:10:07Z</time></trkpt><trkpt lat="39.687014474486624" lon="8.645068858723011"><ele>15.0</ele><time>2026-04-04T11:10:08Z</time></trkpt><trkpt lat="39.68689280660007" lon="8.645033180932275"><ele>15.0</ele><time>2026-04-04T11:10:09Z</time></trkpt><trkpt lat="39.686783621096716" lon="8.645007782059183"><ele>15.0</ele><time>2026-04-04T11:10:10Z</time></trkpt><trkpt lat="39.68668424157649" lon="8.64499429738876"><ele>15.0</ele><time>2026-04-04T11:10:11Z</time></trkpt><trkpt lat="39.686592347868434" lon="8.644970381700649"><ele>15.0</ele><time>2026-04-04T11:10:12Z</time></trkpt><trkpt lat="39.68651494193724" lon="8.644916725176111"><ele>15.0</ele><time>2026-04-04T11:10:13Z</time></trkpt><trkpt lat="39.686437956808476" lon="8.644867209877765"><ele>15.0</ele><time>2026-04-04T11:10:14Z</time></trkpt><trkpt lat="39.68634476882822" lon="8.644843161385985"><ele>15.0</ele><time>2026-04-04T11:10:15Z</time></trkpt><trkpt lat="39.686242908302255" lon="8.644828085180393"><ele>15.0</ele><time>2026-04-04T11:10:16Z</time></trkpt><trkpt lat="39.686139482827336" lon="8.644798416203622"><ele>15.0</ele><time>2026-04-04T11:10:17Z</time></trkpt><trkpt lat="39.686030621908664" lon="8.644760299208535"><ele>14.75</ele><time>2026-04-04T11:10:18Z</time></trkpt><trkpt lat="39.68591791221878" lon="8.644721637884322"><ele>14.5</ele><time>2026-04-04T11:10:19Z</time></trkpt><trkpt lat="39.68580392424611" lon="8.644683419771246"><ele>14.25</ele><time>2026-04-04T11:10:20Z</time></trkpt><trkpt lat="39.68569355597945" lon="8.644653801027632"><ele>14.0</ele><time>2026-04-04T11:10:21Z</time></trkpt><trkpt lat="39.68558487277966" lon="8.64463541631913"><ele>14.0</ele><time>2026-04-04T11:10:22Z</time></trkpt><trkpt lat="39.68547668244333" lon="8.64462908742455"><ele>13.999999999999998</ele><time>2026-04-04T11:10:23Z</time></trkpt><trkpt lat="39.68537019053971" lon="8.644648127329022"><ele>13.999999999999998</ele><time>2026-04-04T11:10:24Z</time></trkpt><trkpt lat="39.685265734458405" lon="8.644701409267913"><ele>14.0</ele><time>2026-04-04T11:10:25Z</time></trkpt><trkpt lat="39.68516635665994" lon="8.644770769772052"><ele>14.0</ele><time>2026-04-04T11:10:26Z</time></trkpt><trkpt lat="39.68506905931624" lon="8.644844892764208"><ele>14.0</ele><time>2026-04-04T11:10:27Z</time></trkpt><trkpt lat="39.68497541916536" lon="8.644912841088464"><ele>13.999999999999998</ele><time>2026-04-04T11:10:28Z</time></trkpt><trkpt lat="39.684885410762575" lon="8.644982431774057"><ele>13.999999999999998</ele><time>2026-04-04T11:10:29Z</time></trkpt><trkpt lat="39.68479544790422" lon="8.645046006619369"><ele>14.0</ele><time>2026-04-04T11:10:30Z</time></trkpt><trkpt lat="39.68471277832892" lon="8.645103836154108"><ele>14.0</ele><time>2026-04-04T11:10:31Z</time></trkpt><trkpt lat="39.684636942277976" lon="8.645159706450663"><ele>14.000000000000002</ele><time>2026-04-04T11:10:32Z</time></trkpt><trkpt lat="39.68456573828657" lon="8.645218514291564"><ele>14.0</ele><time>2026-04-04T11:10:33Z</time></trkpt><trkpt lat="39.68450222825356" lon="8.645273695082047"><ele>14.0</ele><time>2026-04-04T11:10:34Z</time></trkpt><trkpt lat="39.68444691748967" lon="8.645325936039681"><ele>14.0</ele><time>2026-04-04T11:10:35Z</time></trkpt><trkpt lat="39.68437390226938" lon="8.64541114359501"><ele>14.000000000000002</ele><time>2026-04-04T11:10:37Z</time></trkpt><trkpt lat="39.68432969029855" lon="8.645487165004415"><ele>14.0</ele><time>2026-04-04T11:10:40Z</time></trkpt><trkpt lat="39.684287599420934" lon="8.645570635101564"><ele>14.0</ele><time>2026-04-04T11:10:42Z</time></trkpt><trkpt lat="39.684240662527436" lon="8.645676679727616"><ele>13.999999999999998</ele><time>2026-04-04T11:10:44Z</time></trkpt><trkpt lat="39.684196030475974" lon="8.645790168128016"><ele>13.999999999999998</ele><time>2026-04-04T11:10:46Z</time></trkpt><trkpt lat="39.684149501123656" lon="8.645918408120156"><ele>14.0</ele><time>2026-04-04T11:10:48Z</time></trkpt><trkpt lat="39.684118133235174" lon="8.645990159281999"><ele>14.0</ele><time>2026-04-04T11:10:49Z</time></trkpt><trkpt lat="39.68406333172918" lon="8.64613876009386"><ele>14.333333333333334</ele><time>2026-04-04T11:10:51Z</time></trkpt><trkpt lat="39.68403649185976" lon="8.64621513618193"><ele>14.666666666666668</ele><time>2026-04-04T11:10:52Z</time></trkpt><trkpt lat="39.68400555731111" lon="8.646286927611111"><ele>15.0</ele><time>2026-04-04T11:10:53Z</time></trkpt><trkpt lat="39.6839359012889" lon="8.646412217760947"><ele>15.333333333333332</ele><time>2026-04-04T11:10:55Z</time></trkpt><trkpt lat="39.68389279975708" lon="8.646476923505316"><ele>15.666666666666666</ele><time>2026-04-04T11:10:56Z</time></trkpt><trkpt lat="39.68384345891914" lon="8.646536842421744"><ele>16.0</ele><time>2026-04-04T11:10:57Z</time></trkpt><trkpt lat="39.68378732195082" lon="8.646593093010848"><ele>15.999999999999998</ele><time>2026-04-04T11:10:58Z</time></trkpt><trkpt lat="39.68372634811164" lon="8.646658801715096"><ele>16.0</ele><time>2026-04-04T11:10:59Z</time></trkpt><trkpt lat="39.683660912810005" lon="8.646729654705965"><ele>16.0</ele><time>2026-04-04T11:11:00Z</time></trkpt><trkpt lat="39.68358889637324" lon="8.64679781512221"><ele>16.0</ele><time>2026-04-04T11:11:01Z</time></trkpt><trkpt lat="39.68351299922785" lon="8.646869677738344"><ele>15.999999999999998</ele><time>2026-04-04T11:11:02Z</time></trkpt><trkpt lat="39.68343488203395" lon="8.646952089660012"><ele>16.0</ele><time>2026-04-04T11:11:03Z</time></trkpt><trkpt lat="39.68335367464134" lon="8.647030866686995"><ele>16.2</ele><time>2026-04-04T11:11:04Z</time></trkpt><trkpt lat="39.68327876092115" lon="8.647108699599402"><ele>16.400000000000002</ele><time>2026-04-04T11:11:05Z</time></trkpt><trkpt lat="39.68320340625313" lon="8.64718746496082"><ele>16.6</ele><time>2026-04-04T11:11:06Z</time></trkpt><trkpt lat="39.68312902191706" lon="8.647264591006287"><ele>16.8</ele><time>2026-04-04T11:11:07Z</time></trkpt><trkpt lat="39.683056210873694" lon="8.647343834166028"><ele>17.0</ele><time>2026-04-04T11:11:08Z</time></trkpt><trkpt lat="39.682990776450694" lon="8.647418925399139"><ele>17.0</ele><time>2026-04-04T11:11:09Z</time></trkpt><trkpt lat="39.68292505341558" lon="8.647489466436182"><ele>17.0</ele><time>2026-04-04T11:11:10Z</time></trkpt><trkpt lat="39.68286660055784" lon="8.6475475177911"><ele>17.0</ele><time>2026-04-04T11:11:11Z</time></trkpt><trkpt lat="39.68281536441112" lon="8.647600202353162"><ele>17.0</ele><time>2026-04-04T11:11:12Z</time></trkpt><trkpt lat="39.682763351190594" lon="8.647652677720178"><ele>17.0</ele><time>2026-04-04T11:11:13Z</time></trkpt><trkpt lat="39.68266875115302" lon="8.647737387729169"><ele>17.0</ele><time>2026-04-04T11:11:15Z</time></trkpt><trkpt lat="39.6825817697381" lon="8.647816191759759"><ele>16.857142857142854</ele><time>2026-04-04T11:11:17Z</time></trkpt><trkpt lat="39.682507408848444" lon="8.647892788117089"><ele>16.714285714285715</ele><time>2026-04-04T11:11:19Z</time></trkpt><trkpt lat="39.682453190369436" lon="8.647946941122658"><ele>16.57142857142857</ele><time>2026-04-04T11:11:21Z</time></trkpt><trkpt lat="39.68239524895953" lon="8.647997663528809"><ele>16.428571428571427</ele><time>2026-04-04T11:11:24Z</time></trkpt><trkpt lat="39.68233603082203" lon="8.648028092231398"><ele>16.285714285714285</ele><time>2026-04-04T11:11:50Z</time></trkpt><trkpt lat="39.68226484853046" lon="8.648072760489566"><ele>16.142857142857142</ele><time>2026-04-04T11:12:50Z</time></trkpt><trkpt lat="39.682213670330825" lon="8.648138756369832"><ele>16.0</ele><time>2026-04-04T11:13:16Z</time></trkpt><trkpt lat="39.68224905274709" lon="8.648066701701675"><ele>16.0</ele><time>2026-04-04T11:15:40Z</time></trkpt><trkpt lat="39.68230706261058" lon="8.64802597047748"><ele>15.999999999999998</ele><time>2026-04-04T11:15:48Z</time></trkpt><trkpt lat="39.682359908514904" lon="8.647963758041161"><ele>16.0</ele><time>2026-04-04T11:16:00Z</time></trkpt><trkpt lat="39.682412489640406" lon="8.647903244916302"><ele>16.0</ele><time>2026-04-04T11:16:14Z</time></trkpt><trkpt lat="39.68234675321357" lon="8.647914939940149"><ele>15.999999999999998</ele><time>2026-04-04T11:17:39Z</time></trkpt><trkpt lat="39.6822693639721" lon="8.647958791664848"><ele>16.0</ele><time>2026-04-04T11:20:54Z</time></trkpt><trkpt lat="39.68233275202965" lon="8.647965358142297"><ele>16.0</ele><time>2026-04-04T13:03:02Z</time></trkpt><trkpt lat="39.68236083811398" lon="8.64788995986049"><ele>16.0</ele><time>2026-04-04T13:03:56Z</time></trkpt><trkpt lat="39.6824315452953" lon="8.64788474742795"><ele>15.999999999999998</ele><time>2026-04-04T13:04:15Z</time></trkpt><trkpt lat="39.6823901469462" lon="8.647951195217837"><ele>16.0</ele><time>2026-04-04T13:04:39Z</time></trkpt><trkpt lat="39.682333739296695" lon="8.647989908618078"><ele>16.0</ele><time>2026-04-04T13:04:58Z</time></trkpt><trkpt lat="39.682276054873505" lon="8.648029091683453"><ele>15.999999999999998</ele><time>2026-04-04T13:05:09Z</time></trkpt><trkpt lat="39.68224194088967" lon="8.648108446052282"><ele>16.0</ele><time>2026-04-04T13:05:20Z</time></trkpt><trkpt lat="39.68224679284797" lon="8.648219508027314"><ele>16.0</ele><time>2026-04-04T13:13:10Z</time></trkpt><trkpt lat="39.68234000058848" lon="8.648128038573232"><ele>16.0</ele><time>2026-04-04T13:13:12Z</time></trkpt><trkpt lat="39.68243897910018" lon="8.648029057238919"><ele>16.0</ele><time>2026-04-04T13:13:14Z</time></trkpt><trkpt lat="39.68253341218094" lon="8.647922810798871"><ele>16.0</ele><time>2026-04-04T13:13:16Z</time></trkpt><trkpt lat="39.6825820927152" lon="8.647869785037132"><ele>16.0</ele><time>2026-04-04T13:13:17Z</time></trkpt><trkpt lat="39.682676501661454" lon="8.647770406379582"><ele>16.0</ele><time>2026-04-04T13:13:19Z</time></trkpt><trkpt lat="39.682763005818735" lon="8.647674486458488"><ele>16.142857142857142</ele><time>2026-04-04T13:13:21Z</time></trkpt><trkpt lat="39.68281409716713" lon="8.647624924747387"><ele>16.285714285714285</ele><time>2026-04-04T13:13:22Z</time></trkpt><trkpt lat="39.68287401523355" lon="8.647566825835108"><ele>16.428571428571427</ele><time>2026-04-04T13:13:23Z</time></trkpt><trkpt lat="39.68292718720783" lon="8.647504555687055"><ele>16.57142857142857</ele><time>2026-04-04T13:13:24Z</time></trkpt><trkpt lat="39.68298435492455" lon="8.647446368040212"><ele>16.714285714285715</ele><time>2026-04-04T13:13:25Z</time></trkpt><trkpt lat="39.683047870014164" lon="8.647390614678491"><ele>16.857142857142854</ele><time>2026-04-04T13:13:26Z</time></trkpt><trkpt lat="39.683115232124834" lon="8.647330343216533"><ele>17.0</ele><time>2026-04-04T13:13:27Z</time></trkpt><trkpt lat="39.683180727173294" lon="8.647264874034637"><ele>16.999999999999996</ele><time>2026-04-04T13:13:28Z</time></trkpt><trkpt lat="39.68324280693211" lon="8.64720721433806"><ele>17.0</ele><time>2026-04-04T13:13:29Z</time></trkpt><trkpt lat="39.68329975483124" lon="8.647148682811633"><ele>17.0</ele><time>2026-04-04T13:13:30Z</time></trkpt><trkpt lat="39.68335337268816" lon="8.647091405117859"><ele>17.0</ele><time>2026-04-04T13:13:31Z</time></trkpt><trkpt lat="39.68340309737936" lon="8.647040408795098"><ele>17.0</ele><time>2026-04-04T13:13:32Z</time></trkpt><trkpt lat="39.683453359828164" lon="8.646990227911425"><ele>16.999999999999996</ele><time>2026-04-04T13:13:33Z</time></trkpt><trkpt lat="39.68350788759723" lon="8.646936551861849"><ele>17.0</ele><time>2026-04-04T13:13:34Z</time></trkpt><trkpt lat="39.68359848074111" lon="8.646836342315847"><ele>16.833333333333336</ele><time>2026-04-04T13:13:36Z</time></trkpt><trkpt lat="39.68367369082057" lon="8.64676071665651"><ele>16.666666666666668</ele><time>2026-04-04T13:13:38Z</time></trkpt><trkpt lat="39.68376358273709" lon="8.646668927642583"><ele>16.5</ele><time>2026-04-04T13:13:40Z</time></trkpt><trkpt lat="39.68381772951018" lon="8.646616819643432"><ele>16.333333333333332</ele><time>2026-04-04T13:13:41Z</time></trkpt><trkpt lat="39.68387708425813" lon="8.646560480594863"><ele>16.166666666666664</ele><time>2026-04-04T13:13:42Z</time></trkpt><trkpt lat="39.6839292442886" lon="8.646495876152452"><ele>16.0</ele><time>2026-04-04T13:13:43Z</time></trkpt><trkpt lat="39.68397343300666" lon="8.646427459082178"><ele>15.999999999999998</ele><time>2026-04-04T13:13:44Z</time></trkpt><trkpt lat="39.68401013037133" lon="8.64635878782164"><ele>16.0</ele><time>2026-04-04T13:13:45Z</time></trkpt><trkpt lat="39.68404198282506" lon="8.646286894641696"><ele>16.0</ele><time>2026-04-04T13:13:46Z</time></trkpt><trkpt lat="39.68407024470846" lon="8.646213541926901"><ele>16.0</ele><time>2026-04-04T13:13:47Z</time></trkpt><trkpt lat="39.6840982433639" lon="8.646138991118596"><ele>15.999999999999998</ele><time>2026-04-04T13:13:48Z</time></trkpt><trkpt lat="39.6841459310239" lon="8.646010011295177"><ele>16.0</ele><time>2026-04-04T13:13:50Z</time></trkpt><trkpt lat="39.684187349594026" lon="8.64589043936341"><ele>15.857142857142856</ele><time>2026-04-04T13:13:52Z</time></trkpt><trkpt lat="39.68423807693174" lon="8.645810844984664"><ele>15.714285714285712</ele><time>2026-04-04T13:13:54Z</time></trkpt><trkpt lat="39.68430920067386" lon="8.645820301911856"><ele>15.571428571428571</ele><time>2026-04-04T13:13:56Z</time></trkpt><trkpt lat="39.68436401685495" lon="8.645888589324457"><ele>15.428571428571427</ele><time>2026-04-04T13:13:57Z</time></trkpt><trkpt lat="39.68440737453621" lon="8.645951312417111"><ele>15.285714285714285</ele><time>2026-04-04T13:13:58Z</time></trkpt><trkpt lat="39.68445669623588" lon="8.646012621704402"><ele>15.142857142857142</ele><time>2026-04-04T13:13:59Z</time></trkpt><trkpt lat="39.68451080796398" lon="8.646080422883339"><ele>15.0</ele><time>2026-04-04T13:14:00Z</time></trkpt><trkpt lat="39.684570013681174" lon="8.646151017338811"><ele>15.0</ele><time>2026-04-04T13:14:01Z</time></trkpt><trkpt lat="39.68462427849153" lon="8.646222545620697"><ele>15.0</ele><time>2026-04-04T13:14:02Z</time></trkpt><trkpt lat="39.684671799863196" lon="8.646293690100045"><ele>15.0</ele><time>2026-04-04T13:14:03Z</time></trkpt><trkpt lat="39.68471121327647" lon="8.646368117888995"><ele>15.0</ele><time>2026-04-04T13:14:04Z</time></trkpt><trkpt lat="39.68475198964812" lon="8.646444399763716"><ele>15.0</ele><time>2026-04-04T13:14:05Z</time></trkpt><trkpt lat="39.68479588424739" lon="8.646519686632878"><ele>15.0</ele><time>2026-04-04T13:14:06Z</time></trkpt><trkpt lat="39.68484033173669" lon="8.646594947994853"><ele>15.0</ele><time>2026-04-04T13:14:07Z</time></trkpt><trkpt lat="39.684887078937145" lon="8.646671028033492"><ele>15.0</ele><time>2026-04-04T13:14:08Z</time></trkpt><trkpt lat="39.684935735898456" lon="8.646747391651509"><ele>15.0</ele><time>2026-04-04T13:14:09Z</time></trkpt><trkpt lat="39.68498396593255" lon="8.646823795847153"><ele>15.0</ele><time>2026-04-04T13:14:10Z</time></trkpt><trkpt lat="39.68503311791568" lon="8.646900416164241"><ele>15.0</ele><time>2026-04-04T13:14:11Z</time></trkpt><trkpt lat="39.68507952424719" lon="8.646979173353351"><ele>15.0</ele><time>2026-04-04T13:14:12Z</time></trkpt><trkpt lat="39.685122777027786" lon="8.647062617873488"><ele>15.0</ele><time>2026-04-04T13:14:13Z</time></trkpt><trkpt lat="39.68516718789861" lon="8.647145192206695"><ele>15.0</ele><time>2026-04-04T13:14:14Z</time></trkpt><trkpt lat="39.68521454932093" lon="8.647224784093902"><ele>15.0</ele><time>2026-04-04T13:14:15Z</time></trkpt><trkpt lat="39.685263578514494" lon="8.647302600065528"><ele>15.0</ele><time>2026-04-04T13:14:16Z</time></trkpt><trkpt lat="39.68531269160409" lon="8.64738253067366"><ele>15.0</ele><time>2026-04-04T13:14:17Z</time></trkpt><trkpt lat="39.685360165265145" lon="8.64746079989137"><ele>15.0</ele><time>2026-04-04T13:14:18Z</time></trkpt><trkpt lat="39.68540945309001" lon="8.647541341441052"><ele>15.0</ele><time>2026-04-04T13:14:19Z</time></trkpt><trkpt lat="39.68546146969849" lon="8.647620493103993"><ele>15.0</ele><time>2026-04-04T13:14:20Z</time></trkpt><trkpt lat="39.68551417236189" lon="8.647700572119605"><ele>15.0</ele><time>2026-04-04T13:14:21Z</time></trkpt><trkpt lat="39.685568677633775" lon="8.647786303465894"><ele>15.0</ele><time>2026-04-04T13:14:22Z</time></trkpt><trkpt lat="39.68562498560299" lon="8.647878308526213"><ele>15.0</ele><time>2026-04-04T13:14:23Z</time></trkpt><trkpt lat="39.6856843502061" lon="8.647974940010299"><ele>15.0</ele><time>2026-04-04T13:14:24Z</time></trkpt><trkpt lat="39.68573782760262" lon="8.648065934438772"><ele>15.0</ele><time>2026-04-04T13:14:25Z</time></trkpt><trkpt lat="39.68579278653734" lon="8.648157859469931"><ele>15.0</ele><time>2026-04-04T13:14:26Z</time></trkpt><trkpt lat="39.68584904517575" lon="8.648251130985123"><ele>15.0</ele><time>2026-04-04T13:14:27Z</time></trkpt><trkpt lat="39.685905108936666" lon="8.648346604957807"><ele>15.0</ele><time>2026-04-04T13:14:28Z</time></trkpt><trkpt lat="39.685962736276366" lon="8.648443326126376"><ele>15.0</ele><time>2026-04-04T13:14:29Z</time></trkpt><trkpt lat="39.68601835953405" lon="8.64852830362289"><ele>15.0</ele><time>2026-04-04T13:14:30Z</time></trkpt><trkpt lat="39.68606725786437" lon="8.64860410608012"><ele>15.0</ele><time>2026-04-04T13:14:31Z</time></trkpt><trkpt lat="39.68610967280279" lon="8.648672387773507"><ele>15.5</ele><time>2026-04-04T13:14:32Z</time></trkpt><trkpt lat="39.686174191098466" lon="8.648783105714953"><ele>16.0</ele><time>2026-04-04T13:14:34Z</time></trkpt><trkpt lat="39.68622818712769" lon="8.648899943512204"><ele>16.5</ele><time>2026-04-04T13:14:36Z</time></trkpt><trkpt lat="39.68625404299408" lon="8.648975875654072"><ele>17.0</ele><time>2026-04-04T13:14:37Z</time></trkpt><trkpt lat="39.68627566008572" lon="8.649061414114687"><ele>17.5</ele><time>2026-04-04T13:14:38Z</time></trkpt><trkpt lat="39.68629910061324" lon="8.64915313556323"><ele>18.0</ele><time>2026-04-04T13:14:39Z</time></trkpt><trkpt lat="39.68632170816645" lon="8.649254472723431"><ele>18.0</ele><time>2026-04-04T13:14:40Z</time></trkpt><trkpt lat="39.68633510297694" lon="8.649363358012543"><ele>18.0</ele><time>2026-04-04T13:14:41Z</time></trkpt><trkpt lat="39.68634438217013" lon="8.649478709587836"><ele>18.0</ele><time>2026-04-04T13:14:42Z</time></trkpt><trkpt lat="39.68634957692148" lon="8.649598745838833"><ele>18.0</ele><time>2026-04-04T13:14:43Z</time></trkpt><trkpt lat="39.68635327871518" lon="8.649728440321848"><ele>18.0</ele><time>2026-04-04T13:14:44Z</time></trkpt><trkpt lat="39.68635303483256" lon="8.649857325550094"><ele>18.2</ele><time>2026-04-04T13:14:45Z</time></trkpt><trkpt lat="39.686356123023785" lon="8.64999110486834"><ele>18.4</ele><time>2026-04-04T13:14:46Z</time></trkpt><trkpt lat="39.68635986888203" lon="8.650128712197327"><ele>18.599999999999998</ele><time>2026-04-04T13:14:47Z</time></trkpt><trkpt lat="39.68636170657486" lon="8.650268756197052"><ele>18.8</ele><time>2026-04-04T13:14:48Z</time></trkpt><trkpt lat="39.68636256460198" lon="8.650410373801709"><ele>19.0</ele><time>2026-04-04T13:14:49Z</time></trkpt><trkpt lat="39.68636366198138" lon="8.65055473334966"><ele>19.0</ele><time>2026-04-04T13:14:50Z</time></trkpt><trkpt lat="39.68636763378206" lon="8.650701050304143"><ele>19.0</ele><time>2026-04-04T13:14:51Z</time></trkpt><trkpt lat="39.6863716664306" lon="8.650851169507032"><ele>19.0</ele><time>2026-04-04T13:14:52Z</time></trkpt><trkpt lat="39.686374962465564" lon="8.651003097385148"><ele>19.0</ele><time>2026-04-04T13:14:53Z</time></trkpt><trkpt lat="39.68637903471586" lon="8.651156343806248"><ele>19.0</ele><time>2026-04-04T13:14:54Z</time></trkpt><trkpt lat="39.6863802806962" lon="8.651308104713204"><ele>19.0</ele><time>2026-04-04T13:14:55Z</time></trkpt><trkpt lat="39.68638280241997" lon="8.65145808870285"><ele>19.0</ele><time>2026-04-04T13:14:56Z</time></trkpt><trkpt lat="39.68638578646611" lon="8.65160493332565"><ele>19.0</ele><time>2026-04-04T13:14:57Z</time></trkpt><trkpt lat="39.686390492873755" lon="8.651747743365439"><ele>19.0</ele><time>2026-04-04T13:14:58Z</time></trkpt><trkpt lat="39.68639487294411" lon="8.651884612738478"><ele>19.0</ele><time>2026-04-04T13:14:59Z</time></trkpt><trkpt lat="39.68639622520936" lon="8.652023470160698"><ele>19.0</ele><time>2026-04-04T13:15:00Z</time></trkpt><trkpt lat="39.686397737024436" lon="8.652163179355204"><ele>19.0</ele><time>2026-04-04T13:15:01Z</time></trkpt><trkpt lat="39.68639994915633" lon="8.652306101707989"><ele>19.0</ele><time>2026-04-04T13:15:02Z</time></trkpt><trkpt lat="39.686403351466" lon="8.652450875169288"><ele>18.75</ele><time>2026-04-04T13:15:03Z</time></trkpt><trkpt lat="39.68640549781916" lon="8.65259737934376"><ele>18.5</ele><time>2026-04-04T13:15:04Z</time></trkpt><trkpt lat="39.68640746863198" lon="8.652746373843504"><ele>18.25</ele><time>2026-04-04T13:15:05Z</time></trkpt><trkpt lat="39.68641007849725" lon="8.652898347059187"><ele>18.0</ele><time>2026-04-04T13:15:06Z</time></trkpt><trkpt lat="39.68641720136989" lon="8.653047837292005"><ele>18.0</ele><time>2026-04-04T13:15:07Z</time></trkpt><trkpt lat="39.68641897505905" lon="8.65320264093493"><ele>18.0</ele><time>2026-04-04T13:15:08Z</time></trkpt><trkpt lat="39.68642221225846" lon="8.653356497221967"><ele>18.0</ele><time>2026-04-04T13:15:09Z</time></trkpt><trkpt lat="39.686424031494866" lon="8.653512317612414"><ele>18.0</ele><time>2026-04-04T13:15:10Z</time></trkpt><trkpt lat="39.68642641994693" lon="8.65366909980114"><ele>18.0</ele><time>2026-04-04T13:15:11Z</time></trkpt><trkpt lat="39.68642961538132" lon="8.653827164401102"><ele>18.0</ele><time>2026-04-04T13:15:12Z</time></trkpt><trkpt lat="39.68643174763509" lon="8.653987752522063"><ele>18.0</ele><time>2026-04-04T13:15:13Z</time></trkpt><trkpt lat="39.686432753278034" lon="8.654149930024106"><ele>18.0</ele><time>2026-04-04T13:15:14Z</time></trkpt><trkpt lat="39.68643547874418" lon="8.654312897733925"><ele>18.25</ele><time>2026-04-04T13:15:15Z</time></trkpt><trkpt lat="39.68643904265378" lon="8.654476206823539"><ele>18.5</ele><time>2026-04-04T13:15:16Z</time></trkpt><trkpt lat="39.68644278168786" lon="8.654637509800285"><ele>18.75</ele><time>2026-04-04T13:15:17Z</time></trkpt><trkpt lat="39.68644677824988" lon="8.654800827735563"><ele>19.0</ele><time>2026-04-04T13:15:18Z</time></trkpt><trkpt lat="39.686449621071816" lon="8.654967656335687"><ele>19.0</ele><time>2026-04-04T13:15:19Z</time></trkpt><trkpt lat="39.68645250111616" lon="8.655138922369325"><ele>19.0</ele><time>2026-04-04T13:15:20Z</time></trkpt><trkpt lat="39.6864561898189" lon="8.655313791904758"><ele>19.0</ele><time>2026-04-04T13:15:21Z</time></trkpt><trkpt lat="39.6864597949507" lon="8.655494611601346"><ele>19.0</ele><time>2026-04-04T13:15:22Z</time></trkpt><trkpt lat="39.68646497551738" lon="8.655681340969283"><ele>19.25</ele><time>2026-04-04T13:15:23Z</time></trkpt><trkpt lat="39.68646753359313" lon="8.6558678543082"><ele>19.5</ele><time>2026-04-04T13:15:24Z</time></trkpt><trkpt lat="39.68647272660157" lon="8.656060958542495"><ele>19.75</ele><time>2026-04-04T13:15:25Z</time></trkpt><trkpt lat="39.68647739711777" lon="8.656259734530089"><ele>20.0</ele><time>2026-04-04T13:15:26Z</time></trkpt><trkpt lat="39.68648007224457" lon="8.656460638313977"><ele>19.333333333333336</ele><time>2026-04-04T13:15:27Z</time></trkpt><trkpt lat="39.6864829014244" lon="8.656660511671793"><ele>18.666666666666668</ele><time>2026-04-04T13:15:28Z</time></trkpt><trkpt lat="39.68648565660004" lon="8.656860664412694"><ele>18.0</ele><time>2026-04-04T13:15:29Z</time></trkpt><trkpt lat="39.686489078603174" lon="8.657061542210066"><ele>18.0</ele><time>2026-04-04T13:15:30Z</time></trkpt><trkpt lat="39.68649366353661" lon="8.657262380780551"><ele>18.0</ele><time>2026-04-04T13:15:31Z</time></trkpt><trkpt lat="39.68649822450327" lon="8.657463030724738"><ele>18.0</ele><time>2026-04-04T13:15:32Z</time></trkpt><trkpt lat="39.68649993881181" lon="8.657661733622101"><ele>17.333333333333332</ele><time>2026-04-04T13:15:33Z</time></trkpt><trkpt lat="39.686505087829595" lon="8.65786288102599"><ele>16.666666666666664</ele><time>2026-04-04T13:15:34Z</time></trkpt><trkpt lat="39.68650835394255" lon="8.658066612003724"><ele>16.0</ele><time>2026-04-04T13:15:35Z</time></trkpt><trkpt lat="39.6865128518836" lon="8.658269485315238"><ele>16.0</ele><time>2026-04-04T13:15:36Z</time></trkpt><trkpt lat="39.686516935711374" lon="8.658475278995311"><ele>16.0</ele><time>2026-04-04T13:15:37Z</time></trkpt><trkpt lat="39.6865228916438" lon="8.658687267182932"><ele>16.0</ele><time>2026-04-04T13:15:38Z</time></trkpt><trkpt lat="39.68652435473393" lon="8.658893886767165"><ele>15.666666666666666</ele><time>2026-04-04T13:15:39Z</time></trkpt><trkpt lat="39.686529428166985" lon="8.659101273538582"><ele>15.333333333333332</ele><time>2026-04-04T13:15:40Z</time></trkpt><trkpt lat="39.68653337852472" lon="8.65930879244997"><ele>15.0</ele><time>2026-04-04T13:15:41Z</time></trkpt><trkpt lat="39.68653673613562" lon="8.659524406417924"><ele>16.0</ele><time>2026-04-04T13:15:42Z</time></trkpt><trkpt lat="39.68653839832716" lon="8.659740132719534"><ele>17.0</ele><time>2026-04-04T13:15:43Z</time></trkpt><trkpt lat="39.68654435546636" lon="8.659951978212131"><ele>18.0</ele><time>2026-04-04T13:15:44Z</time></trkpt><trkpt lat="39.6865497174314" lon="8.660165909506135"><ele>18.333333333333332</ele><time>2026-04-04T13:15:45Z</time></trkpt><trkpt lat="39.68655136272004" lon="8.660386873771051"><ele>18.666666666666664</ele><time>2026-04-04T13:15:46Z</time></trkpt><trkpt lat="39.6865552166259" lon="8.660605306885106"><ele>19.0</ele><time>2026-04-04T13:15:47Z</time></trkpt><trkpt lat="39.68655701510401" lon="8.660828419777294"><ele>19.0</ele><time>2026-04-04T13:15:48Z</time></trkpt><trkpt lat="39.68656260303732" lon="8.661050247659432"><ele>19.0</ele><time>2026-04-04T13:15:49Z</time></trkpt><trkpt lat="39.686567331463785" lon="8.66127302351025"><ele>19.0</ele><time>2026-04-04T13:15:50Z</time></trkpt><trkpt lat="39.68657190134246" lon="8.661495676767588"><ele>18.666666666666664</ele><time>2026-04-04T13:15:51Z</time></trkpt><trkpt lat="39.6865772993179" lon="8.661718723162993"><ele>18.333333333333332</ele><time>2026-04-04T13:15:52Z</time></trkpt><trkpt lat="39.686581799364546" lon="8.661943789394805"><ele>18.0</ele><time>2026-04-04T13:15:53Z</time></trkpt><trkpt lat="39.68658701250527" lon="8.662170210058152"><ele>18.0</ele><time>2026-04-04T13:15:54Z</time></trkpt><trkpt lat="39.68659109129319" lon="8.662395376927108"><ele>18.0</ele><time>2026-04-04T13:15:55Z</time></trkpt><trkpt lat="39.686594061845504" lon="8.662621824333133"><ele>18.0</ele><time>2026-04-04T13:15:56Z</time></trkpt><trkpt lat="39.68659860944166" lon="8.662848396035146"><ele>18.0</ele><time>2026-04-04T13:15:57Z</time></trkpt><trkpt lat="39.68660442258755" lon="8.663076864982589"><ele>18.0</ele><time>2026-04-04T13:15:58Z</time></trkpt><trkpt lat="39.68660857936569" lon="8.663303504045802"><ele>18.0</ele><time>2026-04-04T13:15:59Z</time></trkpt><trkpt lat="39.68661498651236" lon="8.663527465007537"><ele>18.333333333333332</ele><time>2026-04-04T13:16:00Z</time></trkpt><trkpt lat="39.686619612894475" lon="8.663752182457912"><ele>18.666666666666664</ele><time>2026-04-04T13:16:01Z</time></trkpt><trkpt lat="39.68662575468441" lon="8.663977173438221"><ele>19.0</ele><time>2026-04-04T13:16:02Z</time></trkpt><trkpt lat="39.6866305306646" lon="8.664200182578638"><ele>19.0</ele><time>2026-04-04T13:16:03Z</time></trkpt><trkpt lat="39.68663585016837" lon="8.664419831273149"><ele>19.0</ele><time>2026-04-04T13:16:04Z</time></trkpt><trkpt lat="39.68664056744458" lon="8.664639212160289"><ele>19.0</ele><time>2026-04-04T13:16:05Z</time></trkpt><trkpt lat="39.686645932552" lon="8.664855942375501"><ele>18.666666666666664</ele><time>2026-04-04T13:16:06Z</time></trkpt><trkpt lat="39.6866508593283" lon="8.665066560449597"><ele>18.333333333333332</ele><time>2026-04-04T13:16:07Z</time></trkpt><trkpt lat="39.68665636040509" lon="8.66527478620061"><ele>18.0</ele><time>2026-04-04T13:16:08Z</time></trkpt><trkpt lat="39.68665998707427" lon="8.665480230231069"><ele>18.0</ele><time>2026-04-04T13:16:09Z</time></trkpt><trkpt lat="39.68666170221569" lon="8.665687684630152"><ele>18.0</ele><time>2026-04-04T13:16:10Z</time></trkpt><trkpt lat="39.68666933603303" lon="8.665884795633984"><ele>18.0</ele><time>2026-04-04T13:16:11Z</time></trkpt><trkpt lat="39.686676437070844" lon="8.666079270103147"><ele>18.0</ele><time>2026-04-04T13:16:12Z</time></trkpt><trkpt lat="39.68668110052232" lon="8.666269181358865"><ele>18.0</ele><time>2026-04-04T13:16:13Z</time></trkpt><trkpt lat="39.686687356262624" lon="8.666457629435802"><ele>18.0</ele><time>2026-04-04T13:16:14Z</time></trkpt><trkpt lat="39.68669390464971" lon="8.666642968062986"><ele>18.0</ele><time>2026-04-04T13:16:15Z</time></trkpt><trkpt lat="39.68669767885368" lon="8.666833013837772"><ele>18.25</ele><time>2026-04-04T13:16:16Z</time></trkpt><trkpt lat="39.68670024490391" lon="8.667018372013993"><ele>18.5</ele><time>2026-04-04T13:16:17Z</time></trkpt><trkpt lat="39.6867029716223" lon="8.667211202382086"><ele>18.75</ele><time>2026-04-04T13:16:18Z</time></trkpt><trkpt lat="39.68670809808327" lon="8.667400428268612"><ele>19.0</ele><time>2026-04-04T13:16:19Z</time></trkpt><trkpt lat="39.68671076396538" lon="8.667596579569853"><ele>18.666666666666664</ele><time>2026-04-04T13:16:20Z</time></trkpt><trkpt lat="39.68671439602786" lon="8.667795187820929"><ele>18.333333333333332</ele><time>2026-04-04T13:16:21Z</time></trkpt><trkpt lat="39.68671778893469" lon="8.667992938589576"><ele>18.0</ele><time>2026-04-04T13:16:22Z</time></trkpt><trkpt lat="39.686718879252666" lon="8.668191903570026"><ele>18.0</ele><time>2026-04-04T13:16:23Z</time></trkpt><trkpt lat="39.68672269607121" lon="8.668393684993326"><ele>18.0</ele><time>2026-04-04T13:16:24Z</time></trkpt><trkpt lat="39.68672667201514" lon="8.668590931364164"><ele>18.0</ele><time>2026-04-04T13:16:25Z</time></trkpt><trkpt lat="39.686731188171045" lon="8.668784297652698"><ele>18.333333333333332</ele><time>2026-04-04T13:16:26Z</time></trkpt><trkpt lat="39.68673577118755" lon="8.668981085416657"><ele>18.666666666666664</ele><time>2026-04-04T13:16:27Z</time></trkpt><trkpt lat="39.6867429271677" lon="8.669172070432946"><ele>19.0</ele><time>2026-04-04T13:16:28Z</time></trkpt><trkpt lat="39.68674296347011" lon="8.669368999055926"><ele>19.25</ele><time>2026-04-04T13:16:29Z</time></trkpt><trkpt lat="39.68674755155154" lon="8.66956269211354"><ele>19.5</ele><time>2026-04-04T13:16:30Z</time></trkpt><trkpt lat="39.68675089227638" lon="8.669754887251846"><ele>19.75</ele><time>2026-04-04T13:16:31Z</time></trkpt><trkpt lat="39.686755350269856" lon="8.6699426929416"><ele>20.0</ele><time>2026-04-04T13:16:32Z</time></trkpt><trkpt lat="39.6867574805319" lon="8.670136126878171"><ele>20.5</ele><time>2026-04-04T13:16:33Z</time></trkpt><trkpt lat="39.686759932364886" lon="8.67033194740938"><ele>21.0</ele><time>2026-04-04T13:16:34Z</time></trkpt><trkpt lat="39.686768174750924" lon="8.670523177577751"><ele>21.5</ele><time>2026-04-04T13:16:35Z</time></trkpt><trkpt lat="39.68677189133944" lon="8.670718144071353"><ele>22.0</ele><time>2026-04-04T13:16:36Z</time></trkpt><trkpt lat="39.68677486368106" lon="8.670917331638833"><ele>21.333333333333332</ele><time>2026-04-04T13:16:37Z</time></trkpt><trkpt lat="39.686777953766686" lon="8.671118846793588"><ele>20.666666666666668</ele><time>2026-04-04T13:16:38Z</time></trkpt><trkpt lat="39.686777575760836" lon="8.67131930717814"><ele>20.0</ele><time>2026-04-04T13:16:39Z</time></trkpt><trkpt lat="39.68677934338124" lon="8.671524110445613"><ele>20.0</ele><time>2026-04-04T13:16:40Z</time></trkpt><trkpt lat="39.68678737327496" lon="8.671728777323404"><ele>20.0</ele><time>2026-04-04T13:16:41Z</time></trkpt><trkpt lat="39.68679074239722" lon="8.671938007100621"><ele>20.0</ele><time>2026-04-04T13:16:42Z</time></trkpt><trkpt lat="39.68679580049877" lon="8.672154035767562"><ele>20.0</ele><time>2026-04-04T13:16:43Z</time></trkpt><trkpt lat="39.686796154041446" lon="8.672362828292346"><ele>20.0</ele><time>2026-04-04T13:16:44Z</time></trkpt><trkpt lat="39.68680311606946" lon="8.672581343055517"><ele>20.0</ele><time>2026-04-04T13:16:45Z</time></trkpt><trkpt lat="39.68680739815678" lon="8.6727971811484"><ele>20.0</ele><time>2026-04-04T13:16:46Z</time></trkpt><trkpt lat="39.68681157838186" lon="8.673016965471318"><ele>20.0</ele><time>2026-04-04T13:16:47Z</time></trkpt><trkpt lat="39.68681585568589" lon="8.673239724458828"><ele>20.0</ele><time>2026-04-04T13:16:48Z</time></trkpt><trkpt lat="39.686820043686026" lon="8.673462105423225"><ele>20.333333333333336</ele><time>2026-04-04T13:16:49Z</time></trkpt><trkpt lat="39.686825343924596" lon="8.673683362311062"><ele>20.666666666666668</ele><time>2026-04-04T13:16:50Z</time></trkpt><trkpt lat="39.686833089944614" lon="8.673892301662097"><ele>21.0</ele><time>2026-04-04T13:16:51Z</time></trkpt><trkpt lat="39.686839748722555" lon="8.67409145396187"><ele>21.0</ele><time>2026-04-04T13:16:52Z</time></trkpt><trkpt lat="39.686843516485105" lon="8.67428272584988"><ele>21.0</ele><time>2026-04-04T13:16:53Z</time></trkpt><trkpt lat="39.686848201696115" lon="8.674467977780525"><ele>21.0</ele><time>2026-04-04T13:16:54Z</time></trkpt><trkpt lat="39.6868525865573" lon="8.674646046588956"><ele>21.0</ele><time>2026-04-04T13:16:55Z</time></trkpt><trkpt lat="39.686857967388875" lon="8.674816131829504"><ele>21.5</ele><time>2026-04-04T13:16:56Z</time></trkpt><trkpt lat="39.68686415975115" lon="8.674984004446264"><ele>22.0</ele><time>2026-04-04T13:16:57Z</time></trkpt><trkpt lat="39.68685441621277" lon="8.675160459820827"><ele>22.5</ele><time>2026-04-04T13:16:58Z</time></trkpt><trkpt lat="39.68685808496901" lon="8.675348356981178"><ele>23.0</ele><time>2026-04-04T13:16:59Z</time></trkpt><trkpt lat="39.686861948398494" lon="8.67554622442564"><ele>23.0</ele><time>2026-04-04T13:17:00Z</time></trkpt><trkpt lat="39.68687930875282" lon="8.675752310233444"><ele>23.0</ele><time>2026-04-04T13:17:01Z</time></trkpt><trkpt lat="39.68688384045312" lon="8.675952405177018"><ele>23.0</ele><time>2026-04-04T13:17:02Z</time></trkpt><trkpt lat="39.68686986905744" lon="8.676173668647612"><ele>22.666666666666668</ele><time>2026-04-04T13:17:03Z</time></trkpt><trkpt lat="39.68687958776787" lon="8.67639551375077"><ele>22.333333333333332</ele><time>2026-04-04T13:17:04Z</time></trkpt><trkpt lat="39.686889203317236" lon="8.67660826309808"><ele>22.0</ele><time>2026-04-04T13:17:05Z</time></trkpt><trkpt lat="39.68689140238687" lon="8.676822393543265"><ele>21.666666666666664</ele><time>2026-04-04T13:17:06Z</time></trkpt><trkpt lat="39.686895282921974" lon="8.677034711628528"><ele>21.333333333333332</ele><time>2026-04-04T13:17:07Z</time></trkpt><trkpt lat="39.68690015737509" lon="8.677242168024685"><ele>21.0</ele><time>2026-04-04T13:17:08Z</time></trkpt><trkpt lat="39.68690498349128" lon="8.677450375430881"><ele>21.0</ele><time>2026-04-04T13:17:09Z</time></trkpt><trkpt lat="39.686910126741324" lon="8.677656580819315"><ele>21.0</ele><time>2026-04-04T13:17:10Z</time></trkpt><trkpt lat="39.68691324565436" lon="8.677860701467333"><ele>21.0</ele><time>2026-04-04T13:17:11Z</time></trkpt><trkpt lat="39.68691614107826" lon="8.678070471108352"><ele>21.0</ele><time>2026-04-04T13:17:12Z</time></trkpt><trkpt lat="39.6869211363812" lon="8.678284783213924"><ele>21.0</ele><time>2026-04-04T13:17:13Z</time></trkpt><trkpt lat="39.68692547077434" lon="8.678498929677698"><ele>21.0</ele><time>2026-04-04T13:17:14Z</time></trkpt><trkpt lat="39.6869301029069" lon="8.67870580170648"><ele>21.0</ele><time>2026-04-04T13:17:15Z</time></trkpt><trkpt lat="39.686935186625256" lon="8.6789147890679"><ele>21.0</ele><time>2026-04-04T13:17:16Z</time></trkpt><trkpt lat="39.686939094962" lon="8.679127637128065"><ele>21.0</ele><time>2026-04-04T13:17:17Z</time></trkpt><trkpt lat="39.68694269193695" lon="8.679334629231496"><ele>20.666666666666668</ele><time>2026-04-04T13:17:18Z</time></trkpt><trkpt lat="39.68694758467653" lon="8.679545771112474"><ele>20.333333333333336</ele><time>2026-04-04T13:17:19Z</time></trkpt><trkpt lat="39.68695269955972" lon="8.679762200249844"><ele>20.0</ele><time>2026-04-04T13:17:20Z</time></trkpt><trkpt lat="39.686957049381725" lon="8.679975051820648"><ele>20.0</ele><time>2026-04-04T13:17:21Z</time></trkpt><trkpt lat="39.68696291073175" lon="8.680193392484469"><ele>20.0</ele><time>2026-04-04T13:17:22Z</time></trkpt><trkpt lat="39.686969533336715" lon="8.68041100251795"><ele>20.0</ele><time>2026-04-04T13:17:23Z</time></trkpt><trkpt lat="39.68697468736682" lon="8.680625460110436"><ele>20.0</ele><time>2026-04-04T13:17:24Z</time></trkpt><trkpt lat="39.68697915704529" lon="8.68084210792795"><ele>20.0</ele><time>2026-04-04T13:17:25Z</time></trkpt><trkpt lat="39.68698362374403" lon="8.681057269574442"><ele>20.0</ele><time>2026-04-04T13:17:26Z</time></trkpt><trkpt lat="39.68698853490474" lon="8.681273856777135"><ele>20.0</ele><time>2026-04-04T13:17:27Z</time></trkpt><trkpt lat="39.68699431955418" lon="8.681488650066019"><ele>20.0</ele><time>2026-04-04T13:17:28Z</time></trkpt><trkpt lat="39.68699874105204" lon="8.681708378533083"><ele>20.0</ele><time>2026-04-04T13:17:29Z</time></trkpt><trkpt lat="39.68700249489651" lon="8.681927491389438"><ele>20.333333333333336</ele><time>2026-04-04T13:17:30Z</time></trkpt><trkpt lat="39.687007460695675" lon="8.682148527415862"><ele>20.666666666666668</ele><time>2026-04-04T13:17:31Z</time></trkpt><trkpt lat="39.687013796648536" lon="8.682370190433872"><ele>21.0</ele><time>2026-04-04T13:17:32Z</time></trkpt><trkpt lat="39.68702081955133" lon="8.682593248805905"><ele>21.0</ele><time>2026-04-04T13:17:33Z</time></trkpt><trkpt lat="39.68702723499106" lon="8.682813440310442"><ele>21.0</ele><time>2026-04-04T13:17:34Z</time></trkpt><trkpt lat="39.68703254364409" lon="8.6830305530327"><ele>21.0</ele><time>2026-04-04T13:17:35Z</time></trkpt><trkpt lat="39.68703746859529" lon="8.683244100752532"><ele>21.0</ele><time>2026-04-04T13:17:36Z</time></trkpt><trkpt lat="39.68704104148229" lon="8.683460165016033"><ele>21.0</ele><time>2026-04-04T13:17:37Z</time></trkpt><trkpt lat="39.687044918147606" lon="8.683674553833884"><ele>21.0</ele><time>2026-04-04T13:17:38Z</time></trkpt><trkpt lat="39.687048452499816" lon="8.683885167921938"><ele>21.0</ele><time>2026-04-04T13:17:39Z</time></trkpt><trkpt lat="39.68705239296906" lon="8.684097251415672"><ele>21.0</ele><time>2026-04-04T13:17:40Z</time></trkpt><trkpt lat="39.68705975840382" lon="8.684314598407692"><ele>21.0</ele><time>2026-04-04T13:17:41Z</time></trkpt><trkpt lat="39.68706751013074" lon="8.6845306853955"><ele>20.666666666666668</ele><time>2026-04-04T13:17:42Z</time></trkpt><trkpt lat="39.6870694072191" lon="8.684746135073395"><ele>20.333333333333336</ele><time>2026-04-04T13:17:43Z</time></trkpt><trkpt lat="39.687069926233605" lon="8.68495880190911"><ele>20.0</ele><time>2026-04-04T13:17:44Z</time></trkpt><trkpt lat="39.68707651116525" lon="8.685170712309578"><ele>21.0</ele><time>2026-04-04T13:17:45Z</time></trkpt><trkpt lat="39.68707996984174" lon="8.685389010974154"><ele>22.0</ele><time>2026-04-04T13:17:46Z</time></trkpt><trkpt lat="39.68709056549464" lon="8.685600882751304"><ele>23.0</ele><time>2026-04-04T13:17:47Z</time></trkpt><trkpt lat="39.6870951632178" lon="8.685821453320994"><ele>23.0</ele><time>2026-04-04T13:17:48Z</time></trkpt><trkpt lat="39.68710061106217" lon="8.686038242917563"><ele>23.0</ele><time>2026-04-04T13:17:49Z</time></trkpt><trkpt lat="39.687106374032524" lon="8.686257441060825"><ele>23.0</ele><time>2026-04-04T13:17:50Z</time></trkpt><trkpt lat="39.68710994296809" lon="8.686479261631833"><ele>23.0</ele><time>2026-04-04T13:17:51Z</time></trkpt><trkpt lat="39.68711411206151" lon="8.686702320444422"><ele>23.0</ele><time>2026-04-04T13:17:52Z</time></trkpt><trkpt lat="39.68711872830012" lon="8.68692627555469"><ele>23.0</ele><time>2026-04-04T13:17:53Z</time></trkpt><trkpt lat="39.68712405032207" lon="8.687151666601737"><ele>23.0</ele><time>2026-04-04T13:17:54Z</time></trkpt><trkpt lat="39.68712561267793" lon="8.687381629203557"><ele>23.0</ele><time>2026-04-04T13:17:55Z</time></trkpt><trkpt lat="39.6871311976237" lon="8.687611423463583"><ele>23.0</ele><time>2026-04-04T13:17:56Z</time></trkpt><trkpt lat="39.68713828241376" lon="8.687840924294461"><ele>22.333333333333336</ele><time>2026-04-04T13:17:57Z</time></trkpt><trkpt lat="39.68715655581706" lon="8.688067543898237"><ele>21.666666666666668</ele><time>2026-04-04T13:17:58Z</time></trkpt><trkpt lat="39.687159485630566" lon="8.688295291263914"><ele>21.0</ele><time>2026-04-04T13:17:59Z</time></trkpt><trkpt lat="39.68719251871674" lon="8.688517405326277"><ele>21.333333333333332</ele><time>2026-04-04T13:18:00Z</time></trkpt><trkpt lat="39.687239711509754" lon="8.6887370367445"><ele>21.666666666666664</ele><time>2026-04-04T13:18:01Z</time></trkpt><trkpt lat="39.68730041049485" lon="8.688945335325679"><ele>22.0</ele><time>2026-04-04T13:18:02Z</time></trkpt><trkpt lat="39.68736952082381" lon="8.689149120864144"><ele>22.0</ele><time>2026-04-04T13:18:03Z</time></trkpt><trkpt lat="39.68745384175338" lon="8.689344886344717"><ele>22.0</ele><time>2026-04-04T13:18:04Z</time></trkpt><trkpt lat="39.6875512470178" lon="8.689532678901244"><ele>22.0</ele><time>2026-04-04T13:18:05Z</time></trkpt><trkpt lat="39.68766806078554" lon="8.689699100231037"><ele>22.0</ele><time>2026-04-04T13:18:06Z</time></trkpt><trkpt lat="39.687777114100854" lon="8.689873644947852"><ele>22.0</ele><time>2026-04-04T13:18:07Z</time></trkpt><trkpt lat="39.68788921402695" lon="8.690046031293008"><ele>22.0</ele><time>2026-04-04T13:18:08Z</time></trkpt><trkpt lat="39.68800286825801" lon="8.690220340404744"><ele>22.333333333333332</ele><time>2026-04-04T13:18:09Z</time></trkpt><trkpt lat="39.688114011383" lon="8.690393427904445"><ele>22.666666666666668</ele><time>2026-04-04T13:18:10Z</time></trkpt><trkpt lat="39.688226628728344" lon="8.690564303791085"><ele>23.0</ele><time>2026-04-04T13:18:11Z</time></trkpt><trkpt lat="39.68833459901015" lon="8.69073301753122"><ele>23.0</ele><time>2026-04-04T13:18:12Z</time></trkpt><trkpt lat="39.688442139575685" lon="8.69089621390102"><ele>23.0</ele><time>2026-04-04T13:18:13Z</time></trkpt><trkpt lat="39.68854582887583" lon="8.69105405233194"><ele>23.0</ele><time>2026-04-04T13:18:14Z</time></trkpt><trkpt lat="39.68864594267276" lon="8.691209781732733"><ele>22.666666666666668</ele><time>2026-04-04T13:18:15Z</time></trkpt><trkpt lat="39.68875092826825" lon="8.691368250530282"><ele>22.333333333333332</ele><time>2026-04-04T13:18:16Z</time></trkpt><trkpt lat="39.6888517432516" lon="8.69151726562247"><ele>22.0</ele><time>2026-04-04T13:18:17Z</time></trkpt><trkpt lat="39.68895229985879" lon="8.691667928297559"><ele>22.0</ele><time>2026-04-04T13:18:18Z</time></trkpt><trkpt lat="39.68904966617926" lon="8.691816738280032"><ele>22.0</ele><time>2026-04-04T13:18:19Z</time></trkpt><trkpt lat="39.68914010555461" lon="8.691971647419516"><ele>22.0</ele><time>2026-04-04T13:18:20Z</time></trkpt><trkpt lat="39.68922886431418" lon="8.69213367401732"><ele>22.333333333333332</ele><time>2026-04-04T13:18:21Z</time></trkpt><trkpt lat="39.68930745577206" lon="8.692306270426517"><ele>22.666666666666668</ele><time>2026-04-04T13:18:22Z</time></trkpt><trkpt lat="39.68937998594985" lon="8.692484973302264"><ele>23.0</ele><time>2026-04-04T13:18:23Z</time></trkpt><trkpt lat="39.68945039719203" lon="8.692666956596764"><ele>23.0</ele><time>2026-04-04T13:18:24Z</time></trkpt><trkpt lat="39.689520228024" lon="8.69285972751204"><ele>23.0</ele><time>2026-04-04T13:18:25Z</time></trkpt><trkpt lat="39.689594182694854" lon="8.693053187779135"><ele>23.0</ele><time>2026-04-04T13:18:26Z</time></trkpt><trkpt lat="39.68966637509371" lon="8.693259522747612"><ele>23.0</ele><time>2026-04-04T13:18:27Z</time></trkpt><trkpt lat="39.68973954226554" lon="8.693464210427402"><ele>23.0</ele><time>2026-04-04T13:18:28Z</time></trkpt><trkpt lat="39.689812287445214" lon="8.693669865230662"><ele>23.0</ele><time>2026-04-04T13:18:29Z</time></trkpt><trkpt lat="39.68988541244366" lon="8.693877578762136"><ele>22.666666666666668</ele><time>2026-04-04T13:18:30Z</time></trkpt><trkpt lat="39.689959553018156" lon="8.694088265317708"><ele>22.333333333333332</ele><time>2026-04-04T13:18:31Z</time></trkpt><trkpt lat="39.690036813787735" lon="8.694299353167375"><ele>22.0</ele><time>2026-04-04T13:18:32Z</time></trkpt><trkpt lat="39.690114398379365" lon="8.694512906954674"><ele>22.0</ele><time>2026-04-04T13:18:33Z</time></trkpt><trkpt lat="39.69019104627154" lon="8.694733838248304"><ele>22.0</ele><time>2026-04-04T13:18:34Z</time></trkpt><trkpt lat="39.69027218189303" lon="8.694953487993931"><ele>22.0</ele><time>2026-04-04T13:18:35Z</time></trkpt><trkpt lat="39.69035338667838" lon="8.695177063701363"><ele>21.666666666666664</ele><time>2026-04-04T13:18:36Z</time></trkpt><trkpt lat="39.690435063613215" lon="8.69540470871618"><ele>21.333333333333332</ele><time>2026-04-04T13:18:37Z</time></trkpt><trkpt lat="39.69052226125645" lon="8.695636877980405"><ele>21.0</ele><time>2026-04-04T13:18:38Z</time></trkpt><trkpt lat="39.690614624086614" lon="8.695877198707233"><ele>21.666666666666668</ele><time>2026-04-04T13:18:39Z</time></trkpt><trkpt lat="39.690706493834035" lon="8.696123019949622"><ele>22.333333333333336</ele><time>2026-04-04T13:18:40Z</time></trkpt><trkpt lat="39.690799392997214" lon="8.696375733341803"><ele>23.0</ele><time>2026-04-04T13:18:41Z</time></trkpt><trkpt lat="39.69087634127372" lon="8.696635071277113"><ele>23.0</ele><time>2026-04-04T13:18:42Z</time></trkpt><trkpt lat="39.69096416894869" lon="8.696876565513868"><ele>23.0</ele><time>2026-04-04T13:18:43Z</time></trkpt><trkpt lat="39.69105084929696" lon="8.69711566157609"><ele>23.0</ele><time>2026-04-04T13:18:44Z</time></trkpt><trkpt lat="39.691135467409914" lon="8.697347405429989"><ele>22.333333333333336</ele><time>2026-04-04T13:18:45Z</time></trkpt><trkpt lat="39.69121704256998" lon="8.697571359921993"><ele>21.666666666666668</ele><time>2026-04-04T13:18:46Z</time></trkpt><trkpt lat="39.69129521267708" lon="8.697785820136955"><ele>21.0</ele><time>2026-04-04T13:18:47Z</time></trkpt><trkpt lat="39.69136795122839" lon="8.697988841510117"><ele>21.0</ele><time>2026-04-04T13:18:48Z</time></trkpt><trkpt lat="39.69144668906456" lon="8.698163519543773"><ele>21.0</ele><time>2026-04-04T13:18:49Z</time></trkpt><trkpt lat="39.69151637878222" lon="8.698364735428306"><ele>21.0</ele><time>2026-04-04T13:18:50Z</time></trkpt><trkpt lat="39.69158570279762" lon="8.698560294033754"><ele>21.666666666666668</ele><time>2026-04-04T13:18:51Z</time></trkpt><trkpt lat="39.69165512250215" lon="8.698761246870205"><ele>22.333333333333336</ele><time>2026-04-04T13:18:52Z</time></trkpt><trkpt lat="39.691727509472386" lon="8.698963085349156"><ele>23.0</ele><time>2026-04-04T13:18:53Z</time></trkpt><trkpt lat="39.691796684023494" lon="8.699159216077833"><ele>23.0</ele><time>2026-04-04T13:18:54Z</time></trkpt><trkpt lat="39.691862999735406" lon="8.69934808431328"><ele>23.0</ele><time>2026-04-04T13:18:55Z</time></trkpt><trkpt lat="39.69192925195991" lon="8.699540771206255"><ele>23.0</ele><time>2026-04-04T13:18:56Z</time></trkpt><trkpt lat="39.69199355333984" lon="8.699727709608698"><ele>22.333333333333336</ele><time>2026-04-04T13:18:57Z</time></trkpt><trkpt lat="39.69206303933162" lon="8.699921905247113"><ele>21.666666666666668</ele><time>2026-04-04T13:18:58Z</time></trkpt><trkpt lat="39.69213003429794" lon="8.700114234442525"><ele>21.0</ele><time>2026-04-04T13:18:59Z</time></trkpt><trkpt lat="39.6921990617615" lon="8.700305598119218"><ele>21.0</ele><time>2026-04-04T13:19:00Z</time></trkpt><trkpt lat="39.69226894914489" lon="8.70049969669486"><ele>21.0</ele><time>2026-04-04T13:19:01Z</time></trkpt><trkpt lat="39.69232158191292" lon="8.700694682675639"><ele>21.0</ele><time>2026-04-04T13:19:02Z</time></trkpt><trkpt lat="39.692387792465915" lon="8.700882750768717"><ele>21.0</ele><time>2026-04-04T13:19:03Z</time></trkpt><trkpt lat="39.69244686645291" lon="8.7010505478516"><ele>21.0</ele><time>2026-04-04T13:19:04Z</time></trkpt><trkpt lat="39.692496687867" lon="8.701192014780025"><ele>21.0</ele><time>2026-04-04T13:19:05Z</time></trkpt><trkpt lat="39.69254007171142" lon="8.701314709722745"><ele>21.0</ele><time>2026-04-04T13:19:06Z</time></trkpt><trkpt lat="39.69257758487956" lon="8.701420395272288"><ele>21.333333333333332</ele><time>2026-04-04T13:19:07Z</time></trkpt><trkpt lat="39.69260829995888" lon="8.701506662059554"><ele>21.666666666666668</ele><time>2026-04-04T13:19:08Z</time></trkpt><trkpt lat="39.69264848829755" lon="8.701619428542134"><ele>22.0</ele><time>2026-04-04T13:19:10Z</time></trkpt><trkpt lat="39.69276698093437" lon="8.70160494075257"><ele>22.333333333333336</ele><time>2026-04-04T13:19:13Z</time></trkpt><trkpt lat="39.692841479393195" lon="8.701574503213655"><ele>22.666666666666668</ele><time>2026-04-04T13:19:17Z</time></trkpt><trkpt lat="39.69290852958912" lon="8.701603985469896"><ele>23.0</ele><time>2026-04-04T13:25:31Z</time></trkpt><trkpt lat="39.69271775123919" lon="8.701813048617593"><ele>23.0</ele><time>2026-04-04T13:25:34Z</time></trkpt><trkpt lat="39.69274887078736" lon="8.701885674139808"><ele>23.0</ele><time>2026-04-04T13:25:38Z</time></trkpt><trkpt lat="39.69279616042575" lon="8.702022080037517"><ele>23.0</ele><time>2026-04-04T13:25:40Z</time></trkpt><trkpt lat="39.69283895274477" lon="8.702130619841064"><ele>23.0</ele><time>2026-04-04T13:25:41Z</time></trkpt><trkpt lat="39.69288399154392" lon="8.702256241063555"><ele>23.0</ele><time>2026-04-04T13:25:42Z</time></trkpt><trkpt lat="39.69293314858324" lon="8.702396283812693"><ele>23.25</ele><time>2026-04-04T13:25:43Z</time></trkpt><trkpt lat="39.69299457689068" lon="8.702565599087567"><ele>23.5</ele><time>2026-04-04T13:25:44Z</time></trkpt><trkpt lat="39.693058880384264" lon="8.702737576592819"><ele>23.75</ele><time>2026-04-04T13:25:45Z</time></trkpt><trkpt lat="39.69312507141555" lon="8.702909304399938"><ele>24.0</ele><time>2026-04-04T13:25:46Z</time></trkpt><trkpt lat="39.69319298901196" lon="8.703083711491978"><ele>24.0</ele><time>2026-04-04T13:25:47Z</time></trkpt><trkpt lat="39.693260166776334" lon="8.703260332778282"><ele>24.0</ele><time>2026-04-04T13:25:48Z</time></trkpt><trkpt lat="39.69332545446913" lon="8.703429214078236"><ele>24.0</ele><time>2026-04-04T13:25:49Z</time></trkpt><trkpt lat="39.693387905149805" lon="8.703590017168379"><ele>24.0</ele><time>2026-04-04T13:25:50Z</time></trkpt><trkpt lat="39.69345023660549" lon="8.703741459100904"><ele>24.25</ele><time>2026-04-04T13:25:51Z</time></trkpt><trkpt lat="39.69350851450837" lon="8.703886000842266"><ele>24.5</ele><time>2026-04-04T13:25:52Z</time></trkpt><trkpt lat="39.693562014587364" lon="8.704026828343926"><ele>24.75</ele><time>2026-04-04T13:25:53Z</time></trkpt><trkpt lat="39.69361436115736" lon="8.7041685851829"><ele>25.0</ele><time>2026-04-04T13:25:54Z</time></trkpt><trkpt lat="39.69366811129853" lon="8.704313299880948"><ele>25.5</ele><time>2026-04-04T13:25:55Z</time></trkpt><trkpt lat="39.6937227510585" lon="8.704458117252457"><ele>26.0</ele><time>2026-04-04T13:25:56Z</time></trkpt><trkpt lat="39.69378043956833" lon="8.704605421331596"><ele>26.5</ele><time>2026-04-04T13:25:57Z</time></trkpt><trkpt lat="39.693837160368446" lon="8.704752946594786"><ele>27.0</ele><time>2026-04-04T13:25:58Z</time></trkpt><trkpt lat="39.69388390849587" lon="8.704901598353327"><ele>27.0</ele><time>2026-04-04T13:25:59Z</time></trkpt><trkpt lat="39.69391074718629" lon="8.705053001770379"><ele>27.0</ele><time>2026-04-04T13:26:00Z</time></trkpt><trkpt lat="39.693929728831264" lon="8.705205029648026"><ele>27.0</ele><time>2026-04-04T13:26:01Z</time></trkpt><trkpt lat="39.69389232988435" lon="8.705346295718938"><ele>27.0</ele><time>2026-04-04T13:26:02Z</time></trkpt><trkpt lat="39.69385265656151" lon="8.70548512570073"><ele>27.0</ele><time>2026-04-04T13:26:03Z</time></trkpt><trkpt lat="39.69378818281702" lon="8.70558732682467"><ele>27.000000000000004</ele><time>2026-04-04T13:26:04Z</time></trkpt><trkpt lat="39.69370241996412" lon="8.705673265933367"><ele>27.000000000000004</ele><time>2026-04-04T13:26:05Z</time></trkpt><trkpt lat="39.6936216388979" lon="8.705759691381461"><ele>27.0</ele><time>2026-04-04T13:26:06Z</time></trkpt><trkpt lat="39.693534243788946" lon="8.705853810585012"><ele>27.0</ele><time>2026-04-04T13:26:07Z</time></trkpt><trkpt lat="39.693442438578906" lon="8.705950896367439"><ele>27.0</ele><time>2026-04-04T13:26:08Z</time></trkpt><trkpt lat="39.69334251543844" lon="8.7060497897062"><ele>27.0</ele><time>2026-04-04T13:26:09Z</time></trkpt><trkpt lat="39.69323550456519" lon="8.706151609656931"><ele>27.0</ele><time>2026-04-04T13:26:10Z</time></trkpt><trkpt lat="39.693122505916726" lon="8.70625756401029"><ele>27.0</ele><time>2026-04-04T13:26:11Z</time></trkpt><trkpt lat="39.693006475627335" lon="8.706370822166466"><ele>27.0</ele><time>2026-04-04T13:26:12Z</time></trkpt><trkpt lat="39.692887624071794" lon="8.70648393724928"><ele>27.0</ele><time>2026-04-04T13:26:13Z</time></trkpt><trkpt lat="39.69276404810121" lon="8.706597839450477"><ele>27.0</ele><time>2026-04-04T13:26:14Z</time></trkpt><trkpt lat="39.69263835465454" lon="8.706712549700104"><ele>27.0</ele><time>2026-04-04T13:26:15Z</time></trkpt><trkpt lat="39.692509855984" lon="8.70683101779219"><ele>27.0</ele><time>2026-04-04T13:26:16Z</time></trkpt><trkpt lat="39.692379684590165" lon="8.706954416402633"><ele>27.0</ele><time>2026-04-04T13:26:17Z</time></trkpt><trkpt lat="39.69224713480752" lon="8.707078082603108"><ele>28.333333333333336</ele><time>2026-04-04T13:26:18Z</time></trkpt><trkpt lat="39.692115880659124" lon="8.707200901028079"><ele>29.666666666666668</ele><time>2026-04-04T13:26:19Z</time></trkpt><trkpt lat="39.69198311833095" lon="8.707325534400738"><ele>31.0</ele><time>2026-04-04T13:26:20Z</time></trkpt><trkpt lat="39.69185064163476" lon="8.707451842218443"><ele>31.0</ele><time>2026-04-04T13:26:21Z</time></trkpt><trkpt lat="39.69171456485787" lon="8.707578271869329"><ele>31.0</ele><time>2026-04-04T13:26:22Z</time></trkpt><trkpt lat="39.69157953405312" lon="8.707701118667535"><ele>31.0</ele><time>2026-04-04T13:26:23Z</time></trkpt><trkpt lat="39.691441568337325" lon="8.707822661686047"><ele>31.0</ele><time>2026-04-04T13:26:24Z</time></trkpt><trkpt lat="39.691306832400244" lon="8.707948723757777"><ele>31.0</ele><time>2026-04-04T13:26:25Z</time></trkpt><trkpt lat="39.69117341477974" lon="8.708076247920062"><ele>31.0</ele><time>2026-04-04T13:26:26Z</time></trkpt><trkpt lat="39.69103854392745" lon="8.708204288576312"><ele>31.666666666666668</ele><time>2026-04-04T13:26:27Z</time></trkpt><trkpt lat="39.69090214199023" lon="8.708327574094328"><ele>32.333333333333336</ele><time>2026-04-04T13:26:28Z</time></trkpt><trkpt lat="39.69076759257964" lon="8.708454034690767"><ele>33.0</ele><time>2026-04-04T13:26:29Z</time></trkpt><trkpt lat="39.69063499786087" lon="8.708577925610053"><ele>33.0</ele><time>2026-04-04T13:26:30Z</time></trkpt><trkpt lat="39.69050240124901" lon="8.708704019947705"><ele>33.0</ele><time>2026-04-04T13:26:31Z</time></trkpt><trkpt lat="39.69036604344688" lon="8.708830287940852"><ele>33.0</ele><time>2026-04-04T13:26:32Z</time></trkpt><trkpt lat="39.6902326736787" lon="8.70895757413"><ele>33.333333333333336</ele><time>2026-04-04T13:26:33Z</time></trkpt><trkpt lat="39.69010119261551" lon="8.709081205713089"><ele>33.66666666666667</ele><time>2026-04-04T13:26:34Z</time></trkpt><trkpt lat="39.68997015426767" lon="8.709204230598518"><ele>34.0</ele><time>2026-04-04T13:26:35Z</time></trkpt><trkpt lat="39.6898359457676" lon="8.709323124489817"><ele>34.66666666666667</ele><time>2026-04-04T13:26:36Z</time></trkpt><trkpt lat="39.6897042092199" lon="8.709442335319775"><ele>35.333333333333336</ele><time>2026-04-04T13:26:37Z</time></trkpt><trkpt lat="39.68957421166094" lon="8.70956733000837"><ele>36.0</ele><time>2026-04-04T13:26:38Z</time></trkpt><trkpt lat="39.68944347880914" lon="8.709692917295033"><ele>36.666666666666664</ele><time>2026-04-04T13:26:39Z</time></trkpt><trkpt lat="39.68931191221306" lon="8.70981847697255"><ele>37.33333333333333</ele><time>2026-04-04T13:26:40Z</time></trkpt><trkpt lat="39.68917769617509" lon="8.709942715568603"><ele>38.0</ele><time>2026-04-04T13:26:41Z</time></trkpt><trkpt lat="39.68903839900581" lon="8.710064585516252"><ele>38.0</ele><time>2026-04-04T13:26:42Z</time></trkpt><trkpt lat="39.68890259445333" lon="8.710191312151881"><ele>38.0</ele><time>2026-04-04T13:26:43Z</time></trkpt><trkpt lat="39.68876467135227" lon="8.71031833133529"><ele>38.0</ele><time>2026-04-04T13:26:44.001Z</time></trkpt><trkpt lat="39.68862412057625" lon="8.710452924516076"><ele>38.33333333333333</ele><time>2026-04-04T13:26:45.001Z</time></trkpt><trkpt lat="39.688483788612274" lon="8.71058944835661"><ele>38.666666666666664</ele><time>2026-04-04T13:26:46.001Z</time></trkpt><trkpt lat="39.6883426919056" lon="8.710728963451526"><ele>39.0</ele><time>2026-04-04T13:26:47.001Z</time></trkpt><trkpt lat="39.68820130526085" lon="8.710870142549163"><ele>39.0</ele><time>2026-04-04T13:26:48.001Z</time></trkpt><trkpt lat="39.68805749298888" lon="8.711016135301882"><ele>39.0</ele><time>2026-04-04T13:26:49.001Z</time></trkpt><trkpt lat="39.687915537209335" lon="8.711168724347514"><ele>39.0</ele><time>2026-04-04T13:26:50.001Z</time></trkpt><trkpt lat="39.68778141570143" lon="8.711330441154491"><ele>39.0</ele><time>2026-04-04T13:26:51.001Z</time></trkpt><trkpt lat="39.687646919090305" lon="8.711498820636168"><ele>39.0</ele><time>2026-04-04T13:26:52Z</time></trkpt><trkpt lat="39.687516629706316" lon="8.711667704842823"><ele>39.0</ele><time>2026-04-04T13:26:53Z</time></trkpt><trkpt lat="39.68738385703478" lon="8.711848851966444"><ele>39.0</ele><time>2026-04-04T13:26:54Z</time></trkpt><trkpt lat="39.687257717164826" lon="8.712033878573267"><ele>39.0</ele><time>2026-04-04T13:26:55Z</time></trkpt><trkpt lat="39.68713401906315" lon="8.712228660582332"><ele>39.0</ele><time>2026-04-04T13:26:56Z</time></trkpt><trkpt lat="39.6870120978478" lon="8.712427056127908"><ele>39.0</ele><time>2026-04-04T13:26:57Z</time></trkpt><trkpt lat="39.686892232145844" lon="8.712629717597343"><ele>39.0</ele><time>2026-04-04T13:26:58Z</time></trkpt><trkpt lat="39.68677269735646" lon="8.712838313736462"><ele>39.0</ele><time>2026-04-04T13:26:59Z</time></trkpt><trkpt lat="39.68665428964503" lon="8.71303927588968"><ele>39.0</ele><time>2026-04-04T13:27:00Z</time></trkpt><trkpt lat="39.68653437935766" lon="8.71324984432988"><ele>39.0</ele><time>2026-04-04T13:27:01Z</time></trkpt><trkpt lat="39.68641402264134" lon="8.713458722071408"><ele>39.0</ele><time>2026-04-04T13:27:02Z</time></trkpt><trkpt lat="39.686293521883144" lon="8.713668674053148"><ele>38.333333333333336</ele><time>2026-04-04T13:27:03Z</time></trkpt><trkpt lat="39.68616516721271" lon="8.713867196599093"><ele>37.66666666666667</ele><time>2026-04-04T13:27:04Z</time></trkpt><trkpt lat="39.686015342041465" lon="8.71403020509391"><ele>37.0</ele><time>2026-04-04T13:27:05Z</time></trkpt><trkpt lat="39.68584640585712" lon="8.714166690901735"><ele>37.0</ele><time>2026-04-04T13:27:06Z</time></trkpt><trkpt lat="39.68567159121323" lon="8.71428103872076"><ele>37.0</ele><time>2026-04-04T13:27:07Z</time></trkpt><trkpt lat="39.685498704382866" lon="8.714407255733105"><ele>37.0</ele><time>2026-04-04T13:27:08Z</time></trkpt><trkpt lat="39.685332152409366" lon="8.714530019014537"><ele>36.333333333333336</ele><time>2026-04-04T13:27:09Z</time></trkpt><trkpt lat="39.68516928044839" lon="8.714653700284803"><ele>35.666666666666664</ele><time>2026-04-04T13:27:10Z</time></trkpt><trkpt lat="39.68500648192586" lon="8.7147800988083"><ele>35.0</ele><time>2026-04-04T13:27:11Z</time></trkpt><trkpt lat="39.684845149278964" lon="8.714910749089707"><ele>35.0</ele><time>2026-04-04T13:27:12Z</time></trkpt><trkpt lat="39.684686138656566" lon="8.715048854649197"><ele>35.0</ele><time>2026-04-04T13:27:13Z</time></trkpt><trkpt lat="39.68452857456902" lon="8.715194408761963"><ele>35.0</ele><time>2026-04-04T13:27:14Z</time></trkpt><trkpt lat="39.684371599070886" lon="8.715343707389945"><ele>34.33333333333333</ele><time>2026-04-04T13:27:15Z</time></trkpt><trkpt lat="39.684211463600626" lon="8.715489298732274"><ele>33.666666666666664</ele><time>2026-04-04T13:27:16Z</time></trkpt><trkpt lat="39.68405056014025" lon="8.715635287650382"><ele>33.0</ele><time>2026-04-04T13:27:17Z</time></trkpt><trkpt lat="39.683887475460736" lon="8.715783683607953"><ele>33.0</ele><time>2026-04-04T13:27:18Z</time></trkpt><trkpt lat="39.68372474372389" lon="8.715931055253147"><ele>33.0</ele><time>2026-04-04T13:27:19Z</time></trkpt><trkpt lat="39.683563195960495" lon="8.716083554063687"><ele>33.0</ele><time>2026-04-04T13:27:20Z</time></trkpt><trkpt lat="39.68339974613046" lon="8.716237328566097"><ele>33.333333333333336</ele><time>2026-04-04T13:27:21Z</time></trkpt><trkpt lat="39.68323711176996" lon="8.716390412391073"><ele>33.66666666666667</ele><time>2026-04-04T13:27:22Z</time></trkpt><trkpt lat="39.683074809251956" lon="8.716541364795981"><ele>34.0</ele><time>2026-04-04T13:27:23Z</time></trkpt><trkpt lat="39.68291054662019" lon="8.71669232526428"><ele>34.0</ele><time>2026-04-04T13:27:24Z</time></trkpt><trkpt lat="39.68274631865793" lon="8.716843024539186"><ele>34.0</ele><time>2026-04-04T13:27:25Z</time></trkpt><trkpt lat="39.682582232194754" lon="8.716994410053328"><ele>34.0</ele><time>2026-04-04T13:27:26Z</time></trkpt><trkpt lat="39.6824200900862" lon="8.717146398603315"><ele>34.0</ele><time>2026-04-04T13:27:27Z</time></trkpt><trkpt lat="39.68225660592353" lon="8.717300391654588"><ele>34.0</ele><time>2026-04-04T13:27:28Z</time></trkpt><trkpt lat="39.682093823643974" lon="8.7174529524675"><ele>34.0</ele><time>2026-04-04T13:27:29Z</time></trkpt><trkpt lat="39.68192827546982" lon="8.717607654718995"><ele>34.333333333333336</ele><time>2026-04-04T13:27:30Z</time></trkpt><trkpt lat="39.68176165954853" lon="8.717762817573673"><ele>34.666666666666664</ele><time>2026-04-04T13:27:31Z</time></trkpt><trkpt lat="39.681592266587856" lon="8.717920631894374"><ele>35.0</ele><time>2026-04-04T13:27:32Z</time></trkpt><trkpt lat="39.68142054687339" lon="8.71808062478721"><ele>35.0</ele><time>2026-04-04T13:27:33Z</time></trkpt><trkpt lat="39.68124827312978" lon="8.718242766156926"><ele>35.0</ele><time>2026-04-04T13:27:34Z</time></trkpt><trkpt lat="39.68107838407678" lon="8.718401255598913"><ele>35.0</ele><time>2026-04-04T13:27:35Z</time></trkpt><trkpt lat="39.680904677742475" lon="8.718564127643669"><ele>35.0</ele><time>2026-04-04T13:27:36Z</time></trkpt><trkpt lat="39.68073074035587" lon="8.718726522654695"><ele>35.0</ele><time>2026-04-04T13:27:37Z</time></trkpt><trkpt lat="39.68055542101197" lon="8.71888801570946"><ele>35.0</ele><time>2026-04-04T13:27:38Z</time></trkpt><trkpt lat="39.68037935129618" lon="8.719049316961907"><ele>34.666666666666664</ele><time>2026-04-04T13:27:39Z</time></trkpt><trkpt lat="39.6802037196808" lon="8.719211360544405"><ele>34.333333333333336</ele><time>2026-04-04T13:27:40Z</time></trkpt><trkpt lat="39.680029270115334" lon="8.719371918405562"><ele>34.0</ele><time>2026-04-04T13:27:41Z</time></trkpt><trkpt lat="39.67985476071355" lon="8.719531946602459"><ele>34.0</ele><time>2026-04-04T13:27:42Z</time></trkpt><trkpt lat="39.67968055186588" lon="8.719684278063438"><ele>34.0</ele><time>2026-04-04T13:27:43Z</time></trkpt><trkpt lat="39.67950520964421" lon="8.719826146132764"><ele>34.0</ele><time>2026-04-04T13:27:44Z</time></trkpt><trkpt lat="39.67932559445582" lon="8.71995007008163"><ele>34.333333333333336</ele><time>2026-04-04T13:27:45Z</time></trkpt><trkpt lat="39.679149753436704" lon="8.720064110496462"><ele>34.666666666666664</ele><time>2026-04-04T13:27:46Z</time></trkpt><trkpt lat="39.678971938286345" lon="8.720169069442374"><ele>35.0</ele><time>2026-04-04T13:27:47Z</time></trkpt><trkpt lat="39.678787580394854" lon="8.720263279584978"><ele>35.0</ele><time>2026-04-04T13:27:48Z</time></trkpt><trkpt lat="39.678597998623765" lon="8.720344902309591"><ele>35.0</ele><time>2026-04-04T13:27:49Z</time></trkpt><trkpt lat="39.67841459785441" lon="8.720408035811777"><ele>35.0</ele><time>2026-04-04T13:27:50Z</time></trkpt><trkpt lat="39.67823185701615" lon="8.720462378491467"><ele>35.0</ele><time>2026-04-04T13:27:51Z</time></trkpt><trkpt lat="39.67805934029211" lon="8.720520284098216"><ele>35.0</ele><time>2026-04-04T13:27:52Z</time></trkpt><trkpt lat="39.677893186760095" lon="8.720589605412906"><ele>35.0</ele><time>2026-04-04T13:27:53Z</time></trkpt><trkpt lat="39.67773874847228" lon="8.72069109632969"><ele>35.33333333333333</ele><time>2026-04-04T13:27:54Z</time></trkpt><trkpt lat="39.67759438152476" lon="8.720819203168828"><ele>35.666666666666664</ele><time>2026-04-04T13:27:55Z</time></trkpt><trkpt lat="39.677463732251674" lon="8.720968231046232"><ele>36.0</ele><time>2026-04-04T13:27:56Z</time></trkpt><trkpt lat="39.67735170720318" lon="8.721143568527015"><ele>36.0</ele><time>2026-04-04T13:27:57Z</time></trkpt><trkpt lat="39.67725881995313" lon="8.72134078867198"><ele>36.0</ele><time>2026-04-04T13:27:58Z</time></trkpt><trkpt lat="39.67717909390469" lon="8.72155163143871"><ele>36.0</ele><time>2026-04-04T13:27:59Z</time></trkpt><trkpt lat="39.67709192494115" lon="8.721752203420651"><ele>36.0</ele><time>2026-04-04T13:28:00Z</time></trkpt><trkpt lat="39.67700300097453" lon="8.721943179087354"><ele>36.0</ele><time>2026-04-04T13:28:01Z</time></trkpt><trkpt lat="39.676908291578485" lon="8.722131440424405"><ele>36.0</ele><time>2026-04-04T13:28:02Z</time></trkpt><trkpt lat="39.67679815582135" lon="8.722312333526416"><ele>36.0</ele><time>2026-04-04T13:28:03Z</time></trkpt><trkpt lat="39.67667042000647" lon="8.72248038956948"><ele>36.0</ele><time>2026-04-04T13:28:04Z</time></trkpt><trkpt lat="39.67653593782659" lon="8.722646203671111"><ele>36.0</ele><time>2026-04-04T13:28:05Z</time></trkpt><trkpt lat="39.676394874540335" lon="8.722809873827908"><ele>36.0</ele><time>2026-04-04T13:28:06Z</time></trkpt><trkpt lat="39.67624274435966" lon="8.722965378535834"><ele>36.0</ele><time>2026-04-04T13:28:07Z</time></trkpt><trkpt lat="39.67608748472914" lon="8.723115464072272"><ele>36.0</ele><time>2026-04-04T13:28:08Z</time></trkpt><trkpt lat="39.675933160179795" lon="8.723262178534458"><ele>36.0</ele><time>2026-04-04T13:28:09Z</time></trkpt><trkpt lat="39.67577632162284" lon="8.72341148837503"><ele>36.0</ele><time>2026-04-04T13:28:10Z</time></trkpt><trkpt lat="39.6756229089697" lon="8.72356089632725"><ele>36.0</ele><time>2026-04-04T13:28:11Z</time></trkpt><trkpt lat="39.67547023494512" lon="8.72371247698078"><ele>36.0</ele><time>2026-04-04T13:28:12Z</time></trkpt><trkpt lat="39.675319487174455" lon="8.72386865355736"><ele>36.0</ele><time>2026-04-04T13:28:13Z</time></trkpt><trkpt lat="39.675169753070634" lon="8.724025814670927"><ele>36.0</ele><time>2026-04-04T13:28:14Z</time></trkpt><trkpt lat="39.67501507205962" lon="8.72418231293162"><ele>35.666666666666664</ele><time>2026-04-04T13:28:15Z</time></trkpt><trkpt lat="39.67485917491748" lon="8.724336665988588"><ele>35.33333333333333</ele><time>2026-04-04T13:28:16Z</time></trkpt><trkpt lat="39.67470233578301" lon="8.724489382358815"><ele>35.0</ele><time>2026-04-04T13:28:17Z</time></trkpt><trkpt lat="39.67454306848926" lon="8.724641544700892"><ele>34.666666666666664</ele><time>2026-04-04T13:28:18Z</time></trkpt><trkpt lat="39.67438298972008" lon="8.724793422307517"><ele>34.333333333333336</ele><time>2026-04-04T13:28:19Z</time></trkpt><trkpt lat="39.67422279464088" lon="8.72494463852297"><ele>34.0</ele><time>2026-04-04T13:28:20Z</time></trkpt><trkpt lat="39.674060888177586" lon="8.725096170112563"><ele>34.333333333333336</ele><time>2026-04-04T13:28:21Z</time></trkpt><trkpt lat="39.67389857632724" lon="8.725245467948316"><ele>34.666666666666664</ele><time>2026-04-04T13:28:22Z</time></trkpt><trkpt lat="39.6737357178224" lon="8.72539665849331"><ele>35.0</ele><time>2026-04-04T13:28:23Z</time></trkpt><trkpt lat="39.67357252483224" lon="8.72554934470059"><ele>35.0</ele><time>2026-04-04T13:28:24Z</time></trkpt><trkpt lat="39.67340916730092" lon="8.725703786190213"><ele>35.0</ele><time>2026-04-04T13:28:25Z</time></trkpt><trkpt lat="39.67324588517705" lon="8.725866047306166"><ele>35.0</ele><time>2026-04-04T13:28:26Z</time></trkpt><trkpt lat="39.673081548874" lon="8.726026334988719"><ele>34.666666666666664</ele><time>2026-04-04T13:28:27Z</time></trkpt><trkpt lat="39.67291550703692" lon="8.726183858229563"><ele>34.333333333333336</ele><time>2026-04-04T13:28:28Z</time></trkpt><trkpt lat="39.67275113256095" lon="8.726338101546684"><ele>34.0</ele><time>2026-04-04T13:28:29Z</time></trkpt><trkpt lat="39.672585298147624" lon="8.72649213144959"><ele>34.66666666666667</ele><time>2026-04-04T13:28:30Z</time></trkpt><trkpt lat="39.67241954567936" lon="8.726645727100774"><ele>35.333333333333336</ele><time>2026-04-04T13:28:31Z</time></trkpt><trkpt lat="39.67225302453843" lon="8.72679860323717"><ele>36.0</ele><time>2026-04-04T13:28:32Z</time></trkpt><trkpt lat="39.67208693125614" lon="8.72695343935003"><ele>36.666666666666664</ele><time>2026-04-04T13:28:33Z</time></trkpt><trkpt lat="39.67191756677127" lon="8.727108546255405"><ele>37.33333333333333</ele><time>2026-04-04T13:28:34Z</time></trkpt><trkpt lat="39.67174973961191" lon="8.727261505405107"><ele>38.0</ele><time>2026-04-04T13:28:35Z</time></trkpt><trkpt lat="39.671576336302216" lon="8.727413301891255"><ele>38.0</ele><time>2026-04-04T13:28:36Z</time></trkpt><trkpt lat="39.671402880611275" lon="8.72756468633416"><ele>38.0</ele><time>2026-04-04T13:28:37Z</time></trkpt><trkpt lat="39.67122952460752" lon="8.72771528846866"><ele>38.0</ele><time>2026-04-04T13:28:38Z</time></trkpt><trkpt lat="39.67105656598428" lon="8.727872408367135"><ele>38.33333333333333</ele><time>2026-04-04T13:28:39Z</time></trkpt><trkpt lat="39.6708817578104" lon="8.728030880585653"><ele>38.666666666666664</ele><time>2026-04-04T13:28:40Z</time></trkpt><trkpt lat="39.67070612270778" lon="8.728188030252296"><ele>39.0</ele><time>2026-04-04T13:28:41Z</time></trkpt><trkpt lat="39.67053263829296" lon="8.728348450017972"><ele>39.0</ele><time>2026-04-04T13:28:42Z</time></trkpt><trkpt lat="39.67035907524138" lon="8.728516018166218"><ele>39.0</ele><time>2026-04-04T13:28:43Z</time></trkpt><trkpt lat="39.670184347167634" lon="8.728688141919532"><ele>39.0</ele><time>2026-04-04T13:28:44Z</time></trkpt><trkpt lat="39.67000624253536" lon="8.728858500841994"><ele>38.5</ele><time>2026-04-04T13:28:45Z</time></trkpt><trkpt lat="39.669825435416264" lon="8.729030234260314"><ele>38.0</ele><time>2026-04-04T13:28:46Z</time></trkpt><trkpt lat="39.669643911436886" lon="8.729204914189426"><ele>38.0</ele><time>2026-04-04T13:28:47Z</time></trkpt><trkpt lat="39.66946228457456" lon="8.729388587852537"><ele>38.0</ele><time>2026-04-04T13:28:48Z</time></trkpt><trkpt lat="39.66927834978386" lon="8.72956633719048"><ele>38.0</ele><time>2026-04-04T13:28:49Z</time></trkpt><trkpt lat="39.6690931180072" lon="8.72974768941421"><ele>38.0</ele><time>2026-04-04T13:28:50Z</time></trkpt><trkpt lat="39.66890541954118" lon="8.729931481328686"><ele>38.0</ele><time>2026-04-04T13:28:51Z</time></trkpt><trkpt lat="39.66871287498259" lon="8.730121925590316"><ele>38.0</ele><time>2026-04-04T13:28:52Z</time></trkpt><trkpt lat="39.66851287818794" lon="8.730313987050083"><ele>37.0</ele><time>2026-04-04T13:28:53Z</time></trkpt><trkpt lat="39.668305712907916" lon="8.730515514594908"><ele>36.0</ele><time>2026-04-04T13:28:54Z</time></trkpt><trkpt lat="39.66808651228853" lon="8.730730630583016"><ele>36.0</ele><time>2026-04-04T13:28:55Z</time></trkpt><trkpt lat="39.667857596205856" lon="8.730952499649252"><ele>36.0</ele><time>2026-04-04T13:28:56Z</time></trkpt><trkpt lat="39.66763833126944" lon="8.731166006307292"><ele>36.0</ele><time>2026-04-04T13:28:57Z</time></trkpt><trkpt lat="39.66742341818518" lon="8.731371600796683"><ele>36.0</ele><time>2026-04-04T13:28:58Z</time></trkpt><trkpt lat="39.6672130697095" lon="8.731574107346704"><ele>36.0</ele><time>2026-04-04T13:28:59Z</time></trkpt><trkpt lat="39.66700572534516" lon="8.731772377758107"><ele>36.0</ele><time>2026-04-04T13:29:00Z</time></trkpt><trkpt lat="39.66680291747583" lon="8.731969988246824"><ele>36.0</ele><time>2026-04-04T13:29:01Z</time></trkpt><trkpt lat="39.6666049055056" lon="8.732162557289751"><ele>36.0</ele><time>2026-04-04T13:29:02Z</time></trkpt><trkpt lat="39.66641190130076" lon="8.732350333405318"><ele>36.0</ele><time>2026-04-04T13:29:03Z</time></trkpt><trkpt lat="39.66622336419608" lon="8.732534545262816"><ele>36.0</ele><time>2026-04-04T13:29:04Z</time></trkpt><trkpt lat="39.66603492146226" lon="8.732716295472043"><ele>35.0</ele><time>2026-04-04T13:29:05Z</time></trkpt><trkpt lat="39.66584813944236" lon="8.732898347923387"><ele>34.0</ele><time>2026-04-04T13:29:06Z</time></trkpt><trkpt lat="39.66566180251817" lon="8.733078303995274"><ele>34.0</ele><time>2026-04-04T13:29:07Z</time></trkpt><trkpt lat="39.66547117988068" lon="8.73325403520204"><ele>34.0</ele><time>2026-04-04T13:29:08Z</time></trkpt><trkpt lat="39.66528016927049" lon="8.733431052890323"><ele>35.5</ele><time>2026-04-04T13:29:09Z</time></trkpt><trkpt lat="39.66509223051379" lon="8.7336040113025"><ele>37.0</ele><time>2026-04-04T13:29:10Z</time></trkpt><trkpt lat="39.66490829042542" lon="8.733774038130628"><ele>37.0</ele><time>2026-04-04T13:29:11Z</time></trkpt><trkpt lat="39.664730181773756" lon="8.733937587046798"><ele>37.0</ele><time>2026-04-04T13:29:12Z</time></trkpt><trkpt lat="39.66456236539782" lon="8.73409365888111"><ele>37.0</ele><time>2026-04-04T13:29:13Z</time></trkpt><trkpt lat="39.664402593962606" lon="8.734245473636259"><ele>37.333333333333336</ele><time>2026-04-04T13:29:14Z</time></trkpt><trkpt lat="39.66425040843516" lon="8.73438982994577"><ele>37.666666666666664</ele><time>2026-04-04T13:29:15Z</time></trkpt><trkpt lat="39.664107755296456" lon="8.734515305325768"><ele>38.0</ele><time>2026-04-04T13:29:16Z</time></trkpt><trkpt lat="39.66396519365206" lon="8.73461109683552"><ele>38.0</ele><time>2026-04-04T13:29:17Z</time></trkpt><trkpt lat="39.663838521806255" lon="8.73463499020022"><ele>38.0</ele><time>2026-04-04T13:29:18Z</time></trkpt><trkpt lat="39.66371812793486" lon="8.73459629156988"><ele>38.0</ele><time>2026-04-04T13:29:19Z</time></trkpt><trkpt lat="39.66361174272301" lon="8.734499723515157"><ele>38.0</ele><time>2026-04-04T13:29:20Z</time></trkpt><trkpt lat="39.663504347227644" lon="8.734370552622995"><ele>37.0</ele><time>2026-04-04T13:29:21Z</time></trkpt><trkpt lat="39.66338554376843" lon="8.734238990526961"><ele>36.0</ele><time>2026-04-04T13:29:22Z</time></trkpt><trkpt lat="39.66325297375471" lon="8.734114799227953"><ele>35.0</ele><time>2026-04-04T13:29:23Z</time></trkpt><trkpt lat="39.66311429805043" lon="8.733995793319208"><ele>35.0</ele><time>2026-04-04T13:29:24Z</time></trkpt><trkpt lat="39.66297884938263" lon="8.73387559741418"><ele>35.0</ele><time>2026-04-04T13:29:25Z</time></trkpt><trkpt lat="39.662842524582636" lon="8.733749684110137"><ele>35.0</ele><time>2026-04-04T13:29:26Z</time></trkpt><trkpt lat="39.66271104704855" lon="8.733625877552502"><ele>35.5</ele><time>2026-04-04T13:29:27Z</time></trkpt><trkpt lat="39.66258665712395" lon="8.733508000860095"><ele>36.0</ele><time>2026-04-04T13:29:28Z</time></trkpt><trkpt lat="39.66247186880844" lon="8.733398775176596"><ele>36.5</ele><time>2026-04-04T13:29:29Z</time></trkpt><trkpt lat="39.662361115867334" lon="8.733313270547466"><ele>37.0</ele><time>2026-04-04T13:29:30Z</time></trkpt><trkpt lat="39.66224631908251" lon="8.733271717718003"><ele>37.0</ele><time>2026-04-04T13:29:31Z</time></trkpt><trkpt lat="39.662127376626195" lon="8.733279353588804"><ele>37.0</ele><time>2026-04-04T13:29:32Z</time></trkpt><trkpt lat="39.66202050539186" lon="8.73332696050482"><ele>37.0</ele><time>2026-04-04T13:29:33Z</time></trkpt><trkpt lat="39.66193077794081" lon="8.733414200707129"><ele>37.0</ele><time>2026-04-04T13:29:34Z</time></trkpt><trkpt lat="39.66186610404314" lon="8.733541312466125"><ele>37.25</ele><time>2026-04-04T13:29:35Z</time></trkpt><trkpt lat="39.66182898516505" lon="8.733702165101885"><ele>37.5</ele><time>2026-04-04T13:29:36Z</time></trkpt><trkpt lat="39.661802935945644" lon="8.733876365801489"><ele>37.75</ele><time>2026-04-04T13:29:37Z</time></trkpt><trkpt lat="39.66177352460591" lon="8.734059427021787"><ele>38.0</ele><time>2026-04-04T13:29:38Z</time></trkpt><trkpt lat="39.661739716118035" lon="8.73424783504943"><ele>37.666666666666664</ele><time>2026-04-04T13:29:39Z</time></trkpt><trkpt lat="39.6617005763402" lon="8.734446164139072"><ele>37.333333333333336</ele><time>2026-04-04T13:29:40Z</time></trkpt><trkpt lat="39.661662101898024" lon="8.734651558690587"><ele>37.0</ele><time>2026-04-04T13:29:41Z</time></trkpt><trkpt lat="39.66162196262001" lon="8.734863226363139"><ele>37.0</ele><time>2026-04-04T13:29:42Z</time></trkpt><trkpt lat="39.66158006196515" lon="8.73507822212063"><ele>37.0</ele><time>2026-04-04T13:29:43Z</time></trkpt><trkpt lat="39.66153733924608" lon="8.735293139702145"><ele>37.0</ele><time>2026-04-04T13:29:44Z</time></trkpt><trkpt lat="39.66149525084586" lon="8.735507524016356"><ele>37.333333333333336</ele><time>2026-04-04T13:29:45Z</time></trkpt><trkpt lat="39.66145833370688" lon="8.735718732934961"><ele>37.666666666666664</ele><time>2026-04-04T13:29:46Z</time></trkpt><trkpt lat="39.66142796727947" lon="8.735929301483793"><ele>38.0</ele><time>2026-04-04T13:29:47Z</time></trkpt><trkpt lat="39.66140582251161" lon="8.736134256903876"><ele>38.25</ele><time>2026-04-04T13:29:48Z</time></trkpt><trkpt lat="39.66138963800255" lon="8.736337457879191"><ele>38.5</ele><time>2026-04-04T13:29:49Z</time></trkpt><trkpt lat="39.66137751577945" lon="8.736528867545092"><ele>38.75</ele><time>2026-04-04T13:29:50Z</time></trkpt><trkpt lat="39.66136650097371" lon="8.736710419725656"><ele>39.0</ele><time>2026-04-04T13:29:51Z</time></trkpt><trkpt lat="39.66135221735751" lon="8.736881100140057"><ele>39.0</ele><time>2026-04-04T13:29:52Z</time></trkpt><trkpt lat="39.661325405535045" lon="8.737044484113513"><ele>39.0</ele><time>2026-04-04T13:29:53Z</time></trkpt><trkpt lat="39.66126486998839" lon="8.737192934518173"><ele>39.0</ele><time>2026-04-04T13:29:54.001Z</time></trkpt><trkpt lat="39.66115890709683" lon="8.737325336036552"><ele>39.0</ele><time>2026-04-04T13:29:55Z</time></trkpt><trkpt lat="39.66102937995598" lon="8.737442991139238"><ele>38.75</ele><time>2026-04-04T13:29:56Z</time></trkpt><trkpt lat="39.66089872877664" lon="8.737545432645584"><ele>38.5</ele><time>2026-04-04T13:29:57Z</time></trkpt><trkpt lat="39.660782908897986" lon="8.737632192000385"><ele>38.25</ele><time>2026-04-04T13:29:58.001Z</time></trkpt><trkpt lat="39.660660005366125" lon="8.73767968962432"><ele>38.0</ele><time>2026-04-04T13:29:59.001Z</time></trkpt><trkpt lat="39.660528351971045" lon="8.73767519442828"><ele>38.0</ele><time>2026-04-04T13:30:00.001Z</time></trkpt><trkpt lat="39.66039949750429" lon="8.737617797831287"><ele>38.0</ele><time>2026-04-04T13:30:01.001Z</time></trkpt><trkpt lat="39.66027047772405" lon="8.737507081569785"><ele>38.0</ele><time>2026-04-04T13:30:02.001Z</time></trkpt><trkpt lat="39.66012910016183" lon="8.737401332146076"><ele>37.666666666666664</ele><time>2026-04-04T13:30:03.001Z</time></trkpt><trkpt lat="39.65997541796324" lon="8.73730298844313"><ele>37.333333333333336</ele><time>2026-04-04T13:30:04.001Z</time></trkpt><trkpt lat="39.65981621535525" lon="8.737202521512547"><ele>37.0</ele><time>2026-04-04T13:30:05.001Z</time></trkpt><trkpt lat="39.65965518840887" lon="8.737101833756899"><ele>37.0</ele><time>2026-04-04T13:30:06.001Z</time></trkpt><trkpt lat="39.65950406967513" lon="8.73700478194602"><ele>37.0</ele><time>2026-04-04T13:30:07.001Z</time></trkpt><trkpt lat="39.65936150712967" lon="8.73691192201039"><ele>37.0</ele><time>2026-04-04T13:30:08.001Z</time></trkpt><trkpt lat="39.65923121025413" lon="8.736825422895805"><ele>37.25</ele><time>2026-04-04T13:30:09.001Z</time></trkpt><trkpt lat="39.65910619523701" lon="8.736741219566118"><ele>37.5</ele><time>2026-04-04T13:30:10.001Z</time></trkpt><trkpt lat="39.658978525477806" lon="8.73665427569889"><ele>37.75</ele><time>2026-04-04T13:30:11.001Z</time></trkpt><trkpt lat="39.65885133432128" lon="8.736564128283337"><ele>38.0</ele><time>2026-04-04T13:30:12.001Z</time></trkpt><trkpt lat="39.65872094884803" lon="8.736477524461618"><ele>37.75</ele><time>2026-04-04T13:30:13.001Z</time></trkpt><trkpt lat="39.658592159943794" lon="8.736420550105152"><ele>37.5</ele><time>2026-04-04T13:30:14.001Z</time></trkpt><trkpt lat="39.658462829712576" lon="8.73641533052789"><ele>37.25</ele><time>2026-04-04T13:30:15.001Z</time></trkpt><trkpt lat="39.65834847257804" lon="8.736473795050184"><ele>37.0</ele><time>2026-04-04T13:30:16.001Z</time></trkpt><trkpt lat="39.658259948095576" lon="8.736574628211466"><ele>37.0</ele><time>2026-04-04T13:30:17.001Z</time></trkpt><trkpt lat="39.65819147893901" lon="8.736694747652171"><ele>37.0</ele><time>2026-04-04T13:30:18.001Z</time></trkpt><trkpt lat="39.65813647339648" lon="8.736795341599448"><ele>37.0</ele><time>2026-04-04T13:30:19.001Z</time></trkpt><trkpt lat="39.65810954218982" lon="8.736887476543664"><ele>37.0</ele><time>2026-04-04T13:30:20.001Z</time></trkpt><trkpt lat="39.65806328498349" lon="8.736984776191171"><ele>37.0</ele><time>2026-04-04T13:30:22.001Z</time></trkpt><trkpt lat="39.658022751496055" lon="8.737090609907511"><ele>37.5</ele><time>2026-04-04T13:30:25.001Z</time></trkpt><trkpt lat="39.658125365466084" lon="8.737228066245589"><ele>38.0</ele><time>2026-04-04T13:30:26.001Z</time></trkpt><trkpt lat="39.65820154313272" lon="8.737329780448658"><ele>38.5</ele><time>2026-04-04T13:30:27.001Z</time></trkpt><trkpt lat="39.658298908002536" lon="8.73744666960169"><ele>39.0</ele><time>2026-04-04T13:30:28.001Z</time></trkpt><trkpt lat="39.65840157202703" lon="8.737579026024495"><ele>39.0</ele><time>2026-04-04T13:30:29.001Z</time></trkpt><trkpt lat="39.658497303630654" lon="8.737724928111573"><ele>39.0</ele><time>2026-04-04T13:30:30.001Z</time></trkpt><trkpt lat="39.65859155030355" lon="8.737885608555116"><ele>39.0</ele><time>2026-04-04T13:30:31.001Z</time></trkpt><trkpt lat="39.65869426222856" lon="8.738054567513085"><ele>39.0</ele><time>2026-04-04T13:30:32.001Z</time></trkpt><trkpt lat="39.65879989085506" lon="8.73821700735255"><ele>39.0</ele><time>2026-04-04T13:30:33.001Z</time></trkpt><trkpt lat="39.658907063049206" lon="8.738380485821153"><ele>39.0</ele><time>2026-04-04T13:30:34.001Z</time></trkpt><trkpt lat="39.65901614507563" lon="8.738553513102506"><ele>39.333333333333336</ele><time>2026-04-04T13:30:35.001Z</time></trkpt><trkpt lat="39.65912577358595" lon="8.738731772955994"><ele>39.66666666666667</ele><time>2026-04-04T13:30:36.001Z</time></trkpt><trkpt lat="39.65923904468325" lon="8.738913538873431"><ele>40.0</ele><time>2026-04-04T13:30:37.001Z</time></trkpt><trkpt lat="39.65935175063737" lon="8.73909243299952"><ele>40.0</ele><time>2026-04-04T13:30:38.001Z</time></trkpt><trkpt lat="39.659465963224804" lon="8.73927351447153"><ele>40.0</ele><time>2026-04-04T13:30:39.001Z</time></trkpt><trkpt lat="39.659581574657985" lon="8.739457129417362"><ele>40.0</ele><time>2026-04-04T13:30:40.001Z</time></trkpt><trkpt lat="39.65969566956444" lon="8.73964443859291"><ele>40.0</ele><time>2026-04-04T13:30:41.001Z</time></trkpt><trkpt lat="39.65980818987127" lon="8.7398353715029"><ele>40.0</ele><time>2026-04-04T13:30:42.001Z</time></trkpt><trkpt lat="39.659923409853434" lon="8.740028785898849"><ele>40.0</ele><time>2026-04-04T13:30:43.001Z</time></trkpt><trkpt lat="39.66003662959027" lon="8.740222645925694"><ele>41.333333333333336</ele><time>2026-04-04T13:30:44.001Z</time></trkpt><trkpt lat="39.66015155716638" lon="8.740419192889078"><ele>42.666666666666664</ele><time>2026-04-04T13:30:45.001Z</time></trkpt><trkpt lat="39.66027075818937" lon="8.740616513330929"><ele>44.0</ele><time>2026-04-04T13:30:46.001Z</time></trkpt><trkpt lat="39.660394321531086" lon="8.740809316455673"><ele>44.666666666666664</ele><time>2026-04-04T13:30:47.001Z</time></trkpt><trkpt lat="39.66051048893565" lon="8.740996884844257"><ele>45.333333333333336</ele><time>2026-04-04T13:30:48.001Z</time></trkpt><trkpt lat="39.660624963511836" lon="8.741190900302177"><ele>46.0</ele><time>2026-04-04T13:30:49.001Z</time></trkpt><trkpt lat="39.66073855894071" lon="8.74138778124833"><ele>47.333333333333336</ele><time>2026-04-04T13:30:50.001Z</time></trkpt><trkpt lat="39.6608498324921" lon="8.741587234296428"><ele>48.66666666666667</ele><time>2026-04-04T13:30:51.001Z</time></trkpt><trkpt lat="39.660945399984556" lon="8.74180061223583"><ele>50.0</ele><time>2026-04-04T13:30:52.001Z</time></trkpt><trkpt lat="39.661021007073224" lon="8.742034585845987"><ele>50.333333333333336</ele><time>2026-04-04T13:30:53.001Z</time></trkpt><trkpt lat="39.66109443840209" lon="8.742273975380959"><ele>50.66666666666667</ele><time>2026-04-04T13:30:54.001Z</time></trkpt><trkpt lat="39.66116558042566" lon="8.742516431849571"><ele>51.0</ele><time>2026-04-04T13:30:55.001Z</time></trkpt><trkpt lat="39.66123311370597" lon="8.742762803763513"><ele>52.0</ele><time>2026-04-04T13:30:56.001Z</time></trkpt><trkpt lat="39.66130114325829" lon="8.743010594257267"><ele>53.0</ele><time>2026-04-04T13:30:57.001Z</time></trkpt><trkpt lat="39.66137239412515" lon="8.74325829384864"><ele>54.0</ele><time>2026-04-04T13:30:58.001Z</time></trkpt><trkpt lat="39.66144537442169" lon="8.743502827848516"><ele>54.0</ele><time>2026-04-04T13:30:59.001Z</time></trkpt><trkpt lat="39.661519160978976" lon="8.743750785529885"><ele>54.0</ele><time>2026-04-04T13:31:00.001Z</time></trkpt><trkpt lat="39.66159190094363" lon="8.743998633978027"><ele>54.0</ele><time>2026-04-04T13:31:01.001Z</time></trkpt><trkpt lat="39.66166477993101" lon="8.744250032376728"><ele>54.66666666666667</ele><time>2026-04-04T13:31:02.001Z</time></trkpt><trkpt lat="39.66173834375363" lon="8.744502843949272"><ele>55.333333333333336</ele><time>2026-04-04T13:31:03.001Z</time></trkpt><trkpt lat="39.66181231754892" lon="8.744757573781214"><ele>56.0</ele><time>2026-04-04T13:31:04Z</time></trkpt><trkpt lat="39.66188584555466" lon="8.745014046317321"><ele>57.66666666666667</ele><time>2026-04-04T13:31:05Z</time></trkpt><trkpt lat="39.661960100636044" lon="8.74527446047977"><ele>59.33333333333333</ele><time>2026-04-04T13:31:06Z</time></trkpt><trkpt lat="39.66203873941723" lon="8.74553874103534"><ele>61.0</ele><time>2026-04-04T13:31:07Z</time></trkpt><trkpt lat="39.66211911830932" lon="8.745804498767999"><ele>62.33333333333333</ele><time>2026-04-04T13:31:08Z</time></trkpt><trkpt lat="39.66220185249997" lon="8.746068941679678"><ele>63.66666666666667</ele><time>2026-04-04T13:31:09Z</time></trkpt><trkpt lat="39.662287292806376" lon="8.74633633064495"><ele>65.0</ele><time>2026-04-04T13:31:10Z</time></trkpt><trkpt lat="39.662352417288766" lon="8.746608747567398"><ele>65.0</ele><time>2026-04-04T13:31:11Z</time></trkpt><trkpt lat="39.66243352579665" lon="8.746866755844062"><ele>65.0</ele><time>2026-04-04T13:31:12Z</time></trkpt><trkpt lat="39.662528177031376" lon="8.747110467163893"><ele>65.0</ele><time>2026-04-04T13:31:13Z</time></trkpt><trkpt lat="39.662596580644475" lon="8.747357479343396"><ele>64.33333333333334</ele><time>2026-04-04T13:31:14Z</time></trkpt><trkpt lat="39.662663622955584" lon="8.747597406338691"><ele>63.66666666666667</ele><time>2026-04-04T13:31:15Z</time></trkpt><trkpt lat="39.66274080283078" lon="8.747843908176604"><ele>63.0</ele><time>2026-04-04T13:31:16Z</time></trkpt><trkpt lat="39.6628183289707" lon="8.74806037813099"><ele>62.33333333333333</ele><time>2026-04-04T13:31:17Z</time></trkpt><trkpt lat="39.662918230199104" lon="8.748249161282372"><ele>61.666666666666664</ele><time>2026-04-04T13:31:18Z</time></trkpt><trkpt lat="39.6630510176706" lon="8.748411160376897"><ele>61.0</ele><time>2026-04-04T13:31:19Z</time></trkpt><trkpt lat="39.66321244158684" lon="8.748550362742575"><ele>61.0</ele><time>2026-04-04T13:31:20Z</time></trkpt><trkpt lat="39.66339168076995" lon="8.748671103111704"><ele>61.0</ele><time>2026-04-04T13:31:21Z</time></trkpt><trkpt lat="39.66357477858783" lon="8.748790212961119"><ele>61.0</ele><time>2026-04-04T13:31:22Z</time></trkpt><trkpt lat="39.66376262409521" lon="8.748911136443096"><ele>65.33333333333333</ele><time>2026-04-04T13:31:23Z</time></trkpt><trkpt lat="39.66395416331697" lon="8.74902888995444"><ele>69.66666666666667</ele><time>2026-04-04T13:31:24Z</time></trkpt><trkpt lat="39.6641490816973" lon="8.749143149817339"><ele>74.0</ele><time>2026-04-04T13:31:25Z</time></trkpt><trkpt lat="39.66434407714662" lon="8.749249881274654"><ele>73.66666666666667</ele><time>2026-04-04T13:31:26Z</time></trkpt><trkpt lat="39.664538458344516" lon="8.749347906340814"><ele>73.33333333333333</ele><time>2026-04-04T13:31:27Z</time></trkpt><trkpt lat="39.66473402596363" lon="8.74943775680389"><ele>73.0</ele><time>2026-04-04T13:31:28Z</time></trkpt><trkpt lat="39.664929249981405" lon="8.749518648579844"><ele>73.0</ele><time>2026-04-04T13:31:29Z</time></trkpt><trkpt lat="39.66512264996757" lon="8.749598464182817"><ele>73.0</ele><time>2026-04-04T13:31:30Z</time></trkpt><trkpt lat="39.66531448781178" lon="8.749683522312251"><ele>73.0</ele><time>2026-04-04T13:31:31Z</time></trkpt><trkpt lat="39.66550799235825" lon="8.749767508930638"><ele>76.0</ele><time>2026-04-04T13:31:32Z</time></trkpt><trkpt lat="39.665700555046406" lon="8.749839983468954"><ele>79.0</ele><time>2026-04-04T13:31:33Z</time></trkpt><trkpt lat="39.66589704191011" lon="8.74990421542246"><ele>82.0</ele><time>2026-04-04T13:31:34Z</time></trkpt><trkpt lat="39.666091986042915" lon="8.749963406204802"><ele>85.33333333333333</ele><time>2026-04-04T13:31:35Z</time></trkpt><trkpt lat="39.66628117367244" lon="8.750032039923681"><ele>88.66666666666667</ele><time>2026-04-04T13:31:36Z</time></trkpt><trkpt lat="39.66646900459973" lon="8.750106774662674"><ele>92.0</ele><time>2026-04-04T13:31:37Z</time></trkpt><trkpt lat="39.666653936300804" lon="8.750175814758055"><ele>89.66666666666667</ele><time>2026-04-04T13:31:38Z</time></trkpt><trkpt lat="39.66683939384269" lon="8.750233738278054"><ele>87.33333333333333</ele><time>2026-04-04T13:31:39Z</time></trkpt><trkpt lat="39.6670276759672" lon="8.750284057708697"><ele>85.0</ele><time>2026-04-04T13:31:40Z</time></trkpt><trkpt lat="39.66721880915755" lon="8.750331436508906"><ele>85.0</ele><time>2026-04-04T13:31:41Z</time></trkpt><trkpt lat="39.667407344039454" lon="8.75038689625008"><ele>85.0</ele><time>2026-04-04T13:31:42Z</time></trkpt><trkpt lat="39.667597432071275" lon="8.750445736662968"><ele>85.0</ele><time>2026-04-04T13:31:43Z</time></trkpt><trkpt lat="39.667788736502146" lon="8.750493792406203"><ele>87.33333333333333</ele><time>2026-04-04T13:31:44Z</time></trkpt><trkpt lat="39.66798260051583" lon="8.750525808220722"><ele>89.66666666666667</ele><time>2026-04-04T13:31:45Z</time></trkpt><trkpt lat="39.66818090577434" lon="8.750546247253766"><ele>92.0</ele><time>2026-04-04T13:31:46Z</time></trkpt><trkpt lat="39.66837849720281" lon="8.750555004803099"><ele>92.0</ele><time>2026-04-04T13:31:47Z</time></trkpt><trkpt lat="39.668571502810906" lon="8.750543222692169"><ele>92.0</ele><time>2026-04-04T13:31:48Z</time></trkpt><trkpt lat="39.668758211002384" lon="8.750516948426998"><ele>92.0</ele><time>2026-04-04T13:31:49Z</time></trkpt><trkpt lat="39.66892616416591" lon="8.750502585356795"><ele>94.66666666666667</ele><time>2026-04-04T13:31:50Z</time></trkpt><trkpt lat="39.66907712075481" lon="8.750561840725474"><ele>97.33333333333334</ele><time>2026-04-04T13:31:51Z</time></trkpt><trkpt lat="39.66923006398546" lon="8.750629637367052"><ele>100.0</ele><time>2026-04-04T13:31:52Z</time></trkpt><trkpt lat="39.66937889963175" lon="8.750702501853928"><ele>102.75</ele><time>2026-04-04T13:31:53Z</time></trkpt><trkpt lat="39.66951151768854" lon="8.750783569863072"><ele>105.5</ele><time>2026-04-04T13:31:54Z</time></trkpt><trkpt lat="39.66962763060013" lon="8.750869175942162"><ele>108.25</ele><time>2026-04-04T13:31:55Z</time></trkpt><trkpt lat="39.669716325263536" lon="8.750978779997872"><ele>111.0</ele><time>2026-04-04T13:31:56Z</time></trkpt><trkpt lat="39.66978316038793" lon="8.751094103597923"><ele>111.0</ele><time>2026-04-04T13:31:57Z</time></trkpt><trkpt lat="39.6698287879729" lon="8.751212450318231"><ele>111.0</ele><time>2026-04-04T13:31:58Z</time></trkpt><trkpt lat="39.66987368640411" lon="8.751309450426096"><ele>111.0</ele><time>2026-04-04T13:31:59Z</time></trkpt><trkpt lat="39.6699131724094" lon="8.751388395017079"><ele>111.0</ele><time>2026-04-04T13:32:00Z</time></trkpt><trkpt lat="39.66998018326964" lon="8.751409735709665"><ele>111.0</ele><time>2026-04-04T13:32:01Z</time></trkpt><trkpt lat="39.67003669624933" lon="8.751354786292081"><ele>111.0</ele><time>2026-04-04T13:32:02Z</time></trkpt><trkpt lat="39.67008233129812" lon="8.751260714479336"><ele>111.0</ele><time>2026-04-04T13:32:03Z</time></trkpt><trkpt lat="39.67006990934909" lon="8.751138010153"><ele>111.0</ele><time>2026-04-04T13:32:04Z</time></trkpt><trkpt lat="39.67001006682547" lon="8.751021965108851"><ele>111.0</ele><time>2026-04-04T13:32:05Z</time></trkpt><trkpt lat="39.66992799937383" lon="8.750908148321587"><ele>111.0</ele><time>2026-04-04T13:32:06Z</time></trkpt><trkpt lat="39.66984103611472" lon="8.750789131523712"><ele>111.0</ele><time>2026-04-04T13:32:07Z</time></trkpt><trkpt lat="39.669748789284675" lon="8.750668417241709"><ele>112.0</ele><time>2026-04-04T13:32:08Z</time></trkpt><trkpt lat="39.66964687613987" lon="8.750545718292972"><ele>113.0</ele><time>2026-04-04T13:32:09Z</time></trkpt><trkpt lat="39.66954307590159" lon="8.750434142681748"><ele>114.0</ele><time>2026-04-04T13:32:10Z</time></trkpt><trkpt lat="39.66941789922784" lon="8.750333567977506"><ele>115.0</ele><time>2026-04-04T13:32:11Z</time></trkpt><trkpt lat="39.669283233273745" lon="8.750255447107941"><ele>115.0</ele><time>2026-04-04T13:32:12Z</time></trkpt><trkpt lat="39.669147201314594" lon="8.75017431506157"><ele>115.0</ele><time>2026-04-04T13:32:13Z</time></trkpt><trkpt lat="39.66903075149877" lon="8.750080067510373"><ele>115.0</ele><time>2026-04-04T13:32:14Z</time></trkpt><trkpt lat="39.66893751869744" lon="8.75000826486338"><ele>115.0</ele><time>2026-04-04T13:32:15Z</time></trkpt><trkpt lat="39.668881096826425" lon="8.749945378362758"><ele>115.0</ele><time>2026-04-04T13:32:16Z</time></trkpt><trkpt lat="39.668915396527474" lon="8.749816846007331"><ele>115.0</ele><time>2026-04-04T13:32:18Z</time></trkpt><trkpt lat="39.668985257403364" lon="8.74980298100201"><ele>115.0</ele><time>2026-04-04T13:32:19Z</time></trkpt><trkpt lat="39.66906618406148" lon="8.749886890874327"><ele>115.0</ele><time>2026-04-04T13:32:20Z</time></trkpt><trkpt lat="39.66916897611445" lon="8.749930981242914"><ele>115.0</ele><time>2026-04-04T13:32:21Z</time></trkpt><trkpt lat="39.66928334579937" lon="8.750022540838508"><ele>115.0</ele><time>2026-04-04T13:32:22Z</time></trkpt><trkpt lat="39.669408210268344" lon="8.750105195989462"><ele>115.0</ele><time>2026-04-04T13:32:23Z</time></trkpt><trkpt lat="39.66955615106201" lon="8.750180074657287"><ele>115.0</ele><time>2026-04-04T13:32:24Z</time></trkpt><trkpt lat="39.669727260935964" lon="8.750275352161832"><ele>115.0</ele><time>2026-04-04T13:32:25Z</time></trkpt><trkpt lat="39.66990672571646" lon="8.750373438964347"><ele>115.0</ele><time>2026-04-04T13:32:26Z</time></trkpt><trkpt lat="39.670080265148925" lon="8.750468307771781"><ele>115.0</ele><time>2026-04-04T13:32:27Z</time></trkpt><trkpt lat="39.67025680173068" lon="8.750561864018396"><ele>119.33333333333334</ele><time>2026-04-04T13:32:28.001Z</time></trkpt><trkpt lat="39.670440008968825" lon="8.75066031190156"><ele>123.66666666666666</ele><time>2026-04-04T13:32:29.001Z</time></trkpt><trkpt lat="39.67063042176386" lon="8.750760522562386"><ele>128.0</ele><time>2026-04-04T13:32:30.001Z</time></trkpt><trkpt lat="39.670821032851336" lon="8.750868594230504"><ele>128.0</ele><time>2026-04-04T13:32:31.001Z</time></trkpt><trkpt lat="39.67099493812503" lon="8.750972473433915"><ele>128.0</ele><time>2026-04-04T13:32:32.001Z</time></trkpt><trkpt lat="39.671152991003076" lon="8.751078731560034"><ele>128.0</ele><time>2026-04-04T13:32:33.001Z</time></trkpt><trkpt lat="39.67127317799779" lon="8.751230927059387"><ele>129.33333333333331</ele><time>2026-04-04T13:32:34.001Z</time></trkpt><trkpt lat="39.67136972365405" lon="8.751407351681827"><ele>130.66666666666666</ele><time>2026-04-04T13:32:35.001Z</time></trkpt><trkpt lat="39.67147321650442" lon="8.751602980273395"><ele>132.0</ele><time>2026-04-04T13:32:36.001Z</time></trkpt><trkpt lat="39.67156067861686" lon="8.751825241085637"><ele>132.66666666666666</ele><time>2026-04-04T13:32:37.001Z</time></trkpt><trkpt lat="39.67166433586816" lon="8.752055204376113"><ele>133.33333333333331</ele><time>2026-04-04T13:32:38.001Z</time></trkpt><trkpt lat="39.67177119921046" lon="8.752280642457075"><ele>134.0</ele><time>2026-04-04T13:32:39.001Z</time></trkpt><trkpt lat="39.67187487629472" lon="8.752497594035548"><ele>134.66666666666666</ele><time>2026-04-04T13:32:40.001Z</time></trkpt><trkpt lat="39.67197880343217" lon="8.752719023062417"><ele>135.33333333333334</ele><time>2026-04-04T13:32:41.001Z</time></trkpt><trkpt lat="39.67208583809406" lon="8.75294353908304"><ele>136.0</ele><time>2026-04-04T13:32:42.001Z</time></trkpt><trkpt lat="39.672192034070584" lon="8.753170218092441"><ele>136.0</ele><time>2026-04-04T13:32:43.001Z</time></trkpt><trkpt lat="39.672303098209746" lon="8.75338693346148"><ele>136.0</ele><time>2026-04-04T13:32:44.001Z</time></trkpt><trkpt lat="39.6724076118709" lon="8.753635252302422"><ele>136.0</ele><time>2026-04-04T13:32:45.001Z</time></trkpt><trkpt lat="39.672519154902666" lon="8.753868777175844"><ele>136.0</ele><time>2026-04-04T13:32:46.001Z</time></trkpt><trkpt lat="39.67262690155238" lon="8.754106294677559"><ele>136.0</ele><time>2026-04-04T13:32:47.001Z</time></trkpt><trkpt lat="39.67273441175119" lon="8.75434184036668"><ele>136.0</ele><time>2026-04-04T13:32:48.001Z</time></trkpt><trkpt lat="39.672842913000885" lon="8.754573464711338"><ele>136.66666666666669</ele><time>2026-04-04T13:32:49.001Z</time></trkpt><trkpt lat="39.67295311962048" lon="8.754806335509873"><ele>137.33333333333334</ele><time>2026-04-04T13:32:50.001Z</time></trkpt><trkpt lat="39.67306368753374" lon="8.755040252641855"><ele>138.0</ele><time>2026-04-04T13:32:51.001Z</time></trkpt><trkpt lat="39.67316827018741" lon="8.755277934529596"><ele>138.0</ele><time>2026-04-04T13:32:52.001Z</time></trkpt><trkpt lat="39.67327757535005" lon="8.75551360241968"><ele>138.0</ele><time>2026-04-04T13:32:53.001Z</time></trkpt><trkpt lat="39.67338521655918" lon="8.755752243527176"><ele>138.0</ele><time>2026-04-04T13:32:54.001Z</time></trkpt><trkpt lat="39.67349557845048" lon="8.755992625493866"><ele>138.0</ele><time>2026-04-04T13:32:55.001Z</time></trkpt><trkpt lat="39.67360548218811" lon="8.756230414921186"><ele>138.0</ele><time>2026-04-04T13:32:56.001Z</time></trkpt><trkpt lat="39.67371612375139" lon="8.756470957850123"><ele>138.0</ele><time>2026-04-04T13:32:57.001Z</time></trkpt><trkpt lat="39.67382712091922" lon="8.756712829080644"><ele>138.33333333333334</ele><time>2026-04-04T13:32:58.001Z</time></trkpt><trkpt lat="39.6739371679066" lon="8.756952596620785"><ele>138.66666666666669</ele><time>2026-04-04T13:32:59.001Z</time></trkpt><trkpt lat="39.67404774610996" lon="8.75719039267747"><ele>139.0</ele><time>2026-04-04T13:33:00.001Z</time></trkpt><trkpt lat="39.67415897173765" lon="8.757429272029109"><ele>139.0</ele><time>2026-04-04T13:33:01.001Z</time></trkpt><trkpt lat="39.6742687960221" lon="8.757670189835412"><ele>139.0</ele><time>2026-04-04T13:33:02.001Z</time></trkpt><trkpt lat="39.67437747767369" lon="8.75791462983478"><ele>139.0</ele><time>2026-04-04T13:33:03.001Z</time></trkpt><trkpt lat="39.67448821322002" lon="8.75816135185439"><ele>138.66666666666669</ele><time>2026-04-04T13:33:04.001Z</time></trkpt><trkpt lat="39.674601918976634" lon="8.758405080803533"><ele>138.33333333333334</ele><time>2026-04-04T13:33:05.001Z</time></trkpt><trkpt lat="39.67471464684698" lon="8.758641026648"><ele>138.0</ele><time>2026-04-04T13:33:06.001Z</time></trkpt><trkpt lat="39.67482730946541" lon="8.758877399528211"><ele>138.0</ele><time>2026-04-04T13:33:07.001Z</time></trkpt><trkpt lat="39.67493819903676" lon="8.759114513672607"><ele>138.0</ele><time>2026-04-04T13:33:08.001Z</time></trkpt><trkpt lat="39.675049555526584" lon="8.759357421968133"><ele>138.0</ele><time>2026-04-04T13:33:09Z</time></trkpt><trkpt lat="39.67516053996002" lon="8.75959740175027"><ele>138.0</ele><time>2026-04-04T13:33:10Z</time></trkpt><trkpt lat="39.67527466418819" lon="8.75984017306228"><ele>138.0</ele><time>2026-04-04T13:33:11Z</time></trkpt><trkpt lat="39.67538879318528" lon="8.760085711197885"><ele>138.0</ele><time>2026-04-04T13:33:12Z</time></trkpt><trkpt lat="39.67550326836845" lon="8.760331037016904"><ele>138.0</ele><time>2026-04-04T13:33:13Z</time></trkpt><trkpt lat="39.67561758285884" lon="8.760575240053418"><ele>138.0</ele><time>2026-04-04T13:33:14Z</time></trkpt><trkpt lat="39.6757309236206" lon="8.760821693741008"><ele>138.0</ele><time>2026-04-04T13:33:15Z</time></trkpt><trkpt lat="39.67584262038974" lon="8.761063904107667"><ele>138.0</ele><time>2026-04-04T13:33:16Z</time></trkpt><trkpt lat="39.675952094654065" lon="8.761303464324692"><ele>138.0</ele><time>2026-04-04T13:33:17Z</time></trkpt><trkpt lat="39.67606277039205" lon="8.761545619267872"><ele>138.0</ele><time>2026-04-04T13:33:18Z</time></trkpt><trkpt lat="39.67617242868738" lon="8.761785320895468"><ele>139.0</ele><time>2026-04-04T13:33:19Z</time></trkpt><trkpt lat="39.67628246513222" lon="8.762026463586773"><ele>140.0</ele><time>2026-04-04T13:33:20Z</time></trkpt><trkpt lat="39.67639660856671" lon="8.762268184916666"><ele>141.0</ele><time>2026-04-04T13:33:21Z</time></trkpt><trkpt lat="39.676510854111726" lon="8.76251314861244"><ele>141.0</ele><time>2026-04-04T13:33:22Z</time></trkpt><trkpt lat="39.676622148054996" lon="8.76275444008521"><ele>141.0</ele><time>2026-04-04T13:33:23Z</time></trkpt><trkpt lat="39.676733621040455" lon="8.762995454532247"><ele>141.0</ele><time>2026-04-04T13:33:24Z</time></trkpt><trkpt lat="39.67684377109957" lon="8.763236004819023"><ele>140.66666666666666</ele><time>2026-04-04T13:33:25Z</time></trkpt><trkpt lat="39.676949286518116" lon="8.763472150968505"><ele>140.33333333333331</ele><time>2026-04-04T13:33:26Z</time></trkpt><trkpt lat="39.67705854457127" lon="8.763711665070065"><ele>140.0</ele><time>2026-04-04T13:33:27Z</time></trkpt><trkpt lat="39.67716567179965" lon="8.763941075775369"><ele>140.0</ele><time>2026-04-04T13:33:28Z</time></trkpt><trkpt lat="39.677270817456034" lon="8.764167462323876"><ele>140.0</ele><time>2026-04-04T13:33:29Z</time></trkpt><trkpt lat="39.677372621206416" lon="8.764385921157961"><ele>140.0</ele><time>2026-04-04T13:33:30Z</time></trkpt><trkpt lat="39.67747169844234" lon="8.764598906316417"><ele>140.0</ele><time>2026-04-04T13:33:31Z</time></trkpt><trkpt lat="39.67757287430955" lon="8.764814603483117"><ele>140.0</ele><time>2026-04-04T13:33:32Z</time></trkpt><trkpt lat="39.67767547123979" lon="8.765029130999592"><ele>140.0</ele><time>2026-04-04T13:33:33Z</time></trkpt><trkpt lat="39.67777590898367" lon="8.765241691843828"><ele>140.0</ele><time>2026-04-04T13:33:34Z</time></trkpt><trkpt lat="39.67786810072951" lon="8.765442572558872"><ele>140.0</ele><time>2026-04-04T13:33:35Z</time></trkpt><trkpt lat="39.677954384207084" lon="8.76562692459934"><ele>140.0</ele><time>2026-04-04T13:33:36Z</time></trkpt><trkpt lat="39.67803530154262" lon="8.76580399345687"><ele>140.0</ele><time>2026-04-04T13:33:37Z</time></trkpt><trkpt lat="39.67810987466478" lon="8.765967232540294"><ele>140.0</ele><time>2026-04-04T13:33:38Z</time></trkpt><trkpt lat="39.67818070956752" lon="8.766124235470143"><ele>140.0</ele><time>2026-04-04T13:33:39Z</time></trkpt><trkpt lat="39.678252947850496" lon="8.766275161490416"><ele>140.0</ele><time>2026-04-04T13:33:40Z</time></trkpt><trkpt lat="39.67832172436205" lon="8.76642120002057"><ele>139.25</ele><time>2026-04-04T13:33:41Z</time></trkpt><trkpt lat="39.678390500973414" lon="8.766567408969692"><ele>138.5</ele><time>2026-04-04T13:33:42Z</time></trkpt><trkpt lat="39.67845825041502" lon="8.766710959110405"><ele>137.75</ele><time>2026-04-04T13:33:43Z</time></trkpt><trkpt lat="39.678522099584136" lon="8.766856957698813"><ele>137.0</ele><time>2026-04-04T13:33:44Z</time></trkpt><trkpt lat="39.67858468868382" lon="8.767004973878798"><ele>137.0</ele><time>2026-04-04T13:33:45Z</time></trkpt><trkpt lat="39.67865049368037" lon="8.767153439764988"><ele>137.0</ele><time>2026-04-04T13:33:46Z</time></trkpt><trkpt lat="39.678721949275875" lon="8.767306421946472"><ele>137.0</ele><time>2026-04-04T13:33:47Z</time></trkpt><trkpt lat="39.67879028614372" lon="8.767462801644967"><ele>137.0</ele><time>2026-04-04T13:33:48Z</time></trkpt><trkpt lat="39.67886505445081" lon="8.76762028931596"><ele>136.25</ele><time>2026-04-04T13:33:49Z</time></trkpt><trkpt lat="39.67893628230489" lon="8.767776648539833"><ele>135.5</ele><time>2026-04-04T13:33:50Z</time></trkpt><trkpt lat="39.679006685512626" lon="8.767927445595284"><ele>134.75</ele><time>2026-04-04T13:33:51Z</time></trkpt><trkpt lat="39.67907564936586" lon="8.768072480324971"><ele>134.0</ele><time>2026-04-04T13:33:52Z</time></trkpt><trkpt lat="39.67913937794079" lon="8.768215642115246"><ele>134.0</ele><time>2026-04-04T13:33:53Z</time></trkpt><trkpt lat="39.679204496455384" lon="8.768357624203114"><ele>134.0</ele><time>2026-04-04T13:33:54Z</time></trkpt><trkpt lat="39.67927001612376" lon="8.768499381740632"><ele>134.0</ele><time>2026-04-04T13:33:55Z</time></trkpt><trkpt lat="39.67933637736561" lon="8.768643332137707"><ele>134.0</ele><time>2026-04-04T13:33:56Z</time></trkpt><trkpt lat="39.67940129372128" lon="8.768791515844056"><ele>134.5</ele><time>2026-04-04T13:33:57Z</time></trkpt><trkpt lat="39.67946929706694" lon="8.7689381723722"><ele>135.0</ele><time>2026-04-04T13:33:58Z</time></trkpt><trkpt lat="39.67953678193748" lon="8.76908743247874"><ele>135.5</ele><time>2026-04-04T13:33:59Z</time></trkpt><trkpt lat="39.67960694355277" lon="8.769236031980547"><ele>136.0</ele><time>2026-04-04T13:34:00Z</time></trkpt><trkpt lat="39.67967394851245" lon="8.769384832129271"><ele>136.5</ele><time>2026-04-04T13:34:01Z</time></trkpt><trkpt lat="39.67973596851287" lon="8.769530101553697"><ele>137.0</ele><time>2026-04-04T13:34:02Z</time></trkpt><trkpt lat="39.67980580981286" lon="8.769670888052136"><ele>137.5</ele><time>2026-04-04T13:34:03Z</time></trkpt><trkpt lat="39.67987022525315" lon="8.769815194428714"><ele>138.0</ele><time>2026-04-04T13:34:04Z</time></trkpt><trkpt lat="39.67993241720114" lon="8.7699561494003"><ele>138.0</ele><time>2026-04-04T13:34:05Z</time></trkpt><trkpt lat="39.68000169470593" lon="8.770094468972125"><ele>138.0</ele><time>2026-04-04T13:34:06Z</time></trkpt><trkpt lat="39.680071484645985" lon="8.770234664717941"><ele>138.0</ele><time>2026-04-04T13:34:07Z</time></trkpt><trkpt lat="39.680133272962145" lon="8.770370959157756"><ele>138.0</ele><time>2026-04-04T13:34:08Z</time></trkpt><trkpt lat="39.68019569843581" lon="8.770503186720338"><ele>138.5</ele><time>2026-04-04T13:34:09Z</time></trkpt><trkpt lat="39.68025650781691" lon="8.770632347902524"><ele>139.0</ele><time>2026-04-04T13:34:10Z</time></trkpt><trkpt lat="39.68031375109439" lon="8.770755905641435"><ele>139.5</ele><time>2026-04-04T13:34:11Z</time></trkpt><trkpt lat="39.68037135373418" lon="8.770877832410886"><ele>140.0</ele><time>2026-04-04T13:34:12Z</time></trkpt><trkpt lat="39.68042766095416" lon="8.77100483747186"><ele>140.0</ele><time>2026-04-04T13:34:13Z</time></trkpt><trkpt lat="39.68048316722849" lon="8.771136392827247"><ele>140.0</ele><time>2026-04-04T13:34:14Z</time></trkpt><trkpt lat="39.68054571887384" lon="8.771265213181241"><ele>140.0</ele><time>2026-04-04T13:34:15Z</time></trkpt><trkpt lat="39.68060876386256" lon="8.771401934828681"><ele>140.0</ele><time>2026-04-04T13:34:16Z</time></trkpt><trkpt lat="39.68067266684316" lon="8.77153701730574"><ele>140.0</ele><time>2026-04-04T13:34:17Z</time></trkpt><trkpt lat="39.6807374787683" lon="8.771675984276069"><ele>140.0</ele><time>2026-04-04T13:34:18Z</time></trkpt><trkpt lat="39.68080215633339" lon="8.77181877186317"><ele>140.0</ele><time>2026-04-04T13:34:19Z</time></trkpt><trkpt lat="39.68086637166712" lon="8.771961446448573"><ele>140.0</ele><time>2026-04-04T13:34:20Z</time></trkpt><trkpt lat="39.680933483412076" lon="8.77210850973693"><ele>140.25</ele><time>2026-04-04T13:34:21Z</time></trkpt><trkpt lat="39.681000330769535" lon="8.772252604454842"><ele>140.5</ele><time>2026-04-04T13:34:22Z</time></trkpt><trkpt lat="39.68106716176885" lon="8.772389210906422"><ele>140.75</ele><time>2026-04-04T13:34:23Z</time></trkpt><trkpt lat="39.68112815279496" lon="8.77251716398053"><ele>141.0</ele><time>2026-04-04T13:34:24Z</time></trkpt><trkpt lat="39.681187979499825" lon="8.772638707215346"><ele>141.8</ele><time>2026-04-04T13:34:25Z</time></trkpt><trkpt lat="39.68124899331611" lon="8.772759029674571"><ele>142.6</ele><time>2026-04-04T13:34:26Z</time></trkpt><trkpt lat="39.68130738394793" lon="8.772881429578439"><ele>143.4</ele><time>2026-04-04T13:34:27Z</time></trkpt><trkpt lat="39.68136363364847" lon="8.773006382267658"><ele>144.2</ele><time>2026-04-04T13:34:28Z</time></trkpt><trkpt lat="39.681416578949566" lon="8.773129965266634"><ele>145.0</ele><time>2026-04-04T13:34:29Z</time></trkpt><trkpt lat="39.6814672691123" lon="8.773248228986422"><ele>145.0</ele><time>2026-04-04T13:34:30Z</time></trkpt><trkpt lat="39.68152059784148" lon="8.773360182104101"><ele>145.0</ele><time>2026-04-04T13:34:31Z</time></trkpt><trkpt lat="39.68156919137909" lon="8.773459051864036"><ele>145.0</ele><time>2026-04-04T13:34:32Z</time></trkpt><trkpt lat="39.681618546265646" lon="8.773560971210438"><ele>145.0</ele><time>2026-04-04T13:34:33Z</time></trkpt><trkpt lat="39.68166294116107" lon="8.77365647863974"><ele>145.0</ele><time>2026-04-04T13:34:34Z</time></trkpt><trkpt lat="39.68170774498405" lon="8.773753412128295"><ele>145.0</ele><time>2026-04-04T13:34:35Z</time></trkpt><trkpt lat="39.6817548660347" lon="8.773855356244354"><ele>145.0</ele><time>2026-04-04T13:34:36Z</time></trkpt><trkpt lat="39.68180342088332" lon="8.773962403058102"><ele>145.0</ele><time>2026-04-04T13:34:37Z</time></trkpt><trkpt lat="39.68185583682713" lon="8.774074627575542"><ele>145.0</ele><time>2026-04-04T13:34:38Z</time></trkpt><trkpt lat="39.68190836967904" lon="8.774191461580216"><ele>145.0</ele><time>2026-04-04T13:34:39.001Z</time></trkpt><trkpt lat="39.68196278578433" lon="8.774310551000102"><ele>145.2</ele><time>2026-04-04T13:34:40.001Z</time></trkpt><trkpt lat="39.68201762676456" lon="8.774424430416577"><ele>145.4</ele><time>2026-04-04T13:34:41.001Z</time></trkpt><trkpt lat="39.6820562594182" lon="8.774548062988934"><ele>145.6</ele><time>2026-04-04T13:34:42.001Z</time></trkpt><trkpt lat="39.68210498727435" lon="8.774659362754749"><ele>145.8</ele><time>2026-04-04T13:34:43.001Z</time></trkpt><trkpt lat="39.68215176755953" lon="8.77476388092528"><ele>146.0</ele><time>2026-04-04T13:34:44.001Z</time></trkpt><trkpt lat="39.682189747736835" lon="8.774848738075228"><ele>146.0</ele><time>2026-04-04T13:34:45.001Z</time></trkpt><trkpt lat="39.682241679093124" lon="8.774958047425839"><ele>146.0</ele><time>2026-04-04T13:34:47.001Z</time></trkpt><trkpt lat="39.68222152900537" lon="8.775038853468947"><ele>146.0</ele><time>2026-04-04T13:34:49.001Z</time></trkpt><trkpt lat="39.68213497478211" lon="8.7751014527365"><ele>146.0</ele><time>2026-04-04T13:34:51.001Z</time></trkpt><trkpt lat="39.682009873738046" lon="8.775138130427326"><ele>146.0</ele><time>2026-04-04T13:34:53.001Z</time></trkpt><trkpt lat="39.681936426697604" lon="8.775172667717174"><ele>145.5</ele><time>2026-04-04T13:34:54.001Z</time></trkpt><trkpt lat="39.68186473944714" lon="8.775205880040906"><ele>145.0</ele><time>2026-04-04T13:34:55.001Z</time></trkpt><trkpt lat="39.68179681151658" lon="8.775232877868177"><ele>144.5</ele><time>2026-04-04T13:34:56.001Z</time></trkpt><trkpt lat="39.68173193901423" lon="8.775253343261436"><ele>144.0</ele><time>2026-04-04T13:34:57.001Z</time></trkpt><trkpt lat="39.68163672838279" lon="8.775265879878965"><ele>143.5</ele><time>2026-04-04T13:34:59.001Z</time></trkpt><trkpt lat="39.681617819563" lon="8.775434510668605"><ele>143.0</ele><time>2026-04-04T13:35:01.001Z</time></trkpt><trkpt lat="39.681603540403295" lon="8.775598093105673"><ele>143.0</ele><time>2026-04-04T13:35:03.001Z</time></trkpt><trkpt lat="39.68159475686168" lon="8.775690474111267"><ele>143.0</ele><time>2026-04-04T13:35:04.001Z</time></trkpt><trkpt lat="39.68158574535185" lon="8.775791073942186"><ele>143.0</ele><time>2026-04-04T13:35:05.001Z</time></trkpt><trkpt lat="39.68157787444126" lon="8.775893187264234"><ele>143.0</ele><time>2026-04-04T13:35:06.001Z</time></trkpt><trkpt lat="39.681567574724475" lon="8.775997729393309"><ele>143.0</ele><time>2026-04-04T13:35:07.001Z</time></trkpt><trkpt lat="39.68156279948215" lon="8.776105973726496"><ele>143.0</ele><time>2026-04-04T13:35:08.001Z</time></trkpt><trkpt lat="39.681567662119605" lon="8.776217246581743"><ele>142.8</ele><time>2026-04-04T13:35:09.001Z</time></trkpt><trkpt lat="39.68157635899664" lon="8.776333881226792"><ele>142.60000000000002</ele><time>2026-04-04T13:35:10.001Z</time></trkpt><trkpt lat="39.68158703872175" lon="8.776449688502092"><ele>142.39999999999998</ele><time>2026-04-04T13:35:11.001Z</time></trkpt><trkpt lat="39.681604974001274" lon="8.776565535641467"><ele>142.2</ele><time>2026-04-04T13:35:12.001Z</time></trkpt><trkpt lat="39.681680757105404" lon="8.77664739797596"><ele>142.0</ele><time>2026-04-04T13:35:13.001Z</time></trkpt><trkpt lat="39.68173121133962" lon="8.776731922296383"><ele>142.0</ele><time>2026-04-04T13:35:14.001Z</time></trkpt><trkpt lat="39.68175576466514" lon="8.776833811440373"><ele>142.0</ele><time>2026-04-04T13:35:15Z</time></trkpt><trkpt lat="39.68175227811615" lon="8.776945403884149"><ele>142.0</ele><time>2026-04-04T13:35:16Z</time></trkpt><trkpt lat="39.68173873990198" lon="8.777044872170489"><ele>142.0</ele><time>2026-04-04T13:35:17Z</time></trkpt><trkpt lat="39.68171067102302" lon="8.777138290147017"><ele>142.0</ele><time>2026-04-04T13:35:18Z</time></trkpt><trkpt lat="39.681692543553886" lon="8.777240827561853"><ele>142.0</ele><time>2026-04-04T13:35:19Z</time></trkpt><trkpt lat="39.68167340836703" lon="8.777349064988917"><ele>141.79999999999998</ele><time>2026-04-04T13:35:20Z</time></trkpt><trkpt lat="39.681668902723956" lon="8.777467906621974"><ele>141.6</ele><time>2026-04-04T13:35:21Z</time></trkpt><trkpt lat="39.68163218552429" lon="8.777584905951878"><ele>141.39999999999998</ele><time>2026-04-04T13:35:22Z</time></trkpt><trkpt lat="39.68161135510254" lon="8.777704311299068"><ele>141.2</ele><time>2026-04-04T13:35:23Z</time></trkpt><trkpt lat="39.6815916294217" lon="8.777817384693059"><ele>141.0</ele><time>2026-04-04T13:35:24Z</time></trkpt><trkpt lat="39.68157162107034" lon="8.777927322400581"><ele>140.33333333333334</ele><time>2026-04-04T13:35:25Z</time></trkpt><trkpt lat="39.681567105363506" lon="8.778034496717707"><ele>139.66666666666666</ele><time>2026-04-04T13:35:26Z</time></trkpt><trkpt lat="39.681533946006724" lon="8.7781362728884"><ele>139.0</ele><time>2026-04-04T13:35:27Z</time></trkpt><trkpt lat="39.68153168096627" lon="8.778243916594873"><ele>138.33333333333331</ele><time>2026-04-04T13:35:28Z</time></trkpt><trkpt lat="39.68149602766978" lon="8.778344009146908"><ele>137.66666666666666</ele><time>2026-04-04T13:35:29Z</time></trkpt><trkpt lat="39.68147600291829" lon="8.778452802308445"><ele>137.0</ele><time>2026-04-04T13:35:30Z</time></trkpt><trkpt lat="39.681455174449226" lon="8.778565962012884"><ele>136.4</ele><time>2026-04-04T13:35:31Z</time></trkpt><trkpt lat="39.68143403332475" lon="8.778678329475667"><ele>135.79999999999998</ele><time>2026-04-04T13:35:32Z</time></trkpt><trkpt lat="39.681409889155184" lon="8.778800299047058"><ele>135.2</ele><time>2026-04-04T13:35:33Z</time></trkpt><trkpt lat="39.68138548404437" lon="8.778921351686636"><ele>134.6</ele><time>2026-04-04T13:35:34Z</time></trkpt><trkpt lat="39.68137657017155" lon="8.779042981523903"><ele>134.0</ele><time>2026-04-04T13:35:35Z</time></trkpt><trkpt lat="39.68135674599928" lon="8.779152157884479"><ele>134.0</ele><time>2026-04-04T13:35:36Z</time></trkpt><trkpt lat="39.68134212402131" lon="8.779245080770144"><ele>134.0</ele><time>2026-04-04T13:35:37Z</time></trkpt><trkpt lat="39.68132716256566" lon="8.779334121553294"><ele>134.0</ele><time>2026-04-04T13:35:38Z</time></trkpt><trkpt lat="39.681314440254674" lon="8.779414302283802"><ele>134.0</ele><time>2026-04-04T13:35:39Z</time></trkpt><trkpt lat="39.681292153290514" lon="8.779557813270639"><ele>134.0</ele><time>2026-04-04T13:35:41Z</time></trkpt><trkpt lat="39.68126698937531" lon="8.779711616259426"><ele>134.0</ele><time>2026-04-04T13:35:43Z</time></trkpt><trkpt lat="39.681265337968185" lon="8.779802247481973"><ele>133.66666666666666</ele><time>2026-04-04T13:35:44Z</time></trkpt><trkpt lat="39.6812687012824" lon="8.779901639129953"><ele>133.33333333333331</ele><time>2026-04-04T13:35:45Z</time></trkpt><trkpt lat="39.68127925838969" lon="8.780008328640383"><ele>133.0</ele><time>2026-04-04T13:35:46Z</time></trkpt><trkpt lat="39.681297784034314" lon="8.780125787524845"><ele>132.66666666666666</ele><time>2026-04-04T13:35:47Z</time></trkpt><trkpt lat="39.6813212758526" lon="8.780240709760381"><ele>132.33333333333334</ele><time>2026-04-04T13:35:48Z</time></trkpt><trkpt lat="39.6813485504911" lon="8.780360216446192"><ele>132.0</ele><time>2026-04-04T13:35:49Z</time></trkpt><trkpt lat="39.68137790498065" lon="8.780479668204379"><ele>131.33333333333334</ele><time>2026-04-04T13:35:50Z</time></trkpt><trkpt lat="39.681404031502716" lon="8.780594474771936"><ele>130.66666666666666</ele><time>2026-04-04T13:35:51Z</time></trkpt><trkpt lat="39.681426610578015" lon="8.780695819215396"><ele>130.0</ele><time>2026-04-04T13:35:52Z</time></trkpt><trkpt lat="39.68144836755532" lon="8.78078718737212"><ele>129.33333333333331</ele><time>2026-04-04T13:35:53Z</time></trkpt><trkpt lat="39.681470744955504" lon="8.780879411356981"><ele>128.66666666666666</ele><time>2026-04-04T13:35:54Z</time></trkpt><trkpt lat="39.68150713356456" lon="8.780956910417203"><ele>128.0</ele><time>2026-04-04T13:35:55Z</time></trkpt><trkpt lat="39.68152561806414" lon="8.781041436279285"><ele>127.42857142857142</ele><time>2026-04-04T13:35:56Z</time></trkpt><trkpt lat="39.68154723390741" lon="8.78112543356734"><ele>126.85714285714285</ele><time>2026-04-04T13:35:57Z</time></trkpt><trkpt lat="39.681570570427496" lon="8.781209253776833"><ele>126.28571428571428</ele><time>2026-04-04T13:35:58Z</time></trkpt><trkpt lat="39.68157587648396" lon="8.781303367351292"><ele>125.71428571428572</ele><time>2026-04-04T13:35:59Z</time></trkpt><trkpt lat="39.6816104377997" lon="8.78138612730197"><ele>125.14285714285715</ele><time>2026-04-04T13:36:00Z</time></trkpt><trkpt lat="39.68162648493486" lon="8.781477110198619"><ele>124.57142857142858</ele><time>2026-04-04T13:36:01Z</time></trkpt><trkpt lat="39.68164374894389" lon="8.781559886023881"><ele>124.0</ele><time>2026-04-04T13:36:02Z</time></trkpt><trkpt lat="39.68168101064884" lon="8.781706071975403"><ele>124.00000000000001</ele><time>2026-04-04T13:36:04Z</time></trkpt><trkpt lat="39.68171331295073" lon="8.78183049913321"><ele>124.0</ele><time>2026-04-04T13:36:06Z</time></trkpt><trkpt lat="39.68172507131415" lon="8.781932766818386"><ele>124.0</ele><time>2026-04-04T13:36:08Z</time></trkpt><trkpt lat="39.68173018711575" lon="8.782026162616866"><ele>124.0</ele><time>2026-04-04T13:36:10Z</time></trkpt><trkpt lat="39.681657083970165" lon="8.782098800216982"><ele>124.00000000000001</ele><time>2026-04-04T13:36:11Z</time></trkpt><trkpt lat="39.68160798933449" lon="8.782157853079296"><ele>124.0</ele><time>2026-04-04T13:36:12Z</time></trkpt><trkpt lat="39.68156132707749" lon="8.782229863852672"><ele>123.2</ele><time>2026-04-04T13:36:13Z</time></trkpt><trkpt lat="39.68150539225692" lon="8.78231181395396"><ele>122.4</ele><time>2026-04-04T13:36:14Z</time></trkpt><trkpt lat="39.681442875492266" lon="8.78240155773603"><ele>121.6</ele><time>2026-04-04T13:36:15Z</time></trkpt><trkpt lat="39.68138097861031" lon="8.782504377798434"><ele>120.8</ele><time>2026-04-04T13:36:16Z</time></trkpt><trkpt lat="39.68132589914068" lon="8.782607705622716"><ele>120.0</ele><time>2026-04-04T13:36:17Z</time></trkpt><trkpt lat="39.68127636009651" lon="8.782728596618597"><ele>119.0</ele><time>2026-04-04T13:36:18Z</time></trkpt><trkpt lat="39.68122788295712" lon="8.782862401154189"><ele>118.0</ele><time>2026-04-04T13:36:19Z</time></trkpt><trkpt lat="39.6811815209201" lon="8.783003093455203"><ele>117.0</ele><time>2026-04-04T13:36:20Z</time></trkpt><trkpt lat="39.681137361285316" lon="8.783152324654516"><ele>116.0</ele><time>2026-04-04T13:36:21Z</time></trkpt><trkpt lat="39.6810921244106" lon="8.783310507736505"><ele>116.75</ele><time>2026-04-04T13:36:22Z</time></trkpt><trkpt lat="39.68104613702271" lon="8.783476124877351"><ele>117.5</ele><time>2026-04-04T13:36:23Z</time></trkpt><trkpt lat="39.681001472810806" lon="8.783650689383709"><ele>118.25</ele><time>2026-04-04T13:36:24Z</time></trkpt><trkpt lat="39.68096305926424" lon="8.783826807311003"><ele>119.0</ele><time>2026-04-04T13:36:25Z</time></trkpt><trkpt lat="39.68093868231696" lon="8.78401379651945"><ele>119.0</ele><time>2026-04-04T13:36:26Z</time></trkpt><trkpt lat="39.68092697171378" lon="8.784210880356534"><ele>119.0</ele><time>2026-04-04T13:36:27Z</time></trkpt><trkpt lat="39.68092456370388" lon="8.78441719099425"><ele>119.0</ele><time>2026-04-04T13:36:28Z</time></trkpt><trkpt lat="39.680933196985045" lon="8.784628190102502"><ele>117.33333333333333</ele><time>2026-04-04T13:36:29Z</time></trkpt><trkpt lat="39.680947818129795" lon="8.78483402224464"><ele>115.66666666666666</ele><time>2026-04-04T13:36:30Z</time></trkpt><trkpt lat="39.680960924153126" lon="8.785030677620547"><ele>114.0</ele><time>2026-04-04T13:36:31Z</time></trkpt><trkpt lat="39.680962968085545" lon="8.785226822452353"><ele>112.0</ele><time>2026-04-04T13:36:32Z</time></trkpt><trkpt lat="39.680952369580126" lon="8.785425567987645"><ele>110.0</ele><time>2026-04-04T13:36:33Z</time></trkpt><trkpt lat="39.68092851452344" lon="8.785623014847785"><ele>108.0</ele><time>2026-04-04T13:36:34Z</time></trkpt><trkpt lat="39.680895965781076" lon="8.78582378630725"><ele>107.33333333333334</ele><time>2026-04-04T13:36:35Z</time></trkpt><trkpt lat="39.68085549758144" lon="8.786023972406703"><ele>106.66666666666667</ele><time>2026-04-04T13:36:36Z</time></trkpt><trkpt lat="39.68081022391682" lon="8.78622696300859"><ele>106.0</ele><time>2026-04-04T13:36:37Z</time></trkpt><trkpt lat="39.68076351400401" lon="8.78642451269632"><ele>106.0</ele><time>2026-04-04T13:36:38Z</time></trkpt><trkpt lat="39.68071533320767" lon="8.786621301731367"><ele>106.0</ele><time>2026-04-04T13:36:39Z</time></trkpt><trkpt lat="39.6806679196546" lon="8.786823091694217"><ele>106.0</ele><time>2026-04-04T13:36:40Z</time></trkpt><trkpt lat="39.680630811222386" lon="8.787023147281255"><ele>105.0</ele><time>2026-04-04T13:36:41Z</time></trkpt><trkpt lat="39.68060047480057" lon="8.787230994135067"><ele>104.0</ele><time>2026-04-04T13:36:42Z</time></trkpt><trkpt lat="39.68057257307551" lon="8.7874454066896"><ele>103.0</ele><time>2026-04-04T13:36:43Z</time></trkpt><trkpt lat="39.68054665086499" lon="8.787660353044977"><ele>102.0</ele><time>2026-04-04T13:36:44Z</time></trkpt><trkpt lat="39.68051969272092" lon="8.78788183168685"><ele>101.0</ele><time>2026-04-04T13:36:45Z</time></trkpt><trkpt lat="39.68049216156009" lon="8.788108319149273"><ele>100.0</ele><time>2026-04-04T13:36:46Z</time></trkpt><trkpt lat="39.68046357794126" lon="8.788340200251227"><ele>99.0</ele><time>2026-04-04T13:36:47Z</time></trkpt><trkpt lat="39.68043342924536" lon="8.788578032217146"><ele>98.0</ele><time>2026-04-04T13:36:48Z</time></trkpt><trkpt lat="39.68040478919526" lon="8.78882201586259"><ele>97.0</ele><time>2026-04-04T13:36:49Z</time></trkpt><trkpt lat="39.68037728274693" lon="8.789054749582954"><ele>97.0</ele><time>2026-04-04T13:36:50Z</time></trkpt><trkpt lat="39.68034808534297" lon="8.789292942682247"><ele>97.0</ele><time>2026-04-04T13:36:51Z</time></trkpt><trkpt lat="39.68031937047623" lon="8.789531278837538"><ele>97.0</ele><time>2026-04-04T13:36:52Z</time></trkpt><trkpt lat="39.680289404260655" lon="8.789774964906204"><ele>95.0</ele><time>2026-04-04T13:36:53Z</time></trkpt><trkpt lat="39.68026231690082" lon="8.790023367043029"><ele>93.0</ele><time>2026-04-04T13:36:54Z</time></trkpt><trkpt lat="39.68023854714835" lon="8.79027793653395"><ele>91.0</ele><time>2026-04-04T13:36:55Z</time></trkpt><trkpt lat="39.68021853703994" lon="8.790539033108855"><ele>90.66666666666666</ele><time>2026-04-04T13:36:56Z</time></trkpt><trkpt lat="39.68020511708937" lon="8.790804754828052"><ele>90.33333333333333</ele><time>2026-04-04T13:36:57Z</time></trkpt><trkpt lat="39.680197325870715" lon="8.791074929887337"><ele>90.0</ele><time>2026-04-04T13:36:58Z</time></trkpt><trkpt lat="39.68018959894734" lon="8.791350300473987"><ele>89.33333333333333</ele><time>2026-04-04T13:36:59Z</time></trkpt><trkpt lat="39.68018516224273" lon="8.791631968253967"><ele>88.66666666666666</ele><time>2026-04-04T13:37:00Z</time></trkpt><trkpt lat="39.6801825009187" lon="8.791918980155817"><ele>88.0</ele><time>2026-04-04T13:37:01Z</time></trkpt><trkpt lat="39.68018017496013" lon="8.792179924888627"><ele>86.33333333333333</ele><time>2026-04-04T13:37:02Z</time></trkpt><trkpt lat="39.6801831415608" lon="8.79245254712735"><ele>84.66666666666667</ele><time>2026-04-04T13:37:03Z</time></trkpt><trkpt lat="39.68018713562142" lon="8.79272034011551"><ele>83.0</ele><time>2026-04-04T13:37:04Z</time></trkpt><trkpt lat="39.68019620155732" lon="8.792985509690794"><ele>82.33333333333334</ele><time>2026-04-04T13:37:05Z</time></trkpt><trkpt lat="39.68021026705504" lon="8.793246004552573"><ele>81.66666666666667</ele><time>2026-04-04T13:37:06Z</time></trkpt><trkpt lat="39.68023063407224" lon="8.79350156368503"><ele>81.0</ele><time>2026-04-04T13:37:07Z</time></trkpt><trkpt lat="39.68024903098236" lon="8.793755904610537"><ele>81.0</ele><time>2026-04-04T13:37:08Z</time></trkpt><trkpt lat="39.68026628700578" lon="8.794004367206357"><ele>81.0</ele><time>2026-04-04T13:37:09Z</time></trkpt><trkpt lat="39.68027736700611" lon="8.794251448609321"><ele>81.0</ele><time>2026-04-04T13:37:10Z</time></trkpt><trkpt lat="39.68028902742919" lon="8.794497246575956"><ele>81.0</ele><time>2026-04-04T13:37:11Z</time></trkpt><trkpt lat="39.68030274135095" lon="8.794743954317543"><ele>81.0</ele><time>2026-04-04T13:37:12Z</time></trkpt><trkpt lat="39.68032490952205" lon="8.794988519030543"><ele>81.0</ele><time>2026-04-04T13:37:13.001Z</time></trkpt><trkpt lat="39.68036186613155" lon="8.795227372215182"><ele>81.0</ele><time>2026-04-04T13:37:14.001Z</time></trkpt><trkpt lat="39.680409591785775" lon="8.795459257515377"><ele>81.0</ele><time>2026-04-04T13:37:15.001Z</time></trkpt><trkpt lat="39.68046197078322" lon="8.795679716997796"><ele>81.0</ele><time>2026-04-04T13:37:16.001Z</time></trkpt><trkpt lat="39.68052254772468" lon="8.795890089132794"><ele>81.33333333333333</ele><time>2026-04-04T13:37:17.001Z</time></trkpt><trkpt lat="39.680589383159884" lon="8.796087589515027"><ele>81.66666666666666</ele><time>2026-04-04T13:37:18.001Z</time></trkpt><trkpt lat="39.68066114659155" lon="8.796266869682151"><ele>82.0</ele><time>2026-04-04T13:37:19.001Z</time></trkpt><trkpt lat="39.680736194380856" lon="8.796433694161063"><ele>82.0</ele><time>2026-04-04T13:37:20.001Z</time></trkpt><trkpt lat="39.680814987641256" lon="8.796603310148383"><ele>82.0</ele><time>2026-04-04T13:37:21Z</time></trkpt><trkpt lat="39.68090023400807" lon="8.796774338009259"><ele>82.0</ele><time>2026-04-04T13:37:22Z</time></trkpt><trkpt lat="39.680991369861964" lon="8.796943330648917"><ele>82.0</ele><time>2026-04-04T13:37:23Z</time></trkpt><trkpt lat="39.681093753257024" lon="8.79710161902561"><ele>82.0</ele><time>2026-04-04T13:37:24Z</time></trkpt><trkpt lat="39.681206711859595" lon="8.797257702432788"><ele>82.0</ele><time>2026-04-04T13:37:25Z</time></trkpt><trkpt lat="39.68133019538272" lon="8.797409831727837"><ele>82.0</ele><time>2026-04-04T13:37:26Z</time></trkpt><trkpt lat="39.681452838491055" lon="8.797560223748953"><ele>82.0</ele><time>2026-04-04T13:37:27Z</time></trkpt><trkpt lat="39.681574944247366" lon="8.79771850768444"><ele>82.0</ele><time>2026-04-04T13:37:28Z</time></trkpt><trkpt lat="39.68169338849896" lon="8.797887145457635"><ele>81.66666666666666</ele><time>2026-04-04T13:37:29Z</time></trkpt><trkpt lat="39.681802854621274" lon="8.79806944864742"><ele>81.33333333333333</ele><time>2026-04-04T13:37:30Z</time></trkpt><trkpt lat="39.681896468871194" lon="8.79827040293473"><ele>81.0</ele><time>2026-04-04T13:37:31Z</time></trkpt><trkpt lat="39.681970378782026" lon="8.798485587486397"><ele>80.0</ele><time>2026-04-04T13:37:32Z</time></trkpt><trkpt lat="39.68202676247923" lon="8.798711815827028"><ele>79.0</ele><time>2026-04-04T13:37:33Z</time></trkpt><trkpt lat="39.6820720979053" lon="8.798944395452716"><ele>78.0</ele><time>2026-04-04T13:37:34Z</time></trkpt><trkpt lat="39.68210024921194" lon="8.799182941032559"><ele>78.33333333333333</ele><time>2026-04-04T13:37:35.001Z</time></trkpt><trkpt lat="39.68209791732652" lon="8.799424160521143"><ele>78.66666666666666</ele><time>2026-04-04T13:37:36Z</time></trkpt><trkpt lat="39.6820933216521" lon="8.799661465128773"><ele>79.0</ele><time>2026-04-04T13:37:37Z</time></trkpt><trkpt lat="39.68208885458196" lon="8.799899221506053"><ele>79.0</ele><time>2026-04-04T13:37:38Z</time></trkpt><trkpt lat="39.68208788882898" lon="8.800139558068667"><ele>79.0</ele><time>2026-04-04T13:37:39Z</time></trkpt><trkpt lat="39.68208467853642" lon="8.80037635857289"><ele>79.0</ele><time>2026-04-04T13:37:40Z</time></trkpt><trkpt lat="39.68208103352594" lon="8.800617230889191"><ele>80.66666666666666</ele><time>2026-04-04T13:37:41Z</time></trkpt><trkpt lat="39.682076945811545" lon="8.800855672222294"><ele>82.33333333333333</ele><time>2026-04-04T13:37:42Z</time></trkpt><trkpt lat="39.68206531863721" lon="8.801096103227248"><ele>84.0</ele><time>2026-04-04T13:37:43Z</time></trkpt><trkpt lat="39.68202859896014" lon="8.801331286874989"><ele>84.33333333333333</ele><time>2026-04-04T13:37:44Z</time></trkpt><trkpt lat="39.68197950805593" lon="8.801564137375593"><ele>84.66666666666666</ele><time>2026-04-04T13:37:45Z</time></trkpt><trkpt lat="39.68192064648076" lon="8.801796315863644"><ele>85.0</ele><time>2026-04-04T13:37:46Z</time></trkpt><trkpt lat="39.68184060808953" lon="8.80201754449184"><ele>86.0</ele><time>2026-04-04T13:37:47Z</time></trkpt><trkpt lat="39.68174224688908" lon="8.802227302510731"><ele>87.0</ele><time>2026-04-04T13:37:48Z</time></trkpt><trkpt lat="39.681627732372554" lon="8.802430910175111"><ele>88.0</ele><time>2026-04-04T13:37:49Z</time></trkpt><trkpt lat="39.68150766771214" lon="8.80263549210531"><ele>89.66666666666666</ele><time>2026-04-04T13:37:50Z</time></trkpt><trkpt lat="39.6813864244105" lon="8.802839386129715"><ele>91.33333333333333</ele><time>2026-04-04T13:37:51Z</time></trkpt><trkpt lat="39.681270000831255" lon="8.80304671859292"><ele>93.0</ele><time>2026-04-04T13:37:52Z</time></trkpt><trkpt lat="39.6811655799681" lon="8.80326741300496"><ele>93.33333333333333</ele><time>2026-04-04T13:37:53Z</time></trkpt><trkpt lat="39.6810805944109" lon="8.803503791586436"><ele>93.66666666666666</ele><time>2026-04-04T13:37:54Z</time></trkpt><trkpt lat="39.68100974121135" lon="8.803749490978605"><ele>94.0</ele><time>2026-04-04T13:37:55Z</time></trkpt><trkpt lat="39.68095505930213" lon="8.804004654436719"><ele>94.0</ele><time>2026-04-04T13:37:56Z</time></trkpt><trkpt lat="39.680911208088126" lon="8.804263670753443"><ele>94.0</ele><time>2026-04-04T13:37:57Z</time></trkpt><trkpt lat="39.68087283464013" lon="8.804524395855537"><ele>94.0</ele><time>2026-04-04T13:37:58Z</time></trkpt><trkpt lat="39.68083334717479" lon="8.804780949534326"><ele>95.66666666666666</ele><time>2026-04-04T13:37:59Z</time></trkpt><trkpt lat="39.680791490682026" lon="8.805036831641665"><ele>97.33333333333333</ele><time>2026-04-04T13:38:00Z</time></trkpt><trkpt lat="39.68075150903535" lon="8.80529351366301"><ele>99.0</ele><time>2026-04-04T13:38:01Z</time></trkpt><trkpt lat="39.68071297380081" lon="8.80555348066062"><ele>99.33333333333334</ele><time>2026-04-04T13:38:02Z</time></trkpt><trkpt lat="39.680675392106544" lon="8.805816298155598"><ele>99.66666666666667</ele><time>2026-04-04T13:38:03Z</time></trkpt><trkpt lat="39.680637087793045" lon="8.806081833007712"><ele>100.0</ele><time>2026-04-04T13:38:04Z</time></trkpt><trkpt lat="39.680596714889475" lon="8.80634752857093"><ele>100.0</ele><time>2026-04-04T13:38:05Z</time></trkpt><trkpt lat="39.68055627132263" lon="8.806606796836377"><ele>100.0</ele><time>2026-04-04T13:38:06Z</time></trkpt><trkpt lat="39.68051621057273" lon="8.806862971123039"><ele>100.0</ele><time>2026-04-04T13:38:07Z</time></trkpt><trkpt lat="39.68047818369134" lon="8.807117232203074"><ele>100.0</ele><time>2026-04-04T13:38:08Z</time></trkpt><trkpt lat="39.68044294477688" lon="8.807367051497256"><ele>100.0</ele><time>2026-04-04T13:38:09Z</time></trkpt><trkpt lat="39.68040727809388" lon="8.80761139970857"><ele>100.0</ele><time>2026-04-04T13:38:10Z</time></trkpt><trkpt lat="39.68037128173248" lon="8.807845828527446"><ele>98.66666666666667</ele><time>2026-04-04T13:38:11Z</time></trkpt><trkpt lat="39.680333795049066" lon="8.80807764595967"><ele>97.33333333333334</ele><time>2026-04-04T13:38:12Z</time></trkpt><trkpt lat="39.68029628276863" lon="8.808307638610218"><ele>96.0</ele><time>2026-04-04T13:38:13Z</time></trkpt><trkpt lat="39.68026119908981" lon="8.808531247519829"><ele>94.0</ele><time>2026-04-04T13:38:14Z</time></trkpt><trkpt lat="39.68022783896761" lon="8.80875315432093"><ele>92.0</ele><time>2026-04-04T13:38:15Z</time></trkpt><trkpt lat="39.68019376824055" lon="8.808979863872427"><ele>90.0</ele><time>2026-04-04T13:38:16Z</time></trkpt><trkpt lat="39.68015711148764" lon="8.809211860398198"><ele>89.33333333333333</ele><time>2026-04-04T13:38:17Z</time></trkpt><trkpt lat="39.68011992509058" lon="8.809448166099125"><ele>88.66666666666666</ele><time>2026-04-04T13:38:18Z</time></trkpt><trkpt lat="39.680081278523254" lon="8.809693518822968"><ele>88.0</ele><time>2026-04-04T13:38:19Z</time></trkpt><trkpt lat="39.68004431887692" lon="8.809940737622632"><ele>87.33333333333333</ele><time>2026-04-04T13:38:20Z</time></trkpt><trkpt lat="39.68000968713302" lon="8.810191747502632"><ele>86.66666666666667</ele><time>2026-04-04T13:38:21Z</time></trkpt><trkpt lat="39.67998183834166" lon="8.810444705921999"><ele>86.0</ele><time>2026-04-04T13:38:22Z</time></trkpt><trkpt lat="39.67996086806389" lon="8.810702150158352"><ele>86.0</ele><time>2026-04-04T13:38:23Z</time></trkpt><trkpt lat="39.67994337868469" lon="8.810961346320104"><ele>86.0</ele><time>2026-04-04T13:38:24Z</time></trkpt><trkpt lat="39.67993072011562" lon="8.811224293881011"><ele>86.0</ele><time>2026-04-04T13:38:25Z</time></trkpt><trkpt lat="39.67991976817921" lon="8.811487834541225"><ele>85.66666666666667</ele><time>2026-04-04T13:38:26Z</time></trkpt><trkpt lat="39.67990956723522" lon="8.811751886618714"><ele>85.33333333333333</ele><time>2026-04-04T13:38:27Z</time></trkpt><trkpt lat="39.679906787033545" lon="8.812014069331363"><ele>85.0</ele><time>2026-04-04T13:38:28Z</time></trkpt><trkpt lat="39.67990996086972" lon="8.812274794312268"><ele>84.66666666666666</ele><time>2026-04-04T13:38:29Z</time></trkpt><trkpt lat="39.67992794147573" lon="8.812537321905882"><ele>84.33333333333333</ele><time>2026-04-04T13:38:30Z</time></trkpt><trkpt lat="39.67994413618561" lon="8.812798314057092"><ele>84.0</ele><time>2026-04-04T13:38:31Z</time></trkpt><trkpt lat="39.67996186966583" lon="8.813059308922073"><ele>83.66666666666667</ele><time>2026-04-04T13:38:32Z</time></trkpt><trkpt lat="39.679975564794915" lon="8.81332263034423"><ele>83.33333333333334</ele><time>2026-04-04T13:38:33Z</time></trkpt><trkpt lat="39.67998815463933" lon="8.813585767736216"><ele>83.0</ele><time>2026-04-04T13:38:34Z</time></trkpt><trkpt lat="39.6800029796433" lon="8.813850903654913"><ele>82.66666666666667</ele><time>2026-04-04T13:38:35Z</time></trkpt><trkpt lat="39.680020573258716" lon="8.814117864962148"><ele>82.33333333333333</ele><time>2026-04-04T13:38:36Z</time></trkpt><trkpt lat="39.6800392761709" lon="8.814385310324564"><ele>82.0</ele><time>2026-04-04T13:38:37Z</time></trkpt><trkpt lat="39.680057955808486" lon="8.814655788428398"><ele>82.0</ele><time>2026-04-04T13:38:38Z</time></trkpt><trkpt lat="39.68007497509718" lon="8.814925882314949"><ele>82.0</ele><time>2026-04-04T13:38:39Z</time></trkpt><trkpt lat="39.680093264883936" lon="8.815197266934547"><ele>82.0</ele><time>2026-04-04T13:38:40Z</time></trkpt><trkpt lat="39.68011230362594" lon="8.815467454114476"><ele>82.0</ele><time>2026-04-04T13:38:41Z</time></trkpt><trkpt lat="39.680131853080944" lon="8.81573833783673"><ele>82.0</ele><time>2026-04-04T13:38:42Z</time></trkpt><trkpt lat="39.680152092411916" lon="8.81600995106297"><ele>82.0</ele><time>2026-04-04T13:38:43Z</time></trkpt><trkpt lat="39.680171118987715" lon="8.816282302368494"><ele>82.0</ele><time>2026-04-04T13:38:44Z</time></trkpt><trkpt lat="39.68018871467151" lon="8.81655332256946"><ele>82.0</ele><time>2026-04-04T13:38:45Z</time></trkpt><trkpt lat="39.680205154794656" lon="8.816824242267574"><ele>82.0</ele><time>2026-04-04T13:38:46Z</time></trkpt><trkpt lat="39.68022097198667" lon="8.817098148481152"><ele>82.0</ele><time>2026-04-04T13:38:47Z</time></trkpt><trkpt lat="39.68023880763511" lon="8.817371309132698"><ele>82.0</ele><time>2026-04-04T13:38:48Z</time></trkpt><trkpt lat="39.68026377338912" lon="8.81764488879462"><ele>82.0</ele><time>2026-04-04T13:38:49Z</time></trkpt><trkpt lat="39.68029711206129" lon="8.817918415608533"><ele>82.66666666666666</ele><time>2026-04-04T13:38:50Z</time></trkpt><trkpt lat="39.680346641613134" lon="8.818190914995476"><ele>83.33333333333333</ele><time>2026-04-04T13:38:51Z</time></trkpt><trkpt lat="39.68040969697778" lon="8.818457633037445"><ele>84.0</ele><time>2026-04-04T13:38:52Z</time></trkpt><trkpt lat="39.68047833474178" lon="8.818724918582843"><ele>84.0</ele><time>2026-04-04T13:38:53Z</time></trkpt><trkpt lat="39.68055533629312" lon="8.81898978372953"><ele>84.0</ele><time>2026-04-04T13:38:54Z</time></trkpt><trkpt lat="39.68063521376621" lon="8.819256128545161"><ele>84.0</ele><time>2026-04-04T13:38:55Z</time></trkpt><trkpt lat="39.68071590964422" lon="8.81952016350725"><ele>83.66666666666667</ele><time>2026-04-04T13:38:56Z</time></trkpt><trkpt lat="39.68079735297266" lon="8.819785438237323"><ele>83.33333333333334</ele><time>2026-04-04T13:38:57Z</time></trkpt><trkpt lat="39.68087942332586" lon="8.820054933045853"><ele>83.0</ele><time>2026-04-04T13:38:58Z</time></trkpt><trkpt lat="39.68096111322732" lon="8.820319607236062"><ele>83.0</ele><time>2026-04-04T13:38:59Z</time></trkpt><trkpt lat="39.681042605208255" lon="8.820587020312926"><ele>83.0</ele><time>2026-04-04T13:39:00Z</time></trkpt><trkpt lat="39.68112637922688" lon="8.820853542913454"><ele>83.0</ele><time>2026-04-04T13:39:01Z</time></trkpt><trkpt lat="39.68121016141718" lon="8.821120327253206"><ele>83.33333333333334</ele><time>2026-04-04T13:39:02Z</time></trkpt><trkpt lat="39.68129338591441" lon="8.821384533948605"><ele>83.66666666666667</ele><time>2026-04-04T13:39:03Z</time></trkpt><trkpt lat="39.68137421722048" lon="8.821652825178816"><ele>84.0</ele><time>2026-04-04T13:39:04Z</time></trkpt><trkpt lat="39.68144681890048" lon="8.82192153595865"><ele>84.0</ele><time>2026-04-04T13:39:05Z</time></trkpt><trkpt lat="39.68150745675866" lon="8.822193108778556"><ele>84.0</ele><time>2026-04-04T13:39:06Z</time></trkpt><trkpt lat="39.68155608071159" lon="8.822468443460888"><ele>84.0</ele><time>2026-04-04T13:39:07Z</time></trkpt><trkpt lat="39.68159206836011" lon="8.822745363917711"><ele>84.0</ele><time>2026-04-04T13:39:08Z</time></trkpt><trkpt lat="39.681620117291175" lon="8.82302052866453"><ele>84.0</ele><time>2026-04-04T13:39:09Z</time></trkpt><trkpt lat="39.68163853876911" lon="8.823297611097788"><ele>84.0</ele><time>2026-04-04T13:39:10Z</time></trkpt><trkpt lat="39.68164935384852" lon="8.823574250120437"><ele>84.0</ele><time>2026-04-04T13:39:11Z</time></trkpt><trkpt lat="39.68165405481712" lon="8.82384635562961"><ele>84.0</ele><time>2026-04-04T13:39:12Z</time></trkpt><trkpt lat="39.68165311507718" lon="8.824120902768458"><ele>84.0</ele><time>2026-04-04T13:39:13Z</time></trkpt><trkpt lat="39.68165992844626" lon="8.824389901874026"><ele>84.0</ele><time>2026-04-04T13:39:14Z</time></trkpt><trkpt lat="39.68168444503677" lon="8.824653890714417"><ele>84.0</ele><time>2026-04-04T13:39:15Z</time></trkpt><trkpt lat="39.68172070096135" lon="8.824898944323326"><ele>84.0</ele><time>2026-04-04T13:39:16Z</time></trkpt><trkpt lat="39.68175860541718" lon="8.825118114295856"><ele>84.0</ele><time>2026-04-04T13:39:17Z</time></trkpt><trkpt lat="39.681794259026894" lon="8.825304024295587"><ele>84.0</ele><time>2026-04-04T13:39:18Z</time></trkpt><trkpt lat="39.68182915499933" lon="8.825460314941019"><ele>84.0</ele><time>2026-04-04T13:39:19Z</time></trkpt><trkpt lat="39.681863934640745" lon="8.825587168106345"><ele>84.0</ele><time>2026-04-04T13:39:20Z</time></trkpt><trkpt lat="39.681892501189715" lon="8.825695710472507"><ele>84.0</ele><time>2026-04-04T13:39:21Z</time></trkpt><trkpt lat="39.68190820750778" lon="8.82579403011297"><ele>84.0</ele><time>2026-04-04T13:39:22Z</time></trkpt><trkpt lat="39.68190661890553" lon="8.82588039024742"><ele>84.0</ele><time>2026-04-04T13:39:23Z</time></trkpt><trkpt lat="39.681840911166354" lon="8.826016460496817"><ele>84.0</ele><time>2026-04-04T13:39:25Z</time></trkpt><trkpt lat="39.68177779281947" lon="8.826071569692706"><ele>84.0</ele><time>2026-04-04T13:39:26Z</time></trkpt><trkpt lat="39.68169808654496" lon="8.826104975457078"><ele>84.0</ele><time>2026-04-04T13:39:27Z</time></trkpt><trkpt lat="39.68159874880404" lon="8.826118402861908"><ele>84.0</ele><time>2026-04-04T13:39:28Z</time></trkpt><trkpt lat="39.68148872457853" lon="8.826117867911288"><ele>84.0</ele><time>2026-04-04T13:39:29Z</time></trkpt><trkpt lat="39.68136746149615" lon="8.82611036524014"><ele>84.0</ele><time>2026-04-04T13:39:30Z</time></trkpt><trkpt lat="39.681233939960535" lon="8.826105844740033"><ele>84.0</ele><time>2026-04-04T13:39:31Z</time></trkpt><trkpt lat="39.68109213382249" lon="8.826103257708665"><ele>84.66666666666667</ele><time>2026-04-04T13:39:32Z</time></trkpt><trkpt lat="39.680936993558774" lon="8.826101824168783"><ele>85.33333333333334</ele><time>2026-04-04T13:39:33Z</time></trkpt><trkpt lat="39.68077475882454" lon="8.826097754691551"><ele>86.0</ele><time>2026-04-04T13:39:34Z</time></trkpt><trkpt lat="39.68060676617974" lon="8.82609317246398"><ele>86.0</ele><time>2026-04-04T13:39:35Z</time></trkpt><trkpt lat="39.68044175346311" lon="8.826090447238908"><ele>86.0</ele><time>2026-04-04T13:39:36Z</time></trkpt><trkpt lat="39.680268822059666" lon="8.826087632632788"><ele>86.0</ele><time>2026-04-04T13:39:37Z</time></trkpt><trkpt lat="39.680091985857025" lon="8.82608641611336"><ele>86.0</ele><time>2026-04-04T13:39:38Z</time></trkpt><trkpt lat="39.67991054024" lon="8.826084005240816"><ele>86.0</ele><time>2026-04-04T13:39:39Z</time></trkpt><trkpt lat="39.679729038066334" lon="8.82607998478512"><ele>86.0</ele><time>2026-04-04T13:39:40Z</time></trkpt><trkpt lat="39.679541026902285" lon="8.826073345017452"><ele>86.0</ele><time>2026-04-04T13:39:41Z</time></trkpt><trkpt lat="39.6793560869458" lon="8.826066605136848"><ele>86.0</ele><time>2026-04-04T13:39:42Z</time></trkpt><trkpt lat="39.6791687500489" lon="8.826053544514371"><ele>86.0</ele><time>2026-04-04T13:39:43Z</time></trkpt><trkpt lat="39.67897978411546" lon="8.826024939484206"><ele>85.66666666666667</ele><time>2026-04-04T13:39:44Z</time></trkpt><trkpt lat="39.67879207518821" lon="8.825976384585461"><ele>85.33333333333333</ele><time>2026-04-04T13:39:45Z</time></trkpt><trkpt lat="39.67860471534474" lon="8.825916723480479"><ele>85.0</ele><time>2026-04-04T13:39:46Z</time></trkpt><trkpt lat="39.67841545843211" lon="8.825843942808111"><ele>85.66666666666666</ele><time>2026-04-04T13:39:47Z</time></trkpt><trkpt lat="39.67822719156913" lon="8.825760237849591"><ele>86.33333333333333</ele><time>2026-04-04T13:39:48Z</time></trkpt><trkpt lat="39.67804256294378" lon="8.825673454888895"><ele>87.0</ele><time>2026-04-04T13:39:49Z</time></trkpt><trkpt lat="39.67786134251833" lon="8.82556781519075"><ele>87.0</ele><time>2026-04-04T13:39:50Z</time></trkpt><trkpt lat="39.677682560234494" lon="8.825437581364435"><ele>87.0</ele><time>2026-04-04T13:39:51Z</time></trkpt><trkpt lat="39.67750733594889" lon="8.8252913211559"><ele>87.0</ele><time>2026-04-04T13:39:52Z</time></trkpt><trkpt lat="39.67733682786457" lon="8.825129879526502"><ele>87.0</ele><time>2026-04-04T13:39:53Z</time></trkpt><trkpt lat="39.677173204441466" lon="8.824960962281931"><ele>87.0</ele><time>2026-04-04T13:39:54Z</time></trkpt><trkpt lat="39.67701482345812" lon="8.824775186955865"><ele>87.0</ele><time>2026-04-04T13:39:55Z</time></trkpt><trkpt lat="39.67686842954635" lon="8.824570557514702"><ele>87.0</ele><time>2026-04-04T13:39:56Z</time></trkpt><trkpt lat="39.676733105862404" lon="8.824350234731885"><ele>87.0</ele><time>2026-04-04T13:39:57Z</time></trkpt><trkpt lat="39.67660471579013" lon="8.824119001471907"><ele>87.0</ele><time>2026-04-04T13:39:58Z</time></trkpt><trkpt lat="39.6764882588992" lon="8.823885209266065"><ele>87.0</ele><time>2026-04-04T13:39:59Z</time></trkpt><trkpt lat="39.67637847772996" lon="8.823637037768611"><ele>87.0</ele><time>2026-04-04T13:40:00Z</time></trkpt><trkpt lat="39.67628141280099" lon="8.823378897507414"><ele>87.0</ele><time>2026-04-04T13:40:01Z</time></trkpt><trkpt lat="39.67619746827493" lon="8.823115775658046"><ele>87.0</ele><time>2026-04-04T13:40:02Z</time></trkpt><trkpt lat="39.67612437025064" lon="8.822843365976924"><ele>87.0</ele><time>2026-04-04T13:40:03Z</time></trkpt><trkpt lat="39.67606898609366" lon="8.822576347235684"><ele>87.0</ele><time>2026-04-04T13:40:04Z</time></trkpt><trkpt lat="39.67603122006015" lon="8.822322072934414"><ele>87.0</ele><time>2026-04-04T13:40:05Z</time></trkpt><trkpt lat="39.676007506957674" lon="8.822080903518886"><ele>87.0</ele><time>2026-04-04T13:40:06Z</time></trkpt><trkpt lat="39.67599027729469" lon="8.821868581897595"><ele>87.0</ele><time>2026-04-04T13:40:07Z</time></trkpt><trkpt lat="39.67597533689778" lon="8.821683348206292"><ele>86.5</ele><time>2026-04-04T13:40:08Z</time></trkpt><trkpt lat="39.67598731142562" lon="8.821522715135607"><ele>86.0</ele><time>2026-04-04T13:40:09Z</time></trkpt><trkpt lat="39.67602115899503" lon="8.821370257110614"><ele>85.5</ele><time>2026-04-04T13:40:10Z</time></trkpt><trkpt lat="39.676066904514755" lon="8.821236034167862"><ele>85.0</ele><time>2026-04-04T13:40:11Z</time></trkpt><trkpt lat="39.67611169531476" lon="8.821118193626619"><ele>85.0</ele><time>2026-04-04T13:40:12Z</time></trkpt><trkpt lat="39.67612610442648" lon="8.820984826564752"><ele>85.0</ele><time>2026-04-04T13:40:13Z</time></trkpt><trkpt lat="39.67611280282902" lon="8.820867799486168"><ele>85.0</ele><time>2026-04-04T13:40:14Z</time></trkpt><trkpt lat="39.67605570377561" lon="8.82077105581735"><ele>85.0</ele><time>2026-04-04T13:40:15Z</time></trkpt><trkpt lat="39.675972337535214" lon="8.82070933624901"><ele>85.0</ele><time>2026-04-04T13:40:16Z</time></trkpt><trkpt lat="39.67586739421931" lon="8.820722103174125"><ele>85.0</ele><time>2026-04-04T13:40:17Z</time></trkpt><trkpt lat="39.67577232151704" lon="8.820772627407337"><ele>85.0</ele><time>2026-04-04T13:40:18Z</time></trkpt><trkpt lat="39.67568846391852" lon="8.820865209453236"><ele>85.0</ele><time>2026-04-04T13:40:19Z</time></trkpt><trkpt lat="39.675626091836065" lon="8.820994482173518"><ele>85.0</ele><time>2026-04-04T13:40:20Z</time></trkpt><trkpt lat="39.675551474157494" lon="8.821124243794225"><ele>85.0</ele><time>2026-04-04T13:40:21Z</time></trkpt><trkpt lat="39.67545312466997" lon="8.821228611445429"><ele>85.0</ele><time>2026-04-04T13:40:22Z</time></trkpt><trkpt lat="39.67535106849179" lon="8.821329062844507"><ele>85.0</ele><time>2026-04-04T13:40:23Z</time></trkpt><trkpt lat="39.67526527019912" lon="8.82147352482721"><ele>85.0</ele><time>2026-04-04T13:40:24Z</time></trkpt><trkpt lat="39.67519490873945" lon="8.821645334982255"><ele>86.66666666666666</ele><time>2026-04-04T13:40:25Z</time></trkpt><trkpt lat="39.67513042980555" lon="8.821820026702"><ele>88.33333333333333</ele><time>2026-04-04T13:40:26Z</time></trkpt><trkpt lat="39.67506406576305" lon="8.822003623867008"><ele>90.0</ele><time>2026-04-04T13:40:27Z</time></trkpt><trkpt lat="39.67500005277058" lon="8.822196109508319"><ele>90.0</ele><time>2026-04-04T13:40:28Z</time></trkpt><trkpt lat="39.67493493235935" lon="8.822397107786442"><ele>90.0</ele><time>2026-04-04T13:40:29Z</time></trkpt><trkpt lat="39.674872049399255" lon="8.822596157469604"><ele>90.0</ele><time>2026-04-04T13:40:30Z</time></trkpt><trkpt lat="39.67480157827735" lon="8.822797460645045"><ele>90.33333333333333</ele><time>2026-04-04T13:40:31Z</time></trkpt><trkpt lat="39.67472975405863" lon="8.822997386828273"><ele>90.66666666666666</ele><time>2026-04-04T13:40:32Z</time></trkpt><trkpt lat="39.674659490649766" lon="8.823197936762949"><ele>91.0</ele><time>2026-04-04T13:40:33Z</time></trkpt><trkpt lat="39.6745927316126" lon="8.823390225176915"><ele>91.66666666666666</ele><time>2026-04-04T13:40:34Z</time></trkpt><trkpt lat="39.67452551700536" lon="8.823582629203797"><ele>92.33333333333333</ele><time>2026-04-04T13:40:35Z</time></trkpt><trkpt lat="39.674460161266" lon="8.823768596847898"><ele>93.0</ele><time>2026-04-04T13:40:36Z</time></trkpt><trkpt lat="39.67439490128785" lon="8.823951618056508"><ele>93.5</ele><time>2026-04-04T13:40:37Z</time></trkpt><trkpt lat="39.67433043045927" lon="8.824125006965376"><ele>94.0</ele><time>2026-04-04T13:40:38Z</time></trkpt><trkpt lat="39.67426955394755" lon="8.824298151780603"><ele>94.5</ele><time>2026-04-04T13:40:39Z</time></trkpt><trkpt lat="39.674202407450075" lon="8.824461889441292"><ele>95.0</ele><time>2026-04-04T13:40:40Z</time></trkpt><trkpt lat="39.674116703424055" lon="8.824576192157402"><ele>96.0</ele><time>2026-04-04T13:40:41Z</time></trkpt><trkpt lat="39.67402035191745" lon="8.824632906822544"><ele>97.0</ele><time>2026-04-04T13:40:42Z</time></trkpt><trkpt lat="39.67392576022794" lon="8.82462523469165"><ele>98.0</ele><time>2026-04-04T13:40:43Z</time></trkpt><trkpt lat="39.673836111242" lon="8.82465072562312"><ele>99.0</ele><time>2026-04-04T13:40:44Z</time></trkpt><trkpt lat="39.67369226796004" lon="8.824561484100244"><ele>100.0</ele><time>2026-04-04T13:40:45Z</time></trkpt><trkpt lat="39.67353951380993" lon="8.824510915521207"><ele>101.0</ele><time>2026-04-04T13:40:46Z</time></trkpt><trkpt lat="39.67336439507249" lon="8.824487197373436"><ele>102.0</ele><time>2026-04-04T13:40:47Z</time></trkpt><trkpt lat="39.67318075484166" lon="8.824454624560094"><ele>102.0</ele><time>2026-04-04T13:40:48Z</time></trkpt><trkpt lat="39.67300981655972" lon="8.824410814111287"><ele>102.0</ele><time>2026-04-04T13:40:49Z</time></trkpt><trkpt lat="39.67283155492372" lon="8.824365653959854"><ele>102.0</ele><time>2026-04-04T13:40:50Z</time></trkpt><trkpt lat="39.67265049139368" lon="8.824322485041185"><ele>101.33333333333334</ele><time>2026-04-04T13:40:51Z</time></trkpt><trkpt lat="39.67246446930372" lon="8.824276225611337"><ele>100.66666666666667</ele><time>2026-04-04T13:40:52Z</time></trkpt><trkpt lat="39.67227948607535" lon="8.82422629673018"><ele>100.0</ele><time>2026-04-04T13:40:53Z</time></trkpt><trkpt lat="39.67209427403013" lon="8.824175996737004"><ele>101.0</ele><time>2026-04-04T13:40:54Z</time></trkpt><trkpt lat="39.67189443469756" lon="8.82412664545879"><ele>102.0</ele><time>2026-04-04T13:40:55Z</time></trkpt><trkpt lat="39.67169697139665" lon="8.824078448315563"><ele>103.0</ele><time>2026-04-04T13:40:56Z</time></trkpt><trkpt lat="39.67149774334791" lon="8.824039416400426"><ele>103.0</ele><time>2026-04-04T13:40:57Z</time></trkpt><trkpt lat="39.67129551472657" lon="8.824021019661828"><ele>103.0</ele><time>2026-04-04T13:40:58Z</time></trkpt><trkpt lat="39.67109096667161" lon="8.824022561004936"><ele>103.0</ele><time>2026-04-04T13:40:59Z</time></trkpt><trkpt lat="39.670879224144905" lon="8.824041653269841"><ele>103.33333333333334</ele><time>2026-04-04T13:41:00Z</time></trkpt><trkpt lat="39.67066315218002" lon="8.824070535542372"><ele>103.66666666666666</ele><time>2026-04-04T13:41:01Z</time></trkpt><trkpt lat="39.67044390204519" lon="8.824117985313325"><ele>104.0</ele><time>2026-04-04T13:41:02Z</time></trkpt><trkpt lat="39.6702229068684" lon="8.82417422834455"><ele>104.33333333333333</ele><time>2026-04-04T13:41:03Z</time></trkpt><trkpt lat="39.67000265712751" lon="8.82422873090418"><ele>104.66666666666666</ele><time>2026-04-04T13:41:04Z</time></trkpt><trkpt lat="39.66978412730083" lon="8.824277650785982"><ele>105.0</ele><time>2026-04-04T13:41:05Z</time></trkpt><trkpt lat="39.66956842037485" lon="8.82432348246028"><ele>106.33333333333334</ele><time>2026-04-04T13:41:06Z</time></trkpt><trkpt lat="39.669353712827004" lon="8.824374521685925"><ele>107.66666666666667</ele><time>2026-04-04T13:41:07Z</time></trkpt><trkpt lat="39.66914699096957" lon="8.824438838410117"><ele>109.0</ele><time>2026-04-04T13:41:08Z</time></trkpt><trkpt lat="39.66894736672424" lon="8.824529506734878"><ele>109.0</ele><time>2026-04-04T13:41:09Z</time></trkpt><trkpt lat="39.66875078499484" lon="8.824648848167095"><ele>109.0</ele><time>2026-04-04T13:41:10Z</time></trkpt><trkpt lat="39.668558316012025" lon="8.824778980331844"><ele>109.0</ele><time>2026-04-04T13:41:11Z</time></trkpt><trkpt lat="39.66837726037462" lon="8.824934469730366"><ele>109.66666666666667</ele><time>2026-04-04T13:41:12Z</time></trkpt><trkpt lat="39.66820886531231" lon="8.825118256162785"><ele>110.33333333333334</ele><time>2026-04-04T13:41:13Z</time></trkpt><trkpt lat="39.668053134942895" lon="8.825321658352989"><ele>111.0</ele><time>2026-04-04T13:41:14Z</time></trkpt><trkpt lat="39.66790150947028" lon="8.82553208016033"><ele>112.66666666666666</ele><time>2026-04-04T13:41:15Z</time></trkpt><trkpt lat="39.66774993546518" lon="8.825743543884258"><ele>114.33333333333333</ele><time>2026-04-04T13:41:16Z</time></trkpt><trkpt lat="39.66760050770675" lon="8.82595337170671"><ele>116.0</ele><time>2026-04-04T13:41:17Z</time></trkpt><trkpt lat="39.667465028656146" lon="8.82617991017"><ele>116.0</ele><time>2026-04-04T13:41:18Z</time></trkpt><trkpt lat="39.66735872949866" lon="8.82643210325929"><ele>116.0</ele><time>2026-04-04T13:41:19Z</time></trkpt><trkpt lat="39.66728031923953" lon="8.826702645601241"><ele>116.0</ele><time>2026-04-04T13:41:20Z</time></trkpt><trkpt lat="39.667238191185085" lon="8.826979103088131"><ele>116.33333333333333</ele><time>2026-04-04T13:41:21Z</time></trkpt><trkpt lat="39.667222220262644" lon="8.827261293690185"><ele>116.66666666666666</ele><time>2026-04-04T13:41:22Z</time></trkpt><trkpt lat="39.66722493021436" lon="8.827539870011309"><ele>117.0</ele><time>2026-04-04T13:41:23Z</time></trkpt><trkpt lat="39.66721807613852" lon="8.8278116257325"><ele>118.33333333333334</ele><time>2026-04-04T13:41:24Z</time></trkpt><trkpt lat="39.667188844363466" lon="8.828077095848952"><ele>119.66666666666667</ele><time>2026-04-04T13:41:25Z</time></trkpt><trkpt lat="39.66713171505518" lon="8.828339113113222"><ele>121.0</ele><time>2026-04-04T13:41:26Z</time></trkpt><trkpt lat="39.66705696308277" lon="8.828591969028555"><ele>123.0</ele><time>2026-04-04T13:41:27.001Z</time></trkpt><trkpt lat="39.66694397104463" lon="8.828828639629583"><ele>125.0</ele><time>2026-04-04T13:41:28.001Z</time></trkpt><trkpt lat="39.6668063803955" lon="8.829041075868613"><ele>127.0</ele><time>2026-04-04T13:41:29.001Z</time></trkpt><trkpt lat="39.66665551539314" lon="8.829236722374484"><ele>130.0</ele><time>2026-04-04T13:41:30.001Z</time></trkpt><trkpt lat="39.666495348699705" lon="8.829430043846921"><ele>133.0</ele><time>2026-04-04T13:41:31.001Z</time></trkpt><trkpt lat="39.66635574057814" lon="8.8296288691057"><ele>136.0</ele><time>2026-04-04T13:41:32.001Z</time></trkpt><trkpt lat="39.66622215226443" lon="8.829802455257964"><ele>136.0</ele><time>2026-04-04T13:41:33Z</time></trkpt><trkpt lat="39.66611675735257" lon="8.829940134655889"><ele>136.0</ele><time>2026-04-04T13:41:34Z</time></trkpt><trkpt lat="39.666037621720506" lon="8.830059202940294"><ele>136.0</ele><time>2026-04-04T13:41:35Z</time></trkpt><trkpt lat="39.66596313985314" lon="8.83020091750021"><ele>136.0</ele><time>2026-04-04T13:41:36Z</time></trkpt><trkpt lat="39.665879886760926" lon="8.830307917033878"><ele>134.75</ele><time>2026-04-04T13:41:37Z</time></trkpt><trkpt lat="39.665813308001624" lon="8.830413635394487"><ele>133.5</ele><time>2026-04-04T13:41:38Z</time></trkpt><trkpt lat="39.66586871851637" lon="8.830661490896427"><ele>132.25</ele><time>2026-04-04T13:41:39Z</time></trkpt><trkpt lat="39.6658346333545" lon="8.83082162799689"><ele>131.0</ele><time>2026-04-04T13:41:40Z</time></trkpt><trkpt lat="39.665784858107514" lon="8.83096634040864"><ele>133.25</ele><time>2026-04-04T13:41:41Z</time></trkpt><trkpt lat="39.665722822699465" lon="8.83109766400455"><ele>135.5</ele><time>2026-04-04T13:41:42Z</time></trkpt><trkpt lat="39.66564188651648" lon="8.83120566935897"><ele>137.75</ele><time>2026-04-04T13:41:43Z</time></trkpt><trkpt lat="39.665547340916696" lon="8.831292762797812"><ele>140.0</ele><time>2026-04-04T13:41:44Z</time></trkpt><trkpt lat="39.66543242581304" lon="8.8313504592288"><ele>140.0</ele><time>2026-04-04T13:41:45Z</time></trkpt><trkpt lat="39.66529725155065" lon="8.831389704758815"><ele>140.0</ele><time>2026-04-04T13:41:46Z</time></trkpt><trkpt lat="39.665160234871635" lon="8.831433872694802"><ele>140.0</ele><time>2026-04-04T13:41:47Z</time></trkpt><trkpt lat="39.665014914909555" lon="8.831482901738315"><ele>140.0</ele><time>2026-04-04T13:41:48Z</time></trkpt><trkpt lat="39.66486483130778" lon="8.83153966256546"><ele>138.0</ele><time>2026-04-04T13:41:49Z</time></trkpt><trkpt lat="39.66470874637649" lon="8.831598227939436"><ele>136.0</ele><time>2026-04-04T13:41:50Z</time></trkpt><trkpt lat="39.6645477212444" lon="8.83165377733953"><ele>134.0</ele><time>2026-04-04T13:41:51Z</time></trkpt><trkpt lat="39.66437992557537" lon="8.831708269893122"><ele>134.0</ele><time>2026-04-04T13:41:52Z</time></trkpt><trkpt lat="39.66421158071028" lon="8.831766258646525"><ele>134.0</ele><time>2026-04-04T13:41:53Z</time></trkpt><trkpt lat="39.66403818797159" lon="8.831829849913046"><ele>134.0</ele><time>2026-04-04T13:41:54Z</time></trkpt><trkpt lat="39.6638653164086" lon="8.83188334242446"><ele>136.66666666666666</ele><time>2026-04-04T13:41:55Z</time></trkpt><trkpt lat="39.66370545428251" lon="8.831932262043658"><ele>139.33333333333334</ele><time>2026-04-04T13:41:56Z</time></trkpt><trkpt lat="39.663564200947" lon="8.831993403807244"><ele>142.0</ele><time>2026-04-04T13:41:57Z</time></trkpt><trkpt lat="39.66343786839652" lon="8.832072286985639"><ele>142.0</ele><time>2026-04-04T13:41:58Z</time></trkpt><trkpt lat="39.6633337088722" lon="8.832176211220926"><ele>142.0</ele><time>2026-04-04T13:41:59Z</time></trkpt><trkpt lat="39.66323561741333" lon="8.832308714834484"><ele>142.0</ele><time>2026-04-04T13:42:00Z</time></trkpt><trkpt lat="39.66314552162102" lon="8.832469894014741"><ele>142.0</ele><time>2026-04-04T13:42:01Z</time></trkpt><trkpt lat="39.663062186020504" lon="8.832648585553404"><ele>147.33333333333334</ele><time>2026-04-04T13:42:02Z</time></trkpt><trkpt lat="39.662984780379986" lon="8.832836377646514"><ele>152.66666666666666</ele><time>2026-04-04T13:42:03Z</time></trkpt><trkpt lat="39.66291024492741" lon="8.833026553196087"><ele>158.0</ele><time>2026-04-04T13:42:04Z</time></trkpt><trkpt lat="39.66283398979253" lon="8.83321446968051"><ele>154.25</ele><time>2026-04-04T13:42:05Z</time></trkpt><trkpt lat="39.66276766064412" lon="8.833404974540102"><ele>150.5</ele><time>2026-04-04T13:42:06Z</time></trkpt><trkpt lat="39.66272516486641" lon="8.833588544769846"><ele>146.75</ele><time>2026-04-04T13:42:07Z</time></trkpt><trkpt lat="39.662698253470026" lon="8.83376543514807"><ele>143.0</ele><time>2026-04-04T13:42:08Z</time></trkpt><trkpt lat="39.66269050762951" lon="8.833931193916827"><ele>142.75</ele><time>2026-04-04T13:42:09Z</time></trkpt><trkpt lat="39.66269031850454" lon="8.834099077546426"><ele>142.5</ele><time>2026-04-04T13:42:10Z</time></trkpt><trkpt lat="39.66270075185851" lon="8.834270138646808"><ele>142.25</ele><time>2026-04-04T13:42:11Z</time></trkpt><trkpt lat="39.662711183485904" lon="8.834443659630756"><ele>142.0</ele><time>2026-04-04T13:42:12Z</time></trkpt><trkpt lat="39.6627088192115" lon="8.834618074903906"><ele>143.0</ele><time>2026-04-04T13:42:13Z</time></trkpt><trkpt lat="39.66269904385495" lon="8.834794677283949"><ele>144.0</ele><time>2026-04-04T13:42:14Z</time></trkpt><trkpt lat="39.66267642803419" lon="8.834978313117217"><ele>145.0</ele><time>2026-04-04T13:42:15Z</time></trkpt><trkpt lat="39.66263792708478" lon="8.835160296066556"><ele>146.0</ele><time>2026-04-04T13:42:16Z</time></trkpt><trkpt lat="39.662580160407124" lon="8.835341974118453"><ele>148.0</ele><time>2026-04-04T13:42:17Z</time></trkpt><trkpt lat="39.66251766485505" lon="8.835522286706873"><ele>150.0</ele><time>2026-04-04T13:42:18Z</time></trkpt><trkpt lat="39.66245714807009" lon="8.835706638903677"><ele>152.0</ele><time>2026-04-04T13:42:19Z</time></trkpt><trkpt lat="39.66238974464942" lon="8.835873078714904"><ele>154.0</ele><time>2026-04-04T13:42:20Z</time></trkpt><trkpt lat="39.66230738978425" lon="8.836020711909452"><ele>156.0</ele><time>2026-04-04T13:42:21Z</time></trkpt><trkpt lat="39.66220411481604" lon="8.836145698667115"><ele>158.0</ele><time>2026-04-04T13:42:22Z</time></trkpt><trkpt lat="39.66208679200719" lon="8.836250754542228"><ele>160.0</ele><time>2026-04-04T13:42:23Z</time></trkpt><trkpt lat="39.66195539458637" lon="8.836339554762278"><ele>157.75</ele><time>2026-04-04T13:42:24Z</time></trkpt><trkpt lat="39.66181899950788" lon="8.836400423830824"><ele>155.5</ele><time>2026-04-04T13:42:25Z</time></trkpt><trkpt lat="39.661684718458815" lon="8.836464201158613"><ele>153.25</ele><time>2026-04-04T13:42:26Z</time></trkpt><trkpt lat="39.661551941714855" lon="8.836547354743242"><ele>151.0</ele><time>2026-04-04T13:42:27Z</time></trkpt><trkpt lat="39.66142377433526" lon="8.836650901008905"><ele>151.0</ele><time>2026-04-04T13:42:28Z</time></trkpt><trkpt lat="39.66130840148526" lon="8.83678183510559"><ele>151.0</ele><time>2026-04-04T13:42:29Z</time></trkpt><trkpt lat="39.66119089311158" lon="8.836925936519982"><ele>151.0</ele><time>2026-04-04T13:42:30Z</time></trkpt><trkpt lat="39.661076331301224" lon="8.837062347910468"><ele>151.75</ele><time>2026-04-04T13:42:31Z</time></trkpt><trkpt lat="39.66096556616637" lon="8.837197022765311"><ele>152.5</ele><time>2026-04-04T13:42:32Z</time></trkpt><trkpt lat="39.66085831950004" lon="8.83733104489935"><ele>153.25</ele><time>2026-04-04T13:42:33Z</time></trkpt><trkpt lat="39.660756767817944" lon="8.837462013167094"><ele>154.0</ele><time>2026-04-04T13:42:34Z</time></trkpt><trkpt lat="39.66065809809753" lon="8.837584157909271"><ele>154.4</ele><time>2026-04-04T13:42:35Z</time></trkpt><trkpt lat="39.66056368475053" lon="8.837690978290683"><ele>154.8</ele><time>2026-04-04T13:42:36Z</time></trkpt><trkpt lat="39.66047249604749" lon="8.837786907951598"><ele>155.2</ele><time>2026-04-04T13:42:37Z</time></trkpt><trkpt lat="39.660387600263334" lon="8.837868732139746"><ele>155.6</ele><time>2026-04-04T13:42:38Z</time></trkpt><trkpt lat="39.660309544198064" lon="8.8379314187154"><ele>156.0</ele><time>2026-04-04T13:42:39Z</time></trkpt><trkpt lat="39.66021257046007" lon="8.8379925687667"><ele>156.0</ele><time>2026-04-04T13:42:41Z</time></trkpt><trkpt lat="39.660149222583" lon="8.838016573536063"><ele>156.0</ele><time>2026-04-04T13:42:43Z</time></trkpt><trkpt lat="39.660144628767625" lon="8.838175648978874"><ele>156.0</ele><time>2026-04-04T13:42:46.001Z</time></trkpt><trkpt lat="39.66016643640594" lon="8.838252991049456"><ele>156.0</ele><time>2026-04-04T13:42:47.001Z</time></trkpt><trkpt lat="39.660177543388485" lon="8.83834783723886"><ele>156.0</ele><time>2026-04-04T13:42:48.001Z</time></trkpt><trkpt lat="39.660183610828234" lon="8.838465364470576"><ele>156.0</ele><time>2026-04-04T13:42:49.001Z</time></trkpt><trkpt lat="39.660190424214406" lon="8.838607423796303"><ele>157.25</ele><time>2026-04-04T13:42:50.001Z</time></trkpt><trkpt lat="39.66019718829545" lon="8.838773176660988"><ele>158.5</ele><time>2026-04-04T13:42:51.001Z</time></trkpt><trkpt lat="39.66021083202492" lon="8.838968708656207"><ele>159.75</ele><time>2026-04-04T13:42:52.001Z</time></trkpt><trkpt lat="39.660224101463946" lon="8.839159882353579"><ele>161.0</ele><time>2026-04-04T13:42:53.001Z</time></trkpt><trkpt lat="39.66023457891836" lon="8.839379086742426"><ele>162.0</ele><time>2026-04-04T13:42:54.001Z</time></trkpt><trkpt lat="39.66024277923298" lon="8.839610726181263"><ele>163.0</ele><time>2026-04-04T13:42:55.001Z</time></trkpt><trkpt lat="39.66025395436552" lon="8.839811053160664"><ele>164.0</ele><time>2026-04-04T13:42:56.001Z</time></trkpt><trkpt lat="39.66028591820393" lon="8.839995195656984"><ele>165.66666666666666</ele><time>2026-04-04T13:42:57.001Z</time></trkpt><trkpt lat="39.660343690337065" lon="8.840168013921865"><ele>167.33333333333334</ele><time>2026-04-04T13:42:58.001Z</time></trkpt><trkpt lat="39.66042950327204" lon="8.840329845588974"><ele>169.0</ele><time>2026-04-04T13:42:59.001Z</time></trkpt><trkpt lat="39.66054679014052" lon="8.84046047308677"><ele>169.0</ele><time>2026-04-04T13:43:00.001Z</time></trkpt><trkpt lat="39.6606791377375" lon="8.840569716292089"><ele>169.0</ele><time>2026-04-04T13:43:01.001Z</time></trkpt><trkpt lat="39.66080025984074" lon="8.840692686783377"><ele>169.0</ele><time>2026-04-04T13:43:02.001Z</time></trkpt><trkpt lat="39.66091035395841" lon="8.840830132821383"><ele>168.0</ele><time>2026-04-04T13:43:03.001Z</time></trkpt><trkpt lat="39.661017535626314" lon="8.840982261160264"><ele>167.0</ele><time>2026-04-04T13:43:04.001Z</time></trkpt><trkpt lat="39.66110901392794" lon="8.841137914053457"><ele>166.0</ele><time>2026-04-04T13:43:05.001Z</time></trkpt><trkpt lat="39.6612023988372" lon="8.84130104995084"><ele>171.0</ele><time>2026-04-04T13:43:06.001Z</time></trkpt><trkpt lat="39.66128346467376" lon="8.841476740036095"><ele>176.0</ele><time>2026-04-04T13:43:07.001Z</time></trkpt><trkpt lat="39.66134127306284" lon="8.841671432060235"><ele>181.0</ele><time>2026-04-04T13:43:08.001Z</time></trkpt><trkpt lat="39.661369903455814" lon="8.84187865513958"><ele>181.66666666666669</ele><time>2026-04-04T13:43:09.001Z</time></trkpt><trkpt lat="39.66138276328688" lon="8.842089506579644"><ele>182.33333333333334</ele><time>2026-04-04T13:43:10.001Z</time></trkpt><trkpt lat="39.66138784069153" lon="8.84230706007809"><ele>183.0</ele><time>2026-04-04T13:43:11.001Z</time></trkpt><trkpt lat="39.661391179406046" lon="8.842512871525068"><ele>183.0</ele><time>2026-04-04T13:43:12.001Z</time></trkpt><trkpt lat="39.6613909899471" lon="8.842717767725684"><ele>183.0</ele><time>2026-04-04T13:43:13.001Z</time></trkpt><trkpt lat="39.66139201073687" lon="8.842938721488748"><ele>183.0</ele><time>2026-04-04T13:43:14.001Z</time></trkpt><trkpt lat="39.661400038676035" lon="8.843156221816278"><ele>183.0</ele><time>2026-04-04T13:43:15.001Z</time></trkpt><trkpt lat="39.661430003883495" lon="8.843375416560713"><ele>183.0</ele><time>2026-04-04T13:43:16.001Z</time></trkpt><trkpt lat="39.661477023946745" lon="8.843593288097692"><ele>183.0</ele><time>2026-04-04T13:43:17.001Z</time></trkpt><trkpt lat="39.66152170635782" lon="8.843815575487096"><ele>180.66666666666666</ele><time>2026-04-04T13:43:18.001Z</time></trkpt><trkpt lat="39.66156276023447" lon="8.84404042722162"><ele>178.33333333333331</ele><time>2026-04-04T13:43:19.001Z</time></trkpt><trkpt lat="39.66160079651546" lon="8.844260333744021"><ele>176.0</ele><time>2026-04-04T13:43:20.001Z</time></trkpt><trkpt lat="39.66162211754021" lon="8.844467120937097"><ele>176.33333333333331</ele><time>2026-04-04T13:43:21.001Z</time></trkpt><trkpt lat="39.66161463490959" lon="8.844681640716729"><ele>176.66666666666666</ele><time>2026-04-04T13:43:22.001Z</time></trkpt><trkpt lat="39.66158873829778" lon="8.844902151313795"><ele>177.0</ele><time>2026-04-04T13:43:23.001Z</time></trkpt><trkpt lat="39.66158520925569" lon="8.845130240412784"><ele>177.0</ele><time>2026-04-04T13:43:24.001Z</time></trkpt><trkpt lat="39.66160807685038" lon="8.84536021502024"><ele>177.0</ele><time>2026-04-04T13:43:25.001Z</time></trkpt><trkpt lat="39.661634592781425" lon="8.845582330484689"><ele>177.0</ele><time>2026-04-04T13:43:26.001Z</time></trkpt><trkpt lat="39.66167325358708" lon="8.845783221032336"><ele>180.0</ele><time>2026-04-04T13:43:27.001Z</time></trkpt><trkpt lat="39.66168113975555" lon="8.84598991630557"><ele>183.0</ele><time>2026-04-04T13:43:28.001Z</time></trkpt><trkpt lat="39.6616614941442" lon="8.84620027053351"><ele>186.0</ele><time>2026-04-04T13:43:29.001Z</time></trkpt><trkpt lat="39.66161765659944" lon="8.846402490937079"><ele>186.0</ele><time>2026-04-04T13:43:30.001Z</time></trkpt><trkpt lat="39.661548048960775" lon="8.846591458612593"><ele>186.0</ele><time>2026-04-04T13:43:31.001Z</time></trkpt><trkpt lat="39.66146008529139" lon="8.846762264171563"><ele>186.0</ele><time>2026-04-04T13:43:32.001Z</time></trkpt><trkpt lat="39.66134657558267" lon="8.846910032921754"><ele>185.66666666666666</ele><time>2026-04-04T13:43:33.001Z</time></trkpt><trkpt lat="39.661208772940135" lon="8.847039266322362"><ele>185.33333333333331</ele><time>2026-04-04T13:43:34.001Z</time></trkpt><trkpt lat="39.66106098656033" lon="8.847164708617846"><ele>185.0</ele><time>2026-04-04T13:43:35.001Z</time></trkpt><trkpt lat="39.66092122988515" lon="8.847300265072084"><ele>185.0</ele><time>2026-04-04T13:43:36.001Z</time></trkpt><trkpt lat="39.66077540357784" lon="8.847437538963343"><ele>185.0</ele><time>2026-04-04T13:43:37.001Z</time></trkpt><trkpt lat="39.66063251786173" lon="8.847576822808534"><ele>185.0</ele><time>2026-04-04T13:43:38.001Z</time></trkpt><trkpt lat="39.660483439163194" lon="8.847719378372389"><ele>185.66666666666666</ele><time>2026-04-04T13:43:39Z</time></trkpt><trkpt lat="39.66033648315005" lon="8.847862876944674"><ele>186.33333333333334</ele><time>2026-04-04T13:43:40Z</time></trkpt><trkpt lat="39.660189022885156" lon="8.848001251951091"><ele>187.0</ele><time>2026-04-04T13:43:41Z</time></trkpt><trkpt lat="39.66003570356778" lon="8.848129786366474"><ele>187.0</ele><time>2026-04-04T13:43:42Z</time></trkpt><trkpt lat="39.65987756641072" lon="8.848247444636353"><ele>187.0</ele><time>2026-04-04T13:43:43Z</time></trkpt><trkpt lat="39.65972422925038" lon="8.848363838174448"><ele>187.0</ele><time>2026-04-04T13:43:44Z</time></trkpt><trkpt lat="39.659567970613125" lon="8.848478809636585"><ele>189.0</ele><time>2026-04-04T13:43:45Z</time></trkpt><trkpt lat="39.65941174006172" lon="8.84860663955637"><ele>191.0</ele><time>2026-04-04T13:43:46Z</time></trkpt><trkpt lat="39.65925766310236" lon="8.848725816993651"><ele>193.0</ele><time>2026-04-04T13:43:47Z</time></trkpt><trkpt lat="39.65910370987391" lon="8.848848195707907"><ele>193.0</ele><time>2026-04-04T13:43:48Z</time></trkpt><trkpt lat="39.65895735511164" lon="8.848982124342358"><ele>193.0</ele><time>2026-04-04T13:43:49Z</time></trkpt><trkpt lat="39.65882268035877" lon="8.849142210810156"><ele>193.0</ele><time>2026-04-04T13:43:50Z</time></trkpt><trkpt lat="39.658706550371875" lon="8.849316394077443"><ele>191.0</ele><time>2026-04-04T13:43:51Z</time></trkpt><trkpt lat="39.65860484324447" lon="8.849509404889352"><ele>189.0</ele><time>2026-04-04T13:43:52Z</time></trkpt><trkpt lat="39.65851978967228" lon="8.849728153941335"><ele>187.0</ele><time>2026-04-04T13:43:53Z</time></trkpt><trkpt lat="39.658447429351156" lon="8.849958564041716"><ele>188.33333333333334</ele><time>2026-04-04T13:43:54Z</time></trkpt><trkpt lat="39.658383685482626" lon="8.850199109376826"><ele>189.66666666666666</ele><time>2026-04-04T13:43:55Z</time></trkpt><trkpt lat="39.658343836643695" lon="8.850450123494694"><ele>191.0</ele><time>2026-04-04T13:43:56Z</time></trkpt><trkpt lat="39.65833026931193" lon="8.850699764154886"><ele>190.33333333333331</ele><time>2026-04-04T13:43:57Z</time></trkpt><trkpt lat="39.65833356043351" lon="8.85096138277632"><ele>189.66666666666666</ele><time>2026-04-04T13:43:58Z</time></trkpt><trkpt lat="39.65833437196371" lon="8.851214053911963"><ele>189.0</ele><time>2026-04-04T13:43:59Z</time></trkpt><trkpt lat="39.658324835417986" lon="8.851464521598512"><ele>189.0</ele><time>2026-04-04T13:44:00Z</time></trkpt><trkpt lat="39.658303627016515" lon="8.85171052150559"><ele>189.0</ele><time>2026-04-04T13:44:01Z</time></trkpt><trkpt lat="39.658263050320656" lon="8.851957146128251"><ele>189.0</ele><time>2026-04-04T13:44:02Z</time></trkpt><trkpt lat="39.658201971629836" lon="8.8521965843817"><ele>190.66666666666669</ele><time>2026-04-04T13:44:03Z</time></trkpt><trkpt lat="39.658117975815685" lon="8.852424348753912"><ele>192.33333333333334</ele><time>2026-04-04T13:44:04Z</time></trkpt><trkpt lat="39.65801933962821" lon="8.852646836264775"><ele>194.0</ele><time>2026-04-04T13:44:05Z</time></trkpt><trkpt lat="39.65791520628801" lon="8.852870109054095"><ele>193.33333333333334</ele><time>2026-04-04T13:44:06Z</time></trkpt><trkpt lat="39.65781140083365" lon="8.853095984659076"><ele>192.66666666666669</ele><time>2026-04-04T13:44:07Z</time></trkpt><trkpt lat="39.65770552015233" lon="8.853329757753057"><ele>192.0</ele><time>2026-04-04T13:44:08Z</time></trkpt><trkpt lat="39.65759685280825" lon="8.853559636985528"><ele>192.0</ele><time>2026-04-04T13:44:09Z</time></trkpt><trkpt lat="39.6574833068976" lon="8.853791838828354"><ele>192.0</ele><time>2026-04-04T13:44:10Z</time></trkpt><trkpt lat="39.657372906332654" lon="8.854025119331027"><ele>192.0</ele><time>2026-04-04T13:44:11Z</time></trkpt><trkpt lat="39.65725988889545" lon="8.854264812522189"><ele>191.66666666666666</ele><time>2026-04-04T13:44:12Z</time></trkpt><trkpt lat="39.6571434990387" lon="8.85450253101903"><ele>191.33333333333331</ele><time>2026-04-04T13:44:13Z</time></trkpt><trkpt lat="39.65701788697205" lon="8.854733291699956"><ele>191.0</ele><time>2026-04-04T13:44:14Z</time></trkpt><trkpt lat="39.656877079621175" lon="8.8549509626522"><ele>192.33333333333331</ele><time>2026-04-04T13:44:15Z</time></trkpt><trkpt lat="39.656731325988005" lon="8.85515941085594"><ele>193.66666666666666</ele><time>2026-04-04T13:44:16Z</time></trkpt><trkpt lat="39.656586563588164" lon="8.855370383036773"><ele>195.0</ele><time>2026-04-04T13:44:17Z</time></trkpt><trkpt lat="39.656444841377336" lon="8.855583890643592"><ele>195.0</ele><time>2026-04-04T13:44:18Z</time></trkpt><trkpt lat="39.6563065783883" lon="8.855797179129556"><ele>195.0</ele><time>2026-04-04T13:44:19Z</time></trkpt><trkpt lat="39.65616760169986" lon="8.856007418179907"><ele>195.0</ele><time>2026-04-04T13:44:20Z</time></trkpt><trkpt lat="39.65602758892657" lon="8.856221409403656"><ele>194.66666666666669</ele><time>2026-04-04T13:44:21Z</time></trkpt><trkpt lat="39.655889871616154" lon="8.856438562546858"><ele>194.33333333333334</ele><time>2026-04-04T13:44:22Z</time></trkpt><trkpt lat="39.65575685355766" lon="8.856664445959256"><ele>194.0</ele><time>2026-04-04T13:44:23Z</time></trkpt><trkpt lat="39.65563030209655" lon="8.856895356750307"><ele>194.33333333333334</ele><time>2026-04-04T13:44:24Z</time></trkpt><trkpt lat="39.655501592275826" lon="8.85712473288677"><ele>194.66666666666669</ele><time>2026-04-04T13:44:25Z</time></trkpt><trkpt lat="39.65536855674736" lon="8.85734741539854"><ele>195.0</ele><time>2026-04-04T13:44:26Z</time></trkpt><trkpt lat="39.65523917600958" lon="8.857560480761078"><ele>196.66666666666669</ele><time>2026-04-04T13:44:27Z</time></trkpt><trkpt lat="39.65511452307408" lon="8.857771250296487"><ele>198.33333333333334</ele><time>2026-04-04T13:44:28Z</time></trkpt><trkpt lat="39.655003264350846" lon="8.857974914248587"><ele>200.0</ele><time>2026-04-04T13:44:29Z</time></trkpt><trkpt lat="39.65490924200197" lon="8.858176813752516"><ele>200.0</ele><time>2026-04-04T13:44:30Z</time></trkpt><trkpt lat="39.65483523677265" lon="8.858386731343893"><ele>200.0</ele><time>2026-04-04T13:44:31Z</time></trkpt><trkpt lat="39.65479294175035" lon="8.858612083151186"><ele>200.0</ele><time>2026-04-04T13:44:32Z</time></trkpt><trkpt lat="39.65478621304304" lon="8.858851356165557"><ele>201.0</ele><time>2026-04-04T13:44:33Z</time></trkpt><trkpt lat="39.654806236826914" lon="8.859093485228495"><ele>202.0</ele><time>2026-04-04T13:44:34Z</time></trkpt><trkpt lat="39.65482690476116" lon="8.859335057254958"><ele>203.0</ele><time>2026-04-04T13:44:35Z</time></trkpt><trkpt lat="39.6548323185508" lon="8.859577378797614"><ele>205.0</ele><time>2026-04-04T13:44:36Z</time></trkpt><trkpt lat="39.65482222359662" lon="8.859821099719161"><ele>207.0</ele><time>2026-04-04T13:44:37Z</time></trkpt><trkpt lat="39.654807596003046" lon="8.86006603954726"><ele>209.0</ele><time>2026-04-04T13:44:38Z</time></trkpt><trkpt lat="39.6547870524783" lon="8.860315915697765"><ele>209.33333333333334</ele><time>2026-04-04T13:44:39Z</time></trkpt><trkpt lat="39.65476800334154" lon="8.860564817290543"><ele>209.66666666666669</ele><time>2026-04-04T13:44:40Z</time></trkpt><trkpt lat="39.6547529308821" lon="8.860810169571785"><ele>210.0</ele><time>2026-04-04T13:44:41Z</time></trkpt><trkpt lat="39.6547340133431" lon="8.861058371013053"><ele>209.33333333333331</ele><time>2026-04-04T13:44:42Z</time></trkpt><trkpt lat="39.654700149222" lon="8.861304602593856"><ele>208.66666666666666</ele><time>2026-04-04T13:44:43Z</time></trkpt><trkpt lat="39.654650385479634" lon="8.86154159943879"><ele>208.0</ele><time>2026-04-04T13:44:44Z</time></trkpt><trkpt lat="39.65458675033326" lon="8.861770982819309"><ele>209.0</ele><time>2026-04-04T13:44:45Z</time></trkpt><trkpt lat="39.65451663435477" lon="8.86199428410462"><ele>210.0</ele><time>2026-04-04T13:44:46Z</time></trkpt><trkpt lat="39.654436887346954" lon="8.86220935525052"><ele>211.0</ele><time>2026-04-04T13:44:47Z</time></trkpt><trkpt lat="39.654348695535845" lon="8.86241484874169"><ele>210.66666666666666</ele><time>2026-04-04T13:44:48Z</time></trkpt><trkpt lat="39.654256261814545" lon="8.86261855678792"><ele>210.33333333333331</ele><time>2026-04-04T13:44:49Z</time></trkpt><trkpt lat="39.65416392844431" lon="8.862820590145983"><ele>210.0</ele><time>2026-04-04T13:44:50Z</time></trkpt><trkpt lat="39.654073425285894" lon="8.863022586471418"><ele>210.0</ele><time>2026-04-04T13:44:51Z</time></trkpt><trkpt lat="39.65398554072705" lon="8.863223652989136"><ele>210.0</ele><time>2026-04-04T13:44:52Z</time></trkpt><trkpt lat="39.65389527572487" lon="8.86342293547873"><ele>210.0</ele><time>2026-04-04T13:44:53Z</time></trkpt><trkpt lat="39.65380360708335" lon="8.863617033115853"><ele>210.66666666666669</ele><time>2026-04-04T13:44:54Z</time></trkpt><trkpt lat="39.653723982697684" lon="8.863824318295261"><ele>211.33333333333334</ele><time>2026-04-04T13:44:55Z</time></trkpt><trkpt lat="39.65366540090888" lon="8.864051371361047"><ele>212.0</ele><time>2026-04-04T13:44:56Z</time></trkpt><trkpt lat="39.653631325393235" lon="8.864289553034013"><ele>210.66666666666669</ele><time>2026-04-04T13:44:57Z</time></trkpt><trkpt lat="39.65360656556648" lon="8.864532922971417"><ele>209.33333333333331</ele><time>2026-04-04T13:44:58Z</time></trkpt><trkpt lat="39.65358987590423" lon="8.864781280243607"><ele>208.0</ele><time>2026-04-04T13:44:59Z</time></trkpt><trkpt lat="39.65357232300005" lon="8.865031175355684"><ele>209.0</ele><time>2026-04-04T13:45:00Z</time></trkpt><trkpt lat="39.65355328514791" lon="8.865279080419672"><ele>210.0</ele><time>2026-04-04T13:45:01Z</time></trkpt><trkpt lat="39.65353354591875" lon="8.865528968958294"><ele>211.0</ele><time>2026-04-04T13:45:02Z</time></trkpt><trkpt lat="39.65351530929641" lon="8.865769530082867"><ele>212.33333333333331</ele><time>2026-04-04T13:45:03Z</time></trkpt><trkpt lat="39.653499768544904" lon="8.866007187799072"><ele>213.66666666666669</ele><time>2026-04-04T13:45:04Z</time></trkpt><trkpt lat="39.653484033583275" lon="8.866239747563764"><ele>215.0</ele><time>2026-04-04T13:45:05Z</time></trkpt><trkpt lat="39.653468177418524" lon="8.866466507750705"><ele>215.0</ele><time>2026-04-04T13:45:06Z</time></trkpt><trkpt lat="39.653451010850105" lon="8.866696272131325"><ele>215.0</ele><time>2026-04-04T13:45:07Z</time></trkpt><trkpt lat="39.65343206757172" lon="8.866921515404519"><ele>215.0</ele><time>2026-04-04T13:45:08Z</time></trkpt><trkpt lat="39.653413520888954" lon="8.867151534382607"><ele>215.66666666666669</ele><time>2026-04-04T13:45:09Z</time></trkpt><trkpt lat="39.65339615108796" lon="8.86737863623485"><ele>216.33333333333331</ele><time>2026-04-04T13:45:10Z</time></trkpt><trkpt lat="39.653380261938025" lon="8.86761037567038"><ele>217.0</ele><time>2026-04-04T13:45:11Z</time></trkpt><trkpt lat="39.653363536279095" lon="8.867833891410202"><ele>217.33333333333331</ele><time>2026-04-04T13:45:12Z</time></trkpt><trkpt lat="39.653342827670144" lon="8.868055774704727"><ele>217.66666666666669</ele><time>2026-04-04T13:45:13Z</time></trkpt><trkpt lat="39.65331220345142" lon="8.868272218453113"><ele>218.0</ele><time>2026-04-04T13:45:14Z</time></trkpt><trkpt lat="39.653270028265325" lon="8.86848298207823"><ele>218.0</ele><time>2026-04-04T13:45:15Z</time></trkpt><trkpt lat="39.65323127668042" lon="8.868694434279917"><ele>218.0</ele><time>2026-04-04T13:45:16Z</time></trkpt><trkpt lat="39.653193602431124" lon="8.868911286024042"><ele>218.0</ele><time>2026-04-04T13:45:17Z</time></trkpt><trkpt lat="39.65315793671197" lon="8.869129653417222"><ele>217.33333333333334</ele><time>2026-04-04T13:45:18Z</time></trkpt><trkpt lat="39.65312579457269" lon="8.869348185781828"><ele>216.66666666666669</ele><time>2026-04-04T13:45:19Z</time></trkpt><trkpt lat="39.65309151966841" lon="8.86956104046584"><ele>216.0</ele><time>2026-04-04T13:45:20Z</time></trkpt><trkpt lat="39.6530548950492" lon="8.869764599538943"><ele>216.0</ele><time>2026-04-04T13:45:21Z</time></trkpt><trkpt lat="39.65300972371878" lon="8.869957320401133"><ele>216.0</ele><time>2026-04-04T13:45:22Z</time></trkpt><trkpt lat="39.652950973260154" lon="8.870127750859453"><ele>216.0</ele><time>2026-04-04T13:45:23Z</time></trkpt><trkpt lat="39.65288690472652" lon="8.870291418863905"><ele>216.0</ele><time>2026-04-04T13:45:24Z</time></trkpt><trkpt lat="39.65281226821384" lon="8.87044782384062"><ele>216.33333333333331</ele><time>2026-04-04T13:45:25Z</time></trkpt><trkpt lat="39.65271802013164" lon="8.870598138187088"><ele>216.66666666666666</ele><time>2026-04-04T13:45:26Z</time></trkpt><trkpt lat="39.6526108955481" lon="8.870736013256511"><ele>217.0</ele><time>2026-04-04T13:45:27Z</time></trkpt><trkpt lat="39.652495451483276" lon="8.87086848420102"><ele>218.33333333333331</ele><time>2026-04-04T13:45:28Z</time></trkpt><trkpt lat="39.652379999172304" lon="8.87100917195069"><ele>219.66666666666669</ele><time>2026-04-04T13:45:29Z</time></trkpt><trkpt lat="39.65226039861328" lon="8.87115221367996"><ele>221.0</ele><time>2026-04-04T13:45:30Z</time></trkpt><trkpt lat="39.65213922407829" lon="8.871298841508473"><ele>221.0</ele><time>2026-04-04T13:45:31Z</time></trkpt><trkpt lat="39.65201851994621" lon="8.871448736008297"><ele>221.0</ele><time>2026-04-04T13:45:32Z</time></trkpt><trkpt lat="39.651892200058064" lon="8.871606015211885"><ele>221.0</ele><time>2026-04-04T13:45:33Z</time></trkpt><trkpt lat="39.651768366074414" lon="8.871773782588038"><ele>220.66666666666669</ele><time>2026-04-04T13:45:34Z</time></trkpt><trkpt lat="39.65165977908405" lon="8.871963712819111"><ele>220.33333333333331</ele><time>2026-04-04T13:45:35Z</time></trkpt><trkpt lat="39.651562062969475" lon="8.872168886351044"><ele>220.0</ele><time>2026-04-04T13:45:36Z</time></trkpt><trkpt lat="39.651462499264284" lon="8.872378562849695"><ele>220.0</ele><time>2026-04-04T13:45:37Z</time></trkpt><trkpt lat="39.65135883454695" lon="8.872591486861934"><ele>220.0</ele><time>2026-04-04T13:45:38Z</time></trkpt><trkpt lat="39.65125399656419" lon="8.872807606254856"><ele>220.0</ele><time>2026-04-04T13:45:39Z</time></trkpt><trkpt lat="39.65115440594508" lon="8.873024827443508"><ele>219.66666666666666</ele><time>2026-04-04T13:45:40Z</time></trkpt><trkpt lat="39.651061522278965" lon="8.87325341066148"><ele>219.33333333333331</ele><time>2026-04-04T13:45:41Z</time></trkpt><trkpt lat="39.6509756268785" lon="8.873483714256125"><ele>219.0</ele><time>2026-04-04T13:45:42Z</time></trkpt><trkpt lat="39.65089463302076" lon="8.873715313485643"><ele>219.66666666666669</ele><time>2026-04-04T13:45:43Z</time></trkpt><trkpt lat="39.65080946786567" lon="8.873943315977861"><ele>220.33333333333334</ele><time>2026-04-04T13:45:44Z</time></trkpt><trkpt lat="39.65072643917022" lon="8.874163280006703"><ele>221.0</ele><time>2026-04-04T13:45:45Z</time></trkpt><trkpt lat="39.65064670967693" lon="8.874375708874108"><ele>221.33333333333334</ele><time>2026-04-04T13:45:46Z</time></trkpt><trkpt lat="39.6505739006355" lon="8.874581088406366"><ele>221.66666666666669</ele><time>2026-04-04T13:45:47Z</time></trkpt><trkpt lat="39.65050585667999" lon="8.87479151362099"><ele>222.0</ele><time>2026-04-04T13:45:48Z</time></trkpt><trkpt lat="39.6504527810445" lon="8.875009412263562"><ele>222.66666666666669</ele><time>2026-04-04T13:45:49Z</time></trkpt><trkpt lat="39.65041801655745" lon="8.875245747543238"><ele>223.33333333333334</ele><time>2026-04-04T13:45:50Z</time></trkpt><trkpt lat="39.650393181614746" lon="8.875490902079502"><ele>224.0</ele><time>2026-04-04T13:45:51Z</time></trkpt><trkpt lat="39.65037766829891" lon="8.875734451098587"><ele>224.33333333333334</ele><time>2026-04-04T13:45:52Z</time></trkpt><trkpt lat="39.650371086208125" lon="8.87596950959598"><ele>224.66666666666669</ele><time>2026-04-04T13:45:53Z</time></trkpt><trkpt lat="39.65037207273773" lon="8.876200457109853"><ele>225.0</ele><time>2026-04-04T13:45:54Z</time></trkpt><trkpt lat="39.65037206298613" lon="8.876425568374511"><ele>225.0</ele><time>2026-04-04T13:45:55Z</time></trkpt><trkpt lat="39.65037245493599" lon="8.87664892809717"><ele>225.0</ele><time>2026-04-04T13:45:56Z</time></trkpt><trkpt lat="39.65039343946074" lon="8.876869071341456"><ele>225.0</ele><time>2026-04-04T13:45:57Z</time></trkpt><trkpt lat="39.65044301139424" lon="8.87709072764295"><ele>225.33333333333331</ele><time>2026-04-04T13:45:58Z</time></trkpt><trkpt lat="39.65051214146304" lon="8.877309457728282"><ele>225.66666666666666</ele><time>2026-04-04T13:45:59Z</time></trkpt><trkpt lat="39.65057533822318" lon="8.877524513288343"><ele>226.0</ele><time>2026-04-04T13:46:00Z</time></trkpt><trkpt lat="39.65062482143644" lon="8.877740102235865"><ele>226.33333333333331</ele><time>2026-04-04T13:46:01Z</time></trkpt><trkpt lat="39.65066529720631" lon="8.8779577057988"><ele>226.66666666666669</ele><time>2026-04-04T13:46:02Z</time></trkpt><trkpt lat="39.650693213829705" lon="8.878177969021397"><ele>227.0</ele><time>2026-04-04T13:46:03Z</time></trkpt><trkpt lat="39.65069717786886" lon="8.878402264880906"><ele>226.66666666666669</ele><time>2026-04-04T13:46:04Z</time></trkpt><trkpt lat="39.65068386996752" lon="8.878627460156357"><ele>226.33333333333331</ele><time>2026-04-04T13:46:05Z</time></trkpt><trkpt lat="39.65066128091252" lon="8.878855526216574"><ele>226.0</ele><time>2026-04-04T13:46:06Z</time></trkpt><trkpt lat="39.65063868374605" lon="8.87908772694779"><ele>226.66666666666666</ele><time>2026-04-04T13:46:07Z</time></trkpt><trkpt lat="39.65061878835943" lon="8.879323806023015"><ele>227.33333333333331</ele><time>2026-04-04T13:46:08Z</time></trkpt><trkpt lat="39.6506047785667" lon="8.879551124008627"><ele>228.0</ele><time>2026-04-04T13:46:09Z</time></trkpt><trkpt lat="39.650588433804295" lon="8.87979375208792"><ele>228.0</ele><time>2026-04-04T13:46:10Z</time></trkpt><trkpt lat="39.65057175892021" lon="8.88003907996298"><ele>228.0</ele><time>2026-04-04T13:46:11Z</time></trkpt><trkpt lat="39.650552831029366" lon="8.880285381025686"><ele>228.0</ele><time>2026-04-04T13:46:12Z</time></trkpt><trkpt lat="39.650533983702374" lon="8.880533453721377"><ele>228.33333333333331</ele><time>2026-04-04T13:46:13Z</time></trkpt><trkpt lat="39.650514810671574" lon="8.880782640236959"><ele>228.66666666666666</ele><time>2026-04-04T13:46:14Z</time></trkpt><trkpt lat="39.65049448906477" lon="8.881035930456846"><ele>229.0</ele><time>2026-04-04T13:46:15Z</time></trkpt><trkpt lat="39.65047445449947" lon="8.881291561081234"><ele>229.0</ele><time>2026-04-04T13:46:16Z</time></trkpt><trkpt lat="39.65045379719071" lon="8.881548759722476"><ele>229.0</ele><time>2026-04-04T13:46:17Z</time></trkpt><trkpt lat="39.650437913785524" lon="8.88180848305119"><ele>229.0</ele><time>2026-04-04T13:46:18Z</time></trkpt><trkpt lat="39.65042294953324" lon="8.882069121145449"><ele>228.66666666666666</ele><time>2026-04-04T13:46:19Z</time></trkpt><trkpt lat="39.65040295851086" lon="8.88233263596636"><ele>228.33333333333331</ele><time>2026-04-04T13:46:20Z</time></trkpt><trkpt lat="39.650380262326415" lon="8.882598032796553"><ele>228.0</ele><time>2026-04-04T13:46:21Z</time></trkpt><trkpt lat="39.65035788326805" lon="8.882865390668774"><ele>227.66666666666669</ele><time>2026-04-04T13:46:22Z</time></trkpt><trkpt lat="39.650338879915495" lon="8.883117383556753"><ele>227.33333333333334</ele><time>2026-04-04T13:46:23Z</time></trkpt><trkpt lat="39.650319216848494" lon="8.883360419682955"><ele>227.0</ele><time>2026-04-04T13:46:24Z</time></trkpt><trkpt lat="39.65029342847575" lon="8.883597465607382"><ele>224.66666666666669</ele><time>2026-04-04T13:46:25Z</time></trkpt><trkpt lat="39.650258258822575" lon="8.883831522550617"><ele>222.33333333333331</ele><time>2026-04-04T13:46:26Z</time></trkpt><trkpt lat="39.6502160020606" lon="8.884060584683336"><ele>220.0</ele><time>2026-04-04T13:46:27Z</time></trkpt><trkpt lat="39.65016959295127" lon="8.884286743768303"><ele>217.66666666666666</ele><time>2026-04-04T13:46:28Z</time></trkpt><trkpt lat="39.65012159535959" lon="8.884511531308178"><ele>215.33333333333331</ele><time>2026-04-04T13:46:29Z</time></trkpt><trkpt lat="39.65007473871741" lon="8.884735518832686"><ele>213.0</ele><time>2026-04-04T13:46:30Z</time></trkpt><trkpt lat="39.65002833026361" lon="8.884951176698108"><ele>211.0</ele><time>2026-04-04T13:46:31Z</time></trkpt><trkpt lat="39.64998376177878" lon="8.885167634456094"><ele>209.0</ele><time>2026-04-04T13:46:32Z</time></trkpt><trkpt lat="39.6499345681616" lon="8.885382524579251"><ele>207.0</ele><time>2026-04-04T13:46:33Z</time></trkpt><trkpt lat="39.649888050379495" lon="8.88558958135029"><ele>207.0</ele><time>2026-04-04T13:46:34Z</time></trkpt><trkpt lat="39.64984007589379" lon="8.88579700089802"><ele>207.0</ele><time>2026-04-04T13:46:35Z</time></trkpt><trkpt lat="39.649793358101526" lon="8.886001588294146"><ele>207.0</ele><time>2026-04-04T13:46:36Z</time></trkpt><trkpt lat="39.64974483152116" lon="8.886201573828775"><ele>205.33333333333331</ele><time>2026-04-04T13:46:37Z</time></trkpt><trkpt lat="39.64969406827016" lon="8.886407205981678"><ele>203.66666666666666</ele><time>2026-04-04T13:46:38Z</time></trkpt><trkpt lat="39.64963936148462" lon="8.886613674181723"><ele>202.0</ele><time>2026-04-04T13:46:39Z</time></trkpt><trkpt lat="39.649582523253905" lon="8.886825674696727"><ele>201.66666666666666</ele><time>2026-04-04T13:46:40Z</time></trkpt><trkpt lat="39.649520781407205" lon="8.887041085976232"><ele>201.33333333333331</ele><time>2026-04-04T13:46:41Z</time></trkpt><trkpt lat="39.6494578029429" lon="8.887256734512095"><ele>201.0</ele><time>2026-04-04T13:46:42Z</time></trkpt><trkpt lat="39.64939306762714" lon="8.887474791548314"><ele>199.66666666666669</ele><time>2026-04-04T13:46:43Z</time></trkpt><trkpt lat="39.64932989898591" lon="8.887695468454577"><ele>198.33333333333334</ele><time>2026-04-04T13:46:44Z</time></trkpt><trkpt lat="39.64926786105883" lon="8.887917572440553"><ele>197.0</ele><time>2026-04-04T13:46:45Z</time></trkpt><trkpt lat="39.64920255644084" lon="8.888140530780293"><ele>197.0</ele><time>2026-04-04T13:46:46Z</time></trkpt><trkpt lat="39.64913877927543" lon="8.888362024711755"><ele>197.0</ele><time>2026-04-04T13:46:47Z</time></trkpt><trkpt lat="39.64907220843276" lon="8.888584607904384"><ele>197.0</ele><time>2026-04-04T13:46:48Z</time></trkpt><trkpt lat="39.649007030938336" lon="8.88880738209998"><ele>196.0</ele><time>2026-04-04T13:46:49Z</time></trkpt><trkpt lat="39.64894444796816" lon="8.889030543982456"><ele>195.0</ele><time>2026-04-04T13:46:50Z</time></trkpt><trkpt lat="39.64889008743755" lon="8.889260431370012"><ele>194.0</ele><time>2026-04-04T13:46:51Z</time></trkpt><trkpt lat="39.64884198319868" lon="8.889488568868469"><ele>193.66666666666669</ele><time>2026-04-04T13:46:52Z</time></trkpt><trkpt lat="39.648800541769546" lon="8.889721452795945"><ele>193.33333333333331</ele><time>2026-04-04T13:46:53Z</time></trkpt><trkpt lat="39.6487674280951" lon="8.8899558423723"><ele>193.0</ele><time>2026-04-04T13:46:54Z</time></trkpt><trkpt lat="39.648738792446416" lon="8.890193312355512"><ele>193.66666666666666</ele><time>2026-04-04T13:46:55Z</time></trkpt><trkpt lat="39.64870901080198" lon="8.890423305558377"><ele>194.33333333333331</ele><time>2026-04-04T13:46:56Z</time></trkpt><trkpt lat="39.64867988954244" lon="8.890658587228502"><ele>195.0</ele><time>2026-04-04T13:46:57Z</time></trkpt><trkpt lat="39.648650635031146" lon="8.890885304931537"><ele>192.33333333333334</ele><time>2026-04-04T13:46:58Z</time></trkpt><trkpt lat="39.64862351866605" lon="8.891119686901117"><ele>189.66666666666669</ele><time>2026-04-04T13:46:59Z</time></trkpt><trkpt lat="39.64859720872153" lon="8.89134521260288"><ele>187.0</ele><time>2026-04-04T13:47:00.001Z</time></trkpt><trkpt lat="39.64857777361968" lon="8.891570637000248"><ele>186.0</ele><time>2026-04-04T13:47:01Z</time></trkpt><trkpt lat="39.64858367814243" lon="8.891802073959644"><ele>185.0</ele><time>2026-04-04T13:47:02.001Z</time></trkpt><trkpt lat="39.64860726861332" lon="8.892030712595535"><ele>184.0</ele><time>2026-04-04T13:47:03.001Z</time></trkpt><trkpt lat="39.648632900289705" lon="8.892255605183216"><ele>184.33333333333334</ele><time>2026-04-04T13:47:04.001Z</time></trkpt><trkpt lat="39.64865697372597" lon="8.892475623833498"><ele>184.66666666666666</ele><time>2026-04-04T13:47:05.001Z</time></trkpt><trkpt lat="39.64868938942309" lon="8.892688815615973"><ele>185.0</ele><time>2026-04-04T13:47:06.001Z</time></trkpt><trkpt lat="39.64873528058845" lon="8.892893196506574"><ele>185.0</ele><time>2026-04-04T13:47:07.001Z</time></trkpt><trkpt lat="39.64878785493865" lon="8.893086698047497"><ele>185.0</ele><time>2026-04-04T13:47:08.001Z</time></trkpt><trkpt lat="39.6488433610045" lon="8.893268823943831"><ele>185.0</ele><time>2026-04-04T13:47:09.001Z</time></trkpt><trkpt lat="39.64890796686944" lon="8.893440236055381"><ele>184.0</ele><time>2026-04-04T13:47:10.001Z</time></trkpt><trkpt lat="39.648981164681246" lon="8.893597076196475"><ele>183.0</ele><time>2026-04-04T13:47:11.001Z</time></trkpt><trkpt lat="39.649055490503976" lon="8.89373331119089"><ele>182.0</ele><time>2026-04-04T13:47:12.001Z</time></trkpt><trkpt lat="39.64911533186347" lon="8.893866605197447"><ele>181.0</ele><time>2026-04-04T13:47:13.001Z</time></trkpt><trkpt lat="39.649160040165334" lon="8.893997488424098"><ele>181.0</ele><time>2026-04-04T13:47:14.001Z</time></trkpt><trkpt lat="39.64919195127497" lon="8.894122440645203"><ele>181.0</ele><time>2026-04-04T13:47:15.001Z</time></trkpt><trkpt lat="39.64921376137621" lon="8.894233484486994"><ele>181.0</ele><time>2026-04-04T13:47:16.001Z</time></trkpt><trkpt lat="39.6492384546646" lon="8.894320716436251"><ele>181.0</ele><time>2026-04-04T13:47:17.001Z</time></trkpt><trkpt lat="39.64927394175382" lon="8.894390993522046"><ele>181.0</ele><time>2026-04-04T13:47:18.001Z</time></trkpt><trkpt lat="39.64939599268735" lon="8.894430587961807"><ele>180.4</ele><time>2026-04-04T13:47:20.001Z</time></trkpt><trkpt lat="39.64947282642554" lon="8.894402283283746"><ele>179.8</ele><time>2026-04-04T13:47:21.001Z</time></trkpt><trkpt lat="39.649552821064496" lon="8.894407696293781"><ele>179.20000000000002</ele><time>2026-04-04T13:47:22.001Z</time></trkpt><trkpt lat="39.64963181835152" lon="8.894467979077872"><ele>178.60000000000002</ele><time>2026-04-04T13:47:23.001Z</time></trkpt><trkpt lat="39.64972335629091" lon="8.894533865885057"><ele>178.0</ele><time>2026-04-04T13:47:24.001Z</time></trkpt><trkpt lat="39.6498300479844" lon="8.894593006915667"><ele>178.0</ele><time>2026-04-04T13:47:25.001Z</time></trkpt><trkpt lat="39.64993383399436" lon="8.894676636463604"><ele>178.0</ele><time>2026-04-04T13:47:26.001Z</time></trkpt><trkpt lat="39.65004518437667" lon="8.894760296365433"><ele>178.0</ele><time>2026-04-04T13:47:27.001Z</time></trkpt><trkpt lat="39.650163861190286" lon="8.894841682041426"><ele>178.0</ele><time>2026-04-04T13:47:28.001Z</time></trkpt><trkpt lat="39.650277608513086" lon="8.89494036922552"><ele>178.0</ele><time>2026-04-04T13:47:29.001Z</time></trkpt><trkpt lat="39.65039223485812" lon="8.89501460383052"><ele>178.0</ele><time>2026-04-04T13:47:30.001Z</time></trkpt><trkpt lat="39.6505096945979" lon="8.895061101352564"><ele>178.0</ele><time>2026-04-04T13:47:31.001Z</time></trkpt><trkpt lat="39.65061969038333" lon="8.895122964586946"><ele>178.0</ele><time>2026-04-04T13:47:32.001Z</time></trkpt><trkpt lat="39.650730298927776" lon="8.895186912046228"><ele>178.0</ele><time>2026-04-04T13:47:33.001Z</time></trkpt><trkpt lat="39.65082823150398" lon="8.895282393987603"><ele>178.0</ele><time>2026-04-04T13:47:34.001Z</time></trkpt><trkpt lat="39.65092902440194" lon="8.895368799703704"><ele>178.0</ele><time>2026-04-04T13:47:35.001Z</time></trkpt><trkpt lat="39.651025445632094" lon="8.895465250813364"><ele>178.0</ele><time>2026-04-04T13:47:36.001Z</time></trkpt><trkpt lat="39.65112677814165" lon="8.895550619518126"><ele>178.0</ele><time>2026-04-04T13:47:37.001Z</time></trkpt><trkpt lat="39.65121609441794" lon="8.895656223976923"><ele>178.0</ele><time>2026-04-04T13:47:38.001Z</time></trkpt><trkpt lat="39.651306892367465" lon="8.895764087090171"><ele>178.0</ele><time>2026-04-04T13:47:39.001Z</time></trkpt><trkpt lat="39.651397262686395" lon="8.895875491520453"><ele>178.0</ele><time>2026-04-04T13:47:40.001Z</time></trkpt><trkpt lat="39.65148577954432" lon="8.89599264765511"><ele>177.5</ele><time>2026-04-04T13:47:41.001Z</time></trkpt><trkpt lat="39.65156296180801" lon="8.896122726734474"><ele>177.0</ele><time>2026-04-04T13:47:42.001Z</time></trkpt><trkpt lat="39.651642308364885" lon="8.896246652508582"><ele>176.5</ele><time>2026-04-04T13:47:43.001Z</time></trkpt><trkpt lat="39.65172901983964" lon="8.896359251883444"><ele>176.0</ele><time>2026-04-04T13:47:44.001Z</time></trkpt><trkpt lat="39.65179052701801" lon="8.896490862055366"><ele>176.0</ele><time>2026-04-04T13:47:45.001Z</time></trkpt><trkpt lat="39.65184622832795" lon="8.896620192787731"><ele>176.0</ele><time>2026-04-04T13:47:46.001Z</time></trkpt><trkpt lat="39.65189782839035" lon="8.89674244230198"><ele>176.0</ele><time>2026-04-04T13:47:47.001Z</time></trkpt><trkpt lat="39.65194372021088" lon="8.896859619867225"><ele>176.0</ele><time>2026-04-04T13:47:48.001Z</time></trkpt><trkpt lat="39.65198017714019" lon="8.896967277404263"><ele>176.0</ele><time>2026-04-04T13:47:49.001Z</time></trkpt><trkpt lat="39.65201316821762" lon="8.897063642112624"><ele>176.14285714285714</ele><time>2026-04-04T13:47:50.001Z</time></trkpt><trkpt lat="39.65205772659188" lon="8.89713531869078"><ele>176.28571428571428</ele><time>2026-04-04T13:47:51Z</time></trkpt><trkpt lat="39.65211878297295" lon="8.897178842454064"><ele>176.42857142857144</ele><time>2026-04-04T13:47:52Z</time></trkpt><trkpt lat="39.65218686171552" lon="8.897211934700788"><ele>176.57142857142856</ele><time>2026-04-04T13:47:53Z</time></trkpt><trkpt lat="39.65225047629117" lon="8.897263537130081"><ele>176.7142857142857</ele><time>2026-04-04T13:47:54Z</time></trkpt><trkpt lat="39.652323088364575" lon="8.897293366949713"><ele>176.85714285714286</ele><time>2026-04-04T13:47:55Z</time></trkpt><trkpt lat="39.652399823482746" lon="8.897324890561084"><ele>177.0</ele><time>2026-04-04T13:47:56Z</time></trkpt><trkpt lat="39.65247452821017" lon="8.897357733292411"><ele>177.0</ele><time>2026-04-04T13:47:57Z</time></trkpt><trkpt lat="39.65255537848667" lon="8.897402954234408"><ele>177.0</ele><time>2026-04-04T13:47:58Z</time></trkpt><trkpt lat="39.6526339509777" lon="8.897453555173579"><ele>177.0</ele><time>2026-04-04T13:47:59Z</time></trkpt><trkpt lat="39.65271631209789" lon="8.89751127277808"><ele>177.0</ele><time>2026-04-04T13:48:00Z</time></trkpt><trkpt lat="39.6527995441489" lon="8.897572846990757"><ele>177.0</ele><time>2026-04-04T13:48:01Z</time></trkpt><trkpt lat="39.6528795181445" lon="8.897640165063994"><ele>176.6</ele><time>2026-04-04T13:48:02Z</time></trkpt><trkpt lat="39.65295978977095" lon="8.897712508851663"><ele>176.2</ele><time>2026-04-04T13:48:03Z</time></trkpt><trkpt lat="39.65304117789452" lon="8.897787553841525"><ele>175.8</ele><time>2026-04-04T13:48:04Z</time></trkpt><trkpt lat="39.653122636155786" lon="8.897861251092113"><ele>175.4</ele><time>2026-04-04T13:48:05Z</time></trkpt><trkpt lat="39.653206138203636" lon="8.89793155197757"><ele>175.0</ele><time>2026-04-04T13:48:06Z</time></trkpt><trkpt lat="39.65329239771821" lon="8.897989940761784"><ele>175.0</ele><time>2026-04-04T13:48:07Z</time></trkpt><trkpt lat="39.653371815411724" lon="8.898064250512903"><ele>175.0</ele><time>2026-04-04T13:48:08Z</time></trkpt><trkpt lat="39.65345039773515" lon="8.898142361447327"><ele>175.0</ele><time>2026-04-04T13:48:09Z</time></trkpt><trkpt lat="39.65352461990217" lon="8.8982221424153"><ele>175.0</ele><time>2026-04-04T13:48:10Z</time></trkpt><trkpt lat="39.653601381054294" lon="8.898298127606248"><ele>175.0</ele><time>2026-04-04T13:48:11Z</time></trkpt><trkpt lat="39.65368527353035" lon="8.898370322997383"><ele>175.0</ele><time>2026-04-04T13:48:12Z</time></trkpt><trkpt lat="39.65377332545051" lon="8.898447044617305"><ele>175.0</ele><time>2026-04-04T13:48:13Z</time></trkpt><trkpt lat="39.653859669823596" lon="8.898521021295108"><ele>175.0</ele><time>2026-04-04T13:48:14Z</time></trkpt><trkpt lat="39.65394946545304" lon="8.898604254666468"><ele>175.0</ele><time>2026-04-04T13:48:15Z</time></trkpt><trkpt lat="39.65403904573812" lon="8.898696730883657"><ele>175.0</ele><time>2026-04-04T13:48:16Z</time></trkpt><trkpt lat="39.654123324232266" lon="8.89879421243403"><ele>175.0</ele><time>2026-04-04T13:48:17Z</time></trkpt><trkpt lat="39.6542059380873" lon="8.89889319838091"><ele>175.0</ele><time>2026-04-04T13:48:18Z</time></trkpt><trkpt lat="39.65428619007086" lon="8.898991886856031"><ele>175.0</ele><time>2026-04-04T13:48:19Z</time></trkpt><trkpt lat="39.654362723063095" lon="8.89908326754252"><ele>175.0</ele><time>2026-04-04T13:48:20Z</time></trkpt><trkpt lat="39.654434458626405" lon="8.89917855238406"><ele>175.0</ele><time>2026-04-04T13:48:21Z</time></trkpt><trkpt lat="39.654494444127536" lon="8.899291949094154"><ele>175.0</ele><time>2026-04-04T13:48:22Z</time></trkpt><trkpt lat="39.65454902702006" lon="8.899413428123914"><ele>175.0</ele><time>2026-04-04T13:48:23Z</time></trkpt><trkpt lat="39.654605168498605" lon="8.899541600982849"><ele>175.0</ele><time>2026-04-04T13:48:24Z</time></trkpt><trkpt lat="39.65466528300553" lon="8.899672082887783"><ele>175.0</ele><time>2026-04-04T13:48:25Z</time></trkpt><trkpt lat="39.65472802552141" lon="8.89980254699335"><ele>175.0</ele><time>2026-04-04T13:48:26Z</time></trkpt><trkpt lat="39.65478976263928" lon="8.899929735634071"><ele>175.0</ele><time>2026-04-04T13:48:27Z</time></trkpt><trkpt lat="39.65484536218957" lon="8.900050849498472"><ele>175.0</ele><time>2026-04-04T13:48:28Z</time></trkpt><trkpt lat="39.6548934365003" lon="8.90015836732094"><ele>175.0</ele><time>2026-04-04T13:48:29Z</time></trkpt><trkpt lat="39.6549270672048" lon="8.90024915732716"><ele>175.0</ele><time>2026-04-04T13:48:30Z</time></trkpt><trkpt lat="39.654944339439275" lon="8.900334934587196"><ele>174.16666666666669</ele><time>2026-04-04T13:48:31Z</time></trkpt><trkpt lat="39.65494787652179" lon="8.900418500174917"><ele>173.33333333333334</ele><time>2026-04-04T13:48:32Z</time></trkpt><trkpt lat="39.654938953721214" lon="8.900580155883253"><ele>172.5</ele><time>2026-04-04T13:48:34Z</time></trkpt><trkpt lat="39.65493422422954" lon="8.900662414038063"><ele>171.66666666666666</ele><time>2026-04-04T13:48:35Z</time></trkpt><trkpt lat="39.654929273297874" lon="8.900749499274642"><ele>170.83333333333331</ele><time>2026-04-04T13:48:36Z</time></trkpt><trkpt lat="39.654916690631374" lon="8.900838320627212"><ele>170.0</ele><time>2026-04-04T13:48:37Z</time></trkpt><trkpt lat="39.654902883830644" lon="8.900923072048876"><ele>168.8</ele><time>2026-04-04T13:48:38Z</time></trkpt><trkpt lat="39.65488961947353" lon="8.901027445596952"><ele>167.6</ele><time>2026-04-04T13:48:40Z</time></trkpt><trkpt lat="39.654899943959485" lon="8.901119916255393"><ele>166.39999999999998</ele><time>2026-04-04T13:48:42Z</time></trkpt><trkpt lat="39.65488572829444" lon="8.901200767988653"><ele>165.2</ele><time>2026-04-04T13:48:43Z</time></trkpt><trkpt lat="39.654992761478496" lon="8.901301534963805"><ele>164.0</ele><time>2026-04-04T13:48:44Z</time></trkpt><trkpt lat="39.65506594296247" lon="8.901405915892992"><ele>164.0</ele><time>2026-04-04T13:48:45Z</time></trkpt><trkpt lat="39.655140611659725" lon="8.901521879602104"><ele>164.0</ele><time>2026-04-04T13:48:46Z</time></trkpt><trkpt lat="39.6552252072719" lon="8.901638512427224"><ele>164.0</ele><time>2026-04-04T13:48:47Z</time></trkpt><trkpt lat="39.655316836855974" lon="8.901770171856182"><ele>164.0</ele><time>2026-04-04T13:48:48Z</time></trkpt><trkpt lat="39.65541234145185" lon="8.901909010600939"><ele>164.5</ele><time>2026-04-04T13:48:49Z</time></trkpt><trkpt lat="39.65550318049073" lon="8.902050881393684"><ele>165.0</ele><time>2026-04-04T13:48:50Z</time></trkpt><trkpt lat="39.65558518449051" lon="8.902195606548165"><ele>165.5</ele><time>2026-04-04T13:48:51Z</time></trkpt><trkpt lat="39.65565170217184" lon="8.902370782890923"><ele>166.0</ele><time>2026-04-04T13:48:52Z</time></trkpt><trkpt lat="39.65569641317265" lon="8.902566546382827"><ele>164.33333333333334</ele><time>2026-04-04T13:48:53Z</time></trkpt><trkpt lat="39.65572854288856" lon="8.902776412187807"><ele>162.66666666666666</ele><time>2026-04-04T13:48:54Z</time></trkpt><trkpt lat="39.65575651263224" lon="8.902992871790996"><ele>161.0</ele><time>2026-04-04T13:48:55Z</time></trkpt><trkpt lat="39.65578398759717" lon="8.903206617144546"><ele>160.0</ele><time>2026-04-04T13:48:56Z</time></trkpt><trkpt lat="39.65582651055624" lon="8.90342479412939"><ele>159.0</ele><time>2026-04-04T13:48:57Z</time></trkpt><trkpt lat="39.655893213136544" lon="8.903636065134299"><ele>158.0</ele><time>2026-04-04T13:48:58Z</time></trkpt><trkpt lat="39.6559845878809" lon="8.90383688221588"><ele>158.0</ele><time>2026-04-04T13:48:59Z</time></trkpt><trkpt lat="39.65607648128228" lon="8.904035855149862"><ele>158.0</ele><time>2026-04-04T13:49:00Z</time></trkpt><trkpt lat="39.65616589653339" lon="8.904226861184117"><ele>158.0</ele><time>2026-04-04T13:49:01Z</time></trkpt><trkpt lat="39.65624909671199" lon="8.90441276138884"><ele>158.25</ele><time>2026-04-04T13:49:02Z</time></trkpt><trkpt lat="39.65632801367704" lon="8.904588520239352"><ele>158.5</ele><time>2026-04-04T13:49:03Z</time></trkpt><trkpt lat="39.65639527122022" lon="8.904753240477676"><ele>158.75</ele><time>2026-04-04T13:49:04Z</time></trkpt><trkpt lat="39.65644428139476" lon="8.90491193206412"><ele>159.0</ele><time>2026-04-04T13:49:05Z</time></trkpt><trkpt lat="39.65648183442612" lon="8.905069250325678"><ele>158.8</ele><time>2026-04-04T13:49:06Z</time></trkpt><trkpt lat="39.65651022281794" lon="8.905219534991799"><ele>158.60000000000002</ele><time>2026-04-04T13:49:07Z</time></trkpt><trkpt lat="39.65652517544509" lon="8.905364570271544"><ele>158.4</ele><time>2026-04-04T13:49:08Z</time></trkpt><trkpt lat="39.65652060295562" lon="8.905496909083027"><ele>158.20000000000002</ele><time>2026-04-04T13:49:09Z</time></trkpt><trkpt lat="39.656494078338625" lon="8.905625360344084"><ele>158.0</ele><time>2026-04-04T13:49:10Z</time></trkpt><trkpt lat="39.65645254221054" lon="8.90576068446496"><ele>158.0</ele><time>2026-04-04T13:49:11Z</time></trkpt><trkpt lat="39.65642037844781" lon="8.905915709185818"><ele>158.0</ele><time>2026-04-04T13:49:12Z</time></trkpt><trkpt lat="39.65632455950488" lon="8.906048595227622"><ele>158.0</ele><time>2026-04-04T13:49:13Z</time></trkpt><trkpt lat="39.65625650821027" lon="8.906202432640601"><ele>158.0</ele><time>2026-04-04T13:49:14Z</time></trkpt><trkpt lat="39.65618034113148" lon="8.906368496595283"><ele>157.66666666666666</ele><time>2026-04-04T13:49:15Z</time></trkpt><trkpt lat="39.65609408199352" lon="8.90653694171684"><ele>157.33333333333334</ele><time>2026-04-04T13:49:16Z</time></trkpt><trkpt lat="39.65600333927592" lon="8.906711449502257"><ele>157.0</ele><time>2026-04-04T13:49:17Z</time></trkpt><trkpt lat="39.655908117252956" lon="8.906891260902833"><ele>157.0</ele><time>2026-04-04T13:49:18Z</time></trkpt><trkpt lat="39.65581312019204" lon="8.907066114351462"><ele>157.0</ele><time>2026-04-04T13:49:19Z</time></trkpt><trkpt lat="39.65571340968924" lon="8.907246378138652"><ele>157.0</ele><time>2026-04-04T13:49:20Z</time></trkpt><trkpt lat="39.65561172760195" lon="8.907430046207281"><ele>157.0</ele><time>2026-04-04T13:49:21Z</time></trkpt><trkpt lat="39.65550692364719" lon="8.907622581954996"><ele>157.0</ele><time>2026-04-04T13:49:22Z</time></trkpt><trkpt lat="39.65540099623493" lon="8.907819436971689"><ele>157.0</ele><time>2026-04-04T13:49:23Z</time></trkpt><trkpt lat="39.655293589966526" lon="8.90802207923859"><ele>155.66666666666669</ele><time>2026-04-04T13:49:24Z</time></trkpt><trkpt lat="39.655183205973806" lon="8.90822700187402"><ele>154.33333333333334</ele><time>2026-04-04T13:49:25Z</time></trkpt><trkpt lat="39.65506948411531" lon="8.908435893658055"><ele>153.0</ele><time>2026-04-04T13:49:26Z</time></trkpt><trkpt lat="39.654957515302996" lon="8.908648754047046"><ele>153.0</ele><time>2026-04-04T13:49:27Z</time></trkpt><trkpt lat="39.6548449437958" lon="8.908868876511823"><ele>153.0</ele><time>2026-04-04T13:49:28.001Z</time></trkpt><trkpt lat="39.65473084674477" lon="8.90908637898436"><ele>153.0</ele><time>2026-04-04T13:49:29.001Z</time></trkpt><trkpt lat="39.65461411815629" lon="8.909304356170653"><ele>153.0</ele><time>2026-04-04T13:49:30.001Z</time></trkpt><trkpt lat="39.65449474705301" lon="8.909524251877098"><ele>153.0</ele><time>2026-04-04T13:49:31.001Z</time></trkpt><trkpt lat="39.654374587541994" lon="8.909743804634987"><ele>153.0</ele><time>2026-04-04T13:49:32.001Z</time></trkpt><trkpt lat="39.65425733297264" lon="8.909960720038443"><ele>152.33333333333334</ele><time>2026-04-04T13:49:33.001Z</time></trkpt><trkpt lat="39.65414423576971" lon="8.910174442156812"><ele>151.66666666666669</ele><time>2026-04-04T13:49:34.001Z</time></trkpt><trkpt lat="39.654026662964526" lon="8.910392339075214"><ele>151.0</ele><time>2026-04-04T13:49:35.001Z</time></trkpt><trkpt lat="39.65390782895259" lon="8.910611532023415"><ele>151.0</ele><time>2026-04-04T13:49:36.001Z</time></trkpt><trkpt lat="39.65378688910901" lon="8.91083114219879"><ele>151.0</ele><time>2026-04-04T13:49:37.001Z</time></trkpt><trkpt lat="39.653667448486964" lon="8.911052719297036"><ele>151.0</ele><time>2026-04-04T13:49:38.001Z</time></trkpt><trkpt lat="39.65354825776106" lon="8.911277457466838"><ele>151.0</ele><time>2026-04-04T13:49:39.001Z</time></trkpt><trkpt lat="39.653427270860625" lon="8.911501060889414"><ele>151.0</ele><time>2026-04-04T13:49:40.001Z</time></trkpt><trkpt lat="39.65330520833881" lon="8.911727172785351"><ele>151.0</ele><time>2026-04-04T13:49:41.001Z</time></trkpt><trkpt lat="39.65318382121624" lon="8.911955407207723"><ele>151.0</ele><time>2026-04-04T13:49:42.001Z</time></trkpt><trkpt lat="39.6530612654649" lon="8.91218621108568"><ele>151.0</ele><time>2026-04-04T13:49:43.001Z</time></trkpt><trkpt lat="39.65294128755899" lon="8.912408315480045"><ele>151.0</ele><time>2026-04-04T13:49:44.001Z</time></trkpt><trkpt lat="39.65281726856158" lon="8.912637487885503"><ele>149.66666666666669</ele><time>2026-04-04T13:49:45.001Z</time></trkpt><trkpt lat="39.6526938097665" lon="8.91286606633433"><ele>148.33333333333334</ele><time>2026-04-04T13:49:46.001Z</time></trkpt><trkpt lat="39.65257116815642" lon="8.913095326521681"><ele>147.0</ele><time>2026-04-04T13:49:47.001Z</time></trkpt><trkpt lat="39.65244803146077" lon="8.913327669358983"><ele>147.0</ele><time>2026-04-04T13:49:48.001Z</time></trkpt><trkpt lat="39.652321963928074" lon="8.913561082477521"><ele>147.0</ele><time>2026-04-04T13:49:49.001Z</time></trkpt><trkpt lat="39.652196028716396" lon="8.913793325601713"><ele>147.0</ele><time>2026-04-04T13:49:50.001Z</time></trkpt><trkpt lat="39.65207030283699" lon="8.914027743721626"><ele>146.0</ele><time>2026-04-04T13:49:51.001Z</time></trkpt><trkpt lat="39.6519456556424" lon="8.91425767800701"><ele>145.0</ele><time>2026-04-04T13:49:52.001Z</time></trkpt><trkpt lat="39.65181744669936" lon="8.914491418289003"><ele>144.0</ele><time>2026-04-04T13:49:53.001Z</time></trkpt><trkpt lat="39.65168930409237" lon="8.914724322082922"><ele>144.0</ele><time>2026-04-04T13:49:54.001Z</time></trkpt><trkpt lat="39.651561558121195" lon="8.914960526405537"><ele>144.0</ele><time>2026-04-04T13:49:55.001Z</time></trkpt><trkpt lat="39.65143580887149" lon="8.915195505167386"><ele>144.0</ele><time>2026-04-04T13:49:56.001Z</time></trkpt><trkpt lat="39.651308161183124" lon="8.915429444424719"><ele>144.0</ele><time>2026-04-04T13:49:57Z</time></trkpt><trkpt lat="39.65118052434242" lon="8.91566622410878"><ele>144.0</ele><time>2026-04-04T13:49:58Z</time></trkpt><trkpt lat="39.65105289458473" lon="8.91590074470583"><ele>144.0</ele><time>2026-04-04T13:49:59Z</time></trkpt><trkpt lat="39.65092291356182" lon="8.916131042101059"><ele>144.33333333333334</ele><time>2026-04-04T13:50:00Z</time></trkpt><trkpt lat="39.65078945652962" lon="8.916359164835752"><ele>144.66666666666669</ele><time>2026-04-04T13:50:01Z</time></trkpt><trkpt lat="39.65065614672087" lon="8.916583488065488"><ele>145.0</ele><time>2026-04-04T13:50:02Z</time></trkpt><trkpt lat="39.65052055027956" lon="8.916808130948423"><ele>145.0</ele><time>2026-04-04T13:50:03Z</time></trkpt><trkpt lat="39.65038046691648" lon="8.917027419885114"><ele>145.0</ele><time>2026-04-04T13:50:04Z</time></trkpt><trkpt lat="39.65023373897494" lon="8.917239827316578"><ele>145.0</ele><time>2026-04-04T13:50:05Z</time></trkpt><trkpt lat="39.65008200372858" lon="8.917448423596415"><ele>142.33333333333334</ele><time>2026-04-04T13:50:06Z</time></trkpt><trkpt lat="39.6499293752167" lon="8.917652054218653"><ele>139.66666666666666</ele><time>2026-04-04T13:50:07Z</time></trkpt><trkpt lat="39.649770025585575" lon="8.917856825398614"><ele>137.0</ele><time>2026-04-04T13:50:08Z</time></trkpt><trkpt lat="39.64960873684435" lon="8.918054406760053"><ele>137.33333333333331</ele><time>2026-04-04T13:50:09Z</time></trkpt><trkpt lat="39.649441623495456" lon="8.918245476017521"><ele>137.66666666666666</ele><time>2026-04-04T13:50:10Z</time></trkpt><trkpt lat="39.649270305641366" lon="8.918425445915831"><ele>138.0</ele><time>2026-04-04T13:50:11Z</time></trkpt><trkpt lat="39.649097303645036" lon="8.918602535473955"><ele>135.5</ele><time>2026-04-04T13:50:12Z</time></trkpt><trkpt lat="39.64891070567522" lon="8.918788734329663"><ele>133.0</ele><time>2026-04-04T13:50:13Z</time></trkpt><trkpt lat="39.64872717636793" lon="8.918962179435951"><ele>134.5</ele><time>2026-04-04T13:50:14Z</time></trkpt><trkpt lat="39.64854353734121" lon="8.919136761298665"><ele>136.0</ele><time>2026-04-04T13:50:15Z</time></trkpt><trkpt lat="39.64835933466414" lon="8.919315633592078"><ele>136.0</ele><time>2026-04-04T13:50:16Z</time></trkpt><trkpt lat="39.64817507942175" lon="8.919492247267993"><ele>136.0</ele><time>2026-04-04T13:50:17Z</time></trkpt><trkpt lat="39.64798642381525" lon="8.919668312455206"><ele>136.0</ele><time>2026-04-04T13:50:18Z</time></trkpt><trkpt lat="39.64779830731042" lon="8.91984560550783"><ele>136.0</ele><time>2026-04-04T13:50:19Z</time></trkpt><trkpt lat="39.64761207027803" lon="8.920019854454312"><ele>136.5</ele><time>2026-04-04T13:50:20Z</time></trkpt><trkpt lat="39.6474254701661" lon="8.92019693699766"><ele>137.0</ele><time>2026-04-04T13:50:21Z</time></trkpt><trkpt lat="39.64723749791088" lon="8.920376541862515"><ele>137.0</ele><time>2026-04-04T13:50:22Z</time></trkpt><trkpt lat="39.64704905201788" lon="8.92055558524287"><ele>137.0</ele><time>2026-04-04T13:50:23Z</time></trkpt><trkpt lat="39.646857814148454" lon="8.920736693719153"><ele>136.5</ele><time>2026-04-04T13:50:24Z</time></trkpt><trkpt lat="39.6466657426749" lon="8.920918545997718"><ele>136.0</ele><time>2026-04-04T13:50:25Z</time></trkpt><trkpt lat="39.646470567133676" lon="8.921101646350895"><ele>136.0</ele><time>2026-04-04T13:50:26Z</time></trkpt><trkpt lat="39.646275622992995" lon="8.921282242131753"><ele>136.0</ele><time>2026-04-04T13:50:27Z</time></trkpt><trkpt lat="39.64607874628192" lon="8.921463373462506"><ele>135.5</ele><time>2026-04-04T13:50:28Z</time></trkpt><trkpt lat="39.645884052108215" lon="8.921647044678517"><ele>135.0</ele><time>2026-04-04T13:50:29Z</time></trkpt><trkpt lat="39.645690885328634" lon="8.921831422404829"><ele>135.0</ele><time>2026-04-04T13:50:30Z</time></trkpt><trkpt lat="39.645495106712595" lon="8.922015254018657"><ele>135.0</ele><time>2026-04-04T13:50:31Z</time></trkpt><trkpt lat="39.645296986180064" lon="8.922199547620643"><ele>133.0</ele><time>2026-04-04T13:50:32Z</time></trkpt><trkpt lat="39.64509764432691" lon="8.922382730805365"><ele>131.0</ele><time>2026-04-04T13:50:33Z</time></trkpt><trkpt lat="39.64491233029167" lon="8.922553940099887"><ele>131.0</ele><time>2026-04-04T13:50:34Z</time></trkpt><trkpt lat="39.644720712118996" lon="8.922734522802761"><ele>131.0</ele><time>2026-04-04T13:50:35Z</time></trkpt><trkpt lat="39.64452925812947" lon="8.922916105836045"><ele>130.5</ele><time>2026-04-04T13:50:36Z</time></trkpt><trkpt lat="39.64433964479147" lon="8.923094799117717"><ele>130.0</ele><time>2026-04-04T13:50:37Z</time></trkpt><trkpt lat="39.64414917893962" lon="8.923272020235565"><ele>130.5</ele><time>2026-04-04T13:50:38Z</time></trkpt><trkpt lat="39.643955901073184" lon="8.923449326222721"><ele>131.0</ele><time>2026-04-04T13:50:39Z</time></trkpt><trkpt lat="39.64376520620374" lon="8.923625170331775"><ele>130.0</ele><time>2026-04-04T13:50:40Z</time></trkpt><trkpt lat="39.6435727389294" lon="8.923803850781496"><ele>129.0</ele><time>2026-04-04T13:50:41Z</time></trkpt><trkpt lat="39.64337926999307" lon="8.923983616162403"><ele>129.0</ele><time>2026-04-04T13:50:42Z</time></trkpt><trkpt lat="39.64318861393617" lon="8.92416344566807"><ele>129.0</ele><time>2026-04-04T13:50:43Z</time></trkpt><trkpt lat="39.642994744804305" lon="8.9243473246789"><ele>130.0</ele><time>2026-04-04T13:50:44Z</time></trkpt><trkpt lat="39.64280218387486" lon="8.924526744123659"><ele>131.0</ele><time>2026-04-04T13:50:45Z</time></trkpt><trkpt lat="39.64260928043939" lon="8.92470579618779"><ele>130.5</ele><time>2026-04-04T13:50:46Z</time></trkpt><trkpt lat="39.642416493796226" lon="8.924888152361357"><ele>130.0</ele><time>2026-04-04T13:50:47Z</time></trkpt><trkpt lat="39.64222362491066" lon="8.925069229091525"><ele>130.0</ele><time>2026-04-04T13:50:48Z</time></trkpt><trkpt lat="39.64203057725536" lon="8.925247451056759"><ele>130.0</ele><time>2026-04-04T13:50:49Z</time></trkpt><trkpt lat="39.64183694908468" lon="8.925427936301515"><ele>129.5</ele><time>2026-04-04T13:50:50Z</time></trkpt><trkpt lat="39.64164836930164" lon="8.925609717843656"><ele>129.0</ele><time>2026-04-04T13:50:51Z</time></trkpt><trkpt lat="39.64146336084312" lon="8.92579550695874"><ele>129.5</ele><time>2026-04-04T13:50:52Z</time></trkpt><trkpt lat="39.641278689423295" lon="8.925989650149054"><ele>130.0</ele><time>2026-04-04T13:50:53Z</time></trkpt><trkpt lat="39.64110163589269" lon="8.926192022933565"><ele>130.0</ele><time>2026-04-04T13:50:54Z</time></trkpt><trkpt lat="39.64092973356912" lon="8.926406589091082"><ele>130.0</ele><time>2026-04-04T13:50:55Z</time></trkpt><trkpt lat="39.640767551704535" lon="8.92663184537894"><ele>132.5</ele><time>2026-04-04T13:50:56Z</time></trkpt><trkpt lat="39.64061239135971" lon="8.926863882569759"><ele>135.0</ele><time>2026-04-04T13:50:57Z</time></trkpt><trkpt lat="39.64045945419545" lon="8.927103261373519"><ele>135.0</ele><time>2026-04-04T13:50:58Z</time></trkpt><trkpt lat="39.640309481219255" lon="8.92735587675475"><ele>135.0</ele><time>2026-04-04T13:50:59Z</time></trkpt><trkpt lat="39.64016565376719" lon="8.927611445398362"><ele>132.0</ele><time>2026-04-04T13:51:00Z</time></trkpt><trkpt lat="39.64002689860289" lon="8.927860251751229"><ele>129.0</ele><time>2026-04-04T13:51:01Z</time></trkpt><trkpt lat="39.63990146876239" lon="8.928136790663885"><ele>129.5</ele><time>2026-04-04T13:51:02Z</time></trkpt><trkpt lat="39.63978609295558" lon="8.928419955109094"><ele>130.0</ele><time>2026-04-04T13:51:03Z</time></trkpt><trkpt lat="39.639675123917044" lon="8.92870893640123"><ele>130.0</ele><time>2026-04-04T13:51:04Z</time></trkpt><trkpt lat="39.639563301294984" lon="8.929004568125693"><ele>130.0</ele><time>2026-04-04T13:51:05Z</time></trkpt><trkpt lat="39.639451988773615" lon="8.92930695453517"><ele>127.0</ele><time>2026-04-04T13:51:06Z</time></trkpt><trkpt lat="39.63933858454687" lon="8.929613051434366"><ele>124.0</ele><time>2026-04-04T13:51:07Z</time></trkpt><trkpt lat="39.639217958010306" lon="8.929917788276814"><ele>124.5</ele><time>2026-04-04T13:51:08Z</time></trkpt><trkpt lat="39.639090452860266" lon="8.930221319821205"><ele>125.0</ele><time>2026-04-04T13:51:09Z</time></trkpt><trkpt lat="39.63896097087471" lon="8.930526123275722"><ele>125.0</ele><time>2026-04-04T13:51:10Z</time></trkpt><trkpt lat="39.638829844866876" lon="8.93083212145399"><ele>125.0</ele><time>2026-04-04T13:51:11Z</time></trkpt><trkpt lat="39.63869954745258" lon="8.931140597193549"><ele>124.0</ele><time>2026-04-04T13:51:12Z</time></trkpt><trkpt lat="39.63857027581469" lon="8.931452039422114"><ele>123.0</ele><time>2026-04-04T13:51:13Z</time></trkpt><trkpt lat="39.63844448544744" lon="8.931762802355431"><ele>123.0</ele><time>2026-04-04T13:51:14Z</time></trkpt><trkpt lat="39.63831371029444" lon="8.93206706713002"><ele>123.0</ele><time>2026-04-04T13:51:15Z</time></trkpt><trkpt lat="39.63818813917517" lon="8.932372940930833"><ele>122.0</ele><time>2026-04-04T13:51:16.001Z</time></trkpt><trkpt lat="39.63806420003587" lon="8.932676540217978"><ele>121.0</ele><time>2026-04-04T13:51:17.001Z</time></trkpt><trkpt lat="39.637943402923" lon="8.93297838801982"><ele>121.0</ele><time>2026-04-04T13:51:18.001Z</time></trkpt><trkpt lat="39.63782714534154" lon="8.933278388075554"><ele>121.0</ele><time>2026-04-04T13:51:19.001Z</time></trkpt><trkpt lat="39.63771111652976" lon="8.933575627401643"><ele>119.5</ele><time>2026-04-04T13:51:20.001Z</time></trkpt><trkpt lat="39.63759498685267" lon="8.93385778500205"><ele>118.0</ele><time>2026-04-04T13:51:21.001Z</time></trkpt><trkpt lat="39.637477712437644" lon="8.934132663767741"><ele>117.0</ele><time>2026-04-04T13:51:22.001Z</time></trkpt><trkpt lat="39.63736039444908" lon="8.934401552693117"><ele>116.0</ele><time>2026-04-04T13:51:23.001Z</time></trkpt><trkpt lat="39.637252975614444" lon="8.93466920703507"><ele>116.0</ele><time>2026-04-04T13:51:24.001Z</time></trkpt><trkpt lat="39.63714765775501" lon="8.934932078543918"><ele>116.0</ele><time>2026-04-04T13:51:25.001Z</time></trkpt><trkpt lat="39.63704059263059" lon="8.935194733620525"><ele>115.5</ele><time>2026-04-04T13:51:26.001Z</time></trkpt><trkpt lat="39.636931481880666" lon="8.935460059348467"><ele>115.0</ele><time>2026-04-04T13:51:27.001Z</time></trkpt><trkpt lat="39.63682348219208" lon="8.935724733494537"><ele>114.0</ele><time>2026-04-04T13:51:28.001Z</time></trkpt><trkpt lat="39.63671348803383" lon="8.935991724699742"><ele>113.0</ele><time>2026-04-04T13:51:29.001Z</time></trkpt><trkpt lat="39.63660286829831" lon="8.936261737041379"><ele>113.0</ele><time>2026-04-04T13:51:30.001Z</time></trkpt><trkpt lat="39.63649071971682" lon="8.936535283570288"><ele>113.0</ele><time>2026-04-04T13:51:31.001Z</time></trkpt><trkpt lat="39.63637805786178" lon="8.936809744623663"><ele>113.0</ele><time>2026-04-04T13:51:32.001Z</time></trkpt><trkpt lat="39.63626155111663" lon="8.937090769286405"><ele>113.0</ele><time>2026-04-04T13:51:33.001Z</time></trkpt><trkpt lat="39.636142070631074" lon="8.937374204850052"><ele>112.5</ele><time>2026-04-04T13:51:34.001Z</time></trkpt><trkpt lat="39.636022444500796" lon="8.937663268886512"><ele>112.0</ele><time>2026-04-04T13:51:35.001Z</time></trkpt><trkpt lat="39.635902844342446" lon="8.9379554720492"><ele>112.0</ele><time>2026-04-04T13:51:36.001Z</time></trkpt><trkpt lat="39.635784791574075" lon="8.93824590565448"><ele>112.0</ele><time>2026-04-04T13:51:37.001Z</time></trkpt><trkpt lat="39.63566551440276" lon="8.938541327940106"><ele>112.5</ele><time>2026-04-04T13:51:38.001Z</time></trkpt><trkpt lat="39.63554896172807" lon="8.938830365671928"><ele>113.0</ele><time>2026-04-04T13:51:39.001Z</time></trkpt><trkpt lat="39.63542968622163" lon="8.939119611291606"><ele>113.0</ele><time>2026-04-04T13:51:40.001Z</time></trkpt><trkpt lat="39.63530947727506" lon="8.939399718866179"><ele>113.0</ele><time>2026-04-04T13:51:41.001Z</time></trkpt><trkpt lat="39.63519480398084" lon="8.939676839075306"><ele>113.0</ele><time>2026-04-04T13:51:42.001Z</time></trkpt><trkpt lat="39.635081913772694" lon="8.939952572504785"><ele>113.0</ele><time>2026-04-04T13:51:43.001Z</time></trkpt><trkpt lat="39.63496881789001" lon="8.940227157487053"><ele>113.0</ele><time>2026-04-04T13:51:44.001Z</time></trkpt><trkpt lat="39.63485863380175" lon="8.94049696074809"><ele>113.0</ele><time>2026-04-04T13:51:45.001Z</time></trkpt><trkpt lat="39.63474279176283" lon="8.940769725148893"><ele>114.0</ele><time>2026-04-04T13:51:46.001Z</time></trkpt><trkpt lat="39.63463316042227" lon="8.94104396147031"><ele>115.0</ele><time>2026-04-04T13:51:47.001Z</time></trkpt><trkpt lat="39.63452198811065" lon="8.941318857412062"><ele>115.0</ele><time>2026-04-04T13:51:48.001Z</time></trkpt><trkpt lat="39.63440945272615" lon="8.941600580250585"><ele>115.0</ele><time>2026-04-04T13:51:49.001Z</time></trkpt><trkpt lat="39.63429727561656" lon="8.941881791954263"><ele>115.0</ele><time>2026-04-04T13:51:50.001Z</time></trkpt><trkpt lat="39.634182732399395" lon="8.942163043393759"><ele>115.0</ele><time>2026-04-04T13:51:51.001Z</time></trkpt><trkpt lat="39.63406573505347" lon="8.94244837780923"><ele>117.0</ele><time>2026-04-04T13:51:52.001Z</time></trkpt><trkpt lat="39.63394687822361" lon="8.942728894873891"><ele>119.0</ele><time>2026-04-04T13:51:53.001Z</time></trkpt><trkpt lat="39.633824604539875" lon="8.943014301437492"><ele>119.0</ele><time>2026-04-04T13:51:54.001Z</time></trkpt><trkpt lat="39.633704812441394" lon="8.943298154382665"><ele>119.0</ele><time>2026-04-04T13:51:55.001Z</time></trkpt><trkpt lat="39.63358414201179" lon="8.943590027939427"><ele>116.5</ele><time>2026-04-04T13:51:56.001Z</time></trkpt><trkpt lat="39.63346416726251" lon="8.943879209462027"><ele>114.0</ele><time>2026-04-04T13:51:57.001Z</time></trkpt><trkpt lat="39.6333434714484" lon="8.94416914754985"><ele>115.0</ele><time>2026-04-04T13:51:58.001Z</time></trkpt><trkpt lat="39.633222999286865" lon="8.944459235578519"><ele>116.0</ele><time>2026-04-04T13:51:59.001Z</time></trkpt><trkpt lat="39.63310293639138" lon="8.944753111873336"><ele>116.0</ele><time>2026-04-04T13:52:00.001Z</time></trkpt><trkpt lat="39.63298387230286" lon="8.94504619976105"><ele>116.0</ele><time>2026-04-04T13:52:01.001Z</time></trkpt><trkpt lat="39.632867808645564" lon="8.945338927864015"><ele>113.5</ele><time>2026-04-04T13:52:02.001Z</time></trkpt><trkpt lat="39.63274854596611" lon="8.945635959714265"><ele>111.0</ele><time>2026-04-04T13:52:03Z</time></trkpt><trkpt lat="39.63262882870543" lon="8.945929456411145"><ele>110.5</ele><time>2026-04-04T13:52:04Z</time></trkpt><trkpt lat="39.632508098522926" lon="8.946221794175699"><ele>110.0</ele><time>2026-04-04T13:52:05Z</time></trkpt><trkpt lat="39.63238925958377" lon="8.946506521946379"><ele>111.0</ele><time>2026-04-04T13:52:06Z</time></trkpt><trkpt lat="39.63226791957496" lon="8.946793471801172"><ele>112.0</ele><time>2026-04-04T13:52:07Z</time></trkpt><trkpt lat="39.63215245411041" lon="8.947070451107711"><ele>112.0</ele><time>2026-04-04T13:52:08Z</time></trkpt><trkpt lat="39.63203601384773" lon="8.947348660852915"><ele>112.0</ele><time>2026-04-04T13:52:09Z</time></trkpt><trkpt lat="39.63192191253685" lon="8.947624556706748"><ele>111.5</ele><time>2026-04-04T13:52:10Z</time></trkpt><trkpt lat="39.63180918072765" lon="8.947894057835088"><ele>111.0</ele><time>2026-04-04T13:52:11Z</time></trkpt><trkpt lat="39.63170000418765" lon="8.948161337445155"><ele>112.0</ele><time>2026-04-04T13:52:12Z</time></trkpt><trkpt lat="39.631594590588506" lon="8.948423764356745"><ele>113.0</ele><time>2026-04-04T13:52:13Z</time></trkpt><trkpt lat="39.63148923902697" lon="8.948681114602953"><ele>113.0</ele><time>2026-04-04T13:52:14Z</time></trkpt><trkpt lat="39.63138467132169" lon="8.948941249552078"><ele>113.0</ele><time>2026-04-04T13:52:15Z</time></trkpt><trkpt lat="39.63127064536095" lon="8.94919395225949"><ele>114.0</ele><time>2026-04-04T13:52:16Z</time></trkpt><trkpt lat="39.63112957780806" lon="8.94942220223509"><ele>115.0</ele><time>2026-04-04T13:52:17Z</time></trkpt><trkpt lat="39.63096011253677" lon="8.949616510533241"><ele>115.0</ele><time>2026-04-04T13:52:18Z</time></trkpt><trkpt lat="39.63077727956743" lon="8.949795569185808"><ele>115.0</ele><time>2026-04-04T13:52:19Z</time></trkpt><trkpt lat="39.630587935071055" lon="8.949972230494716"><ele>117.0</ele><time>2026-04-04T13:52:20Z</time></trkpt><trkpt lat="39.63040125145032" lon="8.950157274365619"><ele>119.0</ele><time>2026-04-04T13:52:21Z</time></trkpt><trkpt lat="39.63021243981085" lon="8.950348457941812"><ele>119.0</ele><time>2026-04-04T13:52:22Z</time></trkpt><trkpt lat="39.630027594659246" lon="8.950528989361857"><ele>119.0</ele><time>2026-04-04T13:52:23Z</time></trkpt><trkpt lat="39.62984029342405" lon="8.950724291109395"><ele>120.0</ele><time>2026-04-04T13:52:24Z</time></trkpt><trkpt lat="39.629651769015396" lon="8.950913908993074"><ele>121.0</ele><time>2026-04-04T13:52:25Z</time></trkpt><trkpt lat="39.62946004659749" lon="8.95110769162854"><ele>121.0</ele><time>2026-04-04T13:52:26Z</time></trkpt><trkpt lat="39.62926601129566" lon="8.951304663176881"><ele>121.0</ele><time>2026-04-04T13:52:27Z</time></trkpt><trkpt lat="39.629069822494564" lon="8.951503838694581"><ele>121.0</ele><time>2026-04-04T13:52:28Z</time></trkpt><trkpt lat="39.62887380922418" lon="8.951704138649857"><ele>121.0</ele><time>2026-04-04T13:52:29Z</time></trkpt><trkpt lat="39.62867761660512" lon="8.951905671740189"><ele>119.5</ele><time>2026-04-04T13:52:30Z</time></trkpt><trkpt lat="39.62848061406357" lon="8.952107681746867"><ele>118.0</ele><time>2026-04-04T13:52:31Z</time></trkpt><trkpt lat="39.628282886059" lon="8.952307305018298"><ele>118.0</ele><time>2026-04-04T13:52:32Z</time></trkpt><trkpt lat="39.628081550595546" lon="8.952500288439014"><ele>118.0</ele><time>2026-04-04T13:52:33Z</time></trkpt><trkpt lat="39.627892850101645" lon="8.952690618434064"><ele>116.5</ele><time>2026-04-04T13:52:34Z</time></trkpt><trkpt lat="39.62770754663875" lon="8.95288047949835"><ele>115.0</ele><time>2026-04-04T13:52:35Z</time></trkpt><trkpt lat="39.62752786156749" lon="8.953071022525325"><ele>115.0</ele><time>2026-04-04T13:52:36Z</time></trkpt><trkpt lat="39.62735857301299" lon="8.953266158665532"><ele>115.0</ele><time>2026-04-04T13:52:37Z</time></trkpt><trkpt lat="39.6272070441829" lon="8.953480210462326"><ele>112.5</ele><time>2026-04-04T13:52:38Z</time></trkpt><trkpt lat="39.627068733554005" lon="8.95371035547831"><ele>110.0</ele><time>2026-04-04T13:52:39Z</time></trkpt><trkpt lat="39.626946342817" lon="8.953957421389793"><ele>110.0</ele><time>2026-04-04T13:52:40Z</time></trkpt><trkpt lat="39.626847080454546" lon="8.954225752959703"><ele>110.0</ele><time>2026-04-04T13:52:41Z</time></trkpt><trkpt lat="39.62677003870881" lon="8.954511983443824"><ele>110.0</ele><time>2026-04-04T13:52:42Z</time></trkpt><trkpt lat="39.62670514355381" lon="8.954807513736117"><ele>110.0</ele><time>2026-04-04T13:52:43Z</time></trkpt><trkpt lat="39.62663965769818" lon="8.955098680544628"><ele>110.66666666666666</ele><time>2026-04-04T13:52:44Z</time></trkpt><trkpt lat="39.62656998532996" lon="8.955376973032795"><ele>111.33333333333334</ele><time>2026-04-04T13:52:45Z</time></trkpt><trkpt lat="39.626499854263876" lon="8.955642269930008"><ele>112.0</ele><time>2026-04-04T13:52:46Z</time></trkpt><trkpt lat="39.62643267247844" lon="8.955897415987856"><ele>112.66666666666667</ele><time>2026-04-04T13:52:47Z</time></trkpt><trkpt lat="39.62637053698158" lon="8.956147524112064"><ele>113.33333333333334</ele><time>2026-04-04T13:52:48Z</time></trkpt><trkpt lat="39.626312006569435" lon="8.956388007781628"><ele>114.0</ele><time>2026-04-04T13:52:49Z</time></trkpt><trkpt lat="39.62625364113516" lon="8.956617759632596"><ele>114.66666666666666</ele><time>2026-04-04T13:52:50.001Z</time></trkpt><trkpt lat="39.62619458896083" lon="8.956839089223445"><ele>115.33333333333333</ele><time>2026-04-04T13:52:51.001Z</time></trkpt><trkpt lat="39.62613828971346" lon="8.957036619989518"><ele>116.0</ele><time>2026-04-04T13:52:52.001Z</time></trkpt><trkpt lat="39.62608515746492" lon="8.957211853441978"><ele>115.19999999999999</ele><time>2026-04-04T13:52:53.001Z</time></trkpt><trkpt lat="39.62603330916952" lon="8.957365590232888"><ele>114.39999999999999</ele><time>2026-04-04T13:52:54.001Z</time></trkpt><trkpt lat="39.62598376328983" lon="8.95749313502746"><ele>113.6</ele><time>2026-04-04T13:52:55.001Z</time></trkpt><trkpt lat="39.62594852123817" lon="8.957593068730452"><ele>112.8</ele><time>2026-04-04T13:52:56.001Z</time></trkpt><trkpt lat="39.625980764608904" lon="8.9577425829157"><ele>112.0</ele><time>2026-04-04T13:52:58.001Z</time></trkpt><trkpt lat="39.62604822005707" lon="8.957783281072999"><ele>112.0</ele><time>2026-04-04T13:52:59.001Z</time></trkpt><trkpt lat="39.62613693981126" lon="8.95780983160649"><ele>112.0</ele><time>2026-04-04T13:53:00.001Z</time></trkpt><trkpt lat="39.626243721935225" lon="8.95783391101723"><ele>112.0</ele><time>2026-04-04T13:53:01.001Z</time></trkpt><trkpt lat="39.626363001204126" lon="8.957884885055405"><ele>112.0</ele><time>2026-04-04T13:53:02.001Z</time></trkpt><trkpt lat="39.62649761356514" lon="8.957963588916844"><ele>113.0</ele><time>2026-04-04T13:53:03.001Z</time></trkpt><trkpt lat="39.626625800632716" lon="8.958043311863939"><ele>114.0</ele><time>2026-04-04T13:53:04.001Z</time></trkpt><trkpt lat="39.626750536380094" lon="8.958127060039423"><ele>115.0</ele><time>2026-04-04T13:53:05.001Z</time></trkpt><trkpt lat="39.62687887372602" lon="8.958209867350881"><ele>116.0</ele><time>2026-04-04T13:53:06.001Z</time></trkpt><trkpt lat="39.62700887426081" lon="8.958289487037485"><ele>117.33333333333333</ele><time>2026-04-04T13:53:07.001Z</time></trkpt><trkpt lat="39.62724830161455" lon="8.958438896536242"><ele>118.66666666666666</ele><time>2026-04-04T13:53:09.001Z</time></trkpt><trkpt lat="39.627343248133705" lon="8.958518150270049"><ele>120.0</ele><time>2026-04-04T13:53:10.001Z</time></trkpt><trkpt lat="39.62742314990763" lon="8.958602916912971"><ele>120.0</ele><time>2026-04-04T13:53:11.001Z</time></trkpt><trkpt lat="39.62748158612702" lon="8.958695658100519"><ele>120.0</ele><time>2026-04-04T13:53:12.001Z</time></trkpt><trkpt lat="39.6275226544708" lon="8.958801711586693"><ele>120.0</ele><time>2026-04-04T13:53:13.001Z</time></trkpt><trkpt lat="39.62755466463407" lon="8.958923861192783"><ele>120.0</ele><time>2026-04-04T13:53:14.001Z</time></trkpt><trkpt lat="39.62757679800079" lon="8.95906640171918"><ele>120.0</ele><time>2026-04-04T13:53:15.001Z</time></trkpt><trkpt lat="39.627585265354675" lon="8.959220659176479"><ele>119.25</ele><time>2026-04-04T13:53:16.001Z</time></trkpt><trkpt lat="39.62756425214008" lon="8.959375184474743"><ele>118.5</ele><time>2026-04-04T13:53:17.001Z</time></trkpt><trkpt lat="39.627513951748654" lon="8.959522235805306"><ele>117.75</ele><time>2026-04-04T13:53:18.001Z</time></trkpt><trkpt lat="39.627464373130145" lon="8.959674545259727"><ele>117.0</ele><time>2026-04-04T13:53:19.001Z</time></trkpt><trkpt lat="39.62741782557517" lon="8.959835098444534"><ele>117.0</ele><time>2026-04-04T13:53:20.001Z</time></trkpt><trkpt lat="39.62736984931372" lon="8.959997434243942"><ele>117.0</ele><time>2026-04-04T13:53:21.001Z</time></trkpt><trkpt lat="39.6273219288133" lon="8.960155562118903"><ele>117.0</ele><time>2026-04-04T13:53:22.001Z</time></trkpt><trkpt lat="39.62727940663238" lon="8.960310390341474"><ele>117.0</ele><time>2026-04-04T13:53:23.001Z</time></trkpt><trkpt lat="39.62723671835746" lon="8.96045567167397"><ele>117.0</ele><time>2026-04-04T13:53:24.001Z</time></trkpt><trkpt lat="39.62718855596647" lon="8.96058836023212"><ele>116.99999999999999</ele><time>2026-04-04T13:53:25.001Z</time></trkpt><trkpt lat="39.627136533723046" lon="8.960712792031556"><ele>116.99999999999999</ele><time>2026-04-04T13:53:26.001Z</time></trkpt><trkpt lat="39.627084510351835" lon="8.960826273459016"><ele>117.0</ele><time>2026-04-04T13:53:27.001Z</time></trkpt><trkpt lat="39.62704216968205" lon="8.960918847323573"><ele>117.0</ele><time>2026-04-04T13:53:28.001Z</time></trkpt><trkpt lat="39.627031379357405" lon="8.961007800109348"><ele>117.6</ele><time>2026-04-04T13:53:31.001Z</time></trkpt><trkpt lat="39.62703428391066" lon="8.961123863871517"><ele>118.19999999999999</ele><time>2026-04-04T13:53:34.001Z</time></trkpt><trkpt lat="39.62717501442936" lon="8.961155161591316"><ele>118.8</ele><time>2026-04-04T13:53:35.001Z</time></trkpt><trkpt lat="39.62727510517373" lon="8.961160610889086"><ele>119.4</ele><time>2026-04-04T13:53:36.001Z</time></trkpt><trkpt lat="39.62738738975604" lon="8.961177728059262"><ele>120.0</ele><time>2026-04-04T13:53:37.001Z</time></trkpt><trkpt lat="39.62751857262617" lon="8.961203967746773"><ele>120.0</ele><time>2026-04-04T13:53:38.001Z</time></trkpt><trkpt lat="39.62766672598513" lon="8.961228114671142"><ele>120.0</ele><time>2026-04-04T13:53:39.001Z</time></trkpt><trkpt lat="39.62782920972557" lon="8.961253117658728"><ele>120.0</ele><time>2026-04-04T13:53:40.001Z</time></trkpt><trkpt lat="39.62799984350871" lon="8.961281294066456"><ele>119.33333333333334</ele><time>2026-04-04T13:53:41.001Z</time></trkpt><trkpt lat="39.62817149639918" lon="8.961310721433186"><ele>118.66666666666667</ele><time>2026-04-04T13:53:42.001Z</time></trkpt><trkpt lat="39.62835342889976" lon="8.961343347757152"><ele>118.0</ele><time>2026-04-04T13:53:43.001Z</time></trkpt><trkpt lat="39.62854415996008" lon="8.961378437611012"><ele>118.0</ele><time>2026-04-04T13:53:44.001Z</time></trkpt><trkpt lat="39.62874120959011" lon="8.961411781236995"><ele>118.0</ele><time>2026-04-04T13:53:45.001Z</time></trkpt><trkpt lat="39.62895326059046" lon="8.961443904646275"><ele>118.0</ele><time>2026-04-04T13:53:46.001Z</time></trkpt><trkpt lat="39.62916251573793" lon="8.961478604691735"><ele>118.0</ele><time>2026-04-04T13:53:47.001Z</time></trkpt><trkpt lat="39.62936978039526" lon="8.961517353942273"><ele>118.0</ele><time>2026-04-04T13:53:48.001Z</time></trkpt><trkpt lat="39.62957876078723" lon="8.961554053520679"><ele>118.0</ele><time>2026-04-04T13:53:49.001Z</time></trkpt><trkpt lat="39.62979224849244" lon="8.961589410753005"><ele>118.33333333333334</ele><time>2026-04-04T13:53:50.001Z</time></trkpt><trkpt lat="39.6300112841363" lon="8.96162558046985"><ele>118.66666666666666</ele><time>2026-04-04T13:53:51.001Z</time></trkpt><trkpt lat="39.63021601781027" lon="8.961666793865824"><ele>119.0</ele><time>2026-04-04T13:53:52.001Z</time></trkpt><trkpt lat="39.63043540434996" lon="8.961710120793688"><ele>123.0</ele><time>2026-04-04T13:53:53.001Z</time></trkpt><trkpt lat="39.63065919442563" lon="8.961749716008503"><ele>127.0</ele><time>2026-04-04T13:53:54.001Z</time></trkpt><trkpt lat="39.630889934952506" lon="8.961784109635774"><ele>127.0</ele><time>2026-04-04T13:53:55.001Z</time></trkpt><trkpt lat="39.631122954162485" lon="8.96181987605146"><ele>127.0</ele><time>2026-04-04T13:53:56.001Z</time></trkpt><trkpt lat="39.631359803827934" lon="8.96186494209339"><ele>126.0</ele><time>2026-04-04T13:53:57.001Z</time></trkpt><trkpt lat="39.6316011924072" lon="8.961913037582883"><ele>125.0</ele><time>2026-04-04T13:53:58.001Z</time></trkpt><trkpt lat="39.63184941942376" lon="8.961962262822349"><ele>124.0</ele><time>2026-04-04T13:53:59.001Z</time></trkpt><trkpt lat="39.63210545946707" lon="8.96200606298655"><ele>123.0</ele><time>2026-04-04T13:54:00.001Z</time></trkpt><trkpt lat="39.63236454729782" lon="8.96204846611828"><ele>123.0</ele><time>2026-04-04T13:54:01.001Z</time></trkpt><trkpt lat="39.632623402666084" lon="8.962089357794092"><ele>123.0</ele><time>2026-04-04T13:54:02.001Z</time></trkpt><trkpt lat="39.63287540619482" lon="8.962134154043637"><ele>124.0</ele><time>2026-04-04T13:54:03.001Z</time></trkpt><trkpt lat="39.63312287160571" lon="8.962180576096166"><ele>125.0</ele><time>2026-04-04T13:54:04.001Z</time></trkpt><trkpt lat="39.63336930023837" lon="8.962223507363182"><ele>125.0</ele><time>2026-04-04T13:54:05.001Z</time></trkpt><trkpt lat="39.63361343642469" lon="8.962261057091162"><ele>125.0</ele><time>2026-04-04T13:54:06.001Z</time></trkpt><trkpt lat="39.633853913803385" lon="8.962301236297296"><ele>125.5</ele><time>2026-04-04T13:54:07.001Z</time></trkpt><trkpt lat="39.63409037315008" lon="8.962343925629634"><ele>126.0</ele><time>2026-04-04T13:54:08.001Z</time></trkpt><trkpt lat="39.63432700525596" lon="8.962391074502092"><ele>127.5</ele><time>2026-04-04T13:54:09Z</time></trkpt><trkpt lat="39.634562326745524" lon="8.962435500175665"><ele>129.0</ele><time>2026-04-04T13:54:10Z</time></trkpt><trkpt lat="39.634790465419215" lon="8.96247315131175"><ele>129.0</ele><time>2026-04-04T13:54:11Z</time></trkpt><trkpt lat="39.63501789941506" lon="8.962509194681706"><ele>129.0</ele><time>2026-04-04T13:54:12Z</time></trkpt><trkpt lat="39.63523832559394" lon="8.962544803499549"><ele>126.66666666666666</ele><time>2026-04-04T13:54:13Z</time></trkpt><trkpt lat="39.6354485268042" lon="8.962591073204086"><ele>124.33333333333333</ele><time>2026-04-04T13:54:14Z</time></trkpt><trkpt lat="39.635667559156424" lon="8.962634610156236"><ele>122.0</ele><time>2026-04-04T13:54:15Z</time></trkpt><trkpt lat="39.63588856259984" lon="8.962673075793774"><ele>122.0</ele><time>2026-04-04T13:54:16Z</time></trkpt><trkpt lat="39.63611163617768" lon="8.962708065427753"><ele>122.0</ele><time>2026-04-04T13:54:17Z</time></trkpt><trkpt lat="39.63633309662486" lon="8.962746826300329"><ele>122.0</ele><time>2026-04-04T13:54:18Z</time></trkpt><trkpt lat="39.636555586418886" lon="8.962787794671211"><ele>121.0</ele><time>2026-04-04T13:54:19Z</time></trkpt><trkpt lat="39.6367765423906" lon="8.962830511938987"><ele>120.0</ele><time>2026-04-04T13:54:20Z</time></trkpt><trkpt lat="39.637000087787605" lon="8.96288255021167"><ele>119.5</ele><time>2026-04-04T13:54:21Z</time></trkpt><trkpt lat="39.637221334458076" lon="8.962948697888747"><ele>119.0</ele><time>2026-04-04T13:54:22Z</time></trkpt><trkpt lat="39.63744605430235" lon="8.963023605331124"><ele>119.0</ele><time>2026-04-04T13:54:23Z</time></trkpt><trkpt lat="39.63767163526372" lon="8.963102763511193"><ele>119.0</ele><time>2026-04-04T13:54:24Z</time></trkpt><trkpt lat="39.637896600136294" lon="8.963189603944507"><ele>119.5</ele><time>2026-04-04T13:54:25Z</time></trkpt><trkpt lat="39.63811974686083" lon="8.963289748917168"><ele>120.0</ele><time>2026-04-04T13:54:26Z</time></trkpt><trkpt lat="39.63834064346395" lon="8.963407321916764"><ele>119.0</ele><time>2026-04-04T13:54:27Z</time></trkpt><trkpt lat="39.6385551142546" lon="8.963536450356347"><ele>118.0</ele><time>2026-04-04T13:54:28Z</time></trkpt><trkpt lat="39.63876835664683" lon="8.963677798257311"><ele>118.0</ele><time>2026-04-04T13:54:29Z</time></trkpt><trkpt lat="39.638980697506796" lon="8.963833789081844"><ele>118.0</ele><time>2026-04-04T13:54:30Z</time></trkpt><trkpt lat="39.63918367793949" lon="8.96400214350678"><ele>118.0</ele><time>2026-04-04T13:54:31Z</time></trkpt><trkpt lat="39.639382945180344" lon="8.964181032036574"><ele>118.0</ele><time>2026-04-04T13:54:32Z</time></trkpt><trkpt lat="39.639574176486384" lon="8.9643648215536"><ele>118.5</ele><time>2026-04-04T13:54:33Z</time></trkpt><trkpt lat="39.639764059715624" lon="8.964550231908593"><ele>119.0</ele><time>2026-04-04T13:54:34Z</time></trkpt><trkpt lat="39.63994721643932" lon="8.964731764658401"><ele>119.0</ele><time>2026-04-04T13:54:35Z</time></trkpt><trkpt lat="39.64013191725517" lon="8.964914575097641"><ele>119.0</ele><time>2026-04-04T13:54:36Z</time></trkpt><trkpt lat="39.64031457857494" lon="8.965097083825533"><ele>119.5</ele><time>2026-04-04T13:54:37Z</time></trkpt><trkpt lat="39.640495816809555" lon="8.965280805955913"><ele>120.0</ele><time>2026-04-04T13:54:38Z</time></trkpt><trkpt lat="39.64067720644143" lon="8.965467647613371"><ele>120.0</ele><time>2026-04-04T13:54:39Z</time></trkpt><trkpt lat="39.640856718114975" lon="8.96565598519136"><ele>120.0</ele><time>2026-04-04T13:54:40Z</time></trkpt><trkpt lat="39.641037381056314" lon="8.965847770916199"><ele>120.0</ele><time>2026-04-04T13:54:41Z</time></trkpt><trkpt lat="39.64121718464262" lon="8.96603643992051"><ele>120.0</ele><time>2026-04-04T13:54:42Z</time></trkpt><trkpt lat="39.641400228671486" lon="8.966224760849768"><ele>120.0</ele><time>2026-04-04T13:54:43Z</time></trkpt><trkpt lat="39.64158370441207" lon="8.966411096931807"><ele>120.0</ele><time>2026-04-04T13:54:44Z</time></trkpt><trkpt lat="39.64176977463513" lon="8.966594968393693"><ele>120.0</ele><time>2026-04-04T13:54:45Z</time></trkpt><trkpt lat="39.64195783000078" lon="8.966778189784662"><ele>120.0</ele><time>2026-04-04T13:54:46Z</time></trkpt><trkpt lat="39.642142334749636" lon="8.966965110355174"><ele>121.0</ele><time>2026-04-04T13:54:47Z</time></trkpt><trkpt lat="39.64232528066424" lon="8.967151789718724"><ele>122.0</ele><time>2026-04-04T13:54:48Z</time></trkpt><trkpt lat="39.64250732280139" lon="8.967334049669685"><ele>122.0</ele><time>2026-04-04T13:54:49Z</time></trkpt><trkpt lat="39.64268966504791" lon="8.96751697757315"><ele>122.0</ele><time>2026-04-04T13:54:50Z</time></trkpt><trkpt lat="39.64287138191675" lon="8.967700671650283"><ele>121.5</ele><time>2026-04-04T13:54:51Z</time></trkpt><trkpt lat="39.64305073676153" lon="8.96788654967369"><ele>121.0</ele><time>2026-04-04T13:54:52Z</time></trkpt><trkpt lat="39.64322716219175" lon="8.96807404082395"><ele>121.0</ele><time>2026-04-04T13:54:53Z</time></trkpt><trkpt lat="39.6434056644627" lon="8.968260546936811"><ele>121.0</ele><time>2026-04-04T13:54:54Z</time></trkpt><trkpt lat="39.64358600967231" lon="8.968447298874812"><ele>123.0</ele><time>2026-04-04T13:54:55Z</time></trkpt><trkpt lat="39.643766929335186" lon="8.96863167966809"><ele>125.0</ele><time>2026-04-04T13:54:56Z</time></trkpt><trkpt lat="39.64394549932658" lon="8.968815939440915"><ele>125.0</ele><time>2026-04-04T13:54:57Z</time></trkpt><trkpt lat="39.64412955065548" lon="8.969004613347748"><ele>125.0</ele><time>2026-04-04T13:54:58Z</time></trkpt><trkpt lat="39.644311471747145" lon="8.969193015816542"><ele>126.0</ele><time>2026-04-04T13:54:59Z</time></trkpt><trkpt lat="39.64449372525549" lon="8.969382040578546"><ele>127.0</ele><time>2026-04-04T13:55:00Z</time></trkpt><trkpt lat="39.644680203692126" lon="8.969572676419478"><ele>127.0</ele><time>2026-04-04T13:55:01Z</time></trkpt><trkpt lat="39.64486670920164" lon="8.969759211017287"><ele>127.0</ele><time>2026-04-04T13:55:02Z</time></trkpt><trkpt lat="39.64505460498034" lon="8.969946442066908"><ele>126.0</ele><time>2026-04-04T13:55:03Z</time></trkpt><trkpt lat="39.64524228486041" lon="8.970137929573463"><ele>125.0</ele><time>2026-04-04T13:55:04Z</time></trkpt><trkpt lat="39.645431077333555" lon="8.97033262770837"><ele>127.5</ele><time>2026-04-04T13:55:05Z</time></trkpt><trkpt lat="39.64561958145698" lon="8.97052729725842"><ele>130.0</ele><time>2026-04-04T13:55:06Z</time></trkpt><trkpt lat="39.645802998782955" lon="8.970718339597743"><ele>130.33333333333334</ele><time>2026-04-04T13:55:07Z</time></trkpt><trkpt lat="39.6459788929088" lon="8.970900266658221"><ele>130.66666666666666</ele><time>2026-04-04T13:55:08Z</time></trkpt><trkpt lat="39.64614913015697" lon="8.971077223133747"><ele>131.0</ele><time>2026-04-04T13:55:09Z</time></trkpt><trkpt lat="39.64631622442347" lon="8.97124879339787"><ele>131.0</ele><time>2026-04-04T13:55:10Z</time></trkpt><trkpt lat="39.64648176186133" lon="8.971416763895226"><ele>131.0</ele><time>2026-04-04T13:55:11Z</time></trkpt><trkpt lat="39.64664462798782" lon="8.971581270697754"><ele>131.0</ele><time>2026-04-04T13:55:12Z</time></trkpt><trkpt lat="39.64680276372415" lon="8.971745145324116"><ele>130.66666666666666</ele><time>2026-04-04T13:55:13Z</time></trkpt><trkpt lat="39.646959625342745" lon="8.971906315842162"><ele>130.33333333333334</ele><time>2026-04-04T13:55:14Z</time></trkpt><trkpt lat="39.647112231618614" lon="8.97206523267851"><ele>130.0</ele><time>2026-04-04T13:55:15Z</time></trkpt><trkpt lat="39.6472598926033" lon="8.972222042858021"><ele>131.0</ele><time>2026-04-04T13:55:16Z</time></trkpt><trkpt lat="39.64739991422152" lon="8.97237261129425"><ele>132.0</ele><time>2026-04-04T13:55:17Z</time></trkpt><trkpt lat="39.647535112380396" lon="8.97251283011472"><ele>133.0</ele><time>2026-04-04T13:55:18Z</time></trkpt><trkpt lat="39.647665137407955" lon="8.972636589681173"><ele>133.25</ele><time>2026-04-04T13:55:19Z</time></trkpt><trkpt lat="39.6477914831606" lon="8.972747232237941"><ele>133.5</ele><time>2026-04-04T13:55:20Z</time></trkpt><trkpt lat="39.6479101386925" lon="8.972848935850143"><ele>133.75</ele><time>2026-04-04T13:55:21Z</time></trkpt><trkpt lat="39.648023305990165" lon="8.972950162621629"><ele>134.0</ele><time>2026-04-04T13:55:22Z</time></trkpt><trkpt lat="39.64821587379653" lon="8.973147945077416"><ele>135.0</ele><time>2026-04-04T13:55:24Z</time></trkpt><trkpt lat="39.64828921865944" lon="8.97325883159397"><ele>136.0</ele><time>2026-04-04T13:55:25Z</time></trkpt><trkpt lat="39.648325555105764" lon="8.973400935061239"><ele>137.0</ele><time>2026-04-04T13:55:26Z</time></trkpt><trkpt lat="39.64832044141025" lon="8.973560528449092"><ele>138.0</ele><time>2026-04-04T13:55:27Z</time></trkpt><trkpt lat="39.648266613969675" lon="8.973741860407028"><ele>138.0</ele><time>2026-04-04T13:55:28Z</time></trkpt><trkpt lat="39.64821353755974" lon="8.973930770921486"><ele>138.0</ele><time>2026-04-04T13:55:29Z</time></trkpt><trkpt lat="39.64816581770251" lon="8.974130723651859"><ele>138.0</ele><time>2026-04-04T13:55:30Z</time></trkpt><trkpt lat="39.648116704589036" lon="8.97434734637878"><ele>137.66666666666666</ele><time>2026-04-04T13:55:31Z</time></trkpt><trkpt lat="39.648067138076954" lon="8.974568302504917"><ele>137.33333333333331</ele><time>2026-04-04T13:55:32Z</time></trkpt><trkpt lat="39.648016715025264" lon="8.974804033384078"><ele>137.0</ele><time>2026-04-04T13:55:33Z</time></trkpt><trkpt lat="39.64796746392555" lon="8.975042646079244"><ele>136.33333333333331</ele><time>2026-04-04T13:55:34Z</time></trkpt><trkpt lat="39.647914601105654" lon="8.975289831769082"><ele>135.66666666666666</ele><time>2026-04-04T13:55:35Z</time></trkpt><trkpt lat="39.64785749755953" lon="8.97553760721787"><ele>135.0</ele><time>2026-04-04T13:55:36Z</time></trkpt><trkpt lat="39.647787314005484" lon="8.975785050146333"><ele>132.66666666666666</ele><time>2026-04-04T13:55:37Z</time></trkpt><trkpt lat="39.64770649456403" lon="8.976028034650804"><ele>130.33333333333331</ele><time>2026-04-04T13:55:38Z</time></trkpt><trkpt lat="39.64762336106778" lon="8.976270361429293"><ele>128.0</ele><time>2026-04-04T13:55:39.001Z</time></trkpt><trkpt lat="39.64754415143018" lon="8.976511487171496"><ele>127.33333333333333</ele><time>2026-04-04T13:55:40.001Z</time></trkpt><trkpt lat="39.64747164294904" lon="8.976743258707442"><ele>126.66666666666666</ele><time>2026-04-04T13:55:41.001Z</time></trkpt><trkpt lat="39.64740197830593" lon="8.976968659634139"><ele>126.0</ele><time>2026-04-04T13:55:42.001Z</time></trkpt><trkpt lat="39.647336221579266" lon="8.97718212138685"><ele>126.0</ele><time>2026-04-04T13:55:43.001Z</time></trkpt><trkpt lat="39.64727237914077" lon="8.977388823679602"><ele>126.0</ele><time>2026-04-04T13:55:44.001Z</time></trkpt><trkpt lat="39.647209746113525" lon="8.97759194324519"><ele>126.0</ele><time>2026-04-04T13:55:45.001Z</time></trkpt><trkpt lat="39.647156277291046" lon="8.977793058582414"><ele>126.33333333333334</ele><time>2026-04-04T13:55:46.001Z</time></trkpt><trkpt lat="39.64712960692694" lon="8.978007334472961"><ele>126.66666666666667</ele><time>2026-04-04T13:55:47.001Z</time></trkpt><trkpt lat="39.64712419281854" lon="8.978236646187412"><ele>127.0</ele><time>2026-04-04T13:55:48.001Z</time></trkpt><trkpt lat="39.647135929804236" lon="8.978476228324096"><ele>127.33333333333334</ele><time>2026-04-04T13:55:49.001Z</time></trkpt><trkpt lat="39.64714396024589" lon="8.978716327972254"><ele>127.66666666666666</ele><time>2026-04-04T13:55:50.001Z</time></trkpt><trkpt lat="39.64714973343834" lon="8.978961975958084"><ele>128.0</ele><time>2026-04-04T13:55:51.001Z</time></trkpt><trkpt lat="39.647153587225155" lon="8.979209873905978"><ele>129.66666666666666</ele><time>2026-04-04T13:55:52.001Z</time></trkpt><trkpt lat="39.647156623264536" lon="8.979458759635047"><ele>131.33333333333334</ele><time>2026-04-04T13:55:53.001Z</time></trkpt><trkpt lat="39.64716027225608" lon="8.979711400604941"><ele>133.0</ele><time>2026-04-04T13:55:54.001Z</time></trkpt><trkpt lat="39.64716315092664" lon="8.979964464678218"><ele>135.33333333333334</ele><time>2026-04-04T13:55:55.001Z</time></trkpt><trkpt lat="39.647163530451515" lon="8.980215694145915"><ele>137.66666666666666</ele><time>2026-04-04T13:55:56.001Z</time></trkpt><trkpt lat="39.64716631368094" lon="8.980463710861983"><ele>140.0</ele><time>2026-04-04T13:55:57.001Z</time></trkpt><trkpt lat="39.64718608136948" lon="8.980712651769927"><ele>141.33333333333331</ele><time>2026-04-04T13:55:58.001Z</time></trkpt><trkpt lat="39.64723906521676" lon="8.980952619925361"><ele>142.66666666666666</ele><time>2026-04-04T13:55:59.001Z</time></trkpt><trkpt lat="39.64732644780547" lon="8.981177185404265"><ele>144.0</ele><time>2026-04-04T13:56:00.001Z</time></trkpt><trkpt lat="39.6474189737203" lon="8.981395157760204"><ele>144.0</ele><time>2026-04-04T13:56:01.001Z</time></trkpt><trkpt lat="39.647497493207396" lon="8.981617216555069"><ele>144.0</ele><time>2026-04-04T13:56:02.001Z</time></trkpt><trkpt lat="39.64757417021189" lon="8.981837853341709"><ele>144.0</ele><time>2026-04-04T13:56:03.001Z</time></trkpt><trkpt lat="39.64765571741728" lon="8.982059152712656"><ele>145.25</ele><time>2026-04-04T13:56:04.001Z</time></trkpt><trkpt lat="39.64771002150927" lon="8.982264685304541"><ele>146.5</ele><time>2026-04-04T13:56:05.001Z</time></trkpt><trkpt lat="39.6477584107914" lon="8.982422027462157"><ele>147.75</ele><time>2026-04-04T13:56:06.001Z</time></trkpt><trkpt lat="39.64779003129095" lon="8.98254707916567"><ele>149.0</ele><time>2026-04-04T13:56:07.001Z</time></trkpt><trkpt lat="39.64775925828099" lon="8.98265069730425"><ele>151.2</ele><time>2026-04-04T13:56:08.001Z</time></trkpt><trkpt lat="39.64769315499356" lon="8.982727038012289"><ele>153.4</ele><time>2026-04-04T13:56:09.001Z</time></trkpt><trkpt lat="39.64760178166616" lon="8.98276904375858"><ele>155.6</ele><time>2026-04-04T13:56:10.001Z</time></trkpt><trkpt lat="39.64749431206511" lon="8.98275534770093"><ele>157.8</ele><time>2026-04-04T13:56:11.001Z</time></trkpt><trkpt lat="39.64738091423776" lon="8.982713451069438"><ele>160.0</ele><time>2026-04-04T13:56:12.001Z</time></trkpt><trkpt lat="39.64726487011331" lon="8.982664696231277"><ele>160.0</ele><time>2026-04-04T13:56:13.001Z</time></trkpt><trkpt lat="39.64713912155724" lon="8.982614813027206"><ele>160.0</ele><time>2026-04-04T13:56:14.001Z</time></trkpt><trkpt lat="39.64700133288974" lon="8.982568399978902"><ele>160.0</ele><time>2026-04-04T13:56:15Z</time></trkpt><trkpt lat="39.646851053581834" lon="8.982542517961273"><ele>160.0</ele><time>2026-04-04T13:56:16Z</time></trkpt><trkpt lat="39.64668299223154" lon="8.982536827090728"><ele>163.0</ele><time>2026-04-04T13:56:17Z</time></trkpt><trkpt lat="39.646506800834054" lon="8.98254346900221"><ele>166.0</ele><time>2026-04-04T13:56:18Z</time></trkpt><trkpt lat="39.646323150604644" lon="8.982549586815633"><ele>169.0</ele><time>2026-04-04T13:56:19Z</time></trkpt><trkpt lat="39.646150576392714" lon="8.982552977645074"><ele>170.66666666666669</ele><time>2026-04-04T13:56:20Z</time></trkpt><trkpt lat="39.64597729449601" lon="8.982555402150243"><ele>172.33333333333334</ele><time>2026-04-04T13:56:21Z</time></trkpt><trkpt lat="39.64580525438226" lon="8.982558830207543"><ele>174.0</ele><time>2026-04-04T13:56:22Z</time></trkpt><trkpt lat="39.64562741800627" lon="8.982558756482684"><ele>174.0</ele><time>2026-04-04T13:56:23Z</time></trkpt><trkpt lat="39.645446945112404" lon="8.982553966004456"><ele>174.0</ele><time>2026-04-04T13:56:24Z</time></trkpt><trkpt lat="39.64526454823407" lon="8.982570407902738"><ele>174.0</ele><time>2026-04-04T13:56:25Z</time></trkpt><trkpt lat="39.6450897931508" lon="8.982624031332909"><ele>171.66666666666666</ele><time>2026-04-04T13:56:26Z</time></trkpt><trkpt lat="39.64492633289328" lon="8.98272058482936"><ele>169.33333333333331</ele><time>2026-04-04T13:56:27Z</time></trkpt><trkpt lat="39.64475191441281" lon="8.982802887028786"><ele>167.0</ele><time>2026-04-04T13:56:28Z</time></trkpt><trkpt lat="39.644567312140566" lon="8.982902430826252"><ele>166.33333333333331</ele><time>2026-04-04T13:56:29Z</time></trkpt><trkpt lat="39.644405585993525" lon="8.982996951544575"><ele>165.66666666666666</ele><time>2026-04-04T13:56:30Z</time></trkpt><trkpt lat="39.64423621000848" lon="8.983081176741491"><ele>165.0</ele><time>2026-04-04T13:56:31Z</time></trkpt><trkpt lat="39.64405625688372" lon="8.983168052189727"><ele>165.0</ele><time>2026-04-04T13:56:32Z</time></trkpt><trkpt lat="39.64389573361166" lon="8.98325671334477"><ele>165.0</ele><time>2026-04-04T13:56:33Z</time></trkpt><trkpt lat="39.64373897468972" lon="8.983340442223662"><ele>165.0</ele><time>2026-04-04T13:56:34Z</time></trkpt><trkpt lat="39.64359572716168" lon="8.983409644496819"><ele>167.6</ele><time>2026-04-04T13:56:35Z</time></trkpt><trkpt lat="39.64347709233111" lon="8.983464681946524"><ele>170.2</ele><time>2026-04-04T13:56:36Z</time></trkpt><trkpt lat="39.64339741808247" lon="8.983518492274136"><ele>172.8</ele><time>2026-04-04T13:56:37Z</time></trkpt><trkpt lat="39.643356361280304" lon="8.983582986132733"><ele>175.4</ele><time>2026-04-04T13:56:38Z</time></trkpt><trkpt lat="39.64336081937553" lon="8.983745832092472"><ele>178.0</ele><time>2026-04-04T13:56:40Z</time></trkpt><trkpt lat="39.643393891477125" lon="8.983840296795641"><ele>178.0</ele><time>2026-04-04T13:56:41Z</time></trkpt><trkpt lat="39.6434620828906" lon="8.98393133473512"><ele>178.0</ele><time>2026-04-04T13:56:42Z</time></trkpt><trkpt lat="39.64354362426489" lon="8.984020320203024"><ele>178.0</ele><time>2026-04-04T13:56:43Z</time></trkpt><trkpt lat="39.64363208326838" lon="8.984115963230368"><ele>178.0</ele><time>2026-04-04T13:56:44Z</time></trkpt><trkpt lat="39.643717675436285" lon="8.984243304700794"><ele>179.0</ele><time>2026-04-04T13:56:45Z</time></trkpt><trkpt lat="39.64382365475734" lon="8.984364960193897"><ele>180.0</ele><time>2026-04-04T13:56:46Z</time></trkpt><trkpt lat="39.64391864371642" lon="8.984503412992211"><ele>181.0</ele><time>2026-04-04T13:56:47Z</time></trkpt><trkpt lat="39.64400659345229" lon="8.98465354563692"><ele>182.0</ele><time>2026-04-04T13:56:48Z</time></trkpt><trkpt lat="39.64409320962482" lon="8.98481042146628"><ele>182.0</ele><time>2026-04-04T13:56:49Z</time></trkpt><trkpt lat="39.6441697691047" lon="8.984986136921865"><ele>182.0</ele><time>2026-04-04T13:56:50Z</time></trkpt><trkpt lat="39.64421119028986" lon="8.985190810225356"><ele>182.0</ele><time>2026-04-04T13:56:51Z</time></trkpt><trkpt lat="39.64425381065614" lon="8.985401902533594"><ele>185.33333333333331</ele><time>2026-04-04T13:56:52Z</time></trkpt><trkpt lat="39.64430754013597" lon="8.985618954886208"><ele>188.66666666666666</ele><time>2026-04-04T13:56:53Z</time></trkpt><trkpt lat="39.644336775047414" lon="8.985852298828863"><ele>192.0</ele><time>2026-04-04T13:56:54Z</time></trkpt><trkpt lat="39.644378300069164" lon="8.986064900813018"><ele>194.33333333333331</ele><time>2026-04-04T13:56:55Z</time></trkpt><trkpt lat="39.644409537354235" lon="8.986258080755375"><ele>196.66666666666666</ele><time>2026-04-04T13:56:56Z</time></trkpt><trkpt lat="39.64441812436238" lon="8.986450877638575"><ele>199.0</ele><time>2026-04-04T13:56:57Z</time></trkpt><trkpt lat="39.64440465188988" lon="8.986654604348512"><ele>200.0</ele><time>2026-04-04T13:56:58Z</time></trkpt><trkpt lat="39.64437914976418" lon="8.98687108857994"><ele>201.0</ele><time>2026-04-04T13:56:59Z</time></trkpt><trkpt lat="39.64435596765085" lon="8.98709332465322"><ele>202.0</ele><time>2026-04-04T13:57:00Z</time></trkpt><trkpt lat="39.64433904167042" lon="8.987314987812022"><ele>203.66666666666666</ele><time>2026-04-04T13:57:01Z</time></trkpt><trkpt lat="39.644320990877006" lon="8.987539721590913"><ele>205.33333333333331</ele><time>2026-04-04T13:57:02Z</time></trkpt><trkpt lat="39.644303415471406" lon="8.987763111902233"><ele>207.0</ele><time>2026-04-04T13:57:03Z</time></trkpt><trkpt lat="39.644285064446734" lon="8.98798236432723"><ele>207.0</ele><time>2026-04-04T13:57:04Z</time></trkpt><trkpt lat="39.6442669761274" lon="8.988204553830832"><ele>207.0</ele><time>2026-04-04T13:57:05Z</time></trkpt><trkpt lat="39.64426394707608" lon="8.988427561306327"><ele>207.0</ele><time>2026-04-04T13:57:06Z</time></trkpt><trkpt lat="39.64429856102845" lon="8.988643860748384"><ele>206.33333333333331</ele><time>2026-04-04T13:57:07Z</time></trkpt><trkpt lat="39.64437536758701" lon="8.988849738812785"><ele>205.66666666666666</ele><time>2026-04-04T13:57:08Z</time></trkpt><trkpt lat="39.6444791777058" lon="8.989049044372782"><ele>205.0</ele><time>2026-04-04T13:57:09Z</time></trkpt><trkpt lat="39.64457219131515" lon="8.989257371012801"><ele>205.0</ele><time>2026-04-04T13:57:10Z</time></trkpt><trkpt lat="39.644647183390525" lon="8.989478355808643"><ele>205.0</ele><time>2026-04-04T13:57:11Z</time></trkpt><trkpt lat="39.64470547193122" lon="8.989713863553384"><ele>205.0</ele><time>2026-04-04T13:57:12Z</time></trkpt><trkpt lat="39.64474078425456" lon="8.98995740753162"><ele>206.0</ele><time>2026-04-04T13:57:13Z</time></trkpt><trkpt lat="39.64475429367142" lon="8.990205943599566"><ele>207.0</ele><time>2026-04-04T13:57:14Z</time></trkpt><trkpt lat="39.644737351655166" lon="8.990458831434944"><ele>208.0</ele><time>2026-04-04T13:57:15Z</time></trkpt><trkpt lat="39.644699057337895" lon="8.990705162298287"><ele>208.66666666666666</ele><time>2026-04-04T13:57:16Z</time></trkpt><trkpt lat="39.64464107827062" lon="8.990948691346913"><ele>209.33333333333331</ele><time>2026-04-04T13:57:17Z</time></trkpt><trkpt lat="39.64454419671329" lon="8.991167570980023"><ele>210.0</ele><time>2026-04-04T13:57:18Z</time></trkpt><trkpt lat="39.64443922802567" lon="8.991378445323342"><ele>216.0</ele><time>2026-04-04T13:57:19Z</time></trkpt><trkpt lat="39.644338007866516" lon="8.991585927818907"><ele>222.0</ele><time>2026-04-04T13:57:20Z</time></trkpt><trkpt lat="39.64421938554501" lon="8.991774844730037"><ele>228.0</ele><time>2026-04-04T13:57:21Z</time></trkpt><trkpt lat="39.644118497358534" lon="8.99195734174959"><ele>228.0</ele><time>2026-04-04T13:57:22Z</time></trkpt><trkpt lat="39.64402747375899" lon="8.992123865282824"><ele>228.0</ele><time>2026-04-04T13:57:23Z</time></trkpt><trkpt lat="39.64397737002377" lon="8.992273895082668"><ele>228.0</ele><time>2026-04-04T13:57:24Z</time></trkpt><trkpt lat="39.6439765765114" lon="8.992427265803888"><ele>228.0</ele><time>2026-04-04T13:57:25Z</time></trkpt><trkpt lat="39.644031748537685" lon="8.99255768816818"><ele>231.25</ele><time>2026-04-04T13:57:26Z</time></trkpt><trkpt lat="39.644123378747544" lon="8.99265798547587"><ele>234.5</ele><time>2026-04-04T13:57:27Z</time></trkpt><trkpt lat="39.644241509837414" lon="8.992739461908334"><ele>237.75</ele><time>2026-04-04T13:57:28Z</time></trkpt><trkpt lat="39.6443520500134" lon="8.99283354688294"><ele>241.0</ele><time>2026-04-04T13:57:29Z</time></trkpt><trkpt lat="39.64443198259025" lon="8.992968791915654"><ele>238.25</ele><time>2026-04-04T13:57:30Z</time></trkpt><trkpt lat="39.64448507647174" lon="8.993133565700036"><ele>235.5</ele><time>2026-04-04T13:57:31Z</time></trkpt><trkpt lat="39.64449926914068" lon="8.993316671429836"><ele>232.75</ele><time>2026-04-04T13:57:32Z</time></trkpt><trkpt lat="39.64452462402886" lon="8.993502148477763"><ele>230.0</ele><time>2026-04-04T13:57:33Z</time></trkpt><trkpt lat="39.6445172342631" lon="8.993694494944606"><ele>230.0</ele><time>2026-04-04T13:57:34Z</time></trkpt><trkpt lat="39.64450477017152" lon="8.993892542830924"><ele>230.0</ele><time>2026-04-04T13:57:35Z</time></trkpt><trkpt lat="39.64449156084996" lon="8.994095169789885"><ele>230.0</ele><time>2026-04-04T13:57:36Z</time></trkpt><trkpt lat="39.64447533244727" lon="8.994301551863362"><ele>237.33333333333334</ele><time>2026-04-04T13:57:37Z</time></trkpt><trkpt lat="39.64445256993687" lon="8.994511718114406"><ele>244.66666666666669</ele><time>2026-04-04T13:57:38Z</time></trkpt><trkpt lat="39.64440852262568" lon="8.99471682228324"><ele>252.0</ele><time>2026-04-04T13:57:39Z</time></trkpt><trkpt lat="39.64434324371275" lon="8.99492375850928"><ele>251.0</ele><time>2026-04-04T13:57:40Z</time></trkpt><trkpt lat="39.64427438969895" lon="8.995117590042833"><ele>250.0</ele><time>2026-04-04T13:57:41Z</time></trkpt><trkpt lat="39.64420741508139" lon="8.995312550308455"><ele>249.0</ele><time>2026-04-04T13:57:42Z</time></trkpt><trkpt lat="39.64414303279757" lon="8.995513152702518"><ele>249.0</ele><time>2026-04-04T13:57:43Z</time></trkpt><trkpt lat="39.64409428086376" lon="8.995727055634838"><ele>249.0</ele><time>2026-04-04T13:57:44Z</time></trkpt><trkpt lat="39.64406139724239" lon="8.99595295018715"><ele>249.0</ele><time>2026-04-04T13:57:45Z</time></trkpt><trkpt lat="39.644030049378244" lon="8.99618108493717"><ele>251.0</ele><time>2026-04-04T13:57:46Z</time></trkpt><trkpt lat="39.643995339013934" lon="8.99640990251555"><ele>253.0</ele><time>2026-04-04T13:57:47Z</time></trkpt><trkpt lat="39.643958787673654" lon="8.996635583037456"><ele>255.0</ele><time>2026-04-04T13:57:48Z</time></trkpt><trkpt lat="39.64390823922721" lon="8.996850780625852"><ele>256.6666666666667</ele><time>2026-04-04T13:57:49.001Z</time></trkpt><trkpt lat="39.64383038352318" lon="8.997049343509088"><ele>258.33333333333337</ele><time>2026-04-04T13:57:50.001Z</time></trkpt><trkpt lat="39.64373515899318" lon="8.99723313950454"><ele>260.0</ele><time>2026-04-04T13:57:51.001Z</time></trkpt><trkpt lat="39.643643606752875" lon="8.997425446171091"><ele>261.6666666666667</ele><time>2026-04-04T13:57:52.001Z</time></trkpt><trkpt lat="39.643560036670394" lon="8.99762644229609"><ele>263.3333333333333</ele><time>2026-04-04T13:57:53.001Z</time></trkpt><trkpt lat="39.643471760645895" lon="8.997829115836309"><ele>265.0</ele><time>2026-04-04T13:57:54.001Z</time></trkpt><trkpt lat="39.643379414568834" lon="8.998025911954295"><ele>265.0</ele><time>2026-04-04T13:57:55.001Z</time></trkpt><trkpt lat="39.64328885857025" lon="8.998223852601337"><ele>265.0</ele><time>2026-04-04T13:57:56.001Z</time></trkpt><trkpt lat="39.643203859041236" lon="8.998423669327725"><ele>265.0</ele><time>2026-04-04T13:57:57.001Z</time></trkpt><trkpt lat="39.64312536534948" lon="8.998622598777406"><ele>265.66666666666663</ele><time>2026-04-04T13:57:58.001Z</time></trkpt><trkpt lat="39.643050550958996" lon="8.998821015141468"><ele>266.3333333333333</ele><time>2026-04-04T13:57:59.001Z</time></trkpt><trkpt lat="39.64298098288179" lon="8.999014360390676"><ele>267.0</ele><time>2026-04-04T13:58:00.001Z</time></trkpt><trkpt lat="39.64291746100395" lon="8.999205320147476"><ele>268.25</ele><time>2026-04-04T13:58:01.001Z</time></trkpt><trkpt lat="39.6428591902411" lon="8.999386549198809"><ele>269.5</ele><time>2026-04-04T13:58:02.001Z</time></trkpt><trkpt lat="39.642807264905834" lon="8.99955904109696"><ele>270.75</ele><time>2026-04-04T13:58:03.001Z</time></trkpt><trkpt lat="39.642758608640236" lon="8.999724463539588"><ele>272.0</ele><time>2026-04-04T13:58:04.001Z</time></trkpt><trkpt lat="39.64270838509419" lon="8.99988459915684"><ele>272.25</ele><time>2026-04-04T13:58:05.001Z</time></trkpt><trkpt lat="39.642651569636975" lon="9.000039489778407"><ele>272.5</ele><time>2026-04-04T13:58:06.001Z</time></trkpt><trkpt lat="39.642588234317856" lon="9.00019058444651"><ele>272.75</ele><time>2026-04-04T13:58:07.001Z</time></trkpt><trkpt lat="39.64251914547568" lon="9.000330735914467"><ele>273.0</ele><time>2026-04-04T13:58:08.001Z</time></trkpt><trkpt lat="39.6424471855281" lon="9.00046307011729"><ele>273.0</ele><time>2026-04-04T13:58:09.001Z</time></trkpt><trkpt lat="39.64237612235517" lon="9.000592274966422"><ele>273.0</ele><time>2026-04-04T13:58:10.001Z</time></trkpt><trkpt lat="39.642307088548684" lon="9.000725749195569"><ele>273.0</ele><time>2026-04-04T13:58:11.001Z</time></trkpt><trkpt lat="39.642238615280654" lon="9.000861528917543"><ele>273.0</ele><time>2026-04-04T13:58:12.001Z</time></trkpt><trkpt lat="39.642170744769565" lon="9.000999715715777"><ele>274.3333333333333</ele><time>2026-04-04T13:58:13.001Z</time></trkpt><trkpt lat="39.6421007572297" lon="9.001139839600317"><ele>275.66666666666663</ele><time>2026-04-04T13:58:14.001Z</time></trkpt><trkpt lat="39.64195648458018" lon="9.001431083333244"><ele>277.0</ele><time>2026-04-04T13:58:16.001Z</time></trkpt><trkpt lat="39.641880214050154" lon="9.001580944884093"><ele>277.75</ele><time>2026-04-04T13:58:17.001Z</time></trkpt><trkpt lat="39.64179970115131" lon="9.00173006159316"><ele>278.5</ele><time>2026-04-04T13:58:18.001Z</time></trkpt><trkpt lat="39.64171793985598" lon="9.00187915048029"><ele>279.25</ele><time>2026-04-04T13:58:19.001Z</time></trkpt><trkpt lat="39.641633911229995" lon="9.002031282823154"><ele>280.0</ele><time>2026-04-04T13:58:20.001Z</time></trkpt><trkpt lat="39.641550277547" lon="9.002187161760377"><ele>280.0</ele><time>2026-04-04T13:58:21Z</time></trkpt><trkpt lat="39.64146497294303" lon="9.002341570630849"><ele>280.0</ele><time>2026-04-04T13:58:22Z</time></trkpt><trkpt lat="39.64138327919019" lon="9.002501265010837"><ele>280.0</ele><time>2026-04-04T13:58:23Z</time></trkpt><trkpt lat="39.64130970400798" lon="9.00266138524554"><ele>280.0</ele><time>2026-04-04T13:58:24Z</time></trkpt><trkpt lat="39.64125171809723" lon="9.002822920150297"><ele>280.0</ele><time>2026-04-04T13:58:25Z</time></trkpt><trkpt lat="39.641229515308154" lon="9.002996333406731"><ele>280.0</ele><time>2026-04-04T13:58:26Z</time></trkpt><trkpt lat="39.641241608266355" lon="9.003173099663153"><ele>280.0</ele><time>2026-04-04T13:58:27Z</time></trkpt><trkpt lat="39.641299658434455" lon="9.003346568612654"><ele>280.0</ele><time>2026-04-04T13:58:28Z</time></trkpt><trkpt lat="39.64138175694483" lon="9.003520394973119"><ele>280.0</ele><time>2026-04-04T13:58:29Z</time></trkpt><trkpt lat="39.64145805164212" lon="9.003697779297145"><ele>280.0</ele><time>2026-04-04T13:58:30Z</time></trkpt><trkpt lat="39.64153186011781" lon="9.003880930967982"><ele>280.0</ele><time>2026-04-04T13:58:31Z</time></trkpt><trkpt lat="39.641605197018855" lon="9.004065107109911"><ele>279.3333333333333</ele><time>2026-04-04T13:58:32Z</time></trkpt><trkpt lat="39.64168009547321" lon="9.004256868252535"><ele>278.6666666666667</ele><time>2026-04-04T13:58:33Z</time></trkpt><trkpt lat="39.641756230926944" lon="9.004452094898914"><ele>278.0</ele><time>2026-04-04T13:58:34Z</time></trkpt><trkpt lat="39.64183409823886" lon="9.0046477281269"><ele>278.0</ele><time>2026-04-04T13:58:35Z</time></trkpt><trkpt lat="39.64191560281225" lon="9.004844231668782"><ele>278.0</ele><time>2026-04-04T13:58:36Z</time></trkpt><trkpt lat="39.64199888705591" lon="9.005042932786447"><ele>278.0</ele><time>2026-04-04T13:58:37Z</time></trkpt><trkpt lat="39.642070426169234" lon="9.005254021169412"><ele>276.6666666666667</ele><time>2026-04-04T13:58:38Z</time></trkpt><trkpt lat="39.64216992519313" lon="9.005446596379471"><ele>275.3333333333333</ele><time>2026-04-04T13:58:39Z</time></trkpt><trkpt lat="39.64225490137954" lon="9.005652657011789"><ele>274.0</ele><time>2026-04-04T13:58:40Z</time></trkpt><trkpt lat="39.642338889676296" lon="9.005856624770463"><ele>272.3333333333333</ele><time>2026-04-04T13:58:41Z</time></trkpt><trkpt lat="39.642423466622304" lon="9.00606041041516"><ele>270.6666666666667</ele><time>2026-04-04T13:58:42Z</time></trkpt><trkpt lat="39.642511254253826" lon="9.006265586801929"><ele>269.0</ele><time>2026-04-04T13:58:43Z</time></trkpt><trkpt lat="39.642600314152205" lon="9.00647287401686"><ele>269.33333333333337</ele><time>2026-04-04T13:58:44Z</time></trkpt><trkpt lat="39.64268610191457" lon="9.006678224888264"><ele>269.6666666666667</ele><time>2026-04-04T13:58:45Z</time></trkpt><trkpt lat="39.642771181608865" lon="9.006883930057215"><ele>270.0</ele><time>2026-04-04T13:58:46Z</time></trkpt><trkpt lat="39.642854007919276" lon="9.007080838642093"><ele>271.6666666666667</ele><time>2026-04-04T13:58:47Z</time></trkpt><trkpt lat="39.64293512555869" lon="9.007269518901568"><ele>273.33333333333337</ele><time>2026-04-04T13:58:48Z</time></trkpt><trkpt lat="39.64299937519669" lon="9.00745805267637"><ele>275.0</ele><time>2026-04-04T13:58:49Z</time></trkpt><trkpt lat="39.64306932415727" lon="9.007627399058123"><ele>275.25</ele><time>2026-04-04T13:58:50Z</time></trkpt><trkpt lat="39.643129581003336" lon="9.007765904105051"><ele>275.5</ele><time>2026-04-04T13:58:51Z</time></trkpt><trkpt lat="39.643140851458824" lon="9.00789254013878"><ele>275.75</ele><time>2026-04-04T13:58:52Z</time></trkpt><trkpt lat="39.64314208197308" lon="9.007990139339357"><ele>276.0</ele><time>2026-04-04T13:58:53Z</time></trkpt><trkpt lat="39.642950700856154" lon="9.008162161346641"><ele>276.0</ele><time>2026-04-04T13:58:55Z</time></trkpt><trkpt lat="39.642828967442306" lon="9.00822413007852"><ele>276.0</ele><time>2026-04-04T13:58:56Z</time></trkpt><trkpt lat="39.642689922561885" lon="9.00830669765865"><ele>276.0</ele><time>2026-04-04T13:58:57Z</time></trkpt><trkpt lat="39.64254218264602" lon="9.008399926862692"><ele>276.0</ele><time>2026-04-04T13:58:58Z</time></trkpt><trkpt lat="39.64237974751792" lon="9.008500850597496"><ele>274.3333333333333</ele><time>2026-04-04T13:58:59Z</time></trkpt><trkpt lat="39.64220987363605" lon="9.008603273918975"><ele>272.66666666666663</ele><time>2026-04-04T13:59:00Z</time></trkpt><trkpt lat="39.64202854858412" lon="9.008715459231992"><ele>271.0</ele><time>2026-04-04T13:59:01Z</time></trkpt><trkpt lat="39.641840769647814" lon="9.00883471178706"><ele>268.66666666666663</ele><time>2026-04-04T13:59:02Z</time></trkpt><trkpt lat="39.641647277286545" lon="9.008955841070353"><ele>266.3333333333333</ele><time>2026-04-04T13:59:03Z</time></trkpt><trkpt lat="39.64145689147511" lon="9.00907111051035"><ele>264.0</ele><time>2026-04-04T13:59:04Z</time></trkpt><trkpt lat="39.64125766459027" lon="9.00919339435663"><ele>262.0</ele><time>2026-04-04T13:59:05Z</time></trkpt><trkpt lat="39.64105869304215" lon="9.009319379522525"><ele>260.0</ele><time>2026-04-04T13:59:06Z</time></trkpt><trkpt lat="39.64085551490172" lon="9.009444417561271"><ele>258.0</ele><time>2026-04-04T13:59:07Z</time></trkpt><trkpt lat="39.64065105691025" lon="9.009570611064708"><ele>258.0</ele><time>2026-04-04T13:59:08Z</time></trkpt><trkpt lat="39.640446117791974" lon="9.009696342637929"><ele>258.0</ele><time>2026-04-04T13:59:09Z</time></trkpt><trkpt lat="39.64024190990718" lon="9.009822745010982"><ele>257.0</ele><time>2026-04-04T13:59:10Z</time></trkpt><trkpt lat="39.64003874081706" lon="9.009949123863896"><ele>256.0</ele><time>2026-04-04T13:59:11Z</time></trkpt><trkpt lat="39.63983571101933" lon="9.010078443241321"><ele>255.0</ele><time>2026-04-04T13:59:12Z</time></trkpt><trkpt lat="39.63963163954974" lon="9.01020730589089"><ele>254.0</ele><time>2026-04-04T13:59:13Z</time></trkpt><trkpt lat="39.639429507705444" lon="9.010332103196529"><ele>253.0</ele><time>2026-04-04T13:59:14Z</time></trkpt><trkpt lat="39.63922969673933" lon="9.010456102951533"><ele>252.0</ele><time>2026-04-04T13:59:15Z</time></trkpt><trkpt lat="39.63903039455771" lon="9.010578024921825"><ele>251.0</ele><time>2026-04-04T13:59:16Z</time></trkpt><trkpt lat="39.63883504871942" lon="9.010692103731843"><ele>251.0</ele><time>2026-04-04T13:59:17Z</time></trkpt><trkpt lat="39.63863593952899" lon="9.010791624438165"><ele>251.0</ele><time>2026-04-04T13:59:18Z</time></trkpt><trkpt lat="39.63843189101194" lon="9.010874490285273"><ele>251.0</ele><time>2026-04-04T13:59:19Z</time></trkpt><trkpt lat="39.63822116381822" lon="9.010938639431888"><ele>250.0</ele><time>2026-04-04T13:59:20Z</time></trkpt><trkpt lat="39.63800422690894" lon="9.01098481874288"><ele>249.0</ele><time>2026-04-04T13:59:21Z</time></trkpt><trkpt lat="39.63778741012877" lon="9.01102777889429"><ele>248.0</ele><time>2026-04-04T13:59:22Z</time></trkpt><trkpt lat="39.6375655240484" lon="9.011066757610434"><ele>248.0</ele><time>2026-04-04T13:59:23Z</time></trkpt><trkpt lat="39.637342814898865" lon="9.011103920051472"><ele>248.0</ele><time>2026-04-04T13:59:24Z</time></trkpt><trkpt lat="39.637129113261224" lon="9.011143182231447"><ele>248.0</ele><time>2026-04-04T13:59:25Z</time></trkpt><trkpt lat="39.636914985707186" lon="9.011186235957473"><ele>247.33333333333334</ele><time>2026-04-04T13:59:26Z</time></trkpt><trkpt lat="39.63670368917957" lon="9.011235992235923"><ele>246.66666666666669</ele><time>2026-04-04T13:59:27Z</time></trkpt><trkpt lat="39.63648880224002" lon="9.011305780602482"><ele>246.0</ele><time>2026-04-04T13:59:28Z</time></trkpt><trkpt lat="39.636281163767066" lon="9.011391568269453"><ele>246.33333333333331</ele><time>2026-04-04T13:59:29Z</time></trkpt><trkpt lat="39.636080418340185" lon="9.0115006291794"><ele>246.66666666666666</ele><time>2026-04-04T13:59:30Z</time></trkpt><trkpt lat="39.63588213674876" lon="9.011628882826075"><ele>247.0</ele><time>2026-04-04T13:59:31Z</time></trkpt><trkpt lat="39.63569596593786" lon="9.011782991346786"><ele>248.66666666666666</ele><time>2026-04-04T13:59:32Z</time></trkpt><trkpt lat="39.635520528936624" lon="9.01195562632507"><ele>250.33333333333331</ele><time>2026-04-04T13:59:33Z</time></trkpt><trkpt lat="39.635348244275484" lon="9.012145224797324"><ele>252.0</ele><time>2026-04-04T13:59:34Z</time></trkpt><trkpt lat="39.63518519469863" lon="9.012345127150063"><ele>256.5</ele><time>2026-04-04T13:59:35Z</time></trkpt><trkpt lat="39.63503274757649" lon="9.012565433141072"><ele>261.0</ele><time>2026-04-04T13:59:36Z</time></trkpt><trkpt lat="39.63488143160663" lon="9.012784359105936"><ele>261.0</ele><time>2026-04-04T13:59:37Z</time></trkpt><trkpt lat="39.634738121679575" lon="9.013005825288507"><ele>261.0</ele><time>2026-04-04T13:59:38Z</time></trkpt><trkpt lat="39.63458801438864" lon="9.013216367973106"><ele>261.0</ele><time>2026-04-04T13:59:39Z</time></trkpt><trkpt lat="39.63444256183976" lon="9.013428851318947"><ele>258.6666666666667</ele><time>2026-04-04T13:59:40Z</time></trkpt><trkpt lat="39.63429972607446" lon="9.01364882745387"><ele>256.33333333333337</ele><time>2026-04-04T13:59:41Z</time></trkpt><trkpt lat="39.63415729239415" lon="9.013869623162236"><ele>254.0</ele><time>2026-04-04T13:59:42Z</time></trkpt><trkpt lat="39.63401318286612" lon="9.014078586530797"><ele>254.0</ele><time>2026-04-04T13:59:43Z</time></trkpt><trkpt lat="39.633856054206554" lon="9.014278281484748"><ele>254.0</ele><time>2026-04-04T13:59:44Z</time></trkpt><trkpt lat="39.633691751187776" lon="9.014462301682364"><ele>254.0</ele><time>2026-04-04T13:59:45Z</time></trkpt><trkpt lat="39.63351613120959" lon="9.014638264614213"><ele>254.0</ele><time>2026-04-04T13:59:46Z</time></trkpt><trkpt lat="39.63333400758353" lon="9.014799010844285"><ele>254.0</ele><time>2026-04-04T13:59:47Z</time></trkpt><trkpt lat="39.63314158621712" lon="9.014940332096772"><ele>254.0</ele><time>2026-04-04T13:59:48Z</time></trkpt><trkpt lat="39.63294029396304" lon="9.015059935911665"><ele>257.0</ele><time>2026-04-04T13:59:49Z</time></trkpt><trkpt lat="39.63273245675726" lon="9.01515941002422"><ele>260.0</ele><time>2026-04-04T13:59:50Z</time></trkpt><trkpt lat="39.63252126233047" lon="9.015241983668393"><ele>263.0</ele><time>2026-04-04T13:59:51Z</time></trkpt><trkpt lat="39.632309337633025" lon="9.015322003721032"><ele>263.0</ele><time>2026-04-04T13:59:52.001Z</time></trkpt><trkpt lat="39.63209499290812" lon="9.015400233103506"><ele>263.0</ele><time>2026-04-04T13:59:53.001Z</time></trkpt><trkpt lat="39.63187898577571" lon="9.015478806093691"><ele>263.0</ele><time>2026-04-04T13:59:54.001Z</time></trkpt><trkpt lat="39.63166261333538" lon="9.015556932626003"><ele>264.5</ele><time>2026-04-04T13:59:55.001Z</time></trkpt><trkpt lat="39.63144419958876" lon="9.015632432177991"><ele>266.0</ele><time>2026-04-04T13:59:56.001Z</time></trkpt><trkpt lat="39.631225304123966" lon="9.015708305110865"><ele>265.5</ele><time>2026-04-04T13:59:57.001Z</time></trkpt><trkpt lat="39.63100478978249" lon="9.015787229896247"><ele>265.0</ele><time>2026-04-04T13:59:58.001Z</time></trkpt><trkpt lat="39.63078459699823" lon="9.015866393758857"><ele>267.0</ele><time>2026-04-04T13:59:59.001Z</time></trkpt><trkpt lat="39.63056138422996" lon="9.015945666309674"><ele>269.0</ele><time>2026-04-04T14:00:00.001Z</time></trkpt><trkpt lat="39.630334351500345" lon="9.016026814305272"><ele>267.5</ele><time>2026-04-04T14:00:01.001Z</time></trkpt><trkpt lat="39.63010807082396" lon="9.016108171676656"><ele>266.0</ele><time>2026-04-04T14:00:02.001Z</time></trkpt><trkpt lat="39.629880339716955" lon="9.01618809394483"><ele>266.0</ele><time>2026-04-04T14:00:03.001Z</time></trkpt><trkpt lat="39.62965350830873" lon="9.01626782676566"><ele>266.0</ele><time>2026-04-04T14:00:04.001Z</time></trkpt><trkpt lat="39.6294263096624" lon="9.016350019871295"><ele>264.5</ele><time>2026-04-04T14:00:05.001Z</time></trkpt><trkpt lat="39.629201844804186" lon="9.016432926531676"><ele>263.0</ele><time>2026-04-04T14:00:06.001Z</time></trkpt><trkpt lat="39.62897855284204" lon="9.0165108515871"><ele>263.0</ele><time>2026-04-04T14:00:07.001Z</time></trkpt><trkpt lat="39.62875460915019" lon="9.016576597601423"><ele>263.0</ele><time>2026-04-04T14:00:08.001Z</time></trkpt><trkpt lat="39.62852834052025" lon="9.016628538029874"><ele>259.0</ele><time>2026-04-04T14:00:09.001Z</time></trkpt><trkpt lat="39.62830466057357" lon="9.016673307763348"><ele>255.0</ele><time>2026-04-04T14:00:10.001Z</time></trkpt><trkpt lat="39.62807994677507" lon="9.016723558541441"><ele>255.0</ele><time>2026-04-04T14:00:11.001Z</time></trkpt><trkpt lat="39.627860571083055" lon="9.016775409801417"><ele>255.0</ele><time>2026-04-04T14:00:12.001Z</time></trkpt><trkpt lat="39.62763590717971" lon="9.016825458293706"><ele>254.0</ele><time>2026-04-04T14:00:13.001Z</time></trkpt><trkpt lat="39.62741315975663" lon="9.016871861854568"><ele>253.0</ele><time>2026-04-04T14:00:14.001Z</time></trkpt><trkpt lat="39.627188802957015" lon="9.016917509473984"><ele>251.0</ele><time>2026-04-04T14:00:15.001Z</time></trkpt><trkpt lat="39.626963957958466" lon="9.016963310652887"><ele>249.0</ele><time>2026-04-04T14:00:16.001Z</time></trkpt><trkpt lat="39.626737855269006" lon="9.017011806583751"><ele>249.0</ele><time>2026-04-04T14:00:17.001Z</time></trkpt><trkpt lat="39.62651292625589" lon="9.017061366512698"><ele>249.0</ele><time>2026-04-04T14:00:18.001Z</time></trkpt><trkpt lat="39.626286807068574" lon="9.017108875331214"><ele>248.5</ele><time>2026-04-04T14:00:19.001Z</time></trkpt><trkpt lat="39.62606033261029" lon="9.017155139481766"><ele>248.0</ele><time>2026-04-04T14:00:20.001Z</time></trkpt><trkpt lat="39.62583295775863" lon="9.017203894352201"><ele>248.0</ele><time>2026-04-04T14:00:21.001Z</time></trkpt><trkpt lat="39.62561061011967" lon="9.017250543141747"><ele>248.0</ele><time>2026-04-04T14:00:22.001Z</time></trkpt><trkpt lat="39.625390380067046" lon="9.017299342835006"><ele>248.0</ele><time>2026-04-04T14:00:23.001Z</time></trkpt><trkpt lat="39.6251733199619" lon="9.0173468469229"><ele>246.66666666666669</ele><time>2026-04-04T14:00:24.001Z</time></trkpt><trkpt lat="39.62495683074451" lon="9.017394150651931"><ele>245.33333333333331</ele><time>2026-04-04T14:00:25.001Z</time></trkpt><trkpt lat="39.624744358965465" lon="9.017439700829707"><ele>244.0</ele><time>2026-04-04T14:00:26.001Z</time></trkpt><trkpt lat="39.62453422226356" lon="9.017485822563833"><ele>240.33333333333331</ele><time>2026-04-04T14:00:27Z</time></trkpt><trkpt lat="39.62432139545766" lon="9.017531335211679"><ele>236.66666666666669</ele><time>2026-04-04T14:00:28Z</time></trkpt><trkpt lat="39.62410724597907" lon="9.017574858671637"><ele>233.0</ele><time>2026-04-04T14:00:29Z</time></trkpt><trkpt lat="39.623892028381576" lon="9.017619281785311"><ele>233.0</ele><time>2026-04-04T14:00:30Z</time></trkpt><trkpt lat="39.62368425495823" lon="9.017659111650104"><ele>233.0</ele><time>2026-04-04T14:00:31Z</time></trkpt><trkpt lat="39.62346955266225" lon="9.017695102240172"><ele>233.0</ele><time>2026-04-04T14:00:32Z</time></trkpt><trkpt lat="39.62328300958549" lon="9.017734205087056"><ele>231.0</ele><time>2026-04-04T14:00:33Z</time></trkpt><trkpt lat="39.62307078452691" lon="9.017734160955225"><ele>229.0</ele><time>2026-04-04T14:00:34Z</time></trkpt><trkpt lat="39.622858628734505" lon="9.017714021209144"><ele>227.0</ele><time>2026-04-04T14:00:35.001Z</time></trkpt><trkpt lat="39.622641550254386" lon="9.01767250314771"><ele>224.0</ele><time>2026-04-04T14:00:36Z</time></trkpt><trkpt lat="39.62242756099499" lon="9.017621484275317"><ele>221.0</ele><time>2026-04-04T14:00:37Z</time></trkpt><trkpt lat="39.62221080188471" lon="9.01757362559747"><ele>218.0</ele><time>2026-04-04T14:00:38Z</time></trkpt><trkpt lat="39.62198716295825" lon="9.017528895313"><ele>217.66666666666669</ele><time>2026-04-04T14:00:39Z</time></trkpt><trkpt lat="39.621766675265754" lon="9.01748447937486"><ele>217.33333333333331</ele><time>2026-04-04T14:00:40Z</time></trkpt><trkpt lat="39.62154421600167" lon="9.017441688661812"><ele>217.0</ele><time>2026-04-04T14:00:41Z</time></trkpt><trkpt lat="39.621315641494874" lon="9.017410898489644"><ele>211.5</ele><time>2026-04-04T14:00:42Z</time></trkpt><trkpt lat="39.621084374133574" lon="9.017400534496398"><ele>206.0</ele><time>2026-04-04T14:00:43Z</time></trkpt><trkpt lat="39.62085638062215" lon="9.017413695659844"><ele>206.0</ele><time>2026-04-04T14:00:44Z</time></trkpt><trkpt lat="39.62063161792267" lon="9.017457057581202"><ele>206.0</ele><time>2026-04-04T14:00:45Z</time></trkpt><trkpt lat="39.62041187872423" lon="9.017520822469198"><ele>202.0</ele><time>2026-04-04T14:00:46Z</time></trkpt><trkpt lat="39.62019395406527" lon="9.017600071226518"><ele>198.0</ele><time>2026-04-04T14:00:47Z</time></trkpt><trkpt lat="39.619978059375214" lon="9.017690232822865"><ele>198.0</ele><time>2026-04-04T14:00:48Z</time></trkpt><trkpt lat="39.61976072761392" lon="9.017782435399413"><ele>198.0</ele><time>2026-04-04T14:00:49Z</time></trkpt><trkpt lat="39.61954447081906" lon="9.017870700461549"><ele>197.5</ele><time>2026-04-04T14:00:50Z</time></trkpt><trkpt lat="39.619325938463284" lon="9.017955416938328"><ele>197.0</ele><time>2026-04-04T14:00:51Z</time></trkpt><trkpt lat="39.6191095764393" lon="9.018039442937427"><ele>197.0</ele><time>2026-04-04T14:00:52Z</time></trkpt><trkpt lat="39.61889850425746" lon="9.018123098390864"><ele>197.0</ele><time>2026-04-04T14:00:53Z</time></trkpt><trkpt lat="39.61868240756561" lon="9.018207071356125"><ele>197.0</ele><time>2026-04-04T14:00:54Z</time></trkpt><trkpt lat="39.61846675751279" lon="9.018292031187439"><ele>195.0</ele><time>2026-04-04T14:00:55Z</time></trkpt><trkpt lat="39.618243331431806" lon="9.01838202341384"><ele>193.0</ele><time>2026-04-04T14:00:56Z</time></trkpt><trkpt lat="39.6180222824811" lon="9.018470558166097"><ele>193.0</ele><time>2026-04-04T14:00:57Z</time></trkpt><trkpt lat="39.61780148653983" lon="9.01855604384871"><ele>193.0</ele><time>2026-04-04T14:00:58Z</time></trkpt><trkpt lat="39.61758178311404" lon="9.018645075986829"><ele>193.0</ele><time>2026-04-04T14:00:59Z</time></trkpt><trkpt lat="39.617362090712106" lon="9.018734349259041"><ele>193.0</ele><time>2026-04-04T14:01:00Z</time></trkpt><trkpt lat="39.61714219934726" lon="9.018821607095607"><ele>192.0</ele><time>2026-04-04T14:01:01Z</time></trkpt><trkpt lat="39.61692111472132" lon="9.018909282827037"><ele>191.0</ele><time>2026-04-04T14:01:02Z</time></trkpt><trkpt lat="39.616702402289256" lon="9.018998399236265"><ele>191.0</ele><time>2026-04-04T14:01:03Z</time></trkpt><trkpt lat="39.61648008721552" lon="9.019089195852132"><ele>191.0</ele><time>2026-04-04T14:01:04Z</time></trkpt><trkpt lat="39.61625890189436" lon="9.019178050916674"><ele>188.0</ele><time>2026-04-04T14:01:05Z</time></trkpt><trkpt lat="39.616037644686834" lon="9.0192665849092"><ele>185.0</ele><time>2026-04-04T14:01:06Z</time></trkpt><trkpt lat="39.61581640831975" lon="9.019359515090665"><ele>185.0</ele><time>2026-04-04T14:01:07Z</time></trkpt><trkpt lat="39.615590688121415" lon="9.019441644668495"><ele>185.0</ele><time>2026-04-04T14:01:08Z</time></trkpt><trkpt lat="39.6153618790841" lon="9.019522194794016"><ele>182.5</ele><time>2026-04-04T14:01:09.001Z</time></trkpt><trkpt lat="39.615134781568344" lon="9.019614670121339"><ele>180.0</ele><time>2026-04-04T14:01:10.001Z</time></trkpt><trkpt lat="39.61491200478652" lon="9.019707952959331"><ele>180.0</ele><time>2026-04-04T14:01:11.001Z</time></trkpt><trkpt lat="39.61468679249109" lon="9.019802804070766"><ele>180.0</ele><time>2026-04-04T14:01:12.001Z</time></trkpt><trkpt lat="39.61445844776965" lon="9.019884755675397"><ele>179.5</ele><time>2026-04-04T14:01:13.001Z</time></trkpt><trkpt lat="39.614233546681724" lon="9.01997275363197"><ele>179.0</ele><time>2026-04-04T14:01:14.001Z</time></trkpt><trkpt lat="39.61400708141637" lon="9.02006332288894"><ele>178.0</ele><time>2026-04-04T14:01:15.001Z</time></trkpt><trkpt lat="39.61378529680832" lon="9.020161622844917"><ele>177.0</ele><time>2026-04-04T14:01:16.001Z</time></trkpt><trkpt lat="39.61356106504466" lon="9.020243878450028"><ele>176.0</ele><time>2026-04-04T14:01:17.001Z</time></trkpt><trkpt lat="39.613334039572415" lon="9.020327850053008"><ele>175.0</ele><time>2026-04-04T14:01:18.001Z</time></trkpt><trkpt lat="39.61312042923002" lon="9.0204164922833"><ele>175.0</ele><time>2026-04-04T14:01:19.001Z</time></trkpt><trkpt lat="39.61289886132176" lon="9.02050338250111"><ele>175.0</ele><time>2026-04-04T14:01:20.001Z</time></trkpt><trkpt lat="39.61267845906877" lon="9.020589921363719"><ele>175.0</ele><time>2026-04-04T14:01:21.001Z</time></trkpt><trkpt lat="39.61246228395558" lon="9.020678557329617"><ele>175.0</ele><time>2026-04-04T14:01:22.001Z</time></trkpt><trkpt lat="39.612239954622694" lon="9.020762013150117"><ele>173.5</ele><time>2026-04-04T14:01:23.001Z</time></trkpt><trkpt lat="39.612021117487394" lon="9.020848503782737"><ele>172.0</ele><time>2026-04-04T14:01:24.001Z</time></trkpt><trkpt lat="39.61180288651481" lon="9.020937176433273"><ele>172.0</ele><time>2026-04-04T14:01:25.001Z</time></trkpt><trkpt lat="39.6115812765144" lon="9.02101949259437"><ele>172.0</ele><time>2026-04-04T14:01:26.001Z</time></trkpt><trkpt lat="39.611365538691096" lon="9.021109753335821"><ele>171.5</ele><time>2026-04-04T14:01:27.001Z</time></trkpt><trkpt lat="39.61114577788457" lon="9.021199686888336"><ele>171.0</ele><time>2026-04-04T14:01:28.001Z</time></trkpt><trkpt lat="39.610925079284364" lon="9.021278876820151"><ele>171.0</ele><time>2026-04-04T14:01:29.001Z</time></trkpt><trkpt lat="39.61070334364648" lon="9.021356269940007"><ele>171.0</ele><time>2026-04-04T14:01:30.001Z</time></trkpt><trkpt lat="39.61048263335851" lon="9.021438810447194"><ele>170.5</ele><time>2026-04-04T14:01:31.001Z</time></trkpt><trkpt lat="39.610267332541675" lon="9.021529911881776"><ele>170.0</ele><time>2026-04-04T14:01:32.001Z</time></trkpt><trkpt lat="39.61004856966412" lon="9.021620729735103"><ele>168.5</ele><time>2026-04-04T14:01:33.001Z</time></trkpt><trkpt lat="39.609827162024146" lon="9.021710488925285"><ele>167.0</ele><time>2026-04-04T14:01:34.001Z</time></trkpt><trkpt lat="39.609606088008626" lon="9.021797919866245"><ele>166.5</ele><time>2026-04-04T14:01:35.001Z</time></trkpt><trkpt lat="39.609384086253996" lon="9.021884607090382"><ele>166.0</ele><time>2026-04-04T14:01:36.001Z</time></trkpt><trkpt lat="39.60916017317254" lon="9.021975258836154"><ele>166.0</ele><time>2026-04-04T14:01:37.001Z</time></trkpt><trkpt lat="39.60893846804891" lon="9.02206566464636"><ele>166.0</ele><time>2026-04-04T14:01:38.001Z</time></trkpt><trkpt lat="39.608715109305074" lon="9.02215253905208"><ele>165.0</ele><time>2026-04-04T14:01:39.001Z</time></trkpt><trkpt lat="39.60848691049829" lon="9.022242525203158"><ele>164.0</ele><time>2026-04-04T14:01:40.001Z</time></trkpt><trkpt lat="39.60826083557392" lon="9.022328508724456"><ele>164.0</ele><time>2026-04-04T14:01:41.001Z</time></trkpt><trkpt lat="39.608037548042695" lon="9.022419583961067"><ele>164.0</ele><time>2026-04-04T14:01:42.001Z</time></trkpt><trkpt lat="39.60781355119287" lon="9.022509880229528"><ele>162.5</ele><time>2026-04-04T14:01:43.001Z</time></trkpt><trkpt lat="39.607588685718454" lon="9.022599905218433"><ele>161.0</ele><time>2026-04-04T14:01:44.001Z</time></trkpt><trkpt lat="39.60735114372747" lon="9.02268297528161"><ele>161.0</ele><time>2026-04-04T14:01:45.001Z</time></trkpt><trkpt lat="39.607133895282445" lon="9.022768273595982"><ele>161.0</ele><time>2026-04-04T14:01:46.001Z</time></trkpt><trkpt lat="39.60690712913081" lon="9.022857752931086"><ele>160.5</ele><time>2026-04-04T14:01:47.001Z</time></trkpt><trkpt lat="39.60667988763746" lon="9.022946572791113"><ele>160.0</ele><time>2026-04-04T14:01:48.001Z</time></trkpt><trkpt lat="39.606454403554736" lon="9.023042920286345"><ele>160.0</ele><time>2026-04-04T14:01:49.001Z</time></trkpt><trkpt lat="39.606232745859124" lon="9.023149714908172"><ele>160.0</ele><time>2026-04-04T14:01:50.001Z</time></trkpt><trkpt lat="39.60601270290628" lon="9.023264638504664"><ele>159.0</ele><time>2026-04-04T14:01:51.001Z</time></trkpt><trkpt lat="39.60579933760678" lon="9.023412100910349"><ele>158.0</ele><time>2026-04-04T14:01:52.001Z</time></trkpt><trkpt lat="39.6055804696379" lon="9.02354242653842"><ele>158.0</ele><time>2026-04-04T14:01:53.001Z</time></trkpt><trkpt lat="39.60536521962679" lon="9.023687789789445"><ele>158.0</ele><time>2026-04-04T14:01:54.001Z</time></trkpt><trkpt lat="39.60518604965619" lon="9.023914452224904"><ele>156.5</ele><time>2026-04-04T14:01:55.001Z</time></trkpt><trkpt lat="39.60499085312541" lon="9.024078760127308"><ele>155.0</ele><time>2026-04-04T14:01:56.001Z</time></trkpt><trkpt lat="39.60480760748042" lon="9.024233051678202"><ele>154.66666666666666</ele><time>2026-04-04T14:01:57.001Z</time></trkpt><trkpt lat="39.60464291828379" lon="9.024371638014697"><ele>154.33333333333334</ele><time>2026-04-04T14:01:58.001Z</time></trkpt><trkpt lat="39.60449442478244" lon="9.024489920437166"><ele>154.0</ele><time>2026-04-04T14:01:59.001Z</time></trkpt><trkpt lat="39.60434410718065" lon="9.024580238306806"><ele>154.0</ele><time>2026-04-04T14:02:00.001Z</time></trkpt><trkpt lat="39.60417708114966" lon="9.02461899247955"><ele>154.0</ele><time>2026-04-04T14:02:01.001Z</time></trkpt><trkpt lat="39.60398370836077" lon="9.024634911657515"><ele>154.0</ele><time>2026-04-04T14:02:02.001Z</time></trkpt><trkpt lat="39.60377386384174" lon="9.024658136514358"><ele>154.0</ele><time>2026-04-04T14:02:03.001Z</time></trkpt><trkpt lat="39.60355040926035" lon="9.024689022631577"><ele>154.0</ele><time>2026-04-04T14:02:04.001Z</time></trkpt><trkpt lat="39.60332777979292" lon="9.024715393184506"><ele>154.0</ele><time>2026-04-04T14:02:05.001Z</time></trkpt><trkpt lat="39.60310042502024" lon="9.024729992511551"><ele>154.0</ele><time>2026-04-04T14:02:06.001Z</time></trkpt><trkpt lat="39.6028670479306" lon="9.024739856521522"><ele>154.0</ele><time>2026-04-04T14:02:07.001Z</time></trkpt><trkpt lat="39.60262820929942" lon="9.02475359044964"><ele>153.5</ele><time>2026-04-04T14:02:08.001Z</time></trkpt><trkpt lat="39.60238673984455" lon="9.024771697892435"><ele>153.0</ele><time>2026-04-04T14:02:09.001Z</time></trkpt><trkpt lat="39.60214280642663" lon="9.02479250401688"><ele>153.5</ele><time>2026-04-04T14:02:10.001Z</time></trkpt><trkpt lat="39.60189924799979" lon="9.024811485541898"><ele>154.0</ele><time>2026-04-04T14:02:11.001Z</time></trkpt><trkpt lat="39.60165299417997" lon="9.02482798355701"><ele>154.0</ele><time>2026-04-04T14:02:12.001Z</time></trkpt><trkpt lat="39.60140475698437" lon="9.024843758381556"><ele>154.0</ele><time>2026-04-04T14:02:13.001Z</time></trkpt><trkpt lat="39.601156005559176" lon="9.024859041569933"><ele>154.5</ele><time>2026-04-04T14:02:14.001Z</time></trkpt><trkpt lat="39.600905534409684" lon="9.024874065941377"><ele>155.0</ele><time>2026-04-04T14:02:15.001Z</time></trkpt><trkpt lat="39.60065626351361" lon="9.024887810650617"><ele>155.0</ele><time>2026-04-04T14:02:16.001Z</time></trkpt><trkpt lat="39.600411232337315" lon="9.024902050443416"><ele>155.0</ele><time>2026-04-04T14:02:17.001Z</time></trkpt><trkpt lat="39.600168184198346" lon="9.024920704494763"><ele>154.5</ele><time>2026-04-04T14:02:18.001Z</time></trkpt><trkpt lat="39.59993001989388" lon="9.024950541671286"><ele>154.0</ele><time>2026-04-04T14:02:19.001Z</time></trkpt><trkpt lat="39.59969394176103" lon="9.025005047626511"><ele>157.0</ele><time>2026-04-04T14:02:20.001Z</time></trkpt><trkpt lat="39.59945923043675" lon="9.025095246711619"><ele>160.0</ele><time>2026-04-04T14:02:21.001Z</time></trkpt><trkpt lat="39.599232694896614" lon="9.025201622562863"><ele>160.0</ele><time>2026-04-04T14:02:22.001Z</time></trkpt><trkpt lat="39.59900740327364" lon="9.025338522782999"><ele>160.0</ele><time>2026-04-04T14:02:23.001Z</time></trkpt><trkpt lat="39.598784063791065" lon="9.025486613758504"><ele>158.0</ele><time>2026-04-04T14:02:24.001Z</time></trkpt><trkpt lat="39.59855896463144" lon="9.02563710168074"><ele>156.0</ele><time>2026-04-04T14:02:25.001Z</time></trkpt><trkpt lat="39.59832871886704" lon="9.02577808808822"><ele>157.5</ele><time>2026-04-04T14:02:26.001Z</time></trkpt><trkpt lat="39.59809525769936" lon="9.025916303813199"><ele>159.0</ele><time>2026-04-04T14:02:27.001Z</time></trkpt><trkpt lat="39.59786030627534" lon="9.026057586439721"><ele>158.0</ele><time>2026-04-04T14:02:28.001Z</time></trkpt><trkpt lat="39.59762720044458" lon="9.026201027361882"><ele>157.0</ele><time>2026-04-04T14:02:29.001Z</time></trkpt><trkpt lat="39.59739328504746" lon="9.02634997408327"><ele>157.0</ele><time>2026-04-04T14:02:30.001Z</time></trkpt><trkpt lat="39.59716047598753" lon="9.026498094186904"><ele>157.0</ele><time>2026-04-04T14:02:31.001Z</time></trkpt><trkpt lat="39.59692710875834" lon="9.02664549527418"><ele>158.5</ele><time>2026-04-04T14:02:32.001Z</time></trkpt><trkpt lat="39.59669189148632" lon="9.026792194204562"><ele>160.0</ele><time>2026-04-04T14:02:33Z</time></trkpt><trkpt lat="39.59645499878855" lon="9.026937582019842"><ele>160.0</ele><time>2026-04-04T14:02:34Z</time></trkpt><trkpt lat="39.596217433087695" lon="9.02708405001089"><ele>160.0</ele><time>2026-04-04T14:02:35Z</time></trkpt><trkpt lat="39.59597614851113" lon="9.027234920897735"><ele>158.0</ele><time>2026-04-04T14:02:36Z</time></trkpt><trkpt lat="39.59573617994927" lon="9.027388973795432"><ele>156.0</ele><time>2026-04-04T14:02:37Z</time></trkpt><trkpt lat="39.59549578337649" lon="9.027542101928722"><ele>153.5</ele><time>2026-04-04T14:02:38Z</time></trkpt><trkpt lat="39.5952535048482" lon="9.02769294490222"><ele>151.0</ele><time>2026-04-04T14:02:39Z</time></trkpt><trkpt lat="39.595009621953466" lon="9.027842164623399"><ele>151.0</ele><time>2026-04-04T14:02:40Z</time></trkpt><trkpt lat="39.594766997946486" lon="9.027990977426061"><ele>151.0</ele><time>2026-04-04T14:02:41Z</time></trkpt><trkpt lat="39.59452611174055" lon="9.028141228881275"><ele>151.5</ele><time>2026-04-04T14:02:42Z</time></trkpt><trkpt lat="39.594286877260615" lon="9.02829196882772"><ele>152.0</ele><time>2026-04-04T14:02:43Z</time></trkpt><trkpt lat="39.59404825868411" lon="9.028439910540872"><ele>153.0</ele><time>2026-04-04T14:02:44Z</time></trkpt><trkpt lat="39.59381143898483" lon="9.028585567277702"><ele>154.0</ele><time>2026-04-04T14:02:45Z</time></trkpt><trkpt lat="39.593575632072316" lon="9.028728957819974"><ele>155.0</ele><time>2026-04-04T14:02:46Z</time></trkpt><trkpt lat="39.593341193944525" lon="9.028871434354677"><ele>156.0</ele><time>2026-04-04T14:02:47Z</time></trkpt><trkpt lat="39.59310887550784" lon="9.0290154352883"><ele>157.5</ele><time>2026-04-04T14:02:48Z</time></trkpt><trkpt lat="39.592878934345784" lon="9.029163628598033"><ele>159.0</ele><time>2026-04-04T14:02:49Z</time></trkpt><trkpt lat="39.59264970573915" lon="9.029315391176016"><ele>159.0</ele><time>2026-04-04T14:02:50Z</time></trkpt><trkpt lat="39.592420391652524" lon="9.029462820865666"><ele>159.0</ele><time>2026-04-04T14:02:51Z</time></trkpt><trkpt lat="39.59218887912648" lon="9.029605992137844"><ele>159.5</ele><time>2026-04-04T14:02:52Z</time></trkpt><trkpt lat="39.59195725944615" lon="9.029748923316069"><ele>160.0</ele><time>2026-04-04T14:02:53Z</time></trkpt><trkpt lat="39.59172635383353" lon="9.029893192344582"><ele>161.0</ele><time>2026-04-04T14:02:54Z</time></trkpt><trkpt lat="39.59149804588459" lon="9.030037070353789"><ele>162.0</ele><time>2026-04-04T14:02:55Z</time></trkpt><trkpt lat="39.59127159893126" lon="9.030178353156698"><ele>163.0</ele><time>2026-04-04T14:02:56Z</time></trkpt><trkpt lat="39.5910434959833" lon="9.030318426372954"><ele>164.0</ele><time>2026-04-04T14:02:57Z</time></trkpt><trkpt lat="39.590815640908396" lon="9.030455461738951"><ele>164.0</ele><time>2026-04-04T14:02:58Z</time></trkpt><trkpt lat="39.59058610652874" lon="9.030596153918763"><ele>164.0</ele><time>2026-04-04T14:02:59Z</time></trkpt><trkpt lat="39.590361304440144" lon="9.030736624694278"><ele>164.0</ele><time>2026-04-04T14:03:00Z</time></trkpt><trkpt lat="39.59013537665039" lon="9.030884550635793"><ele>164.0</ele><time>2026-04-04T14:03:01Z</time></trkpt><trkpt lat="39.58991336011969" lon="9.031037886870667"><ele>164.0</ele><time>2026-04-04T14:03:02Z</time></trkpt><trkpt lat="39.58969962900182" lon="9.031203666416094"><ele>164.0</ele><time>2026-04-04T14:03:03Z</time></trkpt><trkpt lat="39.589495774639815" lon="9.031395898419879"><ele>165.0</ele><time>2026-04-04T14:03:04Z</time></trkpt><trkpt lat="39.58929213803481" lon="9.031578457249969"><ele>166.0</ele><time>2026-04-04T14:03:05Z</time></trkpt><trkpt lat="39.58910018667466" lon="9.031772759523527"><ele>167.0</ele><time>2026-04-04T14:03:06Z</time></trkpt><trkpt lat="39.588924510410116" lon="9.03197570379035"><ele>168.0</ele><time>2026-04-04T14:03:07Z</time></trkpt><trkpt lat="39.58873607836777" lon="9.032160476988754"><ele>170.5</ele><time>2026-04-04T14:03:08Z</time></trkpt><trkpt lat="39.58855601860972" lon="9.032341268193802"><ele>173.0</ele><time>2026-04-04T14:03:09Z</time></trkpt><trkpt lat="39.58837388469741" lon="9.032523247868157"><ele>173.66666666666666</ele><time>2026-04-04T14:03:10Z</time></trkpt><trkpt lat="39.588193979131596" lon="9.032704869293559"><ele>174.33333333333334</ele><time>2026-04-04T14:03:11Z</time></trkpt><trkpt lat="39.588021073954465" lon="9.032879502529616"><ele>175.0</ele><time>2026-04-04T14:03:12Z</time></trkpt><trkpt lat="39.5878484651222" lon="9.03305760597647"><ele>177.66666666666669</ele><time>2026-04-04T14:03:13Z</time></trkpt><trkpt lat="39.58767546610679" lon="9.033237669629028"><ele>180.33333333333334</ele><time>2026-04-04T14:03:14Z</time></trkpt><trkpt lat="39.58749729333682" lon="9.033410990299862"><ele>183.0</ele><time>2026-04-04T14:03:15Z</time></trkpt><trkpt lat="39.587310242402495" lon="9.033557096328476"><ele>183.33333333333334</ele><time>2026-04-04T14:03:16Z</time></trkpt><trkpt lat="39.587116055393864" lon="9.033687200036754"><ele>183.66666666666669</ele><time>2026-04-04T14:03:17Z</time></trkpt><trkpt lat="39.586915872667355" lon="9.033810930353072"><ele>184.0</ele><time>2026-04-04T14:03:18Z</time></trkpt><trkpt lat="39.586743157161145" lon="9.033896482052809"><ele>189.0</ele><time>2026-04-04T14:03:19Z</time></trkpt><trkpt lat="39.58654176352986" lon="9.033968736964118"><ele>194.0</ele><time>2026-04-04T14:03:20Z</time></trkpt><trkpt lat="39.586341396144775" lon="9.034031634756255"><ele>199.0</ele><time>2026-04-04T14:03:21Z</time></trkpt><trkpt lat="39.58613417314897" lon="9.034070540502665"><ele>204.66666666666666</ele><time>2026-04-04T14:03:22Z</time></trkpt><trkpt lat="39.58592114202989" lon="9.034090214394487"><ele>210.33333333333331</ele><time>2026-04-04T14:03:23Z</time></trkpt><trkpt lat="39.58571267220556" lon="9.034091576199298"><ele>216.0</ele><time>2026-04-04T14:03:24Z</time></trkpt><trkpt lat="39.58550439383953" lon="9.034071873736602"><ele>216.33333333333331</ele><time>2026-04-04T14:03:25Z</time></trkpt><trkpt lat="39.585291985738706" lon="9.03403052104804"><ele>216.66666666666666</ele><time>2026-04-04T14:03:26Z</time></trkpt><trkpt lat="39.58508409359288" lon="9.033971082044216"><ele>217.0</ele><time>2026-04-04T14:03:27Z</time></trkpt><trkpt lat="39.584878230350135" lon="9.033890742597015"><ele>217.0</ele><time>2026-04-04T14:03:28Z</time></trkpt><trkpt lat="39.58466917050656" lon="9.033795193196339"><ele>217.0</ele><time>2026-04-04T14:03:29Z</time></trkpt><trkpt lat="39.58447155305097" lon="9.033703276426412"><ele>217.0</ele><time>2026-04-04T14:03:30Z</time></trkpt><trkpt lat="39.584277142135484" lon="9.033622263883526"><ele>216.0</ele><time>2026-04-04T14:03:31Z</time></trkpt><trkpt lat="39.584067097224455" lon="9.03354299128719"><ele>215.0</ele><time>2026-04-04T14:03:32Z</time></trkpt><trkpt lat="39.58384933756902" lon="9.033490191670975"><ele>214.0</ele><time>2026-04-04T14:03:33Z</time></trkpt><trkpt lat="39.58363205815928" lon="9.033447624346087"><ele>213.0</ele><time>2026-04-04T14:03:34Z</time></trkpt><trkpt lat="39.58341152402751" lon="9.03344042208146"><ele>212.0</ele><time>2026-04-04T14:03:35Z</time></trkpt><trkpt lat="39.58318841212313" lon="9.033443984438325"><ele>211.0</ele><time>2026-04-04T14:03:36Z</time></trkpt><trkpt lat="39.58296324734174" lon="9.03344200689225"><ele>209.66666666666666</ele><time>2026-04-04T14:03:37Z</time></trkpt><trkpt lat="39.582741735720454" lon="9.033438216096588"><ele>208.33333333333331</ele><time>2026-04-04T14:03:38Z</time></trkpt><trkpt lat="39.58251904747791" lon="9.033430776789498"><ele>207.0</ele><time>2026-04-04T14:03:39Z</time></trkpt><trkpt lat="39.582295761579736" lon="9.033424940671102"><ele>207.0</ele><time>2026-04-04T14:03:40Z</time></trkpt><trkpt lat="39.58207205482729" lon="9.033421756986147"><ele>207.0</ele><time>2026-04-04T14:03:41Z</time></trkpt><trkpt lat="39.58185125491941" lon="9.033418814544584"><ele>207.0</ele><time>2026-04-04T14:03:42Z</time></trkpt><trkpt lat="39.581629383394386" lon="9.033419640568303"><ele>207.33333333333331</ele><time>2026-04-04T14:03:43Z</time></trkpt><trkpt lat="39.5814059696963" lon="9.03343006973094"><ele>207.66666666666666</ele><time>2026-04-04T14:03:44Z</time></trkpt><trkpt lat="39.58118447352002" lon="9.033456948508057"><ele>208.0</ele><time>2026-04-04T14:03:45Z</time></trkpt><trkpt lat="39.5809623554812" lon="9.033509181199985"><ele>208.33333333333331</ele><time>2026-04-04T14:03:46Z</time></trkpt><trkpt lat="39.58074219646024" lon="9.03357589110526"><ele>208.66666666666669</ele><time>2026-04-04T14:03:47Z</time></trkpt><trkpt lat="39.58052531597267" lon="9.033644319639546"><ele>209.0</ele><time>2026-04-04T14:03:48Z</time></trkpt><trkpt lat="39.580304930078704" lon="9.033710437102606"><ele>209.5</ele><time>2026-04-04T14:03:49Z</time></trkpt><trkpt lat="39.58008337140888" lon="9.033777495383356"><ele>210.0</ele><time>2026-04-04T14:03:50Z</time></trkpt><trkpt lat="39.57986165131741" lon="9.033840924730951"><ele>210.0</ele><time>2026-04-04T14:03:51Z</time></trkpt><trkpt lat="39.579639175968374" lon="9.03390343269208"><ele>210.0</ele><time>2026-04-04T14:03:52Z</time></trkpt><trkpt lat="39.57941390307752" lon="9.033968618679618"><ele>207.0</ele><time>2026-04-04T14:03:53Z</time></trkpt><trkpt lat="39.579188598583045" lon="9.034036313786393"><ele>204.0</ele><time>2026-04-04T14:03:54Z</time></trkpt><trkpt lat="39.57896487393602" lon="9.034104182109258"><ele>204.0</ele><time>2026-04-04T14:03:55Z</time></trkpt><trkpt lat="39.57874041081591" lon="9.03416810064358"><ele>204.0</ele><time>2026-04-04T14:03:56Z</time></trkpt><trkpt lat="39.57851564120542" lon="9.034231871534557"><ele>202.5</ele><time>2026-04-04T14:03:57Z</time></trkpt><trkpt lat="39.57828884233703" lon="9.034292780316113"><ele>201.0</ele><time>2026-04-04T14:03:58Z</time></trkpt><trkpt lat="39.57805937569259" lon="9.034359412544227"><ele>198.5</ele><time>2026-04-04T14:03:59Z</time></trkpt><trkpt lat="39.57783205539388" lon="9.034428249973978"><ele>196.0</ele><time>2026-04-04T14:04:00.001Z</time></trkpt><trkpt lat="39.577604386250066" lon="9.034497188823742"><ele>196.0</ele><time>2026-04-04T14:04:01.001Z</time></trkpt><trkpt lat="39.57737392651181" lon="9.034565165093834"><ele>196.0</ele><time>2026-04-04T14:04:02.001Z</time></trkpt><trkpt lat="39.57714456224674" lon="9.03463058182959"><ele>194.0</ele><time>2026-04-04T14:04:03.001Z</time></trkpt><trkpt lat="39.576916041801155" lon="9.034697980465982"><ele>192.0</ele><time>2026-04-04T14:04:04.001Z</time></trkpt><trkpt lat="39.57668776709105" lon="9.034764368826918"><ele>192.0</ele><time>2026-04-04T14:04:05.001Z</time></trkpt><trkpt lat="39.57645919951477" lon="9.034829164677637"><ele>192.0</ele><time>2026-04-04T14:04:06.001Z</time></trkpt><trkpt lat="39.57622901866095" lon="9.034892726487241"><ele>191.0</ele><time>2026-04-04T14:04:07.001Z</time></trkpt><trkpt lat="39.576000251569326" lon="9.034958698663834"><ele>190.0</ele><time>2026-04-04T14:04:08.001Z</time></trkpt><trkpt lat="39.575775824971224" lon="9.035024722060903"><ele>190.0</ele><time>2026-04-04T14:04:09.001Z</time></trkpt><trkpt lat="39.575548188524394" lon="9.035089323411153"><ele>190.0</ele><time>2026-04-04T14:04:10.001Z</time></trkpt><trkpt lat="39.57532072940292" lon="9.03515338628974"><ele>189.0</ele><time>2026-04-04T14:04:11.001Z</time></trkpt><trkpt lat="39.575094680068325" lon="9.035219654450483"><ele>188.0</ele><time>2026-04-04T14:04:12.001Z</time></trkpt><trkpt lat="39.5748669787209" lon="9.03528797816561"><ele>188.0</ele><time>2026-04-04T14:04:13.001Z</time></trkpt><trkpt lat="39.57464122193057" lon="9.03535503317633"><ele>188.0</ele><time>2026-04-04T14:04:14.001Z</time></trkpt><trkpt lat="39.57441186605941" lon="9.035424971765032"><ele>186.0</ele><time>2026-04-04T14:04:15.001Z</time></trkpt><trkpt lat="39.57418186976488" lon="9.035493385108548"><ele>184.0</ele><time>2026-04-04T14:04:16.001Z</time></trkpt><trkpt lat="39.57395037361837" lon="9.035554957135085"><ele>184.0</ele><time>2026-04-04T14:04:17.001Z</time></trkpt><trkpt lat="39.57371954878982" lon="9.03561708479051"><ele>184.0</ele><time>2026-04-04T14:04:18.001Z</time></trkpt><trkpt lat="39.57348465476374" lon="9.035681853868992"><ele>183.5</ele><time>2026-04-04T14:04:19.001Z</time></trkpt><trkpt lat="39.57325378951719" lon="9.035749501555145"><ele>183.0</ele><time>2026-04-04T14:04:20.001Z</time></trkpt><trkpt lat="39.573022329231335" lon="9.03582225755147"><ele>183.0</ele><time>2026-04-04T14:04:21.001Z</time></trkpt><trkpt lat="39.572792016338916" lon="9.03589432099187"><ele>183.0</ele><time>2026-04-04T14:04:22.001Z</time></trkpt><trkpt lat="39.57256245269134" lon="9.035962351531632"><ele>183.0</ele><time>2026-04-04T14:04:23.001Z</time></trkpt><trkpt lat="39.572329967382224" lon="9.036028145674319"><ele>183.0</ele><time>2026-04-04T14:04:24.001Z</time></trkpt><trkpt lat="39.572102238072716" lon="9.036089753763624"><ele>183.5</ele><time>2026-04-04T14:04:25.001Z</time></trkpt><trkpt lat="39.57186912970142" lon="9.036152694832014"><ele>184.0</ele><time>2026-04-04T14:04:26.001Z</time></trkpt><trkpt lat="39.57163876488813" lon="9.036214967797354"><ele>184.0</ele><time>2026-04-04T14:04:27.001Z</time></trkpt><trkpt lat="39.571404366745234" lon="9.036283920575228"><ele>184.0</ele><time>2026-04-04T14:04:28.001Z</time></trkpt><trkpt lat="39.571169019603055" lon="9.036355068741608"><ele>183.5</ele><time>2026-04-04T14:04:29.001Z</time></trkpt><trkpt lat="39.57093508926787" lon="9.03642616394276"><ele>183.0</ele><time>2026-04-04T14:04:30.001Z</time></trkpt><trkpt lat="39.57069508574047" lon="9.036498935326913"><ele>183.0</ele><time>2026-04-04T14:04:31.001Z</time></trkpt><trkpt lat="39.570457830227454" lon="9.036569582062736"><ele>183.0</ele><time>2026-04-04T14:04:32.001Z</time></trkpt><trkpt lat="39.57021496218166" lon="9.036638137568719"><ele>182.0</ele><time>2026-04-04T14:04:33.001Z</time></trkpt><trkpt lat="39.56997469013984" lon="9.0367061928143"><ele>181.0</ele><time>2026-04-04T14:04:34.001Z</time></trkpt><trkpt lat="39.56973201657009" lon="9.036775563810444"><ele>179.5</ele><time>2026-04-04T14:04:35.001Z</time></trkpt><trkpt lat="39.569491134695404" lon="9.036845055253703"><ele>178.0</ele><time>2026-04-04T14:04:36.001Z</time></trkpt><trkpt lat="39.56925050083061" lon="9.03691429173019"><ele>178.0</ele><time>2026-04-04T14:04:37.001Z</time></trkpt><trkpt lat="39.56901022163101" lon="9.036985052228783"><ele>178.0</ele><time>2026-04-04T14:04:38.001Z</time></trkpt><trkpt lat="39.56876960002989" lon="9.037054258478511"><ele>178.5</ele><time>2026-04-04T14:04:39Z</time></trkpt><trkpt lat="39.56852754947278" lon="9.037125324291816"><ele>179.0</ele><time>2026-04-04T14:04:40Z</time></trkpt><trkpt lat="39.56828829482852" lon="9.037195485194063"><ele>179.0</ele><time>2026-04-04T14:04:41Z</time></trkpt><trkpt lat="39.56805000079269" lon="9.0372655936309"><ele>179.0</ele><time>2026-04-04T14:04:42Z</time></trkpt><trkpt lat="39.56781436282757" lon="9.037334479730424"><ele>180.0</ele><time>2026-04-04T14:04:43Z</time></trkpt><trkpt lat="39.56757866028983" lon="9.037400924311418"><ele>181.0</ele><time>2026-04-04T14:04:44Z</time></trkpt><trkpt lat="39.567356373165076" lon="9.037471263873673"><ele>181.0</ele><time>2026-04-04T14:04:45Z</time></trkpt><trkpt lat="39.56715346395764" lon="9.037561587399095"><ele>181.0</ele><time>2026-04-04T14:04:46Z</time></trkpt><trkpt lat="39.56697118824474" lon="9.037665401820776"><ele>181.0</ele><time>2026-04-04T14:04:47Z</time></trkpt><trkpt lat="39.566802649440206" lon="9.037778801149646"><ele>183.0</ele><time>2026-04-04T14:04:48Z</time></trkpt><trkpt lat="39.56663920514338" lon="9.03790964503991"><ele>185.0</ele><time>2026-04-04T14:04:49Z</time></trkpt><trkpt lat="39.566477587005565" lon="9.038051786375076"><ele>187.0</ele><time>2026-04-04T14:04:50Z</time></trkpt><trkpt lat="39.5663159552002" lon="9.038198991628974"><ele>187.33333333333334</ele><time>2026-04-04T14:04:51Z</time></trkpt><trkpt lat="39.56614842158697" lon="9.038340077315747"><ele>187.66666666666666</ele><time>2026-04-04T14:04:52Z</time></trkpt><trkpt lat="39.56597898116802" lon="9.03848109224869"><ele>188.0</ele><time>2026-04-04T14:04:53Z</time></trkpt><trkpt lat="39.56580878879291" lon="9.038624518857114"><ele>188.0</ele><time>2026-04-04T14:04:54Z</time></trkpt><trkpt lat="39.56563752680702" lon="9.038772578524185"><ele>188.0</ele><time>2026-04-04T14:04:55Z</time></trkpt><trkpt lat="39.56546491337361" lon="9.038922799865608"><ele>188.0</ele><time>2026-04-04T14:04:56Z</time></trkpt><trkpt lat="39.56529022448035" lon="9.039073354130503"><ele>188.33333333333331</ele><time>2026-04-04T14:04:57Z</time></trkpt><trkpt lat="39.565118921820265" lon="9.039218201456768"><ele>188.66666666666666</ele><time>2026-04-04T14:04:58Z</time></trkpt><trkpt lat="39.56495266288272" lon="9.039357515193949"><ele>189.0</ele><time>2026-04-04T14:04:59Z</time></trkpt><trkpt lat="39.564794154502465" lon="9.03949160072127"><ele>189.0</ele><time>2026-04-04T14:05:00Z</time></trkpt><trkpt lat="39.564645959197414" lon="9.03962096725435"><ele>189.0</ele><time>2026-04-04T14:05:01Z</time></trkpt><trkpt lat="39.564499812573345" lon="9.039748614111478"><ele>189.0</ele><time>2026-04-04T14:05:02Z</time></trkpt><trkpt lat="39.564355290764304" lon="9.039874780244903"><ele>189.66666666666666</ele><time>2026-04-04T14:05:03Z</time></trkpt><trkpt lat="39.564208230675966" lon="9.040000937294845"><ele>190.33333333333331</ele><time>2026-04-04T14:05:04Z</time></trkpt><trkpt lat="39.564059467978765" lon="9.040127761731917"><ele>191.0</ele><time>2026-04-04T14:05:05Z</time></trkpt><trkpt lat="39.56390904032028" lon="9.040256122555288"><ele>191.0</ele><time>2026-04-04T14:05:06Z</time></trkpt><trkpt lat="39.56376111961858" lon="9.040383654958795"><ele>191.0</ele><time>2026-04-04T14:05:07Z</time></trkpt><trkpt lat="39.5636150225612" lon="9.040511129494556"><ele>191.0</ele><time>2026-04-04T14:05:08Z</time></trkpt><trkpt lat="39.56346999444982" lon="9.04063926038565"><ele>191.66666666666666</ele><time>2026-04-04T14:05:09Z</time></trkpt><trkpt lat="39.563326676898676" lon="9.04076540201382"><ele>192.33333333333331</ele><time>2026-04-04T14:05:10Z</time></trkpt><trkpt lat="39.56318650427746" lon="9.040887455149017"><ele>193.0</ele><time>2026-04-04T14:05:11Z</time></trkpt><trkpt lat="39.56305534692726" lon="9.040999647742495"><ele>193.0</ele><time>2026-04-04T14:05:12Z</time></trkpt><trkpt lat="39.562938039834954" lon="9.041100343131731"><ele>193.0</ele><time>2026-04-04T14:05:13Z</time></trkpt><trkpt lat="39.562824849989134" lon="9.041172893741093"><ele>193.0</ele><time>2026-04-04T14:05:14Z</time></trkpt><trkpt lat="39.56273202818571" lon="9.041252775138444"><ele>193.0</ele><time>2026-04-04T14:05:15Z</time></trkpt><trkpt lat="39.56265701755066" lon="9.04131732843727"><ele>193.33333333333331</ele><time>2026-04-04T14:05:16Z</time></trkpt><trkpt lat="39.562593744004005" lon="9.04139445552159"><ele>193.66666666666666</ele><time>2026-04-04T14:05:17Z</time></trkpt><trkpt lat="39.56252540046567" lon="9.041451717059589"><ele>194.0</ele><time>2026-04-04T14:05:18Z</time></trkpt><trkpt lat="39.56245867304895" lon="9.04151209012478"><ele>194.33333333333331</ele><time>2026-04-04T14:05:19Z</time></trkpt><trkpt lat="39.56240033311868" lon="9.041563384624435"><ele>194.66666666666666</ele><time>2026-04-04T14:05:20Z</time></trkpt><trkpt lat="39.56231022925677" lon="9.04163691865812"><ele>195.0</ele><time>2026-04-04T14:05:22Z</time></trkpt><trkpt lat="39.56220846240917" lon="9.041723042340623"><ele>195.16666666666666</ele><time>2026-04-04T14:05:24Z</time></trkpt><trkpt lat="39.56214748766619" lon="9.041776842771371"><ele>195.33333333333331</ele><time>2026-04-04T14:05:25Z</time></trkpt><trkpt lat="39.56208197585487" lon="9.041836244212755"><ele>195.5</ele><time>2026-04-04T14:05:26Z</time></trkpt><trkpt lat="39.56200979933119" lon="9.041901290478483"><ele>195.66666666666666</ele><time>2026-04-04T14:05:27Z</time></trkpt><trkpt lat="39.561930745074235" lon="9.041968190813838"><ele>195.83333333333331</ele><time>2026-04-04T14:05:28Z</time></trkpt><trkpt lat="39.56184509374437" lon="9.042039467899164"><ele>196.0</ele><time>2026-04-04T14:05:29Z</time></trkpt><trkpt lat="39.56175886601423" lon="9.042113499591151"><ele>196.60000000000002</ele><time>2026-04-04T14:05:30Z</time></trkpt><trkpt lat="39.56166068463439" lon="9.04217297225496"><ele>197.2</ele><time>2026-04-04T14:05:31Z</time></trkpt><trkpt lat="39.5615759923063" lon="9.042246446976522"><ele>197.8</ele><time>2026-04-04T14:05:32Z</time></trkpt><trkpt lat="39.56149338528335" lon="9.042318523412908"><ele>198.39999999999998</ele><time>2026-04-04T14:05:33Z</time></trkpt><trkpt lat="39.561418616024234" lon="9.042404396801675"><ele>199.0</ele><time>2026-04-04T14:05:34Z</time></trkpt><trkpt lat="39.56133227498674" lon="9.042475932577538"><ele>199.0</ele><time>2026-04-04T14:05:35Z</time></trkpt><trkpt lat="39.56124813043896" lon="9.042555698980959"><ele>199.0</ele><time>2026-04-04T14:05:36Z</time></trkpt><trkpt lat="39.5611617221609" lon="9.042630537116583"><ele>199.0</ele><time>2026-04-04T14:05:37Z</time></trkpt><trkpt lat="39.56107584219093" lon="9.042699749399802"><ele>199.0</ele><time>2026-04-04T14:05:38Z</time></trkpt><trkpt lat="39.560994280480465" lon="9.042768220803945"><ele>199.0</ele><time>2026-04-04T14:05:39Z</time></trkpt><trkpt lat="39.56091292961014" lon="9.04283675150536"><ele>199.79999999999998</ele><time>2026-04-04T14:05:40Z</time></trkpt><trkpt lat="39.560828723357325" lon="9.042901979502842"><ele>200.6</ele><time>2026-04-04T14:05:41.001Z</time></trkpt><trkpt lat="39.56074804915683" lon="9.04297374006353"><ele>201.4</ele><time>2026-04-04T14:05:42.001Z</time></trkpt><trkpt lat="39.56066234079144" lon="9.043041683049793"><ele>202.2</ele><time>2026-04-04T14:05:43.001Z</time></trkpt><trkpt lat="39.56058711828961" lon="9.043119032729578"><ele>203.0</ele><time>2026-04-04T14:05:44.001Z</time></trkpt><trkpt lat="39.56050383254909" lon="9.043185790275151"><ele>203.00000000000003</ele><time>2026-04-04T14:05:45.001Z</time></trkpt><trkpt lat="39.560423992233076" lon="9.043259728919624"><ele>203.0</ele><time>2026-04-04T14:05:46.001Z</time></trkpt><trkpt lat="39.560348991019474" lon="9.043320615055023"><ele>203.0</ele><time>2026-04-04T14:05:47.001Z</time></trkpt><trkpt lat="39.560280557587426" lon="9.043379922004382"><ele>203.0</ele><time>2026-04-04T14:05:48.001Z</time></trkpt><trkpt lat="39.56021620287505" lon="9.043434644167263"><ele>203.00000000000003</ele><time>2026-04-04T14:05:49.001Z</time></trkpt><trkpt lat="39.56015298810992" lon="9.043490720884162"><ele>203.0</ele><time>2026-04-04T14:05:50.001Z</time></trkpt><trkpt lat="39.560090934665766" lon="9.04354210296681"><ele>203.50000000000003</ele><time>2026-04-04T14:05:51.001Z</time></trkpt><trkpt lat="39.5600211524395" lon="9.043584288807935"><ele>204.0</ele><time>2026-04-04T14:05:52.001Z</time></trkpt><trkpt lat="39.55995597041268" lon="9.04362032453756"><ele>204.5</ele><time>2026-04-04T14:05:53.001Z</time></trkpt><trkpt lat="39.55989418248477" lon="9.043648735849937"><ele>205.0</ele><time>2026-04-04T14:05:54.001Z</time></trkpt><trkpt lat="39.55978166506498" lon="9.043645185668282"><ele>205.50000000000003</ele><time>2026-04-04T14:05:56.001Z</time></trkpt><trkpt lat="39.559695452380566" lon="9.043630715316892"><ele>206.0</ele><time>2026-04-04T14:05:58.001Z</time></trkpt><trkpt lat="39.55962942675793" lon="9.043616976118399"><ele>206.00000000000003</ele><time>2026-04-04T14:06:00.001Z</time></trkpt><trkpt lat="39.559547778414" lon="9.043554808673473"><ele>206.0</ele><time>2026-04-04T14:06:19.001Z</time></trkpt><trkpt lat="39.559531973349294" lon="9.043419517674007"><ele>206.0</ele><time>2026-04-04T14:12:35.001Z</time></trkpt><trkpt lat="39.55947435158335" lon="9.043469287675759"><ele>206.0</ele><time>2026-04-04T14:19:22Z</time></trkpt><trkpt lat="39.55948686038831" lon="9.043563639469394"><ele>206.00000000000003</ele><time>2026-04-04T14:19:26Z</time></trkpt><trkpt lat="39.55948599624917" lon="9.043662320529675"><ele>206.0</ele><time>2026-04-04T14:19:28Z</time></trkpt><trkpt lat="39.55947315064574" lon="9.043783405183932"><ele>206.0</ele><time>2026-04-04T14:19:30Z</time></trkpt><trkpt lat="39.55945222300646" lon="9.0439440810502"><ele>206.0</ele><time>2026-04-04T14:19:32Z</time></trkpt><trkpt lat="39.55937578574372" lon="9.044073280153427"><ele>206.0</ele><time>2026-04-04T14:19:34Z</time></trkpt><trkpt lat="39.55934516601181" lon="9.044218940589484"><ele>206.0</ele><time>2026-04-04T14:19:36Z</time></trkpt><trkpt lat="39.559328412703216" lon="9.044297684942853"><ele>206.0</ele><time>2026-04-04T14:19:37.001Z</time></trkpt><trkpt lat="39.55929657146541" lon="9.044447345992964"><ele>206.0</ele><time>2026-04-04T14:19:39.001Z</time></trkpt><trkpt lat="39.5592646437605" lon="9.044597413506596"><ele>206.0</ele><time>2026-04-04T14:19:41.001Z</time></trkpt><trkpt lat="39.559232818987056" lon="9.044746997167847"><ele>206.0</ele><time>2026-04-04T14:19:43.001Z</time></trkpt><trkpt lat="39.55919759384677" lon="9.044912410266788"><ele>206.0</ele><time>2026-04-04T14:19:45.001Z</time></trkpt><trkpt lat="39.55917779008332" lon="9.045005021954031"><ele>206.0</ele><time>2026-04-04T14:19:46.001Z</time></trkpt><trkpt lat="39.55915632677998" lon="9.045105394519204"><ele>205.83333333333334</ele><time>2026-04-04T14:19:47.001Z</time></trkpt><trkpt lat="39.559135140366315" lon="9.045204473014566"><ele>205.66666666666669</ele><time>2026-04-04T14:19:48.001Z</time></trkpt><trkpt lat="39.55911136033927" lon="9.04530051435105"><ele>205.5</ele><time>2026-04-04T14:19:49.001Z</time></trkpt><trkpt lat="39.55907879921787" lon="9.045404331869063"><ele>205.33333333333331</ele><time>2026-04-04T14:19:50.001Z</time></trkpt><trkpt lat="39.5590450236955" lon="9.045506761203017"><ele>205.16666666666666</ele><time>2026-04-04T14:19:51.001Z</time></trkpt><trkpt lat="39.55900510609465" lon="9.04561374422853"><ele>205.0</ele><time>2026-04-04T14:19:52.001Z</time></trkpt><trkpt lat="39.5589666354927" lon="9.04571684917007"><ele>205.16666666666666</ele><time>2026-04-04T14:19:53.001Z</time></trkpt><trkpt lat="39.55892865756136" lon="9.04581940679758"><ele>205.33333333333331</ele><time>2026-04-04T14:19:54.001Z</time></trkpt><trkpt lat="39.558897671744674" lon="9.045923977684575"><ele>205.5</ele><time>2026-04-04T14:19:55.001Z</time></trkpt><trkpt lat="39.55889244187695" lon="9.046044243533355"><ele>205.66666666666669</ele><time>2026-04-04T14:19:56.001Z</time></trkpt><trkpt lat="39.55890938325013" lon="9.046158542246873"><ele>205.83333333333334</ele><time>2026-04-04T14:19:57.001Z</time></trkpt><trkpt lat="39.558924948077596" lon="9.04625166974493"><ele>206.0</ele><time>2026-04-04T14:19:58.001Z</time></trkpt><trkpt lat="39.55893789696265" lon="9.046348732065153"><ele>205.99999999999997</ele><time>2026-04-04T14:19:59.001Z</time></trkpt><trkpt lat="39.55895015161206" lon="9.04644059048588"><ele>206.0</ele><time>2026-04-04T14:20:00.001Z</time></trkpt><trkpt lat="39.55896017788585" lon="9.046529809004603"><ele>206.0</ele><time>2026-04-04T14:20:01.001Z</time></trkpt><trkpt lat="39.558968355618326" lon="9.046618116981854"><ele>206.0</ele><time>2026-04-04T14:20:02.001Z</time></trkpt><trkpt lat="39.558972530239934" lon="9.046703680201647"><ele>206.0</ele><time>2026-04-04T14:20:03.001Z</time></trkpt><trkpt lat="39.55898065565077" lon="9.046791910827672"><ele>205.99999999999997</ele><time>2026-04-04T14:20:04.001Z</time></trkpt><trkpt lat="39.5589262749304" lon="9.04686618758966"><ele>206.0</ele><time>2026-04-04T14:20:05.001Z</time></trkpt><trkpt lat="39.55886034330982" lon="9.046922891276"><ele>205.66666666666669</ele><time>2026-04-04T14:20:06.001Z</time></trkpt><trkpt lat="39.55879258932565" lon="9.046964360778293"><ele>205.33333333333334</ele><time>2026-04-04T14:20:07.001Z</time></trkpt><trkpt lat="39.55871958368191" lon="9.047025176992191"><ele>205.0</ele><time>2026-04-04T14:20:08.001Z</time></trkpt><trkpt lat="39.55864326649796" lon="9.047087004053258"><ele>204.66666666666669</ele><time>2026-04-04T14:20:09.001Z</time></trkpt><trkpt lat="39.55856345057197" lon="9.04715166559682"><ele>204.33333333333334</ele><time>2026-04-04T14:20:10.001Z</time></trkpt><trkpt lat="39.55847822178748" lon="9.047221771006956"><ele>204.0</ele><time>2026-04-04T14:20:11.001Z</time></trkpt><trkpt lat="39.55839333585246" lon="9.047295293738296"><ele>204.0</ele><time>2026-04-04T14:20:12.001Z</time></trkpt><trkpt lat="39.558313065985935" lon="9.047366058627663"><ele>204.0</ele><time>2026-04-04T14:20:13.001Z</time></trkpt><trkpt lat="39.55823855297513" lon="9.047447410376067"><ele>204.0</ele><time>2026-04-04T14:20:14.001Z</time></trkpt><trkpt lat="39.55815252869623" lon="9.047508869288635"><ele>204.0</ele><time>2026-04-04T14:20:15.001Z</time></trkpt><trkpt lat="39.558067314490124" lon="9.047574087537647"><ele>204.0</ele><time>2026-04-04T14:20:16.001Z</time></trkpt><trkpt lat="39.557979769456686" lon="9.04763493214864"><ele>203.6</ele><time>2026-04-04T14:20:17.001Z</time></trkpt><trkpt lat="39.5578838841322" lon="9.047689771717327"><ele>203.2</ele><time>2026-04-04T14:20:18.001Z</time></trkpt><trkpt lat="39.557782860034784" lon="9.047742403216237"><ele>202.79999999999998</ele><time>2026-04-04T14:20:19.001Z</time></trkpt><trkpt lat="39.55767579155976" lon="9.047794706852"><ele>202.39999999999998</ele><time>2026-04-04T14:20:20.001Z</time></trkpt><trkpt lat="39.5575677126214" lon="9.047859310684004"><ele>202.0</ele><time>2026-04-04T14:20:21.001Z</time></trkpt><trkpt lat="39.55746144184241" lon="9.047936508327563"><ele>202.0</ele><time>2026-04-04T14:20:22.001Z</time></trkpt><trkpt lat="39.55735665058643" lon="9.04802781525698"><ele>202.0</ele><time>2026-04-04T14:20:23.001Z</time></trkpt><trkpt lat="39.557251760806274" lon="9.04812875546421"><ele>202.0</ele><time>2026-04-04T14:20:24.001Z</time></trkpt><trkpt lat="39.55714732914452" lon="9.048233661145002"><ele>202.0</ele><time>2026-04-04T14:20:25.001Z</time></trkpt><trkpt lat="39.55704653120042" lon="9.048347338669348"><ele>201.0</ele><time>2026-04-04T14:20:26.001Z</time></trkpt><trkpt lat="39.556952309686196" lon="9.04846784120255"><ele>200.0</ele><time>2026-04-04T14:20:27.001Z</time></trkpt><trkpt lat="39.55686262551811" lon="9.048591898356"><ele>199.0</ele><time>2026-04-04T14:20:28.001Z</time></trkpt><trkpt lat="39.55677525826973" lon="9.048719995538134"><ele>198.0</ele><time>2026-04-04T14:20:29.001Z</time></trkpt><trkpt lat="39.55668975370998" lon="9.04885131491111"><ele>198.0</ele><time>2026-04-04T14:20:30.001Z</time></trkpt><trkpt lat="39.55660536629295" lon="9.048990107126476"><ele>198.0</ele><time>2026-04-04T14:20:31.001Z</time></trkpt><trkpt lat="39.55652632453841" lon="9.049139764885096"><ele>198.0</ele><time>2026-04-04T14:20:32.001Z</time></trkpt><trkpt lat="39.55644457986922" lon="9.049292492336864"><ele>198.0</ele><time>2026-04-04T14:20:33.001Z</time></trkpt><trkpt lat="39.55640500231308" lon="9.049479028485234"><ele>195.25</ele><time>2026-04-04T14:20:34.001Z</time></trkpt><trkpt lat="39.55636988540623" lon="9.049660251101455"><ele>192.5</ele><time>2026-04-04T14:20:35.001Z</time></trkpt><trkpt lat="39.556324283093474" lon="9.049837900099416"><ele>189.75</ele><time>2026-04-04T14:20:36.001Z</time></trkpt><trkpt lat="39.55629261544484" lon="9.050012536871032"><ele>187.0</ele><time>2026-04-04T14:20:37.001Z</time></trkpt><trkpt lat="39.55625800884627" lon="9.050171369733485"><ele>187.25</ele><time>2026-04-04T14:20:38.001Z</time></trkpt><trkpt lat="39.556218769479194" lon="9.050326120064797"><ele>187.5</ele><time>2026-04-04T14:20:39.001Z</time></trkpt><trkpt lat="39.55613265263478" lon="9.05044232738795"><ele>187.75</ele><time>2026-04-04T14:20:40.001Z</time></trkpt><trkpt lat="39.55602986453378" lon="9.05053300707919"><ele>188.0</ele><time>2026-04-04T14:20:41.001Z</time></trkpt><trkpt lat="39.555924415932985" lon="9.050618682381938"><ele>188.0</ele><time>2026-04-04T14:20:42.001Z</time></trkpt><trkpt lat="39.555814724646936" lon="9.050709313435737"><ele>188.0</ele><time>2026-04-04T14:20:43.001Z</time></trkpt><trkpt lat="39.55569873748158" lon="9.05080509129511"><ele>188.0</ele><time>2026-04-04T14:20:44.001Z</time></trkpt><trkpt lat="39.55557964525848" lon="9.05090151818554"><ele>188.0</ele><time>2026-04-04T14:20:45.001Z</time></trkpt><trkpt lat="39.55545593142809" lon="9.051002124338414"><ele>187.66666666666666</ele><time>2026-04-04T14:20:46.001Z</time></trkpt><trkpt lat="39.555328901324025" lon="9.051105237722563"><ele>187.33333333333334</ele><time>2026-04-04T14:20:47.001Z</time></trkpt><trkpt lat="39.55519862394072" lon="9.051209286851442"><ele>187.0</ele><time>2026-04-04T14:20:48.001Z</time></trkpt><trkpt lat="39.55506128898427" lon="9.051311399533528"><ele>187.0</ele><time>2026-04-04T14:20:49.001Z</time></trkpt><trkpt lat="39.554924284875966" lon="9.051417729694599"><ele>187.0</ele><time>2026-04-04T14:20:50.001Z</time></trkpt><trkpt lat="39.55478796357974" lon="9.051529091276914"><ele>187.0</ele><time>2026-04-04T14:20:51.001Z</time></trkpt><trkpt lat="39.55464188280595" lon="9.051622324964839"><ele>184.66666666666669</ele><time>2026-04-04T14:20:52.001Z</time></trkpt><trkpt lat="39.554498657714305" lon="9.051734454948917"><ele>182.33333333333334</ele><time>2026-04-04T14:20:53.001Z</time></trkpt><trkpt lat="39.554363506315205" lon="9.051858703404978"><ele>180.0</ele><time>2026-04-04T14:20:54.001Z</time></trkpt><trkpt lat="39.55421811971554" lon="9.051966743273073"><ele>180.0</ele><time>2026-04-04T14:20:55.001Z</time></trkpt><trkpt lat="39.55407705122474" lon="9.052087302176377"><ele>180.0</ele><time>2026-04-04T14:20:56.001Z</time></trkpt><trkpt lat="39.55393451709443" lon="9.0522018187087"><ele>180.0</ele><time>2026-04-04T14:20:57.001Z</time></trkpt><trkpt lat="39.55381999233049" lon="9.052369653598953"><ele>179.0</ele><time>2026-04-04T14:20:58.001Z</time></trkpt><trkpt lat="39.55370294010946" lon="9.05253331019103"><ele>178.0</ele><time>2026-04-04T14:20:59.001Z</time></trkpt><trkpt lat="39.55360539241757" lon="9.052723210818208"><ele>177.0</ele><time>2026-04-04T14:21:00.001Z</time></trkpt><trkpt lat="39.55349270731304" lon="9.052897455052094"><ele>177.0</ele><time>2026-04-04T14:21:01.001Z</time></trkpt><trkpt lat="39.55339449107988" lon="9.053086899178147"><ele>177.0</ele><time>2026-04-04T14:21:02.001Z</time></trkpt><trkpt lat="39.55329584972489" lon="9.053277453598206"><ele>177.0</ele><time>2026-04-04T14:21:03.001Z</time></trkpt><trkpt lat="39.55319693893061" lon="9.053468591503663"><ele>176.66666666666666</ele><time>2026-04-04T14:21:04.001Z</time></trkpt><trkpt lat="39.55309664262006" lon="9.053662162511277"><ele>176.33333333333331</ele><time>2026-04-04T14:21:05.001Z</time></trkpt><trkpt lat="39.55299702392637" lon="9.053853601641778"><ele>176.0</ele><time>2026-04-04T14:21:06.001Z</time></trkpt><trkpt lat="39.552897597266124" lon="9.054044671755204"><ele>174.66666666666666</ele><time>2026-04-04T14:21:07.001Z</time></trkpt><trkpt lat="39.552797649379876" lon="9.054236743526321"><ele>173.33333333333334</ele><time>2026-04-04T14:21:08.001Z</time></trkpt><trkpt lat="39.55269688415432" lon="9.054430764499214"><ele>172.0</ele><time>2026-04-04T14:21:09.001Z</time></trkpt><trkpt lat="39.552596432130905" lon="9.054625005460652"><ele>172.0</ele><time>2026-04-04T14:21:10.001Z</time></trkpt><trkpt lat="39.55249517292051" lon="9.054820807268278"><ele>172.0</ele><time>2026-04-04T14:21:11.001Z</time></trkpt><trkpt lat="39.552392126231524" lon="9.055020065467486"><ele>172.0</ele><time>2026-04-04T14:21:12.001Z</time></trkpt><trkpt lat="39.55228950914347" lon="9.055218492946002"><ele>172.0</ele><time>2026-04-04T14:21:13.001Z</time></trkpt><trkpt lat="39.552184157631395" lon="9.055422207930873"><ele>172.0</ele><time>2026-04-04T14:21:14.001Z</time></trkpt><trkpt lat="39.55207874560406" lon="9.055626039879217"><ele>172.0</ele><time>2026-04-04T14:21:15.001Z</time></trkpt><trkpt lat="39.55197310430326" lon="9.055829942806545"><ele>171.66666666666669</ele><time>2026-04-04T14:21:16.001Z</time></trkpt><trkpt lat="39.55186813934113" lon="9.05603226365712"><ele>171.33333333333334</ele><time>2026-04-04T14:21:17.001Z</time></trkpt><trkpt lat="39.55176083276419" lon="9.056239098027667"><ele>171.0</ele><time>2026-04-04T14:21:18.001Z</time></trkpt><trkpt lat="39.551651454476655" lon="9.05644992559273"><ele>170.66666666666666</ele><time>2026-04-04T14:21:19.001Z</time></trkpt><trkpt lat="39.55153911109171" lon="9.056666469278113"><ele>170.33333333333331</ele><time>2026-04-04T14:21:20.001Z</time></trkpt><trkpt lat="39.55142452543902" lon="9.05688733397228"><ele>170.0</ele><time>2026-04-04T14:21:21.001Z</time></trkpt><trkpt lat="39.551306927872375" lon="9.057114004338105"><ele>169.33333333333331</ele><time>2026-04-04T14:21:22.001Z</time></trkpt><trkpt lat="39.551188373488834" lon="9.057342518897206"><ele>168.66666666666666</ele><time>2026-04-04T14:21:23.001Z</time></trkpt><trkpt lat="39.55106772636931" lon="9.057575067230848"><ele>168.0</ele><time>2026-04-04T14:21:24.001Z</time></trkpt><trkpt lat="39.55094492176776" lon="9.057811773953356"><ele>168.0</ele><time>2026-04-04T14:21:25.001Z</time></trkpt><trkpt lat="39.55083984422835" lon="9.058044057819359"><ele>168.0</ele><time>2026-04-04T14:21:26.001Z</time></trkpt><trkpt lat="39.55071831157403" lon="9.058278676608378"><ele>168.0</ele><time>2026-04-04T14:21:27.001Z</time></trkpt><trkpt lat="39.550598287247226" lon="9.058516781032047"><ele>168.0</ele><time>2026-04-04T14:21:28.001Z</time></trkpt><trkpt lat="39.55046694855426" lon="9.058733071791181"><ele>168.0</ele><time>2026-04-04T14:21:29.001Z</time></trkpt><trkpt lat="39.5503539491169" lon="9.058950879343802"><ele>168.0</ele><time>2026-04-04T14:21:30.001Z</time></trkpt><trkpt lat="39.55024650041764" lon="9.059158077057779"><ele>168.0</ele><time>2026-04-04T14:21:31.001Z</time></trkpt><trkpt lat="39.55015680417493" lon="9.05936732200513"><ele>168.0</ele><time>2026-04-04T14:21:32.001Z</time></trkpt><trkpt lat="39.55005676581263" lon="9.059558607039147"><ele>168.0</ele><time>2026-04-04T14:21:33.001Z</time></trkpt><trkpt lat="39.54995711446172" lon="9.059749746201827"><ele>168.0</ele><time>2026-04-04T14:21:34.001Z</time></trkpt><trkpt lat="39.54984295385927" lon="9.059936520319404"><ele>168.0</ele><time>2026-04-04T14:21:35.001Z</time></trkpt><trkpt lat="39.54974996262457" lon="9.060152712420736"><ele>168.0</ele><time>2026-04-04T14:21:36.001Z</time></trkpt><trkpt lat="39.54963662112314" lon="9.060366630087826"><ele>168.0</ele><time>2026-04-04T14:21:37.001Z</time></trkpt><trkpt lat="39.54952286739444" lon="9.060586312932937"><ele>168.0</ele><time>2026-04-04T14:21:38.001Z</time></trkpt><trkpt lat="39.54939419551823" lon="9.060797653347386"><ele>168.0</ele><time>2026-04-04T14:21:39.001Z</time></trkpt><trkpt lat="39.549275812790555" lon="9.061024732634278"><ele>168.0</ele><time>2026-04-04T14:21:40.001Z</time></trkpt><trkpt lat="39.54915626751329" lon="9.061254041801437"><ele>168.0</ele><time>2026-04-04T14:21:41.001Z</time></trkpt><trkpt lat="39.54903657305597" lon="9.06148363733888"><ele>168.0</ele><time>2026-04-04T14:21:42.001Z</time></trkpt><trkpt lat="39.548915398829344" lon="9.061715990473758"><ele>168.0</ele><time>2026-04-04T14:21:43.001Z</time></trkpt><trkpt lat="39.54879546443201" lon="9.061945017428947"><ele>168.0</ele><time>2026-04-04T14:21:44.001Z</time></trkpt><trkpt lat="39.548674222325246" lon="9.062176541340863"><ele>168.0</ele><time>2026-04-04T14:21:45.001Z</time></trkpt><trkpt lat="39.54855316073222" lon="9.062407720555218"><ele>167.66666666666666</ele><time>2026-04-04T14:21:46.001Z</time></trkpt><trkpt lat="39.548429934781666" lon="9.06264303297289"><ele>167.33333333333331</ele><time>2026-04-04T14:21:47.001Z</time></trkpt><trkpt lat="39.54830727186254" lon="9.062877270127832"><ele>167.0</ele><time>2026-04-04T14:21:48.001Z</time></trkpt><trkpt lat="39.5481976791491" lon="9.063124518915997"><ele>167.0</ele><time>2026-04-04T14:21:49.001Z</time></trkpt><trkpt lat="39.548072438813875" lon="9.063362585499831"><ele>167.0</ele><time>2026-04-04T14:21:50.001Z</time></trkpt><trkpt lat="39.54793410508369" lon="9.063591554851948"><ele>167.0</ele><time>2026-04-04T14:21:51.001Z</time></trkpt><trkpt lat="39.54780861639408" lon="9.063833093291361"><ele>166.66666666666666</ele><time>2026-04-04T14:21:52.001Z</time></trkpt><trkpt lat="39.54768386032667" lon="9.064074251489892"><ele>166.33333333333334</ele><time>2026-04-04T14:21:53.001Z</time></trkpt><trkpt lat="39.5475580150084" lon="9.064316542950936"><ele>166.0</ele><time>2026-04-04T14:21:54.001Z</time></trkpt><trkpt lat="39.54743283936606" lon="9.064557151507369"><ele>166.0</ele><time>2026-04-04T14:21:55.001Z</time></trkpt><trkpt lat="39.54730610165629" lon="9.064800762661312"><ele>166.0</ele><time>2026-04-04T14:21:56.001Z</time></trkpt><trkpt lat="39.54717834284481" lon="9.065046336512903"><ele>166.0</ele><time>2026-04-04T14:21:57.001Z</time></trkpt><trkpt lat="39.54705013009929" lon="9.065292782887626"><ele>166.0</ele><time>2026-04-04T14:21:58.001Z</time></trkpt><trkpt lat="39.54692263343214" lon="9.0655378528425"><ele>165.5</ele><time>2026-04-04T14:21:59.001Z</time></trkpt><trkpt lat="39.54680766438326" lon="9.065796838679042"><ele>165.0</ele><time>2026-04-04T14:22:00.001Z</time></trkpt><trkpt lat="39.54667887064167" lon="9.06604353213161"><ele>165.0</ele><time>2026-04-04T14:22:01.001Z</time></trkpt><trkpt lat="39.54653565386576" lon="9.066280206772399"><ele>165.0</ele><time>2026-04-04T14:22:02.001Z</time></trkpt><trkpt lat="39.54640605944454" lon="9.066528772299995"><ele>165.0</ele><time>2026-04-04T14:22:03.001Z</time></trkpt><trkpt lat="39.546276973726684" lon="9.066776135216678"><ele>165.0</ele><time>2026-04-04T14:22:04.001Z</time></trkpt><trkpt lat="39.546146501725836" lon="9.067026139487988"><ele>165.0</ele><time>2026-04-04T14:22:05.001Z</time></trkpt><trkpt lat="39.546016393356425" lon="9.067275446978067"><ele>165.0</ele><time>2026-04-04T14:22:06.001Z</time></trkpt><trkpt lat="39.545886132680074" lon="9.067525046311857"><ele>164.5</ele><time>2026-04-04T14:22:07.001Z</time></trkpt><trkpt lat="39.54575867268985" lon="9.067769304573142"><ele>164.0</ele><time>2026-04-04T14:22:08.001Z</time></trkpt><trkpt lat="39.54563159126636" lon="9.068012893682472"><ele>164.0</ele><time>2026-04-04T14:22:09.001Z</time></trkpt><trkpt lat="39.545505092908606" lon="9.068255365022281"><ele>164.0</ele><time>2026-04-04T14:22:10.001Z</time></trkpt><trkpt lat="39.54537922629866" lon="9.068496625517227"><ele>164.0</ele><time>2026-04-04T14:22:11.001Z</time></trkpt><trkpt lat="39.545247726981096" lon="9.068748275647813"><ele>164.0</ele><time>2026-04-04T14:22:12.001Z</time></trkpt><trkpt lat="39.54511234643402" lon="9.069006009996377"><ele>163.5</ele><time>2026-04-04T14:22:13.001Z</time></trkpt><trkpt lat="39.544974286910154" lon="9.06926884452588"><ele>163.0</ele><time>2026-04-04T14:22:14.001Z</time></trkpt><trkpt lat="39.54483375580555" lon="9.069535999900399"><ele>163.0</ele><time>2026-04-04T14:22:15.001Z</time></trkpt><trkpt lat="39.5446916274041" lon="9.069807214768623"><ele>163.0</ele><time>2026-04-04T14:22:16.001Z</time></trkpt><trkpt lat="39.544551391380956" lon="9.070074673578416"><ele>163.5</ele><time>2026-04-04T14:22:17.001Z</time></trkpt><trkpt lat="39.54440892596585" lon="9.070347411890799"><ele>164.0</ele><time>2026-04-04T14:22:18.001Z</time></trkpt><trkpt lat="39.54426793537243" lon="9.070617788692465"><ele>164.0</ele><time>2026-04-04T14:22:19.001Z</time></trkpt><trkpt lat="39.544127471596035" lon="9.070887155262215"><ele>164.0</ele><time>2026-04-04T14:22:20.001Z</time></trkpt><trkpt lat="39.543988555976064" lon="9.071153552936485"><ele>164.0</ele><time>2026-04-04T14:22:21.001Z</time></trkpt><trkpt lat="39.54385095447302" lon="9.07141743056798"><ele>164.0</ele><time>2026-04-04T14:22:22.001Z</time></trkpt><trkpt lat="39.54371359875513" lon="9.071680836829495"><ele>164.5</ele><time>2026-04-04T14:22:23.001Z</time></trkpt><trkpt lat="39.54357842132406" lon="9.071940065785759"><ele>165.0</ele><time>2026-04-04T14:22:24.001Z</time></trkpt><trkpt lat="39.54344361853218" lon="9.072198576337486"><ele>165.0</ele><time>2026-04-04T14:22:25.001Z</time></trkpt><trkpt lat="39.54330956694637" lon="9.072455646311099"><ele>165.0</ele><time>2026-04-04T14:22:26.001Z</time></trkpt><trkpt lat="39.54317653606215" lon="9.072710758877053"><ele>165.0</ele><time>2026-04-04T14:22:27.001Z</time></trkpt><trkpt lat="39.54304401544345" lon="9.072965323727377"><ele>165.0</ele><time>2026-04-04T14:22:28.001Z</time></trkpt><trkpt lat="39.542911226895406" lon="9.073220410910897"><ele>164.5</ele><time>2026-04-04T14:22:29.001Z</time></trkpt><trkpt lat="39.54278320788284" lon="9.0734708114643"><ele>164.0</ele><time>2026-04-04T14:22:30.001Z</time></trkpt><trkpt lat="39.54265731747726" lon="9.073721707681905"><ele>164.0</ele><time>2026-04-04T14:22:31.001Z</time></trkpt><trkpt lat="39.542539815155244" lon="9.073973514743708"><ele>164.0</ele><time>2026-04-04T14:22:32.001Z</time></trkpt><trkpt lat="39.54243141296769" lon="9.07423661896283"><ele>164.5</ele><time>2026-04-04T14:22:33.001Z</time></trkpt><trkpt lat="39.542332663454445" lon="9.074501448820442"><ele>165.0</ele><time>2026-04-04T14:22:34.001Z</time></trkpt><trkpt lat="39.542240667695374" lon="9.074768745219242"><ele>166.0</ele><time>2026-04-04T14:22:35.001Z</time></trkpt><trkpt lat="39.54214959143316" lon="9.075036163123581"><ele>167.0</ele><time>2026-04-04T14:22:36.001Z</time></trkpt><trkpt lat="39.54205872955926" lon="9.07530295154172"><ele>165.5</ele><time>2026-04-04T14:22:37.001Z</time></trkpt><trkpt lat="39.54197181190712" lon="9.07557015625494"><ele>164.0</ele><time>2026-04-04T14:22:38.001Z</time></trkpt><trkpt lat="39.54198155413653" lon="9.075885909723654"><ele>164.0</ele><time>2026-04-04T14:22:39.001Z</time></trkpt><trkpt lat="39.54193216490587" lon="9.076165413918378"><ele>164.0</ele><time>2026-04-04T14:22:40.001Z</time></trkpt><trkpt lat="39.54188960849438" lon="9.076444955165787"><ele>164.0</ele><time>2026-04-04T14:22:41.001Z</time></trkpt><trkpt lat="39.54185066127069" lon="9.076724398755132"><ele>164.0</ele><time>2026-04-04T14:22:42.001Z</time></trkpt><trkpt lat="39.541813702159445" lon="9.077004834930749"><ele>164.0</ele><time>2026-04-04T14:22:43.001Z</time></trkpt><trkpt lat="39.541777936655095" lon="9.077290493125712"><ele>164.0</ele><time>2026-04-04T14:22:44.001Z</time></trkpt><trkpt lat="39.54174225897572" lon="9.077578967028332"><ele>164.5</ele><time>2026-04-04T14:22:45.001Z</time></trkpt><trkpt lat="39.54170296597416" lon="9.077880319353536"><ele>165.0</ele><time>2026-04-04T14:22:46.001Z</time></trkpt><trkpt lat="39.541661338767895" lon="9.07817834881905"><ele>165.33333333333334</ele><time>2026-04-04T14:22:47.001Z</time></trkpt><trkpt lat="39.541626804267636" lon="9.078455263048303"><ele>165.66666666666669</ele><time>2026-04-04T14:22:48.001Z</time></trkpt><trkpt lat="39.541596485732995" lon="9.078702121827689"><ele>166.0</ele><time>2026-04-04T14:22:49.001Z</time></trkpt><trkpt lat="39.541567397856284" lon="9.078932659232127"><ele>166.33333333333334</ele><time>2026-04-04T14:22:50.001Z</time></trkpt><trkpt lat="39.54153714841298" lon="9.07915834226548"><ele>166.66666666666666</ele><time>2026-04-04T14:22:51.001Z</time></trkpt><trkpt lat="39.541506787865934" lon="9.079379610406543"><ele>167.0</ele><time>2026-04-04T14:22:52.001Z</time></trkpt><trkpt lat="39.541477257830365" lon="9.079606539764248"><ele>167.0</ele><time>2026-04-04T14:22:53.001Z</time></trkpt><trkpt lat="39.541450191779575" lon="9.079827887767452"><ele>167.0</ele><time>2026-04-04T14:22:54.001Z</time></trkpt><trkpt lat="39.54142344241605" lon="9.080044440815623"><ele>167.0</ele><time>2026-04-04T14:22:55.001Z</time></trkpt><trkpt lat="39.54139374963489" lon="9.080248769303584"><ele>166.75</ele><time>2026-04-04T14:22:56.001Z</time></trkpt><trkpt lat="39.54136418745594" lon="9.080442759755984"><ele>166.5</ele><time>2026-04-04T14:22:57.001Z</time></trkpt><trkpt lat="39.54133737455989" lon="9.08062718277154"><ele>166.25</ele><time>2026-04-04T14:22:58.001Z</time></trkpt><trkpt lat="39.54130505513639" lon="9.08080664752338"><ele>166.0</ele><time>2026-04-04T14:22:59.001Z</time></trkpt><trkpt lat="39.54125072134049" lon="9.080973013493216"><ele>165.25</ele><time>2026-04-04T14:23:00.001Z</time></trkpt><trkpt lat="39.54120425462092" lon="9.08113067438352"><ele>164.5</ele><time>2026-04-04T14:23:01.001Z</time></trkpt><trkpt lat="39.54113627120728" lon="9.081273693110514"><ele>163.75</ele><time>2026-04-04T14:23:02.001Z</time></trkpt><trkpt lat="39.54106215565405" lon="9.081413718203303"><ele>163.0</ele><time>2026-04-04T14:23:03.001Z</time></trkpt><trkpt lat="39.54098611637499" lon="9.081553206414805"><ele>163.75</ele><time>2026-04-04T14:23:04.001Z</time></trkpt><trkpt lat="39.540907002652396" lon="9.081693485238398"><ele>164.5</ele><time>2026-04-04T14:23:05.001Z</time></trkpt><trkpt lat="39.540829076094155" lon="9.081838097304745"><ele>165.25</ele><time>2026-04-04T14:23:06.001Z</time></trkpt><trkpt lat="39.540749402835786" lon="9.081986209932857"><ele>166.0</ele><time>2026-04-04T14:23:07.001Z</time></trkpt><trkpt lat="39.54067131686127" lon="9.082135832934265"><ele>166.0</ele><time>2026-04-04T14:23:08.001Z</time></trkpt><trkpt lat="39.5405874247184" lon="9.082282232045662"><ele>166.0</ele><time>2026-04-04T14:23:09.001Z</time></trkpt><trkpt lat="39.54049458494723" lon="9.082413849180213"><ele>166.0</ele><time>2026-04-04T14:23:10.001Z</time></trkpt><trkpt lat="39.54039444224814" lon="9.08253034697698"><ele>166.0</ele><time>2026-04-04T14:23:11.001Z</time></trkpt><trkpt lat="39.54028328718293" lon="9.082622025686776"><ele>165.25</ele><time>2026-04-04T14:23:12.001Z</time></trkpt><trkpt lat="39.540168741046216" lon="9.082704557728444"><ele>164.5</ele><time>2026-04-04T14:23:13.001Z</time></trkpt><trkpt lat="39.54005655419175" lon="9.082781087227856"><ele>163.75</ele><time>2026-04-04T14:23:14.001Z</time></trkpt><trkpt lat="39.539945607943004" lon="9.082855992192076"><ele>163.0</ele><time>2026-04-04T14:23:15.001Z</time></trkpt><trkpt lat="39.53983236823171" lon="9.082918688566437"><ele>163.0</ele><time>2026-04-04T14:23:16.001Z</time></trkpt><trkpt lat="39.53972061388019" lon="9.082972159411874"><ele>163.0</ele><time>2026-04-04T14:23:17.001Z</time></trkpt><trkpt lat="39.539610108085874" lon="9.083035158026984"><ele>163.0</ele><time>2026-04-04T14:23:18.001Z</time></trkpt><trkpt lat="39.539509106369984" lon="9.083106320919018"><ele>163.0</ele><time>2026-04-04T14:23:19.001Z</time></trkpt><trkpt lat="39.539415409964086" lon="9.083188714018425"><ele>163.2</ele><time>2026-04-04T14:23:20.001Z</time></trkpt><trkpt lat="39.539334899770346" lon="9.083278359454251"><ele>163.4</ele><time>2026-04-04T14:23:21.001Z</time></trkpt><trkpt lat="39.539295932672836" lon="9.083403378987276"><ele>163.6</ele><time>2026-04-04T14:23:22.001Z</time></trkpt><trkpt lat="39.53928908477447" lon="9.083548525023051"><ele>163.79999999999998</ele><time>2026-04-04T14:23:23.001Z</time></trkpt><trkpt lat="39.53929374391822" lon="9.083693721329093"><ele>164.0</ele><time>2026-04-04T14:23:24.001Z</time></trkpt><trkpt lat="39.53929451395161" lon="9.08384377426562"><ele>164.0</ele><time>2026-04-04T14:23:25.001Z</time></trkpt><trkpt lat="39.53929192452477" lon="9.083997233940124"><ele>164.0</ele><time>2026-04-04T14:23:26.001Z</time></trkpt><trkpt lat="39.539285517488686" lon="9.084152206301122"><ele>164.0</ele><time>2026-04-04T14:23:27.001Z</time></trkpt><trkpt lat="39.53928291093689" lon="9.084310007038463"><ele>164.0</ele><time>2026-04-04T14:23:28.001Z</time></trkpt><trkpt lat="39.5392789161727" lon="9.084469663681775"><ele>163.75</ele><time>2026-04-04T14:23:29.001Z</time></trkpt><trkpt lat="39.53927307393683" lon="9.084632298730881"><ele>163.5</ele><time>2026-04-04T14:23:30.001Z</time></trkpt><trkpt lat="39.539272182509606" lon="9.084796253043734"><ele>163.25</ele><time>2026-04-04T14:23:31.001Z</time></trkpt><trkpt lat="39.539271409125114" lon="9.08495819749316"><ele>163.0</ele><time>2026-04-04T14:23:32.001Z</time></trkpt><trkpt lat="39.53926830598209" lon="9.085121978341759"><ele>161.75</ele><time>2026-04-04T14:23:33.001Z</time></trkpt><trkpt lat="39.53926603859828" lon="9.085288844732242"><ele>160.5</ele><time>2026-04-04T14:23:34.001Z</time></trkpt><trkpt lat="39.5392607853304" lon="9.085452071910074"><ele>159.25</ele><time>2026-04-04T14:23:35.001Z</time></trkpt><trkpt lat="39.539257367016184" lon="9.08561755242835"><ele>158.0</ele><time>2026-04-04T14:23:36.001Z</time></trkpt><trkpt lat="39.53925217504767" lon="9.08577987414787"><ele>157.75</ele><time>2026-04-04T14:23:37.001Z</time></trkpt><trkpt lat="39.539248685644665" lon="9.085940574555412"><ele>157.5</ele><time>2026-04-04T14:23:38.001Z</time></trkpt><trkpt lat="39.53924295044151" lon="9.086100162429629"><ele>157.25</ele><time>2026-04-04T14:23:39.001Z</time></trkpt><trkpt lat="39.539236049741916" lon="9.08626074493185"><ele>157.0</ele><time>2026-04-04T14:23:40.001Z</time></trkpt><trkpt lat="39.53923461501091" lon="9.08642295438661"><ele>157.0</ele><time>2026-04-04T14:23:41.001Z</time></trkpt><trkpt lat="39.53923649067921" lon="9.086585822732049"><ele>157.0</ele><time>2026-04-04T14:23:42.001Z</time></trkpt><trkpt lat="39.53923294432327" lon="9.086749173402561"><ele>157.0</ele><time>2026-04-04T14:23:43.001Z</time></trkpt><trkpt lat="39.53922525024864" lon="9.086911942607065"><ele>157.0</ele><time>2026-04-04T14:23:44.001Z</time></trkpt><trkpt lat="39.53922025586376" lon="9.087075140393138"><ele>157.0</ele><time>2026-04-04T14:23:45.001Z</time></trkpt><trkpt lat="39.539218222768476" lon="9.087237751276358"><ele>157.0</ele><time>2026-04-04T14:23:46.001Z</time></trkpt><trkpt lat="39.53921823080164" lon="9.08740240492774"><ele>157.0</ele><time>2026-04-04T14:23:47.001Z</time></trkpt><trkpt lat="39.53921620086901" lon="9.087568864014756"><ele>157.0</ele><time>2026-04-04T14:23:48.001Z</time></trkpt><trkpt lat="39.539211145502186" lon="9.087740870750874"><ele>157.25</ele><time>2026-04-04T14:23:49.001Z</time></trkpt><trkpt lat="39.539206616062806" lon="9.087914144074647"><ele>157.5</ele><time>2026-04-04T14:23:50.001Z</time></trkpt><trkpt lat="39.53920483874846" lon="9.088090597837418"><ele>157.75</ele><time>2026-04-04T14:23:51.001Z</time></trkpt><trkpt lat="39.539201192290854" lon="9.088269640479096"><ele>158.0</ele><time>2026-04-04T14:23:52.001Z</time></trkpt><trkpt lat="39.53919176041429" lon="9.088452183969244"><ele>158.0</ele><time>2026-04-04T14:23:53.001Z</time></trkpt><trkpt lat="39.53918605646014" lon="9.088637429381972"><ele>158.0</ele><time>2026-04-04T14:23:54.001Z</time></trkpt><trkpt lat="39.53917966556659" lon="9.088825290234645"><ele>158.0</ele><time>2026-04-04T14:23:55.001Z</time></trkpt><trkpt lat="39.5391659847182" lon="9.089019674888954"><ele>158.0</ele><time>2026-04-04T14:23:56.001Z</time></trkpt><trkpt lat="39.539139699987686" lon="9.089213351395104"><ele>158.66666666666666</ele><time>2026-04-04T14:23:57.001Z</time></trkpt><trkpt lat="39.53909415470602" lon="9.089403525391662"><ele>159.33333333333334</ele><time>2026-04-04T14:23:58.001Z</time></trkpt><trkpt lat="39.53903050651596" lon="9.089596203032034"><ele>160.0</ele><time>2026-04-04T14:23:59.001Z</time></trkpt><trkpt lat="39.53894647667449" lon="9.089779606791033"><ele>159.66666666666669</ele><time>2026-04-04T14:24:00.001Z</time></trkpt><trkpt lat="39.538845320111506" lon="9.089961589955081"><ele>159.33333333333334</ele><time>2026-04-04T14:24:01.001Z</time></trkpt><trkpt lat="39.53873288281659" lon="9.090158062654554"><ele>159.0</ele><time>2026-04-04T14:24:02.001Z</time></trkpt><trkpt lat="39.538605792590516" lon="9.09036645712388"><ele>159.0</ele><time>2026-04-04T14:24:03.001Z</time></trkpt><trkpt lat="39.538475199688065" lon="9.090581982082892"><ele>159.0</ele><time>2026-04-04T14:24:04.001Z</time></trkpt><trkpt lat="39.53834661579389" lon="9.090802457852291"><ele>159.0</ele><time>2026-04-04T14:24:05.001Z</time></trkpt><trkpt lat="39.53823049751502" lon="9.091038640894206"><ele>160.33333333333334</ele><time>2026-04-04T14:24:06.001Z</time></trkpt><trkpt lat="39.538128083450886" lon="9.091285536369579"><ele>161.66666666666669</ele><time>2026-04-04T14:24:07.001Z</time></trkpt><trkpt lat="39.538047283882975" lon="9.091539522512122"><ele>163.0</ele><time>2026-04-04T14:24:08.001Z</time></trkpt><trkpt lat="39.53799554261048" lon="9.091832015582968"><ele>163.0</ele><time>2026-04-04T14:24:09.001Z</time></trkpt><trkpt lat="39.53795907441434" lon="9.092136834556873"><ele>163.0</ele><time>2026-04-04T14:24:10.001Z</time></trkpt><trkpt lat="39.53792316637346" lon="9.092446281023465"><ele>162.0</ele><time>2026-04-04T14:24:11.001Z</time></trkpt><trkpt lat="39.537883092019754" lon="9.092757988435903"><ele>161.0</ele><time>2026-04-04T14:24:12.001Z</time></trkpt><trkpt lat="39.53783618915611" lon="9.093066526971489"><ele>160.5</ele><time>2026-04-04T14:24:13.001Z</time></trkpt><trkpt lat="39.53778825010551" lon="9.093368195918414"><ele>160.0</ele><time>2026-04-04T14:24:14.001Z</time></trkpt><trkpt lat="39.53774120559344" lon="9.09367172304189"><ele>160.0</ele><time>2026-04-04T14:24:15.001Z</time></trkpt><trkpt lat="39.53769594132563" lon="9.093971788927211"><ele>160.0</ele><time>2026-04-04T14:24:16.001Z</time></trkpt><trkpt lat="39.53765142046952" lon="9.094267759734127"><ele>160.0</ele><time>2026-04-04T14:24:17.001Z</time></trkpt><trkpt lat="39.53760637809788" lon="9.094560446930165"><ele>160.0</ele><time>2026-04-04T14:24:18.001Z</time></trkpt><trkpt lat="39.53756054053845" lon="9.094848378029393"><ele>159.66666666666669</ele><time>2026-04-04T14:24:19.001Z</time></trkpt><trkpt lat="39.53751560633287" lon="9.09512837585897"><ele>159.33333333333334</ele><time>2026-04-04T14:24:20.001Z</time></trkpt><trkpt lat="39.53746854643327" lon="9.095404871439987"><ele>159.0</ele><time>2026-04-04T14:24:21.001Z</time></trkpt><trkpt lat="39.537423299198736" lon="9.095678586849115"><ele>159.0</ele><time>2026-04-04T14:24:22.001Z</time></trkpt><trkpt lat="39.53738211072848" lon="9.095948383172782"><ele>159.0</ele><time>2026-04-04T14:24:23.001Z</time></trkpt><trkpt lat="39.53734224959864" lon="9.096217014666827"><ele>159.0</ele><time>2026-04-04T14:24:24.001Z</time></trkpt><trkpt lat="39.5373021288264" lon="9.096485918463864"><ele>158.66666666666666</ele><time>2026-04-04T14:24:25.001Z</time></trkpt><trkpt lat="39.53725923928299" lon="9.096752699882105"><ele>158.33333333333331</ele><time>2026-04-04T14:24:26.001Z</time></trkpt><trkpt lat="39.53721606877296" lon="9.097019351548868"><ele>158.0</ele><time>2026-04-04T14:24:27.001Z</time></trkpt><trkpt lat="39.537174239810554" lon="9.097283940001539"><ele>158.33333333333331</ele><time>2026-04-04T14:24:28.001Z</time></trkpt><trkpt lat="39.537132271101605" lon="9.097550043987969"><ele>158.66666666666666</ele><time>2026-04-04T14:24:29.001Z</time></trkpt><trkpt lat="39.537087811980896" lon="9.097812969358896"><ele>159.0</ele><time>2026-04-04T14:24:30.001Z</time></trkpt><trkpt lat="39.53704610271289" lon="9.09808129156792"><ele>158.33333333333334</ele><time>2026-04-04T14:24:31.001Z</time></trkpt><trkpt lat="39.537000780714855" lon="9.098348497865464"><ele>157.66666666666669</ele><time>2026-04-04T14:24:32.001Z</time></trkpt><trkpt lat="39.53695761920615" lon="9.098622547361233"><ele>157.0</ele><time>2026-04-04T14:24:33.001Z</time></trkpt><trkpt lat="39.5369150662036" lon="9.098899757152312"><ele>157.33333333333334</ele><time>2026-04-04T14:24:34.001Z</time></trkpt><trkpt lat="39.53687228097017" lon="9.099177157167242"><ele>157.66666666666666</ele><time>2026-04-04T14:24:35.001Z</time></trkpt><trkpt lat="39.53682905419551" lon="9.099459190308353"><ele>158.0</ele><time>2026-04-04T14:24:36.001Z</time></trkpt><trkpt lat="39.53678424565359" lon="9.099739975796203"><ele>158.66666666666666</ele><time>2026-04-04T14:24:37.001Z</time></trkpt><trkpt lat="39.53673820423817" lon="9.10001900426647"><ele>159.33333333333334</ele><time>2026-04-04T14:24:38.001Z</time></trkpt><trkpt lat="39.536693817841815" lon="9.100299745734791"><ele>160.0</ele><time>2026-04-04T14:24:39.001Z</time></trkpt><trkpt lat="39.536649051883124" lon="9.10057991913888"><ele>160.66666666666669</ele><time>2026-04-04T14:24:40.001Z</time></trkpt><trkpt lat="39.536604744074864" lon="9.100860735670514"><ele>161.33333333333334</ele><time>2026-04-04T14:24:41.001Z</time></trkpt><trkpt lat="39.53656527645939" lon="9.101135327337538"><ele>162.0</ele><time>2026-04-04T14:24:42.001Z</time></trkpt><trkpt lat="39.53652730866672" lon="9.101397386288141"><ele>161.66666666666666</ele><time>2026-04-04T14:24:43.001Z</time></trkpt><trkpt lat="39.536482542365206" lon="9.101647218274973"><ele>161.33333333333331</ele><time>2026-04-04T14:24:44.001Z</time></trkpt><trkpt lat="39.536436431082095" lon="9.101906546295938"><ele>161.0</ele><time>2026-04-04T14:24:45.001Z</time></trkpt><trkpt lat="39.53639442232315" lon="9.10216993776458"><ele>161.0</ele><time>2026-04-04T14:24:46.001Z</time></trkpt><trkpt lat="39.53635686936174" lon="9.1024329344304"><ele>161.0</ele><time>2026-04-04T14:24:47.001Z</time></trkpt><trkpt lat="39.536316408976695" lon="9.102699356367559"><ele>161.0</ele><time>2026-04-04T14:24:48.001Z</time></trkpt><trkpt lat="39.536273158162935" lon="9.10296749380116"><ele>161.0</ele><time>2026-04-04T14:24:49.001Z</time></trkpt><trkpt lat="39.53622807677977" lon="9.103240542717785"><ele>161.0</ele><time>2026-04-04T14:24:50.001Z</time></trkpt><trkpt lat="39.53618297232035" lon="9.103516195807348"><ele>161.0</ele><time>2026-04-04T14:24:51.001Z</time></trkpt><trkpt lat="39.536139545248865" lon="9.103790666095998"><ele>160.0</ele><time>2026-04-04T14:24:52.001Z</time></trkpt><trkpt lat="39.536096177057736" lon="9.104074587077742"><ele>159.0</ele><time>2026-04-04T14:24:53.001Z</time></trkpt><trkpt lat="39.53604905986786" lon="9.10436443089079"><ele>159.0</ele><time>2026-04-04T14:24:54.001Z</time></trkpt><trkpt lat="39.53600406356961" lon="9.104651399413482"><ele>159.0</ele><time>2026-04-04T14:24:55.001Z</time></trkpt><trkpt lat="39.53595702548086" lon="9.104942815825074"><ele>159.5</ele><time>2026-04-04T14:24:56.001Z</time></trkpt><trkpt lat="39.535909147214994" lon="9.105238613952485"><ele>160.0</ele><time>2026-04-04T14:24:57.001Z</time></trkpt><trkpt lat="39.53586127407604" lon="9.105525793682101"><ele>160.0</ele><time>2026-04-04T14:24:58.001Z</time></trkpt><trkpt lat="39.53581650600931" lon="9.10581911433055"><ele>160.0</ele><time>2026-04-04T14:24:59.001Z</time></trkpt><trkpt lat="39.53577242226011" lon="9.106111580708314"><ele>160.0</ele><time>2026-04-04T14:25:00.001Z</time></trkpt><trkpt lat="39.535728460267336" lon="9.106401589339294"><ele>160.0</ele><time>2026-04-04T14:25:01.001Z</time></trkpt><trkpt lat="39.53568488941957" lon="9.106689603024945"><ele>160.0</ele><time>2026-04-04T14:25:02.001Z</time></trkpt><trkpt lat="39.53563754703623" lon="9.106975543135713"><ele>160.0</ele><time>2026-04-04T14:25:03.001Z</time></trkpt><trkpt lat="39.53559039102295" lon="9.1072638058952"><ele>159.5</ele><time>2026-04-04T14:25:04.001Z</time></trkpt><trkpt lat="39.535541751387896" lon="9.107550227840143"><ele>159.0</ele><time>2026-04-04T14:25:05.001Z</time></trkpt><trkpt lat="39.53549515946564" lon="9.107840964684215"><ele>159.0</ele><time>2026-04-04T14:25:06.001Z</time></trkpt><trkpt lat="39.5354474538001" lon="9.108137753354976"><ele>159.0</ele><time>2026-04-04T14:25:07.001Z</time></trkpt><trkpt lat="39.53540088167372" lon="9.108433987927231"><ele>159.0</ele><time>2026-04-04T14:25:08.001Z</time></trkpt><trkpt lat="39.53535475349371" lon="9.10872576773651"><ele>159.0</ele><time>2026-04-04T14:25:09.001Z</time></trkpt><trkpt lat="39.53530937725631" lon="9.109021322332229"><ele>159.5</ele><time>2026-04-04T14:25:10.001Z</time></trkpt><trkpt lat="39.53526179803169" lon="9.109316554074427"><ele>160.0</ele><time>2026-04-04T14:25:11.001Z</time></trkpt><trkpt lat="39.53521353276345" lon="9.109611479181813"><ele>159.5</ele><time>2026-04-04T14:25:12.001Z</time></trkpt><trkpt lat="39.53515976016134" lon="9.109908833118407"><ele>159.0</ele><time>2026-04-04T14:25:13.001Z</time></trkpt><trkpt lat="39.53510584556315" lon="9.110205551041684"><ele>159.0</ele><time>2026-04-04T14:25:14.001Z</time></trkpt><trkpt lat="39.5350511085032" lon="9.110501430145854"><ele>159.0</ele><time>2026-04-04T14:25:15.001Z</time></trkpt><trkpt lat="39.5349961988096" lon="9.110796230219647"><ele>160.0</ele><time>2026-04-04T14:25:16.001Z</time></trkpt><trkpt lat="39.53494244905622" lon="9.111089462263564"><ele>161.0</ele><time>2026-04-04T14:25:17.001Z</time></trkpt><trkpt lat="39.53488817388274" lon="9.11138387034232"><ele>160.5</ele><time>2026-04-04T14:25:18.001Z</time></trkpt><trkpt lat="39.534834840237714" lon="9.111674728696295"><ele>160.0</ele><time>2026-04-04T14:25:19.001Z</time></trkpt><trkpt lat="39.534781322067836" lon="9.111962829894352"><ele>160.0</ele><time>2026-04-04T14:25:20.001Z</time></trkpt><trkpt lat="39.534729833519435" lon="9.112246990779045"><ele>160.0</ele><time>2026-04-04T14:25:21.001Z</time></trkpt><trkpt lat="39.53467972795558" lon="9.1125221770482"><ele>160.0</ele><time>2026-04-04T14:25:22.001Z</time></trkpt><trkpt lat="39.53462898022427" lon="9.112784937817713"><ele>159.5</ele><time>2026-04-04T14:25:23.001Z</time></trkpt><trkpt lat="39.53453309006428" lon="9.113274052170894"><ele>159.0</ele><time>2026-04-04T14:25:25.001Z</time></trkpt><trkpt lat="39.5344887593841" lon="9.113509694728915"><ele>159.0</ele><time>2026-04-04T14:25:26.001Z</time></trkpt><trkpt lat="39.53444773554801" lon="9.113738872038418"><ele>159.0</ele><time>2026-04-04T14:25:27.001Z</time></trkpt><trkpt lat="39.53440925577469" lon="9.113958960703055"><ele>159.0</ele><time>2026-04-04T14:25:28.001Z</time></trkpt><trkpt lat="39.53437443340063" lon="9.114162030276477"><ele>159.0</ele><time>2026-04-04T14:25:29.001Z</time></trkpt><trkpt lat="39.53434223918579" lon="9.114346671401542"><ele>159.0</ele><time>2026-04-04T14:25:30.001Z</time></trkpt><trkpt lat="39.534310247496514" lon="9.114515767230875"><ele>159.0</ele><time>2026-04-04T14:25:31.001Z</time></trkpt><trkpt lat="39.53428233110773" lon="9.114668461995347"><ele>159.0</ele><time>2026-04-04T14:25:32.001Z</time></trkpt><trkpt lat="39.53425905414875" lon="9.114804345620177"><ele>159.6</ele><time>2026-04-04T14:25:33.001Z</time></trkpt><trkpt lat="39.53423346607178" lon="9.114932816344483"><ele>160.2</ele><time>2026-04-04T14:25:34.001Z</time></trkpt><trkpt lat="39.53419718387336" lon="9.115046654685852"><ele>160.79999999999998</ele><time>2026-04-04T14:25:35.001Z</time></trkpt><trkpt lat="39.53413541492337" lon="9.11513954651437"><ele>161.4</ele><time>2026-04-04T14:25:36.001Z</time></trkpt><trkpt lat="39.53406541658112" lon="9.115219194608029"><ele>162.0</ele><time>2026-04-04T14:25:37.001Z</time></trkpt><trkpt lat="39.533963830331395" lon="9.115272245533253"><ele>162.0</ele><time>2026-04-04T14:25:38.001Z</time></trkpt><trkpt lat="39.53386845728156" lon="9.115343047621037"><ele>162.0</ele><time>2026-04-04T14:25:39.001Z</time></trkpt><trkpt lat="39.533815923127335" lon="9.115452153179191"><ele>162.0</ele><time>2026-04-04T14:25:40.001Z</time></trkpt><trkpt lat="39.53380483593044" lon="9.11558108677619"><ele>162.0</ele><time>2026-04-04T14:25:41.001Z</time></trkpt><trkpt lat="39.53382447007405" lon="9.115713414153785"><ele>162.0</ele><time>2026-04-04T14:25:42.001Z</time></trkpt><trkpt lat="39.53387931038856" lon="9.115841010936364"><ele>162.75</ele><time>2026-04-04T14:25:43.001Z</time></trkpt><trkpt lat="39.53394011614903" lon="9.115967114765162"><ele>163.5</ele><time>2026-04-04T14:25:44.001Z</time></trkpt><trkpt lat="39.53398996721775" lon="9.116102311832421"><ele>164.25</ele><time>2026-04-04T14:25:45.001Z</time></trkpt><trkpt lat="39.5339996309048" lon="9.116260824711986"><ele>165.0</ele><time>2026-04-04T14:25:46.001Z</time></trkpt><trkpt lat="39.53396228846192" lon="9.116440352425526"><ele>165.66666666666666</ele><time>2026-04-04T14:25:47.001Z</time></trkpt><trkpt lat="39.5339134748319" lon="9.116629296362852"><ele>166.33333333333331</ele><time>2026-04-04T14:25:48.001Z</time></trkpt><trkpt lat="39.533871963957125" lon="9.116827335488916"><ele>167.0</ele><time>2026-04-04T14:25:49.001Z</time></trkpt><trkpt lat="39.53383990301386" lon="9.117033157608875"><ele>167.0</ele><time>2026-04-04T14:25:50.001Z</time></trkpt><trkpt lat="39.533802678706095" lon="9.117248337661925"><ele>167.0</ele><time>2026-04-04T14:25:51.001Z</time></trkpt><trkpt lat="39.53376102306943" lon="9.117471876826201"><ele>167.0</ele><time>2026-04-04T14:25:52.001Z</time></trkpt><trkpt lat="39.53371855920127" lon="9.117706504444293"><ele>167.0</ele><time>2026-04-04T14:25:53.001Z</time></trkpt><trkpt lat="39.53367189383872" lon="9.117958889819903"><ele>167.0</ele><time>2026-04-04T14:25:54.001Z</time></trkpt><trkpt lat="39.533621034589025" lon="9.118222288390788"><ele>167.0</ele><time>2026-04-04T14:25:55.001Z</time></trkpt><trkpt lat="39.53356752928465" lon="9.118499068936938"><ele>167.0</ele><time>2026-04-04T14:25:56.001Z</time></trkpt><trkpt lat="39.533516500103815" lon="9.118771220476274"><ele>167.0</ele><time>2026-04-04T14:25:57.001Z</time></trkpt><trkpt lat="39.533466300966154" lon="9.119042142031143"><ele>167.0</ele><time>2026-04-04T14:25:58.001Z</time></trkpt><trkpt lat="39.53341361440397" lon="9.119326796092533"><ele>167.0</ele><time>2026-04-04T14:25:59.001Z</time></trkpt><trkpt lat="39.53335705317071" lon="9.119633085543798"><ele>167.0</ele><time>2026-04-04T14:26:00.001Z</time></trkpt><trkpt lat="39.53330177217044" lon="9.119935749778708"><ele>168.33333333333331</ele><time>2026-04-04T14:26:01.001Z</time></trkpt><trkpt lat="39.53325002009528" lon="9.12022364529219"><ele>169.66666666666666</ele><time>2026-04-04T14:26:02.001Z</time></trkpt><trkpt lat="39.53320193092876" lon="9.120503417628118"><ele>171.0</ele><time>2026-04-04T14:26:03.001Z</time></trkpt><trkpt lat="39.533171286515184" lon="9.120780999834144"><ele>172.0</ele><time>2026-04-04T14:26:04.001Z</time></trkpt><trkpt lat="39.533175493826086" lon="9.12104762666371"><ele>173.0</ele><time>2026-04-04T14:26:05.001Z</time></trkpt><trkpt lat="39.53320531663127" lon="9.121293478876739"><ele>174.0</ele><time>2026-04-04T14:26:06.001Z</time></trkpt><trkpt lat="39.533249918980026" lon="9.121519467190236"><ele>175.0</ele><time>2026-04-04T14:26:07.001Z</time></trkpt><trkpt lat="39.53330249133684" lon="9.121735905729611"><ele>176.0</ele><time>2026-04-04T14:26:08.001Z</time></trkpt><trkpt lat="39.533362136552654" lon="9.121954102849118"><ele>177.0</ele><time>2026-04-04T14:26:09.001Z</time></trkpt><trkpt lat="39.53343216906917" lon="9.12216909265961"><ele>177.0</ele><time>2026-04-04T14:26:10.001Z</time></trkpt><trkpt lat="39.53350562635431" lon="9.122386038149655"><ele>177.0</ele><time>2026-04-04T14:26:11.001Z</time></trkpt><trkpt lat="39.53357176094965" lon="9.122607221052267"><ele>177.0</ele><time>2026-04-04T14:26:12.001Z</time></trkpt><trkpt lat="39.53363453975119" lon="9.122826198208598"><ele>176.0</ele><time>2026-04-04T14:26:13.001Z</time></trkpt><trkpt lat="39.533698292443184" lon="9.123042848705486"><ele>175.0</ele><time>2026-04-04T14:26:14.001Z</time></trkpt><trkpt lat="39.533761136401196" lon="9.123256893165278"><ele>174.0</ele><time>2026-04-04T14:26:15.001Z</time></trkpt><trkpt lat="39.53382357328019" lon="9.123467707680126"><ele>176.0</ele><time>2026-04-04T14:26:16.001Z</time></trkpt><trkpt lat="39.533886182559144" lon="9.123676798881492"><ele>178.0</ele><time>2026-04-04T14:26:17.001Z</time></trkpt><trkpt lat="39.53394808043352" lon="9.123881326986576"><ele>180.0</ele><time>2026-04-04T14:26:18.001Z</time></trkpt><trkpt lat="39.53400758376629" lon="9.124079235901364"><ele>180.5</ele><time>2026-04-04T14:26:19.001Z</time></trkpt><trkpt lat="39.534061073736986" lon="9.12425885909235"><ele>181.0</ele><time>2026-04-04T14:26:20.001Z</time></trkpt><trkpt lat="39.53410782023175" lon="9.124410785437817"><ele>181.5</ele><time>2026-04-04T14:26:21.001Z</time></trkpt><trkpt lat="39.53415125658223" lon="9.124547596879886"><ele>182.0</ele><time>2026-04-04T14:26:22.001Z</time></trkpt><trkpt lat="39.534192222709095" lon="9.124678175351129"><ele>182.0</ele><time>2026-04-04T14:26:23.001Z</time></trkpt><trkpt lat="39.53423080716732" lon="9.12480341151206"><ele>182.0</ele><time>2026-04-04T14:26:24.001Z</time></trkpt><trkpt lat="39.53426881855" lon="9.124930245924821"><ele>182.0</ele><time>2026-04-04T14:26:25.001Z</time></trkpt><trkpt lat="39.53430857483418" lon="9.125061209868825"><ele>182.0</ele><time>2026-04-04T14:26:26.001Z</time></trkpt><trkpt lat="39.53435080016367" lon="9.125194350492992"><ele>182.0</ele><time>2026-04-04T14:26:27.001Z</time></trkpt><trkpt lat="39.53439139069195" lon="9.125328973418572"><ele>182.0</ele><time>2026-04-04T14:26:28.001Z</time></trkpt><trkpt lat="39.53443000194601" lon="9.125466019220452"><ele>182.0</ele><time>2026-04-04T14:26:29.001Z</time></trkpt><trkpt lat="39.534469521318044" lon="9.125597815022786"><ele>182.0</ele><time>2026-04-04T14:26:30.001Z</time></trkpt><trkpt lat="39.53450852362392" lon="9.125721401844741"><ele>182.0</ele><time>2026-04-04T14:26:31.001Z</time></trkpt><trkpt lat="39.534545411732445" lon="9.12583992926357"><ele>182.0</ele><time>2026-04-04T14:26:32.001Z</time></trkpt><trkpt lat="39.53457978474554" lon="9.125955526580755"><ele>183.2</ele><time>2026-04-04T14:26:33.001Z</time></trkpt><trkpt lat="39.534616288496906" lon="9.126068177868255"><ele>184.39999999999998</ele><time>2026-04-04T14:26:34.001Z</time></trkpt><trkpt lat="39.53463688575222" lon="9.126192787881523"><ele>185.60000000000002</ele><time>2026-04-04T14:26:35.001Z</time></trkpt><trkpt lat="39.534674622995475" lon="9.126312383311928"><ele>186.8</ele><time>2026-04-04T14:26:36.001Z</time></trkpt><trkpt lat="39.53472498500954" lon="9.126424667917565"><ele>188.0</ele><time>2026-04-04T14:26:37.001Z</time></trkpt><trkpt lat="39.534759592896236" lon="9.126545369957134"><ele>188.4</ele><time>2026-04-04T14:26:38.001Z</time></trkpt><trkpt lat="39.53478582309735" lon="9.126674645077257"><ele>188.8</ele><time>2026-04-04T14:26:39.001Z</time></trkpt><trkpt lat="39.53482148191906" lon="9.126796815546674"><ele>189.2</ele><time>2026-04-04T14:26:40.001Z</time></trkpt><trkpt lat="39.53486415366828" lon="9.126918226943605"><ele>189.6</ele><time>2026-04-04T14:26:41.001Z</time></trkpt><trkpt lat="39.5348760409556" lon="9.127053896266657"><ele>190.0</ele><time>2026-04-04T14:26:42.001Z</time></trkpt><trkpt lat="39.53487601860789" lon="9.127187959753721"><ele>190.0</ele><time>2026-04-04T14:26:43.001Z</time></trkpt><trkpt lat="39.53485484101136" lon="9.127321927327918"><ele>190.0</ele><time>2026-04-04T14:26:44.001Z</time></trkpt><trkpt lat="39.534814472026675" lon="9.127455724285907"><ele>190.0</ele><time>2026-04-04T14:26:45.001Z</time></trkpt><trkpt lat="39.534773453111846" lon="9.127579111804588"><ele>190.0</ele><time>2026-04-04T14:26:46.001Z</time></trkpt><trkpt lat="39.53474125296179" lon="9.127701311483271"><ele>190.0</ele><time>2026-04-04T14:26:47.001Z</time></trkpt><trkpt lat="39.53469182341518" lon="9.127813701428463"><ele>190.0</ele><time>2026-04-04T14:26:48.001Z</time></trkpt><trkpt lat="39.53466069668442" lon="9.127988690831774"><ele>190.0</ele><time>2026-04-04T14:26:49.001Z</time></trkpt><trkpt lat="39.53462295781331" lon="9.128120171796901"><ele>190.0</ele><time>2026-04-04T14:26:50.001Z</time></trkpt><trkpt lat="39.53458707105662" lon="9.12825304784214"><ele>190.0</ele><time>2026-04-04T14:26:51.001Z</time></trkpt><trkpt lat="39.5345505187565" lon="9.12838058075375"><ele>190.16666666666669</ele><time>2026-04-04T14:26:52.001Z</time></trkpt><trkpt lat="39.53450961521993" lon="9.128495549552655"><ele>190.33333333333334</ele><time>2026-04-04T14:26:53.001Z</time></trkpt><trkpt lat="39.53446712049876" lon="9.12860587144717"><ele>190.5</ele><time>2026-04-04T14:26:54.001Z</time></trkpt><trkpt lat="39.5344167632146" lon="9.12870034730098"><ele>190.66666666666666</ele><time>2026-04-04T14:26:55.001Z</time></trkpt><trkpt lat="39.53434502743783" lon="9.12875442528021"><ele>190.83333333333331</ele><time>2026-04-04T14:26:56.001Z</time></trkpt><trkpt lat="39.534290991659645" lon="9.128808831323465"><ele>191.0</ele><time>2026-04-04T14:26:57.001Z</time></trkpt><trkpt lat="39.53421127614435" lon="9.12882793994089"><ele>191.0</ele><time>2026-04-04T14:26:58.001Z</time></trkpt><trkpt lat="39.53413267572193" lon="9.128837919920036"><ele>191.0</ele><time>2026-04-04T14:26:59.001Z</time></trkpt><trkpt lat="39.53405516041262" lon="9.1288495519361"><ele>191.0</ele><time>2026-04-04T14:27:00.001Z</time></trkpt><trkpt lat="39.53397041104191" lon="9.128865352679453"><ele>191.0</ele><time>2026-04-04T14:27:01.001Z</time></trkpt><trkpt lat="39.53388565947407" lon="9.128884665475766"><ele>191.0</ele><time>2026-04-04T14:27:02.001Z</time></trkpt><trkpt lat="39.53380283076107" lon="9.128899257498796"><ele>191.0</ele><time>2026-04-04T14:27:03.001Z</time></trkpt><trkpt lat="39.53371847476797" lon="9.128909734255407"><ele>190.83333333333331</ele><time>2026-04-04T14:27:04.001Z</time></trkpt><trkpt lat="39.533634471620736" lon="9.128924454524265"><ele>190.66666666666666</ele><time>2026-04-04T14:27:05.001Z</time></trkpt><trkpt lat="39.53354715157699" lon="9.128940996872982"><ele>190.5</ele><time>2026-04-04T14:27:06.001Z</time></trkpt><trkpt lat="39.5334593197706" lon="9.128960296060484"><ele>190.33333333333334</ele><time>2026-04-04T14:27:07.001Z</time></trkpt><trkpt lat="39.53337465906524" lon="9.128983321329077"><ele>190.16666666666669</ele><time>2026-04-04T14:27:08.001Z</time></trkpt><trkpt lat="39.53329634606662" lon="9.129013943230353"><ele>190.0</ele><time>2026-04-04T14:27:09.001Z</time></trkpt><trkpt lat="39.533220392328246" lon="9.129058247132164"><ele>191.16666666666669</ele><time>2026-04-04T14:27:10.001Z</time></trkpt><trkpt lat="39.5331494449711" lon="9.129110973188038"><ele>192.33333333333334</ele><time>2026-04-04T14:27:11.001Z</time></trkpt><trkpt lat="39.53308823096341" lon="9.129174227033335"><ele>193.5</ele><time>2026-04-04T14:27:12.001Z</time></trkpt><trkpt lat="39.53303068105742" lon="9.129243759252587"><ele>194.66666666666669</ele><time>2026-04-04T14:27:13.001Z</time></trkpt><trkpt lat="39.532986179219236" lon="9.12932759214693"><ele>195.83333333333334</ele><time>2026-04-04T14:27:14.001Z</time></trkpt><trkpt lat="39.532948792782356" lon="9.129410269086355"><ele>197.0</ele><time>2026-04-04T14:27:15.001Z</time></trkpt><trkpt lat="39.53290539540599" lon="9.129489246685017"><ele>196.50000000000003</ele><time>2026-04-04T14:27:16.001Z</time></trkpt><trkpt lat="39.53286716396243" lon="9.129564528275992"><ele>196.0</ele><time>2026-04-04T14:27:17.001Z</time></trkpt><trkpt lat="39.53283056353487" lon="9.12963747900025"><ele>195.5</ele><time>2026-04-04T14:27:18.001Z</time></trkpt><trkpt lat="39.53279387600376" lon="9.129711102657755"><ele>195.0</ele><time>2026-04-04T14:27:19.001Z</time></trkpt><trkpt lat="39.532757371540164" lon="9.129779472387908"><ele>194.50000000000003</ele><time>2026-04-04T14:27:20.001Z</time></trkpt><trkpt lat="39.53268489586081" lon="9.129912883216546"><ele>194.0</ele><time>2026-04-04T14:27:22.001Z</time></trkpt><trkpt lat="39.53264669573386" lon="9.129982018425098"><ele>195.39999999999998</ele><time>2026-04-04T14:27:23.001Z</time></trkpt><trkpt lat="39.532575530331144" lon="9.130105900116261"><ele>196.8</ele><time>2026-04-04T14:27:25.001Z</time></trkpt><trkpt lat="39.53251150958199" lon="9.130221226580055"><ele>198.2</ele><time>2026-04-04T14:27:27.001Z</time></trkpt><trkpt lat="39.53245986615428" lon="9.13032617364134"><ele>199.60000000000002</ele><time>2026-04-04T14:27:29.001Z</time></trkpt><trkpt lat="39.53242162589443" lon="9.130423614165931"><ele>201.0</ele><time>2026-04-04T14:27:31.001Z</time></trkpt><trkpt lat="39.532394144368745" lon="9.130518063881114"><ele>201.0</ele><time>2026-04-04T14:27:33.001Z</time></trkpt><trkpt lat="39.53237784380548" lon="9.130604555162966"><ele>201.0</ele><time>2026-04-04T14:27:35.001Z</time></trkpt><trkpt lat="39.53233997389612" lon="9.130686408471696"><ele>201.0</ele><time>2026-04-04T14:27:41.001Z</time></trkpt><trkpt lat="39.53242179935224" lon="9.13077959017105"><ele>201.0</ele><time>2026-04-04T14:27:42.001Z</time></trkpt><trkpt lat="39.53250070405088" lon="9.130813873962186"><ele>201.0</ele><time>2026-04-04T14:27:43.001Z</time></trkpt><trkpt lat="39.532617895792754" lon="9.130852520151137"><ele>201.20000000000002</ele><time>2026-04-04T14:27:44.001Z</time></trkpt><trkpt lat="39.53272119705905" lon="9.13091713816405"><ele>201.4</ele><time>2026-04-04T14:27:45.001Z</time></trkpt><trkpt lat="39.53281554589379" lon="9.130957168038169"><ele>201.6</ele><time>2026-04-04T14:27:46.001Z</time></trkpt><trkpt lat="39.53288733747534" lon="9.131000514332225"><ele>201.8</ele><time>2026-04-04T14:27:47.001Z</time></trkpt><trkpt lat="39.53295222485271" lon="9.131023992003946"><ele>202.0</ele><time>2026-04-04T14:27:48.001Z</time></trkpt><trkpt lat="39.53304647273554" lon="9.131084076642827"><ele>202.2</ele><time>2026-04-04T14:27:50.001Z</time></trkpt><trkpt lat="39.53309510579251" lon="9.13121961169555"><ele>202.39999999999998</ele><time>2026-04-04T14:27:52.001Z</time></trkpt><trkpt lat="39.53313269340682" lon="9.131339031312914"><ele>202.60000000000002</ele><time>2026-04-04T14:27:54.001Z</time></trkpt><trkpt lat="39.5331836619566" lon="9.131445499294115"><ele>202.8</ele><time>2026-04-04T14:27:56.001Z</time></trkpt><trkpt lat="39.53322017625029" lon="9.131524663202454"><ele>203.0</ele><time>2026-04-04T14:27:58.001Z</time></trkpt><trkpt lat="39.53325713418359" lon="9.131609824986288"><ele>202.33333333333334</ele><time>2026-04-04T14:28:00.001Z</time></trkpt><trkpt lat="39.533280068843524" lon="9.131713799298703"><ele>201.66666666666669</ele><time>2026-04-04T14:28:02.001Z</time></trkpt><trkpt lat="39.53330203560547" lon="9.131814113028604"><ele>201.0</ele><time>2026-04-04T14:28:04.001Z</time></trkpt><trkpt lat="39.53330418133846" lon="9.131925092325826"><ele>200.33333333333331</ele><time>2026-04-04T14:28:06.001Z</time></trkpt><trkpt lat="39.53329149672322" lon="9.132019031323285"><ele>199.66666666666666</ele><time>2026-04-04T14:28:07.001Z</time></trkpt><trkpt lat="39.53327192039434" lon="9.13213323648153"><ele>199.0</ele><time>2026-04-04T14:28:08.001Z</time></trkpt><trkpt lat="39.53324499479356" lon="9.132249965414582"><ele>199.0</ele><time>2026-04-04T14:28:09.001Z</time></trkpt><trkpt lat="39.5332073960384" lon="9.132376234329044"><ele>199.0</ele><time>2026-04-04T14:28:10.001Z</time></trkpt><trkpt lat="39.53316536017472" lon="9.132510141673801"><ele>199.0</ele><time>2026-04-04T14:28:11.001Z</time></trkpt><trkpt lat="39.533124012633" lon="9.132656158089627"><ele>199.0</ele><time>2026-04-04T14:28:12.001Z</time></trkpt><trkpt lat="39.5330805910503" lon="9.132803144624727"><ele>198.0</ele><time>2026-04-04T14:28:13.001Z</time></trkpt><trkpt lat="39.53303877391873" lon="9.132948773779905"><ele>197.0</ele><time>2026-04-04T14:28:14.001Z</time></trkpt><trkpt lat="39.53300102399954" lon="9.133094366936813"><ele>196.0</ele><time>2026-04-04T14:28:15.001Z</time></trkpt><trkpt lat="39.532961140280754" lon="9.133236486291963"><ele>195.0</ele><time>2026-04-04T14:28:16.001Z</time></trkpt><trkpt lat="39.53292474557853" lon="9.133378875264071"><ele>194.0</ele><time>2026-04-04T14:28:17.001Z</time></trkpt><trkpt lat="39.53287211732078" lon="9.13351016504084"><ele>193.0</ele><time>2026-04-04T14:28:18.001Z</time></trkpt><trkpt lat="39.53283613813409" lon="9.13364918757444"><ele>192.0</ele><time>2026-04-04T14:28:19.001Z</time></trkpt><trkpt lat="39.53281883978401" lon="9.13377211154736"><ele>191.0</ele><time>2026-04-04T14:28:20.001Z</time></trkpt><trkpt lat="39.532796812536056" lon="9.133869770517778"><ele>190.0</ele><time>2026-04-04T14:28:21.001Z</time></trkpt><trkpt lat="39.53277607570884" lon="9.133982434170756"><ele>189.83333333333334</ele><time>2026-04-04T14:28:23.001Z</time></trkpt><trkpt lat="39.5327213979562" lon="9.134063860791702"><ele>189.66666666666669</ele><time>2026-04-04T14:28:26.001Z</time></trkpt><trkpt lat="39.53271493727479" lon="9.13416336588494"><ele>189.5</ele><time>2026-04-04T14:28:27.001Z</time></trkpt><trkpt lat="39.53269617467021" lon="9.134265101927822"><ele>189.33333333333334</ele><time>2026-04-04T14:28:28.001Z</time></trkpt><trkpt lat="39.53267205377721" lon="9.134373506868076"><ele>189.16666666666666</ele><time>2026-04-04T14:28:29.001Z</time></trkpt><trkpt lat="39.53264441486919" lon="9.134490238632978"><ele>189.0</ele><time>2026-04-04T14:28:30.001Z</time></trkpt><trkpt lat="39.53261140816133" lon="9.134615365863862"><ele>189.0</ele><time>2026-04-04T14:28:31.001Z</time></trkpt><trkpt lat="39.5325766014955" lon="9.134747306618"><ele>189.0</ele><time>2026-04-04T14:28:32.001Z</time></trkpt><trkpt lat="39.532547232411616" lon="9.134871001452023"><ele>189.0</ele><time>2026-04-04T14:28:33.001Z</time></trkpt><trkpt lat="39.532517745306144" lon="9.134993507636128"><ele>189.0</ele><time>2026-04-04T14:28:34.001Z</time></trkpt><trkpt lat="39.53248761765696" lon="9.135111777506141"><ele>189.0</ele><time>2026-04-04T14:28:35.001Z</time></trkpt><trkpt lat="39.532458519426285" lon="9.13522393373519"><ele>189.0</ele><time>2026-04-04T14:28:36.001Z</time></trkpt><trkpt lat="39.53242369945325" lon="9.135344165887078"><ele>189.0</ele><time>2026-04-04T14:28:37.001Z</time></trkpt><trkpt lat="39.53238943720506" lon="9.135467938357783"><ele>189.0</ele><time>2026-04-04T14:28:38.001Z</time></trkpt><trkpt lat="39.5323538660292" lon="9.135577381939294"><ele>189.0</ele><time>2026-04-04T14:28:39.001Z</time></trkpt><trkpt lat="39.53233070382218" lon="9.135708237510908"><ele>189.0</ele><time>2026-04-04T14:28:40.001Z</time></trkpt><trkpt lat="39.532321319907446" lon="9.135849161046318"><ele>189.0</ele><time>2026-04-04T14:28:41.001Z</time></trkpt><trkpt lat="39.53232175350888" lon="9.13599770257524"><ele>189.0</ele><time>2026-04-04T14:28:42.001Z</time></trkpt><trkpt lat="39.53231177329442" lon="9.136140888112562"><ele>189.0</ele><time>2026-04-04T14:28:43.001Z</time></trkpt><trkpt lat="39.53231252229969" lon="9.136284948936297"><ele>189.0</ele><time>2026-04-04T14:28:44.001Z</time></trkpt><trkpt lat="39.53230868304869" lon="9.136429077306406"><ele>189.0</ele><time>2026-04-04T14:28:45.001Z</time></trkpt><trkpt lat="39.53230061203409" lon="9.136577015515378"><ele>189.25</ele><time>2026-04-04T14:28:46.001Z</time></trkpt><trkpt lat="39.53229983004011" lon="9.13672677834264"><ele>189.5</ele><time>2026-04-04T14:28:47.001Z</time></trkpt><trkpt lat="39.532295033413824" lon="9.136877898665407"><ele>189.75</ele><time>2026-04-04T14:28:48.001Z</time></trkpt><trkpt lat="39.53228412616748" lon="9.137037817655397"><ele>190.0</ele><time>2026-04-04T14:28:49.001Z</time></trkpt><trkpt lat="39.53227869434835" lon="9.137201625248323"><ele>190.0</ele><time>2026-04-04T14:28:50.001Z</time></trkpt><trkpt lat="39.532272279278985" lon="9.137368256026985"><ele>190.0</ele><time>2026-04-04T14:28:51.001Z</time></trkpt><trkpt lat="39.53226144004256" lon="9.137535193559753"><ele>190.0</ele><time>2026-04-04T14:28:52.001Z</time></trkpt><trkpt lat="39.532249556011514" lon="9.137711692867233"><ele>190.0</ele><time>2026-04-04T14:28:53.001Z</time></trkpt><trkpt lat="39.532243683213025" lon="9.137895282529945"><ele>191.0</ele><time>2026-04-04T14:28:54.001Z</time></trkpt><trkpt lat="39.532240400628694" lon="9.138086439771286"><ele>192.0</ele><time>2026-04-04T14:28:55.001Z</time></trkpt><trkpt lat="39.53223639694344" lon="9.13828391537014"><ele>193.0</ele><time>2026-04-04T14:28:56.001Z</time></trkpt><trkpt lat="39.53222771124102" lon="9.138487532050972"><ele>193.66666666666666</ele><time>2026-04-04T14:28:57.001Z</time></trkpt><trkpt lat="39.53221544272742" lon="9.138688296465148"><ele>194.33333333333331</ele><time>2026-04-04T14:28:58.001Z</time></trkpt><trkpt lat="39.53220290179948" lon="9.138880122880417"><ele>195.0</ele><time>2026-04-04T14:28:59.001Z</time></trkpt><trkpt lat="39.532194621679224" lon="9.139084242588373"><ele>195.0</ele><time>2026-04-04T14:29:00.001Z</time></trkpt><trkpt lat="39.532193224005034" lon="9.13930196288984"><ele>195.0</ele><time>2026-04-04T14:29:01.001Z</time></trkpt><trkpt lat="39.53219458063959" lon="9.13952748608109"><ele>195.0</ele><time>2026-04-04T14:29:02.001Z</time></trkpt><trkpt lat="39.53220118746997" lon="9.139756382916957"><ele>195.0</ele><time>2026-04-04T14:29:03.001Z</time></trkpt><trkpt lat="39.532209180740274" lon="9.139988037040824"><ele>195.0</ele><time>2026-04-04T14:29:04.001Z</time></trkpt><trkpt lat="39.53221812089257" lon="9.140220637100056"><ele>195.0</ele><time>2026-04-04T14:29:05.001Z</time></trkpt><trkpt lat="39.532230333024145" lon="9.14045553240407"><ele>195.0</ele><time>2026-04-04T14:29:06.001Z</time></trkpt><trkpt lat="39.532244466168606" lon="9.140692333022693"><ele>195.0</ele><time>2026-04-04T14:29:07.001Z</time></trkpt><trkpt lat="39.53225463813585" lon="9.140929110189917"><ele>195.0</ele><time>2026-04-04T14:29:08.001Z</time></trkpt><trkpt lat="39.53226411858707" lon="9.141162918650135"><ele>196.0</ele><time>2026-04-04T14:29:09.001Z</time></trkpt><trkpt lat="39.53227544087009" lon="9.141388453789945"><ele>197.0</ele><time>2026-04-04T14:29:10.001Z</time></trkpt><trkpt lat="39.53228681518634" lon="9.141610034924712"><ele>198.0</ele><time>2026-04-04T14:29:11.001Z</time></trkpt><trkpt lat="39.532294701760065" lon="9.141830428331119"><ele>199.33333333333331</ele><time>2026-04-04T14:29:12.001Z</time></trkpt><trkpt lat="39.532302316963" lon="9.142045741197832"><ele>200.66666666666666</ele><time>2026-04-04T14:29:13.001Z</time></trkpt><trkpt lat="39.53231240517749" lon="9.142256237033658"><ele>202.0</ele><time>2026-04-04T14:29:14.001Z</time></trkpt><trkpt lat="39.53232090191725" lon="9.142456199637692"><ele>202.0</ele><time>2026-04-04T14:29:15.001Z</time></trkpt><trkpt lat="39.53233199706902" lon="9.142651941166404"><ele>202.0</ele><time>2026-04-04T14:29:16.001Z</time></trkpt><trkpt lat="39.53235514236586" lon="9.142843279042904"><ele>202.0</ele><time>2026-04-04T14:29:17.001Z</time></trkpt><trkpt lat="39.53239675292366" lon="9.143038259654277"><ele>202.0</ele><time>2026-04-04T14:29:18.001Z</time></trkpt><trkpt lat="39.53245910374838" lon="9.143230064052066"><ele>202.0</ele><time>2026-04-04T14:29:19.001Z</time></trkpt><trkpt lat="39.532537320581866" lon="9.14341939327016"><ele>202.0</ele><time>2026-04-04T14:29:20.001Z</time></trkpt><trkpt lat="39.532627672103715" lon="9.143603312074077"><ele>202.0</ele><time>2026-04-04T14:29:21.001Z</time></trkpt><trkpt lat="39.532727626605606" lon="9.143790722356721"><ele>202.0</ele><time>2026-04-04T14:29:22.001Z</time></trkpt><trkpt lat="39.53282408326124" lon="9.143982052159974"><ele>202.0</ele><time>2026-04-04T14:29:23.001Z</time></trkpt><trkpt lat="39.532919277848755" lon="9.144183514719623"><ele>202.0</ele><time>2026-04-04T14:29:24.001Z</time></trkpt><trkpt lat="39.53301319419026" lon="9.144390748678672"><ele>202.0</ele><time>2026-04-04T14:29:25.001Z</time></trkpt><trkpt lat="39.533111454743974" lon="9.144602240159593"><ele>202.0</ele><time>2026-04-04T14:29:26.001Z</time></trkpt><trkpt lat="39.53321296729096" lon="9.144811531853746"><ele>201.0</ele><time>2026-04-04T14:29:27.001Z</time></trkpt><trkpt lat="39.53331001003812" lon="9.145007126277335"><ele>200.0</ele><time>2026-04-04T14:29:28.001Z</time></trkpt><trkpt lat="39.533401642974326" lon="9.145197977868113"><ele>199.0</ele><time>2026-04-04T14:29:29.001Z</time></trkpt><trkpt lat="39.53349000924774" lon="9.14538494535669"><ele>199.0</ele><time>2026-04-04T14:29:30.001Z</time></trkpt><trkpt lat="39.53357645938743" lon="9.145569989090564"><ele>199.0</ele><time>2026-04-04T14:29:31.001Z</time></trkpt><trkpt lat="39.53366566103362" lon="9.145752331071973"><ele>199.0</ele><time>2026-04-04T14:29:32.001Z</time></trkpt><trkpt lat="39.533759511359264" lon="9.14593405212058"><ele>199.0</ele><time>2026-04-04T14:29:33.001Z</time></trkpt><trkpt lat="39.533848917242736" lon="9.146114999161153"><ele>199.0</ele><time>2026-04-04T14:29:34.001Z</time></trkpt><trkpt lat="39.53393308308879" lon="9.14629167131767"><ele>199.0</ele><time>2026-04-04T14:29:35.001Z</time></trkpt><trkpt lat="39.5340171122675" lon="9.146470501395045"><ele>199.0</ele><time>2026-04-04T14:29:36.001Z</time></trkpt><trkpt lat="39.534099634912685" lon="9.146639859507639"><ele>199.0</ele><time>2026-04-04T14:29:37.001Z</time></trkpt><trkpt lat="39.53418028897896" lon="9.146801405364755"><ele>199.0</ele><time>2026-04-04T14:29:38.001Z</time></trkpt><trkpt lat="39.53425768112487" lon="9.146955789371448"><ele>199.0</ele><time>2026-04-04T14:29:39.001Z</time></trkpt><trkpt lat="39.534330499734935" lon="9.147105088139382"><ele>199.0</ele><time>2026-04-04T14:29:40.001Z</time></trkpt><trkpt lat="39.534401263853084" lon="9.147249857966004"><ele>199.0</ele><time>2026-04-04T14:29:41.001Z</time></trkpt><trkpt lat="39.53446487192973" lon="9.147393429737495"><ele>199.0</ele><time>2026-04-04T14:29:42.001Z</time></trkpt><trkpt lat="39.53452238959952" lon="9.147540150772986"><ele>199.0</ele><time>2026-04-04T14:29:43.001Z</time></trkpt><trkpt lat="39.53456894417089" lon="9.147694017680553"><ele>199.0</ele><time>2026-04-04T14:29:44.001Z</time></trkpt><trkpt lat="39.53460883913568" lon="9.147858041202555"><ele>199.0</ele><time>2026-04-04T14:29:45.001Z</time></trkpt><trkpt lat="39.53464946009306" lon="9.148028446808262"><ele>199.0</ele><time>2026-04-04T14:29:46.001Z</time></trkpt><trkpt lat="39.534694205770684" lon="9.148203042475576"><ele>199.0</ele><time>2026-04-04T14:29:47.001Z</time></trkpt><trkpt lat="39.53474453561925" lon="9.148380009028127"><ele>199.0</ele><time>2026-04-04T14:29:48.001Z</time></trkpt><trkpt lat="39.534794550504515" lon="9.148564523503387"><ele>199.0</ele><time>2026-04-04T14:29:49.001Z</time></trkpt><trkpt lat="39.534840686918535" lon="9.148753281915324"><ele>199.0</ele><time>2026-04-04T14:29:50.001Z</time></trkpt><trkpt lat="39.534888690216405" lon="9.14894244464649"><ele>197.66666666666666</ele><time>2026-04-04T14:29:51.001Z</time></trkpt><trkpt lat="39.534940274064446" lon="9.14913526522939"><ele>196.33333333333331</ele><time>2026-04-04T14:29:52.001Z</time></trkpt><trkpt lat="39.53499309230752" lon="9.149332856090883"><ele>195.0</ele><time>2026-04-04T14:29:53.001Z</time></trkpt><trkpt lat="39.535048385289926" lon="9.149536430230555"><ele>195.0</ele><time>2026-04-04T14:29:54.001Z</time></trkpt><trkpt lat="39.535101375279204" lon="9.149740050287395"><ele>195.0</ele><time>2026-04-04T14:29:55.001Z</time></trkpt><trkpt lat="39.5351507836829" lon="9.149939399971425"><ele>195.0</ele><time>2026-04-04T14:29:56.001Z</time></trkpt><trkpt lat="39.535200661169505" lon="9.150126634396226"><ele>194.6</ele><time>2026-04-04T14:29:57.001Z</time></trkpt><trkpt lat="39.53524693842424" lon="9.150297877751415"><ele>194.2</ele><time>2026-04-04T14:29:58.001Z</time></trkpt><trkpt lat="39.53528522048575" lon="9.150445907110571"><ele>193.8</ele><time>2026-04-04T14:29:59.001Z</time></trkpt><trkpt lat="39.5353122782341" lon="9.150564315906566"><ele>193.4</ele><time>2026-04-04T14:30:00.001Z</time></trkpt><trkpt lat="39.53532769492629" lon="9.150650620057224"><ele>193.0</ele><time>2026-04-04T14:30:01.001Z</time></trkpt><trkpt lat="39.53534140243717" lon="9.15074012302487"><ele>193.0</ele><time>2026-04-04T14:30:46Z</time></trkpt><trkpt lat="39.535395056693325" lon="9.150896019335963"><ele>193.0</ele><time>2026-04-04T14:30:48Z</time></trkpt><trkpt lat="39.53542436405084" lon="9.150989398784658"><ele>193.0</ele><time>2026-04-04T14:30:49Z</time></trkpt><trkpt lat="39.53544729555118" lon="9.151105675239322"><ele>193.0</ele><time>2026-04-04T14:30:50Z</time></trkpt><trkpt lat="39.53546119884343" lon="9.151227058958915"><ele>193.0</ele><time>2026-04-04T14:30:51Z</time></trkpt><trkpt lat="39.53546791097952" lon="9.151356677292345"><ele>193.0</ele><time>2026-04-04T14:30:52Z</time></trkpt><trkpt lat="39.53545876110467" lon="9.151507283228439"><ele>193.0</ele><time>2026-04-04T14:30:53Z</time></trkpt><trkpt lat="39.53543161807166" lon="9.151661822777996"><ele>193.0</ele><time>2026-04-04T14:30:54Z</time></trkpt><trkpt lat="39.535389861954684" lon="9.151814875711"><ele>193.0</ele><time>2026-04-04T14:30:55Z</time></trkpt><trkpt lat="39.53533565104293" lon="9.15197674826158"><ele>193.0</ele><time>2026-04-04T14:30:56Z</time></trkpt><trkpt lat="39.535279887148796" lon="9.152145578704104"><ele>193.0</ele><time>2026-04-04T14:30:57Z</time></trkpt><trkpt lat="39.53522308838711" lon="9.1523180315644"><ele>193.0</ele><time>2026-04-04T14:30:58Z</time></trkpt><trkpt lat="39.53516354703539" lon="9.152496131924206"><ele>193.0</ele><time>2026-04-04T14:30:59Z</time></trkpt><trkpt lat="39.5351077956827" lon="9.15267816977923"><ele>193.0</ele><time>2026-04-04T14:31:00Z</time></trkpt><trkpt lat="39.535052281423674" lon="9.152852995920554"><ele>193.0</ele><time>2026-04-04T14:31:01Z</time></trkpt><trkpt lat="39.53499288939579" lon="9.153021042520631"><ele>193.0</ele><time>2026-04-04T14:31:02Z</time></trkpt><trkpt lat="39.53493796095847" lon="9.153179521867829"><ele>193.0</ele><time>2026-04-04T14:31:03Z</time></trkpt><trkpt lat="39.53489886097077" lon="9.153334440270914"><ele>193.8</ele><time>2026-04-04T14:31:04Z</time></trkpt><trkpt lat="39.53489824706067" lon="9.153477087031943"><ele>194.60000000000002</ele><time>2026-04-04T14:31:05Z</time></trkpt><trkpt lat="39.534924240144406" lon="9.15361123106458"><ele>195.39999999999998</ele><time>2026-04-04T14:31:06Z</time></trkpt><trkpt lat="39.53496539766211" lon="9.153745274483779"><ele>196.2</ele><time>2026-04-04T14:31:07Z</time></trkpt><trkpt lat="39.53500488486562" lon="9.15387944565052"><ele>197.0</ele><time>2026-04-04T14:31:08Z</time></trkpt><trkpt lat="39.535037944924184" lon="9.154016547267126"><ele>198.0</ele><time>2026-04-04T14:31:09Z</time></trkpt><trkpt lat="39.53506629260379" lon="9.15415632341596"><ele>199.0</ele><time>2026-04-04T14:31:10Z</time></trkpt><trkpt lat="39.53509206821657" lon="9.15428468809643"><ele>200.0</ele><time>2026-04-04T14:31:11Z</time></trkpt><trkpt lat="39.53510744356783" lon="9.15440528241168"><ele>201.0</ele><time>2026-04-04T14:31:12Z</time></trkpt><trkpt lat="39.53513306068373" lon="9.154531943666234"><ele>202.0</ele><time>2026-04-04T14:31:13Z</time></trkpt><trkpt lat="39.53519369991676" lon="9.154663740534174"><ele>202.0</ele><time>2026-04-04T14:31:14Z</time></trkpt><trkpt lat="39.53524749642481" lon="9.154804309251334"><ele>202.0</ele><time>2026-04-04T14:31:15Z</time></trkpt><trkpt lat="39.53530376385825" lon="9.15497463389923"><ele>202.0</ele><time>2026-04-04T14:31:16Z</time></trkpt><trkpt lat="39.535367721499796" lon="9.155152881911047"><ele>202.0</ele><time>2026-04-04T14:31:17Z</time></trkpt><trkpt lat="39.5354338497864" lon="9.155330479059419"><ele>201.66666666666666</ele><time>2026-04-04T14:31:18Z</time></trkpt><trkpt lat="39.53550250173926" lon="9.155519313762019"><ele>201.33333333333331</ele><time>2026-04-04T14:31:19Z</time></trkpt><trkpt lat="39.53557670932378" lon="9.155714335181832"><ele>201.0</ele><time>2026-04-04T14:31:20Z</time></trkpt><trkpt lat="39.53565573098648" lon="9.155916506699663"><ele>201.66666666666669</ele><time>2026-04-04T14:31:21Z</time></trkpt><trkpt lat="39.53573341816865" lon="9.156125380878567"><ele>202.33333333333334</ele><time>2026-04-04T14:31:22Z</time></trkpt><trkpt lat="39.53580788021091" lon="9.156339039041082"><ele>203.0</ele><time>2026-04-04T14:31:23Z</time></trkpt><trkpt lat="39.535884131559115" lon="9.15655506598025"><ele>204.0</ele><time>2026-04-04T14:31:24Z</time></trkpt><trkpt lat="39.53596231321507" lon="9.156766484694014"><ele>205.0</ele><time>2026-04-04T14:31:25Z</time></trkpt><trkpt lat="39.53604418383543" lon="9.15698095751398"><ele>206.0</ele><time>2026-04-04T14:31:26Z</time></trkpt><trkpt lat="39.53612173600052" lon="9.157194078136005"><ele>207.33333333333334</ele><time>2026-04-04T14:31:27Z</time></trkpt><trkpt lat="39.536199318802964" lon="9.157411010589914"><ele>208.66666666666669</ele><time>2026-04-04T14:31:28Z</time></trkpt><trkpt lat="39.53627709941135" lon="9.157626480041671"><ele>210.0</ele><time>2026-04-04T14:31:29Z</time></trkpt><trkpt lat="39.53635628970251" lon="9.15784662297545"><ele>210.0</ele><time>2026-04-04T14:31:30Z</time></trkpt><trkpt lat="39.536436768263016" lon="9.158065544154855"><ele>210.0</ele><time>2026-04-04T14:31:31Z</time></trkpt><trkpt lat="39.536518267925544" lon="9.158278160008077"><ele>210.0</ele><time>2026-04-04T14:31:32Z</time></trkpt><trkpt lat="39.53659880974386" lon="9.158500224551124"><ele>212.0</ele><time>2026-04-04T14:31:33Z</time></trkpt><trkpt lat="39.53667881076087" lon="9.158725164334264"><ele>214.0</ele><time>2026-04-04T14:31:34Z</time></trkpt><trkpt lat="39.53675938412723" lon="9.15895336087114"><ele>216.0</ele><time>2026-04-04T14:31:35Z</time></trkpt><trkpt lat="39.536839986085695" lon="9.159180045556912"><ele>217.66666666666669</ele><time>2026-04-04T14:31:36Z</time></trkpt><trkpt lat="39.53691841542514" lon="9.15940127905184"><ele>219.33333333333334</ele><time>2026-04-04T14:31:37Z</time></trkpt><trkpt lat="39.53697590956102" lon="9.159620736502427"><ele>221.0</ele><time>2026-04-04T14:31:38Z</time></trkpt><trkpt lat="39.53698958894351" lon="9.159845864205073"><ele>222.0</ele><time>2026-04-04T14:31:39Z</time></trkpt><trkpt lat="39.536977207614214" lon="9.160097977291116"><ele>223.0</ele><time>2026-04-04T14:31:40Z</time></trkpt><trkpt lat="39.53695102538926" lon="9.16034268198173"><ele>224.0</ele><time>2026-04-04T14:31:41Z</time></trkpt><trkpt lat="39.53693232724887" lon="9.160586660819193"><ele>226.33333333333334</ele><time>2026-04-04T14:31:42Z</time></trkpt><trkpt lat="39.53693186749096" lon="9.160824246565403"><ele>228.66666666666669</ele><time>2026-04-04T14:31:43Z</time></trkpt><trkpt lat="39.536951729689314" lon="9.161056537931922"><ele>231.0</ele><time>2026-04-04T14:31:44Z</time></trkpt><trkpt lat="39.536992244942645" lon="9.161289243603814"><ele>231.0</ele><time>2026-04-04T14:31:45Z</time></trkpt><trkpt lat="39.5370380980934" lon="9.161520229847602"><ele>231.0</ele><time>2026-04-04T14:31:46Z</time></trkpt><trkpt lat="39.537081685973995" lon="9.161759566423807"><ele>231.0</ele><time>2026-04-04T14:31:47Z</time></trkpt><trkpt lat="39.537126441233106" lon="9.162003723226881"><ele>232.0</ele><time>2026-04-04T14:31:48Z</time></trkpt><trkpt lat="39.53717455805628" lon="9.162246322554113"><ele>233.0</ele><time>2026-04-04T14:31:49Z</time></trkpt><trkpt lat="39.53722413528666" lon="9.162492916022172"><ele>234.0</ele><time>2026-04-04T14:31:50Z</time></trkpt><trkpt lat="39.53727317602338" lon="9.16274380532275"><ele>235.66666666666669</ele><time>2026-04-04T14:31:51Z</time></trkpt><trkpt lat="39.537321558528845" lon="9.162995602623955"><ele>237.33333333333334</ele><time>2026-04-04T14:31:52Z</time></trkpt><trkpt lat="39.53736988407056" lon="9.163251004529037"><ele>239.0</ele><time>2026-04-04T14:31:53Z</time></trkpt><trkpt lat="39.53741978856994" lon="9.163507824960293"><ele>240.0</ele><time>2026-04-04T14:31:54Z</time></trkpt><trkpt lat="39.537472593046736" lon="9.163763377842765"><ele>241.0</ele><time>2026-04-04T14:31:55Z</time></trkpt><trkpt lat="39.53752429446145" lon="9.164019063079675"><ele>242.0</ele><time>2026-04-04T14:31:56Z</time></trkpt><trkpt lat="39.53757317648759" lon="9.164278156493964"><ele>242.33333333333334</ele><time>2026-04-04T14:31:57Z</time></trkpt><trkpt lat="39.53761916053139" lon="9.164534095172154"><ele>242.66666666666669</ele><time>2026-04-04T14:31:58Z</time></trkpt><trkpt lat="39.53766596537703" lon="9.16479176229583"><ele>243.0</ele><time>2026-04-04T14:31:59Z</time></trkpt><trkpt lat="39.53771359151141" lon="9.165050714801195"><ele>243.0</ele><time>2026-04-04T14:32:00Z</time></trkpt><trkpt lat="39.537762758550286" lon="9.165305809600694"><ele>243.0</ele><time>2026-04-04T14:32:01Z</time></trkpt><trkpt lat="39.53782529082974" lon="9.165550102929581"><ele>243.0</ele><time>2026-04-04T14:32:02Z</time></trkpt><trkpt lat="39.537916773972626" lon="9.165774762953458"><ele>246.33333333333331</ele><time>2026-04-04T14:32:03Z</time></trkpt><trkpt lat="39.53803975756185" lon="9.16596595064405"><ele>249.66666666666666</ele><time>2026-04-04T14:32:04Z</time></trkpt><trkpt lat="39.538188410823324" lon="9.166137845578174"><ele>253.0</ele><time>2026-04-04T14:32:05Z</time></trkpt><trkpt lat="39.53833314524446" lon="9.166309310267568"><ele>253.0</ele><time>2026-04-04T14:32:06Z</time></trkpt><trkpt lat="39.53846386976556" lon="9.166497917536784"><ele>253.0</ele><time>2026-04-04T14:32:07Z</time></trkpt><trkpt lat="39.538573113499076" lon="9.166712836494925"><ele>253.0</ele><time>2026-04-04T14:32:08Z</time></trkpt><trkpt lat="39.538668020556344" lon="9.166942662062278"><ele>255.0</ele><time>2026-04-04T14:32:09Z</time></trkpt><trkpt lat="39.538769291838804" lon="9.167174732702396"><ele>257.0</ele><time>2026-04-04T14:32:10Z</time></trkpt><trkpt lat="39.53887198575921" lon="9.167404747411647"><ele>259.0</ele><time>2026-04-04T14:32:11Z</time></trkpt><trkpt lat="39.53897742134891" lon="9.167634369689356"><ele>259.0</ele><time>2026-04-04T14:32:12Z</time></trkpt><trkpt lat="39.5390895312775" lon="9.167858928562792"><ele>259.0</ele><time>2026-04-04T14:32:13Z</time></trkpt><trkpt lat="39.53925475308796" lon="9.168031123282224"><ele>259.0</ele><time>2026-04-04T14:32:14Z</time></trkpt><trkpt lat="39.539405453658404" lon="9.168208540371975"><ele>257.0</ele><time>2026-04-04T14:32:15Z</time></trkpt><trkpt lat="39.53952258726498" lon="9.16841537510729"><ele>255.0</ele><time>2026-04-04T14:32:15.999Z</time></trkpt><trkpt lat="39.53961095363185" lon="9.168645025956303"><ele>253.0</ele><time>2026-04-04T14:32:16.999Z</time></trkpt><trkpt lat="39.53970631570046" lon="9.168856692458483"><ele>255.33333333333331</ele><time>2026-04-04T14:32:17.999Z</time></trkpt><trkpt lat="39.5398327705721" lon="9.169032760563029"><ele>257.6666666666667</ele><time>2026-04-04T14:32:18.999Z</time></trkpt><trkpt lat="39.53998511423459" lon="9.169165236877477"><ele>260.0</ele><time>2026-04-04T14:32:19.999Z</time></trkpt><trkpt lat="39.540157304820404" lon="9.169241527101795"><ele>260.0</ele><time>2026-04-04T14:32:20.999Z</time></trkpt><trkpt lat="39.54033253837161" lon="9.169273261927556"><ele>260.0</ele><time>2026-04-04T14:32:21.999Z</time></trkpt><trkpt lat="39.54048316097913" lon="9.169324954096234"><ele>260.0</ele><time>2026-04-04T14:32:22.999Z</time></trkpt><trkpt lat="39.54061372893164" lon="9.16943454044424"><ele>261.33333333333337</ele><time>2026-04-04T14:32:23.999Z</time></trkpt><trkpt lat="39.5407115615302" lon="9.169607095588713"><ele>262.6666666666667</ele><time>2026-04-04T14:32:24.999Z</time></trkpt><trkpt lat="39.540799426169485" lon="9.169797654457334"><ele>264.0</ele><time>2026-04-04T14:32:25.999Z</time></trkpt><trkpt lat="39.54092612704625" lon="9.169963429838281"><ele>264.0</ele><time>2026-04-04T14:32:26.999Z</time></trkpt><trkpt lat="39.5410707620362" lon="9.170109345931504"><ele>264.0</ele><time>2026-04-04T14:32:27.999Z</time></trkpt><trkpt lat="39.54124192748685" lon="9.170226588142784"><ele>264.0</ele><time>2026-04-04T14:32:28.999Z</time></trkpt><trkpt lat="39.5413962537836" lon="9.170382716471202"><ele>265.3333333333333</ele><time>2026-04-04T14:32:30Z</time></trkpt><trkpt lat="39.541557579427824" lon="9.17053519566837"><ele>266.66666666666663</ele><time>2026-04-04T14:32:31Z</time></trkpt><trkpt lat="39.541708171001" lon="9.1707127264303"><ele>268.0</ele><time>2026-04-04T14:32:32Z</time></trkpt><trkpt lat="39.54185413134243" lon="9.170896803539557"><ele>268.0</ele><time>2026-04-04T14:32:33Z</time></trkpt><trkpt lat="39.54202195292178" lon="9.171056974742184"><ele>268.0</ele><time>2026-04-04T14:32:34Z</time></trkpt><trkpt lat="39.54217382276114" lon="9.171234842069476"><ele>268.0</ele><time>2026-04-04T14:32:35Z</time></trkpt><trkpt lat="39.54232946349406" lon="9.171410038821952"><ele>271.0</ele><time>2026-04-04T14:32:36Z</time></trkpt><trkpt lat="39.5424884984194" lon="9.17158301295165"><ele>274.0</ele><time>2026-04-04T14:32:37Z</time></trkpt><trkpt lat="39.54263497845743" lon="9.171770461264872"><ele>277.0</ele><time>2026-04-04T14:32:38Z</time></trkpt><trkpt lat="39.542778749552205" lon="9.17192993776714"><ele>279.66666666666663</ele><time>2026-04-04T14:32:39Z</time></trkpt><trkpt lat="39.54291141462872" lon="9.172077429787153"><ele>282.3333333333333</ele><time>2026-04-04T14:32:40Z</time></trkpt><trkpt lat="39.54303737249907" lon="9.172207136698848"><ele>285.0</ele><time>2026-04-04T14:32:41Z</time></trkpt><trkpt lat="39.543113378207195" lon="9.172376121215471"><ele>285.0</ele><time>2026-04-04T14:32:42Z</time></trkpt><trkpt lat="39.54312100978872" lon="9.172580725736205"><ele>285.0</ele><time>2026-04-04T14:32:43Z</time></trkpt><trkpt lat="39.54312795891146" lon="9.172794746388268"><ele>285.0</ele><time>2026-04-04T14:32:44Z</time></trkpt><trkpt lat="39.54315063399156" lon="9.173020563579344"><ele>285.6666666666667</ele><time>2026-04-04T14:32:45Z</time></trkpt><trkpt lat="39.54314163839781" lon="9.17324499211781"><ele>286.33333333333337</ele><time>2026-04-04T14:32:46Z</time></trkpt><trkpt lat="39.54314815526169" lon="9.173457393473546"><ele>287.0</ele><time>2026-04-04T14:32:47Z</time></trkpt><trkpt lat="39.543144081490304" lon="9.173640365320002"><ele>287.0</ele><time>2026-04-04T14:32:48Z</time></trkpt><trkpt lat="39.54308394998287" lon="9.173784289077018"><ele>287.0</ele><time>2026-04-04T14:32:49Z</time></trkpt><trkpt lat="39.54297061039075" lon="9.173838253582668"><ele>287.0</ele><time>2026-04-04T14:32:50Z</time></trkpt><trkpt lat="39.54286033597971" lon="9.173909551320227"><ele>287.0</ele><time>2026-04-04T14:32:51Z</time></trkpt><trkpt lat="39.54272572496645" lon="9.173977422654392"><ele>288.33333333333337</ele><time>2026-04-04T14:32:52Z</time></trkpt><trkpt lat="39.542602949852416" lon="9.174103633747468"><ele>289.6666666666667</ele><time>2026-04-04T14:32:53Z</time></trkpt><trkpt lat="39.54249532495597" lon="9.174280594853606"><ele>291.0</ele><time>2026-04-04T14:32:54Z</time></trkpt><trkpt lat="39.54241108125006" lon="9.174475230043987"><ele>291.0</ele><time>2026-04-04T14:32:55Z</time></trkpt><trkpt lat="39.54233331228846" lon="9.174698561976168"><ele>291.0</ele><time>2026-04-04T14:32:56Z</time></trkpt><trkpt lat="39.5422435352535" lon="9.17492064896659"><ele>291.0</ele><time>2026-04-04T14:32:57Z</time></trkpt><trkpt lat="39.54215244920609" lon="9.175148498990904"><ele>291.0</ele><time>2026-04-04T14:32:58Z</time></trkpt><trkpt lat="39.54206339560328" lon="9.175377443174527"><ele>291.0</ele><time>2026-04-04T14:32:59Z</time></trkpt><trkpt lat="39.54197956460362" lon="9.175583170243021"><ele>291.0</ele><time>2026-04-04T14:33:00Z</time></trkpt><trkpt lat="39.541897865913405" lon="9.175769157474381"><ele>293.0</ele><time>2026-04-04T14:33:01Z</time></trkpt><trkpt lat="39.54183052950906" lon="9.175943870544938"><ele>295.0</ele><time>2026-04-04T14:33:02Z</time></trkpt><trkpt lat="39.54179670251814" lon="9.176114451176478"><ele>297.0</ele><time>2026-04-04T14:33:03Z</time></trkpt><trkpt lat="39.54180271150301" lon="9.176286151151404"><ele>299.0</ele><time>2026-04-04T14:33:04Z</time></trkpt><trkpt lat="39.54186491830786" lon="9.176450789590637"><ele>299.0</ele><time>2026-04-04T14:33:05Z</time></trkpt><trkpt lat="39.54197695751857" lon="9.176597066861502"><ele>299.0</ele><time>2026-04-04T14:33:06Z</time></trkpt><trkpt lat="39.542114931951296" lon="9.176720351399098"><ele>299.0</ele><time>2026-04-04T14:33:07Z</time></trkpt><trkpt lat="39.542243690654935" lon="9.176865206279826"><ele>303.33333333333337</ele><time>2026-04-04T14:33:08Z</time></trkpt><trkpt lat="39.54234153343954" lon="9.177053395695703"><ele>307.6666666666667</ele><time>2026-04-04T14:33:09Z</time></trkpt><trkpt lat="39.542408587027595" lon="9.177264186375943"><ele>312.0</ele><time>2026-04-04T14:33:10Z</time></trkpt><trkpt lat="39.54244987698102" lon="9.177502127658418"><ele>312.0</ele><time>2026-04-04T14:33:11Z</time></trkpt><trkpt lat="39.542464961655455" lon="9.177763727094623"><ele>312.0</ele><time>2026-04-04T14:33:12Z</time></trkpt><trkpt lat="39.54248637218449" lon="9.178031773862646"><ele>312.0</ele><time>2026-04-04T14:33:13Z</time></trkpt><trkpt lat="39.542506078491506" lon="9.178305775107356"><ele>314.0</ele><time>2026-04-04T14:33:14Z</time></trkpt><trkpt lat="39.54252194156785" lon="9.178576012928707"><ele>316.0</ele><time>2026-04-04T14:33:15Z</time></trkpt><trkpt lat="39.54252867719075" lon="9.178823875075611"><ele>318.0</ele><time>2026-04-04T14:33:16Z</time></trkpt><trkpt lat="39.54249691752412" lon="9.179056184036046"><ele>321.0</ele><time>2026-04-04T14:33:17Z</time></trkpt><trkpt lat="39.54241810220424" lon="9.179272165768683"><ele>324.0</ele><time>2026-04-04T14:33:18Z</time></trkpt><trkpt lat="39.54230450511651" lon="9.17948131150618"><ele>327.0</ele><time>2026-04-04T14:33:19Z</time></trkpt><trkpt lat="39.54219910344851" lon="9.179715596561952"><ele>328.6666666666667</ele><time>2026-04-04T14:33:20Z</time></trkpt><trkpt lat="39.542112752300625" lon="9.179965118400096"><ele>330.33333333333337</ele><time>2026-04-04T14:33:21Z</time></trkpt><trkpt lat="39.54204620710505" lon="9.180216466574947"><ele>332.0</ele><time>2026-04-04T14:33:22Z</time></trkpt><trkpt lat="39.541998667160826" lon="9.180463157435586"><ele>336.0</ele><time>2026-04-04T14:33:23Z</time></trkpt><trkpt lat="39.541977692968466" lon="9.18073108629435"><ele>340.0</ele><time>2026-04-04T14:33:24Z</time></trkpt><trkpt lat="39.541987271632166" lon="9.181019168635686"><ele>344.0</ele><time>2026-04-04T14:33:25Z</time></trkpt><trkpt lat="39.54200056431139" lon="9.181312599939924"><ele>345.0</ele><time>2026-04-04T14:33:26Z</time></trkpt><trkpt lat="39.54200914927245" lon="9.181599713013364"><ele>346.0</ele><time>2026-04-04T14:33:27Z</time></trkpt><trkpt lat="39.54202885657032" lon="9.181878345942199"><ele>347.0</ele><time>2026-04-04T14:33:28Z</time></trkpt><trkpt lat="39.54207439969624" lon="9.182168095036202"><ele>350.33333333333337</ele><time>2026-04-04T14:33:29Z</time></trkpt><trkpt lat="39.54215148569474" lon="9.182430846989925"><ele>353.6666666666667</ele><time>2026-04-04T14:33:30Z</time></trkpt><trkpt lat="39.54221832689299" lon="9.182678345098584"><ele>357.0</ele><time>2026-04-04T14:33:31Z</time></trkpt><trkpt lat="39.54230361184346" lon="9.182910060625444"><ele>357.0</ele><time>2026-04-04T14:33:32Z</time></trkpt><trkpt lat="39.542353529666315" lon="9.18316268327606"><ele>357.0</ele><time>2026-04-04T14:33:33Z</time></trkpt><trkpt lat="39.542370862479174" lon="9.183433080165942"><ele>357.0</ele><time>2026-04-04T14:33:34Z</time></trkpt><trkpt lat="39.54238224961144" lon="9.183718286845682"><ele>357.0</ele><time>2026-04-04T14:33:35Z</time></trkpt><trkpt lat="39.54240467186901" lon="9.184008906692087"><ele>357.0</ele><time>2026-04-04T14:33:36Z</time></trkpt><trkpt lat="39.542424121286935" lon="9.184302874232822"><ele>356.5</ele><time>2026-04-04T14:33:37Z</time></trkpt><trkpt lat="39.54244356248612" lon="9.18460252908019"><ele>356.0</ele><time>2026-04-04T14:33:38Z</time></trkpt><trkpt lat="39.542470641347435" lon="9.184904728546421"><ele>359.0</ele><time>2026-04-04T14:33:39Z</time></trkpt><trkpt lat="39.542514348904454" lon="9.185194590348202"><ele>362.0</ele><time>2026-04-04T14:33:40Z</time></trkpt><trkpt lat="39.54257721889172" lon="9.185481984672935"><ele>364.6666666666667</ele><time>2026-04-04T14:33:41Z</time></trkpt><trkpt lat="39.54264306910898" lon="9.185764925552919"><ele>367.3333333333333</ele><time>2026-04-04T14:33:42Z</time></trkpt><trkpt lat="39.54269931644978" lon="9.1860314925894"><ele>370.0</ele><time>2026-04-04T14:33:43Z</time></trkpt><trkpt lat="39.54275110178022" lon="9.186289241420672"><ele>371.3333333333333</ele><time>2026-04-04T14:33:44Z</time></trkpt><trkpt lat="39.54275569436603" lon="9.186544199167386"><ele>372.6666666666667</ele><time>2026-04-04T14:33:45Z</time></trkpt><trkpt lat="39.54274884000318" lon="9.186808745349676"><ele>374.0</ele><time>2026-04-04T14:33:46Z</time></trkpt><trkpt lat="39.5427287431616" lon="9.187088636886147"><ele>375.5</ele><time>2026-04-04T14:33:47Z</time></trkpt><trkpt lat="39.54270692884839" lon="9.187379942053333"><ele>377.0</ele><time>2026-04-04T14:33:48Z</time></trkpt><trkpt lat="39.54269410468921" lon="9.187678041242364"><ele>377.0</ele><time>2026-04-04T14:33:49Z</time></trkpt><trkpt lat="39.542666309790235" lon="9.187983423772332"><ele>377.0</ele><time>2026-04-04T14:33:50Z</time></trkpt><trkpt lat="39.54264242826644" lon="9.188289453451766"><ele>378.0</ele><time>2026-04-04T14:33:51Z</time></trkpt><trkpt lat="39.54262076329327" lon="9.188597038952889"><ele>379.0</ele><time>2026-04-04T14:33:52Z</time></trkpt><trkpt lat="39.54260262092392" lon="9.188898042473992"><ele>380.0</ele><time>2026-04-04T14:33:53Z</time></trkpt><trkpt lat="39.542583420899476" lon="9.18919555576029"><ele>381.0</ele><time>2026-04-04T14:33:54Z</time></trkpt><trkpt lat="39.54256242265835" lon="9.189485086306064"><ele>381.0</ele><time>2026-04-04T14:33:55Z</time></trkpt><trkpt lat="39.54254385844531" lon="9.189762202326301"><ele>381.0</ele><time>2026-04-04T14:33:56Z</time></trkpt><trkpt lat="39.542526374147336" lon="9.190012611560162"><ele>381.0</ele><time>2026-04-04T14:33:57Z</time></trkpt><trkpt lat="39.542507387810645" lon="9.190237288818038"><ele>382.25</ele><time>2026-04-04T14:33:58Z</time></trkpt><trkpt lat="39.54249420536357" lon="9.190439521503846"><ele>383.5</ele><time>2026-04-04T14:33:59Z</time></trkpt><trkpt lat="39.54248516194841" lon="9.190619326944118"><ele>384.75</ele><time>2026-04-04T14:34:00Z</time></trkpt><trkpt lat="39.54250714651021" lon="9.190780142323396"><ele>386.0</ele><time>2026-04-04T14:34:01Z</time></trkpt><trkpt lat="39.54260231189106" lon="9.190906824548719"><ele>386.0</ele><time>2026-04-04T14:34:02Z</time></trkpt><trkpt lat="39.54272643623391" lon="9.191024447612941"><ele>386.0</ele><time>2026-04-04T14:34:02.999Z</time></trkpt><trkpt lat="39.54285007686364" lon="9.191143160627892"><ele>386.0</ele><time>2026-04-04T14:34:03.999Z</time></trkpt><trkpt lat="39.542948652457085" lon="9.191276899851546"><ele>389.25</ele><time>2026-04-04T14:34:04.999Z</time></trkpt><trkpt lat="39.543028476293664" lon="9.191415730335734"><ele>392.5</ele><time>2026-04-04T14:34:05.999Z</time></trkpt><trkpt lat="39.5430897346742" lon="9.191545357685108"><ele>395.75</ele><time>2026-04-04T14:34:06.999Z</time></trkpt><trkpt lat="39.54311539447602" lon="9.191676811075656"><ele>399.0</ele><time>2026-04-04T14:34:07.999Z</time></trkpt><trkpt lat="39.5430944116844" lon="9.191803394457517"><ele>399.0</ele><time>2026-04-04T14:34:08.999Z</time></trkpt><trkpt lat="39.54302597633344" lon="9.191907944497508"><ele>399.0</ele><time>2026-04-04T14:34:09.999Z</time></trkpt><trkpt lat="39.54290264969337" lon="9.191930247450868"><ele>399.0</ele><time>2026-04-04T14:34:10.999Z</time></trkpt><trkpt lat="39.54277944687548" lon="9.191947838078825"><ele>399.0</ele><time>2026-04-04T14:34:11.999Z</time></trkpt><trkpt lat="39.54265154350513" lon="9.191978573501398"><ele>395.5</ele><time>2026-04-04T14:34:12.999Z</time></trkpt><trkpt lat="39.54251586174969" lon="9.192011312166487"><ele>392.0</ele><time>2026-04-04T14:34:13.999Z</time></trkpt><trkpt lat="39.54237444631315" lon="9.192054428112922"><ele>388.5</ele><time>2026-04-04T14:34:14.999Z</time></trkpt><trkpt lat="39.54223933944103" lon="9.192095929325275"><ele>385.0</ele><time>2026-04-04T14:34:16Z</time></trkpt><trkpt lat="39.54213392753585" lon="9.192155562149187"><ele>385.0</ele><time>2026-04-04T14:34:17Z</time></trkpt><trkpt lat="39.54207866341013" lon="9.192253863934662"><ele>385.0</ele><time>2026-04-04T14:34:18Z</time></trkpt><trkpt lat="39.542092420586286" lon="9.192383869366857"><ele>385.0</ele><time>2026-04-04T14:34:19Z</time></trkpt><trkpt lat="39.54215677397484" lon="9.192505456991965"><ele>385.0</ele><time>2026-04-04T14:34:20Z</time></trkpt><trkpt lat="39.54225852686719" lon="9.192607644204413"><ele>385.0</ele><time>2026-04-04T14:34:21Z</time></trkpt><trkpt lat="39.542355415447524" lon="9.192727053064521"><ele>386.0</ele><time>2026-04-04T14:34:22Z</time></trkpt><trkpt lat="39.542443122274435" lon="9.192850828115724"><ele>387.0</ele><time>2026-04-04T14:34:23Z</time></trkpt><trkpt lat="39.54251501318227" lon="9.192971873321909"><ele>388.0</ele><time>2026-04-04T14:34:24Z</time></trkpt><trkpt lat="39.54252657956131" lon="9.193124160526853"><ele>389.0</ele><time>2026-04-04T14:34:25Z</time></trkpt><trkpt lat="39.54248240034901" lon="9.193280866729491"><ele>389.0</ele><time>2026-04-04T14:34:26Z</time></trkpt><trkpt lat="39.54245806253122" lon="9.193451462297931"><ele>389.0</ele><time>2026-04-04T14:34:27Z</time></trkpt><trkpt lat="39.54244729048563" lon="9.193631089386955"><ele>389.0</ele><time>2026-04-04T14:34:28Z</time></trkpt><trkpt lat="39.5424211032207" lon="9.193810312727603"><ele>389.0</ele><time>2026-04-04T14:34:29Z</time></trkpt><trkpt lat="39.54237969910799" lon="9.193981081996066"><ele>389.25</ele><time>2026-04-04T14:34:30Z</time></trkpt><trkpt lat="39.542306713155455" lon="9.194128566885617"><ele>389.5</ele><time>2026-04-04T14:34:31Z</time></trkpt><trkpt lat="39.54219344281225" lon="9.194218548064867"><ele>389.75</ele><time>2026-04-04T14:34:32Z</time></trkpt><trkpt lat="39.542089336794305" lon="9.194291675929666"><ele>390.0</ele><time>2026-04-04T14:34:33Z</time></trkpt><trkpt lat="39.54200768308405" lon="9.194356076744171"><ele>389.3333333333333</ele><time>2026-04-04T14:34:34Z</time></trkpt><trkpt lat="39.541939011699945" lon="9.194393092799912"><ele>388.66666666666663</ele><time>2026-04-04T14:34:35Z</time></trkpt><trkpt lat="39.541844383698226" lon="9.194457615834677"><ele>388.0</ele><time>2026-04-04T14:34:37Z</time></trkpt><trkpt lat="39.541773267598515" lon="9.194497209195902"><ele>387.3333333333333</ele><time>2026-04-04T14:34:40Z</time></trkpt><trkpt lat="39.54170436700174" lon="9.19453743943426"><ele>386.66666666666663</ele><time>2026-04-04T14:36:21Z</time></trkpt><trkpt lat="39.54161828823516" lon="9.194617702957226"><ele>386.0</ele><time>2026-04-04T14:36:23Z</time></trkpt><trkpt lat="39.54150048379873" lon="9.19469898008913"><ele>385.99999999999994</ele><time>2026-04-04T14:36:25Z</time></trkpt><trkpt lat="39.54141878941569" lon="9.194739439863902"><ele>386.0</ele><time>2026-04-04T14:36:26Z</time></trkpt><trkpt lat="39.54132872193562" lon="9.194790882541511"><ele>386.0</ele><time>2026-04-04T14:36:27Z</time></trkpt><trkpt lat="39.54126570842546" lon="9.194841715531698"><ele>386.0</ele><time>2026-04-04T14:36:28Z</time></trkpt><trkpt lat="39.5411784842526" lon="9.19485608463202"><ele>385.99999999999994</ele><time>2026-04-04T14:36:29Z</time></trkpt><trkpt lat="39.54110555712647" lon="9.194903762579749"><ele>386.0</ele><time>2026-04-04T14:36:30Z</time></trkpt><trkpt lat="39.54103747740058" lon="9.1949017946235"><ele>388.0</ele><time>2026-04-04T14:36:31Z</time></trkpt><trkpt lat="39.54093651885139" lon="9.194924653257907"><ele>390.0</ele><time>2026-04-04T14:36:33Z</time></trkpt><trkpt lat="39.54084281982926" lon="9.1949907609828"><ele>392.0</ele><time>2026-04-04T14:36:35Z</time></trkpt><trkpt lat="39.54077258414621" lon="9.195017641799783"><ele>394.0</ele><time>2026-04-04T14:36:36Z</time></trkpt><trkpt lat="39.540695194405075" lon="9.195064535532005"><ele>396.0</ele><time>2026-04-04T14:36:37Z</time></trkpt><trkpt lat="39.54061871509357" lon="9.195117263128394"><ele>396.0</ele><time>2026-04-04T14:36:38Z</time></trkpt><trkpt lat="39.54054520599227" lon="9.195178540105116"><ele>396.0</ele><time>2026-04-04T14:36:39Z</time></trkpt><trkpt lat="39.54048177474364" lon="9.195244092884185"><ele>396.0</ele><time>2026-04-04T14:36:40Z</time></trkpt><trkpt lat="39.54043046347982" lon="9.195319206564706"><ele>396.0</ele><time>2026-04-04T14:36:41Z</time></trkpt><trkpt lat="39.540382284333624" lon="9.195391237188893"><ele>396.0</ele><time>2026-04-04T14:36:42Z</time></trkpt><trkpt lat="39.54032130440333" lon="9.195439648071744"><ele>396.0</ele><time>2026-04-04T14:36:43Z</time></trkpt><trkpt lat="39.54026763020709" lon="9.195504192445584"><ele>396.6666666666667</ele><time>2026-04-04T14:36:44Z</time></trkpt><trkpt lat="39.54021965865498" lon="9.195579350693853"><ele>397.33333333333337</ele><time>2026-04-04T14:36:45Z</time></trkpt><trkpt lat="39.54016015718262" lon="9.19564555945825"><ele>398.0</ele><time>2026-04-04T14:36:46Z</time></trkpt><trkpt lat="39.54010213890106" lon="9.195728542954246"><ele>398.6666666666667</ele><time>2026-04-04T14:36:47Z</time></trkpt><trkpt lat="39.54004278511326" lon="9.195816204574566"><ele>399.33333333333337</ele><time>2026-04-04T14:36:48Z</time></trkpt><trkpt lat="39.539967550716625" lon="9.195884645280994"><ele>400.0</ele><time>2026-04-04T14:36:49Z</time></trkpt><trkpt lat="39.53990606355369" lon="9.19598552275344"><ele>400.00000000000006</ele><time>2026-04-04T14:36:50Z</time></trkpt><trkpt lat="39.53983418031713" lon="9.196064446937802"><ele>400.0</ele><time>2026-04-04T14:36:51Z</time></trkpt><trkpt lat="39.53975835734531" lon="9.196138018480049"><ele>400.0</ele><time>2026-04-04T14:36:52Z</time></trkpt><trkpt lat="39.53968772908546" lon="9.196207347812772"><ele>400.0</ele><time>2026-04-04T14:36:53Z</time></trkpt><trkpt lat="39.53963299353298" lon="9.196266851378104"><ele>400.00000000000006</ele><time>2026-04-04T14:36:54Z</time></trkpt><trkpt lat="39.53955787540672" lon="9.196342870241649"><ele>400.0</ele><time>2026-04-04T14:36:56Z</time></trkpt><trkpt lat="39.539493643323524" lon="9.196399769139166"><ele>400.00000000000006</ele><time>2026-04-04T14:36:58Z</time></trkpt><trkpt lat="39.53941427482664" lon="9.196449525810126"><ele>400.0</ele><time>2026-04-04T14:37:00Z</time></trkpt><trkpt lat="39.539317742647874" lon="9.19654570713328"><ele>400.0</ele><time>2026-04-04T14:37:02Z</time></trkpt><trkpt lat="39.53926301832257" lon="9.196598805724099"><ele>400.0</ele><time>2026-04-04T14:37:03Z</time></trkpt><trkpt lat="39.53920486392404" lon="9.196660345901662"><ele>400.00000000000006</ele><time>2026-04-04T14:37:04Z</time></trkpt><trkpt lat="39.539146750676316" lon="9.196731719477413"><ele>400.0</ele><time>2026-04-04T14:37:05Z</time></trkpt><trkpt lat="39.53907218644935" lon="9.196791860912917"><ele>401.2</ele><time>2026-04-04T14:37:06Z</time></trkpt><trkpt lat="39.539018974131274" lon="9.196869857147695"><ele>402.4</ele><time>2026-04-04T14:37:07Z</time></trkpt><trkpt lat="39.53895102724959" lon="9.196933811117328"><ele>403.6</ele><time>2026-04-04T14:37:08Z</time></trkpt><trkpt lat="39.538881089135785" lon="9.197010504764371"><ele>404.8</ele><time>2026-04-04T14:37:09Z</time></trkpt><trkpt lat="39.538818927869535" lon="9.197102996185079"><ele>406.0</ele><time>2026-04-04T14:37:10Z</time></trkpt><trkpt lat="39.5387443305871" lon="9.197191923669637"><ele>406.1666666666667</ele><time>2026-04-04T14:37:11Z</time></trkpt><trkpt lat="39.53866857819918" lon="9.197281672558994"><ele>406.33333333333337</ele><time>2026-04-04T14:37:12Z</time></trkpt><trkpt lat="39.538595755963414" lon="9.197362225671066"><ele>406.5</ele><time>2026-04-04T14:37:13Z</time></trkpt><trkpt lat="39.53852280882618" lon="9.19742101261478"><ele>406.66666666666663</ele><time>2026-04-04T14:37:14Z</time></trkpt><trkpt lat="39.53844627343312" lon="9.197452222501354"><ele>406.8333333333333</ele><time>2026-04-04T14:37:15Z</time></trkpt><trkpt lat="39.5383696811535" lon="9.197480462396836"><ele>407.0</ele><time>2026-04-04T14:37:16Z</time></trkpt><trkpt lat="39.53829548317587" lon="9.19753581404335"><ele>407.16666666666663</ele><time>2026-04-04T14:37:17Z</time></trkpt><trkpt lat="39.53823076566971" lon="9.197610666182596"><ele>407.3333333333333</ele><time>2026-04-04T14:37:18Z</time></trkpt><trkpt lat="39.53817858922898" lon="9.197696910382763"><ele>407.5</ele><time>2026-04-04T14:37:19Z</time></trkpt><trkpt lat="39.538136174452845" lon="9.19778243966213"><ele>407.66666666666663</ele><time>2026-04-04T14:37:20Z</time></trkpt><trkpt lat="39.53812030005774" lon="9.19786727423072"><ele>407.8333333333333</ele><time>2026-04-04T14:37:21Z</time></trkpt><trkpt lat="39.538049602953706" lon="9.197878728282838"><ele>408.0</ele><time>2026-04-04T14:37:22Z</time></trkpt><trkpt lat="39.53810657844711" lon="9.197986047736633"><ele>408.0</ele><time>2026-04-04T14:37:23Z</time></trkpt><trkpt lat="39.53811156188303" lon="9.198068659788175"><ele>408.0</ele><time>2026-04-04T14:37:25Z</time></trkpt><trkpt lat="39.538083330608835" lon="9.198193331827708"><ele>408.0</ele><time>2026-04-04T14:37:27Z</time></trkpt><trkpt lat="39.5380585759854" lon="9.19827179703046"><ele>408.0</ele><time>2026-04-04T14:37:28Z</time></trkpt><trkpt lat="39.538023496650375" lon="9.198346917782162"><ele>408.0</ele><time>2026-04-04T14:37:29Z</time></trkpt><trkpt lat="39.53797391907206" lon="9.198458046172608"><ele>408.0</ele><time>2026-04-04T14:37:31Z</time></trkpt><trkpt lat="39.53793610337411" lon="9.19857373749429"><ele>407.8333333333333</ele><time>2026-04-04T14:37:38Z</time></trkpt><trkpt lat="39.53787149840554" lon="9.198694413996582"><ele>407.66666666666663</ele><time>2026-04-04T14:37:40Z</time></trkpt><trkpt lat="39.53784065445357" lon="9.198767829346457"><ele>407.5</ele><time>2026-04-04T14:37:41Z</time></trkpt><trkpt lat="39.53781973414627" lon="9.198857733314501"><ele>407.3333333333333</ele><time>2026-04-04T14:37:42Z</time></trkpt><trkpt lat="39.53778314793151" lon="9.198935601928534"><ele>407.16666666666663</ele><time>2026-04-04T14:37:43Z</time></trkpt><trkpt lat="39.53774877204214" lon="9.19901303890352"><ele>407.0</ele><time>2026-04-04T14:37:44Z</time></trkpt><trkpt lat="39.537724985754664" lon="9.199092731454027"><ele>408.16666666666663</ele><time>2026-04-04T14:37:45Z</time></trkpt><trkpt lat="39.53771059217607" lon="9.199174820621261"><ele>409.3333333333333</ele><time>2026-04-04T14:37:46Z</time></trkpt><trkpt lat="39.53770627820354" lon="9.199344214969463"><ele>410.5</ele><time>2026-04-04T14:37:48Z</time></trkpt><trkpt lat="39.53771614120826" lon="9.199431893327345"><ele>411.66666666666663</ele><time>2026-04-04T14:37:49Z</time></trkpt><trkpt lat="39.53773138635986" lon="9.19952490759769"><ele>412.8333333333333</ele><time>2026-04-04T14:37:50Z</time></trkpt><trkpt lat="39.53775398349885" lon="9.199625423142257"><ele>414.0</ele><time>2026-04-04T14:37:51Z</time></trkpt><trkpt lat="39.537779410226065" lon="9.199726985502334"><ele>414.6</ele><time>2026-04-04T14:37:52Z</time></trkpt><trkpt lat="39.53780811157375" lon="9.19983651199171"><ele>415.2</ele><time>2026-04-04T14:37:53Z</time></trkpt><trkpt lat="39.53784104666164" lon="9.199946469755377"><ele>415.8</ele><time>2026-04-04T14:37:54Z</time></trkpt><trkpt lat="39.53787969834252" lon="9.20005116487735"><ele>416.40000000000003</ele><time>2026-04-04T14:37:55Z</time></trkpt><trkpt lat="39.53792114817493" lon="9.200156563870479"><ele>417.0</ele><time>2026-04-04T14:37:56Z</time></trkpt><trkpt lat="39.537982080007396" lon="9.20025098302183"><ele>418.6</ele><time>2026-04-04T14:37:57Z</time></trkpt><trkpt lat="39.53802780117228" lon="9.200356738387628"><ele>420.20000000000005</ele><time>2026-04-04T14:37:58Z</time></trkpt><trkpt lat="39.53804185378511" lon="9.200471608944747"><ele>421.8</ele><time>2026-04-04T14:37:59Z</time></trkpt><trkpt lat="39.538066999849214" lon="9.200589003584621"><ele>423.4</ele><time>2026-04-04T14:38:00Z</time></trkpt><trkpt lat="39.53809331217381" lon="9.20071184577509"><ele>425.0</ele><time>2026-04-04T14:38:01Z</time></trkpt><trkpt lat="39.53812007337913" lon="9.200838016623944"><ele>425.4</ele><time>2026-04-04T14:38:02Z</time></trkpt><trkpt lat="39.538144540396175" lon="9.200969569458886"><ele>425.8</ele><time>2026-04-04T14:38:03Z</time></trkpt><trkpt lat="39.53816344526399" lon="9.201108168136582"><ele>426.20000000000005</ele><time>2026-04-04T14:38:04Z</time></trkpt><trkpt lat="39.538180135191254" lon="9.201254941438874"><ele>426.6</ele><time>2026-04-04T14:38:05Z</time></trkpt><trkpt lat="39.53822202129247" lon="9.20139654455851"><ele>427.0</ele><time>2026-04-04T14:38:06Z</time></trkpt><trkpt lat="39.538242007571576" lon="9.201538313380588"><ele>427.20000000000005</ele><time>2026-04-04T14:38:07Z</time></trkpt><trkpt lat="39.5382786918442" lon="9.201666748082426"><ele>427.40000000000003</ele><time>2026-04-04T14:38:08Z</time></trkpt><trkpt lat="39.53833042617665" lon="9.201795472016673"><ele>427.59999999999997</ele><time>2026-04-04T14:38:09Z</time></trkpt><trkpt lat="39.53838786458038" lon="9.201915988410537"><ele>427.79999999999995</ele><time>2026-04-04T14:38:10Z</time></trkpt><trkpt lat="39.53844318624519" lon="9.202042476594677"><ele>428.0</ele><time>2026-04-04T14:38:11Z</time></trkpt><trkpt lat="39.538499279146656" lon="9.202173580257115"><ele>425.66666666666663</ele><time>2026-04-04T14:38:12Z</time></trkpt><trkpt lat="39.53856274510576" lon="9.202337256464496"><ele>423.33333333333337</ele><time>2026-04-04T14:38:13Z</time></trkpt><trkpt lat="39.538647414206054" lon="9.202526549448041"><ele>421.0</ele><time>2026-04-04T14:38:14Z</time></trkpt><trkpt lat="39.53872772220224" lon="9.202704917667539"><ele>426.0</ele><time>2026-04-04T14:38:15Z</time></trkpt><trkpt lat="39.53879185531123" lon="9.202830387176327"><ele>431.0</ele><time>2026-04-04T14:38:16Z</time></trkpt><trkpt lat="39.53883917663971" lon="9.202952784559757"><ele>436.0</ele><time>2026-04-04T14:38:17Z</time></trkpt><trkpt lat="39.53889820725178" lon="9.203089251901869"><ele>441.0</ele><time>2026-04-04T14:38:18Z</time></trkpt><trkpt lat="39.538934919922625" lon="9.20326901753277"><ele>441.0</ele><time>2026-04-04T14:38:19Z</time></trkpt><trkpt lat="39.538965495856395" lon="9.203453151083655"><ele>441.0</ele><time>2026-04-04T14:38:20Z</time></trkpt><trkpt lat="39.538992620513056" lon="9.203630578073941"><ele>441.0</ele><time>2026-04-04T14:38:21Z</time></trkpt><trkpt lat="39.539000848112906" lon="9.203814499999453"><ele>441.0</ele><time>2026-04-04T14:38:22Z</time></trkpt><trkpt lat="39.53901819496348" lon="9.204005314291935"><ele>441.25</ele><time>2026-04-04T14:38:23Z</time></trkpt><trkpt lat="39.53903423003118" lon="9.204199064873782"><ele>441.5</ele><time>2026-04-04T14:38:24Z</time></trkpt><trkpt lat="39.539046884965835" lon="9.204384399478391"><ele>441.75</ele><time>2026-04-04T14:38:25Z</time></trkpt><trkpt lat="39.53907687593994" lon="9.204539407123047"><ele>442.0</ele><time>2026-04-04T14:38:26Z</time></trkpt><trkpt lat="39.53913710035004" lon="9.204671035938395"><ele>442.0</ele><time>2026-04-04T14:38:27Z</time></trkpt><trkpt lat="39.539239234807795" lon="9.20473981449914"><ele>442.0</ele><time>2026-04-04T14:38:28Z</time></trkpt><trkpt lat="39.53936159174486" lon="9.20475252478338"><ele>442.0</ele><time>2026-04-04T14:38:29Z</time></trkpt><trkpt lat="39.53950431385698" lon="9.204697802633028"><ele>442.0</ele><time>2026-04-04T14:38:30Z</time></trkpt><trkpt lat="39.53965476154224" lon="9.204601101647624"><ele>448.6666666666667</ele><time>2026-04-04T14:38:31Z</time></trkpt><trkpt lat="39.539839959175204" lon="9.204520166485601"><ele>455.33333333333337</ele><time>2026-04-04T14:38:32Z</time></trkpt><trkpt lat="39.54003706514761" lon="9.204419374935311"><ele>462.0</ele><time>2026-04-04T14:38:33Z</time></trkpt><trkpt lat="39.5402534785581" lon="9.204308710403858"><ele>458.0</ele><time>2026-04-04T14:38:34Z</time></trkpt><trkpt lat="39.54048405246144" lon="9.204183528421462"><ele>454.0</ele><time>2026-04-04T14:38:35Z</time></trkpt><trkpt lat="39.54071564119765" lon="9.204066105682914"><ele>454.0</ele><time>2026-04-04T14:38:36Z</time></trkpt><trkpt lat="39.54093586074428" lon="9.204005814455186"><ele>454.0</ele><time>2026-04-04T14:38:37Z</time></trkpt><trkpt lat="39.54113959230856" lon="9.203937997934382"><ele>454.0</ele><time>2026-04-04T14:38:38Z</time></trkpt><trkpt lat="39.541336518875795" lon="9.20389231621768"><ele>463.0</ele><time>2026-04-04T14:38:39Z</time></trkpt><trkpt lat="39.54153609444196" lon="9.203794618372312"><ele>472.0</ele><time>2026-04-04T14:38:40Z</time></trkpt><trkpt lat="39.54172691433877" lon="9.203621724915065"><ele>481.0</ele><time>2026-04-04T14:38:41Z</time></trkpt><trkpt lat="39.54191041527876" lon="9.203444385203333"><ele>478.0</ele><time>2026-04-04T14:38:42Z</time></trkpt><trkpt lat="39.542101963993346" lon="9.203343293960174"><ele>475.0</ele><time>2026-04-04T14:38:43Z</time></trkpt><trkpt lat="39.54230094281243" lon="9.203258838409658"><ele>472.0</ele><time>2026-04-04T14:38:44Z</time></trkpt><trkpt lat="39.5425142775113" lon="9.203204288566134"><ele>472.0</ele><time>2026-04-04T14:38:45Z</time></trkpt><trkpt lat="39.5427132286591" lon="9.20318381850103"><ele>472.0</ele><time>2026-04-04T14:38:46Z</time></trkpt><trkpt lat="39.542887846200145" lon="9.203180530371851"><ele>472.0</ele><time>2026-04-04T14:38:47Z</time></trkpt><trkpt lat="39.54303111099339" lon="9.203195746972394"><ele>474.75</ele><time>2026-04-04T14:38:48Z</time></trkpt><trkpt lat="39.54313352392279" lon="9.20325681716203"><ele>477.5</ele><time>2026-04-04T14:38:49Z</time></trkpt><trkpt lat="39.54321308694394" lon="9.203375273003804"><ele>480.25</ele><time>2026-04-04T14:38:50Z</time></trkpt><trkpt lat="39.543276008629086" lon="9.203518909302401"><ele>483.0</ele><time>2026-04-04T14:38:51Z</time></trkpt><trkpt lat="39.543280236429865" lon="9.203714614325424"><ele>483.0</ele><time>2026-04-04T14:38:52Z</time></trkpt><trkpt lat="39.54319643534403" lon="9.203893362528685"><ele>483.0</ele><time>2026-04-04T14:38:53Z</time></trkpt><trkpt lat="39.54311734901406" lon="9.204106226525619"><ele>483.0</ele><time>2026-04-04T14:38:54Z</time></trkpt><trkpt lat="39.54303887545563" lon="9.204339897723527"><ele>484.66666666666663</ele><time>2026-04-04T14:38:55Z</time></trkpt><trkpt lat="39.54295183731948" lon="9.204585898113871"><ele>486.3333333333333</ele><time>2026-04-04T14:38:56Z</time></trkpt><trkpt lat="39.542865888845505" lon="9.204837077637208"><ele>488.0</ele><time>2026-04-04T14:38:57Z</time></trkpt><trkpt lat="39.542778061623984" lon="9.205060485675357"><ele>484.3333333333333</ele><time>2026-04-04T14:38:58Z</time></trkpt><trkpt lat="39.54265853042499" lon="9.20523148124611"><ele>480.66666666666663</ele><time>2026-04-04T14:38:59Z</time></trkpt><trkpt lat="39.542507676475154" lon="9.205382228643353"><ele>477.0</ele><time>2026-04-04T14:39:00Z</time></trkpt><trkpt lat="39.54235184510933" lon="9.205545700136964"><ele>476.0</ele><time>2026-04-04T14:39:01Z</time></trkpt><trkpt lat="39.54220220065787" lon="9.205698368629497"><ele>475.0</ele><time>2026-04-04T14:39:02Z</time></trkpt><trkpt lat="39.542068275026715" lon="9.20589840314386"><ele>474.0</ele><time>2026-04-04T14:39:03Z</time></trkpt><trkpt lat="39.54195666659316" lon="9.206148840819191"><ele>474.0</ele><time>2026-04-04T14:39:04Z</time></trkpt><trkpt lat="39.541858205927596" lon="9.20639729967725"><ele>474.0</ele><time>2026-04-04T14:39:05Z</time></trkpt><trkpt lat="39.54174290590536" lon="9.206650767248153"><ele>474.0</ele><time>2026-04-04T14:39:06Z</time></trkpt><trkpt lat="39.54162721013761" lon="9.206906023955703"><ele>481.33333333333337</ele><time>2026-04-04T14:39:07Z</time></trkpt><trkpt lat="39.541514203831845" lon="9.207157756340468"><ele>488.6666666666667</ele><time>2026-04-04T14:39:08Z</time></trkpt><trkpt lat="39.54141371532892" lon="9.207387915157009"><ele>496.0</ele><time>2026-04-04T14:39:09Z</time></trkpt><trkpt lat="39.54134073831676" lon="9.20762300448919"><ele>500.6666666666667</ele><time>2026-04-04T14:39:10Z</time></trkpt><trkpt lat="39.54130608201248" lon="9.207873362799294"><ele>505.33333333333337</ele><time>2026-04-04T14:39:11Z</time></trkpt><trkpt lat="39.54129417172331" lon="9.208135260889161"><ele>510.0</ele><time>2026-04-04T14:39:12Z</time></trkpt><trkpt lat="39.541276842057336" lon="9.208376942866431"><ele>513.0</ele><time>2026-04-04T14:39:13Z</time></trkpt><trkpt lat="39.541278544189076" lon="9.208607677735264"><ele>516.0</ele><time>2026-04-04T14:39:14Z</time></trkpt><trkpt lat="39.54132542153666" lon="9.208847513797554"><ele>519.0</ele><time>2026-04-04T14:39:15Z</time></trkpt><trkpt lat="39.54141166941489" lon="9.209096248883844"><ele>519.0</ele><time>2026-04-04T14:39:16Z</time></trkpt><trkpt lat="39.541499462396125" lon="9.20932177112875"><ele>519.0</ele><time>2026-04-04T14:39:17Z</time></trkpt><trkpt lat="39.541601936531" lon="9.209515316308025"><ele>519.0</ele><time>2026-04-04T14:39:18Z</time></trkpt><trkpt lat="39.541750120150276" lon="9.209683946834422"><ele>514.6666666666666</ele><time>2026-04-04T14:39:19Z</time></trkpt><trkpt lat="39.541928975103396" lon="9.20983010414369"><ele>510.3333333333333</ele><time>2026-04-04T14:39:20Z</time></trkpt><trkpt lat="39.54210309724599" lon="9.20997819329493"><ele>506.0</ele><time>2026-04-04T14:39:21Z</time></trkpt><trkpt lat="39.54225671208287" lon="9.210115614833283"><ele>511.0</ele><time>2026-04-04T14:39:22Z</time></trkpt><trkpt lat="39.54238591350153" lon="9.210255942272232"><ele>516.0</ele><time>2026-04-04T14:39:23Z</time></trkpt><trkpt lat="39.54250659121668" lon="9.210356809731461"><ele>521.0</ele><time>2026-04-04T14:39:24Z</time></trkpt><trkpt lat="39.542565293910506" lon="9.210509200399747"><ele>526.0</ele><time>2026-04-04T14:39:25Z</time></trkpt><trkpt lat="39.542541282949735" lon="9.210693552866724"><ele>526.0</ele><time>2026-04-04T14:39:26Z</time></trkpt><trkpt lat="39.54253530797525" lon="9.210902697571482"><ele>526.0</ele><time>2026-04-04T14:39:27Z</time></trkpt><trkpt lat="39.54257784500848" lon="9.211107922542586"><ele>526.0</ele><time>2026-04-04T14:39:28Z</time></trkpt><trkpt lat="39.542657648377535" lon="9.211280891938843"><ele>526.0</ele><time>2026-04-04T14:39:29Z</time></trkpt><trkpt lat="39.542720275739086" lon="9.211448192791508"><ele>526.0</ele><time>2026-04-04T14:39:30Z</time></trkpt><trkpt lat="39.54277981396875" lon="9.211604615439855"><ele>526.0</ele><time>2026-04-04T14:39:31Z</time></trkpt><trkpt lat="39.54277856592115" lon="9.211793451720888"><ele>526.0</ele><time>2026-04-04T14:39:32Z</time></trkpt><trkpt lat="39.542711807842636" lon="9.211972933177309"><ele>526.6666666666667</ele><time>2026-04-04T14:39:33Z</time></trkpt><trkpt lat="39.54260854531511" lon="9.212143727235883"><ele>527.3333333333334</ele><time>2026-04-04T14:39:34Z</time></trkpt><trkpt lat="39.54249153358109" lon="9.212323166660513"><ele>528.0</ele><time>2026-04-04T14:39:35Z</time></trkpt><trkpt lat="39.542390190982026" lon="9.21251792268158"><ele>533.0</ele><time>2026-04-04T14:39:36Z</time></trkpt><trkpt lat="39.54230073448909" lon="9.212706860854375"><ele>538.0</ele><time>2026-04-04T14:39:37Z</time></trkpt><trkpt lat="39.5422461663096" lon="9.212914793056123"><ele>543.0</ele><time>2026-04-04T14:39:38Z</time></trkpt><trkpt lat="39.54222900535751" lon="9.213159236793286"><ele>546.3333333333334</ele><time>2026-04-04T14:39:39Z</time></trkpt><trkpt lat="39.5422258379347" lon="9.21341208942122"><ele>549.6666666666667</ele><time>2026-04-04T14:39:40Z</time></trkpt><trkpt lat="39.54228392878919" lon="9.21365618876981"><ele>553.0</ele><time>2026-04-04T14:39:41Z</time></trkpt><trkpt lat="39.542362457520795" lon="9.213911760778823"><ele>552.3333333333334</ele><time>2026-04-04T14:39:42Z</time></trkpt><trkpt lat="39.54244189681694" lon="9.214182939801868"><ele>551.6666666666666</ele><time>2026-04-04T14:39:43Z</time></trkpt><trkpt lat="39.54251201533214" lon="9.214442188335008"><ele>551.0</ele><time>2026-04-04T14:39:44Z</time></trkpt><trkpt lat="39.54257305013306" lon="9.214686880252781"><ele>551.6666666666666</ele><time>2026-04-04T14:39:45Z</time></trkpt><trkpt lat="39.54263151627155" lon="9.214907220321138"><ele>552.3333333333334</ele><time>2026-04-04T14:39:46Z</time></trkpt><trkpt lat="39.542698232591825" lon="9.215106658749628"><ele>553.0</ele><time>2026-04-04T14:39:47Z</time></trkpt><trkpt lat="39.54278693771161" lon="9.2152762839506"><ele>557.3333333333334</ele><time>2026-04-04T14:39:48Z</time></trkpt><trkpt lat="39.54291973881978" lon="9.215396555973394"><ele>561.6666666666666</ele><time>2026-04-04T14:39:49Z</time></trkpt><trkpt lat="39.543086757349684" lon="9.215457430211194"><ele>566.0</ele><time>2026-04-04T14:39:50Z</time></trkpt><trkpt lat="39.543276529207674" lon="9.215470405600533"><ele>566.0</ele><time>2026-04-04T14:39:51Z</time></trkpt><trkpt lat="39.54348758794627" lon="9.21548505032209"><ele>566.0</ele><time>2026-04-04T14:39:52Z</time></trkpt><trkpt lat="39.54371245725764" lon="9.215469775615322"><ele>566.0</ele><time>2026-04-04T14:39:53Z</time></trkpt><trkpt lat="39.54394746222026" lon="9.215449198200595"><ele>570.5</ele><time>2026-04-04T14:39:54Z</time></trkpt><trkpt lat="39.544194256804786" lon="9.215428675103157"><ele>575.0</ele><time>2026-04-04T14:39:55Z</time></trkpt><trkpt lat="39.54445742959962" lon="9.215385866049349"><ele>578.0</ele><time>2026-04-04T14:39:56Z</time></trkpt><trkpt lat="39.54472849073476" lon="9.215371198312042"><ele>581.0</ele><time>2026-04-04T14:39:57Z</time></trkpt><trkpt lat="39.54500163321366" lon="9.215361722919761"><ele>581.0</ele><time>2026-04-04T14:39:58Z</time></trkpt><trkpt lat="39.54525749571018" lon="9.215360957781051"><ele>581.0</ele><time>2026-04-04T14:39:59Z</time></trkpt><trkpt lat="39.545496659308704" lon="9.21536564459603"><ele>583.0</ele><time>2026-04-04T14:40:00Z</time></trkpt><trkpt lat="39.545726199077315" lon="9.215364467317084"><ele>585.0</ele><time>2026-04-04T14:40:01Z</time></trkpt><trkpt lat="39.545946087203994" lon="9.215340116220249"><ele>585.0</ele><time>2026-04-04T14:40:02Z</time></trkpt><trkpt lat="39.54615768453046" lon="9.215291207746654"><ele>585.0</ele><time>2026-04-04T14:40:03Z</time></trkpt><trkpt lat="39.546361499036244" lon="9.215260018106978"><ele>585.0</ele><time>2026-04-04T14:40:04Z</time></trkpt><trkpt lat="39.54655022110817" lon="9.215215309918877"><ele>588.0</ele><time>2026-04-04T14:40:05Z</time></trkpt><trkpt lat="39.54671979327361" lon="9.21517501148886"><ele>591.0</ele><time>2026-04-04T14:40:06Z</time></trkpt><trkpt lat="39.546889528018475" lon="9.215123802050085"><ele>594.0</ele><time>2026-04-04T14:40:07Z</time></trkpt><trkpt lat="39.54705978906464" lon="9.215123891053816"><ele>594.0</ele><time>2026-04-04T14:40:08Z</time></trkpt><trkpt lat="39.547203609780766" lon="9.215197480374345"><ele>594.0</ele><time>2026-04-04T14:40:09Z</time></trkpt><trkpt lat="39.547348075938544" lon="9.215273762680349"><ele>594.0</ele><time>2026-04-04T14:40:10Z</time></trkpt><trkpt lat="39.54747167407395" lon="9.215414118480002"><ele>594.0</ele><time>2026-04-04T14:40:11Z</time></trkpt><trkpt lat="39.54756568016384" lon="9.215583081097337"><ele>594.0</ele><time>2026-04-04T14:40:12Z</time></trkpt><trkpt lat="39.5476280760755" lon="9.215785013007277"><ele>594.0</ele><time>2026-04-04T14:40:13Z</time></trkpt><trkpt lat="39.54764786877148" lon="9.216020923744662"><ele>593.6666666666666</ele><time>2026-04-04T14:40:14Z</time></trkpt><trkpt lat="39.54768433568078" lon="9.216288633732702"><ele>593.3333333333333</ele><time>2026-04-04T14:40:15Z</time></trkpt><trkpt lat="39.54772005184302" lon="9.216562308014714"><ele>593.0</ele><time>2026-04-04T14:40:16Z</time></trkpt><trkpt lat="39.54775211745906" lon="9.216831075469424"><ele>592.6666666666666</ele><time>2026-04-04T14:40:17Z</time></trkpt><trkpt lat="39.54778284170326" lon="9.2171059226051"><ele>592.3333333333334</ele><time>2026-04-04T14:40:18Z</time></trkpt><trkpt lat="39.547814969567256" lon="9.217376223609806"><ele>592.0</ele><time>2026-04-04T14:40:19Z</time></trkpt><trkpt lat="39.54783788658938" lon="9.217644050627198"><ele>591.3333333333334</ele><time>2026-04-04T14:40:20Z</time></trkpt><trkpt lat="39.54783801248404" lon="9.217912880646988"><ele>590.6666666666666</ele><time>2026-04-04T14:40:20.999Z</time></trkpt><trkpt lat="39.54780144081966" lon="9.218199962963304"><ele>590.0</ele><time>2026-04-04T14:40:21.999Z</time></trkpt><trkpt lat="39.54774452532231" lon="9.218487260682329"><ele>587.0</ele><time>2026-04-04T14:40:22.999Z</time></trkpt><trkpt lat="39.54768108939417" lon="9.218783347659723"><ele>584.0</ele><time>2026-04-04T14:40:23.999Z</time></trkpt><trkpt lat="39.54761962597603" lon="9.219090749778015"><ele>581.0</ele><time>2026-04-04T14:40:25Z</time></trkpt><trkpt lat="39.54755852442106" lon="9.219413086220076"><ele>578.0</ele><time>2026-04-04T14:40:26Z</time></trkpt><trkpt lat="39.54749614189944" lon="9.219754609137048"><ele>577.0</ele><time>2026-04-04T14:40:27Z</time></trkpt><trkpt lat="39.54743078096804" lon="9.220100590759444"><ele>576.0</ele><time>2026-04-04T14:40:28Z</time></trkpt><trkpt lat="39.54735925369606" lon="9.22045672926227"><ele>576.0</ele><time>2026-04-04T14:40:29Z</time></trkpt><trkpt lat="39.547287213900574" lon="9.220805903271508"><ele>576.0</ele><time>2026-04-04T14:40:30Z</time></trkpt><trkpt lat="39.547216039698945" lon="9.22115273230123"><ele>576.5</ele><time>2026-04-04T14:40:31Z</time></trkpt><trkpt lat="39.54715027625176" lon="9.221486976911251"><ele>577.0</ele><time>2026-04-04T14:40:31.999Z</time></trkpt><trkpt lat="39.54709018075518" lon="9.22180398972528"><ele>573.5</ele><time>2026-04-04T14:40:32.999Z</time></trkpt><trkpt lat="39.54703374936113" lon="9.222110662237286"><ele>570.0</ele><time>2026-04-04T14:40:33.999Z</time></trkpt><trkpt lat="39.54697982956611" lon="9.222403922858238"><ele>570.0</ele><time>2026-04-04T14:40:35Z</time></trkpt><trkpt lat="39.54692846794399" lon="9.222689830009564"><ele>570.0</ele><time>2026-04-04T14:40:36Z</time></trkpt><trkpt lat="39.54687892460388" lon="9.222972957337628"><ele>570.3333333333334</ele><time>2026-04-04T14:40:37Z</time></trkpt><trkpt lat="39.54683166183856" lon="9.22324644744861"><ele>570.6666666666667</ele><time>2026-04-04T14:40:38Z</time></trkpt><trkpt lat="39.54678542922452" lon="9.22349899344165"><ele>571.0</ele><time>2026-04-04T14:40:39Z</time></trkpt><trkpt lat="39.54673653470114" lon="9.223730381888195"><ele>571.0</ele><time>2026-04-04T14:40:40Z</time></trkpt><trkpt lat="39.54667185116944" lon="9.223936371980633"><ele>571.0</ele><time>2026-04-04T14:40:41Z</time></trkpt><trkpt lat="39.54657395420184" lon="9.224104817432767"><ele>571.0</ele><time>2026-04-04T14:40:42Z</time></trkpt><trkpt lat="39.546445163222536" lon="9.224237044444605"><ele>573.0</ele><time>2026-04-04T14:40:43Z</time></trkpt><trkpt lat="39.546295079093056" lon="9.224328144297429"><ele>575.0</ele><time>2026-04-04T14:40:44Z</time></trkpt><trkpt lat="39.546125619097005" lon="9.224375218384028"><ele>577.0</ele><time>2026-04-04T14:40:45Z</time></trkpt><trkpt lat="39.54594561138533" lon="9.224378950004"><ele>578.0</ele><time>2026-04-04T14:40:46Z</time></trkpt><trkpt lat="39.54576036456958" lon="9.22438204564543"><ele>579.0</ele><time>2026-04-04T14:40:47Z</time></trkpt><trkpt lat="39.54557197436332" lon="9.22438548254481"><ele>580.0</ele><time>2026-04-04T14:40:48Z</time></trkpt><trkpt lat="39.54539322060361" lon="9.22439748301689"><ele>581.0</ele><time>2026-04-04T14:40:49Z</time></trkpt><trkpt lat="39.54522853376926" lon="9.224440112813445"><ele>582.0</ele><time>2026-04-04T14:40:50Z</time></trkpt><trkpt lat="39.54506152669921" lon="9.224535153219993"><ele>583.0</ele><time>2026-04-04T14:40:51Z</time></trkpt><trkpt lat="39.54489754535795" lon="9.2246686328772"><ele>586.3333333333334</ele><time>2026-04-04T14:40:52Z</time></trkpt><trkpt lat="39.544730678538706" lon="9.224820637511208"><ele>589.6666666666666</ele><time>2026-04-04T14:40:53Z</time></trkpt><trkpt lat="39.54455782103141" lon="9.22496782607395"><ele>593.0</ele><time>2026-04-04T14:40:54Z</time></trkpt><trkpt lat="39.54437644492701" lon="9.225110974822398"><ele>593.0</ele><time>2026-04-04T14:40:55Z</time></trkpt><trkpt lat="39.54417691566951" lon="9.225235087005837"><ele>593.0</ele><time>2026-04-04T14:40:56Z</time></trkpt><trkpt lat="39.5439761455323" lon="9.225334103730646"><ele>593.0</ele><time>2026-04-04T14:40:57Z</time></trkpt><trkpt lat="39.54377115352075" lon="9.225433269802556"><ele>594.5</ele><time>2026-04-04T14:40:58Z</time></trkpt><trkpt lat="39.54356176144993" lon="9.225542696369669"><ele>596.0</ele><time>2026-04-04T14:40:59Z</time></trkpt><trkpt lat="39.54334995279601" lon="9.225650263470403"><ele>601.5</ele><time>2026-04-04T14:41:00Z</time></trkpt><trkpt lat="39.54312987364681" lon="9.225755330161642"><ele>607.0</ele><time>2026-04-04T14:41:01Z</time></trkpt><trkpt lat="39.54290794802515" lon="9.225864441659311"><ele>608.0</ele><time>2026-04-04T14:41:02Z</time></trkpt><trkpt lat="39.542693129582325" lon="9.225973180809214"><ele>609.0</ele><time>2026-04-04T14:41:03Z</time></trkpt><trkpt lat="39.54249182644759" lon="9.226077997229115"><ele>610.0</ele><time>2026-04-04T14:41:04Z</time></trkpt><trkpt lat="39.54230056360033" lon="9.226183249383741"><ele>610.0</ele><time>2026-04-04T14:41:05Z</time></trkpt><trkpt lat="39.54212056883558" lon="9.226305570732965"><ele>610.0</ele><time>2026-04-04T14:41:06Z</time></trkpt><trkpt lat="39.54195018415487" lon="9.226470393030809"><ele>610.0</ele><time>2026-04-04T14:41:07Z</time></trkpt><trkpt lat="39.54179544845525" lon="9.226684322345221"><ele>614.5</ele><time>2026-04-04T14:41:08Z</time></trkpt><trkpt lat="39.5416393256686" lon="9.22691579909622"><ele>619.0</ele><time>2026-04-04T14:41:09Z</time></trkpt><trkpt lat="39.54147079180093" lon="9.227130620465239"><ele>621.3333333333334</ele><time>2026-04-04T14:41:10Z</time></trkpt><trkpt lat="39.54132100072323" lon="9.227323702079117"><ele>623.6666666666666</ele><time>2026-04-04T14:41:11Z</time></trkpt><trkpt lat="39.54117965089209" lon="9.227511597766116"><ele>626.0</ele><time>2026-04-04T14:41:12Z</time></trkpt><trkpt lat="39.54105577803995" lon="9.227692166518851"><ele>626.0</ele><time>2026-04-04T14:41:13Z</time></trkpt><trkpt lat="39.54093615815554" lon="9.227864715028891"><ele>626.0</ele><time>2026-04-04T14:41:14Z</time></trkpt><trkpt lat="39.5408107821675" lon="9.22803753579349"><ele>626.0</ele><time>2026-04-04T14:41:15Z</time></trkpt><trkpt lat="39.540826897384385" lon="9.22837536549756"><ele>627.3333333333333</ele><time>2026-04-04T14:41:16Z</time></trkpt><trkpt lat="39.540806964415644" lon="9.228657004355489"><ele>628.6666666666666</ele><time>2026-04-04T14:41:17Z</time></trkpt><trkpt lat="39.54077358097719" lon="9.228943015151533"><ele>630.0</ele><time>2026-04-04T14:41:18Z</time></trkpt><trkpt lat="39.54072415263492" lon="9.229227983804078"><ele>633.5</ele><time>2026-04-04T14:41:19Z</time></trkpt><trkpt lat="39.54065585511335" lon="9.229519047728987"><ele>637.0</ele><time>2026-04-04T14:41:20Z</time></trkpt><trkpt lat="39.54056935725492" lon="9.22981206737305"><ele>639.5</ele><time>2026-04-04T14:41:21Z</time></trkpt><trkpt lat="39.54048005459161" lon="9.23009613387583"><ele>642.0</ele><time>2026-04-04T14:41:22Z</time></trkpt><trkpt lat="39.54039487575735" lon="9.230365465916847"><ele>641.0</ele><time>2026-04-04T14:41:23Z</time></trkpt><trkpt lat="39.54031997844078" lon="9.23063670781634"><ele>640.0</ele><time>2026-04-04T14:41:24Z</time></trkpt><trkpt lat="39.54026259926421" lon="9.230919165192802"><ele>639.0</ele><time>2026-04-04T14:41:25Z</time></trkpt><trkpt lat="39.540227835663075" lon="9.231215539883877"><ele>641.3333333333334</ele><time>2026-04-04T14:41:26Z</time></trkpt><trkpt lat="39.54019638364215" lon="9.231494834523533"><ele>643.6666666666667</ele><time>2026-04-04T14:41:27Z</time></trkpt><trkpt lat="39.54015627321068" lon="9.231749418667224"><ele>646.0</ele><time>2026-04-04T14:41:28Z</time></trkpt><trkpt lat="39.54010581950519" lon="9.231979590896499"><ele>646.0</ele><time>2026-04-04T14:41:29Z</time></trkpt><trkpt lat="39.54002916737824" lon="9.232178806636698"><ele>646.0</ele><time>2026-04-04T14:41:30Z</time></trkpt><trkpt lat="39.53991978258865" lon="9.23233554463787"><ele>646.0</ele><time>2026-04-04T14:41:31Z</time></trkpt><trkpt lat="39.53977288467912" lon="9.23245590927689"><ele>646.3333333333334</ele><time>2026-04-04T14:41:32Z</time></trkpt><trkpt lat="39.53962011906448" lon="9.232558280634715"><ele>646.6666666666666</ele><time>2026-04-04T14:41:33Z</time></trkpt><trkpt lat="39.539498166488144" lon="9.232705864122297"><ele>647.0</ele><time>2026-04-04T14:41:34Z</time></trkpt><trkpt lat="39.5394029859926" lon="9.232896456109613"><ele>647.0</ele><time>2026-04-04T14:41:35Z</time></trkpt><trkpt lat="39.5393379155469" lon="9.233126212629049"><ele>647.0</ele><time>2026-04-04T14:41:36Z</time></trkpt><trkpt lat="39.539297765135785" lon="9.233393554144097"><ele>647.0</ele><time>2026-04-04T14:41:37Z</time></trkpt><trkpt lat="39.5392539183459" lon="9.23366039189778"><ele>649.3333333333333</ele><time>2026-04-04T14:41:38Z</time></trkpt><trkpt lat="39.53923218960486" lon="9.233942060827227"><ele>651.6666666666666</ele><time>2026-04-04T14:41:39Z</time></trkpt><trkpt lat="39.539246420369246" lon="9.234236551656315"><ele>654.0</ele><time>2026-04-04T14:41:40Z</time></trkpt><trkpt lat="39.53928499989246" lon="9.234543225457374"><ele>658.0</ele><time>2026-04-04T14:41:41Z</time></trkpt><trkpt lat="39.539319776898026" lon="9.234869452933317"><ele>662.0</ele><time>2026-04-04T14:41:42Z</time></trkpt><trkpt lat="39.53934475904792" lon="9.235215697409451"><ele>662.0</ele><time>2026-04-04T14:41:43Z</time></trkpt><trkpt lat="39.539383713900854" lon="9.235557781858132"><ele>662.0</ele><time>2026-04-04T14:41:44Z</time></trkpt><trkpt lat="39.53941991778642" lon="9.235902971572083"><ele>664.0</ele><time>2026-04-04T14:41:45Z</time></trkpt><trkpt lat="39.539458939934136" lon="9.23625091236348"><ele>666.0</ele><time>2026-04-04T14:41:46Z</time></trkpt><trkpt lat="39.539498308466264" lon="9.236601518546133"><ele>667.0</ele><time>2026-04-04T14:41:47Z</time></trkpt><trkpt lat="39.53953792273111" lon="9.236946802802052"><ele>668.0</ele><time>2026-04-04T14:41:48Z</time></trkpt><trkpt lat="39.53957942557222" lon="9.237289924123914"><ele>672.0</ele><time>2026-04-04T14:41:49Z</time></trkpt><trkpt lat="39.539621600501604" lon="9.237631299625276"><ele>676.0</ele><time>2026-04-04T14:41:50Z</time></trkpt><trkpt lat="39.53966174381238" lon="9.23797249001002"><ele>677.0</ele><time>2026-04-04T14:41:51Z</time></trkpt><trkpt lat="39.53969865602837" lon="9.238314765414115"><ele>678.0</ele><time>2026-04-04T14:41:52Z</time></trkpt><trkpt lat="39.53973430061158" lon="9.238652220071089"><ele>678.0</ele><time>2026-04-04T14:41:53Z</time></trkpt><trkpt lat="39.53977056950766" lon="9.23898291489275"><ele>678.0</ele><time>2026-04-04T14:41:54Z</time></trkpt><trkpt lat="39.539804146170695" lon="9.239293300078604"><ele>678.0</ele><time>2026-04-04T14:41:55Z</time></trkpt><trkpt lat="39.539840643413925" lon="9.23958525791483"><ele>678.0</ele><time>2026-04-04T14:41:56Z</time></trkpt><trkpt lat="39.53989309616671" lon="9.239860131918993"><ele>678.0</ele><time>2026-04-04T14:41:57Z</time></trkpt><trkpt lat="39.53998527823155" lon="9.240107500211243"><ele>677.5</ele><time>2026-04-04T14:41:58Z</time></trkpt><trkpt lat="39.54010906881692" lon="9.24035282847263"><ele>677.0</ele><time>2026-04-04T14:41:59Z</time></trkpt><trkpt lat="39.54025079034285" lon="9.240578964427757"><ele>676.0</ele><time>2026-04-04T14:42:00Z</time></trkpt><trkpt lat="39.540399431550725" lon="9.24077044114448"><ele>675.0</ele><time>2026-04-04T14:42:01Z</time></trkpt><trkpt lat="39.540540426018026" lon="9.240971591998562"><ele>674.0</ele><time>2026-04-04T14:42:02Z</time></trkpt><trkpt lat="39.54067208904335" lon="9.24117162409839"><ele>674.0</ele><time>2026-04-04T14:42:03Z</time></trkpt><trkpt lat="39.54078799023991" lon="9.241367785953406"><ele>674.0</ele><time>2026-04-04T14:42:04Z</time></trkpt><trkpt lat="39.54087209853463" lon="9.241577069782572"><ele>674.0</ele><time>2026-04-04T14:42:05Z</time></trkpt><trkpt lat="39.54092872926081" lon="9.241809675306486"><ele>671.0</ele><time>2026-04-04T14:42:06Z</time></trkpt><trkpt lat="39.54094319099003" lon="9.242062143886255"><ele>668.0</ele><time>2026-04-04T14:42:07Z</time></trkpt><trkpt lat="39.54091927649592" lon="9.242324802559367"><ele>665.0</ele><time>2026-04-04T14:42:08Z</time></trkpt><trkpt lat="39.54085399269951" lon="9.24260368528976"><ele>661.0</ele><time>2026-04-04T14:42:09Z</time></trkpt><trkpt lat="39.54078716094053" lon="9.242898049292274"><ele>657.0</ele><time>2026-04-04T14:42:10Z</time></trkpt><trkpt lat="39.54072791580558" lon="9.243193070223802"><ele>655.3333333333334</ele><time>2026-04-04T14:42:11Z</time></trkpt><trkpt lat="39.54069678847517" lon="9.243444649591162"><ele>653.6666666666667</ele><time>2026-04-04T14:42:12Z</time></trkpt><trkpt lat="39.54063528197489" lon="9.24372287726326"><ele>652.0</ele><time>2026-04-04T14:42:13Z</time></trkpt><trkpt lat="39.54057934787095" lon="9.243993032674911"><ele>651.3333333333334</ele><time>2026-04-04T14:42:14Z</time></trkpt><trkpt lat="39.54053753580624" lon="9.244245181122654"><ele>650.6666666666666</ele><time>2026-04-04T14:42:15Z</time></trkpt><trkpt lat="39.5405363481045" lon="9.24449315338887"><ele>650.0</ele><time>2026-04-04T14:42:16Z</time></trkpt><trkpt lat="39.540588324487366" lon="9.244719884319188"><ele>646.6666666666666</ele><time>2026-04-04T14:42:17Z</time></trkpt><trkpt lat="39.540688994486715" lon="9.24494290185604"><ele>643.3333333333334</ele><time>2026-04-04T14:42:18Z</time></trkpt><trkpt lat="39.54082328736409" lon="9.245167417493281"><ele>640.0</ele><time>2026-04-04T14:42:19Z</time></trkpt><trkpt lat="39.54094782352955" lon="9.245406759666167"><ele>636.0</ele><time>2026-04-04T14:42:20Z</time></trkpt><trkpt lat="39.54106498532991" lon="9.245660834522848"><ele>632.0</ele><time>2026-04-04T14:42:21Z</time></trkpt><trkpt lat="39.541143144005105" lon="9.245952106676043"><ele>632.0</ele><time>2026-04-04T14:42:22Z</time></trkpt><trkpt lat="39.54119058218982" lon="9.246256033986322"><ele>632.0</ele><time>2026-04-04T14:42:23Z</time></trkpt><trkpt lat="39.541232819813985" lon="9.246568952706347"><ele>630.0</ele><time>2026-04-04T14:42:24Z</time></trkpt><trkpt lat="39.54128371254433" lon="9.246885723811811"><ele>628.0</ele><time>2026-04-04T14:42:25Z</time></trkpt><trkpt lat="39.54132506806536" lon="9.247197660268514"><ele>626.5</ele><time>2026-04-04T14:42:26Z</time></trkpt><trkpt lat="39.541367108455624" lon="9.247501182238912"><ele>625.0</ele><time>2026-04-04T14:42:27Z</time></trkpt><trkpt lat="39.54140771435944" lon="9.247802769803663"><ele>625.0</ele><time>2026-04-04T14:42:28Z</time></trkpt><trkpt lat="39.54144976526005" lon="9.248096393620976"><ele>625.0</ele><time>2026-04-04T14:42:29Z</time></trkpt><trkpt lat="39.54148803806354" lon="9.248375911815362"><ele>625.0</ele><time>2026-04-04T14:42:30Z</time></trkpt><trkpt lat="39.5415203202946" lon="9.248636672758312"><ele>625.3333333333334</ele><time>2026-04-04T14:42:31Z</time></trkpt><trkpt lat="39.54154857163269" lon="9.248882425452907"><ele>625.6666666666666</ele><time>2026-04-04T14:42:32Z</time></trkpt><trkpt lat="39.54157447213322" lon="9.24911341996476"><ele>626.0</ele><time>2026-04-04T14:42:33Z</time></trkpt><trkpt lat="39.541592450268176" lon="9.249332737104583"><ele>627.0</ele><time>2026-04-04T14:42:34Z</time></trkpt><trkpt lat="39.54153185239687" lon="9.249725547089193"><ele>628.0</ele><time>2026-04-04T14:42:36Z</time></trkpt><trkpt lat="39.541459229106756" lon="9.249907896748528"><ele>629.3333333333334</ele><time>2026-04-04T14:42:37Z</time></trkpt><trkpt lat="39.54139443840443" lon="9.250091554806687"><ele>630.6666666666666</ele><time>2026-04-04T14:42:38Z</time></trkpt><trkpt lat="39.541240240670064" lon="9.25022137265355"><ele>632.0</ele><time>2026-04-04T14:42:39Z</time></trkpt><trkpt lat="39.54112870569005" lon="9.250413354550389"><ele>632.6666666666666</ele><time>2026-04-04T14:42:40Z</time></trkpt><trkpt lat="39.54097305057601" lon="9.250600633056772"><ele>633.3333333333334</ele><time>2026-04-04T14:42:41Z</time></trkpt><trkpt lat="39.540845558209874" lon="9.250787276304708"><ele>634.0</ele><time>2026-04-04T14:42:42Z</time></trkpt><trkpt lat="39.540725867738594" lon="9.250961680739334"><ele>634.0</ele><time>2026-04-04T14:42:43Z</time></trkpt><trkpt lat="39.54061084458722" lon="9.251119017491067"><ele>634.0</ele><time>2026-04-04T14:42:44Z</time></trkpt><trkpt lat="39.54049376087527" lon="9.251254625531558"><ele>634.0</ele><time>2026-04-04T14:42:45Z</time></trkpt><trkpt lat="39.54036639786165" lon="9.251367812505832"><ele>633.75</ele><time>2026-04-04T14:42:46Z</time></trkpt><trkpt lat="39.54023110047208" lon="9.251454715539092"><ele>633.5</ele><time>2026-04-04T14:42:47Z</time></trkpt><trkpt lat="39.54009270861792" lon="9.251523237783442"><ele>633.25</ele><time>2026-04-04T14:42:48Z</time></trkpt><trkpt lat="39.5399519400514" lon="9.251589287488596"><ele>633.0</ele><time>2026-04-04T14:42:49Z</time></trkpt><trkpt lat="39.53982118631098" lon="9.251663192770893"><ele>631.75</ele><time>2026-04-04T14:42:50Z</time></trkpt><trkpt lat="39.539699893909344" lon="9.251742736233824"><ele>630.5</ele><time>2026-04-04T14:42:51Z</time></trkpt><trkpt lat="39.53958018711228" lon="9.251818218003834"><ele>629.25</ele><time>2026-04-04T14:42:52Z</time></trkpt><trkpt lat="39.53946866461969" lon="9.251886199777735"><ele>628.0</ele><time>2026-04-04T14:42:53Z</time></trkpt><trkpt lat="39.53936585670376" lon="9.251963358747863"><ele>626.5</ele><time>2026-04-04T14:42:54Z</time></trkpt><trkpt lat="39.53927890724461" lon="9.252064194197564"><ele>625.0</ele><time>2026-04-04T14:42:55Z</time></trkpt><trkpt lat="39.53921273557068" lon="9.252192192369067"><ele>623.5</ele><time>2026-04-04T14:42:56Z</time></trkpt><trkpt lat="39.53917264499097" lon="9.25235546521045"><ele>622.0</ele><time>2026-04-04T14:42:57Z</time></trkpt><trkpt lat="39.539164552723314" lon="9.252568657553965"><ele>619.3333333333334</ele><time>2026-04-04T14:42:58Z</time></trkpt><trkpt lat="39.539204959580715" lon="9.252825075142512"><ele>616.6666666666666</ele><time>2026-04-04T14:42:59Z</time></trkpt><trkpt lat="39.539239679278936" lon="9.253098918843884"><ele>614.0</ele><time>2026-04-04T14:43:00Z</time></trkpt><trkpt lat="39.539257410065446" lon="9.253356638754225"><ele>612.6666666666666</ele><time>2026-04-04T14:43:01Z</time></trkpt><trkpt lat="39.539250594339585" lon="9.253620668499494"><ele>611.3333333333334</ele><time>2026-04-04T14:43:02Z</time></trkpt><trkpt lat="39.53921122712871" lon="9.253870632875048"><ele>610.0</ele><time>2026-04-04T14:43:03Z</time></trkpt><trkpt lat="39.539147255920945" lon="9.254101321061649"><ele>609.3333333333334</ele><time>2026-04-04T14:43:04Z</time></trkpt><trkpt lat="39.53909082063426" lon="9.25432066877147"><ele>608.6666666666666</ele><time>2026-04-04T14:43:05Z</time></trkpt><trkpt lat="39.53907601068439" lon="9.254531269620658"><ele>608.0</ele><time>2026-04-04T14:43:06Z</time></trkpt><trkpt lat="39.539115250686535" lon="9.254721204173608"><ele>608.0</ele><time>2026-04-04T14:43:07Z</time></trkpt><trkpt lat="39.53921266727286" lon="9.254894471064889"><ele>608.0</ele><time>2026-04-04T14:43:08Z</time></trkpt><trkpt lat="39.53932351399228" lon="9.255057979546347"><ele>608.0</ele><time>2026-04-04T14:43:09Z</time></trkpt><trkpt lat="39.539403605295654" lon="9.255219066912804"><ele>608.0</ele><time>2026-04-04T14:43:10Z</time></trkpt><trkpt lat="39.53943753842575" lon="9.255384912227514"><ele>608.0</ele><time>2026-04-04T14:43:11Z</time></trkpt><trkpt lat="39.539409337272666" lon="9.255549101356369"><ele>608.0</ele><time>2026-04-04T14:43:12Z</time></trkpt><trkpt lat="39.53932318269029" lon="9.25569403714998"><ele>608.0</ele><time>2026-04-04T14:43:13Z</time></trkpt><trkpt lat="39.5392267049505" lon="9.255856853450766"><ele>607.3333333333333</ele><time>2026-04-04T14:43:14Z</time></trkpt><trkpt lat="39.53910234787878" lon="9.256019160654093"><ele>606.6666666666666</ele><time>2026-04-04T14:43:15Z</time></trkpt><trkpt lat="39.53898468007142" lon="9.256208559162639"><ele>606.0</ele><time>2026-04-04T14:43:16Z</time></trkpt><trkpt lat="39.53889642116552" lon="9.256412545012031"><ele>604.6666666666666</ele><time>2026-04-04T14:43:17Z</time></trkpt><trkpt lat="39.538847306393336" lon="9.256638066792348"><ele>603.3333333333333</ele><time>2026-04-04T14:43:18Z</time></trkpt><trkpt lat="39.53883441919584" lon="9.256887333469535"><ele>602.0</ele><time>2026-04-04T14:43:19Z</time></trkpt><trkpt lat="39.53885885053512" lon="9.257141524924334"><ele>601.6666666666666</ele><time>2026-04-04T14:43:20Z</time></trkpt><trkpt lat="39.53887466610938" lon="9.257394491143936"><ele>601.3333333333334</ele><time>2026-04-04T14:43:21Z</time></trkpt><trkpt lat="39.538879548560715" lon="9.25764614237519"><ele>601.0</ele><time>2026-04-04T14:43:22Z</time></trkpt><trkpt lat="39.53888210575635" lon="9.2578916049607"><ele>600.3333333333334</ele><time>2026-04-04T14:43:23Z</time></trkpt><trkpt lat="39.53887545380747" lon="9.258130099317599"><ele>599.6666666666666</ele><time>2026-04-04T14:43:24Z</time></trkpt><trkpt lat="39.53882275756446" lon="9.258345298565741"><ele>599.0</ele><time>2026-04-04T14:43:25Z</time></trkpt><trkpt lat="39.538735498860746" lon="9.258558836478851"><ele>602.6666666666666</ele><time>2026-04-04T14:43:26Z</time></trkpt><trkpt lat="39.538638350747874" lon="9.258781829412698"><ele>606.3333333333334</ele><time>2026-04-04T14:43:27Z</time></trkpt><trkpt lat="39.538524690281065" lon="9.259002464488432"><ele>610.0</ele><time>2026-04-04T14:43:28Z</time></trkpt><trkpt lat="39.53841772031088" lon="9.25922479197471"><ele>610.0</ele><time>2026-04-04T14:43:29Z</time></trkpt><trkpt lat="39.53831194588829" lon="9.259456479124582"><ele>610.0</ele><time>2026-04-04T14:43:30Z</time></trkpt><trkpt lat="39.53822604608819" lon="9.259713356241006"><ele>610.0</ele><time>2026-04-04T14:43:31Z</time></trkpt><trkpt lat="39.53815737934901" lon="9.25998235736735"><ele>606.0</ele><time>2026-04-04T14:43:32Z</time></trkpt><trkpt lat="39.53809095089243" lon="9.260239663993758"><ele>602.0</ele><time>2026-04-04T14:43:33Z</time></trkpt><trkpt lat="39.53801769482122" lon="9.260489818723165"><ele>598.0</ele><time>2026-04-04T14:43:34Z</time></trkpt><trkpt lat="39.537941939393434" lon="9.26074275299197"><ele>601.0</ele><time>2026-04-04T14:43:35Z</time></trkpt><trkpt lat="39.537868172302495" lon="9.260991585031993"><ele>604.0</ele><time>2026-04-04T14:43:36Z</time></trkpt><trkpt lat="39.537796716888565" lon="9.261221534380287"><ele>607.0</ele><time>2026-04-04T14:43:37Z</time></trkpt><trkpt lat="39.53772178441364" lon="9.261443218340117"><ele>602.3333333333334</ele><time>2026-04-04T14:43:38Z</time></trkpt><trkpt lat="39.537637461014505" lon="9.26165214025954"><ele>597.6666666666666</ele><time>2026-04-04T14:43:39Z</time></trkpt><trkpt lat="39.5375467917884" lon="9.26185587198701"><ele>593.0</ele><time>2026-04-04T14:43:40Z</time></trkpt><trkpt lat="39.53745645841351" lon="9.262051227577563"><ele>593.0</ele><time>2026-04-04T14:43:41Z</time></trkpt><trkpt lat="39.537370750955105" lon="9.262247185143304"><ele>593.0</ele><time>2026-04-04T14:43:42Z</time></trkpt><trkpt lat="39.53728766364874" lon="9.26244038867169"><ele>593.0</ele><time>2026-04-04T14:43:43Z</time></trkpt><trkpt lat="39.53720627210893" lon="9.262628629240215"><ele>592.6666666666666</ele><time>2026-04-04T14:43:44Z</time></trkpt><trkpt lat="39.53712549951268" lon="9.262815993508099"><ele>592.3333333333334</ele><time>2026-04-04T14:43:45Z</time></trkpt><trkpt lat="39.5370441998946" lon="9.26299315907716"><ele>592.0</ele><time>2026-04-04T14:43:46Z</time></trkpt><trkpt lat="39.53695580862577" lon="9.263161334754392"><ele>587.0</ele><time>2026-04-04T14:43:47Z</time></trkpt><trkpt lat="39.536848571864866" lon="9.26331172249705"><ele>582.0</ele><time>2026-04-04T14:43:48Z</time></trkpt><trkpt lat="39.53672261940163" lon="9.263451314521404"><ele>577.0</ele><time>2026-04-04T14:43:49Z</time></trkpt><trkpt lat="39.53657780001044" lon="9.263584403865304"><ele>577.0</ele><time>2026-04-04T14:43:50Z</time></trkpt><trkpt lat="39.53643066583956" lon="9.263723425590412"><ele>577.0</ele><time>2026-04-04T14:43:51Z</time></trkpt><trkpt lat="39.536285129952816" lon="9.263862250416674"><ele>577.0</ele><time>2026-04-04T14:43:52Z</time></trkpt><trkpt lat="39.53614116768234" lon="9.264008911452907"><ele>574.3333333333334</ele><time>2026-04-04T14:43:53Z</time></trkpt><trkpt lat="39.536016119640095" lon="9.26418873316336"><ele>571.6666666666666</ele><time>2026-04-04T14:43:54Z</time></trkpt><trkpt lat="39.53591309800418" lon="9.264394192133025"><ele>569.0</ele><time>2026-04-04T14:43:55Z</time></trkpt><trkpt lat="39.535839322607735" lon="9.2646297538347"><ele>566.0</ele><time>2026-04-04T14:43:56Z</time></trkpt><trkpt lat="39.5357655992854" lon="9.264869526493822"><ele>563.0</ele><time>2026-04-04T14:43:57Z</time></trkpt><trkpt lat="39.5356781243521" lon="9.265104759189795"><ele>560.0</ele><time>2026-04-04T14:43:58Z</time></trkpt><trkpt lat="39.53559032237826" lon="9.265341206160706"><ele>560.0</ele><time>2026-04-04T14:43:59Z</time></trkpt><trkpt lat="39.53550327788453" lon="9.265575719477448"><ele>560.0</ele><time>2026-04-04T14:44:00Z</time></trkpt><trkpt lat="39.53541541415542" lon="9.265810104510392"><ele>560.0</ele><time>2026-04-04T14:44:01Z</time></trkpt><trkpt lat="39.53532760957456" lon="9.266041978974874"><ele>558.0</ele><time>2026-04-04T14:44:02Z</time></trkpt><trkpt lat="39.53524407000723" lon="9.266264205485527"><ele>556.0</ele><time>2026-04-04T14:44:03Z</time></trkpt><trkpt lat="39.5351615688704" lon="9.266478783123473"><ele>554.0</ele><time>2026-04-04T14:44:04Z</time></trkpt><trkpt lat="39.535081780058285" lon="9.266684942911775"><ele>553.3333333333333</ele><time>2026-04-04T14:44:05Z</time></trkpt><trkpt lat="39.53500737040349" lon="9.26688703554944"><ele>552.6666666666666</ele><time>2026-04-04T14:44:06Z</time></trkpt><trkpt lat="39.534936214249726" lon="9.267081005783174"><ele>552.0</ele><time>2026-04-04T14:44:07Z</time></trkpt><trkpt lat="39.53486220952813" lon="9.267276684457917"><ele>551.0</ele><time>2026-04-04T14:44:08Z</time></trkpt><trkpt lat="39.53479000189667" lon="9.267474626632872"><ele>550.0</ele><time>2026-04-04T14:44:09Z</time></trkpt><trkpt lat="39.534718682156644" lon="9.2676727683168"><ele>549.0</ele><time>2026-04-04T14:44:10Z</time></trkpt><trkpt lat="39.53463997162741" lon="9.267885652985361"><ele>549.6666666666666</ele><time>2026-04-04T14:44:11Z</time></trkpt><trkpt lat="39.5345566663949" lon="9.268111713334164"><ele>550.3333333333333</ele><time>2026-04-04T14:44:12Z</time></trkpt><trkpt lat="39.53447251682793" lon="9.26834305001261"><ele>551.0</ele><time>2026-04-04T14:44:13Z</time></trkpt><trkpt lat="39.53439095198656" lon="9.268559059677184"><ele>553.3333333333333</ele><time>2026-04-04T14:44:14Z</time></trkpt><trkpt lat="39.534312702275464" lon="9.268753489477353"><ele>555.6666666666666</ele><time>2026-04-04T14:44:15Z</time></trkpt><trkpt lat="39.534242133371265" lon="9.26892952935118"><ele>558.0</ele><time>2026-04-04T14:44:16Z</time></trkpt><trkpt lat="39.53418882189259" lon="9.269092863547426"><ele>559.3333333333334</ele><time>2026-04-04T14:44:17Z</time></trkpt><trkpt lat="39.53415358726678" lon="9.26927419614324"><ele>560.6666666666667</ele><time>2026-04-04T14:44:18Z</time></trkpt><trkpt lat="39.5341333107127" lon="9.269496876043657"><ele>562.0</ele><time>2026-04-04T14:44:19Z</time></trkpt><trkpt lat="39.53413604901098" lon="9.269753777105013"><ele>564.0</ele><time>2026-04-04T14:44:20Z</time></trkpt><trkpt lat="39.5341597130265" lon="9.270039965679358"><ele>566.0</ele><time>2026-04-04T14:44:21Z</time></trkpt><trkpt lat="39.53415786684746" lon="9.270343008607824"><ele>566.5</ele><time>2026-04-04T14:44:22Z</time></trkpt><trkpt lat="39.534160371587575" lon="9.270659986499224"><ele>567.0</ele><time>2026-04-04T14:44:23Z</time></trkpt><trkpt lat="39.534170197694834" lon="9.270993074981494"><ele>567.0</ele><time>2026-04-04T14:44:24Z</time></trkpt><trkpt lat="39.534181672903394" lon="9.271325406959843"><ele>567.0</ele><time>2026-04-04T14:44:25Z</time></trkpt><trkpt lat="39.53419103426007" lon="9.27164059018385"><ele>568.3333333333334</ele><time>2026-04-04T14:44:26Z</time></trkpt><trkpt lat="39.534197533894506" lon="9.271933953655669"><ele>569.6666666666667</ele><time>2026-04-04T14:44:27Z</time></trkpt><trkpt lat="39.53420038468456" lon="9.272213166035119"><ele>571.0</ele><time>2026-04-04T14:44:28Z</time></trkpt><trkpt lat="39.534193915705266" lon="9.272476692062986"><ele>572.3333333333334</ele><time>2026-04-04T14:44:29Z</time></trkpt><trkpt lat="39.53415811841216" lon="9.272731624930461"><ele>573.6666666666666</ele><time>2026-04-04T14:44:30Z</time></trkpt><trkpt lat="39.53406749856321" lon="9.27298167849045"><ele>575.0</ele><time>2026-04-04T14:44:31Z</time></trkpt><trkpt lat="39.53398385397023" lon="9.27325719099981"><ele>578.5</ele><time>2026-04-04T14:44:32Z</time></trkpt><trkpt lat="39.533890176330665" lon="9.273524604031499"><ele>582.0</ele><time>2026-04-04T14:44:33Z</time></trkpt><trkpt lat="39.53380361194248" lon="9.273794120305176"><ele>587.0</ele><time>2026-04-04T14:44:34Z</time></trkpt><trkpt lat="39.53371374897075" lon="9.274076979347054"><ele>592.0</ele><time>2026-04-04T14:44:35Z</time></trkpt><trkpt lat="39.53361794185135" lon="9.274371953084334"><ele>592.0</ele><time>2026-04-04T14:44:36Z</time></trkpt><trkpt lat="39.53351834541743" lon="9.274677049140713"><ele>592.0</ele><time>2026-04-04T14:44:37Z</time></trkpt><trkpt lat="39.53341467574813" lon="9.27499389917515"><ele>592.0</ele><time>2026-04-04T14:44:38Z</time></trkpt><trkpt lat="39.533310181765174" lon="9.275318616895676"><ele>592.0</ele><time>2026-04-04T14:44:39Z</time></trkpt><trkpt lat="39.53320218565873" lon="9.27565484712003"><ele>592.5</ele><time>2026-04-04T14:44:40Z</time></trkpt><trkpt lat="39.533094066349584" lon="9.275984369141542"><ele>593.0</ele><time>2026-04-04T14:44:41Z</time></trkpt><trkpt lat="39.53298373114224" lon="9.276317628541392"><ele>595.0</ele><time>2026-04-04T14:44:42Z</time></trkpt><trkpt lat="39.53287128289759" lon="9.276658305918605"><ele>597.0</ele><time>2026-04-04T14:44:43Z</time></trkpt><trkpt lat="39.532757496632" lon="9.277011081816607"><ele>597.0</ele><time>2026-04-04T14:44:44Z</time></trkpt><trkpt lat="39.53264116038355" lon="9.27737862622063"><ele>597.0</ele><time>2026-04-04T14:44:45Z</time></trkpt><trkpt lat="39.53251784162853" lon="9.277757601514"><ele>593.5</ele><time>2026-04-04T14:44:46Z</time></trkpt><trkpt lat="39.53238987210736" lon="9.278138854367658"><ele>590.0</ele><time>2026-04-04T14:44:47Z</time></trkpt><trkpt lat="39.53226202485482" lon="9.278521043466391"><ele>603.0</ele><time>2026-04-04T14:44:48Z</time></trkpt><trkpt lat="39.532026432281334" lon="9.279238620062182"><ele>603.0</ele><time>2026-04-04T14:44:50Z</time></trkpt><trkpt lat="39.53191654400884" lon="9.279574714984566"><ele>603.0</ele><time>2026-04-04T14:44:51Z</time></trkpt><trkpt lat="39.531806261621206" lon="9.279911482791478"><ele>602.0</ele><time>2026-04-04T14:44:52Z</time></trkpt><trkpt lat="39.53170008963586" lon="9.280236880553453"><ele>601.0</ele><time>2026-04-04T14:44:53Z</time></trkpt><trkpt lat="39.531598112306064" lon="9.280551511999196"><ele>601.0</ele><time>2026-04-04T14:44:54Z</time></trkpt><trkpt lat="39.53150025922838" lon="9.280856721968066"><ele>601.0</ele><time>2026-04-04T14:44:55Z</time></trkpt><trkpt lat="39.53140101289477" lon="9.281158110678916"><ele>600.0</ele><time>2026-04-04T14:44:56Z</time></trkpt><trkpt lat="39.5313023877253" lon="9.281457065034823"><ele>599.0</ele><time>2026-04-04T14:44:57Z</time></trkpt><trkpt lat="39.531206111438074" lon="9.281751692018375"><ele>604.0</ele><time>2026-04-04T14:44:58Z</time></trkpt><trkpt lat="39.531111074459" lon="9.282046729850098"><ele>609.0</ele><time>2026-04-04T14:44:59Z</time></trkpt><trkpt lat="39.531015808559516" lon="9.282342153954591"><ele>609.0</ele><time>2026-04-04T14:45:00Z</time></trkpt><trkpt lat="39.53092050231288" lon="9.282638124585308"><ele>609.0</ele><time>2026-04-04T14:45:01Z</time></trkpt><trkpt lat="39.5308243127759" lon="9.282934484908294"><ele>608.5</ele><time>2026-04-04T14:45:02Z</time></trkpt><trkpt lat="39.53072767626428" lon="9.28322796122219"><ele>608.0</ele><time>2026-04-04T14:45:03Z</time></trkpt><trkpt lat="39.53063001096992" lon="9.283523253029697"><ele>608.0</ele><time>2026-04-04T14:45:04Z</time></trkpt><trkpt lat="39.530531839771115" lon="9.28382376593887"><ele>608.0</ele><time>2026-04-04T14:45:05Z</time></trkpt><trkpt lat="39.530432798357126" lon="9.284126470176927"><ele>611.5</ele><time>2026-04-04T14:45:06Z</time></trkpt><trkpt lat="39.530335877919725" lon="9.284424393065159"><ele>615.0</ele><time>2026-04-04T14:45:07Z</time></trkpt><trkpt lat="39.53024228997511" lon="9.28471114525598"><ele>613.5</ele><time>2026-04-04T14:45:08Z</time></trkpt><trkpt lat="39.53015202130341" lon="9.28498943838752"><ele>612.0</ele><time>2026-04-04T14:45:09Z</time></trkpt><trkpt lat="39.53005434522658" lon="9.28525368891695"><ele>612.0</ele><time>2026-04-04T14:45:10Z</time></trkpt><trkpt lat="39.529937940251656" lon="9.28549174731629"><ele>612.0</ele><time>2026-04-04T14:45:11Z</time></trkpt><trkpt lat="39.529792721804064" lon="9.285685309706784"><ele>612.0</ele><time>2026-04-04T14:45:12Z</time></trkpt><trkpt lat="39.529621360413124" lon="9.28583109551817"><ele>613.6666666666666</ele><time>2026-04-04T14:45:13Z</time></trkpt><trkpt lat="39.52943449960787" lon="9.285939963486939"><ele>615.3333333333333</ele><time>2026-04-04T14:45:14Z</time></trkpt><trkpt lat="39.529243944383296" lon="9.285997557484581"><ele>617.0</ele><time>2026-04-04T14:45:15Z</time></trkpt><trkpt lat="39.52905472302827" lon="9.285997990950058"><ele>617.0</ele><time>2026-04-04T14:45:16Z</time></trkpt><trkpt lat="39.528860417676206" lon="9.285947049615508"><ele>617.0</ele><time>2026-04-04T14:45:17Z</time></trkpt><trkpt lat="39.5286696916896" lon="9.285847087768667"><ele>617.0</ele><time>2026-04-04T14:45:18Z</time></trkpt><trkpt lat="39.5284800011523" lon="9.285709614017279"><ele>622.5</ele><time>2026-04-04T14:45:19Z</time></trkpt><trkpt lat="39.52827949448451" lon="9.285567235538302"><ele>628.0</ele><time>2026-04-04T14:45:20Z</time></trkpt><trkpt lat="39.52806882252277" lon="9.285427869510197"><ele>628.5</ele><time>2026-04-04T14:45:21Z</time></trkpt><trkpt lat="39.52785935952649" lon="9.285288381469604"><ele>629.0</ele><time>2026-04-04T14:45:22Z</time></trkpt><trkpt lat="39.527645390946944" lon="9.28514400063358"><ele>629.0</ele><time>2026-04-04T14:45:23Z</time></trkpt><trkpt lat="39.527430080903144" lon="9.284999010496795"><ele>629.0</ele><time>2026-04-04T14:45:24Z</time></trkpt><trkpt lat="39.5272144441094" lon="9.284855459884074"><ele>633.5</ele><time>2026-04-04T14:45:25Z</time></trkpt><trkpt lat="39.52699880002232" lon="9.284712891243155"><ele>638.0</ele><time>2026-04-04T14:45:26Z</time></trkpt><trkpt lat="39.52678985165187" lon="9.284577697029746"><ele>638.0</ele><time>2026-04-04T14:45:27Z</time></trkpt><trkpt lat="39.526592249174506" lon="9.284448234154189"><ele>638.0</ele><time>2026-04-04T14:45:28Z</time></trkpt><trkpt lat="39.52640775324887" lon="9.28431810699074"><ele>638.0</ele><time>2026-04-04T14:45:29Z</time></trkpt><trkpt lat="39.52624034380519" lon="9.284172363176468"><ele>638.3333333333333</ele><time>2026-04-04T14:45:30Z</time></trkpt><trkpt lat="39.52609586681286" lon="9.283998479537"><ele>638.6666666666666</ele><time>2026-04-04T14:45:31Z</time></trkpt><trkpt lat="39.525962229837994" lon="9.283789026507419"><ele>639.0</ele><time>2026-04-04T14:45:32Z</time></trkpt><trkpt lat="39.52583251638335" lon="9.28355484719744"><ele>639.0</ele><time>2026-04-04T14:45:33Z</time></trkpt><trkpt lat="39.52569086110805" lon="9.283324260635979"><ele>639.0</ele><time>2026-04-04T14:45:34Z</time></trkpt><trkpt lat="39.52555251557868" lon="9.283099376567943"><ele>639.0</ele><time>2026-04-04T14:45:35Z</time></trkpt><trkpt lat="39.52542001246436" lon="9.282886727409274"><ele>635.0</ele><time>2026-04-04T14:45:36Z</time></trkpt><trkpt lat="39.52529326304537" lon="9.282681951983392"><ele>631.0</ele><time>2026-04-04T14:45:37Z</time></trkpt><trkpt lat="39.52517845368996" lon="9.282479831388304"><ele>627.0</ele><time>2026-04-04T14:45:38Z</time></trkpt><trkpt lat="39.52507149579454" lon="9.282267802918037"><ele>627.6666666666666</ele><time>2026-04-04T14:45:39Z</time></trkpt><trkpt lat="39.524969608685126" lon="9.282030393643753"><ele>628.3333333333333</ele><time>2026-04-04T14:45:40Z</time></trkpt><trkpt lat="39.52488876945873" lon="9.281761241389264"><ele>629.0</ele><time>2026-04-04T14:45:41Z</time></trkpt><trkpt lat="39.52482092888919" lon="9.281452666516055"><ele>630.5</ele><time>2026-04-04T14:45:42Z</time></trkpt><trkpt lat="39.52474112860914" lon="9.281147113830963"><ele>632.0</ele><time>2026-04-04T14:45:43Z</time></trkpt><trkpt lat="39.52466812476126" lon="9.280858480698146"><ele>634.0</ele><time>2026-04-04T14:45:44Z</time></trkpt><trkpt lat="39.524601693204914" lon="9.28058389423819"><ele>636.0</ele><time>2026-04-04T14:45:45Z</time></trkpt><trkpt lat="39.52453518980571" lon="9.280316781017882"><ele>638.0</ele><time>2026-04-04T14:45:46Z</time></trkpt><trkpt lat="39.52447201373272" lon="9.28005997919913"><ele>636.6666666666666</ele><time>2026-04-04T14:45:47Z</time></trkpt><trkpt lat="39.52441511606636" lon="9.2798099643122"><ele>635.3333333333334</ele><time>2026-04-04T14:45:48Z</time></trkpt><trkpt lat="39.524365021513034" lon="9.279575376765775"><ele>634.0</ele><time>2026-04-04T14:45:49Z</time></trkpt><trkpt lat="39.52430825672655" lon="9.279362242967283"><ele>634.0</ele><time>2026-04-04T14:45:50Z</time></trkpt><trkpt lat="39.52422134201376" lon="9.279156977145739"><ele>634.0</ele><time>2026-04-04T14:45:51Z</time></trkpt><trkpt lat="39.52411322425551" lon="9.278987229346797"><ele>634.0</ele><time>2026-04-04T14:45:52Z</time></trkpt><trkpt lat="39.523988801850294" lon="9.278857932298592"><ele>634.5</ele><time>2026-04-04T14:45:53Z</time></trkpt><trkpt lat="39.52385253768797" lon="9.278781745430276"><ele>635.0</ele><time>2026-04-04T14:45:54Z</time></trkpt><trkpt lat="39.5237188245496" lon="9.27875555069443"><ele>635.5</ele><time>2026-04-04T14:45:55Z</time></trkpt><trkpt lat="39.52357772930815" lon="9.27877751167275"><ele>636.0</ele><time>2026-04-04T14:45:56Z</time></trkpt><trkpt lat="39.523431367398636" lon="9.278858089141762"><ele>634.3333333333334</ele><time>2026-04-04T14:45:57Z</time></trkpt><trkpt lat="39.52330448209627" lon="9.27895779712423"><ele>632.6666666666667</ele><time>2026-04-04T14:45:58Z</time></trkpt><trkpt lat="39.52320049835626" lon="9.279083927289015"><ele>631.0</ele><time>2026-04-04T14:45:59Z</time></trkpt><trkpt lat="39.52312063748031" lon="9.279262822027782"><ele>631.0</ele><time>2026-04-04T14:46:00Z</time></trkpt><trkpt lat="39.52308423565238" lon="9.279481953571192"><ele>631.0</ele><time>2026-04-04T14:46:01Z</time></trkpt><trkpt lat="39.523058282693796" lon="9.279738334441227"><ele>631.0</ele><time>2026-04-04T14:46:02Z</time></trkpt><trkpt lat="39.523029372087066" lon="9.280019403849149"><ele>632.3333333333334</ele><time>2026-04-04T14:46:03Z</time></trkpt><trkpt lat="39.52298535808519" lon="9.280305936687746"><ele>633.6666666666666</ele><time>2026-04-04T14:46:04Z</time></trkpt><trkpt lat="39.52293760124" lon="9.280586383546979"><ele>635.0</ele><time>2026-04-04T14:46:05Z</time></trkpt><trkpt lat="39.52289702630183" lon="9.28085492661114"><ele>635.0</ele><time>2026-04-04T14:46:06Z</time></trkpt><trkpt lat="39.52286034667681" lon="9.281117007407666"><ele>635.0</ele><time>2026-04-04T14:46:07Z</time></trkpt><trkpt lat="39.522821048269705" lon="9.281372018113908"><ele>635.0</ele><time>2026-04-04T14:46:08Z</time></trkpt><trkpt lat="39.52277936101006" lon="9.28161923590962"><ele>631.3333333333333</ele><time>2026-04-04T14:46:09Z</time></trkpt><trkpt lat="39.52273865338453" lon="9.281871798642008"><ele>627.6666666666666</ele><time>2026-04-04T14:46:10Z</time></trkpt><trkpt lat="39.52269159950405" lon="9.2820971680772"><ele>624.0</ele><time>2026-04-04T14:46:11Z</time></trkpt><trkpt lat="39.52261712265088" lon="9.282286755013292"><ele>619.6666666666666</ele><time>2026-04-04T14:46:12Z</time></trkpt><trkpt lat="39.522512165080286" lon="9.282449034672686"><ele>615.3333333333333</ele><time>2026-04-04T14:46:13Z</time></trkpt><trkpt lat="39.522377053980854" lon="9.282554094131392"><ele>611.0</ele><time>2026-04-04T14:46:14Z</time></trkpt><trkpt lat="39.52222329807632" lon="9.282601432736328"><ele>610.0</ele><time>2026-04-04T14:46:15Z</time></trkpt><trkpt lat="39.522058683028064" lon="9.282607338123563"><ele>609.0</ele><time>2026-04-04T14:46:16Z</time></trkpt><trkpt lat="39.5218816060607" lon="9.28257929513807"><ele>608.0</ele><time>2026-04-04T14:46:17Z</time></trkpt><trkpt lat="39.52169273594754" lon="9.282537225995693"><ele>608.0</ele><time>2026-04-04T14:46:18Z</time></trkpt><trkpt lat="39.521490240649264" lon="9.28249083374047"><ele>608.0</ele><time>2026-04-04T14:46:19Z</time></trkpt><trkpt lat="39.52128236944686" lon="9.282439856370223"><ele>608.0</ele><time>2026-04-04T14:46:20Z</time></trkpt><trkpt lat="39.52107251344453" lon="9.282381705281496"><ele>608.6666666666666</ele><time>2026-04-04T14:46:21Z</time></trkpt><trkpt lat="39.52087105529259" lon="9.282310867212233"><ele>609.3333333333334</ele><time>2026-04-04T14:46:22Z</time></trkpt><trkpt lat="39.52066415964871" lon="9.282227915907415"><ele>610.0</ele><time>2026-04-04T14:46:23Z</time></trkpt><trkpt lat="39.520452179513306" lon="9.282142603396643"><ele>606.0</ele><time>2026-04-04T14:46:24Z</time></trkpt><trkpt lat="39.52025320823183" lon="9.282061371110732"><ele>602.0</ele><time>2026-04-04T14:46:25Z</time></trkpt><trkpt lat="39.52003198127083" lon="9.281968579293286"><ele>598.0</ele><time>2026-04-04T14:46:26Z</time></trkpt><trkpt lat="39.51980682779717" lon="9.281877842217773"><ele>598.0</ele><time>2026-04-04T14:46:27Z</time></trkpt><trkpt lat="39.5195807920579" lon="9.281785788179354"><ele>598.0</ele><time>2026-04-04T14:46:28Z</time></trkpt><trkpt lat="39.51935800588276" lon="9.281695802684592"><ele>596.3333333333334</ele><time>2026-04-04T14:46:29Z</time></trkpt><trkpt lat="39.51914547420978" lon="9.281612142548536"><ele>594.6666666666666</ele><time>2026-04-04T14:46:30Z</time></trkpt><trkpt lat="39.51894460677354" lon="9.28153333030889"><ele>593.0</ele><time>2026-04-04T14:46:31Z</time></trkpt><trkpt lat="39.518750204118646" lon="9.281452534275633"><ele>594.3333333333333</ele><time>2026-04-04T14:46:32Z</time></trkpt><trkpt lat="39.518561481045" lon="9.281371968567704"><ele>595.6666666666666</ele><time>2026-04-04T14:46:33Z</time></trkpt><trkpt lat="39.518383348278086" lon="9.28129288959946"><ele>597.0</ele><time>2026-04-04T14:46:34Z</time></trkpt><trkpt lat="39.5182178419419" lon="9.281228382359014"><ele>597.0</ele><time>2026-04-04T14:46:35Z</time></trkpt><trkpt lat="39.51807077548674" lon="9.281196902631581"><ele>597.0</ele><time>2026-04-04T14:46:36Z</time></trkpt><trkpt lat="39.51793860171774" lon="9.28121465863646"><ele>597.0</ele><time>2026-04-04T14:46:37Z</time></trkpt><trkpt lat="39.517815132882546" lon="9.281297788658204"><ele>597.0</ele><time>2026-04-04T14:46:38Z</time></trkpt><trkpt lat="39.51769889516597" lon="9.281450590761086"><ele>592.0</ele><time>2026-04-04T14:46:39Z</time></trkpt><trkpt lat="39.517589544958085" lon="9.28163626773597"><ele>587.0</ele><time>2026-04-04T14:46:40Z</time></trkpt><trkpt lat="39.517507375912906" lon="9.281839126053605"><ele>582.0</ele><time>2026-04-04T14:46:41Z</time></trkpt><trkpt lat="39.51746738201408" lon="9.282064573229647"><ele>579.3333333333334</ele><time>2026-04-04T14:46:42Z</time></trkpt><trkpt lat="39.51746908250845" lon="9.282302854306959"><ele>576.6666666666667</ele><time>2026-04-04T14:46:43Z</time></trkpt><trkpt lat="39.51749982298996" lon="9.282548236435638"><ele>574.0</ele><time>2026-04-04T14:46:44Z</time></trkpt><trkpt lat="39.51752143441409" lon="9.282806258733437"><ele>574.0</ele><time>2026-04-04T14:46:45Z</time></trkpt><trkpt lat="39.51753124160471" lon="9.283084071963527"><ele>574.0</ele><time>2026-04-04T14:46:46Z</time></trkpt><trkpt lat="39.51754835450109" lon="9.28338360926468"><ele>574.0</ele><time>2026-04-04T14:46:47Z</time></trkpt><trkpt lat="39.51754839647531" lon="9.283676438447168"><ele>578.0</ele><time>2026-04-04T14:46:48Z</time></trkpt><trkpt lat="39.51754726123107" lon="9.28397974083424"><ele>582.0</ele><time>2026-04-04T14:46:49Z</time></trkpt><trkpt lat="39.517548753887375" lon="9.284284356897993"><ele>582.0</ele><time>2026-04-04T14:46:50Z</time></trkpt><trkpt lat="39.517554310509944" lon="9.284574685356016"><ele>582.0</ele><time>2026-04-04T14:46:51Z</time></trkpt><trkpt lat="39.51756070939503" lon="9.284842493402142"><ele>582.0</ele><time>2026-04-04T14:46:52Z</time></trkpt><trkpt lat="39.51757171714941" lon="9.285084182280283"><ele>584.3333333333334</ele><time>2026-04-04T14:46:53Z</time></trkpt><trkpt lat="39.51761077130027" lon="9.285299057713225"><ele>586.6666666666667</ele><time>2026-04-04T14:46:54Z</time></trkpt><trkpt lat="39.51768950080437" lon="9.285499476153507"><ele>589.0</ele><time>2026-04-04T14:46:55Z</time></trkpt><trkpt lat="39.517829114961295" lon="9.285680398532037"><ele>584.3333333333334</ele><time>2026-04-04T14:46:56Z</time></trkpt><trkpt lat="39.5179874060248" lon="9.285878097392308"><ele>579.6666666666666</ele><time>2026-04-04T14:46:57Z</time></trkpt><trkpt lat="39.51813844973277" lon="9.286092573500484"><ele>575.0</ele><time>2026-04-04T14:46:58Z</time></trkpt><trkpt lat="39.518291443480145" lon="9.286322537059775"><ele>586.5</ele><time>2026-04-04T14:46:59Z</time></trkpt><trkpt lat="39.51844364342868" lon="9.286556468215252"><ele>598.0</ele><time>2026-04-04T14:47:00Z</time></trkpt><trkpt lat="39.51859943836563" lon="9.286789420019339"><ele>596.3333333333334</ele><time>2026-04-04T14:47:01Z</time></trkpt><trkpt lat="39.51875082320891" lon="9.287014228010356"><ele>594.6666666666666</ele><time>2026-04-04T14:47:02Z</time></trkpt><trkpt lat="39.51887811028733" lon="9.287218660897757"><ele>593.0</ele><time>2026-04-04T14:47:03Z</time></trkpt><trkpt lat="39.51896593938015" lon="9.287421235109022"><ele>593.0</ele><time>2026-04-04T14:47:04Z</time></trkpt><trkpt lat="39.51897420597692" lon="9.287629199253221"><ele>593.0</ele><time>2026-04-04T14:47:05Z</time></trkpt><trkpt lat="39.51895781937228" lon="9.287826045846883"><ele>593.0</ele><time>2026-04-04T14:47:06Z</time></trkpt><trkpt lat="39.51894409645362" lon="9.288039363823582"><ele>592.6666666666666</ele><time>2026-04-04T14:47:07Z</time></trkpt><trkpt lat="39.518913877160564" lon="9.288256234222654"><ele>592.3333333333334</ele><time>2026-04-04T14:47:08Z</time></trkpt><trkpt lat="39.51889575247641" lon="9.288474785419893"><ele>592.0</ele><time>2026-04-04T14:47:09Z</time></trkpt><trkpt lat="39.51888124311796" lon="9.28869150817464"><ele>592.0</ele><time>2026-04-04T14:47:10Z</time></trkpt><trkpt lat="39.51886415499374" lon="9.28890077731804"><ele>592.0</ele><time>2026-04-04T14:47:11Z</time></trkpt><trkpt lat="39.51884273894692" lon="9.289095992220984"><ele>592.0</ele><time>2026-04-04T14:47:12Z</time></trkpt><trkpt lat="39.518808474805944" lon="9.289277284996393"><ele>590.5</ele><time>2026-04-04T14:47:13Z</time></trkpt><trkpt lat="39.518749127558245" lon="9.289430676657743"><ele>589.0</ele><time>2026-04-04T14:47:14Z</time></trkpt><trkpt lat="39.51864518068568" lon="9.28953404266874"><ele>587.5</ele><time>2026-04-04T14:47:15Z</time></trkpt><trkpt lat="39.5185366224996" lon="9.289611484636064"><ele>586.0</ele><time>2026-04-04T14:47:16Z</time></trkpt><trkpt lat="39.518429049839504" lon="9.28968254672085"><ele>586.8</ele><time>2026-04-04T14:47:17Z</time></trkpt><trkpt lat="39.51831982915554" lon="9.28972700108648"><ele>587.6</ele><time>2026-04-04T14:47:18Z</time></trkpt><trkpt lat="39.518218833541674" lon="9.289771480574098"><ele>588.4</ele><time>2026-04-04T14:47:19Z</time></trkpt><trkpt lat="39.51812849036077" lon="9.289833196095971"><ele>589.2</ele><time>2026-04-04T14:47:20Z</time></trkpt><trkpt lat="39.51805771728394" lon="9.289918965122963"><ele>590.0</ele><time>2026-04-04T14:47:21Z</time></trkpt><trkpt lat="39.5180087588015" lon="9.290025060693116"><ele>590.0</ele><time>2026-04-04T14:47:22Z</time></trkpt><trkpt lat="39.51798677531959" lon="9.290146116067591"><ele>590.0</ele><time>2026-04-04T14:47:23Z</time></trkpt><trkpt lat="39.51799522545015" lon="9.290269269087684"><ele>590.0</ele><time>2026-04-04T14:47:24Z</time></trkpt><trkpt lat="39.518024712542484" lon="9.290382445339272"><ele>590.0</ele><time>2026-04-04T14:47:25Z</time></trkpt><trkpt lat="39.51805370644506" lon="9.29047542338521"><ele>590.0</ele><time>2026-04-04T14:47:26Z</time></trkpt><trkpt lat="39.518122187764305" lon="9.29062146840166"><ele>590.4</ele><time>2026-04-04T14:47:28Z</time></trkpt><trkpt lat="39.518177270674784" lon="9.290708737350696"><ele>590.8</ele><time>2026-04-04T14:47:29Z</time></trkpt><trkpt lat="39.51824369656076" lon="9.290810046839372"><ele>591.2</ele><time>2026-04-04T14:47:30Z</time></trkpt><trkpt lat="39.518315138933836" lon="9.290924887778534"><ele>591.6</ele><time>2026-04-04T14:47:31Z</time></trkpt><trkpt lat="39.51838529020422" lon="9.291042811763093"><ele>592.0</ele><time>2026-04-04T14:47:32Z</time></trkpt><trkpt lat="39.5184472606327" lon="9.291156419778524"><ele>592.0</ele><time>2026-04-04T14:47:33Z</time></trkpt><trkpt lat="39.51850566652342" lon="9.291275882749057"><ele>592.0</ele><time>2026-04-04T14:47:34Z</time></trkpt><trkpt lat="39.518569997273474" lon="9.2914051333386"><ele>592.0</ele><time>2026-04-04T14:47:35Z</time></trkpt><trkpt lat="39.51865218511268" lon="9.29152944692604"><ele>592.0</ele><time>2026-04-04T14:47:36Z</time></trkpt><trkpt lat="39.518728070288425" lon="9.291659976696165"><ele>590.8000000000001</ele><time>2026-04-04T14:47:37Z</time></trkpt><trkpt lat="39.51879772840178" lon="9.291782349338174"><ele>589.6</ele><time>2026-04-04T14:47:38Z</time></trkpt><trkpt lat="39.518864148277196" lon="9.291901211466339"><ele>588.4000000000001</ele><time>2026-04-04T14:47:39Z</time></trkpt><trkpt lat="39.5189249180515" lon="9.292015353296435"><ele>587.2</ele><time>2026-04-04T14:47:40Z</time></trkpt><trkpt lat="39.5189839753073" lon="9.292132452335919"><ele>586.0</ele><time>2026-04-04T14:47:41Z</time></trkpt><trkpt lat="39.51903501355202" lon="9.292255563588435"><ele>585.8</ele><time>2026-04-04T14:47:42Z</time></trkpt><trkpt lat="39.51908170744199" lon="9.2923825862153"><ele>585.6</ele><time>2026-04-04T14:47:43Z</time></trkpt><trkpt lat="39.5191137121874" lon="9.292517971096117"><ele>585.4</ele><time>2026-04-04T14:47:44Z</time></trkpt><trkpt lat="39.51912113187508" lon="9.292663018774979"><ele>585.2</ele><time>2026-04-04T14:47:45Z</time></trkpt><trkpt lat="39.51912075241282" lon="9.292812782102393"><ele>585.0</ele><time>2026-04-04T14:47:46Z</time></trkpt><trkpt lat="39.51912156827308" lon="9.292957645850112"><ele>585.0</ele><time>2026-04-04T14:47:47Z</time></trkpt><trkpt lat="39.51912579287318" lon="9.29308372743746"><ele>585.0</ele><time>2026-04-04T14:47:48Z</time></trkpt><trkpt lat="39.51913341930958" lon="9.293181493020496"><ele>585.0</ele><time>2026-04-04T14:47:49Z</time></trkpt><trkpt lat="39.519151570718385" lon="9.293310613919946"><ele>585.0</ele><time>2026-04-04T14:47:51Z</time></trkpt><trkpt lat="39.51914369555482" lon="9.29346081673191"><ele>585.0</ele><time>2026-04-04T14:47:53Z</time></trkpt><trkpt lat="39.5191476871209" lon="9.293550942947682"><ele>583.8</ele><time>2026-04-04T14:47:54Z</time></trkpt><trkpt lat="39.5191585213538" lon="9.29365831162585"><ele>582.6</ele><time>2026-04-04T14:47:55Z</time></trkpt><trkpt lat="39.519150394804846" lon="9.293781052551411"><ele>581.4</ele><time>2026-04-04T14:47:56Z</time></trkpt><trkpt lat="39.51915117065891" lon="9.293914751918557"><ele>580.2</ele><time>2026-04-04T14:47:57Z</time></trkpt><trkpt lat="39.519161297805866" lon="9.294043342603269"><ele>579.0</ele><time>2026-04-04T14:47:58Z</time></trkpt><trkpt lat="39.51917437227696" lon="9.294168692666972"><ele>578.8</ele><time>2026-04-04T14:47:59Z</time></trkpt><trkpt lat="39.51918088267337" lon="9.294297626210076"><ele>578.5999999999999</ele><time>2026-04-04T14:48:00Z</time></trkpt><trkpt lat="39.51918752941881" lon="9.294435053680614"><ele>578.4</ele><time>2026-04-04T14:48:01Z</time></trkpt><trkpt lat="39.519192390122676" lon="9.294578846975433"><ele>578.1999999999999</ele><time>2026-04-04T14:48:02Z</time></trkpt><trkpt lat="39.519203202418105" lon="9.294724752758171"><ele>578.0</ele><time>2026-04-04T14:48:03Z</time></trkpt><trkpt lat="39.51920549507761" lon="9.294864279978773"><ele>578.0</ele><time>2026-04-04T14:48:04Z</time></trkpt><trkpt lat="39.519200944843675" lon="9.29499313214809"><ele>578.0</ele><time>2026-04-04T14:48:05Z</time></trkpt><trkpt lat="39.51919469474912" lon="9.29509626547624"><ele>578.0</ele><time>2026-04-04T14:48:06Z</time></trkpt><trkpt lat="39.51919358252065" lon="9.295180120494795"><ele>578.0</ele><time>2026-04-04T14:48:07Z</time></trkpt><trkpt lat="39.51922649349102" lon="9.295319888805263"><ele>578.0</ele><time>2026-04-04T14:48:09Z</time></trkpt><trkpt lat="39.51928107611094" lon="9.295409227840834"><ele>578.0</ele><time>2026-04-04T14:48:10Z</time></trkpt><trkpt lat="39.519361481926374" lon="9.295495990743879"><ele>577.25</ele><time>2026-04-04T14:48:11Z</time></trkpt><trkpt lat="39.51945226108983" lon="9.295592258607229"><ele>576.5</ele><time>2026-04-04T14:48:12Z</time></trkpt><trkpt lat="39.519550480343895" lon="9.29569241689454"><ele>575.75</ele><time>2026-04-04T14:48:13Z</time></trkpt><trkpt lat="39.519660197832344" lon="9.295796601996356"><ele>575.0</ele><time>2026-04-04T14:48:14Z</time></trkpt><trkpt lat="39.51977295122092" lon="9.295901720375609"><ele>574.25</ele><time>2026-04-04T14:48:15Z</time></trkpt><trkpt lat="39.51988952591899" lon="9.296005730521713"><ele>573.5</ele><time>2026-04-04T14:48:16Z</time></trkpt><trkpt lat="39.52000287495306" lon="9.296105237287577"><ele>572.75</ele><time>2026-04-04T14:48:17Z</time></trkpt><trkpt lat="39.52012154952667" lon="9.29619345086394"><ele>572.0</ele><time>2026-04-04T14:48:18Z</time></trkpt><trkpt lat="39.520239044762526" lon="9.296262056213822"><ele>572.0</ele><time>2026-04-04T14:48:19Z</time></trkpt><trkpt lat="39.52035862552189" lon="9.296315251353542"><ele>572.0</ele><time>2026-04-04T14:48:20Z</time></trkpt><trkpt lat="39.520477846451016" lon="9.296361987921692"><ele>572.0</ele><time>2026-04-04T14:48:21Z</time></trkpt><trkpt lat="39.52060427700638" lon="9.296407453152565"><ele>572.0</ele><time>2026-04-04T14:48:22Z</time></trkpt><trkpt lat="39.5207296154116" lon="9.296449665073615"><ele>570.0</ele><time>2026-04-04T14:48:23Z</time></trkpt><trkpt lat="39.520853759752356" lon="9.296497354558541"><ele>568.0</ele><time>2026-04-04T14:48:24Z</time></trkpt><trkpt lat="39.520977552089164" lon="9.296559214489413"><ele>566.0</ele><time>2026-04-04T14:48:25Z</time></trkpt><trkpt lat="39.52109623179899" lon="9.2966436782962"><ele>564.0</ele><time>2026-04-04T14:48:26Z</time></trkpt><trkpt lat="39.5212183890108" lon="9.296739129291987"><ele>560.6666666666666</ele><time>2026-04-04T14:48:27Z</time></trkpt><trkpt lat="39.52134594451929" lon="9.29684154468323"><ele>557.3333333333333</ele><time>2026-04-04T14:48:28Z</time></trkpt><trkpt lat="39.52147554897687" lon="9.2969547698633"><ele>554.0</ele><time>2026-04-04T14:48:29Z</time></trkpt><trkpt lat="39.52160287529338" lon="9.297076671448888"><ele>554.0</ele><time>2026-04-04T14:48:30Z</time></trkpt><trkpt lat="39.521728217052974" lon="9.297194811014519"><ele>554.0</ele><time>2026-04-04T14:48:31Z</time></trkpt><trkpt lat="39.52185353368105" lon="9.297307870941085"><ele>554.0</ele><time>2026-04-04T14:48:32Z</time></trkpt><trkpt lat="39.5219758295049" lon="9.297427374793763"><ele>553.75</ele><time>2026-04-04T14:48:33Z</time></trkpt><trkpt lat="39.52208131411599" lon="9.29755856684817"><ele>553.5</ele><time>2026-04-04T14:48:34Z</time></trkpt><trkpt lat="39.522178336753335" lon="9.29770342113807"><ele>553.25</ele><time>2026-04-04T14:48:35Z</time></trkpt><trkpt lat="39.52228023893185" lon="9.297844598571892"><ele>553.0</ele><time>2026-04-04T14:48:36Z</time></trkpt><trkpt lat="39.52239204189436" lon="9.297963855322402"><ele>553.0</ele><time>2026-04-04T14:48:37Z</time></trkpt><trkpt lat="39.52250632608231" lon="9.298062497800203"><ele>553.0</ele><time>2026-04-04T14:48:38Z</time></trkpt><trkpt lat="39.5226107361641" lon="9.298153704071384"><ele>553.0</ele><time>2026-04-04T14:48:39Z</time></trkpt><trkpt lat="39.52269920231915" lon="9.298258353787594"><ele>553.0</ele><time>2026-04-04T14:48:40Z</time></trkpt><trkpt lat="39.52276531910332" lon="9.298384898086367"><ele>552.25</ele><time>2026-04-04T14:48:41Z</time></trkpt><trkpt lat="39.522809748634636" lon="9.298521849912579"><ele>551.5</ele><time>2026-04-04T14:48:42Z</time></trkpt><trkpt lat="39.522818178667066" lon="9.298666343864015"><ele>550.75</ele><time>2026-04-04T14:48:43Z</time></trkpt><trkpt lat="39.52279241452005" lon="9.298819030993196"><ele>550.0</ele><time>2026-04-04T14:48:44Z</time></trkpt><trkpt lat="39.52275070351168" lon="9.298973491274355"><ele>549.5</ele><time>2026-04-04T14:48:45Z</time></trkpt><trkpt lat="39.52271757204775" lon="9.299144768763393"><ele>549.0</ele><time>2026-04-04T14:48:46Z</time></trkpt><trkpt lat="39.52269286390483" lon="9.299325142241555"><ele>548.5</ele><time>2026-04-04T14:48:47Z</time></trkpt><trkpt lat="39.52265536297772" lon="9.299502374858266"><ele>548.0</ele><time>2026-04-04T14:48:48Z</time></trkpt><trkpt lat="39.52259381032876" lon="9.299669815648977"><ele>547.5</ele><time>2026-04-04T14:48:49Z</time></trkpt><trkpt lat="39.52251541710784" lon="9.299824056073517"><ele>547.0</ele><time>2026-04-04T14:48:50Z</time></trkpt><trkpt lat="39.522416080023206" lon="9.299957216229341"><ele>546.5</ele><time>2026-04-04T14:48:51Z</time></trkpt><trkpt lat="39.522299450471145" lon="9.300063807116823"><ele>546.0</ele><time>2026-04-04T14:48:52Z</time></trkpt><trkpt lat="39.52217633266295" lon="9.300171493754405"><ele>546.0</ele><time>2026-04-04T14:48:53Z</time></trkpt><trkpt lat="39.52206661484955" lon="9.300301718570019"><ele>546.0</ele><time>2026-04-04T14:48:54Z</time></trkpt><trkpt lat="39.52196781841991" lon="9.300444892332722"><ele>546.0</ele><time>2026-04-04T14:48:55Z</time></trkpt><trkpt lat="39.521863305042764" lon="9.30059277385426"><ele>542.6666666666666</ele><time>2026-04-04T14:48:56Z</time></trkpt><trkpt lat="39.52175208807404" lon="9.300739136340797"><ele>539.3333333333333</ele><time>2026-04-04T14:48:57Z</time></trkpt><trkpt lat="39.52164257634041" lon="9.300883740942144"><ele>536.0</ele><time>2026-04-04T14:48:58Z</time></trkpt><trkpt lat="39.52154327261725" lon="9.301027592716817"><ele>536.0</ele><time>2026-04-04T14:48:59Z</time></trkpt><trkpt lat="39.521469759234535" lon="9.301179964128261"><ele>536.0</ele><time>2026-04-04T14:49:00Z</time></trkpt><trkpt lat="39.52142170994078" lon="9.301351811550708"><ele>536.0</ele><time>2026-04-04T14:49:01Z</time></trkpt><trkpt lat="39.52138847937885" lon="9.301533155003177"><ele>536.0</ele><time>2026-04-04T14:49:02Z</time></trkpt><trkpt lat="39.52137188815063" lon="9.301717706061494"><ele>536.5</ele><time>2026-04-04T14:49:03Z</time></trkpt><trkpt lat="39.521395785474645" lon="9.301888012419939"><ele>537.0</ele><time>2026-04-04T14:49:04Z</time></trkpt><trkpt lat="39.5214463597107" lon="9.302043824145652"><ele>537.5</ele><time>2026-04-04T14:49:05Z</time></trkpt><trkpt lat="39.52152841336793" lon="9.302167085252984"><ele>538.0</ele><time>2026-04-04T14:49:06Z</time></trkpt><trkpt lat="39.521643055994474" lon="9.302268484074279"><ele>532.3333333333334</ele><time>2026-04-04T14:49:07Z</time></trkpt><trkpt lat="39.52177223545763" lon="9.302351542465214"><ele>526.6666666666666</ele><time>2026-04-04T14:49:08Z</time></trkpt><trkpt lat="39.52190365755226" lon="9.302447202276394"><ele>521.0</ele><time>2026-04-04T14:49:09Z</time></trkpt><trkpt lat="39.522043044563475" lon="9.302540961819732"><ele>523.0</ele><time>2026-04-04T14:49:10Z</time></trkpt><trkpt lat="39.52218487678875" lon="9.302640791395708"><ele>525.0</ele><time>2026-04-04T14:49:11Z</time></trkpt><trkpt lat="39.522312243854294" lon="9.302753236052506"><ele>527.0</ele><time>2026-04-04T14:49:12Z</time></trkpt><trkpt lat="39.52242525867741" lon="9.302859912422448"><ele>527.0</ele><time>2026-04-04T14:49:13Z</time></trkpt><trkpt lat="39.52252115527157" lon="9.302936425101098"><ele>527.0</ele><time>2026-04-04T14:49:14Z</time></trkpt><trkpt lat="39.522623071986175" lon="9.30299773251559"><ele>527.0</ele><time>2026-04-04T14:49:15Z</time></trkpt><trkpt lat="39.52273575115499" lon="9.303019795088515"><ele>527.0</ele><time>2026-04-04T14:49:16Z</time></trkpt><trkpt lat="39.522852379960675" lon="9.302980775906729"><ele>525.4</ele><time>2026-04-04T14:49:17Z</time></trkpt><trkpt lat="39.52295701132903" lon="9.30292043263808"><ele>523.8000000000001</ele><time>2026-04-04T14:49:18Z</time></trkpt><trkpt lat="39.52304841652773" lon="9.30289859162276"><ele>522.2</ele><time>2026-04-04T14:49:19Z</time></trkpt><trkpt lat="39.523122685795556" lon="9.302865634620252"><ele>520.6</ele><time>2026-04-04T14:49:20Z</time></trkpt><trkpt lat="39.52319308151129" lon="9.3028354815396"><ele>519.0</ele><time>2026-04-04T14:49:21Z</time></trkpt><trkpt lat="39.52329133782207" lon="9.302806719056084"><ele>519.0</ele><time>2026-04-04T14:49:23Z</time></trkpt><trkpt lat="39.52336608055255" lon="9.302809118097258"><ele>519.0</ele><time>2026-04-04T14:49:25Z</time></trkpt><trkpt lat="39.52343337823656" lon="9.30281892310394"><ele>519.0</ele><time>2026-04-04T14:49:27Z</time></trkpt><trkpt lat="39.52349831308933" lon="9.302841663858507"><ele>519.0</ele><time>2026-04-04T14:49:29Z</time></trkpt><trkpt lat="39.523610953696014" lon="9.302883032150017"><ele>519.0</ele><time>2026-04-04T14:49:31Z</time></trkpt><trkpt lat="39.52368951939463" lon="9.302907478943178"><ele>519.0</ele><time>2026-04-04T14:49:32Z</time></trkpt><trkpt lat="39.52377275143621" lon="9.302951884603289"><ele>517.0</ele><time>2026-04-04T14:49:33Z</time></trkpt><trkpt lat="39.52385177323215" lon="9.302999723996374"><ele>515.0</ele><time>2026-04-04T14:49:34Z</time></trkpt><trkpt lat="39.5239351312535" lon="9.303057993812097"><ele>513.0</ele><time>2026-04-04T14:49:35Z</time></trkpt><trkpt lat="39.524027072738065" lon="9.303127148428851"><ele>511.0</ele><time>2026-04-04T14:49:36Z</time></trkpt><trkpt lat="39.52412126966343" lon="9.303207678149915"><ele>509.0</ele><time>2026-04-04T14:49:37Z</time></trkpt><trkpt lat="39.524214414306165" lon="9.303303251576233"><ele>507.25</ele><time>2026-04-04T14:49:38Z</time></trkpt><trkpt lat="39.52430552082988" lon="9.30341301974507"><ele>505.5</ele><time>2026-04-04T14:49:39Z</time></trkpt><trkpt lat="39.52439100408197" lon="9.303536315970657"><ele>503.75</ele><time>2026-04-04T14:49:40Z</time></trkpt><trkpt lat="39.524463820884534" lon="9.303677327113505"><ele>502.0</ele><time>2026-04-04T14:49:41Z</time></trkpt><trkpt lat="39.5245265669817" lon="9.303836483968686"><ele>500.25</ele><time>2026-04-04T14:49:42Z</time></trkpt><trkpt lat="39.52458603625178" lon="9.304001698168642"><ele>498.5</ele><time>2026-04-04T14:49:43Z</time></trkpt><trkpt lat="39.52463902562711" lon="9.30416403772106"><ele>496.75</ele><time>2026-04-04T14:49:44Z</time></trkpt><trkpt lat="39.524688238596326" lon="9.304324513763682"><ele>495.0</ele><time>2026-04-04T14:49:45Z</time></trkpt><trkpt lat="39.52474524150414" lon="9.304480973927225"><ele>495.0</ele><time>2026-04-04T14:49:46Z</time></trkpt><trkpt lat="39.52481602254849" lon="9.304623659133139"><ele>495.0</ele><time>2026-04-04T14:49:47Z</time></trkpt><trkpt lat="39.52489943414972" lon="9.304751268470095"><ele>495.0</ele><time>2026-04-04T14:49:48Z</time></trkpt><trkpt lat="39.52499174463305" lon="9.304867112938492"><ele>495.0</ele><time>2026-04-04T14:49:49Z</time></trkpt><trkpt lat="39.525084894725524" lon="9.304979814646453"><ele>495.0</ele><time>2026-04-04T14:49:50Z</time></trkpt><trkpt lat="39.52517353860874" lon="9.305096357826141"><ele>495.0</ele><time>2026-04-04T14:49:51Z</time></trkpt><trkpt lat="39.52525415488274" lon="9.305223609560164"><ele>495.0</ele><time>2026-04-04T14:49:52Z</time></trkpt><trkpt lat="39.52533561053547" lon="9.305358076548442"><ele>495.0</ele><time>2026-04-04T14:49:53Z</time></trkpt><trkpt lat="39.52542048087423" lon="9.305492511703164"><ele>493.5</ele><time>2026-04-04T14:49:54Z</time></trkpt><trkpt lat="39.52550647986151" lon="9.305627162955465"><ele>492.0</ele><time>2026-04-04T14:49:55Z</time></trkpt><trkpt lat="39.52558105221228" lon="9.305764079030078"><ele>490.5</ele><time>2026-04-04T14:49:56Z</time></trkpt><trkpt lat="39.52564366226157" lon="9.305908652202152"><ele>489.0</ele><time>2026-04-04T14:49:57Z</time></trkpt><trkpt lat="39.52567689972856" lon="9.306065119129117"><ele>489.0</ele><time>2026-04-04T14:49:58Z</time></trkpt><trkpt lat="39.52567714164998" lon="9.30622423188869"><ele>489.0</ele><time>2026-04-04T14:49:59Z</time></trkpt><trkpt lat="39.52563591715812" lon="9.306364977045636"><ele>489.0</ele><time>2026-04-04T14:50:00Z</time></trkpt><trkpt lat="39.525577770896014" lon="9.306517398524095"><ele>489.0</ele><time>2026-04-04T14:50:01Z</time></trkpt><trkpt lat="39.52552930442629" lon="9.306673760062775"><ele>487.5</ele><time>2026-04-04T14:50:02Z</time></trkpt><trkpt lat="39.52550464942107" lon="9.306835985774782"><ele>486.0</ele><time>2026-04-04T14:50:03Z</time></trkpt><trkpt lat="39.5255125660079" lon="9.306998384163776"><ele>484.5</ele><time>2026-04-04T14:50:04Z</time></trkpt><trkpt lat="39.525560388543774" lon="9.307159106041272"><ele>483.0</ele><time>2026-04-04T14:50:05Z</time></trkpt><trkpt lat="39.52563514136379" lon="9.307322435369661"><ele>479.66666666666663</ele><time>2026-04-04T14:50:06Z</time></trkpt><trkpt lat="39.52570556537078" lon="9.30749108545286"><ele>476.3333333333333</ele><time>2026-04-04T14:50:07Z</time></trkpt><trkpt lat="39.52577241531336" lon="9.30766594841373"><ele>473.0</ele><time>2026-04-04T14:50:08Z</time></trkpt><trkpt lat="39.52584330676821" lon="9.307839458859599"><ele>473.0</ele><time>2026-04-04T14:50:09Z</time></trkpt><trkpt lat="39.525922146383" lon="9.308002919626981"><ele>473.0</ele><time>2026-04-04T14:50:10Z</time></trkpt><trkpt lat="39.52600974160587" lon="9.308148899714183"><ele>473.0</ele><time>2026-04-04T14:50:11Z</time></trkpt><trkpt lat="39.52609651350576" lon="9.308283306960709"><ele>473.0</ele><time>2026-04-04T14:50:12Z</time></trkpt><trkpt lat="39.52617886717591" lon="9.308424448146658"><ele>472.0</ele><time>2026-04-04T14:50:13Z</time></trkpt><trkpt lat="39.52624427993589" lon="9.308581488008752"><ele>471.0</ele><time>2026-04-04T14:50:14Z</time></trkpt><trkpt lat="39.526281139401" lon="9.308772706552636"><ele>470.0</ele><time>2026-04-04T14:50:15Z</time></trkpt><trkpt lat="39.5262919111001" lon="9.30897835739114"><ele>469.0</ele><time>2026-04-04T14:50:16Z</time></trkpt><trkpt lat="39.52631032276811" lon="9.309180542849662"><ele>460.6666666666667</ele><time>2026-04-04T14:50:17Z</time></trkpt><trkpt lat="39.526331509930266" lon="9.309385604352316"><ele>452.33333333333337</ele><time>2026-04-04T14:50:18Z</time></trkpt><trkpt lat="39.52634720538411" lon="9.309589581185628"><ele>444.0</ele><time>2026-04-04T14:50:19Z</time></trkpt><trkpt lat="39.52636125078214" lon="9.309796254702796"><ele>442.0</ele><time>2026-04-04T14:50:20Z</time></trkpt><trkpt lat="39.52638529387035" lon="9.309999658687605"><ele>440.0</ele><time>2026-04-04T14:50:21Z</time></trkpt><trkpt lat="39.52642750217208" lon="9.310135130462593"><ele>438.0</ele><time>2026-04-04T14:50:22Z</time></trkpt><trkpt lat="39.5264829842741" lon="9.310278864572554"><ele>436.0</ele><time>2026-04-04T14:50:23Z</time></trkpt><trkpt lat="39.52652210851564" lon="9.310411172915202"><ele>436.0</ele><time>2026-04-04T14:50:24Z</time></trkpt><trkpt lat="39.52653362144303" lon="9.310549642879757"><ele>436.0</ele><time>2026-04-04T14:50:25Z</time></trkpt><trkpt lat="39.52646594429915" lon="9.31065603841738"><ele>436.0</ele><time>2026-04-04T14:50:26Z</time></trkpt><trkpt lat="39.526405744435415" lon="9.310763572732961"><ele>436.0</ele><time>2026-04-04T14:50:27Z</time></trkpt><trkpt lat="39.52632062358634" lon="9.310869328012085"><ele>436.0</ele><time>2026-04-04T14:50:28Z</time></trkpt><trkpt lat="39.52626666575533" lon="9.311016441397268"><ele>436.25</ele><time>2026-04-04T14:50:29Z</time></trkpt><trkpt lat="39.52620797277628" lon="9.311144785124066"><ele>436.5</ele><time>2026-04-04T14:50:30Z</time></trkpt><trkpt lat="39.5262154848372" lon="9.311296663634096"><ele>436.75</ele><time>2026-04-04T14:50:31Z</time></trkpt><trkpt lat="39.526252111930276" lon="9.311461472257157"><ele>437.0</ele><time>2026-04-04T14:50:32Z</time></trkpt><trkpt lat="39.52629759739504" lon="9.311640386087658"><ele>434.3333333333333</ele><time>2026-04-04T14:50:33Z</time></trkpt><trkpt lat="39.52633804366931" lon="9.311835658283945"><ele>431.66666666666663</ele><time>2026-04-04T14:50:34Z</time></trkpt><trkpt lat="39.52636551159919" lon="9.31203974142922"><ele>429.0</ele><time>2026-04-04T14:50:35Z</time></trkpt><trkpt lat="39.526373607105505" lon="9.312250232925692"><ele>429.0</ele><time>2026-04-04T14:50:36Z</time></trkpt><trkpt lat="39.52636009722362" lon="9.312469559588665"><ele>429.0</ele><time>2026-04-04T14:50:37Z</time></trkpt><trkpt lat="39.52633603832339" lon="9.312691712969773"><ele>429.0</ele><time>2026-04-04T14:50:38Z</time></trkpt><trkpt lat="39.526324440859156" lon="9.312914425722958"><ele>431.0</ele><time>2026-04-04T14:50:39Z</time></trkpt><trkpt lat="39.52634088793341" lon="9.313139120954258"><ele>433.0</ele><time>2026-04-04T14:50:40Z</time></trkpt><trkpt lat="39.526381508578794" lon="9.313364160272364"><ele>435.0</ele><time>2026-04-04T14:50:41Z</time></trkpt><trkpt lat="39.526443652833585" lon="9.31358200179265"><ele>435.0</ele><time>2026-04-04T14:50:42Z</time></trkpt><trkpt lat="39.526525252130654" lon="9.313784364015943"><ele>435.0</ele><time>2026-04-04T14:50:43Z</time></trkpt><trkpt lat="39.526605605117055" lon="9.313980222945636"><ele>435.0</ele><time>2026-04-04T14:50:44Z</time></trkpt><trkpt lat="39.52665492351931" lon="9.314186495521783"><ele>433.75</ele><time>2026-04-04T14:50:45Z</time></trkpt><trkpt lat="39.52670647594764" lon="9.314379370124419"><ele>432.5</ele><time>2026-04-04T14:50:46Z</time></trkpt><trkpt lat="39.5267582640619" lon="9.314552022868405"><ele>431.25</ele><time>2026-04-04T14:50:47Z</time></trkpt><trkpt lat="39.526818152791144" lon="9.31469903271197"><ele>430.0</ele><time>2026-04-04T14:50:48Z</time></trkpt><trkpt lat="39.526906667073106" lon="9.314800392172566"><ele>430.75</ele><time>2026-04-04T14:50:49Z</time></trkpt><trkpt lat="39.527005053889724" lon="9.314883702798584"><ele>431.5</ele><time>2026-04-04T14:50:50Z</time></trkpt><trkpt lat="39.527087476976746" lon="9.314990058482028"><ele>432.25</ele><time>2026-04-04T14:50:51Z</time></trkpt><trkpt lat="39.52714737515466" lon="9.31513103936813"><ele>433.0</ele><time>2026-04-04T14:50:52Z</time></trkpt><trkpt lat="39.527193997915276" lon="9.315299574569869"><ele>433.0</ele><time>2026-04-04T14:50:53Z</time></trkpt><trkpt lat="39.52723724255517" lon="9.315474670009534"><ele>433.0</ele><time>2026-04-04T14:50:54Z</time></trkpt><trkpt lat="39.52728090586983" lon="9.315642994316711"><ele>433.0</ele><time>2026-04-04T14:50:55Z</time></trkpt><trkpt lat="39.52731948197169" lon="9.31580328204132"><ele>433.0</ele><time>2026-04-04T14:50:56Z</time></trkpt><trkpt lat="39.527346883139444" lon="9.315958603728713"><ele>431.25</ele><time>2026-04-04T14:50:57Z</time></trkpt><trkpt lat="39.52734758884277" lon="9.31611716022166"><ele>429.5</ele><time>2026-04-04T14:50:58Z</time></trkpt><trkpt lat="39.52732032505637" lon="9.316274454744837"><ele>427.75</ele><time>2026-04-04T14:50:59Z</time></trkpt><trkpt lat="39.52726236899883" lon="9.31642433330173"><ele>426.0</ele><time>2026-04-04T14:51:00Z</time></trkpt><trkpt lat="39.527182938303426" lon="9.316569538102673"><ele>424.25</ele><time>2026-04-04T14:51:01Z</time></trkpt><trkpt lat="39.52710794461692" lon="9.316722342207463"><ele>422.5</ele><time>2026-04-04T14:51:02Z</time></trkpt><trkpt lat="39.52703757526771" lon="9.316882042503906"><ele>420.75</ele><time>2026-04-04T14:51:03Z</time></trkpt><trkpt lat="39.52697827622279" lon="9.31704452362392"><ele>419.0</ele><time>2026-04-04T14:51:04Z</time></trkpt><trkpt lat="39.52695757588854" lon="9.317214377805122"><ele>418.75</ele><time>2026-04-04T14:51:05Z</time></trkpt><trkpt lat="39.52699293980868" lon="9.31738462559523"><ele>418.5</ele><time>2026-04-04T14:51:06Z</time></trkpt><trkpt lat="39.527073359470464" lon="9.317530324115971"><ele>418.25</ele><time>2026-04-04T14:51:07Z</time></trkpt><trkpt lat="39.52715880327301" lon="9.317660158177587"><ele>418.0</ele><time>2026-04-04T14:51:08Z</time></trkpt><trkpt lat="39.5272078017342" lon="9.31781262199439"><ele>417.0</ele><time>2026-04-04T14:51:09Z</time></trkpt><trkpt lat="39.52723068352622" lon="9.317990079121993"><ele>416.0</ele><time>2026-04-04T14:51:10Z</time></trkpt><trkpt lat="39.52724957825752" lon="9.318179720165297"><ele>415.0</ele><time>2026-04-04T14:51:11Z</time></trkpt><trkpt lat="39.52728284123722" lon="9.318370223961612"><ele>414.0</ele><time>2026-04-04T14:51:12Z</time></trkpt><trkpt lat="39.52733204842825" lon="9.318559002246648"><ele>414.0</ele><time>2026-04-04T14:51:13Z</time></trkpt><trkpt lat="39.52739817229575" lon="9.318745692995035"><ele>414.0</ele><time>2026-04-04T14:51:14Z</time></trkpt><trkpt lat="39.52747847972013" lon="9.31892798266247"><ele>414.0</ele><time>2026-04-04T14:51:15Z</time></trkpt><trkpt lat="39.527572154265044" lon="9.319104530976713"><ele>412.33333333333337</ele><time>2026-04-04T14:51:16Z</time></trkpt><trkpt lat="39.52767467230176" lon="9.319280723812122"><ele>410.6666666666667</ele><time>2026-04-04T14:51:17Z</time></trkpt><trkpt lat="39.527787569113094" lon="9.319449980972669"><ele>409.0</ele><time>2026-04-04T14:51:18Z</time></trkpt><trkpt lat="39.52791482108033" lon="9.31960002165243"><ele>406.75</ele><time>2026-04-04T14:51:19Z</time></trkpt><trkpt lat="39.528033673887315" lon="9.319740510053126"><ele>404.5</ele><time>2026-04-04T14:51:20Z</time></trkpt><trkpt lat="39.52812613303235" lon="9.319886858441134"><ele>402.25</ele><time>2026-04-04T14:51:21Z</time></trkpt><trkpt lat="39.52819101252317" lon="9.320032622238212"><ele>400.0</ele><time>2026-04-04T14:51:22Z</time></trkpt><trkpt lat="39.52826138671896" lon="9.320155000666034"><ele>400.0</ele><time>2026-04-04T14:51:23Z</time></trkpt><trkpt lat="39.5283638123908" lon="9.3202178445244"><ele>400.0</ele><time>2026-04-04T14:51:24Z</time></trkpt><trkpt lat="39.52851130800692" lon="9.320226568331629"><ele>400.0</ele><time>2026-04-04T14:51:25Z</time></trkpt><trkpt lat="39.52867551337422" lon="9.320208307928661"><ele>400.0</ele><time>2026-04-04T14:51:26Z</time></trkpt><trkpt lat="39.528847238401795" lon="9.320190579645168"><ele>399.0</ele><time>2026-04-04T14:51:27Z</time></trkpt><trkpt lat="39.52901901426549" lon="9.32017181423789"><ele>398.0</ele><time>2026-04-04T14:51:28Z</time></trkpt><trkpt lat="39.529195580281836" lon="9.320127990190409"><ele>397.0</ele><time>2026-04-04T14:51:29Z</time></trkpt><trkpt lat="39.52936080293548" lon="9.320073184893499"><ele>397.0</ele><time>2026-04-04T14:51:30Z</time></trkpt><trkpt lat="39.52951112918367" lon="9.320020370380144"><ele>397.0</ele><time>2026-04-04T14:51:31Z</time></trkpt><trkpt lat="39.52964767343136" lon="9.31996560599767"><ele>397.0</ele><time>2026-04-04T14:51:32Z</time></trkpt><trkpt lat="39.52978016148256" lon="9.319912351986064"><ele>397.0</ele><time>2026-04-04T14:51:33Z</time></trkpt><trkpt lat="39.52991625040312" lon="9.319870425413923"><ele>394.5</ele><time>2026-04-04T14:51:34Z</time></trkpt><trkpt lat="39.530055331012754" lon="9.319881515870678"><ele>392.0</ele><time>2026-04-04T14:51:35Z</time></trkpt><trkpt lat="39.53018644342065" lon="9.319898212982416"><ele>389.5</ele><time>2026-04-04T14:51:36Z</time></trkpt><trkpt lat="39.53032133655403" lon="9.319941067456918"><ele>387.0</ele><time>2026-04-04T14:51:37Z</time></trkpt><trkpt lat="39.53045766294058" lon="9.319990387037604"><ele>383.20000000000005</ele><time>2026-04-04T14:51:38Z</time></trkpt><trkpt lat="39.530563661259826" lon="9.320048103642637"><ele>379.4</ele><time>2026-04-04T14:51:39Z</time></trkpt><trkpt lat="39.53065237888495" lon="9.320112534965865"><ele>375.6</ele><time>2026-04-04T14:51:40Z</time></trkpt><trkpt lat="39.53068281872126" lon="9.320237744767631"><ele>371.79999999999995</ele><time>2026-04-04T14:51:41Z</time></trkpt><trkpt lat="39.53067817355569" lon="9.320358964142354"><ele>368.0</ele><time>2026-04-04T14:51:42Z</time></trkpt><trkpt lat="39.53060854722658" lon="9.32047227430768"><ele>367.5</ele><time>2026-04-04T14:51:43Z</time></trkpt><trkpt lat="39.53056765900601" lon="9.320616499550106"><ele>367.0</ele><time>2026-04-04T14:51:44Z</time></trkpt><trkpt lat="39.530543704029455" lon="9.320767830358731"><ele>366.5</ele><time>2026-04-04T14:51:45Z</time></trkpt><trkpt lat="39.53056654741455" lon="9.320918935520982"><ele>366.0</ele><time>2026-04-04T14:51:46Z</time></trkpt><trkpt lat="39.530621459585845" lon="9.321078681166314"><ele>366.0</ele><time>2026-04-04T14:51:47Z</time></trkpt><trkpt lat="39.53069858952031" lon="9.321243563574734"><ele>366.0</ele><time>2026-04-04T14:51:48Z</time></trkpt><trkpt lat="39.53080047679396" lon="9.321399970903451"><ele>366.0</ele><time>2026-04-04T14:51:49Z</time></trkpt><trkpt lat="39.53091082680959" lon="9.32153907052749"><ele>368.25</ele><time>2026-04-04T14:51:50Z</time></trkpt><trkpt lat="39.53101841882869" lon="9.3216669484132"><ele>370.5</ele><time>2026-04-04T14:51:51Z</time></trkpt><trkpt lat="39.53114364863989" lon="9.321761578151358"><ele>372.75</ele><time>2026-04-04T14:51:52Z</time></trkpt><trkpt lat="39.531282991181946" lon="9.321835673249868"><ele>375.0</ele><time>2026-04-04T14:51:53Z</time></trkpt><trkpt lat="39.53143191795099" lon="9.321883870772968"><ele>368.75</ele><time>2026-04-04T14:51:54Z</time></trkpt><trkpt lat="39.531576122437" lon="9.321934458934633"><ele>362.5</ele><time>2026-04-04T14:51:55Z</time></trkpt><trkpt lat="39.53170933407917" lon="9.32199927243163"><ele>356.25</ele><time>2026-04-04T14:51:56Z</time></trkpt><trkpt lat="39.53182610834143" lon="9.32208538100502"><ele>350.0</ele><time>2026-04-04T14:51:57Z</time></trkpt><trkpt lat="39.53191994911699" lon="9.322200608478115"><ele>348.0</ele><time>2026-04-04T14:51:58Z</time></trkpt><trkpt lat="39.532000598280256" lon="9.322346304403755"><ele>346.0</ele><time>2026-04-04T14:51:59Z</time></trkpt><trkpt lat="39.53208817412365" lon="9.322500823927294"><ele>344.0</ele><time>2026-04-04T14:52:00Z</time></trkpt><trkpt lat="39.53218115432701" lon="9.322660913074554"><ele>342.0</ele><time>2026-04-04T14:52:01Z</time></trkpt><trkpt lat="39.53228757203776" lon="9.322790497729374"><ele>342.0</ele><time>2026-04-04T14:52:02Z</time></trkpt><trkpt lat="39.53240753412603" lon="9.322876632534058"><ele>342.0</ele><time>2026-04-04T14:52:03Z</time></trkpt><trkpt lat="39.53253060964997" lon="9.322941643572154"><ele>342.0</ele><time>2026-04-04T14:52:04Z</time></trkpt><trkpt lat="39.53262406342209" lon="9.323043554964746"><ele>342.0</ele><time>2026-04-04T14:52:05Z</time></trkpt><trkpt lat="39.53269793413666" lon="9.32318016412293"><ele>347.0</ele><time>2026-04-04T14:52:06Z</time></trkpt><trkpt lat="39.53278078901407" lon="9.323326147156807"><ele>352.0</ele><time>2026-04-04T14:52:07Z</time></trkpt><trkpt lat="39.532842906996166" lon="9.323510299885287"><ele>357.0</ele><time>2026-04-04T14:52:08Z</time></trkpt><trkpt lat="39.53289950592992" lon="9.323696786556079"><ele>362.0</ele><time>2026-04-04T14:52:09Z</time></trkpt><trkpt lat="39.53293789780134" lon="9.323891138629476"><ele>352.75</ele><time>2026-04-04T14:52:10Z</time></trkpt><trkpt lat="39.53295693292363" lon="9.324075329097594"><ele>343.5</ele><time>2026-04-04T14:52:11Z</time></trkpt><trkpt lat="39.53297811596561" lon="9.324233734194747"><ele>334.25</ele><time>2026-04-04T14:52:12Z</time></trkpt><trkpt lat="39.53304058087621" lon="9.32435313663863"><ele>325.0</ele><time>2026-04-04T14:52:13Z</time></trkpt><trkpt lat="39.53314268690538" lon="9.324435127903417"><ele>325.0</ele><time>2026-04-04T14:52:14Z</time></trkpt><trkpt lat="39.533263549195965" lon="9.32449222937534"><ele>325.0</ele><time>2026-04-04T14:52:15Z</time></trkpt><trkpt lat="39.53337083847771" lon="9.324548956475821"><ele>325.0</ele><time>2026-04-04T14:52:16Z</time></trkpt><trkpt lat="39.53345336922813" lon="9.324639951156986"><ele>325.0</ele><time>2026-04-04T14:52:17Z</time></trkpt><trkpt lat="39.53347387212357" lon="9.324787224747974"><ele>328.0</ele><time>2026-04-04T14:52:18Z</time></trkpt><trkpt lat="39.53352113702766" lon="9.324948561240639"><ele>331.0</ele><time>2026-04-04T14:52:19Z</time></trkpt><trkpt lat="39.53355074493891" lon="9.325139889903092"><ele>334.0</ele><time>2026-04-04T14:52:20Z</time></trkpt><trkpt lat="39.53360132756949" lon="9.325330829012682"><ele>337.0</ele><time>2026-04-04T14:52:21Z</time></trkpt><trkpt lat="39.53366599444456" lon="9.325518580236954"><ele>329.5</ele><time>2026-04-04T14:52:22Z</time></trkpt><trkpt lat="39.53372578920709" lon="9.325692867054077"><ele>322.0</ele><time>2026-04-04T14:52:23Z</time></trkpt><trkpt lat="39.53377945376464" lon="9.325850660623773"><ele>314.5</ele><time>2026-04-04T14:52:24Z</time></trkpt><trkpt lat="39.533796104560956" lon="9.325989186613203"><ele>307.0</ele><time>2026-04-04T14:52:25Z</time></trkpt><trkpt lat="39.53375452865605" lon="9.326130988175965"><ele>310.0</ele><time>2026-04-04T14:52:26Z</time></trkpt><trkpt lat="39.53370700218757" lon="9.326255944479856"><ele>313.0</ele><time>2026-04-04T14:52:27Z</time></trkpt><trkpt lat="39.53360318632264" lon="9.326382440405508"><ele>316.0</ele><time>2026-04-04T14:52:28Z</time></trkpt><trkpt lat="39.5334938562991" lon="9.326526133004638"><ele>319.0</ele><time>2026-04-04T14:52:29Z</time></trkpt><trkpt lat="39.53339356718479" lon="9.326683095540803"><ele>319.0</ele><time>2026-04-04T14:52:30Z</time></trkpt><trkpt lat="39.53328678587528" lon="9.32681918974862"><ele>319.0</ele><time>2026-04-04T14:52:31Z</time></trkpt><trkpt lat="39.533176400024175" lon="9.326926805062566"><ele>319.0</ele><time>2026-04-04T14:52:32Z</time></trkpt><trkpt lat="39.5330831535429" lon="9.327019909534284"><ele>319.0</ele><time>2026-04-04T14:52:33Z</time></trkpt><trkpt lat="39.533024381895395" lon="9.327134730822019"><ele>314.5</ele><time>2026-04-04T14:52:34Z</time></trkpt><trkpt lat="39.53300072528467" lon="9.3272718612164"><ele>310.0</ele><time>2026-04-04T14:52:35Z</time></trkpt><trkpt lat="39.533024685556704" lon="9.327430904726322"><ele>305.5</ele><time>2026-04-04T14:52:36Z</time></trkpt><trkpt lat="39.533046285030345" lon="9.327593153154137"><ele>301.0</ele><time>2026-04-04T14:52:37Z</time></trkpt><trkpt lat="39.533028894488176" lon="9.32775873313621"><ele>301.0</ele><time>2026-04-04T14:52:38Z</time></trkpt><trkpt lat="39.53295761997541" lon="9.32789250355405"><ele>301.0</ele><time>2026-04-04T14:52:39Z</time></trkpt><trkpt lat="39.53287759591759" lon="9.328031408350295"><ele>301.0</ele><time>2026-04-04T14:52:40Z</time></trkpt><trkpt lat="39.532767119435384" lon="9.328145593732971"><ele>301.0</ele><time>2026-04-04T14:52:41Z</time></trkpt><trkpt lat="39.53266721315271" lon="9.328237097030113"><ele>302.2</ele><time>2026-04-04T14:52:42Z</time></trkpt><trkpt lat="39.5326035754474" lon="9.328326253776208"><ele>303.40000000000003</ele><time>2026-04-04T14:52:43Z</time></trkpt><trkpt lat="39.53257208759236" lon="9.32843380698668"><ele>304.6</ele><time>2026-04-04T14:52:44Z</time></trkpt><trkpt lat="39.53255891366781" lon="9.32856325410463"><ele>305.8</ele><time>2026-04-04T14:52:45Z</time></trkpt><trkpt lat="39.532569302107326" lon="9.328730207938703"><ele>307.0</ele><time>2026-04-04T14:52:46Z</time></trkpt><trkpt lat="39.532565439643896" lon="9.328911260437625"><ele>307.0</ele><time>2026-04-04T14:52:47Z</time></trkpt><trkpt lat="39.53257501289538" lon="9.329123113204481"><ele>307.0</ele><time>2026-04-04T14:52:48Z</time></trkpt><trkpt lat="39.532586579273435" lon="9.329331496998332"><ele>307.0</ele><time>2026-04-04T14:52:49Z</time></trkpt><trkpt lat="39.53259873396335" lon="9.329545655455833"><ele>304.66666666666663</ele><time>2026-04-04T14:52:50Z</time></trkpt><trkpt lat="39.53261165856335" lon="9.329751372972416"><ele>302.3333333333333</ele><time>2026-04-04T14:52:51Z</time></trkpt><trkpt lat="39.53262927474835" lon="9.329949781459739"><ele>300.0</ele><time>2026-04-04T14:52:52Z</time></trkpt><trkpt lat="39.53264974893812" lon="9.330145526247701"><ele>300.0</ele><time>2026-04-04T14:52:53Z</time></trkpt><trkpt lat="39.53268543959871" lon="9.33033246596824"><ele>300.0</ele><time>2026-04-04T14:52:54Z</time></trkpt><trkpt lat="39.53268063791888" lon="9.330523274229662"><ele>300.0</ele><time>2026-04-04T14:52:55Z</time></trkpt><trkpt lat="39.53266959552286" lon="9.33070937950966"><ele>300.0</ele><time>2026-04-04T14:52:56Z</time></trkpt><trkpt lat="39.53264261872903" lon="9.330888035286964"><ele>297.25</ele><time>2026-04-04T14:52:57Z</time></trkpt><trkpt lat="39.5325994555171" lon="9.331059256527663"><ele>294.5</ele><time>2026-04-04T14:52:58Z</time></trkpt><trkpt lat="39.53253201773725" lon="9.331210037722474"><ele>291.75</ele><time>2026-04-04T14:52:59Z</time></trkpt><trkpt lat="39.53245095859415" lon="9.331355043660949"><ele>289.0</ele><time>2026-04-04T14:53:00Z</time></trkpt><trkpt lat="39.53237281328988" lon="9.33150075609797"><ele>284.0</ele><time>2026-04-04T14:53:01Z</time></trkpt><trkpt lat="39.53228742284319" lon="9.331643265610984"><ele>279.0</ele><time>2026-04-04T14:53:02Z</time></trkpt><trkpt lat="39.53220772567286" lon="9.331786393713886"><ele>274.0</ele><time>2026-04-04T14:53:03Z</time></trkpt><trkpt lat="39.53214274542763" lon="9.33191459574423"><ele>269.0</ele><time>2026-04-04T14:53:04Z</time></trkpt><trkpt lat="39.53209805094145" lon="9.332032239894849"><ele>269.0</ele><time>2026-04-04T14:53:05Z</time></trkpt><trkpt lat="39.532085737880735" lon="9.332151154549194"><ele>269.0</ele><time>2026-04-04T14:53:06Z</time></trkpt><trkpt lat="39.53215323280015" lon="9.332260466148897"><ele>269.0</ele><time>2026-04-04T14:53:07Z</time></trkpt><trkpt lat="39.53224012026989" lon="9.332364503922346"><ele>269.0</ele><time>2026-04-04T14:53:08Z</time></trkpt><trkpt lat="39.53232552343095" lon="9.332482548442465"><ele>269.0</ele><time>2026-04-04T14:53:09Z</time></trkpt><trkpt lat="39.5324114496302" lon="9.332624608438952"><ele>267.25</ele><time>2026-04-04T14:53:10Z</time></trkpt><trkpt lat="39.532475368163006" lon="9.332779324220699"><ele>265.5</ele><time>2026-04-04T14:53:11Z</time></trkpt><trkpt lat="39.53252137186894" lon="9.332962877086327"><ele>263.75</ele><time>2026-04-04T14:53:12Z</time></trkpt><trkpt lat="39.532530669686395" lon="9.333150911394249"><ele>262.0</ele><time>2026-04-04T14:53:13Z</time></trkpt><trkpt lat="39.53252851357851" lon="9.333345708259582"><ele>262.0</ele><time>2026-04-04T14:53:14Z</time></trkpt><trkpt lat="39.53252013860473" lon="9.333552584969292"><ele>262.0</ele><time>2026-04-04T14:53:15Z</time></trkpt><trkpt lat="39.53251115190411" lon="9.333735971599342"><ele>262.0</ele><time>2026-04-04T14:53:16Z</time></trkpt><trkpt lat="39.532500575084235" lon="9.33389477970481"><ele>262.0</ele><time>2026-04-04T14:53:17Z</time></trkpt><trkpt lat="39.532468648309646" lon="9.334024384843149"><ele>259.5</ele><time>2026-04-04T14:53:18Z</time></trkpt><trkpt lat="39.53240968176456" lon="9.334113576177026"><ele>257.0</ele><time>2026-04-04T14:53:19Z</time></trkpt><trkpt lat="39.53231272637006" lon="9.334158771423349"><ele>254.5</ele><time>2026-04-04T14:53:20Z</time></trkpt><trkpt lat="39.532198425123326" lon="9.3342431832289"><ele>252.0</ele><time>2026-04-04T14:53:21Z</time></trkpt><trkpt lat="39.5320770843117" lon="9.334324638309308"><ele>253.5</ele><time>2026-04-04T14:53:22Z</time></trkpt><trkpt lat="39.531951357862354" lon="9.334393988417375"><ele>255.0</ele><time>2026-04-04T14:53:23Z</time></trkpt><trkpt lat="39.53180664125181" lon="9.334429744266021"><ele>256.5</ele><time>2026-04-04T14:53:24Z</time></trkpt><trkpt lat="39.53164579305508" lon="9.33443914009962"><ele>258.0</ele><time>2026-04-04T14:53:25Z</time></trkpt><trkpt lat="39.53147125059378" lon="9.33444107238648"><ele>258.0</ele><time>2026-04-04T14:53:26Z</time></trkpt><trkpt lat="39.53130324946568" lon="9.334435815714171"><ele>258.0</ele><time>2026-04-04T14:53:27Z</time></trkpt><trkpt lat="39.53114303660229" lon="9.334444429873582"><ele>258.0</ele><time>2026-04-04T14:53:28Z</time></trkpt><trkpt lat="39.53098965598443" lon="9.334470491818841"><ele>256.0</ele><time>2026-04-04T14:53:29Z</time></trkpt><trkpt lat="39.53083850940528" lon="9.334512372242914"><ele>254.0</ele><time>2026-04-04T14:53:30Z</time></trkpt><trkpt lat="39.530674797723385" lon="9.334545815826793"><ele>252.0</ele><time>2026-04-04T14:53:31Z</time></trkpt><trkpt lat="39.530513983837764" lon="9.334577201089754"><ele>252.5</ele><time>2026-04-04T14:53:32Z</time></trkpt><trkpt lat="39.530360454105505" lon="9.334600023550129"><ele>253.0</ele><time>2026-04-04T14:53:33Z</time></trkpt><trkpt lat="39.53023562343906" lon="9.33459708661259"><ele>253.5</ele><time>2026-04-04T14:53:34Z</time></trkpt><trkpt lat="39.53011329212945" lon="9.334659503793393"><ele>254.0</ele><time>2026-04-04T14:53:35Z</time></trkpt><trkpt lat="39.529981930009434" lon="9.334771136506133"><ele>247.5</ele><time>2026-04-04T14:53:36Z</time></trkpt><trkpt lat="39.529863649899475" lon="9.334893660197237"><ele>241.0</ele><time>2026-04-04T14:53:37Z</time></trkpt><trkpt lat="39.529758798508574" lon="9.335025817186345"><ele>234.5</ele><time>2026-04-04T14:53:38Z</time></trkpt><trkpt lat="39.52971163323115" lon="9.335207487622602"><ele>228.0</ele><time>2026-04-04T14:53:39Z</time></trkpt><trkpt lat="39.52964789872954" lon="9.335339253383209"><ele>228.0</ele><time>2026-04-04T14:53:40Z</time></trkpt><trkpt lat="39.52959978543827" lon="9.335470133636036"><ele>228.0</ele><time>2026-04-04T14:53:41Z</time></trkpt><trkpt lat="39.529509704532884" lon="9.335533584840105"><ele>228.0</ele><time>2026-04-04T14:53:42Z</time></trkpt><trkpt lat="39.52940747553292" lon="9.335545991566356"><ele>228.0</ele><time>2026-04-04T14:53:43Z</time></trkpt><trkpt lat="39.529296906752045" lon="9.335519937192029"><ele>228.0</ele><time>2026-04-04T14:53:44Z</time></trkpt><trkpt lat="39.529181115775614" lon="9.335439090296553"><ele>229.66666666666669</ele><time>2026-04-04T14:53:45Z</time></trkpt><trkpt lat="39.52906694417524" lon="9.335327207552126"><ele>231.33333333333334</ele><time>2026-04-04T14:53:46Z</time></trkpt><trkpt lat="39.52892939977294" lon="9.335203474854426"><ele>233.0</ele><time>2026-04-04T14:53:47Z</time></trkpt><trkpt lat="39.52877969220382" lon="9.335100193082676"><ele>228.0</ele><time>2026-04-04T14:53:48Z</time></trkpt><trkpt lat="39.52862171613095" lon="9.335012431067776"><ele>223.0</ele><time>2026-04-04T14:53:49Z</time></trkpt><trkpt lat="39.52848282227684" lon="9.334914371319362"><ele>218.0</ele><time>2026-04-04T14:53:50Z</time></trkpt><trkpt lat="39.52837176851118" lon="9.334805469194071"><ele>218.00000000000003</ele><time>2026-04-04T14:53:51Z</time></trkpt><trkpt lat="39.52828211553161" lon="9.334717207662877"><ele>218.0</ele><time>2026-04-04T14:53:52Z</time></trkpt><trkpt lat="39.52820928979006" lon="9.33467528692807"><ele>218.0</ele><time>2026-04-04T14:53:53Z</time></trkpt><trkpt lat="39.52814735720627" lon="9.334691435769594"><ele>218.0</ele><time>2026-04-04T14:53:54Z</time></trkpt><trkpt lat="39.52807654588309" lon="9.334724300417836"><ele>218.00000000000003</ele><time>2026-04-04T14:53:55Z</time></trkpt><trkpt lat="39.528059541797326" lon="9.334826631076538"><ele>218.0</ele><time>2026-04-04T14:53:56Z</time></trkpt><trkpt lat="39.528205526292396" lon="9.334980809689736"><ele>218.0</ele><time>2026-04-04T14:53:59Z</time></trkpt><trkpt lat="39.528321299492305" lon="9.335022688346987"><ele>218.0</ele><time>2026-04-04T14:54:00Z</time></trkpt><trkpt lat="39.528457383229046" lon="9.335095453454368"><ele>218.0</ele><time>2026-04-04T14:54:01Z</time></trkpt><trkpt lat="39.52859575157559" lon="9.335211047180211"><ele>218.0</ele><time>2026-04-04T14:54:02Z</time></trkpt><trkpt lat="39.52873944428364" lon="9.335348528509948"><ele>215.0</ele><time>2026-04-04T14:54:03Z</time></trkpt><trkpt lat="39.52889257310674" lon="9.335507491847768"><ele>212.0</ele><time>2026-04-04T14:54:04Z</time></trkpt><trkpt lat="39.529016693603474" lon="9.335665806179504"><ele>209.0</ele><time>2026-04-04T14:54:05Z</time></trkpt><trkpt lat="39.52912569614603" lon="9.335842755664956"><ele>209.0</ele><time>2026-04-04T14:54:06Z</time></trkpt><trkpt lat="39.529231486424415" lon="9.335987413980313"><ele>209.0</ele><time>2026-04-04T14:54:07Z</time></trkpt><trkpt lat="39.52933289452077" lon="9.33609373493703"><ele>209.0</ele><time>2026-04-04T14:54:08Z</time></trkpt><trkpt lat="39.529445187574765" lon="9.336179750536548"><ele>209.0</ele><time>2026-04-04T14:54:09Z</time></trkpt><trkpt lat="39.52959809209307" lon="9.336195680176571"><ele>208.0</ele><time>2026-04-04T14:54:10Z</time></trkpt><trkpt lat="39.52975196109742" lon="9.336115834705753"><ele>207.0</ele><time>2026-04-04T14:54:11Z</time></trkpt><trkpt lat="39.52988250416093" lon="9.335981260060093"><ele>206.0</ele><time>2026-04-04T14:54:12Z</time></trkpt><trkpt lat="39.530008382107916" lon="9.335837893893784"><ele>206.0</ele><time>2026-04-04T14:54:13Z</time></trkpt><trkpt lat="39.53014352866833" lon="9.33570727072431"><ele>206.0</ele><time>2026-04-04T14:54:14Z</time></trkpt><trkpt lat="39.530312348288625" lon="9.335626149537973"><ele>206.0</ele><time>2026-04-04T14:54:15Z</time></trkpt><trkpt lat="39.53049951032508" lon="9.335548293714226"><ele>212.66666666666669</ele><time>2026-04-04T14:54:16Z</time></trkpt><trkpt lat="39.530697121407684" lon="9.335520351717625"><ele>219.33333333333331</ele><time>2026-04-04T14:54:17Z</time></trkpt><trkpt lat="39.53090506270919" lon="9.335525829338788"><ele>226.0</ele><time>2026-04-04T14:54:18Z</time></trkpt><trkpt lat="39.53109850418267" lon="9.335536729298337"><ele>216.33333333333331</ele><time>2026-04-04T14:54:19Z</time></trkpt><trkpt lat="39.531277636528166" lon="9.335561274863872"><ele>206.66666666666669</ele><time>2026-04-04T14:54:20Z</time></trkpt><trkpt lat="39.53142670994421" lon="9.335651808321822"><ele>197.0</ele><time>2026-04-04T14:54:21Z</time></trkpt><trkpt lat="39.53157689555969" lon="9.335788796864032"><ele>197.0</ele><time>2026-04-04T14:54:22Z</time></trkpt><trkpt lat="39.53174022016233" lon="9.335946911452323"><ele>197.0</ele><time>2026-04-04T14:54:23Z</time></trkpt><trkpt lat="39.531908106460094" lon="9.336105175940094"><ele>197.0</ele><time>2026-04-04T14:54:24Z</time></trkpt><trkpt lat="39.53207789665581" lon="9.33628340915908"><ele>195.66666666666669</ele><time>2026-04-04T14:54:25Z</time></trkpt><trkpt lat="39.53223791480846" lon="9.33647005880214"><ele>194.33333333333331</ele><time>2026-04-04T14:54:26Z</time></trkpt><trkpt lat="39.53237679362881" lon="9.336655318762906"><ele>193.0</ele><time>2026-04-04T14:54:27Z</time></trkpt><trkpt lat="39.53249889226116" lon="9.336831231943581"><ele>193.0</ele><time>2026-04-04T14:54:28Z</time></trkpt><trkpt lat="39.532608840040055" lon="9.336981832976438"><ele>193.0</ele><time>2026-04-04T14:54:29Z</time></trkpt><trkpt lat="39.53271569445947" lon="9.33708558343402"><ele>193.0</ele><time>2026-04-04T14:54:30Z</time></trkpt><trkpt lat="39.53282921686426" lon="9.33711596093227"><ele>193.0</ele><time>2026-04-04T14:54:31Z</time></trkpt><trkpt lat="39.53295227720474" lon="9.337088419082098"><ele>191.33333333333331</ele><time>2026-04-04T14:54:32Z</time></trkpt><trkpt lat="39.53305092513134" lon="9.336948075796355"><ele>189.66666666666666</ele><time>2026-04-04T14:54:33Z</time></trkpt><trkpt lat="39.53317184790435" lon="9.336805558654724"><ele>188.0</ele><time>2026-04-04T14:54:34Z</time></trkpt><trkpt lat="39.53330505176865" lon="9.336653575801014"><ele>188.0</ele><time>2026-04-04T14:54:35Z</time></trkpt><trkpt lat="39.53347827291958" lon="9.33656200005458"><ele>188.0</ele><time>2026-04-04T14:54:36Z</time></trkpt><trkpt lat="39.53365083884186" lon="9.336502086072828"><ele>188.0</ele><time>2026-04-04T14:54:37Z</time></trkpt><trkpt lat="39.533829158724856" lon="9.336507270846269"><ele>184.0</ele><time>2026-04-04T14:54:38Z</time></trkpt><trkpt lat="39.53399844137185" lon="9.336566509446998"><ele>180.0</ele><time>2026-04-04T14:54:39Z</time></trkpt><trkpt lat="39.53414870729389" lon="9.33660274922791"><ele>176.0</ele><time>2026-04-04T14:54:40Z</time></trkpt><trkpt lat="39.53427901830961" lon="9.33659409632802"><ele>176.0</ele><time>2026-04-04T14:54:41Z</time></trkpt><trkpt lat="39.534385090906156" lon="9.336513794130962"><ele>176.0</ele><time>2026-04-04T14:54:42Z</time></trkpt><trkpt lat="39.53446633983921" lon="9.33635937725892"><ele>176.0</ele><time>2026-04-04T14:54:43Z</time></trkpt><trkpt lat="39.53452796639971" lon="9.33616794976567"><ele>176.0</ele><time>2026-04-04T14:54:44Z</time></trkpt><trkpt lat="39.53463947336162" lon="9.33599914122418"><ele>175.66666666666666</ele><time>2026-04-04T14:54:45Z</time></trkpt><trkpt lat="39.53476414838388" lon="9.335837580072393"><ele>175.33333333333334</ele><time>2026-04-04T14:54:46Z</time></trkpt><trkpt lat="39.53490221714081" lon="9.335663415110814"><ele>175.0</ele><time>2026-04-04T14:54:47Z</time></trkpt><trkpt lat="39.53507819942149" lon="9.335561566330707"><ele>172.66666666666669</ele><time>2026-04-04T14:54:48Z</time></trkpt><trkpt lat="39.53527169922178" lon="9.335468238961264"><ele>170.33333333333334</ele><time>2026-04-04T14:54:49Z</time></trkpt><trkpt lat="39.5354646288243" lon="9.335366515762779"><ele>168.0</ele><time>2026-04-04T14:54:50Z</time></trkpt><trkpt lat="39.535650113049556" lon="9.335286323224443"><ele>168.0</ele><time>2026-04-04T14:54:51Z</time></trkpt><trkpt lat="39.535838809712644" lon="9.33521800701754"><ele>168.0</ele><time>2026-04-04T14:54:52Z</time></trkpt><trkpt lat="39.53600360018335" lon="9.335142069327617"><ele>168.0</ele><time>2026-04-04T14:54:53Z</time></trkpt><trkpt lat="39.53613823789205" lon="9.335084737321825"><ele>171.5</ele><time>2026-04-04T14:54:54Z</time></trkpt><trkpt lat="39.536240951639066" lon="9.335034453114536"><ele>175.0</ele><time>2026-04-04T14:54:55Z</time></trkpt><trkpt lat="39.53634240226116" lon="9.335081859876619"><ele>178.5</ele><time>2026-04-04T14:54:56Z</time></trkpt><trkpt lat="39.536421470100066" lon="9.33521544203561"><ele>182.0</ele><time>2026-04-04T14:54:57Z</time></trkpt><trkpt lat="39.536522943034775" lon="9.335373317842834"><ele>177.0</ele><time>2026-04-04T14:54:58Z</time></trkpt><trkpt lat="39.53662566545706" lon="9.33558511303404"><ele>172.0</ele><time>2026-04-04T14:54:59Z</time></trkpt><trkpt lat="39.53674517896113" lon="9.335798087749547"><ele>167.0</ele><time>2026-04-04T14:55:00Z</time></trkpt><trkpt lat="39.53687382760707" lon="9.336023238438319"><ele>167.0</ele><time>2026-04-04T14:55:01Z</time></trkpt><trkpt lat="39.537007408531785" lon="9.336263767866715"><ele>167.0</ele><time>2026-04-04T14:55:02Z</time></trkpt><trkpt lat="39.537120447940936" lon="9.336484554350106"><ele>167.0</ele><time>2026-04-04T14:55:03Z</time></trkpt><trkpt lat="39.537238500844715" lon="9.336690206085706"><ele>168.33333333333331</ele><time>2026-04-04T14:55:04Z</time></trkpt><trkpt lat="39.53736796676386" lon="9.336866422776055"><ele>169.66666666666666</ele><time>2026-04-04T14:55:05Z</time></trkpt><trkpt lat="39.53752074802602" lon="9.337005657757798"><ele>171.0</ele><time>2026-04-04T14:55:06Z</time></trkpt><trkpt lat="39.5376829033218" lon="9.337154164581733"><ele>168.66666666666666</ele><time>2026-04-04T14:55:07Z</time></trkpt><trkpt lat="39.5378492486561" lon="9.33730237823368"><ele>166.33333333333331</ele><time>2026-04-04T14:55:08Z</time></trkpt><trkpt lat="39.53798518589576" lon="9.337513955282674"><ele>164.0</ele><time>2026-04-04T14:55:09Z</time></trkpt><trkpt lat="39.538084858741975" lon="9.337765526400117"><ele>171.5</ele><time>2026-04-04T14:55:10Z</time></trkpt><trkpt lat="39.538197677264996" lon="9.33801998832321"><ele>179.0</ele><time>2026-04-04T14:55:11Z</time></trkpt><trkpt lat="39.538288419345946" lon="9.338285804612116"><ele>179.0</ele><time>2026-04-04T14:55:11.999Z</time></trkpt><trkpt lat="39.538347637482616" lon="9.338567141414321"><ele>179.0</ele><time>2026-04-04T14:55:12.999Z</time></trkpt><trkpt lat="39.53839827218505" lon="9.338848077909855"><ele>179.0</ele><time>2026-04-04T14:55:13.999Z</time></trkpt><trkpt lat="39.538448986982566" lon="9.339107884152403"><ele>174.66666666666666</ele><time>2026-04-04T14:55:14.999Z</time></trkpt><trkpt lat="39.53849202353161" lon="9.339350593065145"><ele>170.33333333333334</ele><time>2026-04-04T14:55:15.999Z</time></trkpt><trkpt lat="39.53854098370676" lon="9.33958009134213"><ele>166.0</ele><time>2026-04-04T14:55:16.999Z</time></trkpt><trkpt lat="39.53861078153499" lon="9.339811029457675"><ele>165.33333333333334</ele><time>2026-04-04T14:55:17.999Z</time></trkpt><trkpt lat="39.53870484735332" lon="9.340052578520558"><ele>164.66666666666666</ele><time>2026-04-04T14:55:18.999Z</time></trkpt><trkpt lat="39.53881542152368" lon="9.340295704287358"><ele>164.0</ele><time>2026-04-04T14:55:19.999Z</time></trkpt><trkpt lat="39.53893278353595" lon="9.34053334663422"><ele>165.0</ele><time>2026-04-04T14:55:20.999Z</time></trkpt><trkpt lat="39.539073000805594" lon="9.340765998079103"><ele>166.0</ele><time>2026-04-04T14:55:21.999Z</time></trkpt><trkpt lat="39.539224201337575" lon="9.340982242882259"><ele>166.0</ele><time>2026-04-04T14:55:22.999Z</time></trkpt><trkpt lat="39.53939354680554" lon="9.341178785024999"><ele>166.0</ele><time>2026-04-04T14:55:23.999Z</time></trkpt><trkpt lat="39.53957470121076" lon="9.341345192136004"><ele>166.0</ele><time>2026-04-04T14:55:24.999Z</time></trkpt><trkpt lat="39.53974622693292" lon="9.341504013363446"><ele>166.66666666666669</ele><time>2026-04-04T14:55:25.999Z</time></trkpt><trkpt lat="39.53990689089505" lon="9.341646748881262"><ele>167.33333333333334</ele><time>2026-04-04T14:55:26.999Z</time></trkpt><trkpt lat="39.54005370193323" lon="9.341785729662435"><ele>168.0</ele><time>2026-04-04T14:55:27.999Z</time></trkpt><trkpt lat="39.54018942260121" lon="9.341922784774203"><ele>168.0</ele><time>2026-04-04T14:55:29Z</time></trkpt><trkpt lat="39.5403044286907" lon="9.342079439137326"><ele>168.0</ele><time>2026-04-04T14:55:30Z</time></trkpt><trkpt lat="39.540384803847886" lon="9.342268771689437"><ele>168.0</ele><time>2026-04-04T14:55:31Z</time></trkpt><trkpt lat="39.540430193767236" lon="9.342476307621327"><ele>164.66666666666666</ele><time>2026-04-04T14:55:32Z</time></trkpt><trkpt lat="39.54043505433253" lon="9.342690433691986"><ele>161.33333333333331</ele><time>2026-04-04T14:55:33Z</time></trkpt><trkpt lat="39.54043744623263" lon="9.342895515501523"><ele>158.0</ele><time>2026-04-04T14:55:34Z</time></trkpt><trkpt lat="39.54048826375853" lon="9.343073388835371"><ele>156.0</ele><time>2026-04-04T14:55:35Z</time></trkpt><trkpt lat="39.540574599774935" lon="9.343229535797768"><ele>154.0</ele><time>2026-04-04T14:55:36Z</time></trkpt><trkpt lat="39.54067048389429" lon="9.343340457572221"><ele>152.0</ele><time>2026-04-04T14:55:37Z</time></trkpt><trkpt lat="39.54077195055579" lon="9.343405836774858"><ele>150.0</ele><time>2026-04-04T14:55:38Z</time></trkpt><trkpt lat="39.54087402299497" lon="9.343433087736786"><ele>150.0</ele><time>2026-04-04T14:55:39Z</time></trkpt><trkpt lat="39.54098033158976" lon="9.343328295195091"><ele>150.0</ele><time>2026-04-04T14:55:40Z</time></trkpt><trkpt lat="39.54109118229424" lon="9.343222117385034"><ele>150.0</ele><time>2026-04-04T14:55:41Z</time></trkpt><trkpt lat="39.54122881537705" lon="9.34314707140902"><ele>150.0</ele><time>2026-04-04T14:55:42Z</time></trkpt><trkpt lat="39.54138466002516" lon="9.343132848898973"><ele>149.0</ele><time>2026-04-04T14:55:43Z</time></trkpt><trkpt lat="39.54154112960518" lon="9.343173758991343"><ele>148.0</ele><time>2026-04-04T14:55:44Z</time></trkpt><trkpt lat="39.54167588917204" lon="9.343193289624764"><ele>147.0</ele><time>2026-04-04T14:55:45Z</time></trkpt><trkpt lat="39.5417800444798" lon="9.343265890618367"><ele>146.0</ele><time>2026-04-04T14:55:46Z</time></trkpt><trkpt lat="39.54183171390333" lon="9.343380225871602"><ele>146.0</ele><time>2026-04-04T14:55:47Z</time></trkpt><trkpt lat="39.541824610738324" lon="9.343508496763324"><ele>146.0</ele><time>2026-04-04T14:55:48Z</time></trkpt><trkpt lat="39.541782230612405" lon="9.343656255574167"><ele>146.0</ele><time>2026-04-04T14:55:49Z</time></trkpt><trkpt lat="39.541738618703725" lon="9.343825252796764"><ele>146.0</ele><time>2026-04-04T14:55:50Z</time></trkpt><trkpt lat="39.54174723787789" lon="9.344020397700259"><ele>147.75</ele><time>2026-04-04T14:55:51Z</time></trkpt><trkpt lat="39.541784752364684" lon="9.344226902560901"><ele>149.5</ele><time>2026-04-04T14:55:52Z</time></trkpt><trkpt lat="39.5418157724585" lon="9.344401004275204"><ele>151.25</ele><time>2026-04-04T14:55:53Z</time></trkpt><trkpt lat="39.54188784164184" lon="9.344536037878786"><ele>153.0</ele><time>2026-04-04T14:55:54Z</time></trkpt><trkpt lat="39.542008228453206" lon="9.344602239753213"><ele>148.0</ele><time>2026-04-04T14:55:55Z</time></trkpt><trkpt lat="39.54216765036213" lon="9.344624861162986"><ele>143.0</ele><time>2026-04-04T14:55:56Z</time></trkpt><trkpt lat="39.54233715791317" lon="9.34458705782026"><ele>138.0</ele><time>2026-04-04T14:55:57Z</time></trkpt><trkpt lat="39.54247651884807" lon="9.344558905497179"><ele>138.0</ele><time>2026-04-04T14:55:58Z</time></trkpt><trkpt lat="39.54259791480017" lon="9.344535281229106"><ele>138.0</ele><time>2026-04-04T14:55:59Z</time></trkpt><trkpt lat="39.54268042973142" lon="9.344596242902114"><ele>138.0</ele><time>2026-04-04T14:56:00Z</time></trkpt><trkpt lat="39.54272582880522" lon="9.344706982669939"><ele>138.0</ele><time>2026-04-04T14:56:01Z</time></trkpt><trkpt lat="39.54281283239145" lon="9.34486890391526"><ele>138.66666666666666</ele><time>2026-04-04T14:56:02Z</time></trkpt><trkpt lat="39.54289377410167" lon="9.34508066228319"><ele>139.33333333333331</ele><time>2026-04-04T14:56:03Z</time></trkpt><trkpt lat="39.54302125723047" lon="9.34531556005978"><ele>140.0</ele><time>2026-04-04T14:56:04Z</time></trkpt><trkpt lat="39.543177507435345" lon="9.345543402277828"><ele>141.0</ele><time>2026-04-04T14:56:05Z</time></trkpt><trkpt lat="39.543328919917705" lon="9.345767156483952"><ele>142.0</ele><time>2026-04-04T14:56:06Z</time></trkpt><trkpt lat="39.54347665781838" lon="9.345986274687126"><ele>142.0</ele><time>2026-04-04T14:56:07Z</time></trkpt><trkpt lat="39.543628911164824" lon="9.346208029159387"><ele>142.0</ele><time>2026-04-04T14:56:08Z</time></trkpt><trkpt lat="39.54376978176963" lon="9.346418476185528"><ele>142.0</ele><time>2026-04-04T14:56:09Z</time></trkpt><trkpt lat="39.54390146664287" lon="9.346625523751634"><ele>137.0</ele><time>2026-04-04T14:56:10Z</time></trkpt><trkpt lat="39.544000970895496" lon="9.346836077325166"><ele>132.0</ele><time>2026-04-04T14:56:11Z</time></trkpt><trkpt lat="39.54408863108571" lon="9.347040330607891"><ele>127.0</ele><time>2026-04-04T14:56:12Z</time></trkpt><trkpt lat="39.5442205810716" lon="9.347194788994278"><ele>126.0</ele><time>2026-04-04T14:56:13Z</time></trkpt><trkpt lat="39.5443573370622" lon="9.347351656733307"><ele>125.0</ele><time>2026-04-04T14:56:14Z</time></trkpt><trkpt lat="39.54450813883926" lon="9.347489736815074"><ele>124.0</ele><time>2026-04-04T14:56:15Z</time></trkpt><trkpt lat="39.54463358009226" lon="9.347649134467424"><ele>124.0</ele><time>2026-04-04T14:56:16Z</time></trkpt><trkpt lat="39.544741932551645" lon="9.347829751704282"><ele>124.0</ele><time>2026-04-04T14:56:17Z</time></trkpt><trkpt lat="39.54484287176117" lon="9.347998878296892"><ele>124.0</ele><time>2026-04-04T14:56:18Z</time></trkpt><trkpt lat="39.544935835232856" lon="9.348140109039594"><ele>123.66666666666667</ele><time>2026-04-04T14:56:19Z</time></trkpt><trkpt lat="39.544978286575194" lon="9.348335142215047"><ele>123.33333333333334</ele><time>2026-04-04T14:56:20Z</time></trkpt><trkpt lat="39.544979896029844" lon="9.348578282782427"><ele>123.0</ele><time>2026-04-04T14:56:21Z</time></trkpt><trkpt lat="39.5450398632742" lon="9.348812248118657"><ele>125.33333333333334</ele><time>2026-04-04T14:56:22Z</time></trkpt><trkpt lat="39.54511607937958" lon="9.349067810811876"><ele>127.66666666666667</ele><time>2026-04-04T14:56:23Z</time></trkpt><trkpt lat="39.54523185867001" lon="9.349320357581092"><ele>130.0</ele><time>2026-04-04T14:56:24Z</time></trkpt><trkpt lat="39.54529800808577" lon="9.349596846918354"><ele>134.0</ele><time>2026-04-04T14:56:25Z</time></trkpt><trkpt lat="39.54533784465418" lon="9.349886900075006"><ele>138.0</ele><time>2026-04-04T14:56:26Z</time></trkpt><trkpt lat="39.545397444538395" lon="9.350177133423822"><ele>127.0</ele><time>2026-04-04T14:56:27Z</time></trkpt><trkpt lat="39.54549036183745" lon="9.350466714613953"><ele>116.0</ele><time>2026-04-04T14:56:28Z</time></trkpt><trkpt lat="39.54557382982484" lon="9.350755300292851"><ele>116.0</ele><time>2026-04-04T14:56:29Z</time></trkpt><trkpt lat="39.54567886961172" lon="9.351006171074838"><ele>116.0</ele><time>2026-04-04T14:56:30Z</time></trkpt><trkpt lat="39.545799471031444" lon="9.351236950567438"><ele>116.0</ele><time>2026-04-04T14:56:31Z</time></trkpt><trkpt lat="39.545892565783994" lon="9.351463732426334"><ele>117.0</ele><time>2026-04-04T14:56:32Z</time></trkpt><trkpt lat="39.545960388785005" lon="9.351711283888806"><ele>118.0</ele><time>2026-04-04T14:56:33Z</time></trkpt><trkpt lat="39.54600206519597" lon="9.351972700468055"><ele>119.0</ele><time>2026-04-04T14:56:34Z</time></trkpt><trkpt lat="39.54603003720657" lon="9.352229941892045"><ele>119.66666666666666</ele><time>2026-04-04T14:56:35Z</time></trkpt><trkpt lat="39.546012269465685" lon="9.352507615971335"><ele>120.33333333333334</ele><time>2026-04-04T14:56:36Z</time></trkpt><trkpt lat="39.54599616482071" lon="9.352806152336607"><ele>121.0</ele><time>2026-04-04T14:56:37Z</time></trkpt><trkpt lat="39.5460132495453" lon="9.353112875570467"><ele>119.0</ele><time>2026-04-04T14:56:38Z</time></trkpt><trkpt lat="39.54604339247615" lon="9.3534330897648"><ele>117.0</ele><time>2026-04-04T14:56:39Z</time></trkpt><trkpt lat="39.54608053959936" lon="9.353761049717168"><ele>116.0</ele><time>2026-04-04T14:56:40Z</time></trkpt><trkpt lat="39.54610470783913" lon="9.354081537846103"><ele>115.0</ele><time>2026-04-04T14:56:41Z</time></trkpt><trkpt lat="39.54614819599033" lon="9.354370606350345"><ele>115.0</ele><time>2026-04-04T14:56:42Z</time></trkpt><trkpt lat="39.54620676715751" lon="9.354617405959766"><ele>115.0</ele><time>2026-04-04T14:56:43Z</time></trkpt><trkpt lat="39.546223969410775" lon="9.354855840118804"><ele>115.0</ele><time>2026-04-04T14:56:44Z</time></trkpt><trkpt lat="39.546251723527085" lon="9.35508578405154"><ele>111.0</ele><time>2026-04-04T14:56:45Z</time></trkpt><trkpt lat="39.546247711104456" lon="9.355306664785267"><ele>107.0</ele><time>2026-04-04T14:56:46Z</time></trkpt><trkpt lat="39.54624708189546" lon="9.355512187848738"><ele>103.0</ele><time>2026-04-04T14:56:47Z</time></trkpt><trkpt lat="39.546249288418934" lon="9.355711834316688"><ele>102.75</ele><time>2026-04-04T14:56:48Z</time></trkpt><trkpt lat="39.54625095005413" lon="9.355907979869295"><ele>102.5</ele><time>2026-04-04T14:56:49Z</time></trkpt><trkpt lat="39.5462545641468" lon="9.356094252644679"><ele>102.25</ele><time>2026-04-04T14:56:50Z</time></trkpt><trkpt lat="39.54627627926797" lon="9.356273116919253"><ele>102.0</ele><time>2026-04-04T14:56:51Z</time></trkpt><trkpt lat="39.54631726290229" lon="9.356443417379685"><ele>102.0</ele><time>2026-04-04T14:56:52Z</time></trkpt><trkpt lat="39.54636580432344" lon="9.356614728547921"><ele>102.0</ele><time>2026-04-04T14:56:53Z</time></trkpt><trkpt lat="39.546414616588855" lon="9.356793434421984"><ele>102.0</ele><time>2026-04-04T14:56:54Z</time></trkpt><trkpt lat="39.54646190598495" lon="9.356971855590723"><ele>102.0</ele><time>2026-04-04T14:56:55Z</time></trkpt><trkpt lat="39.54651234073867" lon="9.357151650611629"><ele>102.0</ele><time>2026-04-04T14:56:56Z</time></trkpt><trkpt lat="39.54656603616479" lon="9.357331956101806"><ele>102.0</ele><time>2026-04-04T14:56:57Z</time></trkpt><trkpt lat="39.5466214779182" lon="9.35751103450624"><ele>102.0</ele><time>2026-04-04T14:56:58Z</time></trkpt><trkpt lat="39.546680651937024" lon="9.35767845953766"><ele>102.0</ele><time>2026-04-04T14:56:59Z</time></trkpt><trkpt lat="39.54674827205696" lon="9.357830981140228"><ele>102.0</ele><time>2026-04-04T14:57:00Z</time></trkpt><trkpt lat="39.54682540847286" lon="9.35797092151112"><ele>102.0</ele><time>2026-04-04T14:57:01Z</time></trkpt><trkpt lat="39.546912333997284" lon="9.358103154950523"><ele>102.0</ele><time>2026-04-04T14:57:02Z</time></trkpt><trkpt lat="39.547009442670486" lon="9.35822486011969"><ele>102.0</ele><time>2026-04-04T14:57:03Z</time></trkpt><trkpt lat="39.54711545896972" lon="9.358336409970367"><ele>100.5</ele><time>2026-04-04T14:57:04Z</time></trkpt><trkpt lat="39.547217799007676" lon="9.358447863014149"><ele>99.0</ele><time>2026-04-04T14:57:05Z</time></trkpt><trkpt lat="39.54731406720871" lon="9.358555855201987"><ele>97.5</ele><time>2026-04-04T14:57:06Z</time></trkpt><trkpt lat="39.54740434272714" lon="9.358665087864663"><ele>96.0</ele><time>2026-04-04T14:57:07Z</time></trkpt><trkpt lat="39.54749332691695" lon="9.358767493076313"><ele>96.0</ele><time>2026-04-04T14:57:08Z</time></trkpt><trkpt lat="39.54758097548011" lon="9.358865805246955"><ele>96.0</ele><time>2026-04-04T14:57:09Z</time></trkpt><trkpt lat="39.54766635559683" lon="9.35895633764723"><ele>96.0</ele><time>2026-04-04T14:57:10Z</time></trkpt><trkpt lat="39.54774683771714" lon="9.359044676739003"><ele>96.0</ele><time>2026-04-04T14:57:11Z</time></trkpt><trkpt lat="39.54782107669107" lon="9.359131023733838"><ele>96.0</ele><time>2026-04-04T14:57:12Z</time></trkpt><trkpt lat="39.547886928095714" lon="9.359202908495364"><ele>95.66666666666667</ele><time>2026-04-04T14:57:13Z</time></trkpt><trkpt lat="39.54794498181972" lon="9.359267627025764"><ele>95.33333333333333</ele><time>2026-04-04T14:57:14Z</time></trkpt><trkpt lat="39.54798494797649" lon="9.359338938153389"><ele>95.0</ele><time>2026-04-04T14:57:15Z</time></trkpt><trkpt lat="39.54806510151452" lon="9.359422550762051"><ele>94.66666666666666</ele><time>2026-04-04T14:57:17Z</time></trkpt><trkpt lat="39.548013061420896" lon="9.359527365526935"><ele>94.33333333333333</ele><time>2026-04-04T14:57:19Z</time></trkpt><trkpt lat="39.54797492378265" lon="9.359608027766555"><ele>94.0</ele><time>2026-04-04T14:57:20Z</time></trkpt><trkpt lat="39.547924978235734" lon="9.359688712533737"><ele>94.6</ele><time>2026-04-04T14:57:21Z</time></trkpt><trkpt lat="39.547906435010475" lon="9.359779796562169"><ele>95.2</ele><time>2026-04-04T14:57:22Z</time></trkpt><trkpt lat="39.54791532889916" lon="9.359882420143572"><ele>95.8</ele><time>2026-04-04T14:57:23Z</time></trkpt><trkpt lat="39.54795963740966" lon="9.359985613424799"><ele>96.39999999999999</ele><time>2026-04-04T14:57:24Z</time></trkpt><trkpt lat="39.548033110540096" lon="9.360075511475747"><ele>97.0</ele><time>2026-04-04T14:57:25Z</time></trkpt><trkpt lat="39.54812102542613" lon="9.360173392032822"><ele>97.0</ele><time>2026-04-04T14:57:26Z</time></trkpt><trkpt lat="39.54823701497" lon="9.360238705971344"><ele>97.0</ele><time>2026-04-04T14:57:27Z</time></trkpt><trkpt lat="39.54835757225257" lon="9.36026239515918"><ele>97.0</ele><time>2026-04-04T14:57:28Z</time></trkpt><trkpt lat="39.54845328924" lon="9.360283672809818"><ele>97.0</ele><time>2026-04-04T14:57:29Z</time></trkpt><trkpt lat="39.548540150478985" lon="9.360289213965004"><ele>97.0</ele><time>2026-04-04T14:57:30Z</time></trkpt><trkpt lat="39.54861716052939" lon="9.360358573193231"><ele>97.0</ele><time>2026-04-04T14:57:31Z</time></trkpt><trkpt lat="39.54868053141131" lon="9.36044859195472"><ele>97.0</ele><time>2026-04-04T14:57:32Z</time></trkpt><trkpt lat="39.54872895642352" lon="9.360562456126146"><ele>97.0</ele><time>2026-04-04T14:57:33Z</time></trkpt><trkpt lat="39.54877828627642" lon="9.36067023476845"><ele>97.0</ele><time>2026-04-04T14:57:34Z</time></trkpt><trkpt lat="39.54881682866126" lon="9.36077978510281"><ele>97.0</ele><time>2026-04-04T14:57:35Z</time></trkpt><trkpt lat="39.548830279020464" lon="9.360896904713577"><ele>96.83333333333334</ele><time>2026-04-04T14:57:36Z</time></trkpt><trkpt lat="39.548811138928876" lon="9.361008018103615"><ele>96.66666666666667</ele><time>2026-04-04T14:57:37Z</time></trkpt><trkpt lat="39.54878888044614" lon="9.361106392881764"><ele>96.5</ele><time>2026-04-04T14:57:38Z</time></trkpt><trkpt lat="39.54876753664011" lon="9.361205809754555"><ele>96.33333333333334</ele><time>2026-04-04T14:57:39Z</time></trkpt><trkpt lat="39.54875128782542" lon="9.361304421464153"><ele>96.16666666666667</ele><time>2026-04-04T14:57:40Z</time></trkpt><trkpt lat="39.548736430381474" lon="9.361402314723499"><ele>96.0</ele><time>2026-04-04T14:57:41Z</time></trkpt><trkpt lat="39.548711691241046" lon="9.361495856771606"><ele>98.28571428571428</ele><time>2026-04-04T14:57:42Z</time></trkpt><trkpt lat="39.54867093374695" lon="9.36158232466018"><ele>100.57142857142857</ele><time>2026-04-04T14:57:43Z</time></trkpt><trkpt lat="39.54862145016147" lon="9.36165389294153"><ele>102.85714285714286</ele><time>2026-04-04T14:57:44Z</time></trkpt><trkpt lat="39.548572420127435" lon="9.361727085248882"><ele>105.14285714285714</ele><time>2026-04-04T14:57:45Z</time></trkpt><trkpt lat="39.54852442451049" lon="9.361795833846415"><ele>107.42857142857143</ele><time>2026-04-04T14:57:46Z</time></trkpt><trkpt lat="39.548472232141016" lon="9.361859966513872"><ele>109.71428571428571</ele><time>2026-04-04T14:57:47Z</time></trkpt><trkpt lat="39.54841668733792" lon="9.36191341515477"><ele>112.0</ele><time>2026-04-04T14:57:48Z</time></trkpt><trkpt lat="39.548351772097" lon="9.361954602499152"><ele>112.0</ele><time>2026-04-04T14:57:49Z</time></trkpt><trkpt lat="39.54828086982142" lon="9.361971956155589"><ele>112.0</ele><time>2026-04-04T14:57:50Z</time></trkpt><trkpt lat="39.548207917287755" lon="9.361975560386718"><ele>112.0</ele><time>2026-04-04T14:57:51Z</time></trkpt><trkpt lat="39.54813565365313" lon="9.36195837348863"><ele>112.0</ele><time>2026-04-04T14:57:52Z</time></trkpt><trkpt lat="39.5480656775289" lon="9.361935542786723"><ele>112.0</ele><time>2026-04-04T14:57:53Z</time></trkpt><trkpt lat="39.5479950042248" lon="9.361910042257435"><ele>112.0</ele><time>2026-04-04T14:57:54Z</time></trkpt><trkpt lat="39.54792389782634" lon="9.361880838648464"><ele>112.0</ele><time>2026-04-04T14:57:55Z</time></trkpt><trkpt lat="39.54784620336292" lon="9.361857389144557"><ele>113.8</ele><time>2026-04-04T14:57:56Z</time></trkpt><trkpt lat="39.54776130296165" lon="9.361837984791494"><ele>115.6</ele><time>2026-04-04T14:57:57Z</time></trkpt><trkpt lat="39.5476699349405" lon="9.361823549173616"><ele>117.39999999999999</ele><time>2026-04-04T14:57:58Z</time></trkpt><trkpt lat="39.547572919766864" lon="9.361829138504906"><ele>119.19999999999999</ele><time>2026-04-04T14:57:59Z</time></trkpt><trkpt lat="39.54747213239182" lon="9.361849954019542"><ele>121.0</ele><time>2026-04-04T14:58:00Z</time></trkpt><trkpt lat="39.54738057885463" lon="9.361891014621191"><ele>121.00000000000001</ele><time>2026-04-04T14:58:01Z</time></trkpt><trkpt lat="39.54730926375208" lon="9.361955190407514"><ele>121.0</ele><time>2026-04-04T14:58:02Z</time></trkpt><trkpt lat="39.54726575671552" lon="9.362041468525158"><ele>121.0</ele><time>2026-04-04T14:58:03Z</time></trkpt><trkpt lat="39.54724991594723" lon="9.362130885423593"><ele>121.0</ele><time>2026-04-04T14:58:04Z</time></trkpt><trkpt lat="39.5472389671622" lon="9.362285890500925"><ele>121.00000000000001</ele><time>2026-04-04T14:58:06Z</time></trkpt><trkpt lat="39.54722932826636" lon="9.362376740074737"><ele>121.0</ele><time>2026-04-04T14:58:07Z</time></trkpt><trkpt lat="39.54721223364531" lon="9.362475236578305"><ele>119.50000000000001</ele><time>2026-04-04T14:58:08Z</time></trkpt><trkpt lat="39.54719088770768" lon="9.362573857779154"><ele>118.0</ele><time>2026-04-04T14:58:09Z</time></trkpt><trkpt lat="39.54716843213581" lon="9.362672395659725"><ele>116.5</ele><time>2026-04-04T14:58:10Z</time></trkpt><trkpt lat="39.54714634659757" lon="9.362773916203759"><ele>115.0</ele><time>2026-04-04T14:58:11Z</time></trkpt><trkpt lat="39.54712447173095" lon="9.362871241552416"><ele>113.50000000000001</ele><time>2026-04-04T14:58:12Z</time></trkpt><trkpt lat="39.54710474518699" lon="9.36297220351535"><ele>112.0</ele><time>2026-04-04T14:58:13Z</time></trkpt><trkpt lat="39.54708172804879" lon="9.363071016232139"><ele>111.50000000000001</ele><time>2026-04-04T14:58:14Z</time></trkpt><trkpt lat="39.54705311258285" lon="9.36316545631614"><ele>111.0</ele><time>2026-04-04T14:58:15Z</time></trkpt><trkpt lat="39.54701777439207" lon="9.363253714693833"><ele>110.5</ele><time>2026-04-04T14:58:16Z</time></trkpt><trkpt lat="39.54697041982227" lon="9.363332815194262"><ele>110.0</ele><time>2026-04-04T14:58:17Z</time></trkpt><trkpt lat="39.546910334218865" lon="9.36340503180862"><ele>109.50000000000001</ele><time>2026-04-04T14:58:18Z</time></trkpt><trkpt lat="39.546855257679994" lon="9.363464586705728"><ele>109.0</ele><time>2026-04-04T14:58:19Z</time></trkpt><trkpt lat="39.546791362662724" lon="9.363524000732086"><ele>113.0</ele><time>2026-04-04T14:58:20Z</time></trkpt><trkpt lat="39.546723006578205" lon="9.363576360794532"><ele>117.0</ele><time>2026-04-04T14:58:21Z</time></trkpt><trkpt lat="39.54664666983319" lon="9.3636256051204"><ele>121.0</ele><time>2026-04-04T14:58:22Z</time></trkpt><trkpt lat="39.54656543821837" lon="9.363676986498314"><ele>125.0</ele><time>2026-04-04T14:58:23Z</time></trkpt><trkpt lat="39.54647789599165" lon="9.363728180456828"><ele>129.0</ele><time>2026-04-04T14:58:24Z</time></trkpt><trkpt lat="39.54638699897349" lon="9.363778958021424"><ele>129.0</ele><time>2026-04-04T14:58:25Z</time></trkpt><trkpt lat="39.54629430894437" lon="9.363841766527036"><ele>129.0</ele><time>2026-04-04T14:58:26Z</time></trkpt><trkpt lat="39.54619983698176" lon="9.363907839122472"><ele>129.0</ele><time>2026-04-04T14:58:27Z</time></trkpt><trkpt lat="39.54609977883294" lon="9.363971731268865"><ele>129.0</ele><time>2026-04-04T14:58:28Z</time></trkpt><trkpt lat="39.54599778314364" lon="9.364040019002877"><ele>129.0</ele><time>2026-04-04T14:58:29Z</time></trkpt><trkpt lat="39.54589937695764" lon="9.364113667061261"><ele>130.5</ele><time>2026-04-04T14:58:30Z</time></trkpt><trkpt lat="39.54580407046406" lon="9.364183943425028"><ele>132.0</ele><time>2026-04-04T14:58:31Z</time></trkpt><trkpt lat="39.54570068407043" lon="9.36424096060296"><ele>133.5</ele><time>2026-04-04T14:58:32Z</time></trkpt><trkpt lat="39.54558667467543" lon="9.364278406671904"><ele>135.0</ele><time>2026-04-04T14:58:33Z</time></trkpt><trkpt lat="39.545465539162215" lon="9.36429847255742"><ele>138.75</ele><time>2026-04-04T14:58:34Z</time></trkpt><trkpt lat="39.54533550025959" lon="9.364301333071547"><ele>142.5</ele><time>2026-04-04T14:58:35Z</time></trkpt><trkpt lat="39.54520044766382" lon="9.364285988433066"><ele>146.25</ele><time>2026-04-04T14:58:36Z</time></trkpt><trkpt lat="39.5450562722655" lon="9.364251459316208"><ele>150.0</ele><time>2026-04-04T14:58:37Z</time></trkpt><trkpt lat="39.544909419862115" lon="9.364196226397132"><ele>150.0</ele><time>2026-04-04T14:58:38Z</time></trkpt><trkpt lat="39.54476461128888" lon="9.364143892534152"><ele>150.0</ele><time>2026-04-04T14:58:39Z</time></trkpt><trkpt lat="39.54459086457574" lon="9.36408681501375"><ele>150.0</ele><time>2026-04-04T14:58:40Z</time></trkpt><trkpt lat="39.544433546152305" lon="9.364054001914266"><ele>150.75</ele><time>2026-04-04T14:58:41Z</time></trkpt><trkpt lat="39.54427934772866" lon="9.36404634196532"><ele>151.5</ele><time>2026-04-04T14:58:42Z</time></trkpt><trkpt lat="39.54413557753814" lon="9.364061668674879"><ele>152.25</ele><time>2026-04-04T14:58:43Z</time></trkpt><trkpt lat="39.54400831810667" lon="9.364104356172502"><ele>153.0</ele><time>2026-04-04T14:58:44Z</time></trkpt><trkpt lat="39.54389483813544" lon="9.364157307277878"><ele>153.0</ele><time>2026-04-04T14:58:45Z</time></trkpt><trkpt lat="39.543788944108165" lon="9.364240304842719"><ele>153.0</ele><time>2026-04-04T14:58:46Z</time></trkpt><trkpt lat="39.543686625903774" lon="9.364319432845576"><ele>153.0</ele><time>2026-04-04T14:58:47Z</time></trkpt><trkpt lat="39.54358744958168" lon="9.364410880035008"><ele>153.0</ele><time>2026-04-04T14:58:48Z</time></trkpt><trkpt lat="39.54349938600541" lon="9.364526845781413"><ele>154.75</ele><time>2026-04-04T14:58:49Z</time></trkpt><trkpt lat="39.543416645465875" lon="9.364661585087148"><ele>156.5</ele><time>2026-04-04T14:58:50Z</time></trkpt><trkpt lat="39.543338426092355" lon="9.364807788861516"><ele>158.25</ele><time>2026-04-04T14:58:51Z</time></trkpt><trkpt lat="39.54326788001782" lon="9.364982461696354"><ele>160.0</ele><time>2026-04-04T14:58:52Z</time></trkpt><trkpt lat="39.543221781718344" lon="9.365203240772816"><ele>160.0</ele><time>2026-04-04T14:58:53Z</time></trkpt><trkpt lat="39.54317002311957" lon="9.36547970388782"><ele>160.0</ele><time>2026-04-04T14:58:54Z</time></trkpt><trkpt lat="39.54312506991884" lon="9.365768645414425"><ele>160.0</ele><time>2026-04-04T14:58:55Z</time></trkpt><trkpt lat="39.54307600686614" lon="9.366074514627185"><ele>158.5</ele><time>2026-04-04T14:58:56Z</time></trkpt><trkpt lat="39.54303668731692" lon="9.366368448980523"><ele>157.0</ele><time>2026-04-04T14:58:57Z</time></trkpt><trkpt lat="39.54298462458068" lon="9.366681259649999"><ele>157.0</ele><time>2026-04-04T14:58:58Z</time></trkpt><trkpt lat="39.54293381085126" lon="9.366975048469781"><ele>157.0</ele><time>2026-04-04T14:58:59Z</time></trkpt><trkpt lat="39.54287791533089" lon="9.367235641230373"><ele>157.0</ele><time>2026-04-04T14:59:00Z</time></trkpt><trkpt lat="39.54280607668542" lon="9.367480845795264"><ele>157.66666666666669</ele><time>2026-04-04T14:59:01Z</time></trkpt><trkpt lat="39.54270196807323" lon="9.367710616183556"><ele>158.33333333333334</ele><time>2026-04-04T14:59:02Z</time></trkpt><trkpt lat="39.54256698020351" lon="9.367920956647328"><ele>159.0</ele><time>2026-04-04T14:59:03Z</time></trkpt><trkpt lat="39.542405001328575" lon="9.368099933325766"><ele>159.0</ele><time>2026-04-04T14:59:04Z</time></trkpt><trkpt lat="39.54222919058182" lon="9.368250125419314"><ele>159.0</ele><time>2026-04-04T14:59:05Z</time></trkpt><trkpt lat="39.542030319732795" lon="9.36836403689666"><ele>159.0</ele><time>2026-04-04T14:59:06Z</time></trkpt><trkpt lat="39.541819652943616" lon="9.368440340841259"><ele>162.33333333333334</ele><time>2026-04-04T14:59:07Z</time></trkpt><trkpt lat="39.54160341246514" lon="9.368486087770684"><ele>165.66666666666669</ele><time>2026-04-04T14:59:08Z</time></trkpt><trkpt lat="39.54138030450289" lon="9.368524423774616"><ele>169.0</ele><time>2026-04-04T14:59:09Z</time></trkpt><trkpt lat="39.54116552698018" lon="9.368583423263802"><ele>167.33333333333334</ele><time>2026-04-04T14:59:10Z</time></trkpt><trkpt lat="39.54095543507436" lon="9.368654182289214"><ele>165.66666666666666</ele><time>2026-04-04T14:59:11Z</time></trkpt><trkpt lat="39.540766399229874" lon="9.368753365565162"><ele>164.0</ele><time>2026-04-04T14:59:12Z</time></trkpt><trkpt lat="39.54060006755195" lon="9.368894526325786"><ele>164.0</ele><time>2026-04-04T14:59:13Z</time></trkpt><trkpt lat="39.54045764878824" lon="9.369078291219962"><ele>164.0</ele><time>2026-04-04T14:59:14Z</time></trkpt><trkpt lat="39.540341164164765" lon="9.369295441755142"><ele>164.0</ele><time>2026-04-04T14:59:15Z</time></trkpt><trkpt lat="39.54024522062896" lon="9.369533757745106"><ele>171.33333333333331</ele><time>2026-04-04T14:59:16Z</time></trkpt><trkpt lat="39.54018173932816" lon="9.369797812673383"><ele>178.66666666666666</ele><time>2026-04-04T14:59:17Z</time></trkpt><trkpt lat="39.540149029513614" lon="9.370075405219403"><ele>186.0</ele><time>2026-04-04T14:59:18Z</time></trkpt><trkpt lat="39.540163336412725" lon="9.370354766971088"><ele>187.5</ele><time>2026-04-04T14:59:19Z</time></trkpt><trkpt lat="39.54021748006421" lon="9.370645259823467"><ele>189.0</ele><time>2026-04-04T14:59:20Z</time></trkpt><trkpt lat="39.54028971616455" lon="9.370938178849391"><ele>189.0</ele><time>2026-04-04T14:59:21Z</time></trkpt><trkpt lat="39.54033597553468" lon="9.371245706320375"><ele>189.0</ele><time>2026-04-04T14:59:22Z</time></trkpt><trkpt lat="39.54040812275431" lon="9.371555148280725"><ele>174.0</ele><time>2026-04-04T14:59:23Z</time></trkpt><trkpt lat="39.54046278814814" lon="9.371874081582893"><ele>159.0</ele><time>2026-04-04T14:59:24Z</time></trkpt><trkpt lat="39.54052470662393" lon="9.37218909303101"><ele>158.5</ele><time>2026-04-04T14:59:25Z</time></trkpt><trkpt lat="39.54059139579914" lon="9.37249084039056"><ele>158.0</ele><time>2026-04-04T14:59:26Z</time></trkpt><trkpt lat="39.5406412255189" lon="9.37279200141887"><ele>161.5</ele><time>2026-04-04T14:59:27Z</time></trkpt><trkpt lat="39.54071120285828" lon="9.373091443898044"><ele>165.0</ele><time>2026-04-04T14:59:28Z</time></trkpt><trkpt lat="39.540737272540945" lon="9.373394650517321"><ele>165.0</ele><time>2026-04-04T14:59:29Z</time></trkpt><trkpt lat="39.540734797153924" lon="9.373697966352156"><ele>165.0</ele><time>2026-04-04T14:59:30Z</time></trkpt><trkpt lat="39.540693157359044" lon="9.373994323757303"><ele>163.5</ele><time>2026-04-04T14:59:31Z</time></trkpt><trkpt lat="39.540625030579044" lon="9.374272842887025"><ele>162.0</ele><time>2026-04-04T14:59:32Z</time></trkpt><trkpt lat="39.540535603373115" lon="9.374542513564666"><ele>159.33333333333334</ele><time>2026-04-04T14:59:33Z</time></trkpt><trkpt lat="39.54048040479236" lon="9.374802356282329"><ele>156.66666666666669</ele><time>2026-04-04T14:59:34Z</time></trkpt><trkpt lat="39.54043692132859" lon="9.37505296512149"><ele>154.0</ele><time>2026-04-04T14:59:35Z</time></trkpt><trkpt lat="39.54042384283968" lon="9.37531025999883"><ele>156.66666666666669</ele><time>2026-04-04T14:59:36Z</time></trkpt><trkpt lat="39.540443408378735" lon="9.375579037968548"><ele>159.33333333333334</ele><time>2026-04-04T14:59:37Z</time></trkpt><trkpt lat="39.54050517218684" lon="9.375836373396782"><ele>162.0</ele><time>2026-04-04T14:59:38Z</time></trkpt><trkpt lat="39.54060102691205" lon="9.376071935150145"><ele>162.0</ele><time>2026-04-04T14:59:39Z</time></trkpt><trkpt lat="39.54073445799815" lon="9.376279299816984"><ele>162.0</ele><time>2026-04-04T14:59:40Z</time></trkpt><trkpt lat="39.540901346246656" lon="9.376456638984012"><ele>162.0</ele><time>2026-04-04T14:59:41Z</time></trkpt><trkpt lat="39.541086381491716" lon="9.37659567751802"><ele>159.66666666666666</ele><time>2026-04-04T14:59:42Z</time></trkpt><trkpt lat="39.54128728451379" lon="9.37670447663766"><ele>157.33333333333331</ele><time>2026-04-04T14:59:43Z</time></trkpt><trkpt lat="39.5414774388526" lon="9.376834935516715"><ele>155.0</ele><time>2026-04-04T14:59:44Z</time></trkpt><trkpt lat="39.54166043892648" lon="9.37696103336835"><ele>155.0</ele><time>2026-04-04T14:59:45Z</time></trkpt><trkpt lat="39.5418194140068" lon="9.377115321539987"><ele>155.0</ele><time>2026-04-04T14:59:46Z</time></trkpt><trkpt lat="39.54196928178776" lon="9.37728589325391"><ele>155.0</ele><time>2026-04-04T14:59:47Z</time></trkpt><trkpt lat="39.542083082033564" lon="9.377505971883256"><ele>154.0</ele><time>2026-04-04T14:59:48Z</time></trkpt><trkpt lat="39.54217580080301" lon="9.377740588563272"><ele>153.0</ele><time>2026-04-04T14:59:49Z</time></trkpt><trkpt lat="39.542235419319184" lon="9.377996240313498"><ele>152.0</ele><time>2026-04-04T14:59:50Z</time></trkpt><trkpt lat="39.5422595217058" lon="9.378260000568877"><ele>152.0</ele><time>2026-04-04T14:59:51Z</time></trkpt><trkpt lat="39.542251317582114" lon="9.378529953159687"><ele>152.0</ele><time>2026-04-04T14:59:52Z</time></trkpt><trkpt lat="39.54221180732549" lon="9.378796951427084"><ele>152.0</ele><time>2026-04-04T14:59:53Z</time></trkpt><trkpt lat="39.542145056307064" lon="9.379047898534854"><ele>162.66666666666666</ele><time>2026-04-04T14:59:54Z</time></trkpt><trkpt lat="39.542036588766436" lon="9.379281059437098"><ele>173.33333333333334</ele><time>2026-04-04T14:59:55Z</time></trkpt><trkpt lat="39.541900270027035" lon="9.379486655746268"><ele>184.0</ele><time>2026-04-04T14:59:56Z</time></trkpt><trkpt lat="39.541740079796725" lon="9.379662903285235"><ele>183.33333333333334</ele><time>2026-04-04T14:59:57Z</time></trkpt><trkpt lat="39.54155865018422" lon="9.379809771382366"><ele>182.66666666666666</ele><time>2026-04-04T14:59:58Z</time></trkpt><trkpt lat="39.54137069366903" lon="9.379936654607011"><ele>182.0</ele><time>2026-04-04T14:59:59Z</time></trkpt><trkpt lat="39.54118153290799" lon="9.38006603143274"><ele>182.0</ele><time>2026-04-04T15:00:00Z</time></trkpt><trkpt lat="39.54100026363285" lon="9.380205926482416"><ele>182.0</ele><time>2026-04-04T15:00:01Z</time></trkpt><trkpt lat="39.540830759195984" lon="9.380368703189928"><ele>182.0</ele><time>2026-04-04T15:00:02Z</time></trkpt><trkpt lat="39.54067409882718" lon="9.380571305687088"><ele>172.66666666666666</ele><time>2026-04-04T15:00:03Z</time></trkpt><trkpt lat="39.5405535822217" lon="9.380805104789193"><ele>163.33333333333334</ele><time>2026-04-04T15:00:04Z</time></trkpt><trkpt lat="39.54047252982896" lon="9.38106524337706"><ele>154.0</ele><time>2026-04-04T15:00:05Z</time></trkpt><trkpt lat="39.54043396319493" lon="9.381356321380139"><ele>148.5</ele><time>2026-04-04T15:00:06Z</time></trkpt><trkpt lat="39.54042013175092" lon="9.381651506704923"><ele>143.0</ele><time>2026-04-04T15:00:07Z</time></trkpt><trkpt lat="39.54040613604097" lon="9.381941844306926"><ele>138.0</ele><time>2026-04-04T15:00:08Z</time></trkpt><trkpt lat="39.54039688980844" lon="9.382233303375918"><ele>133.0</ele><time>2026-04-04T15:00:09Z</time></trkpt><trkpt lat="39.54038198217325" lon="9.3825318276321"><ele>159.0</ele><time>2026-04-04T15:00:10Z</time></trkpt><trkpt lat="39.54036595880368" lon="9.382829029254042"><ele>185.0</ele><time>2026-04-04T15:00:11Z</time></trkpt><trkpt lat="39.54035085391865" lon="9.38312055790984"><ele>185.0</ele><time>2026-04-04T15:00:12Z</time></trkpt><trkpt lat="39.540338629465914" lon="9.383404092797804"><ele>185.0</ele><time>2026-04-04T15:00:13Z</time></trkpt><trkpt lat="39.5403156708976" lon="9.38367498543713"><ele>185.0</ele><time>2026-04-04T15:00:14Z</time></trkpt><trkpt lat="39.540267231746185" lon="9.383939495510878"><ele>180.66666666666666</ele><time>2026-04-04T15:00:15Z</time></trkpt><trkpt lat="39.54018833814104" lon="9.384203455404588"><ele>176.33333333333334</ele><time>2026-04-04T15:00:16Z</time></trkpt><trkpt lat="39.54007864886468" lon="9.384462608110761"><ele>172.0</ele><time>2026-04-04T15:00:17Z</time></trkpt><trkpt lat="39.539956588428055" lon="9.384726971503007"><ele>163.0</ele><time>2026-04-04T15:00:18Z</time></trkpt><trkpt lat="39.539832736720356" lon="9.385002306592867"><ele>154.0</ele><time>2026-04-04T15:00:19Z</time></trkpt><trkpt lat="39.5397177945248" lon="9.385286772391973"><ele>150.33333333333334</ele><time>2026-04-04T15:00:20Z</time></trkpt><trkpt lat="39.539590529495165" lon="9.385535844897694"><ele>146.66666666666666</ele><time>2026-04-04T15:00:21Z</time></trkpt><trkpt lat="39.53950506418059" lon="9.385786360045394"><ele>143.0</ele><time>2026-04-04T15:00:22Z</time></trkpt><trkpt lat="39.539436754653465" lon="9.386082338995964"><ele>159.5</ele><time>2026-04-04T15:00:23Z</time></trkpt><trkpt lat="39.53940678002899" lon="9.3863979749636"><ele>176.0</ele><time>2026-04-04T15:00:24Z</time></trkpt><trkpt lat="39.539413821877815" lon="9.386729059744107"><ele>176.0</ele><time>2026-04-04T15:00:25Z</time></trkpt><trkpt lat="39.53942954170677" lon="9.387058039664945"><ele>176.0</ele><time>2026-04-04T15:00:26Z</time></trkpt><trkpt lat="39.539425405507465" lon="9.387382472726571"><ele>173.0</ele><time>2026-04-04T15:00:27Z</time></trkpt><trkpt lat="39.53942064420597" lon="9.387707014110742"><ele>170.0</ele><time>2026-04-04T15:00:28Z</time></trkpt><trkpt lat="39.53942003518087" lon="9.388024980392279"><ele>169.0</ele><time>2026-04-04T15:00:29Z</time></trkpt><trkpt lat="39.53942142385094" lon="9.388339374533494"><ele>168.0</ele><time>2026-04-04T15:00:30Z</time></trkpt><trkpt lat="39.53941091969864" lon="9.388650006586227"><ele>162.0</ele><time>2026-04-04T15:00:31Z</time></trkpt><trkpt lat="39.5393827163287" lon="9.388961373041804"><ele>156.0</ele><time>2026-04-04T15:00:32Z</time></trkpt><trkpt lat="39.53933525888697" lon="9.389268881424096"><ele>156.0</ele><time>2026-04-04T15:00:33Z</time></trkpt><trkpt lat="39.53928273242105" lon="9.389581501958443"><ele>156.0</ele><time>2026-04-04T15:00:34Z</time></trkpt><trkpt lat="39.53924547799705" lon="9.389904216127581"><ele>145.0</ele><time>2026-04-04T15:00:35Z</time></trkpt><trkpt lat="39.53919733145737" lon="9.39021761348508"><ele>134.0</ele><time>2026-04-04T15:00:36Z</time></trkpt><trkpt lat="39.53914657164962" lon="9.39053549202333"><ele>131.0</ele><time>2026-04-04T15:00:37Z</time></trkpt><trkpt lat="39.5390920276679" lon="9.390855829438694"><ele>128.0</ele><time>2026-04-04T15:00:38Z</time></trkpt><trkpt lat="39.53903464705267" lon="9.39117942332114"><ele>126.5</ele><time>2026-04-04T15:00:39Z</time></trkpt><trkpt lat="39.53897622212056" lon="9.391507616975026"><ele>125.0</ele><time>2026-04-04T15:00:40Z</time></trkpt><trkpt lat="39.53891939078" lon="9.391837105646541"><ele>125.0</ele><time>2026-04-04T15:00:41Z</time></trkpt><trkpt lat="39.538868425259466" lon="9.392157250036453"><ele>125.0</ele><time>2026-04-04T15:00:42Z</time></trkpt><trkpt lat="39.538814447264336" lon="9.392463141496174"><ele>124.0</ele><time>2026-04-04T15:00:43Z</time></trkpt><trkpt lat="39.53875460146086" lon="9.3927508634518"><ele>123.0</ele><time>2026-04-04T15:00:44Z</time></trkpt><trkpt lat="39.53867790717805" lon="9.39301913913531"><ele>127.66666666666666</ele><time>2026-04-04T15:00:45Z</time></trkpt><trkpt lat="39.53857738976006" lon="9.39325834402854"><ele>132.33333333333331</ele><time>2026-04-04T15:00:46Z</time></trkpt><trkpt lat="39.53844975262807" lon="9.393458745035204"><ele>137.0</ele><time>2026-04-04T15:00:47Z</time></trkpt><trkpt lat="39.53829675063756" lon="9.3936381525246"><ele>137.0</ele><time>2026-04-04T15:00:48Z</time></trkpt><trkpt lat="39.538114621387486" lon="9.393789577877513"><ele>137.0</ele><time>2026-04-04T15:00:49Z</time></trkpt><trkpt lat="39.53793122791621" lon="9.393941646302293"><ele>137.0</ele><time>2026-04-04T15:00:50Z</time></trkpt><trkpt lat="39.537749040479255" lon="9.39409688554071"><ele>130.0</ele><time>2026-04-04T15:00:51Z</time></trkpt><trkpt lat="39.53755594850284" lon="9.394287203999253"><ele>123.0</ele><time>2026-04-04T15:00:52Z</time></trkpt><trkpt lat="39.53736240709292" lon="9.394446103759558"><ele>123.0</ele><time>2026-04-04T15:00:53Z</time></trkpt><trkpt lat="39.53716922095435" lon="9.394603368558437"><ele>123.0</ele><time>2026-04-04T15:00:54Z</time></trkpt><trkpt lat="39.536979037340586" lon="9.394766263122742"><ele>121.66666666666666</ele><time>2026-04-04T15:00:55Z</time></trkpt><trkpt lat="39.53679148283104" lon="9.394928665287889"><ele>120.33333333333333</ele><time>2026-04-04T15:00:56Z</time></trkpt><trkpt lat="39.536603566199496" lon="9.39508516548579"><ele>119.0</ele><time>2026-04-04T15:00:57Z</time></trkpt><trkpt lat="39.536423328182416" lon="9.395255658667525"><ele>119.0</ele><time>2026-04-04T15:00:58Z</time></trkpt><trkpt lat="39.53625943779732" lon="9.395449914099911"><ele>119.0</ele><time>2026-04-04T15:00:59Z</time></trkpt><trkpt lat="39.5361094967097" lon="9.395671205281996"><ele>119.0</ele><time>2026-04-04T15:01:00Z</time></trkpt><trkpt lat="39.53596189494506" lon="9.395898663487177"><ele>109.0</ele><time>2026-04-04T15:01:01Z</time></trkpt><trkpt lat="39.535810969703775" lon="9.396131048833942"><ele>99.0</ele><time>2026-04-04T15:01:02Z</time></trkpt><trkpt lat="39.53565773905422" lon="9.396357378853168"><ele>89.5</ele><time>2026-04-04T15:01:03Z</time></trkpt><trkpt lat="39.53550135925346" lon="9.396585521780741"><ele>80.0</ele><time>2026-04-04T15:01:04Z</time></trkpt><trkpt lat="39.53534784538985" lon="9.396819472510412"><ele>79.0</ele><time>2026-04-04T15:01:05Z</time></trkpt><trkpt lat="39.535196409463666" lon="9.39705950165096"><ele>78.0</ele><time>2026-04-04T15:01:06Z</time></trkpt><trkpt lat="39.53504243030806" lon="9.397300246750856"><ele>73.0</ele><time>2026-04-04T15:01:07Z</time></trkpt><trkpt lat="39.53488593408008" lon="9.397538360961116"><ele>68.0</ele><time>2026-04-04T15:01:08Z</time></trkpt><trkpt lat="39.53472776246709" lon="9.39777413410828"><ele>68.0</ele><time>2026-04-04T15:01:09Z</time></trkpt><trkpt lat="39.53456754915935" lon="9.398009277402052"><ele>68.0</ele><time>2026-04-04T15:01:10Z</time></trkpt><trkpt lat="39.53440536312521" lon="9.398247715738254"><ele>68.0</ele><time>2026-04-04T15:01:11Z</time></trkpt><trkpt lat="39.534246878426856" lon="9.398487701856705"><ele>68.0</ele><time>2026-04-04T15:01:12Z</time></trkpt><trkpt lat="39.53409094178864" lon="9.39872562133269"><ele>72.5</ele><time>2026-04-04T15:01:13Z</time></trkpt><trkpt lat="39.533934829956564" lon="9.398967115742433"><ele>77.0</ele><time>2026-04-04T15:01:14Z</time></trkpt><trkpt lat="39.53377897046964" lon="9.399208862949239"><ele>74.5</ele><time>2026-04-04T15:01:15Z</time></trkpt><trkpt lat="39.53362045818339" lon="9.399451408292984"><ele>72.0</ele><time>2026-04-04T15:01:16Z</time></trkpt><trkpt lat="39.533459125303416" lon="9.399693153604279"><ele>78.0</ele><time>2026-04-04T15:01:17Z</time></trkpt><trkpt lat="39.533298180702964" lon="9.399935414598655"><ele>84.0</ele><time>2026-04-04T15:01:18Z</time></trkpt><trkpt lat="39.53313876314846" lon="9.40018209162218"><ele>84.0</ele><time>2026-04-04T15:01:19Z</time></trkpt><trkpt lat="39.53297929036827" lon="9.400430515447106"><ele>84.0</ele><time>2026-04-04T15:01:20Z</time></trkpt><trkpt lat="39.53281654537629" lon="9.400678500419101"><ele>81.5</ele><time>2026-04-04T15:01:21Z</time></trkpt><trkpt lat="39.53265048785816" lon="9.400923072571935"><ele>79.0</ele><time>2026-04-04T15:01:22Z</time></trkpt><trkpt lat="39.53247939189663" lon="9.40116626861598"><ele>80.0</ele><time>2026-04-04T15:01:23Z</time></trkpt><trkpt lat="39.532302591417256" lon="9.40140615895166"><ele>81.0</ele><time>2026-04-04T15:01:24Z</time></trkpt><trkpt lat="39.53211956883697" lon="9.40164190376362"><ele>77.0</ele><time>2026-04-04T15:01:25Z</time></trkpt><trkpt lat="39.53193256996988" lon="9.401875457284607"><ele>73.0</ele><time>2026-04-04T15:01:26Z</time></trkpt><trkpt lat="39.53173833393799" lon="9.402101300439572"><ele>74.5</ele><time>2026-04-04T15:01:27Z</time></trkpt><trkpt lat="39.53153469255129" lon="9.402315528114018"><ele>76.0</ele><time>2026-04-04T15:01:28Z</time></trkpt><trkpt lat="39.53132163439963" lon="9.402511294048036"><ele>73.0</ele><time>2026-04-04T15:01:29Z</time></trkpt><trkpt lat="39.53109542366091" lon="9.402692261719809"><ele>70.0</ele><time>2026-04-04T15:01:30Z</time></trkpt><trkpt lat="39.53086345518051" lon="9.40286200030848"><ele>67.5</ele><time>2026-04-04T15:01:31Z</time></trkpt><trkpt lat="39.530623791439666" lon="9.403026026930865"><ele>65.0</ele><time>2026-04-04T15:01:32Z</time></trkpt><trkpt lat="39.53037574883611" lon="9.403174805649893"><ele>77.0</ele><time>2026-04-04T15:01:33Z</time></trkpt><trkpt lat="39.5301205733401" lon="9.40330752543124"><ele>89.0</ele><time>2026-04-04T15:01:34Z</time></trkpt><trkpt lat="39.52985940973904" lon="9.403420448265456"><ele>89.0</ele><time>2026-04-04T15:01:35Z</time></trkpt><trkpt lat="39.529589688145705" lon="9.403509073583837"><ele>89.0</ele><time>2026-04-04T15:01:36Z</time></trkpt><trkpt lat="39.52931537499899" lon="9.403582071498793"><ele>93.5</ele><time>2026-04-04T15:01:37Z</time></trkpt><trkpt lat="39.52903824263471" lon="9.403636724633929"><ele>98.0</ele><time>2026-04-04T15:01:38Z</time></trkpt><trkpt lat="39.52875810992712" lon="9.403678347232129"><ele>94.5</ele><time>2026-04-04T15:01:39Z</time></trkpt><trkpt lat="39.528476420885276" lon="9.403706178427894"><ele>91.0</ele><time>2026-04-04T15:01:40Z</time></trkpt><trkpt lat="39.528194126600646" lon="9.403714005083414"><ele>91.0</ele><time>2026-04-04T15:01:41Z</time></trkpt><trkpt lat="39.52791122675863" lon="9.403708812717564"><ele>91.0</ele><time>2026-04-04T15:01:42Z</time></trkpt><trkpt lat="39.52762925437473" lon="9.403684579155655"><ele>89.5</ele><time>2026-04-04T15:01:43Z</time></trkpt><trkpt lat="39.527354262252416" lon="9.403615938984217"><ele>88.0</ele><time>2026-04-04T15:01:44Z</time></trkpt><trkpt lat="39.52707585729314" lon="9.40357509027545"><ele>87.0</ele><time>2026-04-04T15:01:45Z</time></trkpt><trkpt lat="39.52679968101818" lon="9.403509833994635"><ele>86.0</ele><time>2026-04-04T15:01:46Z</time></trkpt><trkpt lat="39.526526110552346" lon="9.40344826422502"><ele>86.0</ele><time>2026-04-04T15:01:47Z</time></trkpt><trkpt lat="39.52625288518685" lon="9.403389004182419"><ele>86.0</ele><time>2026-04-04T15:01:48Z</time></trkpt><trkpt lat="39.525979177198444" lon="9.403328475143319"><ele>84.0</ele><time>2026-04-04T15:01:49Z</time></trkpt><trkpt lat="39.52570543956423" lon="9.40326643698208"><ele>82.0</ele><time>2026-04-04T15:01:50Z</time></trkpt><trkpt lat="39.52543341213938" lon="9.403208506316334"><ele>80.5</ele><time>2026-04-04T15:01:51Z</time></trkpt><trkpt lat="39.52515998477166" lon="9.403162892466284"><ele>79.0</ele><time>2026-04-04T15:01:52Z</time></trkpt><trkpt lat="39.52488445205313" lon="9.403134284543448"><ele>79.0</ele><time>2026-04-04T15:01:53Z</time></trkpt><trkpt lat="39.52460601323603" lon="9.403121748708683"><ele>79.0</ele><time>2026-04-04T15:01:54Z</time></trkpt><trkpt lat="39.524325410187906" lon="9.403128575795614"><ele>76.5</ele><time>2026-04-04T15:01:55Z</time></trkpt><trkpt lat="39.52404382698894" lon="9.403145967889758"><ele>74.0</ele><time>2026-04-04T15:01:56Z</time></trkpt><trkpt lat="39.523759010233924" lon="9.403176586629188"><ele>72.5</ele><time>2026-04-04T15:01:57Z</time></trkpt><trkpt lat="39.52347276102851" lon="9.403218687052535"><ele>71.0</ele><time>2026-04-04T15:01:58Z</time></trkpt><trkpt lat="39.52318864127686" lon="9.403266731233352"><ele>71.0</ele><time>2026-04-04T15:01:59Z</time></trkpt><trkpt lat="39.522903568417725" lon="9.403317920183397"><ele>71.0</ele><time>2026-04-04T15:02:00Z</time></trkpt><trkpt lat="39.52261954714084" lon="9.403370789542391"><ele>73.0</ele><time>2026-04-04T15:02:01Z</time></trkpt><trkpt lat="39.52233982177788" lon="9.403420996386492"><ele>75.0</ele><time>2026-04-04T15:02:02Z</time></trkpt><trkpt lat="39.522058200812545" lon="9.403469675829317"><ele>77.5</ele><time>2026-04-04T15:02:03Z</time></trkpt><trkpt lat="39.52177979272128" lon="9.4035177841124"><ele>80.0</ele><time>2026-04-04T15:02:04Z</time></trkpt><trkpt lat="39.5215053579859" lon="9.403565564114519"><ele>77.0</ele><time>2026-04-04T15:02:05Z</time></trkpt><trkpt lat="39.521232217238364" lon="9.403614925115281"><ele>74.0</ele><time>2026-04-04T15:02:06Z</time></trkpt><trkpt lat="39.520966532463106" lon="9.403664261966867"><ele>74.0</ele><time>2026-04-04T15:02:07Z</time></trkpt><trkpt lat="39.520710222830175" lon="9.40370909424427"><ele>74.0</ele><time>2026-04-04T15:02:08Z</time></trkpt><trkpt lat="39.52045990216193" lon="9.403753544579724"><ele>69.5</ele><time>2026-04-04T15:02:09Z</time></trkpt><trkpt lat="39.520213552962495" lon="9.403800036281108"><ele>65.0</ele><time>2026-04-04T15:02:10Z</time></trkpt><trkpt lat="39.51997026615181" lon="9.403853206722287"><ele>65.0</ele><time>2026-04-04T15:02:11Z</time></trkpt><trkpt lat="39.51972737933955" lon="9.40391551898648"><ele>65.0</ele><time>2026-04-04T15:02:12Z</time></trkpt><trkpt lat="39.5194898720631" lon="9.403992530120432"><ele>65.0</ele><time>2026-04-04T15:02:13Z</time></trkpt><trkpt lat="39.51925333074813" lon="9.404083326497904"><ele>65.0</ele><time>2026-04-04T15:02:14Z</time></trkpt><trkpt lat="39.51901716531162" lon="9.404181925264298"><ele>65.0</ele><time>2026-04-04T15:02:15Z</time></trkpt><trkpt lat="39.51878060668871" lon="9.40428749656009"><ele>65.0</ele><time>2026-04-04T15:02:16Z</time></trkpt><trkpt lat="39.51854783402054" lon="9.40440389287175"><ele>65.0</ele><time>2026-04-04T15:02:17Z</time></trkpt><trkpt lat="39.51831705838027" lon="9.404533879177364"><ele>65.0</ele><time>2026-04-04T15:02:18Z</time></trkpt><trkpt lat="39.51809054045001" lon="9.404675935643304"><ele>85.0</ele><time>2026-04-04T15:02:19Z</time></trkpt><trkpt lat="39.5178727142494" lon="9.404826451705205"><ele>105.0</ele><time>2026-04-04T15:02:20Z</time></trkpt><trkpt lat="39.517658271002155" lon="9.404984961697139"><ele>105.0</ele><time>2026-04-04T15:02:21Z</time></trkpt><trkpt lat="39.5174474708565" lon="9.40514884235736"><ele>105.0</ele><time>2026-04-04T15:02:22Z</time></trkpt><trkpt lat="39.5172381454552" lon="9.405308823288577"><ele>121.0</ele><time>2026-04-04T15:02:23Z</time></trkpt><trkpt lat="39.5170305471441" lon="9.405466972270771"><ele>137.0</ele><time>2026-04-04T15:02:24Z</time></trkpt><trkpt lat="39.51682530081708" lon="9.405626019961767"><ele>137.0</ele><time>2026-04-04T15:02:25Z</time></trkpt><trkpt lat="39.516621437539875" lon="9.405784613623265"><ele>137.0</ele><time>2026-04-04T15:02:26Z</time></trkpt><trkpt lat="39.51641904385618" lon="9.405941850452171"><ele>139.5</ele><time>2026-04-04T15:02:27Z</time></trkpt><trkpt lat="39.51621279226147" lon="9.406103095446651"><ele>142.0</ele><time>2026-04-04T15:02:28.026Z</time></trkpt><trkpt lat="39.51601385294123" lon="9.40625963120794"><ele>128.5</ele><time>2026-04-04T15:02:29.026Z</time></trkpt><trkpt lat="39.51581593522009" lon="9.406415100442802"><ele>115.0</ele><time>2026-04-04T15:02:30.026Z</time></trkpt><trkpt lat="39.51561907157552" lon="9.406570485526567"><ele>115.0</ele><time>2026-04-04T15:02:31.025Z</time></trkpt><trkpt lat="39.51543196580435" lon="9.406717593035378"><ele>115.0</ele><time>2026-04-04T15:02:31.975Z</time></trkpt><trkpt lat="39.51488218121794" lon="9.407094837827639"><ele>108.33333333333334</ele><time>2026-04-04T15:02:34.7Z</time></trkpt><trkpt lat="39.514698831288825" lon="9.407247958523746"><ele>101.66666666666667</ele><time>2026-04-04T15:02:35.65Z</time></trkpt><trkpt lat="39.51452266936193" lon="9.407421708592265"><ele>95.0</ele><time>2026-04-04T15:02:36.6Z</time></trkpt><trkpt lat="39.51434670458143" lon="9.407607061445278"><ele>95.0</ele><time>2026-04-04T15:02:37.55Z</time></trkpt><trkpt lat="39.51417694418619" lon="9.407799368970378"><ele>95.0</ele><time>2026-04-04T15:02:38.5Z</time></trkpt><trkpt lat="39.51401147312058" lon="9.407992994965674"><ele>95.0</ele><time>2026-04-04T15:02:39.45Z</time></trkpt><trkpt lat="39.513845546845246" lon="9.408189897746622"><ele>95.33333333333334</ele><time>2026-04-04T15:02:40.4Z</time></trkpt><trkpt lat="39.51367715305853" lon="9.408379080130961"><ele>95.66666666666667</ele><time>2026-04-04T15:02:41.35Z</time></trkpt><trkpt lat="39.51350039147625" lon="9.408550602930797"><ele>96.0</ele><time>2026-04-04T15:02:42.3Z</time></trkpt><trkpt lat="39.5133165168585" lon="9.408708368841632"><ele>94.66666666666667</ele><time>2026-04-04T15:02:43.25Z</time></trkpt><trkpt lat="39.51312268890491" lon="9.408850712104474"><ele>93.33333333333334</ele><time>2026-04-04T15:02:44.2Z</time></trkpt><trkpt lat="39.512922078377684" lon="9.408981968398733"><ele>92.0</ele><time>2026-04-04T15:02:45.15Z</time></trkpt><trkpt lat="39.51271644432453" lon="9.409100677318422"><ele>92.0</ele><time>2026-04-04T15:02:46.1Z</time></trkpt><trkpt lat="39.51250852730687" lon="9.409212155867662"><ele>92.0</ele><time>2026-04-04T15:02:47.05Z</time></trkpt><trkpt lat="39.512304218676114" lon="9.409332965334338"><ele>92.0</ele><time>2026-04-04T15:02:48Z</time></trkpt><trkpt lat="39.51209945559706" lon="9.409481852728875"><ele>92.0</ele><time>2026-04-04T15:02:49Z</time></trkpt><trkpt lat="39.51191026252524" lon="9.40965614454977"><ele>88.0</ele><time>2026-04-04T15:02:50Z</time></trkpt><trkpt lat="39.51174072526623" lon="9.409860525002609"><ele>84.0</ele><time>2026-04-04T15:02:51Z</time></trkpt><trkpt lat="39.51158747311959" lon="9.410086777661485"><ele>84.0</ele><time>2026-04-04T15:02:52Z</time></trkpt><trkpt lat="39.51145610849613" lon="9.410336102857244"><ele>84.0</ele><time>2026-04-04T15:02:53Z</time></trkpt><trkpt lat="39.511350735458926" lon="9.410603596734513"><ele>81.0</ele><time>2026-04-04T15:02:54Z</time></trkpt><trkpt lat="39.51126861156482" lon="9.410883567877486"><ele>78.0</ele><time>2026-04-04T15:02:55Z</time></trkpt><trkpt lat="39.51121385733826" lon="9.411179385095778"><ele>86.0</ele><time>2026-04-04T15:02:56Z</time></trkpt><trkpt lat="39.51116737171306" lon="9.411475828465255"><ele>94.0</ele><time>2026-04-04T15:02:57Z</time></trkpt><trkpt lat="39.51111701167862" lon="9.41176994765572"><ele>94.0</ele><time>2026-04-04T15:02:58Z</time></trkpt><trkpt lat="39.5110654823263" lon="9.41206513718206"><ele>94.0</ele><time>2026-04-04T15:02:59Z</time></trkpt><trkpt lat="39.51101089416902" lon="9.412360541037707"><ele>93.0</ele><time>2026-04-04T15:03:00Z</time></trkpt><trkpt lat="39.5109475303947" lon="9.412655233514206"><ele>92.0</ele><time>2026-04-04T15:03:01Z</time></trkpt><trkpt lat="39.510876564020826" lon="9.412946368562652"><ele>89.0</ele><time>2026-04-04T15:03:02Z</time></trkpt><trkpt lat="39.51080425923906" lon="9.413236411780504"><ele>86.0</ele><time>2026-04-04T15:03:03Z</time></trkpt><trkpt lat="39.51073345038991" lon="9.41352391557802"><ele>86.0</ele><time>2026-04-04T15:03:04Z</time></trkpt><trkpt lat="39.51065096821804" lon="9.413803830075311"><ele>86.0</ele><time>2026-04-04T15:03:05Z</time></trkpt><trkpt lat="39.51055959143216" lon="9.414076768574468"><ele>83.5</ele><time>2026-04-04T15:03:06Z</time></trkpt><trkpt lat="39.5104633506275" lon="9.414345301741697"><ele>81.0</ele><time>2026-04-04T15:03:07Z</time></trkpt><trkpt lat="39.51035967466593" lon="9.414613563736866"><ele>103.5</ele><time>2026-04-04T15:03:08Z</time></trkpt><trkpt lat="39.51025448487629" lon="9.41487882876456"><ele>126.0</ele><time>2026-04-04T15:03:09Z</time></trkpt><trkpt lat="39.510152324360064" lon="9.415144559597458"><ele>126.0</ele><time>2026-04-04T15:03:10Z</time></trkpt><trkpt lat="39.51005260852519" lon="9.415409634988993"><ele>126.0</ele><time>2026-04-04T15:03:11Z</time></trkpt><trkpt lat="39.5099507647341" lon="9.415670864881964"><ele>134.33333333333334</ele><time>2026-04-04T15:03:12Z</time></trkpt><trkpt lat="39.509846484637784" lon="9.415928446207053"><ele>142.66666666666669</ele><time>2026-04-04T15:03:13Z</time></trkpt><trkpt lat="39.509743593839715" lon="9.416185178172093"><ele>151.0</ele><time>2026-04-04T15:03:14Z</time></trkpt><trkpt lat="39.509640056102334" lon="9.416449363902183"><ele>146.33333333333334</ele><time>2026-04-04T15:03:15.025Z</time></trkpt><trkpt lat="39.50953959390092" lon="9.41670342199918"><ele>141.66666666666666</ele><time>2026-04-04T15:03:16.025Z</time></trkpt><trkpt lat="39.50943425122709" lon="9.41695171862161"><ele>137.0</ele><time>2026-04-04T15:03:17.026Z</time></trkpt><trkpt lat="39.508601659639474" lon="9.417804974755843"><ele>105.5</ele><time>2026-04-04T15:03:22.05Z</time></trkpt><trkpt lat="39.50837345086054" lon="9.41804356042214"><ele>74.0</ele><time>2026-04-04T15:03:23Z</time></trkpt><trkpt lat="39.50814680214332" lon="9.418144470610033"><ele>74.0</ele><time>2026-04-04T15:03:24Z</time></trkpt><trkpt lat="39.50793381954628" lon="9.418226706202818"><ele>74.0</ele><time>2026-04-04T15:03:25Z</time></trkpt><trkpt lat="39.50772180386029" lon="9.418308815404798"><ele>74.0</ele><time>2026-04-04T15:03:26Z</time></trkpt><trkpt lat="39.5075093565614" lon="9.418415915680505"><ele>76.5</ele><time>2026-04-04T15:03:27Z</time></trkpt><trkpt lat="39.507308850827194" lon="9.41855723517173"><ele>79.0</ele><time>2026-04-04T15:03:28Z</time></trkpt><trkpt lat="39.50712139726751" lon="9.418732722437776"><ele>83.0</ele><time>2026-04-04T15:03:29Z</time></trkpt><trkpt lat="39.506953391582" lon="9.418950579843647"><ele>87.0</ele><time>2026-04-04T15:03:30Z</time></trkpt><trkpt lat="39.5068027833962" lon="9.419187877859406"><ele>87.0</ele><time>2026-04-04T15:03:31Z</time></trkpt><trkpt lat="39.50666685728877" lon="9.419441486178078"><ele>87.0</ele><time>2026-04-04T15:03:32Z</time></trkpt><trkpt lat="39.506537072471524" lon="9.419706760351248"><ele>79.0</ele><time>2026-04-04T15:03:33Z</time></trkpt><trkpt lat="39.50640779950014" lon="9.419975824831825"><ele>71.0</ele><time>2026-04-04T15:03:34Z</time></trkpt><trkpt lat="39.5062848515482" lon="9.420248313564201"><ele>83.5</ele><time>2026-04-04T15:03:35Z</time></trkpt><trkpt lat="39.50617287042213" lon="9.42053020096724"><ele>96.0</ele><time>2026-04-04T15:03:36Z</time></trkpt><trkpt lat="39.50606884034998" lon="9.42081670004521"><ele>96.0</ele><time>2026-04-04T15:03:37Z</time></trkpt><trkpt lat="39.50596887113653" lon="9.421110446162185"><ele>96.0</ele><time>2026-04-04T15:03:38Z</time></trkpt><trkpt lat="39.50587144976851" lon="9.42140426987743"><ele>85.5</ele><time>2026-04-04T15:03:39Z</time></trkpt><trkpt lat="39.50577263813943" lon="9.421699684592706"><ele>75.0</ele><time>2026-04-04T15:03:40Z</time></trkpt><trkpt lat="39.505671014598455" lon="9.42199127202145"><ele>73.0</ele><time>2026-04-04T15:03:41Z</time></trkpt><trkpt lat="39.505568302466706" lon="9.422282717609049"><ele>71.0</ele><time>2026-04-04T15:03:42Z</time></trkpt><trkpt lat="39.505468315104864" lon="9.4225756956555"><ele>83.5</ele><time>2026-04-04T15:03:43Z</time></trkpt><trkpt lat="39.50536938184918" lon="9.422868071881217"><ele>96.0</ele><time>2026-04-04T15:03:44Z</time></trkpt><trkpt lat="39.50526434486913" lon="9.42315662872223"><ele>96.0</ele><time>2026-04-04T15:03:45Z</time></trkpt><trkpt lat="39.50514773889028" lon="9.423439310540871"><ele>96.0</ele><time>2026-04-04T15:03:46Z</time></trkpt><trkpt lat="39.50502823888754" lon="9.423720331677467"><ele>88.0</ele><time>2026-04-04T15:03:47Z</time></trkpt><trkpt lat="39.50490668630957" lon="9.424002267983486"><ele>80.0</ele><time>2026-04-04T15:03:48Z</time></trkpt><trkpt lat="39.50478177889996" lon="9.424286329698772"><ele>80.0</ele><time>2026-04-04T15:03:49Z</time></trkpt><trkpt lat="39.50466312477743" lon="9.4245642286054"><ele>80.0</ele><time>2026-04-04T15:03:50Z</time></trkpt><trkpt lat="39.50454585515301" lon="9.424842707800584"><ele>70.0</ele><time>2026-04-04T15:03:51Z</time></trkpt><trkpt lat="39.5044336460808" lon="9.425120007182953"><ele>60.0</ele><time>2026-04-04T15:03:52Z</time></trkpt><trkpt lat="39.5043111416782" lon="9.42539785701991"><ele>62.0</ele><time>2026-04-04T15:03:53Z</time></trkpt><trkpt lat="39.50418778087007" lon="9.425673697951925"><ele>64.0</ele><time>2026-04-04T15:03:54Z</time></trkpt><trkpt lat="39.504068222698" lon="9.425949028251727"><ele>64.0</ele><time>2026-04-04T15:03:55Z</time></trkpt><trkpt lat="39.50395129315507" lon="9.426224240083053"><ele>64.0</ele><time>2026-04-04T15:03:56Z</time></trkpt><trkpt lat="39.503834185849534" lon="9.426498587905394"><ele>73.0</ele><time>2026-04-04T15:03:57Z</time></trkpt><trkpt lat="39.50371839216866" lon="9.42677252213653"><ele>82.0</ele><time>2026-04-04T15:03:58Z</time></trkpt><trkpt lat="39.503613269374426" lon="9.427054301077746"><ele>85.0</ele><time>2026-04-04T15:03:59Z</time></trkpt><trkpt lat="39.50352428404551" lon="9.427343433264106"><ele>88.0</ele><time>2026-04-04T15:04:00Z</time></trkpt><trkpt lat="39.50345777899831" lon="9.427645373366808"><ele>88.0</ele><time>2026-04-04T15:04:01Z</time></trkpt><trkpt lat="39.50341772360054" lon="9.427957584688455"><ele>88.0</ele><time>2026-04-04T15:04:02Z</time></trkpt><trkpt lat="39.50340154025479" lon="9.428275238066679"><ele>87.5</ele><time>2026-04-04T15:04:03Z</time></trkpt><trkpt lat="39.50341348129106" lon="9.428595868079384"><ele>87.0</ele><time>2026-04-04T15:04:04Z</time></trkpt><trkpt lat="39.50343120396047" lon="9.428916085554494"><ele>83.5</ele><time>2026-04-04T15:04:05Z</time></trkpt><trkpt lat="39.503456781302496" lon="9.429236740038638"><ele>80.0</ele><time>2026-04-04T15:04:06Z</time></trkpt><trkpt lat="39.50348307474062" lon="9.4295560698165"><ele>77.5</ele><time>2026-04-04T15:04:07Z</time></trkpt><trkpt lat="39.503506325784144" lon="9.429878335084748"><ele>75.0</ele><time>2026-04-04T15:04:08Z</time></trkpt><trkpt lat="39.50352605748462" lon="9.430200714907315"><ele>76.5</ele><time>2026-04-04T15:04:09Z</time></trkpt><trkpt lat="39.50354654472967" lon="9.43051947615666"><ele>78.0</ele><time>2026-04-04T15:04:10Z</time></trkpt><trkpt lat="39.50356960712004" lon="9.430835942422597"><ele>78.0</ele><time>2026-04-04T15:04:11Z</time></trkpt><trkpt lat="39.50359508960181" lon="9.43115321392766"><ele>78.0</ele><time>2026-04-04T15:04:12Z</time></trkpt><trkpt lat="39.50362136149197" lon="9.43147030744896"><ele>84.0</ele><time>2026-04-04T15:04:13Z</time></trkpt><trkpt lat="39.50364371734207" lon="9.431786045457462"><ele>90.0</ele><time>2026-04-04T15:04:14Z</time></trkpt><trkpt lat="39.50365167164898" lon="9.43210649683732"><ele>92.5</ele><time>2026-04-04T15:04:15Z</time></trkpt><trkpt lat="39.50363463710212" lon="9.43242758266893"><ele>95.0</ele><time>2026-04-04T15:04:16Z</time></trkpt><trkpt lat="39.50358113509842" lon="9.432735691025467"><ele>91.0</ele><time>2026-04-04T15:04:17Z</time></trkpt><trkpt lat="39.5035013319244" lon="9.433035801130664"><ele>87.0</ele><time>2026-04-04T15:04:18Z</time></trkpt><trkpt lat="39.503406447763595" lon="9.433323797165588"><ele>87.0</ele><time>2026-04-04T15:04:19Z</time></trkpt><trkpt lat="39.50332689232131" lon="9.43362190491963"><ele>87.0</ele><time>2026-04-04T15:04:20Z</time></trkpt><trkpt lat="39.50324262989516" lon="9.433917434495065"><ele>82.0</ele><time>2026-04-04T15:04:21Z</time></trkpt><trkpt lat="39.503161152346735" lon="9.434213882716772"><ele>77.0</ele><time>2026-04-04T15:04:22Z</time></trkpt><trkpt lat="39.50308962977326" lon="9.434511618247665"><ele>75.0</ele><time>2026-04-04T15:04:23Z</time></trkpt><trkpt lat="39.50303973748616" lon="9.434814897165605"><ele>73.0</ele><time>2026-04-04T15:04:24Z</time></trkpt><trkpt lat="39.50302249471655" lon="9.435123129702017"><ele>73.0</ele><time>2026-04-04T15:04:25Z</time></trkpt><trkpt lat="39.5030440125644" lon="9.43542877181761"><ele>73.0</ele><time>2026-04-04T15:04:26Z</time></trkpt><trkpt lat="39.503097296316234" lon="9.435723597666096"><ele>75.0</ele><time>2026-04-04T15:04:27Z</time></trkpt><trkpt lat="39.50317293998298" lon="9.436003530587449"><ele>77.0</ele><time>2026-04-04T15:04:28Z</time></trkpt><trkpt lat="39.50324586382341" lon="9.43628627008027"><ele>82.33333333333334</ele><time>2026-04-04T15:04:29Z</time></trkpt><trkpt lat="39.5032958161405" lon="9.43656657657638"><ele>87.66666666666667</ele><time>2026-04-04T15:04:30Z</time></trkpt><trkpt lat="39.5033261826883" lon="9.436848592570245"><ele>93.0</ele><time>2026-04-04T15:04:31Z</time></trkpt><trkpt lat="39.50333031923239" lon="9.437120635434741"><ele>99.0</ele><time>2026-04-04T15:04:32Z</time></trkpt><trkpt lat="39.5033141431619" lon="9.437381971452327"><ele>105.0</ele><time>2026-04-04T15:04:33Z</time></trkpt><trkpt lat="39.50326536303639" lon="9.437633446028151"><ele>111.0</ele><time>2026-04-04T15:04:34Z</time></trkpt><trkpt lat="39.50319432808879" lon="9.437878937500512"><ele>108.0</ele><time>2026-04-04T15:04:35Z</time></trkpt><trkpt lat="39.503121849447766" lon="9.438127604289644"><ele>105.0</ele><time>2026-04-04T15:04:36Z</time></trkpt><trkpt lat="39.50305346305166" lon="9.438386186517361"><ele>102.0</ele><time>2026-04-04T15:04:37Z</time></trkpt><trkpt lat="39.502983967337165" lon="9.438651229295415"><ele>101.5</ele><time>2026-04-04T15:04:38Z</time></trkpt><trkpt lat="39.502913957666166" lon="9.438923493913377"><ele>101.0</ele><time>2026-04-04T15:04:39Z</time></trkpt><trkpt lat="39.502857104305214" lon="9.439227031838142"><ele>101.0</ele><time>2026-04-04T15:04:40Z</time></trkpt><trkpt lat="39.50281133077043" lon="9.43954097615987"><ele>101.0</ele><time>2026-04-04T15:04:41Z</time></trkpt><trkpt lat="39.502764768277" lon="9.439836235140012"><ele>97.5</ele><time>2026-04-04T15:04:42Z</time></trkpt><trkpt lat="39.50272029956714" lon="9.440135875945773"><ele>94.0</ele><time>2026-04-04T15:04:43Z</time></trkpt><trkpt lat="39.502669528852024" lon="9.440428855258833"><ele>94.5</ele><time>2026-04-04T15:04:44Z</time></trkpt><trkpt lat="39.5026219109844" lon="9.440736334239519"><ele>95.0</ele><time>2026-04-04T15:04:45Z</time></trkpt><trkpt lat="39.5025825720155" lon="9.441047296934538"><ele>94.0</ele><time>2026-04-04T15:04:46Z</time></trkpt><trkpt lat="39.50254734412108" lon="9.441360199238025"><ele>93.0</ele><time>2026-04-04T15:04:47Z</time></trkpt><trkpt lat="39.50251436013953" lon="9.441678830722193"><ele>93.0</ele><time>2026-04-04T15:04:48Z</time></trkpt><trkpt lat="39.50247937844027" lon="9.442001610560617"><ele>93.0</ele><time>2026-04-04T15:04:49Z</time></trkpt><trkpt lat="39.50244186238854" lon="9.442327309531843"><ele>89.5</ele><time>2026-04-04T15:04:50Z</time></trkpt><trkpt lat="39.50240179649491" lon="9.442655785444343"><ele>86.0</ele><time>2026-04-04T15:04:51Z</time></trkpt><trkpt lat="39.50236090393911" lon="9.442988871942406"><ele>85.0</ele><time>2026-04-04T15:04:52Z</time></trkpt><trkpt lat="39.502322521658925" lon="9.443323583663316"><ele>84.0</ele><time>2026-04-04T15:04:53Z</time></trkpt><trkpt lat="39.502285795191355" lon="9.44366219189233"><ele>83.0</ele><time>2026-04-04T15:04:54Z</time></trkpt><trkpt lat="39.502248703782264" lon="9.444003124229033"><ele>82.0</ele><time>2026-04-04T15:04:55Z</time></trkpt><trkpt lat="39.502210292696574" lon="9.444348022695843"><ele>78.5</ele><time>2026-04-04T15:04:56Z</time></trkpt><trkpt lat="39.502170643191754" lon="9.444699109551376"><ele>75.0</ele><time>2026-04-04T15:04:57Z</time></trkpt><trkpt lat="39.502130762642636" lon="9.445054367476072"><ele>75.0</ele><time>2026-04-04T15:04:58Z</time></trkpt><trkpt lat="39.502090262752276" lon="9.445411159934006"><ele>75.0</ele><time>2026-04-04T15:04:59Z</time></trkpt><trkpt lat="39.50204911557223" lon="9.4457734563076"><ele>85.0</ele><time>2026-04-04T15:05:00Z</time></trkpt><trkpt lat="39.50200717085622" lon="9.446141376543363"><ele>95.0</ele><time>2026-04-04T15:05:01Z</time></trkpt><trkpt lat="39.501961555580664" lon="9.446504957158025"><ele>95.0</ele><time>2026-04-04T15:05:02Z</time></trkpt><trkpt lat="39.50191719169348" lon="9.446877166025708"><ele>95.0</ele><time>2026-04-04T15:05:03Z</time></trkpt><trkpt lat="39.50187183061344" lon="9.447248055730245"><ele>92.0</ele><time>2026-04-04T15:05:04Z</time></trkpt><trkpt lat="39.50183178227121" lon="9.44761392765595"><ele>89.0</ele><time>2026-04-04T15:05:05Z</time></trkpt><trkpt lat="39.50179526248982" lon="9.447978431986403"><ele>87.5</ele><time>2026-04-04T15:05:06Z</time></trkpt><trkpt lat="39.50175457105272" lon="9.448341353809884"><ele>86.0</ele><time>2026-04-04T15:05:07Z</time></trkpt><trkpt lat="39.50170302215141" lon="9.448699771662858"><ele>79.5</ele><time>2026-04-04T15:05:08Z</time></trkpt><trkpt lat="39.501644347243776" lon="9.449045448445958"><ele>73.0</ele><time>2026-04-04T15:05:09Z</time></trkpt><trkpt lat="39.50157745303909" lon="9.44937806084319"><ele>68.0</ele><time>2026-04-04T15:05:10Z</time></trkpt><trkpt lat="39.50148510818051" lon="9.449684717869662"><ele>63.0</ele><time>2026-04-04T15:05:11Z</time></trkpt><trkpt lat="39.50137475467472" lon="9.449981602666597"><ele>63.0</ele><time>2026-04-04T15:05:12Z</time></trkpt><trkpt lat="39.50125076333853" lon="9.450265549961529"><ele>63.0</ele><time>2026-04-04T15:05:13Z</time></trkpt><trkpt lat="39.501111440357846" lon="9.450531872323058"><ele>68.5</ele><time>2026-04-04T15:05:14Z</time></trkpt><trkpt lat="39.50095584720639" lon="9.450777554578458"><ele>74.0</ele><time>2026-04-04T15:05:15Z</time></trkpt><trkpt lat="39.50077727264763" lon="9.450998598831138"><ele>74.0</ele><time>2026-04-04T15:05:16Z</time></trkpt><trkpt lat="39.50059065793062" lon="9.45120775653164"><ele>74.0</ele><time>2026-04-04T15:05:17Z</time></trkpt><trkpt lat="39.50039089888695" lon="9.451404840730357"><ele>71.0</ele><time>2026-04-04T15:05:18Z</time></trkpt><trkpt lat="39.50017858014947" lon="9.451590709442806"><ele>68.0</ele><time>2026-04-04T15:05:19Z</time></trkpt><trkpt lat="39.49995496798639" lon="9.45175808202329"><ele>68.0</ele><time>2026-04-04T15:05:20Z</time></trkpt><trkpt lat="39.49971564893967" lon="9.451892109915745"><ele>68.0</ele><time>2026-04-04T15:05:21Z</time></trkpt><trkpt lat="39.49946528074435" lon="9.451997623389486"><ele>69.5</ele><time>2026-04-04T15:05:22Z</time></trkpt><trkpt lat="39.499208344767986" lon="9.452078441871322"><ele>71.0</ele><time>2026-04-04T15:05:23Z</time></trkpt><trkpt lat="39.498946453326475" lon="9.45212599210254"><ele>61.5</ele><time>2026-04-04T15:05:24Z</time></trkpt><trkpt lat="39.49868304987253" lon="9.452147921791328"><ele>52.0</ele><time>2026-04-04T15:05:25Z</time></trkpt><trkpt lat="39.49841568559075" lon="9.452145982302923"><ele>52.0</ele><time>2026-04-04T15:05:26Z</time></trkpt><trkpt lat="39.49814866789686" lon="9.45213586931549"><ele>52.0</ele><time>2026-04-04T15:05:27Z</time></trkpt><trkpt lat="39.49787655068836" lon="9.452124858922389"><ele>59.0</ele><time>2026-04-04T15:05:28Z</time></trkpt><trkpt lat="39.497602522353986" lon="9.452104415950245"><ele>66.0</ele><time>2026-04-04T15:05:29Z</time></trkpt><trkpt lat="39.4973296577481" lon="9.452069705931464"><ele>62.0</ele><time>2026-04-04T15:05:30Z</time></trkpt><trkpt lat="39.49705723686" lon="9.45201985705004"><ele>58.0</ele><time>2026-04-04T15:05:31Z</time></trkpt><trkpt lat="39.49678586075774" lon="9.45195349740103"><ele>58.0</ele><time>2026-04-04T15:05:32Z</time></trkpt><trkpt lat="39.49651732096693" lon="9.451873111707645"><ele>58.0</ele><time>2026-04-04T15:05:33Z</time></trkpt><trkpt lat="39.49624887317892" lon="9.451783784730969"><ele>53.5</ele><time>2026-04-04T15:05:34Z</time></trkpt><trkpt lat="39.49597926295722" lon="9.451693145716003"><ele>49.0</ele><time>2026-04-04T15:05:35Z</time></trkpt><trkpt lat="39.49570962725697" lon="9.451612071208311"><ele>49.0</ele><time>2026-04-04T15:05:36Z</time></trkpt><trkpt lat="39.49543580390156" lon="9.451560450304385"><ele>49.0</ele><time>2026-04-04T15:05:37Z</time></trkpt><trkpt lat="39.49516022241052" lon="9.45153345523736"><ele>48.5</ele><time>2026-04-04T15:05:38Z</time></trkpt><trkpt lat="39.494885762495706" lon="9.451522282581053"><ele>48.0</ele><time>2026-04-04T15:05:39Z</time></trkpt><trkpt lat="39.49461420806775" lon="9.451531189829725"><ele>45.0</ele><time>2026-04-04T15:05:40Z</time></trkpt><trkpt lat="39.494343440187784" lon="9.45156912048569"><ele>42.0</ele><time>2026-04-04T15:05:41Z</time></trkpt><trkpt lat="39.494077827364094" lon="9.451631308295429"><ele>42.0</ele><time>2026-04-04T15:05:42Z</time></trkpt><trkpt lat="39.49381475948706" lon="9.451723859136832"><ele>42.0</ele><time>2026-04-04T15:05:43Z</time></trkpt><trkpt lat="39.49354840809864" lon="9.451828730897875"><ele>47.0</ele><time>2026-04-04T15:05:44Z</time></trkpt><trkpt lat="39.49328009296814" lon="9.451910109350713"><ele>52.0</ele><time>2026-04-04T15:05:45Z</time></trkpt><trkpt lat="39.49301206995225" lon="9.45196370460078"><ele>59.5</ele><time>2026-04-04T15:05:46Z</time></trkpt><trkpt lat="39.49274300708046" lon="9.451997918825565"><ele>67.0</ele><time>2026-04-04T15:05:47Z</time></trkpt><trkpt lat="39.49247023694429" lon="9.452025579832597"><ele>67.0</ele><time>2026-04-04T15:05:48Z</time></trkpt><trkpt lat="39.492198764992814" lon="9.45205742237077"><ele>67.0</ele><time>2026-04-04T15:05:49Z</time></trkpt><trkpt lat="39.49193002932473" lon="9.452094973772047"><ele>54.0</ele><time>2026-04-04T15:05:50Z</time></trkpt><trkpt lat="39.491659301186154" lon="9.45213374921938"><ele>41.0</ele><time>2026-04-04T15:05:51Z</time></trkpt><trkpt lat="39.49139159945665" lon="9.452181792325517"><ele>42.5</ele><time>2026-04-04T15:05:52Z</time></trkpt><trkpt lat="39.49112311605459" lon="9.452246703172406"><ele>44.0</ele><time>2026-04-04T15:05:53Z</time></trkpt><trkpt lat="39.49085966843039" lon="9.452333748145147"><ele>44.0</ele><time>2026-04-04T15:05:54Z</time></trkpt><trkpt lat="39.49059770649828" lon="9.452433470464578"><ele>44.0</ele><time>2026-04-04T15:05:55Z</time></trkpt><trkpt lat="39.490335550042886" lon="9.45253662136604"><ele>47.0</ele><time>2026-04-04T15:05:56Z</time></trkpt><trkpt lat="39.49007098326932" lon="9.452639253238207"><ele>50.0</ele><time>2026-04-04T15:05:57Z</time></trkpt><trkpt lat="39.48980539086141" lon="9.452733928857935"><ele>50.5</ele><time>2026-04-04T15:05:58Z</time></trkpt><trkpt lat="39.48953975965053" lon="9.452817255867727"><ele>51.0</ele><time>2026-04-04T15:05:59Z</time></trkpt><trkpt lat="39.48927872484404" lon="9.45287455407424"><ele>51.0</ele><time>2026-04-04T15:06:00Z</time></trkpt><trkpt lat="39.48900984685982" lon="9.452892235932257"><ele>51.0</ele><time>2026-04-04T15:06:01Z</time></trkpt><trkpt lat="39.48873722201138" lon="9.45289247488817"><ele>51.0</ele><time>2026-04-04T15:06:02Z</time></trkpt><trkpt lat="39.48846379480112" lon="9.45286205680507"><ele>51.0</ele><time>2026-04-04T15:06:03Z</time></trkpt><trkpt lat="39.488188740310676" lon="9.45282759818377"><ele>50.5</ele><time>2026-04-04T15:06:04Z</time></trkpt><trkpt lat="39.48791477419897" lon="9.452787764584913"><ele>50.0</ele><time>2026-04-04T15:06:05Z</time></trkpt><trkpt lat="39.48765601329753" lon="9.452754229947686"><ele>50.0</ele><time>2026-04-04T15:06:06Z</time></trkpt><trkpt lat="39.487413534821826" lon="9.452736070370548"><ele>50.0</ele><time>2026-04-04T15:06:07Z</time></trkpt><trkpt lat="39.48718300608101" lon="9.452749128615443"><ele>49.333333333333336</ele><time>2026-04-04T15:06:08Z</time></trkpt><trkpt lat="39.48696875002383" lon="9.452800864604823"><ele>48.66666666666667</ele><time>2026-04-04T15:06:09Z</time></trkpt><trkpt lat="39.48677117994341" lon="9.452885004971327"><ele>48.0</ele><time>2026-04-04T15:06:10Z</time></trkpt><trkpt lat="39.48658257817389" lon="9.453004823315384"><ele>45.666666666666664</ele><time>2026-04-04T15:06:11Z</time></trkpt><trkpt lat="39.486410461168084" lon="9.45318337508364"><ele>43.33333333333333</ele><time>2026-04-04T15:06:12Z</time></trkpt><trkpt lat="39.48623549675958" lon="9.453372906911584"><ele>41.0</ele><time>2026-04-04T15:06:13Z</time></trkpt><trkpt lat="39.48608511768348" lon="9.4535286201051"><ele>41.0</ele><time>2026-04-04T15:06:14Z</time></trkpt><trkpt lat="39.485980323752194" lon="9.453782458630107"><ele>41.0</ele><time>2026-04-04T15:06:15Z</time></trkpt><trkpt lat="39.48590695836881" lon="9.454055780339269"><ele>41.0</ele><time>2026-04-04T15:06:16Z</time></trkpt><trkpt lat="39.48586697996395" lon="9.454344271046333"><ele>41.5</ele><time>2026-04-04T15:06:17Z</time></trkpt><trkpt lat="39.48586534443523" lon="9.45465031000703"><ele>42.0</ele><time>2026-04-04T15:06:18Z</time></trkpt><trkpt lat="39.48589745722941" lon="9.454962960377408"><ele>42.0</ele><time>2026-04-04T15:06:19Z</time></trkpt><trkpt lat="39.48592157187919" lon="9.455278824213062"><ele>42.0</ele><time>2026-04-04T15:06:20Z</time></trkpt><trkpt lat="39.48593139722748" lon="9.455600442130313"><ele>42.0</ele><time>2026-04-04T15:06:21Z</time></trkpt><trkpt lat="39.485936783887624" lon="9.455928629700225"><ele>42.0</ele><time>2026-04-04T15:06:22Z</time></trkpt><trkpt lat="39.485945910445295" lon="9.456255825427277"><ele>44.5</ele><time>2026-04-04T15:06:23Z</time></trkpt><trkpt lat="39.485955902588664" lon="9.456586389051369"><ele>47.0</ele><time>2026-04-04T15:06:24Z</time></trkpt><trkpt lat="39.48596123505005" lon="9.456920934740948"><ele>50.5</ele><time>2026-04-04T15:06:25Z</time></trkpt><trkpt lat="39.485951861687646" lon="9.457256299990833"><ele>54.0</ele><time>2026-04-04T15:06:26Z</time></trkpt><trkpt lat="39.48591882681371" lon="9.457586044281445"><ele>54.0</ele><time>2026-04-04T15:06:27Z</time></trkpt><trkpt lat="39.48584958416966" lon="9.457907158092002"><ele>54.0</ele><time>2026-04-04T15:06:28Z</time></trkpt><trkpt lat="39.485751533558926" lon="9.458222197676882"><ele>52.0</ele><time>2026-04-04T15:06:29Z</time></trkpt><trkpt lat="39.48563338238452" lon="9.458526384795"><ele>50.0</ele><time>2026-04-04T15:06:30Z</time></trkpt><trkpt lat="39.48551779106368" lon="9.458834027675262"><ele>59.0</ele><time>2026-04-04T15:06:31Z</time></trkpt><trkpt lat="39.48540553803131" lon="9.459143322274665"><ele>68.0</ele><time>2026-04-04T15:06:32Z</time></trkpt><trkpt lat="39.48529030186451" lon="9.45945917835275"><ele>58.5</ele><time>2026-04-04T15:06:33Z</time></trkpt><trkpt lat="39.48517623545391" lon="9.45977616206827"><ele>49.0</ele><time>2026-04-04T15:06:34Z</time></trkpt><trkpt lat="39.485061592437084" lon="9.460094158558125"><ele>49.0</ele><time>2026-04-04T15:06:35Z</time></trkpt><trkpt lat="39.48497381380784" lon="9.460422200471399"><ele>49.0</ele><time>2026-04-04T15:06:36Z</time></trkpt><trkpt lat="39.48492731017153" lon="9.460781619385193"><ele>48.0</ele><time>2026-04-04T15:06:37Z</time></trkpt><trkpt lat="39.48491293413062" lon="9.461161399022666"><ele>47.0</ele><time>2026-04-04T15:06:38Z</time></trkpt><trkpt lat="39.48489766284017" lon="9.461548508978352"><ele>47.0</ele><time>2026-04-04T15:06:39Z</time></trkpt><trkpt lat="39.484873764236006" lon="9.461935053252722"><ele>47.0</ele><time>2026-04-04T15:06:40Z</time></trkpt><trkpt lat="39.48485096475947" lon="9.46231920156112"><ele>46.0</ele><time>2026-04-04T15:06:41Z</time></trkpt><trkpt lat="39.484830077193735" lon="9.46270825423475"><ele>45.0</ele><time>2026-04-04T15:06:42Z</time></trkpt><trkpt lat="39.48481281376751" lon="9.463101965400037"><ele>45.0</ele><time>2026-04-04T15:06:43Z</time></trkpt><trkpt lat="39.484813257979255" lon="9.463496232540379"><ele>45.0</ele><time>2026-04-04T15:06:44Z</time></trkpt><trkpt lat="39.48483996775109" lon="9.463895338332987"><ele>47.5</ele><time>2026-04-04T15:06:45Z</time></trkpt><trkpt lat="39.484903202209" lon="9.464290691454188"><ele>50.0</ele><time>2026-04-04T15:06:46Z</time></trkpt><trkpt lat="39.484981971351566" lon="9.464687282656016"><ele>52.5</ele><time>2026-04-04T15:06:47Z</time></trkpt><trkpt lat="39.48505814044328" lon="9.465082861952425"><ele>55.0</ele><time>2026-04-04T15:06:48Z</time></trkpt><trkpt lat="39.485133899352086" lon="9.465474766459362"><ele>59.0</ele><time>2026-04-04T15:06:49Z</time></trkpt><trkpt lat="39.48520914325367" lon="9.46587281470983"><ele>63.0</ele><time>2026-04-04T15:06:50Z</time></trkpt><trkpt lat="39.485278534098036" lon="9.466275776025517"><ele>70.5</ele><time>2026-04-04T15:06:51Z</time></trkpt><trkpt lat="39.48533932194853" lon="9.466676295392418"><ele>78.0</ele><time>2026-04-04T15:06:52Z</time></trkpt><trkpt lat="39.48538742016507" lon="9.467072285535934"><ele>85.0</ele><time>2026-04-04T15:06:53Z</time></trkpt><trkpt lat="39.485414392226865" lon="9.467463890531114"><ele>92.0</ele><time>2026-04-04T15:06:54Z</time></trkpt><trkpt lat="39.485418149228984" lon="9.467857661668162"><ele>94.0</ele><time>2026-04-04T15:06:55Z</time></trkpt><trkpt lat="39.48540934200007" lon="9.468251300991069"><ele>96.0</ele><time>2026-04-04T15:06:56Z</time></trkpt><trkpt lat="39.48540242829187" lon="9.46863183457601"><ele>95.0</ele><time>2026-04-04T15:06:57Z</time></trkpt><trkpt lat="39.48539163130379" lon="9.468996339663821"><ele>94.0</ele><time>2026-04-04T15:06:58Z</time></trkpt><trkpt lat="39.485367677222115" lon="9.469357465207041"><ele>91.5</ele><time>2026-04-04T15:06:59Z</time></trkpt><trkpt lat="39.4853182560399" lon="9.469720718824322"><ele>89.0</ele><time>2026-04-04T15:07:00Z</time></trkpt><trkpt lat="39.48524678835766" lon="9.47007852275318"><ele>89.0</ele><time>2026-04-04T15:07:01Z</time></trkpt><trkpt lat="39.485149425983536" lon="9.470417215139957"><ele>89.0</ele><time>2026-04-04T15:07:02Z</time></trkpt><trkpt lat="39.48502970199439" lon="9.470723110807983"><ele>87.5</ele><time>2026-04-04T15:07:03Z</time></trkpt><trkpt lat="39.4849144131897" lon="9.470990558443276"><ele>86.0</ele><time>2026-04-04T15:07:04Z</time></trkpt><trkpt lat="39.48482698608455" lon="9.47124409729863"><ele>87.0</ele><time>2026-04-04T15:07:05Z</time></trkpt><trkpt lat="39.48478093991865" lon="9.471497230640267"><ele>88.0</ele><time>2026-04-04T15:07:06Z</time></trkpt><trkpt lat="39.48477857051699" lon="9.471753367553037"><ele>89.0</ele><time>2026-04-04T15:07:07Z</time></trkpt><trkpt lat="39.48483156023354" lon="9.472002242201619"><ele>92.66666666666667</ele><time>2026-04-04T15:07:08Z</time></trkpt><trkpt lat="39.48493079815447" lon="9.472232539710575"><ele>96.33333333333334</ele><time>2026-04-04T15:07:09Z</time></trkpt><trkpt lat="39.48507042763603" lon="9.472435369221085"><ele>100.0</ele><time>2026-04-04T15:07:10Z</time></trkpt><trkpt lat="39.48522722039532" lon="9.472591033611392"><ele>100.0</ele><time>2026-04-04T15:07:11Z</time></trkpt><trkpt lat="39.485374323560016" lon="9.47271680433457"><ele>100.0</ele><time>2026-04-04T15:07:12Z</time></trkpt><trkpt lat="39.485481780529895" lon="9.47286115725525"><ele>100.0</ele><time>2026-04-04T15:07:13Z</time></trkpt><trkpt lat="39.48555053208513" lon="9.473029171291442"><ele>100.25</ele><time>2026-04-04T15:07:14Z</time></trkpt><trkpt lat="39.4855946616669" lon="9.473200380801936"><ele>100.5</ele><time>2026-04-04T15:07:15Z</time></trkpt><trkpt lat="39.4856208471551" lon="9.473375890457474"><ele>100.75</ele><time>2026-04-04T15:07:16Z</time></trkpt><trkpt lat="39.48563881905998" lon="9.47356493377849"><ele>101.0</ele><time>2026-04-04T15:07:17Z</time></trkpt><trkpt lat="39.48563021364521" lon="9.47377921553892"><ele>101.0</ele><time>2026-04-04T15:07:18Z</time></trkpt><trkpt lat="39.48560070001889" lon="9.474001616113698"><ele>101.0</ele><time>2026-04-04T15:07:19Z</time></trkpt><trkpt lat="39.48554348616233" lon="9.474224424220349"><ele>101.0</ele><time>2026-04-04T15:07:20Z</time></trkpt><trkpt lat="39.48545289925223" lon="9.474438103563267"><ele>103.0</ele><time>2026-04-04T15:07:21Z</time></trkpt><trkpt lat="39.485331546551514" lon="9.474638296203059"><ele>105.0</ele><time>2026-04-04T15:07:22Z</time></trkpt><trkpt lat="39.48520379895232" lon="9.474829259946258"><ele>107.0</ele><time>2026-04-04T15:07:23Z</time></trkpt><trkpt lat="39.48508629469369" lon="9.47501449476588"><ele>107.0</ele><time>2026-04-04T15:07:24Z</time></trkpt><trkpt lat="39.48498298118433" lon="9.475198572855879"><ele>107.0</ele><time>2026-04-04T15:07:25Z</time></trkpt><trkpt lat="39.484879895553085" lon="9.475371022028309"><ele>107.0</ele><time>2026-04-04T15:07:26Z</time></trkpt><trkpt lat="39.48476966814129" lon="9.475530487504162"><ele>109.33333333333333</ele><time>2026-04-04T15:07:27Z</time></trkpt><trkpt lat="39.48465907329904" lon="9.475689101844234"><ele>111.66666666666666</ele><time>2026-04-04T15:07:28Z</time></trkpt><trkpt lat="39.484544773874894" lon="9.475871136986886"><ele>114.0</ele><time>2026-04-04T15:07:29Z</time></trkpt><trkpt lat="39.48442324492252" lon="9.476070802519326"><ele>108.66666666666666</ele><time>2026-04-04T15:07:30Z</time></trkpt><trkpt lat="39.484288277214766" lon="9.476278507189457"><ele>103.33333333333333</ele><time>2026-04-04T15:07:31Z</time></trkpt><trkpt lat="39.484143204414224" lon="9.476489652699106"><ele>98.0</ele><time>2026-04-04T15:07:32Z</time></trkpt><trkpt lat="39.48400674498086" lon="9.476713774482564"><ele>98.0</ele><time>2026-04-04T15:07:33Z</time></trkpt><trkpt lat="39.48388946760661" lon="9.476958237673234"><ele>98.0</ele><time>2026-04-04T15:07:34Z</time></trkpt><trkpt lat="39.48379609390334" lon="9.477224287193588"><ele>98.0</ele><time>2026-04-04T15:07:35Z</time></trkpt><trkpt lat="39.48372082773202" lon="9.477497809219068"><ele>94.0</ele><time>2026-04-04T15:07:36Z</time></trkpt><trkpt lat="39.48366982621745" lon="9.477770794908334"><ele>90.0</ele><time>2026-04-04T15:07:37Z</time></trkpt><trkpt lat="39.48364502790825" lon="9.478050678237038"><ele>86.0</ele><time>2026-04-04T15:07:38Z</time></trkpt><trkpt lat="39.483661914171094" lon="9.478346124719705"><ele>84.5</ele><time>2026-04-04T15:07:39Z</time></trkpt><trkpt lat="39.48370035316498" lon="9.478638910629801"><ele>83.0</ele><time>2026-04-04T15:07:40Z</time></trkpt><trkpt lat="39.4837589384588" lon="9.47892055494935"><ele>81.33333333333334</ele><time>2026-04-04T15:07:41Z</time></trkpt><trkpt lat="39.48383020695068" lon="9.479187477274296"><ele>79.66666666666667</ele><time>2026-04-04T15:07:42Z</time></trkpt><trkpt lat="39.48390982329577" lon="9.479431361356625"><ele>78.0</ele><time>2026-04-04T15:07:43Z</time></trkpt><trkpt lat="39.483989091390164" lon="9.479664071657274"><ele>78.0</ele><time>2026-04-04T15:07:44Z</time></trkpt><trkpt lat="39.484042955840636" lon="9.479905629642504"><ele>78.0</ele><time>2026-04-04T15:07:45Z</time></trkpt><trkpt lat="39.48411371882143" lon="9.48013964976722"><ele>78.0</ele><time>2026-04-04T15:07:46Z</time></trkpt><trkpt lat="39.48415611844274" lon="9.48038914466172"><ele>78.66666666666667</ele><time>2026-04-04T15:07:47Z</time></trkpt><trkpt lat="39.48419016524762" lon="9.480636986163185"><ele>79.33333333333334</ele><time>2026-04-04T15:07:48Z</time></trkpt><trkpt lat="39.4842115391389" lon="9.48087459766683"><ele>80.0</ele><time>2026-04-04T15:07:49Z</time></trkpt><trkpt lat="39.484210959430584" lon="9.481116588664705"><ele>77.0</ele><time>2026-04-04T15:07:50Z</time></trkpt><trkpt lat="39.4841874332067" lon="9.481368749023833"><ele>74.0</ele><time>2026-04-04T15:07:51Z</time></trkpt><trkpt lat="39.48415403271973" lon="9.481618666139585"><ele>71.0</ele><time>2026-04-04T15:07:52Z</time></trkpt><trkpt lat="39.48409042226265" lon="9.481847684565919"><ele>71.0</ele><time>2026-04-04T15:07:53Z</time></trkpt><trkpt lat="39.48402436851411" lon="9.48207483356922"><ele>71.0</ele><time>2026-04-04T15:07:54Z</time></trkpt><trkpt lat="39.483944130558136" lon="9.482301339243085"><ele>71.0</ele><time>2026-04-04T15:07:55Z</time></trkpt><trkpt lat="39.48384364335142" lon="9.48252413200218"><ele>68.66666666666667</ele><time>2026-04-04T15:07:56Z</time></trkpt><trkpt lat="39.48373082974275" lon="9.482726161911252"><ele>66.33333333333333</ele><time>2026-04-04T15:07:57Z</time></trkpt><trkpt lat="39.48358283917691" lon="9.482938752522443"><ele>64.0</ele><time>2026-04-04T15:07:58Z</time></trkpt><trkpt lat="39.483437327323756" lon="9.48312332922988"><ele>64.0</ele><time>2026-04-04T15:07:59Z</time></trkpt><trkpt lat="39.48327740734919" lon="9.483294369711052"><ele>64.0</ele><time>2026-04-04T15:08:00Z</time></trkpt><trkpt lat="39.4831036616865" lon="9.483444536401986"><ele>64.0</ele><time>2026-04-04T15:08:01Z</time></trkpt><trkpt lat="39.482934211561115" lon="9.483580619461863"><ele>61.33333333333333</ele><time>2026-04-04T15:08:02Z</time></trkpt><trkpt lat="39.482775988366996" lon="9.483695563487698"><ele>58.66666666666667</ele><time>2026-04-04T15:08:03Z</time></trkpt><trkpt lat="39.482595990172506" lon="9.483819760407718"><ele>56.0</ele><time>2026-04-04T15:08:04Z</time></trkpt><trkpt lat="39.4824404465829" lon="9.483936968664331"><ele>56.0</ele><time>2026-04-04T15:08:05Z</time></trkpt><trkpt lat="39.482269076234154" lon="9.48407183450515"><ele>56.0</ele><time>2026-04-04T15:08:06Z</time></trkpt><trkpt lat="39.482120725873514" lon="9.484195430752298"><ele>56.0</ele><time>2026-04-04T15:08:07Z</time></trkpt><trkpt lat="39.48196825776267" lon="9.484335884515385"><ele>56.66666666666667</ele><time>2026-04-04T15:08:08Z</time></trkpt><trkpt lat="39.48182577729216" lon="9.484496753274271"><ele>57.33333333333333</ele><time>2026-04-04T15:08:09Z</time></trkpt><trkpt lat="39.48169141845785" lon="9.484670215052246"><ele>58.0</ele><time>2026-04-04T15:08:10Z</time></trkpt><trkpt lat="39.481567813407274" lon="9.484853643850107"><ele>58.0</ele><time>2026-04-04T15:08:11Z</time></trkpt><trkpt lat="39.48146388345289" lon="9.485048965824408"><ele>58.0</ele><time>2026-04-04T15:08:12Z</time></trkpt><trkpt lat="39.481365959312825" lon="9.485241935680454"><ele>58.0</ele><time>2026-04-04T15:08:13Z</time></trkpt><trkpt lat="39.48127266656105" lon="9.485438219992892"><ele>62.666666666666664</ele><time>2026-04-04T15:08:14Z</time></trkpt><trkpt lat="39.481191335308345" lon="9.485656450133632"><ele>67.33333333333333</ele><time>2026-04-04T15:08:15Z</time></trkpt><trkpt lat="39.481123856166434" lon="9.485897881870105"><ele>72.0</ele><time>2026-04-04T15:08:16Z</time></trkpt><trkpt lat="39.48106773014719" lon="9.486169917467958"><ele>68.5</ele><time>2026-04-04T15:08:17Z</time></trkpt><trkpt lat="39.48102724502718" lon="9.486468152092145"><ele>65.0</ele><time>2026-04-04T15:08:18Z</time></trkpt><trkpt lat="39.48098804242339" lon="9.486792084426062"><ele>60.0</ele><time>2026-04-04T15:08:19Z</time></trkpt><trkpt lat="39.480919089094435" lon="9.487109385465752"><ele>55.0</ele><time>2026-04-04T15:08:20Z</time></trkpt><trkpt lat="39.48086087195615" lon="9.487422854292396"><ele>55.0</ele><time>2026-04-04T15:08:21Z</time></trkpt><trkpt lat="39.480762456170986" lon="9.48771709393378"><ele>55.0</ele><time>2026-04-04T15:08:22Z</time></trkpt><trkpt lat="39.48065254532802" lon="9.488008382272822"><ele>51.5</ele><time>2026-04-04T15:08:23Z</time></trkpt><trkpt lat="39.480522689567636" lon="9.488285194389816"><ele>48.0</ele><time>2026-04-04T15:08:24Z</time></trkpt><trkpt lat="39.48037367183964" lon="9.488542895761737"><ele>52.5</ele><time>2026-04-04T15:08:25Z</time></trkpt><trkpt lat="39.480207365069674" lon="9.488792283876764"><ele>57.0</ele><time>2026-04-04T15:08:26Z</time></trkpt><trkpt lat="39.480035838407176" lon="9.489034338513218"><ele>57.0</ele><time>2026-04-04T15:08:27Z</time></trkpt><trkpt lat="39.479868460636126" lon="9.489281973396503"><ele>57.0</ele><time>2026-04-04T15:08:28Z</time></trkpt><trkpt lat="39.4797180064052" lon="9.4895444723133"><ele>53.5</ele><time>2026-04-04T15:08:29Z</time></trkpt><trkpt lat="39.479590921429754" lon="9.489826484181558"><ele>50.0</ele><time>2026-04-04T15:08:30Z</time></trkpt><trkpt lat="39.479501413010055" lon="9.490129659996327"><ele>47.0</ele><time>2026-04-04T15:08:31Z</time></trkpt><trkpt lat="39.47943993703777" lon="9.490441499573068"><ele>44.0</ele><time>2026-04-04T15:08:32Z</time></trkpt><trkpt lat="39.47941554656678" lon="9.490758090948324"><ele>44.0</ele><time>2026-04-04T15:08:33Z</time></trkpt><trkpt lat="39.47942996083885" lon="9.491078071679842"><ele>44.0</ele><time>2026-04-04T15:08:34Z</time></trkpt><trkpt lat="39.47947422047593" lon="9.491399760332886"><ele>48.5</ele><time>2026-04-04T15:08:35Z</time></trkpt><trkpt lat="39.479499180190246" lon="9.491726924630465"><ele>53.0</ele><time>2026-04-04T15:08:36Z</time></trkpt><trkpt lat="39.47953224778817" lon="9.492055340415687"><ele>51.5</ele><time>2026-04-04T15:08:37Z</time></trkpt><trkpt lat="39.47972885406045" lon="9.49235424335263"><ele>50.0</ele><time>2026-04-04T15:08:38Z</time></trkpt><trkpt lat="39.47981052468691" lon="9.492669468826982"><ele>50.5</ele><time>2026-04-04T15:08:39Z</time></trkpt><trkpt lat="39.479883844267455" lon="9.492988817360253"><ele>51.0</ele><time>2026-04-04T15:08:40Z</time></trkpt><trkpt lat="39.47993984787262" lon="9.493312352229175"><ele>51.0</ele><time>2026-04-04T15:08:41Z</time></trkpt><trkpt lat="39.47996243746433" lon="9.49364292161987"><ele>51.0</ele><time>2026-04-04T15:08:42Z</time></trkpt><trkpt lat="39.479944535049846" lon="9.493981631172337"><ele>49.0</ele><time>2026-04-04T15:08:43Z</time></trkpt><trkpt lat="39.47990768035933" lon="9.494327746490008"><ele>47.0</ele><time>2026-04-04T15:08:44Z</time></trkpt><trkpt lat="39.47986777367339" lon="9.494677940851698"><ele>46.0</ele><time>2026-04-04T15:08:45Z</time></trkpt><trkpt lat="39.479831014612046" lon="9.495038142160947"><ele>45.0</ele><time>2026-04-04T15:08:46Z</time></trkpt><trkpt lat="39.47980128510143" lon="9.495399316688397"><ele>44.0</ele><time>2026-04-04T15:08:47Z</time></trkpt><trkpt lat="39.4797726215879" lon="9.495755472704614"><ele>43.0</ele><time>2026-04-04T15:08:48Z</time></trkpt><trkpt lat="39.47974512940292" lon="9.496117120651721"><ele>41.0</ele><time>2026-04-04T15:08:49Z</time></trkpt><trkpt lat="39.479716906107306" lon="9.49648167551526"><ele>39.0</ele><time>2026-04-04T15:08:50Z</time></trkpt><trkpt lat="39.47968362924396" lon="9.496845241522413"><ele>38.0</ele><time>2026-04-04T15:08:51Z</time></trkpt><trkpt lat="39.47964581786235" lon="9.497220890572653"><ele>37.0</ele><time>2026-04-04T15:08:52Z</time></trkpt><trkpt lat="39.47961760985463" lon="9.497592440936979"><ele>36.5</ele><time>2026-04-04T15:08:53Z</time></trkpt><trkpt lat="39.479607934779665" lon="9.497969914268788"><ele>36.0</ele><time>2026-04-04T15:08:54Z</time></trkpt><trkpt lat="39.479622246591816" lon="9.498354269719965"><ele>36.0</ele><time>2026-04-04T15:08:55Z</time></trkpt><trkpt lat="39.47965154402576" lon="9.498737693420184"><ele>36.0</ele><time>2026-04-04T15:08:56Z</time></trkpt><trkpt lat="39.47968938568782" lon="9.499106579473338"><ele>36.5</ele><time>2026-04-04T15:08:57Z</time></trkpt><trkpt lat="39.47971399141756" lon="9.499465298820219"><ele>37.0</ele><time>2026-04-04T15:08:58Z</time></trkpt><trkpt lat="39.4797037633081" lon="9.499817054212674"><ele>35.5</ele><time>2026-04-04T15:08:59Z</time></trkpt><trkpt lat="39.47965439768874" lon="9.500159301311728"><ele>34.0</ele><time>2026-04-04T15:09:00Z</time></trkpt><trkpt lat="39.479568144982316" lon="9.500489720542436"><ele>38.5</ele><time>2026-04-04T15:09:01Z</time></trkpt><trkpt lat="39.479435927897555" lon="9.500810783385663"><ele>43.0</ele><time>2026-04-04T15:09:02Z</time></trkpt><trkpt lat="39.47930372078273" lon="9.501136880565237"><ele>41.0</ele><time>2026-04-04T15:09:03Z</time></trkpt><trkpt lat="39.47919107362594" lon="9.501470888717316"><ele>39.0</ele><time>2026-04-04T15:09:04Z</time></trkpt><trkpt lat="39.47907248823023" lon="9.50180667765506"><ele>36.5</ele><time>2026-04-04T15:09:05Z</time></trkpt><trkpt lat="39.47895675181618" lon="9.502127452359165"><ele>34.0</ele><time>2026-04-04T15:09:06Z</time></trkpt><trkpt lat="39.47885172495631" lon="9.502440442684776"><ele>34.0</ele><time>2026-04-04T15:09:07Z</time></trkpt><trkpt lat="39.478769647474074" lon="9.502759342507602"><ele>34.0</ele><time>2026-04-04T15:09:08Z</time></trkpt><trkpt lat="39.47872118712849" lon="9.503098349225093"><ele>45.0</ele><time>2026-04-04T15:09:09Z</time></trkpt><trkpt lat="39.478707427900325" lon="9.50345941687055"><ele>56.0</ele><time>2026-04-04T15:09:10Z</time></trkpt><trkpt lat="39.4787191336273" lon="9.503829192308281"><ele>59.5</ele><time>2026-04-04T15:09:11Z</time></trkpt><trkpt lat="39.47874197892501" lon="9.504200813342555"><ele>63.0</ele><time>2026-04-04T15:09:12Z</time></trkpt><trkpt lat="39.478767029688186" lon="9.504576282668936"><ele>51.0</ele><time>2026-04-04T15:09:13Z</time></trkpt><trkpt lat="39.47878551399865" lon="9.504949391056712"><ele>39.0</ele><time>2026-04-04T15:09:14Z</time></trkpt><trkpt lat="39.478799694542474" lon="9.505324332523621"><ele>41.0</ele><time>2026-04-04T15:09:15Z</time></trkpt><trkpt lat="39.47882178577014" lon="9.505702821335634"><ele>43.0</ele><time>2026-04-04T15:09:16Z</time></trkpt><trkpt lat="39.47884656735436" lon="9.50608220710225"><ele>42.0</ele><time>2026-04-04T15:09:17Z</time></trkpt><trkpt lat="39.47887588761443" lon="9.506459333113064"><ele>41.0</ele><time>2026-04-04T15:09:18Z</time></trkpt><trkpt lat="39.478916331169" lon="9.50683268517001"><ele>39.5</ele><time>2026-04-04T15:09:19Z</time></trkpt><trkpt lat="39.47897366078258" lon="9.50721171325188"><ele>38.0</ele><time>2026-04-04T15:09:20Z</time></trkpt><trkpt lat="39.47903897234865" lon="9.507595662732049"><ele>37.0</ele><time>2026-04-04T15:09:21Z</time></trkpt><trkpt lat="39.47910294708613" lon="9.507982261440617"><ele>36.0</ele><time>2026-04-04T15:09:22Z</time></trkpt><trkpt lat="39.47916589861888" lon="9.508361722199293"><ele>36.0</ele><time>2026-04-04T15:09:23Z</time></trkpt><trkpt lat="39.47922698316204" lon="9.508742220037567"><ele>36.0</ele><time>2026-04-04T15:09:24Z</time></trkpt><trkpt lat="39.47928934556721" lon="9.509122680443914"><ele>38.5</ele><time>2026-04-04T15:09:25Z</time></trkpt><trkpt lat="39.479362938301485" lon="9.509491060730152"><ele>41.0</ele><time>2026-04-04T15:09:26Z</time></trkpt><trkpt lat="39.47946434451823" lon="9.509841312866818"><ele>41.0</ele><time>2026-04-04T15:09:27Z</time></trkpt><trkpt lat="39.479593771335765" lon="9.510169940150936"><ele>41.0</ele><time>2026-04-04T15:09:28Z</time></trkpt><trkpt lat="39.47972783632498" lon="9.510489932976272"><ele>36.0</ele><time>2026-04-04T15:09:29Z</time></trkpt><trkpt lat="39.47985958791918" lon="9.51080064054113"><ele>31.0</ele><time>2026-04-04T15:09:30Z</time></trkpt><trkpt lat="39.47997928795613" lon="9.511090018754526"><ele>37.0</ele><time>2026-04-04T15:09:31Z</time></trkpt><trkpt lat="39.480086867249796" lon="9.511341958071222"><ele>43.0</ele><time>2026-04-04T15:09:32Z</time></trkpt><trkpt lat="39.480177966509274" lon="9.511574484864806"><ele>49.0</ele><time>2026-04-04T15:09:33Z</time></trkpt><trkpt lat="39.480253579119406" lon="9.511808458894427"><ele>49.0</ele><time>2026-04-04T15:09:34Z</time></trkpt><trkpt lat="39.48031057681532" lon="9.512049945037182"><ele>49.0</ele><time>2026-04-04T15:09:35Z</time></trkpt><trkpt lat="39.480337483747796" lon="9.512309543360683"><ele>49.0</ele><time>2026-04-04T15:09:36Z</time></trkpt><trkpt lat="39.48035367294958" lon="9.51259510880206"><ele>50.0</ele><time>2026-04-04T15:09:37Z</time></trkpt><trkpt lat="39.480383541299936" lon="9.51290561237279"><ele>51.0</ele><time>2026-04-04T15:09:38Z</time></trkpt><trkpt lat="39.48040858988451" lon="9.513236700743828"><ele>51.0</ele><time>2026-04-04T15:09:39Z</time></trkpt><trkpt lat="39.4804297233589" lon="9.513574676947373"><ele>51.0</ele><time>2026-04-04T15:09:40Z</time></trkpt><trkpt lat="39.480454468195006" lon="9.513926286943162"><ele>39.0</ele><time>2026-04-04T15:09:41Z</time></trkpt><trkpt lat="39.48047107857146" lon="9.514286616128206"><ele>27.0</ele><time>2026-04-04T15:09:42Z</time></trkpt><trkpt lat="39.48046905462092" lon="9.514632789544242"><ele>39.0</ele><time>2026-04-04T15:09:43Z</time></trkpt><trkpt lat="39.48042950223986" lon="9.51496590172732"><ele>51.0</ele><time>2026-04-04T15:09:44Z</time></trkpt><trkpt lat="39.48040772659064" lon="9.515280587341714"><ele>47.0</ele><time>2026-04-04T15:09:45Z</time></trkpt><trkpt lat="39.48036851786963" lon="9.515579854752968"><ele>43.0</ele><time>2026-04-04T15:09:46Z</time></trkpt><trkpt lat="39.4803146515414" lon="9.515875032070705"><ele>43.0</ele><time>2026-04-04T15:09:47Z</time></trkpt><trkpt lat="39.4802322034354" lon="9.516163360005068"><ele>43.0</ele><time>2026-04-04T15:09:48Z</time></trkpt><trkpt lat="39.48011420551858" lon="9.51644373438122"><ele>38.5</ele><time>2026-04-04T15:09:49Z</time></trkpt><trkpt lat="39.47999290135606" lon="9.516730337320558"><ele>34.0</ele><time>2026-04-04T15:09:50Z</time></trkpt><trkpt lat="39.47987586715447" lon="9.51702753346453"><ele>29.0</ele><time>2026-04-04T15:09:51Z</time></trkpt><trkpt lat="39.4797644582482" lon="9.51733623532162"><ele>24.0</ele><time>2026-04-04T15:09:52Z</time></trkpt><trkpt lat="39.4796631648617" lon="9.517660642208934"><ele>26.0</ele><time>2026-04-04T15:09:53Z</time></trkpt><trkpt lat="39.479570465706665" lon="9.517999351748015"><ele>28.0</ele><time>2026-04-04T15:09:54Z</time></trkpt><trkpt lat="39.47948245337559" lon="9.518345182348998"><ele>28.0</ele><time>2026-04-04T15:09:55Z</time></trkpt><trkpt lat="39.47939432919715" lon="9.518699950253538"><ele>28.0</ele><time>2026-04-04T15:09:56Z</time></trkpt><trkpt lat="39.47930868517964" lon="9.519042003729513"><ele>28.0</ele><time>2026-04-04T15:09:57Z</time></trkpt><trkpt lat="39.47922733844489" lon="9.519375326500136"><ele>28.0</ele><time>2026-04-04T15:09:58Z</time></trkpt><trkpt lat="39.47914416823408" lon="9.519695550758586"><ele>29.0</ele><time>2026-04-04T15:09:59Z</time></trkpt><trkpt lat="39.479040538553875" lon="9.519990363796847"><ele>30.0</ele><time>2026-04-04T15:10:00Z</time></trkpt><trkpt lat="39.478907767352325" lon="9.520262247182417"><ele>36.5</ele><time>2026-04-04T15:10:01Z</time></trkpt><trkpt lat="39.47874985359339" lon="9.520509429695634"><ele>43.0</ele><time>2026-04-04T15:10:02Z</time></trkpt><trkpt lat="39.47859316156036" lon="9.520735756666264"><ele>43.0</ele><time>2026-04-04T15:10:03Z</time></trkpt><trkpt lat="39.478445216693295" lon="9.520978876840637"><ele>43.0</ele><time>2026-04-04T15:10:04Z</time></trkpt><trkpt lat="39.478313609234156" lon="9.521235062964486"><ele>39.0</ele><time>2026-04-04T15:10:05Z</time></trkpt><trkpt lat="39.478222027770485" lon="9.52152521388754"><ele>35.0</ele><time>2026-04-04T15:10:06Z</time></trkpt><trkpt lat="39.47815299610703" lon="9.52184201815601"><ele>30.5</ele><time>2026-04-04T15:10:07Z</time></trkpt><trkpt lat="39.478070716307904" lon="9.522150580579709"><ele>26.0</ele><time>2026-04-04T15:10:08Z</time></trkpt><trkpt lat="39.47797632792767" lon="9.522461069553572"><ele>44.5</ele><time>2026-04-04T15:10:09Z</time></trkpt><trkpt lat="39.47788585278902" lon="9.52277998318093"><ele>63.0</ele><time>2026-04-04T15:10:10Z</time></trkpt><trkpt lat="39.47780113301009" lon="9.523106442133512"><ele>63.0</ele><time>2026-04-04T15:10:11Z</time></trkpt><trkpt lat="39.47771716748789" lon="9.523437915893817"><ele>63.0</ele><time>2026-04-04T15:10:12Z</time></trkpt><trkpt lat="39.4776263627231" lon="9.523772511714379"><ele>53.5</ele><time>2026-04-04T15:10:13Z</time></trkpt><trkpt lat="39.4775256198823" lon="9.524096191997888"><ele>44.0</ele><time>2026-04-04T15:10:14Z</time></trkpt><trkpt lat="39.477417412232775" lon="9.524404716236766"><ele>35.5</ele><time>2026-04-04T15:10:15Z</time></trkpt><trkpt lat="39.47730807834011" lon="9.524707241072216"><ele>27.0</ele><time>2026-04-04T15:10:16Z</time></trkpt><trkpt lat="39.477209748143956" lon="9.525007405315698"><ele>27.0</ele><time>2026-04-04T15:10:17Z</time></trkpt><trkpt lat="39.47713360791355" lon="9.525313126016728"><ele>27.0</ele><time>2026-04-04T15:10:18Z</time></trkpt><trkpt lat="39.47707628122605" lon="9.52563839494669"><ele>40.5</ele><time>2026-04-04T15:10:19Z</time></trkpt><trkpt lat="39.477049352139964" lon="9.525972711144986"><ele>54.0</ele><time>2026-04-04T15:10:20Z</time></trkpt><trkpt lat="39.47703914517378" lon="9.526303036901918"><ele>56.5</ele><time>2026-04-04T15:10:21Z</time></trkpt><trkpt lat="39.47703209543973" lon="9.526630230323656"><ele>59.0</ele><time>2026-04-04T15:10:22Z</time></trkpt><trkpt lat="39.477004818691036" lon="9.526977290018754"><ele>58.5</ele><time>2026-04-04T15:10:23Z</time></trkpt><trkpt lat="39.476998244038874" lon="9.527307446914001"><ele>58.0</ele><time>2026-04-04T15:10:24Z</time></trkpt><trkpt lat="39.476964575461025" lon="9.527624450414905"><ele>54.5</ele><time>2026-04-04T15:10:25Z</time></trkpt><trkpt lat="39.47690740692702" lon="9.527949078456263"><ele>51.0</ele><time>2026-04-04T15:10:26Z</time></trkpt><trkpt lat="39.4768690417859" lon="9.528284145170367"><ele>51.0</ele><time>2026-04-04T15:10:27Z</time></trkpt><trkpt lat="39.47682135040368" lon="9.52860380181121"><ele>51.0</ele><time>2026-04-04T15:10:28Z</time></trkpt><trkpt lat="39.47678572261513" lon="9.52893241157396"><ele>46.5</ele><time>2026-04-04T15:10:29Z</time></trkpt><trkpt lat="39.476759845859945" lon="9.529257589529363"><ele>42.0</ele><time>2026-04-04T15:10:30Z</time></trkpt><trkpt lat="39.476728706038905" lon="9.529588727787896"><ele>36.0</ele><time>2026-04-04T15:10:31Z</time></trkpt><trkpt lat="39.47668540025577" lon="9.5299134124487"><ele>30.0</ele><time>2026-04-04T15:10:32Z</time></trkpt><trkpt lat="39.47663587020352" lon="9.530234617101142"><ele>28.0</ele><time>2026-04-04T15:10:33Z</time></trkpt><trkpt lat="39.476588797398925" lon="9.53055126715421"><ele>26.0</ele><time>2026-04-04T15:10:34Z</time></trkpt><trkpt lat="39.47654400568238" lon="9.530867596254732"><ele>26.0</ele><time>2026-04-04T15:10:35Z</time></trkpt><trkpt lat="39.47648373415144" lon="9.531182769970886"><ele>26.0</ele><time>2026-04-04T15:10:36Z</time></trkpt><trkpt lat="39.4763963403426" lon="9.531481200145253"><ele>41.0</ele><time>2026-04-04T15:10:37Z</time></trkpt><trkpt lat="39.47619499957043" lon="9.532063094836392"><ele>41.0</ele><time>2026-04-04T15:10:39Z</time></trkpt><trkpt lat="39.476087475529674" lon="9.532365368012355"><ele>41.0</ele><time>2026-04-04T15:10:40Z</time></trkpt><trkpt lat="39.475980508509544" lon="9.532664451993037"><ele>37.5</ele><time>2026-04-04T15:10:41Z</time></trkpt><trkpt lat="39.475875061754934" lon="9.532967813271512"><ele>34.0</ele><time>2026-04-04T15:10:42Z</time></trkpt><trkpt lat="39.475767962625014" lon="9.533269061972808"><ele>34.0</ele><time>2026-04-04T15:10:43Z</time></trkpt><trkpt lat="39.47566350365874" lon="9.533564422896935"><ele>34.0</ele><time>2026-04-04T15:10:44Z</time></trkpt><trkpt lat="39.47556104527037" lon="9.53386416627852"><ele>29.0</ele><time>2026-04-04T15:10:45Z</time></trkpt><trkpt lat="39.47546321354059" lon="9.534157006504067"><ele>24.0</ele><time>2026-04-04T15:10:46Z</time></trkpt><trkpt lat="39.47536668456419" lon="9.534438235026581"><ele>34.5</ele><time>2026-04-04T15:10:47Z</time></trkpt><trkpt lat="39.475271301280934" lon="9.534706884541551"><ele>45.0</ele><time>2026-04-04T15:10:48Z</time></trkpt><trkpt lat="39.47518073993442" lon="9.53496862741958"><ele>45.0</ele><time>2026-04-04T15:10:49Z</time></trkpt><trkpt lat="39.4751110548103" lon="9.53523625661993"><ele>45.0</ele><time>2026-04-04T15:10:50Z</time></trkpt><trkpt lat="39.475063196473386" lon="9.535508766081875"><ele>45.0</ele><time>2026-04-04T15:10:51Z</time></trkpt><trkpt lat="39.47503571809553" lon="9.535785948499719"><ele>44.666666666666664</ele><time>2026-04-04T15:10:52Z</time></trkpt><trkpt lat="39.47502917853212" lon="9.536062403643257"><ele>44.33333333333333</ele><time>2026-04-04T15:10:53Z</time></trkpt><trkpt lat="39.47506664176228" lon="9.536338057165946"><ele>44.0</ele><time>2026-04-04T15:10:54Z</time></trkpt><trkpt lat="39.47510682897273" lon="9.536609941891864"><ele>45.0</ele><time>2026-04-04T15:10:55Z</time></trkpt><trkpt lat="39.475101315763034" lon="9.5368810824499"><ele>46.0</ele><time>2026-04-04T15:10:56Z</time></trkpt><trkpt lat="39.475249448163375" lon="9.537125392302631"><ele>47.0</ele><time>2026-04-04T15:10:57Z</time></trkpt><trkpt lat="39.47534575555765" lon="9.537352946294828"><ele>43.33333333333333</ele><time>2026-04-04T15:10:58Z</time></trkpt><trkpt lat="39.47543795766736" lon="9.537551820898642"><ele>39.666666666666664</ele><time>2026-04-04T15:10:59Z</time></trkpt><trkpt lat="39.47551351571428" lon="9.537731018102685"><ele>36.0</ele><time>2026-04-04T15:11:00Z</time></trkpt><trkpt lat="39.47557608873418" lon="9.537905709916046"><ele>36.0</ele><time>2026-04-04T15:11:01Z</time></trkpt><trkpt lat="39.47563080905696" lon="9.538088159127689"><ele>36.0</ele><time>2026-04-04T15:11:02Z</time></trkpt><trkpt lat="39.4756853069939" lon="9.538277678246834"><ele>36.0</ele><time>2026-04-04T15:11:03Z</time></trkpt><trkpt lat="39.47574383793218" lon="9.53846755610676"><ele>36.0</ele><time>2026-04-04T15:11:04Z</time></trkpt><trkpt lat="39.47580539068248" lon="9.538657519524776"><ele>36.0</ele><time>2026-04-04T15:11:05Z</time></trkpt><trkpt lat="39.47585927359038" lon="9.538847534600825"><ele>36.0</ele><time>2026-04-04T15:11:06Z</time></trkpt><trkpt lat="39.47589531294582" lon="9.539042017964546"><ele>37.5</ele><time>2026-04-04T15:11:07Z</time></trkpt><trkpt lat="39.47590439676899" lon="9.53923310516267"><ele>39.0</ele><time>2026-04-04T15:11:08Z</time></trkpt><trkpt lat="39.47591258201748" lon="9.539411416182558"><ele>40.5</ele><time>2026-04-04T15:11:09Z</time></trkpt><trkpt lat="39.47589345807951" lon="9.539570486185696"><ele>42.0</ele><time>2026-04-04T15:11:10Z</time></trkpt><trkpt lat="39.475834130933414" lon="9.539700157839158"><ele>42.0</ele><time>2026-04-04T15:11:11Z</time></trkpt><trkpt lat="39.47574612013017" lon="9.53978584232222"><ele>42.0</ele><time>2026-04-04T15:11:12Z</time></trkpt><trkpt lat="39.47563573308198" lon="9.539809121792976"><ele>42.0</ele><time>2026-04-04T15:11:13Z</time></trkpt><trkpt lat="39.47552900251305" lon="9.53978975862758"><ele>42.0</ele><time>2026-04-04T15:11:14Z</time></trkpt><trkpt lat="39.47541381167447" lon="9.539743382203726"><ele>38.75</ele><time>2026-04-04T15:11:15Z</time></trkpt><trkpt lat="39.47529994784643" lon="9.539694355266858"><ele>35.5</ele><time>2026-04-04T15:11:16Z</time></trkpt><trkpt lat="39.47518959153298" lon="9.539631983563037"><ele>32.25</ele><time>2026-04-04T15:11:17Z</time></trkpt><trkpt lat="39.47507161940911" lon="9.539540339316671"><ele>29.0</ele><time>2026-04-04T15:11:18Z</time></trkpt><trkpt lat="39.474961789210155" lon="9.539409783390145"><ele>32.0</ele><time>2026-04-04T15:11:19Z</time></trkpt><trkpt lat="39.47483340216716" lon="9.53930769415564"><ele>35.0</ele><time>2026-04-04T15:11:20Z</time></trkpt><trkpt lat="39.474695901820944" lon="9.539196643126283"><ele>38.0</ele><time>2026-04-04T15:11:21Z</time></trkpt><trkpt lat="39.47454793040085" lon="9.539101369117525"><ele>38.0</ele><time>2026-04-04T15:11:22Z</time></trkpt><trkpt lat="39.47437739767678" lon="9.53902515642606"><ele>38.0</ele><time>2026-04-04T15:11:23Z</time></trkpt><trkpt lat="39.47418722634475" lon="9.538957649621004"><ele>38.0</ele><time>2026-04-04T15:11:24Z</time></trkpt><trkpt lat="39.47399141717717" lon="9.538878598800492"><ele>38.0</ele><time>2026-04-04T15:11:25Z</time></trkpt><trkpt lat="39.4737900201706" lon="9.538782988216463"><ele>38.0</ele><time>2026-04-04T15:11:26Z</time></trkpt><trkpt lat="39.47357499074007" lon="9.538694010007251"><ele>38.0</ele><time>2026-04-04T15:11:27Z</time></trkpt><trkpt lat="39.47334015854009" lon="9.53861391989207"><ele>39.5</ele><time>2026-04-04T15:11:28Z</time></trkpt><trkpt lat="39.473086445438646" lon="9.538546959655385"><ele>41.0</ele><time>2026-04-04T15:11:29Z</time></trkpt><trkpt lat="39.47282861864578" lon="9.538494908287918"><ele>41.0</ele><time>2026-04-04T15:11:30Z</time></trkpt><trkpt lat="39.47258440700094" lon="9.538439614997342"><ele>41.0</ele><time>2026-04-04T15:11:31Z</time></trkpt><trkpt lat="39.47235348938502" lon="9.5383750153842"><ele>41.0</ele><time>2026-04-04T15:11:32Z</time></trkpt><trkpt lat="39.47213494638325" lon="9.538302503844646"><ele>41.0</ele><time>2026-04-04T15:11:33Z</time></trkpt><trkpt lat="39.47192309269443" lon="9.538240486617473"><ele>41.0</ele><time>2026-04-04T15:11:34Z</time></trkpt><trkpt lat="39.47170676334194" lon="9.538207489498907"><ele>39.0</ele><time>2026-04-04T15:11:35Z</time></trkpt><trkpt lat="39.47148101780212" lon="9.538214638225956"><ele>37.0</ele><time>2026-04-04T15:11:36Z</time></trkpt><trkpt lat="39.47125517455273" lon="9.538256792341379"><ele>37.0</ele><time>2026-04-04T15:11:37Z</time></trkpt><trkpt lat="39.471033348970956" lon="9.53829260916427"><ele>37.0</ele><time>2026-04-04T15:11:38Z</time></trkpt><trkpt lat="39.470824689620414" lon="9.538292306169216"><ele>37.0</ele><time>2026-04-04T15:11:39Z</time></trkpt><trkpt lat="39.47061871058336" lon="9.538273623424436"><ele>37.66666666666667</ele><time>2026-04-04T15:11:40Z</time></trkpt><trkpt lat="39.47041108112589" lon="9.538274827198089"><ele>38.333333333333336</ele><time>2026-04-04T15:11:41Z</time></trkpt><trkpt lat="39.47020071165059" lon="9.538358912711724"><ele>39.0</ele><time>2026-04-04T15:11:42Z</time></trkpt><trkpt lat="39.469977852099376" lon="9.538492906031133"><ele>39.0</ele><time>2026-04-04T15:11:43Z</time></trkpt><trkpt lat="39.46973623900197" lon="9.538604686379324"><ele>39.0</ele><time>2026-04-04T15:11:44Z</time></trkpt><trkpt lat="39.46946831080252" lon="9.53868409060725"><ele>30.5</ele><time>2026-04-04T15:11:45Z</time></trkpt><trkpt lat="39.46918921862575" lon="9.538744800267708"><ele>22.0</ele><time>2026-04-04T15:11:46Z</time></trkpt><trkpt lat="39.468916891359584" lon="9.538786711438032"><ele>25.0</ele><time>2026-04-04T15:11:47Z</time></trkpt><trkpt lat="39.46865860850346" lon="9.538832788153984"><ele>28.0</ele><time>2026-04-04T15:11:48Z</time></trkpt><trkpt lat="39.46841411427958" lon="9.538911072184305"><ele>28.0</ele><time>2026-04-04T15:11:49Z</time></trkpt><trkpt lat="39.468187443418856" lon="9.539007983444069"><ele>28.0</ele><time>2026-04-04T15:11:50Z</time></trkpt><trkpt lat="39.46796667872525" lon="9.539095195736923"><ele>33.0</ele><time>2026-04-04T15:11:51Z</time></trkpt><trkpt lat="39.467747118460444" lon="9.539163624757009"><ele>38.0</ele><time>2026-04-04T15:11:52Z</time></trkpt><trkpt lat="39.46752798270214" lon="9.53922266179251"><ele>38.0</ele><time>2026-04-04T15:11:53Z</time></trkpt><trkpt lat="39.46730514469119" lon="9.539262565990741"><ele>38.0</ele><time>2026-04-04T15:11:54Z</time></trkpt><trkpt lat="39.4670735632076" lon="9.539270801329446"><ele>38.0</ele><time>2026-04-04T15:11:55Z</time></trkpt><trkpt lat="39.466836955076616" lon="9.5392210438343"><ele>38.0</ele><time>2026-04-04T15:11:56Z</time></trkpt><trkpt lat="39.46658764731576" lon="9.53916135510005"><ele>38.0</ele><time>2026-04-04T15:11:57Z</time></trkpt><trkpt lat="39.46632942143425" lon="9.539115507999224"><ele>38.0</ele><time>2026-04-04T15:11:58Z</time></trkpt><trkpt lat="39.46605535089958" lon="9.539089755140045"><ele>37.0</ele><time>2026-04-04T15:11:59Z</time></trkpt><trkpt lat="39.46577136413943" lon="9.539079169996466"><ele>36.0</ele><time>2026-04-04T15:12:00Z</time></trkpt><trkpt lat="39.46547605215909" lon="9.539083836583675"><ele>36.5</ele><time>2026-04-04T15:12:01Z</time></trkpt><trkpt lat="39.46518341335644" lon="9.539093087725181"><ele>37.0</ele><time>2026-04-04T15:12:02Z</time></trkpt><trkpt lat="39.46490113303456" lon="9.539098816446765"><ele>37.0</ele><time>2026-04-04T15:12:03Z</time></trkpt><trkpt lat="39.46463015408414" lon="9.539098240337081"><ele>37.0</ele><time>2026-04-04T15:12:04Z</time></trkpt><trkpt lat="39.46436744411408" lon="9.539092133562288"><ele>38.0</ele><time>2026-04-04T15:12:05Z</time></trkpt><trkpt lat="39.464112659670675" lon="9.53908090243194"><ele>39.0</ele><time>2026-04-04T15:12:06Z</time></trkpt><trkpt lat="39.46386756025306" lon="9.539070775200544"><ele>36.0</ele><time>2026-04-04T15:12:07Z</time></trkpt><trkpt lat="39.46363337659303" lon="9.539060836940449"><ele>33.0</ele><time>2026-04-04T15:12:08Z</time></trkpt><trkpt lat="39.46340798286506" lon="9.539072210715476"><ele>33.0</ele><time>2026-04-04T15:12:09Z</time></trkpt><trkpt lat="39.463182783937945" lon="9.53913494863584"><ele>33.0</ele><time>2026-04-04T15:12:10Z</time></trkpt><trkpt lat="39.462966468026806" lon="9.53926565848765"><ele>32.5</ele><time>2026-04-04T15:12:11Z</time></trkpt><trkpt lat="39.462763197517866" lon="9.539461485260288"><ele>32.0</ele><time>2026-04-04T15:12:12Z</time></trkpt><trkpt lat="39.462573680523256" lon="9.539720862369323"><ele>32.0</ele><time>2026-04-04T15:12:13Z</time></trkpt><trkpt lat="39.46238282068818" lon="9.539982754347358"><ele>32.0</ele><time>2026-04-04T15:12:14Z</time></trkpt><trkpt lat="39.46219556716281" lon="9.54022890861028"><ele>33.0</ele><time>2026-04-04T15:12:15Z</time></trkpt><trkpt lat="39.462025862471904" lon="9.540468182334665"><ele>34.0</ele><time>2026-04-04T15:12:16Z</time></trkpt><trkpt lat="39.461873687463886" lon="9.540709246259677"><ele>34.0</ele><time>2026-04-04T15:12:17Z</time></trkpt><trkpt lat="39.46171299970706" lon="9.540908514725427"><ele>34.0</ele><time>2026-04-04T15:12:18Z</time></trkpt><trkpt lat="39.46153102916969" lon="9.541088674453112"><ele>29.5</ele><time>2026-04-04T15:12:19Z</time></trkpt><trkpt lat="39.46132740961596" lon="9.541249028784524"><ele>25.0</ele><time>2026-04-04T15:12:20Z</time></trkpt><trkpt lat="39.46111895422068" lon="9.54139636103942"><ele>25.0</ele><time>2026-04-04T15:12:21Z</time></trkpt><trkpt lat="39.46090868506316" lon="9.541529414980625"><ele>25.0</ele><time>2026-04-04T15:12:22Z</time></trkpt><trkpt lat="39.46069249033746" lon="9.541639165244018"><ele>25.0</ele><time>2026-04-04T15:12:23Z</time></trkpt><trkpt lat="39.46047784736132" lon="9.541740158577877"><ele>25.0</ele><time>2026-04-04T15:12:24Z</time></trkpt><trkpt lat="39.460257896203515" lon="9.54183182304755"><ele>32.0</ele><time>2026-04-04T15:12:25Z</time></trkpt><trkpt lat="39.46002522597102" lon="9.541892362592133"><ele>39.0</ele><time>2026-04-04T15:12:26Z</time></trkpt><trkpt lat="39.4597810746506" lon="9.541936005677824"><ele>44.0</ele><time>2026-04-04T15:12:27Z</time></trkpt><trkpt lat="39.459524999258825" lon="9.54196383001961"><ele>49.0</ele><time>2026-04-04T15:12:28Z</time></trkpt><trkpt lat="39.45926864521466" lon="9.541973440131544"><ele>49.0</ele><time>2026-04-04T15:12:29Z</time></trkpt><trkpt lat="39.45902028969078" lon="9.541963844494335"><ele>49.0</ele><time>2026-04-04T15:12:30Z</time></trkpt><trkpt lat="39.45876510340587" lon="9.54194971570787"><ele>46.0</ele><time>2026-04-04T15:12:31Z</time></trkpt><trkpt lat="39.45849981907469" lon="9.541934438710314"><ele>43.0</ele><time>2026-04-04T15:12:32Z</time></trkpt><trkpt lat="39.45822751988501" lon="9.54191304928456"><ele>43.0</ele><time>2026-04-04T15:12:33Z</time></trkpt><trkpt lat="39.45796101222945" lon="9.541888808319527"><ele>43.0</ele><time>2026-04-04T15:12:34Z</time></trkpt><trkpt lat="39.45770853651387" lon="9.541877853694313"><ele>40.5</ele><time>2026-04-04T15:12:35Z</time></trkpt><trkpt lat="39.45747225371023" lon="9.54190235088389"><ele>38.0</ele><time>2026-04-04T15:12:36Z</time></trkpt><trkpt lat="39.457244949889734" lon="9.541949120658604"><ele>35.33333333333333</ele><time>2026-04-04T15:12:37Z</time></trkpt><trkpt lat="39.457026600759434" lon="9.541979843630887"><ele>32.666666666666664</ele><time>2026-04-04T15:12:38Z</time></trkpt><trkpt lat="39.45680583501918" lon="9.541957212340193"><ele>30.0</ele><time>2026-04-04T15:12:39Z</time></trkpt><trkpt lat="39.45657653942612" lon="9.541896198667429"><ele>30.0</ele><time>2026-04-04T15:12:40Z</time></trkpt><trkpt lat="39.456354787512296" lon="9.541798261659718"><ele>30.0</ele><time>2026-04-04T15:12:41Z</time></trkpt><trkpt lat="39.456169241163714" lon="9.54162530726544"><ele>25.5</ele><time>2026-04-04T15:12:42Z</time></trkpt><trkpt lat="39.455973217786216" lon="9.541451597202467"><ele>21.0</ele><time>2026-04-04T15:12:43Z</time></trkpt><trkpt lat="39.45580226116684" lon="9.541243360577495"><ele>20.666666666666668</ele><time>2026-04-04T15:12:44Z</time></trkpt><trkpt lat="39.45563141794075" lon="9.541053008950312"><ele>20.333333333333336</ele><time>2026-04-04T15:12:45Z</time></trkpt><trkpt lat="39.455458207598966" lon="9.5408838763874"><ele>20.0</ele><time>2026-04-04T15:12:46Z</time></trkpt><trkpt lat="39.4552872409957" lon="9.540737799857961"><ele>20.0</ele><time>2026-04-04T15:12:47Z</time></trkpt><trkpt lat="39.455114073954974" lon="9.54061442744064"><ele>20.0</ele><time>2026-04-04T15:12:48Z</time></trkpt><trkpt lat="39.45493066894067" lon="9.54054144015205"><ele>20.0</ele><time>2026-04-04T15:12:49Z</time></trkpt><trkpt lat="39.45473284566301" lon="9.540498980163884"><ele>19.666666666666668</ele><time>2026-04-04T15:12:50Z</time></trkpt><trkpt lat="39.45454073149305" lon="9.540485895829502"><ele>19.333333333333332</ele><time>2026-04-04T15:12:51Z</time></trkpt><trkpt lat="39.45436064947946" lon="9.540490404909105"><ele>19.0</ele><time>2026-04-04T15:12:52Z</time></trkpt><trkpt lat="39.454192414973285" lon="9.540493395898528"><ele>19.0</ele><time>2026-04-04T15:12:53Z</time></trkpt><trkpt lat="39.45402748126779" lon="9.540486327042162"><ele>19.0</ele><time>2026-04-04T15:12:54Z</time></trkpt><trkpt lat="39.453863751026425" lon="9.540476959247806"><ele>19.0</ele><time>2026-04-04T15:12:55Z</time></trkpt><trkpt lat="39.45369815261337" lon="9.540470834205202"><ele>18.0</ele><time>2026-04-04T15:12:56Z</time></trkpt><trkpt lat="39.45352961726103" lon="9.540469738881873"><ele>17.0</ele><time>2026-04-04T15:12:57Z</time></trkpt><trkpt lat="39.453355827476315" lon="9.540465144046681"><ele>16.0</ele><time>2026-04-04T15:12:58Z</time></trkpt><trkpt lat="39.453180323678225" lon="9.54045691652961"><ele>16.0</ele><time>2026-04-04T15:12:59Z</time></trkpt><trkpt lat="39.4530064885269" lon="9.540447179545753"><ele>16.0</ele><time>2026-04-04T15:13:00Z</time></trkpt><trkpt lat="39.45283732713242" lon="9.540436229455468"><ele>16.0</ele><time>2026-04-04T15:13:01Z</time></trkpt><trkpt lat="39.45267831737815" lon="9.540429293162816"><ele>15.0</ele><time>2026-04-04T15:13:02Z</time></trkpt><trkpt lat="39.452524871320115" lon="9.540426335827787"><ele>14.0</ele><time>2026-04-04T15:13:03Z</time></trkpt><trkpt lat="39.452368589434755" lon="9.540433583347953"><ele>13.0</ele><time>2026-04-04T15:13:04Z</time></trkpt><trkpt lat="39.45221847468577" lon="9.540459496653064"><ele>13.75</ele><time>2026-04-04T15:13:05Z</time></trkpt><trkpt lat="39.452080895230104" lon="9.540497996392723"><ele>14.5</ele><time>2026-04-04T15:13:06Z</time></trkpt><trkpt lat="39.451942934135786" lon="9.540531488510773"><ele>15.25</ele><time>2026-04-04T15:13:07Z</time></trkpt><trkpt lat="39.451808522431634" lon="9.54057433605655"><ele>16.0</ele><time>2026-04-04T15:13:08Z</time></trkpt><trkpt lat="39.45168511171595" lon="9.540613676722339"><ele>16.0</ele><time>2026-04-04T15:13:09Z</time></trkpt><trkpt lat="39.45157927906948" lon="9.54070535545661"><ele>16.0</ele><time>2026-04-04T15:13:10Z</time></trkpt><trkpt lat="39.45146838234545" lon="9.540737602352678"><ele>16.0</ele><time>2026-04-04T15:13:11Z</time></trkpt><trkpt lat="39.45136195834496" lon="9.54077282066914"><ele>16.0</ele><time>2026-04-04T15:13:12Z</time></trkpt><trkpt lat="39.45126634449434" lon="9.540794985128505"><ele>16.0</ele><time>2026-04-04T15:13:13Z</time></trkpt><trkpt lat="39.451177039692205" lon="9.540784371500925"><ele>16.0</ele><time>2026-04-04T15:13:14Z</time></trkpt><trkpt lat="39.451091760243656" lon="9.540775447727205"><ele>16.0</ele><time>2026-04-04T15:13:15Z</time></trkpt><trkpt lat="39.45100633559283" lon="9.540792291834357"><ele>16.0</ele><time>2026-04-04T15:13:16Z</time></trkpt><trkpt lat="39.45092088414932" lon="9.540823543299807"><ele>16.0</ele><time>2026-04-04T15:13:17Z</time></trkpt><trkpt lat="39.45081908570673" lon="9.540851340021046"><ele>16.0</ele><time>2026-04-04T15:13:18Z</time></trkpt><trkpt lat="39.45070040869252" lon="9.540847960650943"><ele>16.0</ele><time>2026-04-04T15:13:19Z</time></trkpt><trkpt lat="39.45057088155804" lon="9.540819846320737"><ele>16.0</ele><time>2026-04-04T15:13:20Z</time></trkpt><trkpt lat="39.45043142189205" lon="9.54078310429768"><ele>16.0</ele><time>2026-04-04T15:13:21Z</time></trkpt><trkpt lat="39.45028548533839" lon="9.540747873475192"><ele>16.0</ele><time>2026-04-04T15:13:22Z</time></trkpt><trkpt lat="39.45014965525706" lon="9.540726574792084"><ele>16.25</ele><time>2026-04-04T15:13:23Z</time></trkpt><trkpt lat="39.45002332534558" lon="9.540718258057975"><ele>16.5</ele><time>2026-04-04T15:13:24Z</time></trkpt><trkpt lat="39.44990066860169" lon="9.540715303155556"><ele>16.75</ele><time>2026-04-04T15:13:25Z</time></trkpt><trkpt lat="39.449777796749736" lon="9.54070651449099"><ele>17.0</ele><time>2026-04-04T15:13:26Z</time></trkpt><trkpt lat="39.44965734321288" lon="9.54070481996011"><ele>17.5</ele><time>2026-04-04T15:13:27Z</time></trkpt><trkpt lat="39.44954618303642" lon="9.540713617170777"><ele>18.0</ele><time>2026-04-04T15:13:28Z</time></trkpt><trkpt lat="39.44943297734693" lon="9.540720683203956"><ele>18.5</ele><time>2026-04-04T15:13:29Z</time></trkpt><trkpt lat="39.44931478455245" lon="9.540727883796203"><ele>19.0</ele><time>2026-04-04T15:13:30Z</time></trkpt><trkpt lat="39.44920054786856" lon="9.540738581267478"><ele>19.0</ele><time>2026-04-04T15:13:31Z</time></trkpt><trkpt lat="39.44909054470003" lon="9.540747848209987"><ele>19.0</ele><time>2026-04-04T15:13:32Z</time></trkpt><trkpt lat="39.448989033572964" lon="9.540758561721637"><ele>19.0</ele><time>2026-04-04T15:13:33Z</time></trkpt><trkpt lat="39.44889060562362" lon="9.540768177708307"><ele>19.0</ele><time>2026-04-04T15:13:34Z</time></trkpt><trkpt lat="39.448792184502366" lon="9.540776333395423"><ele>19.0</ele><time>2026-04-04T15:13:35Z</time></trkpt><trkpt lat="39.44868697459583" lon="9.540782685241254"><ele>19.0</ele><time>2026-04-04T15:13:36Z</time></trkpt><trkpt lat="39.44858557935529" lon="9.540788979264867"><ele>19.0</ele><time>2026-04-04T15:13:37Z</time></trkpt><trkpt lat="39.4484835644427" lon="9.54079059158075"><ele>19.0</ele><time>2026-04-04T15:13:38Z</time></trkpt><trkpt lat="39.4483854265152" lon="9.540780308020647"><ele>19.0</ele><time>2026-04-04T15:13:39Z</time></trkpt><trkpt lat="39.44829469181735" lon="9.540765050782918"><ele>19.0</ele><time>2026-04-04T15:13:40Z</time></trkpt><trkpt lat="39.448219134005754" lon="9.540758203947194"><ele>19.0</ele><time>2026-04-04T15:13:41Z</time></trkpt><trkpt lat="39.448156206083695" lon="9.540750885125732"><ele>19.0</ele><time>2026-04-04T15:13:42Z</time></trkpt><trkpt lat="39.4480866358005" lon="9.5407358832145"><ele>19.0</ele><time>2026-04-04T15:13:43Z</time></trkpt><trkpt lat="39.447999355561016" lon="9.540715975080532"><ele>19.0</ele><time>2026-04-04T15:13:44Z</time></trkpt><trkpt lat="39.447895692274685" lon="9.540694370792371"><ele>19.0</ele><time>2026-04-04T15:13:45Z</time></trkpt><trkpt lat="39.447783167424106" lon="9.540667089908796"><ele>19.0</ele><time>2026-04-04T15:13:46Z</time></trkpt><trkpt lat="39.4476753681562" lon="9.540635984535356"><ele>18.25</ele><time>2026-04-04T15:13:47Z</time></trkpt><trkpt lat="39.44756528639517" lon="9.540610533734077"><ele>17.5</ele><time>2026-04-04T15:13:48Z</time></trkpt><trkpt lat="39.44746066846974" lon="9.54060147346812"><ele>16.75</ele><time>2026-04-04T15:13:49Z</time></trkpt><trkpt lat="39.447352432600056" lon="9.540610554149952"><ele>16.0</ele><time>2026-04-04T15:13:50Z</time></trkpt><trkpt lat="39.44721654109429" lon="9.540619650978389"><ele>15.5</ele><time>2026-04-04T15:13:51Z</time></trkpt><trkpt lat="39.44708679251454" lon="9.540623749969681"><ele>15.0</ele><time>2026-04-04T15:13:52Z</time></trkpt><trkpt lat="39.44696315305134" lon="9.540630091884298"><ele>14.5</ele><time>2026-04-04T15:13:53Z</time></trkpt><trkpt lat="39.44684287555067" lon="9.540624710052814"><ele>14.0</ele><time>2026-04-04T15:13:54Z</time></trkpt><trkpt lat="39.44672158211644" lon="9.540614883075104"><ele>14.0</ele><time>2026-04-04T15:13:55Z</time></trkpt><trkpt lat="39.44659971669842" lon="9.54059244965625"><ele>14.0</ele><time>2026-04-04T15:13:56Z</time></trkpt><trkpt lat="39.446481818330945" lon="9.5405799335243"><ele>14.0</ele><time>2026-04-04T15:13:57Z</time></trkpt><trkpt lat="39.446373704933904" lon="9.540530464686952"><ele>14.0</ele><time>2026-04-04T15:13:58Z</time></trkpt><trkpt lat="39.44627085661347" lon="9.540490998849146"><ele>14.399999999999999</ele><time>2026-04-04T15:13:59Z</time></trkpt><trkpt lat="39.44618003570177" lon="9.540459416835207"><ele>14.799999999999999</ele><time>2026-04-04T15:14:00Z</time></trkpt><trkpt lat="39.44611331448114" lon="9.540431704775738"><ele>15.200000000000001</ele><time>2026-04-04T15:14:01Z</time></trkpt><trkpt lat="39.446010369713285" lon="9.540400318324506"><ele>15.600000000000001</ele><time>2026-04-04T15:14:03Z</time></trkpt><trkpt lat="39.445906992821364" lon="9.54037589624382"><ele>16.0</ele><time>2026-04-04T15:14:05Z</time></trkpt><trkpt lat="39.44579880772209" lon="9.540343393858253"><ele>16.333333333333332</ele><time>2026-04-04T15:14:06.999Z</time></trkpt><trkpt lat="39.44574097550341" lon="9.54030145454268"><ele>16.666666666666664</ele><time>2026-04-04T15:14:08Z</time></trkpt><trkpt lat="39.44567636456162" lon="9.54029003592112"><ele>17.0</ele><time>2026-04-04T15:14:09Z</time></trkpt><trkpt lat="39.4455955559315" lon="9.540278166837945"><ele>17.333333333333332</ele><time>2026-04-04T15:14:10Z</time></trkpt><trkpt lat="39.44552537092677" lon="9.540282810218162"><ele>17.666666666666668</ele><time>2026-04-04T15:14:11Z</time></trkpt><trkpt lat="39.44541056999269" lon="9.540252572503046"><ele>18.0</ele><time>2026-04-04T15:14:13Z</time></trkpt><trkpt lat="39.445297508143554" lon="9.54024832114143"><ele>18.0</ele><time>2026-04-04T15:14:15Z</time></trkpt><trkpt lat="39.445199663911886" lon="9.540213899007048"><ele>18.0</ele><time>2026-04-04T15:14:17Z</time></trkpt><trkpt lat="39.44510191976638" lon="9.540201770505151"><ele>18.0</ele><time>2026-04-04T15:14:19Z</time></trkpt><trkpt lat="39.444993311202765" lon="9.540188711816075"><ele>18.0</ele><time>2026-04-04T15:14:21Z</time></trkpt><trkpt lat="39.44487520737897" lon="9.540197785061833"><ele>18.0</ele><time>2026-04-04T15:14:23Z</time></trkpt><trkpt lat="39.44478998791242" lon="9.540303895964914"><ele>17.4</ele><time>2026-04-04T15:14:25Z</time></trkpt><trkpt lat="39.44470230529472" lon="9.540384572800312"><ele>16.8</ele><time>2026-04-04T15:14:27Z</time></trkpt><trkpt lat="39.44462963824271" lon="9.540476046214584"><ele>16.2</ele><time>2026-04-04T15:14:29Z</time></trkpt><trkpt lat="39.44455811184899" lon="9.540567612636771"><ele>15.6</ele><time>2026-04-04T15:14:31Z</time></trkpt><trkpt lat="39.444483390205406" lon="9.540678181458471"><ele>15.0</ele><time>2026-04-04T15:14:33Z</time></trkpt><trkpt lat="39.44444728019512" lon="9.540752099425832"><ele>15.0</ele><time>2026-04-04T15:14:34Z</time></trkpt><trkpt lat="39.44441816149322" lon="9.540825224532389"><ele>15.0</ele><time>2026-04-04T15:14:35Z</time></trkpt><trkpt lat="39.44437680155469" lon="9.540965167271771"><ele>15.0</ele><time>2026-04-04T15:14:37Z</time></trkpt><trkpt lat="39.44434436994539" lon="9.541038921104246"><ele>15.0</ele><time>2026-04-04T15:14:38Z</time></trkpt><trkpt lat="39.444302145466686" lon="9.54110564999494"><ele>15.0</ele><time>2026-04-04T15:14:39Z</time></trkpt><trkpt lat="39.44425526986082" lon="9.54116972156003"><ele>15.0</ele><time>2026-04-04T15:14:40Z</time></trkpt><trkpt lat="39.44419765819715" lon="9.54123002253581"><ele>15.0</ele><time>2026-04-04T15:14:41Z</time></trkpt><trkpt lat="39.444140116149455" lon="9.541273860847697"><ele>15.0</ele><time>2026-04-04T15:14:42Z</time></trkpt><trkpt lat="39.444053689885294" lon="9.541310057524703"><ele>15.0</ele><time>2026-04-04T15:14:44Z</time></trkpt><trkpt lat="39.44397060762113" lon="9.541364396342038"><ele>15.0</ele><time>2026-04-04T15:14:47Z</time></trkpt><trkpt lat="39.44390319918094" lon="9.541408483905498"><ele>15.0</ele><time>2026-04-04T15:14:50Z</time></trkpt><trkpt lat="39.443823643988736" lon="9.54146051588603"><ele>15.0</ele><time>2026-04-04T15:14:53Z</time></trkpt><trkpt lat="39.44375752512157" lon="9.541503759987428"><ele>15.5</ele><time>2026-04-04T15:14:55Z</time></trkpt><trkpt lat="39.44367679821129" lon="9.541548291607926"><ele>16.0</ele><time>2026-04-04T15:14:57Z</time></trkpt><trkpt lat="39.44359381282382" lon="9.541590221386352"><ele>16.5</ele><time>2026-04-04T15:14:59Z</time></trkpt><trkpt lat="39.44351185946085" lon="9.541639434368724"><ele>17.0</ele><time>2026-04-04T15:15:01Z</time></trkpt><trkpt lat="39.44343454945096" lon="9.541675308951488"><ele>17.5</ele><time>2026-04-04T15:15:03Z</time></trkpt><trkpt lat="39.44336993982692" lon="9.541696429152854"><ele>18.0</ele><time>2026-04-04T15:15:06Z</time></trkpt><trkpt lat="39.44328520875476" lon="9.541735722651536"><ele>18.0</ele><time>2026-04-04T15:15:09Z</time></trkpt><trkpt lat="39.44320205521539" lon="9.541783392729691"><ele>18.0</ele><time>2026-04-04T15:15:11Z</time></trkpt><trkpt lat="39.44314439124889" lon="9.541821772000777"><ele>18.0</ele><time>2026-04-04T15:15:13Z</time></trkpt><trkpt lat="39.443059327313314" lon="9.541884310683159"><ele>18.0</ele><time>2026-04-04T15:15:26Z</time></trkpt><trkpt lat="39.44299060058464" lon="9.541939000477429"><ele>18.0</ele><time>2026-04-04T15:15:27Z</time></trkpt><trkpt lat="39.44288983456166" lon="9.542010317854306"><ele>18.0</ele><time>2026-04-04T15:15:29Z</time></trkpt><trkpt lat="39.44279770956436" lon="9.54207981851219"><ele>17.833333333333332</ele><time>2026-04-04T15:15:31Z</time></trkpt><trkpt lat="39.442699714758184" lon="9.542132909084367"><ele>17.666666666666668</ele><time>2026-04-04T15:15:33Z</time></trkpt><trkpt lat="39.44262711175958" lon="9.542175903267776"><ele>17.5</ele><time>2026-04-04T15:15:35Z</time></trkpt><trkpt lat="39.44257071699618" lon="9.54222081115046"><ele>17.333333333333336</ele><time>2026-04-04T15:15:39Z</time></trkpt><trkpt lat="39.44250889498054" lon="9.542247422095427"><ele>17.166666666666668</ele><time>2026-04-04T15:15:47Z</time></trkpt><trkpt lat="39.44244826614524" lon="9.542289980319463"><ele>17.0</ele><time>2026-04-04T15:15:50Z</time></trkpt><trkpt lat="39.44236824325604" lon="9.54232423936604"><ele>17.0</ele><time>2026-04-04T15:15:52Z</time></trkpt><trkpt lat="39.44229289390803" lon="9.542385694641757"><ele>17.0</ele><time>2026-04-04T15:15:54Z</time></trkpt><trkpt lat="39.44221922167424" lon="9.542504836387003"><ele>17.0</ele><time>2026-04-04T15:15:56Z</time></trkpt><trkpt lat="39.44212583985109" lon="9.542614249814493"><ele>17.0</ele><time>2026-04-04T15:15:58Z</time></trkpt><trkpt lat="39.44201432407231" lon="9.54269617312283"><ele>16.833333333333336</ele><time>2026-04-04T15:16:00Z</time></trkpt><trkpt lat="39.44194984631835" lon="9.542735597027319"><ele>16.666666666666668</ele><time>2026-04-04T15:16:01Z</time></trkpt><trkpt lat="39.441882765763125" lon="9.542778673731007"><ele>16.5</ele><time>2026-04-04T15:16:02Z</time></trkpt><trkpt lat="39.44181660943296" lon="9.542818412239967"><ele>16.333333333333332</ele><time>2026-04-04T15:16:03Z</time></trkpt><trkpt lat="39.44175542203422" lon="9.54285697727732"><ele>16.166666666666664</ele><time>2026-04-04T15:16:04Z</time></trkpt><trkpt lat="39.44164624718253" lon="9.542919117131317"><ele>16.0</ele><time>2026-04-04T15:16:06Z</time></trkpt><trkpt lat="39.441536982047076" lon="9.542911097019095"><ele>15.999999999999998</ele><time>2026-04-04T15:16:08Z</time></trkpt><trkpt lat="39.44142802234828" lon="9.5428750804827"><ele>16.0</ele><time>2026-04-04T15:16:10Z</time></trkpt><trkpt lat="39.44136324155064" lon="9.542839673004655"><ele>16.0</ele><time>2026-04-04T15:16:11Z</time></trkpt><trkpt lat="39.44129147075178" lon="9.542801890280883"><ele>16.0</ele><time>2026-04-04T15:16:12Z</time></trkpt><trkpt lat="39.44122582970327" lon="9.542768815340931"><ele>15.999999999999998</ele><time>2026-04-04T15:16:13Z</time></trkpt><trkpt lat="39.44116271244108" lon="9.542734916999429"><ele>16.0</ele><time>2026-04-04T15:16:14Z</time></trkpt><trkpt lat="39.4410983401618" lon="9.54270230723074"><ele>15.857142857142856</ele><time>2026-04-04T15:16:15Z</time></trkpt><trkpt lat="39.44102850067873" lon="9.542666261568977"><ele>15.714285714285712</ele><time>2026-04-04T15:16:16Z</time></trkpt><trkpt lat="39.44096038110372" lon="9.542628848165695"><ele>15.571428571428571</ele><time>2026-04-04T15:16:17Z</time></trkpt><trkpt lat="39.44089492108041" lon="9.542596488637775"><ele>15.428571428571427</ele><time>2026-04-04T15:16:18Z</time></trkpt><trkpt lat="39.44083376994358" lon="9.542563832881926"><ele>15.285714285714285</ele><time>2026-04-04T15:16:19Z</time></trkpt><trkpt lat="39.440773213659014" lon="9.542527364710978"><ele>15.142857142857142</ele><time>2026-04-04T15:16:20Z</time></trkpt><trkpt lat="39.44071350430484" lon="9.542496655119349"><ele>15.0</ele><time>2026-04-04T15:16:21Z</time></trkpt><trkpt lat="39.44064947359518" lon="9.542464194569705"><ele>15.0</ele><time>2026-04-04T15:16:22Z</time></trkpt><trkpt lat="39.44058934993503" lon="9.542417610377917"><ele>15.0</ele><time>2026-04-04T15:16:23Z</time></trkpt><trkpt lat="39.44053286294624" lon="9.542373036495745"><ele>15.0</ele><time>2026-04-04T15:16:24Z</time></trkpt><trkpt lat="39.44042391775044" lon="9.542308466619145"><ele>15.0</ele><time>2026-04-04T15:16:26Z</time></trkpt><trkpt lat="39.44036191959636" lon="9.542284477366376"><ele>15.0</ele><time>2026-04-04T15:16:27Z</time></trkpt><trkpt lat="39.44029937818362" lon="9.542260114328643"><ele>15.0</ele><time>2026-04-04T15:16:28Z</time></trkpt><trkpt lat="39.44017927852137" lon="9.542228971416595"><ele>15.0</ele><time>2026-04-04T15:16:30Z</time></trkpt><trkpt lat="39.44006254907216" lon="9.542235169027244"><ele>15.0</ele><time>2026-04-04T15:16:32Z</time></trkpt><trkpt lat="39.439952265541045" lon="9.54225874811996"><ele>15.0</ele><time>2026-04-04T15:16:34Z</time></trkpt><trkpt lat="39.439842558655705" lon="9.542284712435047"><ele>15.0</ele><time>2026-04-04T15:16:36Z</time></trkpt><trkpt lat="39.43972631384668" lon="9.542306592404387"><ele>15.0</ele><time>2026-04-04T15:16:38Z</time></trkpt><trkpt lat="39.43960314180864" lon="9.542321060670655"><ele>15.0</ele><time>2026-04-04T15:16:40Z</time></trkpt><trkpt lat="39.439485730142565" lon="9.542335906635723"><ele>15.0</ele><time>2026-04-04T15:16:42Z</time></trkpt><trkpt lat="39.439389428309845" lon="9.542349797050921"><ele>15.0</ele><time>2026-04-04T15:16:44Z</time></trkpt><trkpt lat="39.4393008851698" lon="9.542359472507062"><ele>15.0</ele><time>2026-04-04T15:16:46Z</time></trkpt><trkpt lat="39.439213698531056" lon="9.54237487604227"><ele>15.0</ele><time>2026-04-04T15:18:07Z</time></trkpt><trkpt lat="39.43913247353605" lon="9.542399782866108"><ele>15.0</ele><time>2026-04-04T15:18:09Z</time></trkpt><trkpt lat="39.43902211603759" lon="9.542400643141773"><ele>15.0</ele><time>2026-04-04T15:18:11Z</time></trkpt><trkpt lat="39.43895633257953" lon="9.542411574267323"><ele>15.0</ele><time>2026-04-04T15:18:12Z</time></trkpt><trkpt lat="39.438884483986236" lon="9.542423347766626"><ele>15.0</ele><time>2026-04-04T15:18:13Z</time></trkpt><trkpt lat="39.438807447142665" lon="9.542434578201226"><ele>15.0</ele><time>2026-04-04T15:18:14Z</time></trkpt><trkpt lat="39.438729950889886" lon="9.542445875611122"><ele>15.166666666666666</ele><time>2026-04-04T15:18:15Z</time></trkpt><trkpt lat="39.43864933867266" lon="9.542455919708194"><ele>15.333333333333332</ele><time>2026-04-04T15:18:16Z</time></trkpt><trkpt lat="39.43856939069877" lon="9.542466007440323"><ele>15.5</ele><time>2026-04-04T15:18:17Z</time></trkpt><trkpt lat="39.43848668756814" lon="9.542476894531339"><ele>15.666666666666666</ele><time>2026-04-04T15:18:18Z</time></trkpt><trkpt lat="39.43840999203386" lon="9.542506571625008"><ele>15.833333333333332</ele><time>2026-04-04T15:18:19Z</time></trkpt><trkpt lat="39.43832828778016" lon="9.542514575537956"><ele>16.0</ele><time>2026-04-04T15:18:20Z</time></trkpt><trkpt lat="39.43824638546749" lon="9.542523353854257"><ele>16.0</ele><time>2026-04-04T15:18:21Z</time></trkpt><trkpt lat="39.438159967316416" lon="9.542540612669036"><ele>16.0</ele><time>2026-04-04T15:18:22Z</time></trkpt><trkpt lat="39.43807323699102" lon="9.542554313107063"><ele>16.0</ele><time>2026-04-04T15:18:23Z</time></trkpt><trkpt lat="39.43798885472745" lon="9.542565981895057"><ele>16.0</ele><time>2026-04-04T15:18:24Z</time></trkpt><trkpt lat="39.43789434814471" lon="9.542567830333326"><ele>16.0</ele><time>2026-04-04T15:18:25Z</time></trkpt><trkpt lat="39.43779130009803" lon="9.54258144589319"><ele>15.75</ele><time>2026-04-04T15:18:26Z</time></trkpt><trkpt lat="39.43768421522357" lon="9.54264174998087"><ele>15.5</ele><time>2026-04-04T15:18:27Z</time></trkpt><trkpt lat="39.43757678507704" lon="9.54273296616901"><ele>15.25</ele><time>2026-04-04T15:18:28Z</time></trkpt><trkpt lat="39.43747251339728" lon="9.542842154556608"><ele>15.0</ele><time>2026-04-04T15:18:29Z</time></trkpt><trkpt lat="39.43736722658573" lon="9.542950173015768"><ele>15.0</ele><time>2026-04-04T15:18:30Z</time></trkpt><trkpt lat="39.437264191480544" lon="9.543044574085172"><ele>15.0</ele><time>2026-04-04T15:18:31Z</time></trkpt><trkpt lat="39.43716161105228" lon="9.543136906836455"><ele>15.0</ele><time>2026-04-04T15:18:32Z</time></trkpt><trkpt lat="39.43706116283471" lon="9.543234127155472"><ele>15.0</ele><time>2026-04-04T15:18:33Z</time></trkpt><trkpt lat="39.43696236786593" lon="9.543325685398784"><ele>15.0</ele><time>2026-04-04T15:18:34Z</time></trkpt><trkpt lat="39.436863871145796" lon="9.543415721505255"><ele>15.0</ele><time>2026-04-04T15:18:35Z</time></trkpt><trkpt lat="39.43677525382861" lon="9.543509675996434"><ele>15.0</ele><time>2026-04-04T15:18:36Z</time></trkpt><trkpt lat="39.436703738287" lon="9.543610364570215"><ele>15.0</ele><time>2026-04-04T15:18:37Z</time></trkpt><trkpt lat="39.436646694710895" lon="9.543714274408563"><ele>15.0</ele><time>2026-04-04T15:18:38Z</time></trkpt><trkpt lat="39.43659091609749" lon="9.543793920253288"><ele>15.0</ele><time>2026-04-04T15:18:39Z</time></trkpt><trkpt lat="39.43644967851827" lon="9.543825731875387"><ele>15.0</ele><time>2026-04-04T15:18:41Z</time></trkpt><trkpt lat="39.4363730165599" lon="9.543793533845507"><ele>15.0</ele><time>2026-04-04T15:18:42Z</time></trkpt><trkpt lat="39.43629004833301" lon="9.543769085611622"><ele>15.0</ele><time>2026-04-04T15:18:43Z</time></trkpt><trkpt lat="39.436205808359354" lon="9.543748582884271"><ele>15.0</ele><time>2026-04-04T15:18:44Z</time></trkpt><trkpt lat="39.436125163052836" lon="9.543718609615139"><ele>15.0</ele><time>2026-04-04T15:18:46Z</time></trkpt></trkseg></trk></gpx>